<?xml version="1.0" encoding="UTF-8" standalone="no" ?>
<gpx xmlns="http://www.topografix.com/GPX/1/1" creator="MapSource 6.15.4" version="1.1" xmlns:xsi="http://www.w3.org/2001/XMLSchema-instance" xsi:schemaLocation="http://www.topografix.com/GPX/1/1 http://www.topografix.com/GPX/1/1/gpx.xsd">

  <metadata>
    <link href="http://www.garmin.com">
      <text>Garmin International</text>
    </link>
    <time>2010-06-21T20:40:30Z</time>
    <bounds maxlat="49.1012180" maxlon="9.6769010" minlat="48.5374260" minlon="7.4561860"/>
  </metadata>

  <trk>
    <name>Königsbach_Mutzig_20100618</name>
    <extensions>
      <gpxx:TrackExtension xmlns:gpxx="http://www.garmin.com/xmlschemas/GpxExtensions/v3">
        <gpxx:DisplayColor>White</gpxx:DisplayColor>
      </gpxx:TrackExtension>
    </extensions>
    <trkseg>
      <trkpt lat="49.1008160" lon="9.6766810">
        <ele>351.5000000</ele>
        <time>2010-06-15T21:07:04Z</time>
      </trkpt>
      <trkpt lat="49.1008160" lon="9.6766810">
        <ele>351.0200000</ele>
        <time>2010-06-15T21:07:07Z</time>
      </trkpt>
      <trkpt lat="49.1008160" lon="9.6766810">
        <ele>350.0600000</ele>
        <time>2010-06-15T21:07:16Z</time>
      </trkpt>
      <trkpt lat="49.1008160" lon="9.6766810">
        <ele>350.5400000</ele>
        <time>2010-06-15T21:07:18Z</time>
      </trkpt>
      <trkpt lat="49.1008300" lon="9.6766120">
        <ele>351.5000000</ele>
        <time>2010-06-15T21:09:53Z</time>
      </trkpt>
      <trkpt lat="49.1008480" lon="9.6766890">
        <ele>351.5000000</ele>
        <time>2010-06-15T21:11:55Z</time>
      </trkpt>
      <trkpt lat="49.1008410" lon="9.6766880">
        <ele>351.5000000</ele>
        <time>2010-06-15T21:12:45Z</time>
      </trkpt>
      <trkpt lat="49.1008410" lon="9.6766880">
        <ele>360.1500000</ele>
        <time>2010-06-15T21:12:55Z</time>
      </trkpt>
      <trkpt lat="49.1008410" lon="9.6766880">
        <ele>353.4200000</ele>
        <time>2010-06-15T21:12:56Z</time>
      </trkpt>
      <trkpt lat="49.1008410" lon="9.6766880">
        <ele>354.3800000</ele>
        <time>2010-06-15T21:13:04Z</time>
      </trkpt>
      <trkpt lat="49.1008410" lon="9.6766880">
        <ele>360.1500000</ele>
        <time>2010-06-15T21:16:31Z</time>
      </trkpt>
      <trkpt lat="49.1008410" lon="9.6766880">
        <ele>354.3800000</ele>
        <time>2010-06-15T21:16:32Z</time>
      </trkpt>
      <trkpt lat="49.1008460" lon="9.6766800">
        <ele>351.9800000</ele>
        <time>2010-06-15T21:16:45Z</time>
      </trkpt>
      <trkpt lat="49.1007830" lon="9.6766090">
        <ele>355.3400000</ele>
        <time>2010-06-15T21:17:03Z</time>
      </trkpt>
      <trkpt lat="49.1007580" lon="9.6765420">
        <ele>359.1900000</ele>
        <time>2010-06-15T21:17:13Z</time>
      </trkpt>
      <trkpt lat="49.1007550" lon="9.6765390">
        <ele>359.1900000</ele>
        <time>2010-06-15T21:17:14Z</time>
      </trkpt>
      <trkpt lat="49.1007080" lon="9.6764980">
        <ele>360.1500000</ele>
        <time>2010-06-15T21:17:33Z</time>
      </trkpt>
      <trkpt lat="49.1007860" lon="9.6766020">
        <ele>363.5200000</ele>
        <time>2010-06-15T21:18:02Z</time>
      </trkpt>
      <trkpt lat="49.1008370" lon="9.6767190">
        <ele>366.4000000</ele>
        <time>2010-06-15T21:18:30Z</time>
      </trkpt>
      <trkpt lat="49.1008160" lon="9.6766930">
        <ele>363.5200000</ele>
        <time>2010-06-15T21:19:46Z</time>
      </trkpt>
      <trkpt lat="49.1008160" lon="9.6766930">
        <ele>364.0000000</ele>
        <time>2010-06-15T21:19:47Z</time>
      </trkpt>
      <trkpt lat="49.1008160" lon="9.6766930">
        <ele>363.5200000</ele>
        <time>2010-06-15T21:19:51Z</time>
      </trkpt>
      <trkpt lat="49.1008160" lon="9.6766930">
        <ele>362.5500000</ele>
        <time>2010-06-15T21:20:06Z</time>
      </trkpt>
      <trkpt lat="49.1008260" lon="9.6766870">
        <ele>363.0400000</ele>
        <time>2010-06-15T21:20:13Z</time>
      </trkpt>
      <trkpt lat="49.1008240" lon="9.6766930">
        <ele>364.0000000</ele>
        <time>2010-06-15T21:21:42Z</time>
      </trkpt>
      <trkpt lat="49.1008500" lon="9.6767280">
        <ele>363.5200000</ele>
        <time>2010-06-15T21:27:51Z</time>
      </trkpt>
      <trkpt lat="49.1008510" lon="9.6767340">
        <ele>365.9200000</ele>
        <time>2010-06-15T21:29:18Z</time>
      </trkpt>
      <trkpt lat="49.1008540" lon="9.6769010">
        <ele>364.0000000</ele>
        <time>2010-06-15T21:54:20Z</time>
      </trkpt>
      <trkpt lat="49.1009280" lon="9.6768860">
        <ele>364.0000000</ele>
        <time>2010-06-15T21:54:48Z</time>
      </trkpt>
      <trkpt lat="49.1009290" lon="9.6768120">
        <ele>361.1100000</ele>
        <time>2010-06-15T21:59:10Z</time>
      </trkpt>
      <trkpt lat="49.1009210" lon="9.6768570">
        <ele>359.6700000</ele>
        <time>2010-06-15T22:09:12Z</time>
      </trkpt>
      <trkpt lat="49.1008090" lon="9.6766550">
        <ele>356.7900000</ele>
        <time>2010-06-15T22:14:49Z</time>
      </trkpt>
      <trkpt lat="49.1008100" lon="9.6766590">
        <ele>357.2700000</ele>
        <time>2010-06-15T22:15:37Z</time>
      </trkpt>
      <trkpt lat="49.1008100" lon="9.6766590">
        <ele>362.5500000</ele>
        <time>2010-06-15T22:21:36Z</time>
      </trkpt>
      <trkpt lat="49.1008100" lon="9.6766590">
        <ele>360.1500000</ele>
        <time>2010-06-15T22:21:37Z</time>
      </trkpt>
      <trkpt lat="49.1008100" lon="9.6766590">
        <ele>360.1500000</ele>
        <time>2010-06-15T22:21:46Z</time>
      </trkpt>
      <trkpt lat="49.1008100" lon="9.6766590">
        <ele>362.5500000</ele>
        <time>2010-06-15T22:24:19Z</time>
      </trkpt>
      <trkpt lat="49.1008100" lon="9.6766590">
        <ele>358.2300000</ele>
        <time>2010-06-15T22:24:20Z</time>
      </trkpt>
      <trkpt lat="49.1008100" lon="9.6766590">
        <ele>360.1500000</ele>
        <time>2010-06-15T22:24:30Z</time>
      </trkpt>
      <trkpt lat="49.1008640" lon="9.6765880">
        <ele>359.6700000</ele>
        <time>2010-06-15T22:24:32Z</time>
      </trkpt>
      <trkpt lat="49.1008430" lon="9.6766280">
        <ele>358.2300000</ele>
        <time>2010-06-15T22:24:36Z</time>
      </trkpt>
      <trkpt lat="49.1008280" lon="9.6766220">
        <ele>353.4200000</ele>
        <time>2010-06-15T22:24:39Z</time>
      </trkpt>
      <trkpt lat="49.1008240" lon="9.6766210">
        <ele>350.0600000</ele>
        <time>2010-06-15T22:24:43Z</time>
      </trkpt>
      <trkpt lat="49.1008410" lon="9.6766340">
        <ele>346.2100000</ele>
        <time>2010-06-15T22:24:47Z</time>
      </trkpt>
      <trkpt lat="49.1008390" lon="9.6766410">
        <ele>343.8100000</ele>
        <time>2010-06-15T22:24:51Z</time>
      </trkpt>
      <trkpt lat="49.1008530" lon="9.6766880">
        <ele>340.4400000</ele>
        <time>2010-06-15T22:25:19Z</time>
      </trkpt>
      <trkpt lat="49.1008110" lon="9.6766520">
        <ele>337.0800000</ele>
        <time>2010-06-15T22:26:19Z</time>
      </trkpt>
      <trkpt lat="49.1008130" lon="9.6766640">
        <ele>340.4400000</ele>
        <time>2010-06-15T22:29:34Z</time>
      </trkpt>
      <trkpt lat="49.1008130" lon="9.6766640">
        <ele>339.0000000</ele>
        <time>2010-06-15T22:29:38Z</time>
      </trkpt>
      <trkpt lat="49.1008130" lon="9.6766640">
        <ele>346.6900000</ele>
        <time>2010-06-16T20:38:02Z</time>
      </trkpt>
      <trkpt lat="49.1008130" lon="9.6766640">
        <ele>330.8300000</ele>
        <time>2010-06-16T20:38:03Z</time>
      </trkpt>
      <trkpt lat="49.1008130" lon="9.6766640">
        <ele>330.8300000</ele>
        <time>2010-06-16T20:38:04Z</time>
      </trkpt>
      <trkpt lat="49.1007650" lon="9.6765990">
        <ele>330.8300000</ele>
        <time>2010-06-16T20:38:13Z</time>
      </trkpt>
      <trkpt lat="49.1007740" lon="9.6766090">
        <ele>328.9100000</ele>
        <time>2010-06-16T20:38:15Z</time>
      </trkpt>
      <trkpt lat="49.1007990" lon="9.6766570">
        <ele>332.2700000</ele>
        <time>2010-06-16T20:38:22Z</time>
      </trkpt>
      <trkpt lat="49.1007930" lon="9.6766600">
        <ele>334.6800000</ele>
        <time>2010-06-16T20:38:25Z</time>
      </trkpt>
      <trkpt lat="49.1007920" lon="9.6766750">
        <ele>342.3700000</ele>
        <time>2010-06-16T20:38:30Z</time>
      </trkpt>
      <trkpt lat="49.1007910" lon="9.6766740">
        <ele>340.4400000</ele>
        <time>2010-06-16T20:38:31Z</time>
      </trkpt>
      <trkpt lat="49.1007920" lon="9.6766760">
        <ele>340.4400000</ele>
        <time>2010-06-16T20:38:34Z</time>
      </trkpt>
      <trkpt lat="49.1007920" lon="9.6766760">
        <ele>360.1500000</ele>
        <time>2010-06-17T07:17:30Z</time>
      </trkpt>
      <trkpt lat="49.1007920" lon="9.6766760">
        <ele>357.2700000</ele>
        <time>2010-06-17T07:17:31Z</time>
      </trkpt>
      <trkpt lat="49.1008360" lon="9.6766940">
        <ele>357.2700000</ele>
        <time>2010-06-17T07:17:36Z</time>
      </trkpt>
      <trkpt lat="49.1008370" lon="9.6766560">
        <ele>354.8600000</ele>
        <time>2010-06-17T07:17:42Z</time>
      </trkpt>
      <trkpt lat="49.1009010" lon="9.6766060">
        <ele>359.1900000</ele>
        <time>2010-06-17T07:18:13Z</time>
      </trkpt>
      <trkpt lat="49.1009080" lon="9.6766130">
        <ele>361.1100000</ele>
        <time>2010-06-17T07:18:17Z</time>
      </trkpt>
      <trkpt lat="49.1009180" lon="9.6766350">
        <ele>364.0000000</ele>
        <time>2010-06-17T07:18:26Z</time>
      </trkpt>
      <trkpt lat="49.1008970" lon="9.6766130">
        <ele>365.9200000</ele>
        <time>2010-06-17T07:18:39Z</time>
      </trkpt>
      <trkpt lat="49.1008940" lon="9.6765890">
        <ele>366.8800000</ele>
        <time>2010-06-17T07:18:42Z</time>
      </trkpt>
      <trkpt lat="49.1009370" lon="9.6765990">
        <ele>367.8400000</ele>
        <time>2010-06-17T07:18:46Z</time>
      </trkpt>
      <trkpt lat="49.1010110" lon="9.6766910">
        <ele>368.3200000</ele>
        <time>2010-06-17T07:18:53Z</time>
      </trkpt>
      <trkpt lat="49.1010050" lon="9.6767840">
        <ele>367.8400000</ele>
        <time>2010-06-17T07:19:08Z</time>
      </trkpt>
      <trkpt lat="49.1009870" lon="9.6767870">
        <ele>370.2400000</ele>
        <time>2010-06-17T07:19:22Z</time>
      </trkpt>
      <trkpt lat="49.1009980" lon="9.6767910">
        <ele>369.7600000</ele>
        <time>2010-06-17T07:23:01Z</time>
      </trkpt>
      <trkpt lat="49.1009950" lon="9.6767940">
        <ele>368.3200000</ele>
        <time>2010-06-17T07:27:19Z</time>
      </trkpt>
      <trkpt lat="49.1010070" lon="9.6767880">
        <ele>367.8400000</ele>
        <time>2010-06-17T07:30:27Z</time>
      </trkpt>
      <trkpt lat="49.1010080" lon="9.6767850">
        <ele>367.8400000</ele>
        <time>2010-06-17T07:31:24Z</time>
      </trkpt>
      <trkpt lat="49.1010190" lon="9.6767880">
        <ele>366.8800000</ele>
        <time>2010-06-17T07:36:06Z</time>
      </trkpt>
      <trkpt lat="49.1010150" lon="9.6767890">
        <ele>365.9200000</ele>
        <time>2010-06-17T07:41:01Z</time>
      </trkpt>
      <trkpt lat="49.1010200" lon="9.6767990">
        <ele>366.4000000</ele>
        <time>2010-06-17T07:42:42Z</time>
      </trkpt>
      <trkpt lat="49.1010200" lon="9.6767990">
        <ele>365.4400000</ele>
        <time>2010-06-17T07:42:48Z</time>
      </trkpt>
      <trkpt lat="49.1009930" lon="9.6767950">
        <ele>366.4000000</ele>
        <time>2010-06-17T07:43:06Z</time>
      </trkpt>
      <trkpt lat="49.1011490" lon="9.6767730">
        <ele>364.4800000</ele>
        <time>2010-06-17T07:56:34Z</time>
      </trkpt>
      <trkpt lat="49.1009320" lon="9.6768520">
        <ele>364.0000000</ele>
        <time>2010-06-17T08:02:19Z</time>
      </trkpt>
      <trkpt lat="49.1010010" lon="9.6768330">
        <ele>363.5200000</ele>
        <time>2010-06-17T08:03:45Z</time>
      </trkpt>
      <trkpt lat="49.1010650" lon="9.6768480">
        <ele>364.4800000</ele>
        <time>2010-06-17T08:04:15Z</time>
      </trkpt>
      <trkpt lat="49.1010640" lon="9.6768060">
        <ele>362.5500000</ele>
        <time>2010-06-17T08:04:27Z</time>
      </trkpt>
      <trkpt lat="49.1010600" lon="9.6768060">
        <ele>364.0000000</ele>
        <time>2010-06-17T08:05:02Z</time>
      </trkpt>
      <trkpt lat="49.1010590" lon="9.6768090">
        <ele>363.0400000</ele>
        <time>2010-06-17T08:05:40Z</time>
      </trkpt>
      <trkpt lat="49.1010590" lon="9.6768090">
        <ele>363.0400000</ele>
        <time>2010-06-17T08:06:03Z</time>
      </trkpt>
      <trkpt lat="49.1010430" lon="9.6768170">
        <ele>362.5500000</ele>
        <time>2010-06-17T08:06:46Z</time>
      </trkpt>
      <trkpt lat="49.1010400" lon="9.6768210">
        <ele>361.1100000</ele>
        <time>2010-06-17T08:06:52Z</time>
      </trkpt>
      <trkpt lat="49.1010400" lon="9.6768210">
        <ele>360.1500000</ele>
        <time>2010-06-17T08:07:07Z</time>
      </trkpt>
      <trkpt lat="49.1010450" lon="9.6768140">
        <ele>361.1100000</ele>
        <time>2010-06-17T08:07:29Z</time>
      </trkpt>
      <trkpt lat="49.1012020" lon="9.6764380">
        <ele>360.1500000</ele>
        <time>2010-06-17T08:07:41Z</time>
      </trkpt>
      <trkpt lat="49.1012180" lon="9.6760080">
        <ele>360.1500000</ele>
        <time>2010-06-17T08:07:51Z</time>
      </trkpt>
      <trkpt lat="49.1007930" lon="9.6754550">
        <ele>359.6700000</ele>
        <time>2010-06-17T08:08:06Z</time>
      </trkpt>
      <trkpt lat="49.1006620" lon="9.6755070">
        <ele>360.6300000</ele>
        <time>2010-06-17T08:08:10Z</time>
      </trkpt>
      <trkpt lat="49.1004010" lon="9.6757740">
        <ele>360.6300000</ele>
        <time>2010-06-17T08:08:18Z</time>
      </trkpt>
      <trkpt lat="49.1000610" lon="9.6761130">
        <ele>359.6700000</ele>
        <time>2010-06-17T08:08:27Z</time>
      </trkpt>
      <trkpt lat="49.0997600" lon="9.6764210">
        <ele>359.1900000</ele>
        <time>2010-06-17T08:08:35Z</time>
      </trkpt>
      <trkpt lat="49.0993270" lon="9.6768400">
        <ele>360.6300000</ele>
        <time>2010-06-17T08:08:48Z</time>
      </trkpt>
      <trkpt lat="49.0992200" lon="9.6766680">
        <ele>360.1500000</ele>
        <time>2010-06-17T08:08:53Z</time>
      </trkpt>
      <trkpt lat="49.0988700" lon="9.6758960">
        <ele>360.6300000</ele>
        <time>2010-06-17T08:09:09Z</time>
      </trkpt>
      <trkpt lat="49.0988080" lon="9.6757620">
        <ele>360.1500000</ele>
        <time>2010-06-17T08:09:12Z</time>
      </trkpt>
      <trkpt lat="49.0987970" lon="9.6756490">
        <ele>360.1500000</ele>
        <time>2010-06-17T08:09:14Z</time>
      </trkpt>
      <trkpt lat="49.0987970" lon="9.6755830">
        <ele>360.1500000</ele>
        <time>2010-06-17T08:09:15Z</time>
      </trkpt>
      <trkpt lat="49.0987860" lon="9.6755160">
        <ele>359.6700000</ele>
        <time>2010-06-17T08:09:16Z</time>
      </trkpt>
      <trkpt lat="49.0987710" lon="9.6754500">
        <ele>359.6700000</ele>
        <time>2010-06-17T08:09:17Z</time>
      </trkpt>
      <trkpt lat="49.0985730" lon="9.6747370">
        <ele>358.7100000</ele>
        <time>2010-06-17T08:09:28Z</time>
      </trkpt>
      <trkpt lat="49.0982680" lon="9.6744740">
        <ele>358.7100000</ele>
        <time>2010-06-17T08:09:37Z</time>
      </trkpt>
      <trkpt lat="49.0979040" lon="9.6745570">
        <ele>358.2300000</ele>
        <time>2010-06-17T08:09:45Z</time>
      </trkpt>
      <trkpt lat="49.0973450" lon="9.6749760">
        <ele>358.7100000</ele>
        <time>2010-06-17T08:09:59Z</time>
      </trkpt>
      <trkpt lat="49.0972120" lon="9.6750250">
        <ele>358.7100000</ele>
        <time>2010-06-17T08:10:02Z</time>
      </trkpt>
      <trkpt lat="49.0970760" lon="9.6750580">
        <ele>358.2300000</ele>
        <time>2010-06-17T08:10:05Z</time>
      </trkpt>
      <trkpt lat="49.0969390" lon="9.6750440">
        <ele>358.7100000</ele>
        <time>2010-06-17T08:10:08Z</time>
      </trkpt>
      <trkpt lat="49.0968950" lon="9.6750320">
        <ele>358.2300000</ele>
        <time>2010-06-17T08:10:09Z</time>
      </trkpt>
      <trkpt lat="49.0968500" lon="9.6750240">
        <ele>358.2300000</ele>
        <time>2010-06-17T08:10:10Z</time>
      </trkpt>
      <trkpt lat="49.0965270" lon="9.6750400">
        <ele>358.2300000</ele>
        <time>2010-06-17T08:10:17Z</time>
      </trkpt>
      <trkpt lat="49.0963810" lon="9.6751210">
        <ele>358.2300000</ele>
        <time>2010-06-17T08:10:21Z</time>
      </trkpt>
      <trkpt lat="49.0963500" lon="9.6751050">
        <ele>358.2300000</ele>
        <time>2010-06-17T08:10:22Z</time>
      </trkpt>
      <trkpt lat="49.0963400" lon="9.6750630">
        <ele>358.7100000</ele>
        <time>2010-06-17T08:10:23Z</time>
      </trkpt>
      <trkpt lat="49.0963410" lon="9.6750120">
        <ele>358.7100000</ele>
        <time>2010-06-17T08:10:24Z</time>
      </trkpt>
      <trkpt lat="49.0963420" lon="9.6749630">
        <ele>358.2300000</ele>
        <time>2010-06-17T08:10:25Z</time>
      </trkpt>
      <trkpt lat="49.0963440" lon="9.6749130">
        <ele>359.1900000</ele>
        <time>2010-06-17T08:10:26Z</time>
      </trkpt>
      <trkpt lat="49.0963570" lon="9.6747540">
        <ele>358.7100000</ele>
        <time>2010-06-17T08:10:29Z</time>
      </trkpt>
      <trkpt lat="49.0963490" lon="9.6747050">
        <ele>359.1900000</ele>
        <time>2010-06-17T08:10:30Z</time>
      </trkpt>
      <trkpt lat="49.0963320" lon="9.6746590">
        <ele>358.7100000</ele>
        <time>2010-06-17T08:10:31Z</time>
      </trkpt>
      <trkpt lat="49.0963100" lon="9.6746190">
        <ele>359.1900000</ele>
        <time>2010-06-17T08:10:32Z</time>
      </trkpt>
      <trkpt lat="49.0962830" lon="9.6745840">
        <ele>358.2300000</ele>
        <time>2010-06-17T08:10:33Z</time>
      </trkpt>
      <trkpt lat="49.0959030" lon="9.6741280">
        <ele>359.1900000</ele>
        <time>2010-06-17T08:10:47Z</time>
      </trkpt>
      <trkpt lat="49.0955770" lon="9.6737440">
        <ele>360.1500000</ele>
        <time>2010-06-17T08:11:01Z</time>
      </trkpt>
      <trkpt lat="49.0951760" lon="9.6737340">
        <ele>358.2300000</ele>
        <time>2010-06-17T08:11:11Z</time>
      </trkpt>
      <trkpt lat="49.0946120" lon="9.6735530">
        <ele>358.2300000</ele>
        <time>2010-06-17T08:11:24Z</time>
      </trkpt>
      <trkpt lat="49.0945730" lon="9.6735160">
        <ele>357.7500000</ele>
        <time>2010-06-17T08:11:25Z</time>
      </trkpt>
      <trkpt lat="49.0945380" lon="9.6734750">
        <ele>358.2300000</ele>
        <time>2010-06-17T08:11:26Z</time>
      </trkpt>
      <trkpt lat="49.0945060" lon="9.6734280">
        <ele>357.7500000</ele>
        <time>2010-06-17T08:11:27Z</time>
      </trkpt>
      <trkpt lat="49.0944760" lon="9.6733780">
        <ele>357.7500000</ele>
        <time>2010-06-17T08:11:28Z</time>
      </trkpt>
      <trkpt lat="49.0944490" lon="9.6733250">
        <ele>358.2300000</ele>
        <time>2010-06-17T08:11:29Z</time>
      </trkpt>
      <trkpt lat="49.0944250" lon="9.6732720">
        <ele>358.2300000</ele>
        <time>2010-06-17T08:11:30Z</time>
      </trkpt>
      <trkpt lat="49.0943010" lon="9.6730890">
        <ele>358.7100000</ele>
        <time>2010-06-17T08:11:34Z</time>
      </trkpt>
      <trkpt lat="49.0942640" lon="9.6730520">
        <ele>358.2300000</ele>
        <time>2010-06-17T08:11:35Z</time>
      </trkpt>
      <trkpt lat="49.0942240" lon="9.6730200">
        <ele>358.2300000</ele>
        <time>2010-06-17T08:11:36Z</time>
      </trkpt>
      <trkpt lat="49.0941820" lon="9.6729940">
        <ele>358.2300000</ele>
        <time>2010-06-17T08:11:37Z</time>
      </trkpt>
      <trkpt lat="49.0941390" lon="9.6729720">
        <ele>358.2300000</ele>
        <time>2010-06-17T08:11:38Z</time>
      </trkpt>
      <trkpt lat="49.0940140" lon="9.6728880">
        <ele>358.7100000</ele>
        <time>2010-06-17T08:11:41Z</time>
      </trkpt>
      <trkpt lat="49.0939760" lon="9.6728480">
        <ele>358.2300000</ele>
        <time>2010-06-17T08:11:42Z</time>
      </trkpt>
      <trkpt lat="49.0939440" lon="9.6728020">
        <ele>358.7100000</ele>
        <time>2010-06-17T08:11:43Z</time>
      </trkpt>
      <trkpt lat="49.0939180" lon="9.6727500">
        <ele>358.2300000</ele>
        <time>2010-06-17T08:11:44Z</time>
      </trkpt>
      <trkpt lat="49.0938930" lon="9.6726950">
        <ele>358.2300000</ele>
        <time>2010-06-17T08:11:45Z</time>
      </trkpt>
      <trkpt lat="49.0938720" lon="9.6726340">
        <ele>358.2300000</ele>
        <time>2010-06-17T08:11:46Z</time>
      </trkpt>
      <trkpt lat="49.0938530" lon="9.6725690">
        <ele>358.2300000</ele>
        <time>2010-06-17T08:11:47Z</time>
      </trkpt>
      <trkpt lat="49.0938340" lon="9.6725050">
        <ele>358.2300000</ele>
        <time>2010-06-17T08:11:48Z</time>
      </trkpt>
      <trkpt lat="49.0935210" lon="9.6715280">
        <ele>358.7100000</ele>
        <time>2010-06-17T08:12:04Z</time>
      </trkpt>
      <trkpt lat="49.0933170" lon="9.6710310">
        <ele>359.1900000</ele>
        <time>2010-06-17T08:12:13Z</time>
      </trkpt>
      <trkpt lat="49.0932910" lon="9.6709790">
        <ele>359.6700000</ele>
        <time>2010-06-17T08:12:14Z</time>
      </trkpt>
      <trkpt lat="49.0931770" lon="9.6707820">
        <ele>359.6700000</ele>
        <time>2010-06-17T08:12:18Z</time>
      </trkpt>
      <trkpt lat="49.0930800" lon="9.6706610">
        <ele>359.6700000</ele>
        <time>2010-06-17T08:12:21Z</time>
      </trkpt>
      <trkpt lat="49.0930430" lon="9.6706300">
        <ele>359.6700000</ele>
        <time>2010-06-17T08:12:22Z</time>
      </trkpt>
      <trkpt lat="49.0930050" lon="9.6706030">
        <ele>359.6700000</ele>
        <time>2010-06-17T08:12:23Z</time>
      </trkpt>
      <trkpt lat="49.0929640" lon="9.6705820">
        <ele>360.1500000</ele>
        <time>2010-06-17T08:12:24Z</time>
      </trkpt>
      <trkpt lat="49.0929230" lon="9.6705660">
        <ele>360.6300000</ele>
        <time>2010-06-17T08:12:25Z</time>
      </trkpt>
      <trkpt lat="49.0924180" lon="9.6701820">
        <ele>363.5200000</ele>
        <time>2010-06-17T08:12:41Z</time>
      </trkpt>
      <trkpt lat="49.0921390" lon="9.6696280">
        <ele>366.4000000</ele>
        <time>2010-06-17T08:12:56Z</time>
      </trkpt>
      <trkpt lat="49.0916900" lon="9.6691100">
        <ele>369.2800000</ele>
        <time>2010-06-17T08:13:15Z</time>
      </trkpt>
      <trkpt lat="49.0912950" lon="9.6691220">
        <ele>370.7300000</ele>
        <time>2010-06-17T08:13:29Z</time>
      </trkpt>
      <trkpt lat="49.0909710" lon="9.6697050">
        <ele>371.6900000</ele>
        <time>2010-06-17T08:13:45Z</time>
      </trkpt>
      <trkpt lat="49.0906000" lon="9.6696520">
        <ele>371.6900000</ele>
        <time>2010-06-17T08:13:56Z</time>
      </trkpt>
      <trkpt lat="49.0899640" lon="9.6689140">
        <ele>371.2100000</ele>
        <time>2010-06-17T08:14:14Z</time>
      </trkpt>
      <trkpt lat="49.0892400" lon="9.6682790">
        <ele>371.6900000</ele>
        <time>2010-06-17T08:14:33Z</time>
      </trkpt>
      <trkpt lat="49.0889600" lon="9.6679740">
        <ele>372.1700000</ele>
        <time>2010-06-17T08:14:41Z</time>
      </trkpt>
      <trkpt lat="49.0888490" lon="9.6677800">
        <ele>373.1300000</ele>
        <time>2010-06-17T08:14:45Z</time>
      </trkpt>
      <trkpt lat="49.0887860" lon="9.6677040">
        <ele>373.1300000</ele>
        <time>2010-06-17T08:14:47Z</time>
      </trkpt>
      <trkpt lat="49.0887480" lon="9.6676740">
        <ele>372.6500000</ele>
        <time>2010-06-17T08:14:48Z</time>
      </trkpt>
      <trkpt lat="49.0887060" lon="9.6676530">
        <ele>373.1300000</ele>
        <time>2010-06-17T08:14:49Z</time>
      </trkpt>
      <trkpt lat="49.0886620" lon="9.6676370">
        <ele>373.1300000</ele>
        <time>2010-06-17T08:14:50Z</time>
      </trkpt>
      <trkpt lat="49.0886180" lon="9.6676290">
        <ele>373.1300000</ele>
        <time>2010-06-17T08:14:51Z</time>
      </trkpt>
      <trkpt lat="49.0885740" lon="9.6676270">
        <ele>373.6100000</ele>
        <time>2010-06-17T08:14:52Z</time>
      </trkpt>
      <trkpt lat="49.0885290" lon="9.6676290">
        <ele>373.1300000</ele>
        <time>2010-06-17T08:14:53Z</time>
      </trkpt>
      <trkpt lat="49.0877630" lon="9.6675520">
        <ele>373.6100000</ele>
        <time>2010-06-17T08:15:10Z</time>
      </trkpt>
      <trkpt lat="49.0869690" lon="9.6668730">
        <ele>372.6500000</ele>
        <time>2010-06-17T08:15:29Z</time>
      </trkpt>
      <trkpt lat="49.0862670" lon="9.6661240">
        <ele>370.7300000</ele>
        <time>2010-06-17T08:15:43Z</time>
      </trkpt>
      <trkpt lat="49.0856920" lon="9.6651570">
        <ele>371.6900000</ele>
        <time>2010-06-17T08:16:00Z</time>
      </trkpt>
      <trkpt lat="49.0853140" lon="9.6643340">
        <ele>374.5700000</ele>
        <time>2010-06-17T08:16:17Z</time>
      </trkpt>
      <trkpt lat="49.0850400" lon="9.6637530">
        <ele>376.0100000</ele>
        <time>2010-06-17T08:16:30Z</time>
      </trkpt>
      <trkpt lat="49.0847940" lon="9.6629360">
        <ele>377.4500000</ele>
        <time>2010-06-17T08:16:46Z</time>
      </trkpt>
      <trkpt lat="49.0846730" lon="9.6628220">
        <ele>376.9700000</ele>
        <time>2010-06-17T08:16:50Z</time>
      </trkpt>
      <trkpt lat="49.0846290" lon="9.6628220">
        <ele>376.9700000</ele>
        <time>2010-06-17T08:16:51Z</time>
      </trkpt>
      <trkpt lat="49.0845800" lon="9.6628240">
        <ele>376.4900000</ele>
        <time>2010-06-17T08:16:52Z</time>
      </trkpt>
      <trkpt lat="49.0845280" lon="9.6628190">
        <ele>376.4900000</ele>
        <time>2010-06-17T08:16:53Z</time>
      </trkpt>
      <trkpt lat="49.0844740" lon="9.6628080">
        <ele>376.0100000</ele>
        <time>2010-06-17T08:16:54Z</time>
      </trkpt>
      <trkpt lat="49.0844200" lon="9.6627910">
        <ele>376.0100000</ele>
        <time>2010-06-17T08:16:55Z</time>
      </trkpt>
      <trkpt lat="49.0843680" lon="9.6627560">
        <ele>375.5300000</ele>
        <time>2010-06-17T08:16:56Z</time>
      </trkpt>
      <trkpt lat="49.0843190" lon="9.6627120">
        <ele>375.5300000</ele>
        <time>2010-06-17T08:16:57Z</time>
      </trkpt>
      <trkpt lat="49.0842740" lon="9.6626570">
        <ele>375.0500000</ele>
        <time>2010-06-17T08:16:58Z</time>
      </trkpt>
      <trkpt lat="49.0842360" lon="9.6625950">
        <ele>375.0500000</ele>
        <time>2010-06-17T08:16:59Z</time>
      </trkpt>
      <trkpt lat="49.0842030" lon="9.6625310">
        <ele>375.5300000</ele>
        <time>2010-06-17T08:17:00Z</time>
      </trkpt>
      <trkpt lat="49.0841750" lon="9.6624650">
        <ele>375.5300000</ele>
        <time>2010-06-17T08:17:01Z</time>
      </trkpt>
      <trkpt lat="49.0841500" lon="9.6623980">
        <ele>375.5300000</ele>
        <time>2010-06-17T08:17:02Z</time>
      </trkpt>
      <trkpt lat="49.0839080" lon="9.6615670">
        <ele>375.5300000</ele>
        <time>2010-06-17T08:17:14Z</time>
      </trkpt>
      <trkpt lat="49.0838490" lon="9.6614570">
        <ele>375.5300000</ele>
        <time>2010-06-17T08:17:16Z</time>
      </trkpt>
      <trkpt lat="49.0838190" lon="9.6614050">
        <ele>375.5300000</ele>
        <time>2010-06-17T08:17:17Z</time>
      </trkpt>
      <trkpt lat="49.0832020" lon="9.6604270">
        <ele>375.5300000</ele>
        <time>2010-06-17T08:17:36Z</time>
      </trkpt>
      <trkpt lat="49.0831620" lon="9.6603910">
        <ele>376.0100000</ele>
        <time>2010-06-17T08:17:37Z</time>
      </trkpt>
      <trkpt lat="49.0831170" lon="9.6603590">
        <ele>375.5300000</ele>
        <time>2010-06-17T08:17:38Z</time>
      </trkpt>
      <trkpt lat="49.0830690" lon="9.6603310">
        <ele>375.5300000</ele>
        <time>2010-06-17T08:17:39Z</time>
      </trkpt>
      <trkpt lat="49.0830200" lon="9.6603060">
        <ele>375.0500000</ele>
        <time>2010-06-17T08:17:40Z</time>
      </trkpt>
      <trkpt lat="49.0824740" lon="9.6601460">
        <ele>374.5700000</ele>
        <time>2010-06-17T08:17:50Z</time>
      </trkpt>
      <trkpt lat="49.0813890" lon="9.6602810">
        <ele>374.0900000</ele>
        <time>2010-06-17T08:18:10Z</time>
      </trkpt>
      <trkpt lat="49.0811580" lon="9.6604060">
        <ele>375.0500000</ele>
        <time>2010-06-17T08:18:15Z</time>
      </trkpt>
      <trkpt lat="49.0805980" lon="9.6611120">
        <ele>376.0100000</ele>
        <time>2010-06-17T08:18:31Z</time>
      </trkpt>
      <trkpt lat="49.0799360" lon="9.6619070">
        <ele>376.0100000</ele>
        <time>2010-06-17T08:18:48Z</time>
      </trkpt>
      <trkpt lat="49.0795780" lon="9.6622700">
        <ele>377.4500000</ele>
        <time>2010-06-17T08:18:58Z</time>
      </trkpt>
      <trkpt lat="49.0795360" lon="9.6622810">
        <ele>377.9400000</ele>
        <time>2010-06-17T08:18:59Z</time>
      </trkpt>
      <trkpt lat="49.0794940" lon="9.6622800">
        <ele>378.4200000</ele>
        <time>2010-06-17T08:19:00Z</time>
      </trkpt>
      <trkpt lat="49.0794540" lon="9.6622670">
        <ele>377.9400000</ele>
        <time>2010-06-17T08:19:01Z</time>
      </trkpt>
      <trkpt lat="49.0794190" lon="9.6622330">
        <ele>377.9400000</ele>
        <time>2010-06-17T08:19:02Z</time>
      </trkpt>
      <trkpt lat="49.0793840" lon="9.6621980">
        <ele>377.9400000</ele>
        <time>2010-06-17T08:19:03Z</time>
      </trkpt>
      <trkpt lat="49.0787700" lon="9.6616540">
        <ele>380.3400000</ele>
        <time>2010-06-17T08:19:21Z</time>
      </trkpt>
      <trkpt lat="49.0784050" lon="9.6618940">
        <ele>381.7800000</ele>
        <time>2010-06-17T08:19:32Z</time>
      </trkpt>
      <trkpt lat="49.0778340" lon="9.6624500">
        <ele>380.8200000</ele>
        <time>2010-06-17T08:19:48Z</time>
      </trkpt>
      <trkpt lat="49.0770010" lon="9.6630080">
        <ele>378.9000000</ele>
        <time>2010-06-17T08:20:03Z</time>
      </trkpt>
      <trkpt lat="49.0764290" lon="9.6632820">
        <ele>380.8200000</ele>
        <time>2010-06-17T08:20:16Z</time>
      </trkpt>
      <trkpt lat="49.0759780" lon="9.6633870">
        <ele>380.8200000</ele>
        <time>2010-06-17T08:20:29Z</time>
      </trkpt>
      <trkpt lat="49.0759510" lon="9.6633470">
        <ele>381.3000000</ele>
        <time>2010-06-17T08:20:30Z</time>
      </trkpt>
      <trkpt lat="49.0759400" lon="9.6632890">
        <ele>381.3000000</ele>
        <time>2010-06-17T08:20:31Z</time>
      </trkpt>
      <trkpt lat="49.0759460" lon="9.6632260">
        <ele>381.3000000</ele>
        <time>2010-06-17T08:20:32Z</time>
      </trkpt>
      <trkpt lat="49.0759590" lon="9.6631670">
        <ele>381.3000000</ele>
        <time>2010-06-17T08:20:33Z</time>
      </trkpt>
      <trkpt lat="49.0759730" lon="9.6631050">
        <ele>380.8200000</ele>
        <time>2010-06-17T08:20:34Z</time>
      </trkpt>
      <trkpt lat="49.0759800" lon="9.6630380">
        <ele>381.3000000</ele>
        <time>2010-06-17T08:20:35Z</time>
      </trkpt>
      <trkpt lat="49.0759780" lon="9.6629670">
        <ele>381.3000000</ele>
        <time>2010-06-17T08:20:36Z</time>
      </trkpt>
      <trkpt lat="49.0759700" lon="9.6628940">
        <ele>381.3000000</ele>
        <time>2010-06-17T08:20:37Z</time>
      </trkpt>
      <trkpt lat="49.0759580" lon="9.6628240">
        <ele>381.3000000</ele>
        <time>2010-06-17T08:20:38Z</time>
      </trkpt>
      <trkpt lat="49.0759430" lon="9.6627550">
        <ele>380.8200000</ele>
        <time>2010-06-17T08:20:39Z</time>
      </trkpt>
      <trkpt lat="49.0756110" lon="9.6617670">
        <ele>382.2600000</ele>
        <time>2010-06-17T08:20:55Z</time>
      </trkpt>
      <trkpt lat="49.0752470" lon="9.6609880">
        <ele>385.1500000</ele>
        <time>2010-06-17T08:21:12Z</time>
      </trkpt>
      <trkpt lat="49.0750390" lon="9.6605530">
        <ele>388.0300000</ele>
        <time>2010-06-17T08:21:24Z</time>
      </trkpt>
      <trkpt lat="49.0748700" lon="9.6601720">
        <ele>390.9100000</ele>
        <time>2010-06-17T08:21:36Z</time>
      </trkpt>
      <trkpt lat="49.0746230" lon="9.6596470">
        <ele>393.8000000</ele>
        <time>2010-06-17T08:21:54Z</time>
      </trkpt>
      <trkpt lat="49.0743560" lon="9.6590210">
        <ele>396.6800000</ele>
        <time>2010-06-17T08:22:14Z</time>
      </trkpt>
      <trkpt lat="49.0741380" lon="9.6584570">
        <ele>398.6000000</ele>
        <time>2010-06-17T08:22:31Z</time>
      </trkpt>
      <trkpt lat="49.0738770" lon="9.6578000">
        <ele>401.4900000</ele>
        <time>2010-06-17T08:22:51Z</time>
      </trkpt>
      <trkpt lat="49.0736310" lon="9.6574030">
        <ele>404.3700000</ele>
        <time>2010-06-17T08:23:08Z</time>
      </trkpt>
      <trkpt lat="49.0733860" lon="9.6571660">
        <ele>407.7400000</ele>
        <time>2010-06-17T08:23:22Z</time>
      </trkpt>
      <trkpt lat="49.0731580" lon="9.6569530">
        <ele>411.1000000</ele>
        <time>2010-06-17T08:23:36Z</time>
      </trkpt>
      <trkpt lat="49.0729420" lon="9.6567580">
        <ele>413.9800000</ele>
        <time>2010-06-17T08:23:49Z</time>
      </trkpt>
      <trkpt lat="49.0727370" lon="9.6564040">
        <ele>416.8700000</ele>
        <time>2010-06-17T08:24:05Z</time>
      </trkpt>
      <trkpt lat="49.0725440" lon="9.6558380">
        <ele>419.7500000</ele>
        <time>2010-06-17T08:24:25Z</time>
      </trkpt>
      <trkpt lat="49.0724100" lon="9.6554350">
        <ele>421.6800000</ele>
        <time>2010-06-17T08:24:39Z</time>
      </trkpt>
      <trkpt lat="49.0722940" lon="9.6550500">
        <ele>423.6000000</ele>
        <time>2010-06-17T08:24:52Z</time>
      </trkpt>
      <trkpt lat="49.0721580" lon="9.6546360">
        <ele>425.0400000</ele>
        <time>2010-06-17T08:25:06Z</time>
      </trkpt>
      <trkpt lat="49.0720250" lon="9.6542030">
        <ele>426.0000000</ele>
        <time>2010-06-17T08:25:19Z</time>
      </trkpt>
      <trkpt lat="49.0718490" lon="9.6534290">
        <ele>425.5200000</ele>
        <time>2010-06-17T08:25:34Z</time>
      </trkpt>
      <trkpt lat="49.0717420" lon="9.6531810">
        <ele>425.0400000</ele>
        <time>2010-06-17T08:25:39Z</time>
      </trkpt>
      <trkpt lat="49.0717050" lon="9.6531670">
        <ele>424.5600000</ele>
        <time>2010-06-17T08:25:40Z</time>
      </trkpt>
      <trkpt lat="49.0716640" lon="9.6531640">
        <ele>425.0400000</ele>
        <time>2010-06-17T08:25:41Z</time>
      </trkpt>
      <trkpt lat="49.0716230" lon="9.6531640">
        <ele>424.5600000</ele>
        <time>2010-06-17T08:25:42Z</time>
      </trkpt>
      <trkpt lat="49.0715850" lon="9.6531450">
        <ele>425.0400000</ele>
        <time>2010-06-17T08:25:43Z</time>
      </trkpt>
      <trkpt lat="49.0710210" lon="9.6527180">
        <ele>423.1200000</ele>
        <time>2010-06-17T08:25:56Z</time>
      </trkpt>
      <trkpt lat="49.0703870" lon="9.6520200">
        <ele>419.2700000</ele>
        <time>2010-06-17T08:26:07Z</time>
      </trkpt>
      <trkpt lat="49.0703050" lon="9.6519690">
        <ele>418.3100000</ele>
        <time>2010-06-17T08:26:08Z</time>
      </trkpt>
      <trkpt lat="49.0699320" lon="9.6520090">
        <ele>415.9100000</ele>
        <time>2010-06-17T08:26:12Z</time>
      </trkpt>
      <trkpt lat="49.0692370" lon="9.6524350">
        <ele>416.8700000</ele>
        <time>2010-06-17T08:26:21Z</time>
      </trkpt>
      <trkpt lat="49.0688530" lon="9.6526550">
        <ele>419.7500000</ele>
        <time>2010-06-17T08:26:29Z</time>
      </trkpt>
      <trkpt lat="49.0685730" lon="9.6528170">
        <ele>423.6000000</ele>
        <time>2010-06-17T08:26:38Z</time>
      </trkpt>
      <trkpt lat="49.0685500" lon="9.6528200">
        <ele>424.0800000</ele>
        <time>2010-06-17T08:26:39Z</time>
      </trkpt>
      <trkpt lat="49.0685190" lon="9.6526150">
        <ele>424.0800000</ele>
        <time>2010-06-17T08:26:45Z</time>
      </trkpt>
      <trkpt lat="49.0684510" lon="9.6514560">
        <ele>421.1900000</ele>
        <time>2010-06-17T08:26:59Z</time>
      </trkpt>
      <trkpt lat="49.0684340" lon="9.6513470">
        <ele>420.7100000</ele>
        <time>2010-06-17T08:27:00Z</time>
      </trkpt>
      <trkpt lat="49.0684060" lon="9.6512380">
        <ele>420.2300000</ele>
        <time>2010-06-17T08:27:01Z</time>
      </trkpt>
      <trkpt lat="49.0683710" lon="9.6511300">
        <ele>419.2700000</ele>
        <time>2010-06-17T08:27:02Z</time>
      </trkpt>
      <trkpt lat="49.0683320" lon="9.6510230">
        <ele>419.7500000</ele>
        <time>2010-06-17T08:27:03Z</time>
      </trkpt>
      <trkpt lat="49.0678830" lon="9.6498230">
        <ele>416.3900000</ele>
        <time>2010-06-17T08:27:14Z</time>
      </trkpt>
      <trkpt lat="49.0675600" lon="9.6483470">
        <ele>414.9500000</ele>
        <time>2010-06-17T08:27:27Z</time>
      </trkpt>
      <trkpt lat="49.0673710" lon="9.6470380">
        <ele>416.3900000</ele>
        <time>2010-06-17T08:27:42Z</time>
      </trkpt>
      <trkpt lat="49.0673380" lon="9.6467470">
        <ele>416.3900000</ele>
        <time>2010-06-17T08:27:46Z</time>
      </trkpt>
      <trkpt lat="49.0673450" lon="9.6466740">
        <ele>416.3900000</ele>
        <time>2010-06-17T08:27:47Z</time>
      </trkpt>
      <trkpt lat="49.0673600" lon="9.6465990">
        <ele>416.3900000</ele>
        <time>2010-06-17T08:27:48Z</time>
      </trkpt>
      <trkpt lat="49.0673860" lon="9.6465290">
        <ele>415.9100000</ele>
        <time>2010-06-17T08:27:49Z</time>
      </trkpt>
      <trkpt lat="49.0674200" lon="9.6464700">
        <ele>415.4300000</ele>
        <time>2010-06-17T08:27:50Z</time>
      </trkpt>
      <trkpt lat="49.0674630" lon="9.6464190">
        <ele>415.4300000</ele>
        <time>2010-06-17T08:27:51Z</time>
      </trkpt>
      <trkpt lat="49.0675110" lon="9.6463740">
        <ele>414.9500000</ele>
        <time>2010-06-17T08:27:52Z</time>
      </trkpt>
      <trkpt lat="49.0675660" lon="9.6463310">
        <ele>414.9500000</ele>
        <time>2010-06-17T08:27:53Z</time>
      </trkpt>
      <trkpt lat="49.0676280" lon="9.6462920">
        <ele>414.4700000</ele>
        <time>2010-06-17T08:27:54Z</time>
      </trkpt>
      <trkpt lat="49.0676940" lon="9.6462580">
        <ele>413.9800000</ele>
        <time>2010-06-17T08:27:55Z</time>
      </trkpt>
      <trkpt lat="49.0683600" lon="9.6458330">
        <ele>410.6200000</ele>
        <time>2010-06-17T08:28:05Z</time>
      </trkpt>
      <trkpt lat="49.0687170" lon="9.6455860">
        <ele>409.1800000</ele>
        <time>2010-06-17T08:28:10Z</time>
      </trkpt>
      <trkpt lat="49.0687760" lon="9.6455070">
        <ele>409.1800000</ele>
        <time>2010-06-17T08:28:11Z</time>
      </trkpt>
      <trkpt lat="49.0688220" lon="9.6454110">
        <ele>408.7000000</ele>
        <time>2010-06-17T08:28:12Z</time>
      </trkpt>
      <trkpt lat="49.0688550" lon="9.6453030">
        <ele>408.7000000</ele>
        <time>2010-06-17T08:28:13Z</time>
      </trkpt>
      <trkpt lat="49.0688740" lon="9.6451870">
        <ele>408.2200000</ele>
        <time>2010-06-17T08:28:14Z</time>
      </trkpt>
      <trkpt lat="49.0688880" lon="9.6450670">
        <ele>407.7400000</ele>
        <time>2010-06-17T08:28:15Z</time>
      </trkpt>
      <trkpt lat="49.0690760" lon="9.6432880">
        <ele>405.8100000</ele>
        <time>2010-06-17T08:28:30Z</time>
      </trkpt>
      <trkpt lat="49.0690740" lon="9.6431810">
        <ele>405.3300000</ele>
        <time>2010-06-17T08:28:31Z</time>
      </trkpt>
      <trkpt lat="49.0690610" lon="9.6430800">
        <ele>405.8100000</ele>
        <time>2010-06-17T08:28:32Z</time>
      </trkpt>
      <trkpt lat="49.0690390" lon="9.6429880">
        <ele>405.8100000</ele>
        <time>2010-06-17T08:28:33Z</time>
      </trkpt>
      <trkpt lat="49.0690090" lon="9.6429010">
        <ele>405.3300000</ele>
        <time>2010-06-17T08:28:34Z</time>
      </trkpt>
      <trkpt lat="49.0689730" lon="9.6428190">
        <ele>405.8100000</ele>
        <time>2010-06-17T08:28:35Z</time>
      </trkpt>
      <trkpt lat="49.0689350" lon="9.6427370">
        <ele>405.8100000</ele>
        <time>2010-06-17T08:28:36Z</time>
      </trkpt>
      <trkpt lat="49.0686180" lon="9.6417590">
        <ele>406.7700000</ele>
        <time>2010-06-17T08:28:49Z</time>
      </trkpt>
      <trkpt lat="49.0684520" lon="9.6403180">
        <ele>405.8100000</ele>
        <time>2010-06-17T08:29:07Z</time>
      </trkpt>
      <trkpt lat="49.0680280" lon="9.6388140">
        <ele>403.8900000</ele>
        <time>2010-06-17T08:29:25Z</time>
      </trkpt>
      <trkpt lat="49.0675980" lon="9.6377300">
        <ele>403.4100000</ele>
        <time>2010-06-17T08:29:39Z</time>
      </trkpt>
      <trkpt lat="49.0672780" lon="9.6370570">
        <ele>403.4100000</ele>
        <time>2010-06-17T08:29:49Z</time>
      </trkpt>
      <trkpt lat="49.0672530" lon="9.6369820">
        <ele>402.9300000</ele>
        <time>2010-06-17T08:29:50Z</time>
      </trkpt>
      <trkpt lat="49.0672210" lon="9.6369080">
        <ele>402.9300000</ele>
        <time>2010-06-17T08:29:51Z</time>
      </trkpt>
      <trkpt lat="49.0671800" lon="9.6368430">
        <ele>402.9300000</ele>
        <time>2010-06-17T08:29:52Z</time>
      </trkpt>
      <trkpt lat="49.0671320" lon="9.6367830">
        <ele>402.4500000</ele>
        <time>2010-06-17T08:29:53Z</time>
      </trkpt>
      <trkpt lat="49.0669860" lon="9.6366300">
        <ele>402.4500000</ele>
        <time>2010-06-17T08:29:56Z</time>
      </trkpt>
      <trkpt lat="49.0668290" lon="9.6365040">
        <ele>402.9300000</ele>
        <time>2010-06-17T08:29:59Z</time>
      </trkpt>
      <trkpt lat="49.0667720" lon="9.6364810">
        <ele>402.9300000</ele>
        <time>2010-06-17T08:30:00Z</time>
      </trkpt>
      <trkpt lat="49.0666650" lon="9.6364480">
        <ele>402.9300000</ele>
        <time>2010-06-17T08:30:02Z</time>
      </trkpt>
      <trkpt lat="49.0663010" lon="9.6362260">
        <ele>403.8900000</ele>
        <time>2010-06-17T08:30:10Z</time>
      </trkpt>
      <trkpt lat="49.0661810" lon="9.6361050">
        <ele>404.3700000</ele>
        <time>2010-06-17T08:30:13Z</time>
      </trkpt>
      <trkpt lat="49.0661440" lon="9.6360540">
        <ele>403.8900000</ele>
        <time>2010-06-17T08:30:14Z</time>
      </trkpt>
      <trkpt lat="49.0654710" lon="9.6351720">
        <ele>401.4900000</ele>
        <time>2010-06-17T08:30:29Z</time>
      </trkpt>
      <trkpt lat="49.0647040" lon="9.6346240">
        <ele>401.9700000</ele>
        <time>2010-06-17T08:30:43Z</time>
      </trkpt>
      <trkpt lat="49.0645290" lon="9.6344120">
        <ele>401.9700000</ele>
        <time>2010-06-17T08:30:47Z</time>
      </trkpt>
      <trkpt lat="49.0644850" lon="9.6343580">
        <ele>401.4900000</ele>
        <time>2010-06-17T08:30:48Z</time>
      </trkpt>
      <trkpt lat="49.0644470" lon="9.6342980">
        <ele>401.9700000</ele>
        <time>2010-06-17T08:30:49Z</time>
      </trkpt>
      <trkpt lat="49.0639600" lon="9.6334910">
        <ele>401.4900000</ele>
        <time>2010-06-17T08:31:02Z</time>
      </trkpt>
      <trkpt lat="49.0632650" lon="9.6327020">
        <ele>398.1200000</ele>
        <time>2010-06-17T08:31:16Z</time>
      </trkpt>
      <trkpt lat="49.0632000" lon="9.6326420">
        <ele>397.6400000</ele>
        <time>2010-06-17T08:31:17Z</time>
      </trkpt>
      <trkpt lat="49.0622460" lon="9.6318420">
        <ele>397.6400000</ele>
        <time>2010-06-17T08:31:33Z</time>
      </trkpt>
      <trkpt lat="49.0620680" lon="9.6316940">
        <ele>398.1200000</ele>
        <time>2010-06-17T08:31:37Z</time>
      </trkpt>
      <trkpt lat="49.0615010" lon="9.6307590">
        <ele>395.2400000</ele>
        <time>2010-06-17T08:31:50Z</time>
      </trkpt>
      <trkpt lat="49.0609930" lon="9.6296400">
        <ele>391.8700000</ele>
        <time>2010-06-17T08:32:02Z</time>
      </trkpt>
      <trkpt lat="49.0609330" lon="9.6295370">
        <ele>391.8700000</ele>
        <time>2010-06-17T08:32:03Z</time>
      </trkpt>
      <trkpt lat="49.0601270" lon="9.6284770">
        <ele>388.5100000</ele>
        <time>2010-06-17T08:32:15Z</time>
      </trkpt>
      <trkpt lat="49.0592380" lon="9.6276150">
        <ele>387.5500000</ele>
        <time>2010-06-17T08:32:29Z</time>
      </trkpt>
      <trkpt lat="49.0584380" lon="9.6271100">
        <ele>387.0700000</ele>
        <time>2010-06-17T08:32:42Z</time>
      </trkpt>
      <trkpt lat="49.0582910" lon="9.6269530">
        <ele>387.0700000</ele>
        <time>2010-06-17T08:32:45Z</time>
      </trkpt>
      <trkpt lat="49.0577470" lon="9.6266130">
        <ele>387.5500000</ele>
        <time>2010-06-17T08:32:56Z</time>
      </trkpt>
      <trkpt lat="49.0577120" lon="9.6264470">
        <ele>387.5500000</ele>
        <time>2010-06-17T08:32:59Z</time>
      </trkpt>
      <trkpt lat="49.0577620" lon="9.6258350">
        <ele>387.0700000</ele>
        <time>2010-06-17T08:33:07Z</time>
      </trkpt>
      <trkpt lat="49.0577530" lon="9.6257620">
        <ele>387.0700000</ele>
        <time>2010-06-17T08:33:08Z</time>
      </trkpt>
      <trkpt lat="49.0577260" lon="9.6257060">
        <ele>387.0700000</ele>
        <time>2010-06-17T08:33:09Z</time>
      </trkpt>
      <trkpt lat="49.0576840" lon="9.6256730">
        <ele>387.0700000</ele>
        <time>2010-06-17T08:33:10Z</time>
      </trkpt>
      <trkpt lat="49.0576320" lon="9.6256560">
        <ele>386.5900000</ele>
        <time>2010-06-17T08:33:11Z</time>
      </trkpt>
      <trkpt lat="49.0575770" lon="9.6256450">
        <ele>387.0700000</ele>
        <time>2010-06-17T08:33:12Z</time>
      </trkpt>
      <trkpt lat="49.0575180" lon="9.6256310">
        <ele>386.1100000</ele>
        <time>2010-06-17T08:33:13Z</time>
      </trkpt>
      <trkpt lat="49.0564690" lon="9.6254420">
        <ele>385.6300000</ele>
        <time>2010-06-17T08:33:31Z</time>
      </trkpt>
      <trkpt lat="49.0556010" lon="9.6252740">
        <ele>385.1500000</ele>
        <time>2010-06-17T08:33:46Z</time>
      </trkpt>
      <trkpt lat="49.0554980" lon="9.6252190">
        <ele>385.1500000</ele>
        <time>2010-06-17T08:33:48Z</time>
      </trkpt>
      <trkpt lat="49.0554530" lon="9.6251850">
        <ele>385.6300000</ele>
        <time>2010-06-17T08:33:49Z</time>
      </trkpt>
      <trkpt lat="49.0551630" lon="9.6248660">
        <ele>386.1100000</ele>
        <time>2010-06-17T08:33:59Z</time>
      </trkpt>
      <trkpt lat="49.0551290" lon="9.6248220">
        <ele>385.6300000</ele>
        <time>2010-06-17T08:34:00Z</time>
      </trkpt>
      <trkpt lat="49.0550900" lon="9.6247870">
        <ele>386.1100000</ele>
        <time>2010-06-17T08:34:01Z</time>
      </trkpt>
      <trkpt lat="49.0548950" lon="9.6246070">
        <ele>386.5900000</ele>
        <time>2010-06-17T08:34:06Z</time>
      </trkpt>
      <trkpt lat="49.0548590" lon="9.6245690">
        <ele>386.5900000</ele>
        <time>2010-06-17T08:34:07Z</time>
      </trkpt>
      <trkpt lat="49.0548230" lon="9.6245340">
        <ele>387.0700000</ele>
        <time>2010-06-17T08:34:08Z</time>
      </trkpt>
      <trkpt lat="49.0547910" lon="9.6244960">
        <ele>386.5900000</ele>
        <time>2010-06-17T08:34:09Z</time>
      </trkpt>
      <trkpt lat="49.0547620" lon="9.6244570">
        <ele>387.0700000</ele>
        <time>2010-06-17T08:34:10Z</time>
      </trkpt>
      <trkpt lat="49.0546700" lon="9.6241650">
        <ele>386.5900000</ele>
        <time>2010-06-17T08:34:17Z</time>
      </trkpt>
      <trkpt lat="49.0546850" lon="9.6241240">
        <ele>387.0700000</ele>
        <time>2010-06-17T08:34:18Z</time>
      </trkpt>
      <trkpt lat="49.0547030" lon="9.6240790">
        <ele>387.0700000</ele>
        <time>2010-06-17T08:34:19Z</time>
      </trkpt>
      <trkpt lat="49.0547130" lon="9.6240360">
        <ele>387.0700000</ele>
        <time>2010-06-17T08:34:20Z</time>
      </trkpt>
      <trkpt lat="49.0547150" lon="9.6239920">
        <ele>387.5500000</ele>
        <time>2010-06-17T08:34:21Z</time>
      </trkpt>
      <trkpt lat="49.0547080" lon="9.6239480">
        <ele>388.0300000</ele>
        <time>2010-06-17T08:34:22Z</time>
      </trkpt>
      <trkpt lat="49.0546910" lon="9.6239120">
        <ele>388.0300000</ele>
        <time>2010-06-17T08:34:23Z</time>
      </trkpt>
      <trkpt lat="49.0546700" lon="9.6238760">
        <ele>388.0300000</ele>
        <time>2010-06-17T08:34:24Z</time>
      </trkpt>
      <trkpt lat="49.0546470" lon="9.6238340">
        <ele>388.5100000</ele>
        <time>2010-06-17T08:34:25Z</time>
      </trkpt>
      <trkpt lat="49.0546200" lon="9.6237890">
        <ele>387.5500000</ele>
        <time>2010-06-17T08:34:26Z</time>
      </trkpt>
      <trkpt lat="49.0545310" lon="9.6236440">
        <ele>387.0700000</ele>
        <time>2010-06-17T08:34:29Z</time>
      </trkpt>
      <trkpt lat="49.0542590" lon="9.6230640">
        <ele>385.1500000</ele>
        <time>2010-06-17T08:34:37Z</time>
      </trkpt>
      <trkpt lat="49.0542190" lon="9.6229940">
        <ele>385.1500000</ele>
        <time>2010-06-17T08:34:38Z</time>
      </trkpt>
      <trkpt lat="49.0541790" lon="9.6229240">
        <ele>385.1500000</ele>
        <time>2010-06-17T08:34:39Z</time>
      </trkpt>
      <trkpt lat="49.0541420" lon="9.6228530">
        <ele>384.6600000</ele>
        <time>2010-06-17T08:34:40Z</time>
      </trkpt>
      <trkpt lat="49.0541090" lon="9.6227800">
        <ele>384.1800000</ele>
        <time>2010-06-17T08:34:41Z</time>
      </trkpt>
      <trkpt lat="49.0540830" lon="9.6227000">
        <ele>384.6600000</ele>
        <time>2010-06-17T08:34:42Z</time>
      </trkpt>
      <trkpt lat="49.0540660" lon="9.6226160">
        <ele>384.6600000</ele>
        <time>2010-06-17T08:34:43Z</time>
      </trkpt>
      <trkpt lat="49.0540520" lon="9.6225290">
        <ele>384.6600000</ele>
        <time>2010-06-17T08:34:44Z</time>
      </trkpt>
      <trkpt lat="49.0540270" lon="9.6218600">
        <ele>384.6600000</ele>
        <time>2010-06-17T08:34:52Z</time>
      </trkpt>
      <trkpt lat="49.0540400" lon="9.6217770">
        <ele>384.6600000</ele>
        <time>2010-06-17T08:34:53Z</time>
      </trkpt>
      <trkpt lat="49.0540580" lon="9.6216960">
        <ele>384.6600000</ele>
        <time>2010-06-17T08:34:54Z</time>
      </trkpt>
      <trkpt lat="49.0544290" lon="9.6203060">
        <ele>384.6600000</ele>
        <time>2010-06-17T08:35:12Z</time>
      </trkpt>
      <trkpt lat="49.0544730" lon="9.6201550">
        <ele>384.6600000</ele>
        <time>2010-06-17T08:35:14Z</time>
      </trkpt>
      <trkpt lat="49.0549690" lon="9.6188650">
        <ele>385.6300000</ele>
        <time>2010-06-17T08:35:33Z</time>
      </trkpt>
      <trkpt lat="49.0553880" lon="9.6175090">
        <ele>387.0700000</ele>
        <time>2010-06-17T08:35:53Z</time>
      </trkpt>
      <trkpt lat="49.0556110" lon="9.6168310">
        <ele>387.0700000</ele>
        <time>2010-06-17T08:36:04Z</time>
      </trkpt>
      <trkpt lat="49.0556740" lon="9.6167460">
        <ele>387.0700000</ele>
        <time>2010-06-17T08:36:06Z</time>
      </trkpt>
      <trkpt lat="49.0557110" lon="9.6167070">
        <ele>387.5500000</ele>
        <time>2010-06-17T08:36:07Z</time>
      </trkpt>
      <trkpt lat="49.0557490" lon="9.6166680">
        <ele>387.5500000</ele>
        <time>2010-06-17T08:36:08Z</time>
      </trkpt>
      <trkpt lat="49.0561630" lon="9.6161040">
        <ele>390.9100000</ele>
        <time>2010-06-17T08:36:22Z</time>
      </trkpt>
      <trkpt lat="49.0564980" lon="9.6151780">
        <ele>392.8400000</ele>
        <time>2010-06-17T08:36:40Z</time>
      </trkpt>
      <trkpt lat="49.0565980" lon="9.6145250">
        <ele>391.8700000</ele>
        <time>2010-06-17T08:36:51Z</time>
      </trkpt>
      <trkpt lat="49.0564810" lon="9.6137680">
        <ele>389.9500000</ele>
        <time>2010-06-17T08:37:00Z</time>
      </trkpt>
      <trkpt lat="49.0564510" lon="9.6136870">
        <ele>389.9500000</ele>
        <time>2010-06-17T08:37:01Z</time>
      </trkpt>
      <trkpt lat="49.0564150" lon="9.6136060">
        <ele>389.9500000</ele>
        <time>2010-06-17T08:37:02Z</time>
      </trkpt>
      <trkpt lat="49.0563740" lon="9.6135260">
        <ele>389.4700000</ele>
        <time>2010-06-17T08:37:03Z</time>
      </trkpt>
      <trkpt lat="49.0563320" lon="9.6134470">
        <ele>389.4700000</ele>
        <time>2010-06-17T08:37:04Z</time>
      </trkpt>
      <trkpt lat="49.0562100" lon="9.6132000">
        <ele>388.5100000</ele>
        <time>2010-06-17T08:37:07Z</time>
      </trkpt>
      <trkpt lat="49.0561770" lon="9.6131110">
        <ele>388.5100000</ele>
        <time>2010-06-17T08:37:08Z</time>
      </trkpt>
      <trkpt lat="49.0560180" lon="9.6120110">
        <ele>388.5100000</ele>
        <time>2010-06-17T08:37:21Z</time>
      </trkpt>
      <trkpt lat="49.0560670" lon="9.6109800">
        <ele>389.4700000</ele>
        <time>2010-06-17T08:37:34Z</time>
      </trkpt>
      <trkpt lat="49.0560530" lon="9.6109040">
        <ele>389.9500000</ele>
        <time>2010-06-17T08:37:35Z</time>
      </trkpt>
      <trkpt lat="49.0560370" lon="9.6108310">
        <ele>389.4700000</ele>
        <time>2010-06-17T08:37:36Z</time>
      </trkpt>
      <trkpt lat="49.0556530" lon="9.6095140">
        <ele>389.9500000</ele>
        <time>2010-06-17T08:37:55Z</time>
      </trkpt>
      <trkpt lat="49.0554070" lon="9.6082780">
        <ele>390.4300000</ele>
        <time>2010-06-17T08:38:12Z</time>
      </trkpt>
      <trkpt lat="49.0553950" lon="9.6067860">
        <ele>391.3900000</ele>
        <time>2010-06-17T08:38:32Z</time>
      </trkpt>
      <trkpt lat="49.0553920" lon="9.6052030">
        <ele>391.3900000</ele>
        <time>2010-06-17T08:38:53Z</time>
      </trkpt>
      <trkpt lat="49.0553910" lon="9.6038430">
        <ele>392.8400000</ele>
        <time>2010-06-17T08:39:12Z</time>
      </trkpt>
      <trkpt lat="49.0553880" lon="9.6033130">
        <ele>393.8000000</ele>
        <time>2010-06-17T08:39:20Z</time>
      </trkpt>
      <trkpt lat="49.0552900" lon="9.6028760">
        <ele>394.2800000</ele>
        <time>2010-06-17T08:39:28Z</time>
      </trkpt>
      <trkpt lat="49.0552620" lon="9.6025340">
        <ele>394.2800000</ele>
        <time>2010-06-17T08:39:34Z</time>
      </trkpt>
      <trkpt lat="49.0553090" lon="9.6023490">
        <ele>394.7600000</ele>
        <time>2010-06-17T08:39:37Z</time>
      </trkpt>
      <trkpt lat="49.0555610" lon="9.6016130">
        <ele>394.7600000</ele>
        <time>2010-06-17T08:39:49Z</time>
      </trkpt>
      <trkpt lat="49.0557150" lon="9.6009010">
        <ele>396.2000000</ele>
        <time>2010-06-17T08:40:02Z</time>
      </trkpt>
      <trkpt lat="49.0557720" lon="9.6004160">
        <ele>396.6800000</ele>
        <time>2010-06-17T08:40:12Z</time>
      </trkpt>
      <trkpt lat="49.0557900" lon="9.5998030">
        <ele>396.6800000</ele>
        <time>2010-06-17T08:40:21Z</time>
      </trkpt>
      <trkpt lat="49.0557940" lon="9.5997280">
        <ele>396.6800000</ele>
        <time>2010-06-17T08:40:22Z</time>
      </trkpt>
      <trkpt lat="49.0558070" lon="9.5994150">
        <ele>396.2000000</ele>
        <time>2010-06-17T08:40:26Z</time>
      </trkpt>
      <trkpt lat="49.0559630" lon="9.5987760">
        <ele>395.7200000</ele>
        <time>2010-06-17T08:40:35Z</time>
      </trkpt>
      <trkpt lat="49.0561430" lon="9.5979330">
        <ele>395.7200000</ele>
        <time>2010-06-17T08:40:48Z</time>
      </trkpt>
      <trkpt lat="49.0561750" lon="9.5976190">
        <ele>396.2000000</ele>
        <time>2010-06-17T08:40:53Z</time>
      </trkpt>
      <trkpt lat="49.0561740" lon="9.5975510">
        <ele>396.2000000</ele>
        <time>2010-06-17T08:40:54Z</time>
      </trkpt>
      <trkpt lat="49.0561690" lon="9.5974840">
        <ele>396.2000000</ele>
        <time>2010-06-17T08:40:55Z</time>
      </trkpt>
      <trkpt lat="49.0561620" lon="9.5974180">
        <ele>396.2000000</ele>
        <time>2010-06-17T08:40:56Z</time>
      </trkpt>
      <trkpt lat="49.0561520" lon="9.5973510">
        <ele>396.2000000</ele>
        <time>2010-06-17T08:40:57Z</time>
      </trkpt>
      <trkpt lat="49.0561370" lon="9.5972820">
        <ele>395.7200000</ele>
        <time>2010-06-17T08:40:58Z</time>
      </trkpt>
      <trkpt lat="49.0561180" lon="9.5972200">
        <ele>395.7200000</ele>
        <time>2010-06-17T08:40:59Z</time>
      </trkpt>
      <trkpt lat="49.0560950" lon="9.5971680">
        <ele>396.2000000</ele>
        <time>2010-06-17T08:41:00Z</time>
      </trkpt>
      <trkpt lat="49.0560670" lon="9.5971190">
        <ele>396.2000000</ele>
        <time>2010-06-17T08:41:01Z</time>
      </trkpt>
      <trkpt lat="49.0560390" lon="9.5970710">
        <ele>395.7200000</ele>
        <time>2010-06-17T08:41:02Z</time>
      </trkpt>
      <trkpt lat="49.0558890" lon="9.5968180">
        <ele>395.7200000</ele>
        <time>2010-06-17T08:41:07Z</time>
      </trkpt>
      <trkpt lat="49.0555090" lon="9.5958870">
        <ele>396.6800000</ele>
        <time>2010-06-17T08:41:24Z</time>
      </trkpt>
      <trkpt lat="49.0553630" lon="9.5953360">
        <ele>396.6800000</ele>
        <time>2010-06-17T08:41:33Z</time>
      </trkpt>
      <trkpt lat="49.0553470" lon="9.5952810">
        <ele>396.6800000</ele>
        <time>2010-06-17T08:41:34Z</time>
      </trkpt>
      <trkpt lat="49.0553070" lon="9.5951150">
        <ele>396.6800000</ele>
        <time>2010-06-17T08:41:37Z</time>
      </trkpt>
      <trkpt lat="49.0552400" lon="9.5941710">
        <ele>397.1600000</ele>
        <time>2010-06-17T08:41:51Z</time>
      </trkpt>
      <trkpt lat="49.0552410" lon="9.5934600">
        <ele>397.6400000</ele>
        <time>2010-06-17T08:42:02Z</time>
      </trkpt>
      <trkpt lat="49.0552430" lon="9.5933960">
        <ele>397.6400000</ele>
        <time>2010-06-17T08:42:03Z</time>
      </trkpt>
      <trkpt lat="49.0552010" lon="9.5928190">
        <ele>397.6400000</ele>
        <time>2010-06-17T08:42:12Z</time>
      </trkpt>
      <trkpt lat="49.0550220" lon="9.5921450">
        <ele>397.6400000</ele>
        <time>2010-06-17T08:42:24Z</time>
      </trkpt>
      <trkpt lat="49.0549220" lon="9.5916950">
        <ele>398.1200000</ele>
        <time>2010-06-17T08:42:32Z</time>
      </trkpt>
      <trkpt lat="49.0550040" lon="9.5910550">
        <ele>398.6000000</ele>
        <time>2010-06-17T08:42:42Z</time>
      </trkpt>
      <trkpt lat="49.0550890" lon="9.5907340">
        <ele>398.6000000</ele>
        <time>2010-06-17T08:42:47Z</time>
      </trkpt>
      <trkpt lat="49.0551480" lon="9.5905600">
        <ele>399.0800000</ele>
        <time>2010-06-17T08:42:50Z</time>
      </trkpt>
      <trkpt lat="49.0551660" lon="9.5905030">
        <ele>399.0800000</ele>
        <time>2010-06-17T08:42:51Z</time>
      </trkpt>
      <trkpt lat="49.0551800" lon="9.5904460">
        <ele>399.5700000</ele>
        <time>2010-06-17T08:42:52Z</time>
      </trkpt>
      <trkpt lat="49.0552080" lon="9.5903270">
        <ele>399.0800000</ele>
        <time>2010-06-17T08:42:54Z</time>
      </trkpt>
      <trkpt lat="49.0552280" lon="9.5902720">
        <ele>399.0800000</ele>
        <time>2010-06-17T08:42:55Z</time>
      </trkpt>
      <trkpt lat="49.0552490" lon="9.5902170">
        <ele>399.5700000</ele>
        <time>2010-06-17T08:42:56Z</time>
      </trkpt>
      <trkpt lat="49.0552660" lon="9.5901620">
        <ele>399.5700000</ele>
        <time>2010-06-17T08:42:57Z</time>
      </trkpt>
      <trkpt lat="49.0552800" lon="9.5901120">
        <ele>399.5700000</ele>
        <time>2010-06-17T08:42:58Z</time>
      </trkpt>
      <trkpt lat="49.0554920" lon="9.5895080">
        <ele>401.0100000</ele>
        <time>2010-06-17T08:43:11Z</time>
      </trkpt>
      <trkpt lat="49.0557070" lon="9.5890140">
        <ele>402.9300000</ele>
        <time>2010-06-17T08:43:23Z</time>
      </trkpt>
      <trkpt lat="49.0558620" lon="9.5883970">
        <ele>403.8900000</ele>
        <time>2010-06-17T08:43:35Z</time>
      </trkpt>
      <trkpt lat="49.0557720" lon="9.5875420">
        <ele>404.3700000</ele>
        <time>2010-06-17T08:43:50Z</time>
      </trkpt>
      <trkpt lat="49.0557630" lon="9.5874770">
        <ele>403.8900000</ele>
        <time>2010-06-17T08:43:51Z</time>
      </trkpt>
      <trkpt lat="49.0557530" lon="9.5874120">
        <ele>403.8900000</ele>
        <time>2010-06-17T08:43:52Z</time>
      </trkpt>
      <trkpt lat="49.0557490" lon="9.5873420">
        <ele>403.4100000</ele>
        <time>2010-06-17T08:43:53Z</time>
      </trkpt>
      <trkpt lat="49.0557360" lon="9.5867040">
        <ele>403.8900000</ele>
        <time>2010-06-17T08:44:02Z</time>
      </trkpt>
      <trkpt lat="49.0557090" lon="9.5864340">
        <ele>403.4100000</ele>
        <time>2010-06-17T08:44:06Z</time>
      </trkpt>
      <trkpt lat="49.0556920" lon="9.5863630">
        <ele>402.9300000</ele>
        <time>2010-06-17T08:44:07Z</time>
      </trkpt>
      <trkpt lat="49.0556700" lon="9.5862920">
        <ele>403.8900000</ele>
        <time>2010-06-17T08:44:08Z</time>
      </trkpt>
      <trkpt lat="49.0553210" lon="9.5853880">
        <ele>403.4100000</ele>
        <time>2010-06-17T08:44:23Z</time>
      </trkpt>
      <trkpt lat="49.0552690" lon="9.5851270">
        <ele>403.4100000</ele>
        <time>2010-06-17T08:44:27Z</time>
      </trkpt>
      <trkpt lat="49.0552560" lon="9.5850630">
        <ele>403.4100000</ele>
        <time>2010-06-17T08:44:28Z</time>
      </trkpt>
      <trkpt lat="49.0552090" lon="9.5848010">
        <ele>403.4100000</ele>
        <time>2010-06-17T08:44:32Z</time>
      </trkpt>
      <trkpt lat="49.0552020" lon="9.5847390">
        <ele>403.8900000</ele>
        <time>2010-06-17T08:44:33Z</time>
      </trkpt>
      <trkpt lat="49.0551950" lon="9.5846770">
        <ele>403.8900000</ele>
        <time>2010-06-17T08:44:34Z</time>
      </trkpt>
      <trkpt lat="49.0550070" lon="9.5836240">
        <ele>403.8900000</ele>
        <time>2010-06-17T08:44:51Z</time>
      </trkpt>
      <trkpt lat="49.0549210" lon="9.5833410">
        <ele>404.8500000</ele>
        <time>2010-06-17T08:44:56Z</time>
      </trkpt>
      <trkpt lat="49.0547680" lon="9.5830440">
        <ele>404.3700000</ele>
        <time>2010-06-17T08:45:04Z</time>
      </trkpt>
      <trkpt lat="49.0546910" lon="9.5828730">
        <ele>404.8500000</ele>
        <time>2010-06-17T08:45:10Z</time>
      </trkpt>
      <trkpt lat="49.0546780" lon="9.5828650">
        <ele>404.8500000</ele>
        <time>2010-06-17T08:45:11Z</time>
      </trkpt>
      <trkpt lat="49.0546660" lon="9.5828480">
        <ele>404.8500000</ele>
        <time>2010-06-17T08:45:12Z</time>
      </trkpt>
      <trkpt lat="49.0546570" lon="9.5828260">
        <ele>404.8500000</ele>
        <time>2010-06-17T08:45:13Z</time>
      </trkpt>
      <trkpt lat="49.0543960" lon="9.5821700">
        <ele>405.3300000</ele>
        <time>2010-06-17T08:45:23Z</time>
      </trkpt>
      <trkpt lat="49.0542900" lon="9.5817990">
        <ele>405.8100000</ele>
        <time>2010-06-17T08:45:28Z</time>
      </trkpt>
      <trkpt lat="49.0542710" lon="9.5817090">
        <ele>405.3300000</ele>
        <time>2010-06-17T08:45:29Z</time>
      </trkpt>
      <trkpt lat="49.0540570" lon="9.5807420">
        <ele>405.8100000</ele>
        <time>2010-06-17T08:45:43Z</time>
      </trkpt>
      <trkpt lat="49.0540090" lon="9.5804780">
        <ele>406.2900000</ele>
        <time>2010-06-17T08:45:47Z</time>
      </trkpt>
      <trkpt lat="49.0539300" lon="9.5799710">
        <ele>406.2900000</ele>
        <time>2010-06-17T08:45:55Z</time>
      </trkpt>
      <trkpt lat="49.0539390" lon="9.5793720">
        <ele>406.7700000</ele>
        <time>2010-06-17T08:46:04Z</time>
      </trkpt>
      <trkpt lat="49.0540420" lon="9.5784560">
        <ele>407.2600000</ele>
        <time>2010-06-17T08:46:19Z</time>
      </trkpt>
      <trkpt lat="49.0539250" lon="9.5778350">
        <ele>408.2200000</ele>
        <time>2010-06-17T08:46:30Z</time>
      </trkpt>
      <trkpt lat="49.0538220" lon="9.5774940">
        <ele>408.2200000</ele>
        <time>2010-06-17T08:46:36Z</time>
      </trkpt>
      <trkpt lat="49.0538170" lon="9.5774270">
        <ele>408.2200000</ele>
        <time>2010-06-17T08:46:37Z</time>
      </trkpt>
      <trkpt lat="49.0538200" lon="9.5773710">
        <ele>408.2200000</ele>
        <time>2010-06-17T08:46:38Z</time>
      </trkpt>
      <trkpt lat="49.0540060" lon="9.5768950">
        <ele>408.7000000</ele>
        <time>2010-06-17T08:46:48Z</time>
      </trkpt>
      <trkpt lat="49.0543850" lon="9.5762740">
        <ele>409.1800000</ele>
        <time>2010-06-17T08:47:02Z</time>
      </trkpt>
      <trkpt lat="49.0545440" lon="9.5760750">
        <ele>409.6600000</ele>
        <time>2010-06-17T08:47:07Z</time>
      </trkpt>
      <trkpt lat="49.0545760" lon="9.5760390">
        <ele>409.6600000</ele>
        <time>2010-06-17T08:47:08Z</time>
      </trkpt>
      <trkpt lat="49.0547430" lon="9.5758700">
        <ele>409.6600000</ele>
        <time>2010-06-17T08:47:13Z</time>
      </trkpt>
      <trkpt lat="49.0552370" lon="9.5754090">
        <ele>409.6600000</ele>
        <time>2010-06-17T08:47:27Z</time>
      </trkpt>
      <trkpt lat="49.0552680" lon="9.5753600">
        <ele>409.6600000</ele>
        <time>2010-06-17T08:47:28Z</time>
      </trkpt>
      <trkpt lat="49.0554510" lon="9.5749300">
        <ele>410.6200000</ele>
        <time>2010-06-17T08:47:36Z</time>
      </trkpt>
      <trkpt lat="49.0555550" lon="9.5746610">
        <ele>410.1400000</ele>
        <time>2010-06-17T08:47:41Z</time>
      </trkpt>
      <trkpt lat="49.0558480" lon="9.5743030">
        <ele>410.6200000</ele>
        <time>2010-06-17T08:47:51Z</time>
      </trkpt>
      <trkpt lat="49.0559400" lon="9.5737380">
        <ele>410.6200000</ele>
        <time>2010-06-17T08:48:00Z</time>
      </trkpt>
      <trkpt lat="49.0559440" lon="9.5736710">
        <ele>410.6200000</ele>
        <time>2010-06-17T08:48:01Z</time>
      </trkpt>
      <trkpt lat="49.0559510" lon="9.5736020">
        <ele>410.6200000</ele>
        <time>2010-06-17T08:48:02Z</time>
      </trkpt>
      <trkpt lat="49.0559730" lon="9.5733960">
        <ele>410.6200000</ele>
        <time>2010-06-17T08:48:05Z</time>
      </trkpt>
      <trkpt lat="49.0559840" lon="9.5733310">
        <ele>410.6200000</ele>
        <time>2010-06-17T08:48:06Z</time>
      </trkpt>
      <trkpt lat="49.0559910" lon="9.5732690">
        <ele>410.6200000</ele>
        <time>2010-06-17T08:48:07Z</time>
      </trkpt>
      <trkpt lat="49.0560010" lon="9.5732020">
        <ele>410.6200000</ele>
        <time>2010-06-17T08:48:08Z</time>
      </trkpt>
      <trkpt lat="49.0560120" lon="9.5731460">
        <ele>410.6200000</ele>
        <time>2010-06-17T08:48:09Z</time>
      </trkpt>
      <trkpt lat="49.0559300" lon="9.5725800">
        <ele>411.5800000</ele>
        <time>2010-06-17T08:48:20Z</time>
      </trkpt>
      <trkpt lat="49.0556840" lon="9.5722160">
        <ele>412.5400000</ele>
        <time>2010-06-17T08:48:29Z</time>
      </trkpt>
      <trkpt lat="49.0554040" lon="9.5715790">
        <ele>413.0200000</ele>
        <time>2010-06-17T08:48:42Z</time>
      </trkpt>
      <trkpt lat="49.0551190" lon="9.5707810">
        <ele>414.4700000</ele>
        <time>2010-06-17T08:48:57Z</time>
      </trkpt>
      <trkpt lat="49.0549750" lon="9.5702900">
        <ele>414.4700000</ele>
        <time>2010-06-17T08:49:05Z</time>
      </trkpt>
      <trkpt lat="49.0547030" lon="9.5692010">
        <ele>414.9500000</ele>
        <time>2010-06-17T08:49:23Z</time>
      </trkpt>
      <trkpt lat="49.0546440" lon="9.5687590">
        <ele>414.4700000</ele>
        <time>2010-06-17T08:49:30Z</time>
      </trkpt>
      <trkpt lat="49.0546320" lon="9.5686940">
        <ele>414.9500000</ele>
        <time>2010-06-17T08:49:31Z</time>
      </trkpt>
      <trkpt lat="49.0546090" lon="9.5685700">
        <ele>414.4700000</ele>
        <time>2010-06-17T08:49:33Z</time>
      </trkpt>
      <trkpt lat="49.0545950" lon="9.5685120">
        <ele>414.9500000</ele>
        <time>2010-06-17T08:49:34Z</time>
      </trkpt>
      <trkpt lat="49.0544310" lon="9.5675530">
        <ele>415.4300000</ele>
        <time>2010-06-17T08:49:49Z</time>
      </trkpt>
      <trkpt lat="49.0543690" lon="9.5672400">
        <ele>415.4300000</ele>
        <time>2010-06-17T08:49:54Z</time>
      </trkpt>
      <trkpt lat="49.0543570" lon="9.5671730">
        <ele>415.9100000</ele>
        <time>2010-06-17T08:49:55Z</time>
      </trkpt>
      <trkpt lat="49.0543470" lon="9.5671090">
        <ele>415.9100000</ele>
        <time>2010-06-17T08:49:56Z</time>
      </trkpt>
      <trkpt lat="49.0542970" lon="9.5662900">
        <ele>415.4300000</ele>
        <time>2010-06-17T08:50:09Z</time>
      </trkpt>
      <trkpt lat="49.0544010" lon="9.5657390">
        <ele>415.9100000</ele>
        <time>2010-06-17T08:50:19Z</time>
      </trkpt>
      <trkpt lat="49.0544810" lon="9.5652940">
        <ele>415.9100000</ele>
        <time>2010-06-17T08:50:26Z</time>
      </trkpt>
      <trkpt lat="49.0545430" lon="9.5650000">
        <ele>416.3900000</ele>
        <time>2010-06-17T08:50:31Z</time>
      </trkpt>
      <trkpt lat="49.0545750" lon="9.5648770">
        <ele>416.3900000</ele>
        <time>2010-06-17T08:50:33Z</time>
      </trkpt>
      <trkpt lat="49.0546950" lon="9.5646040">
        <ele>416.3900000</ele>
        <time>2010-06-17T08:50:38Z</time>
      </trkpt>
      <trkpt lat="49.0547320" lon="9.5645620">
        <ele>416.3900000</ele>
        <time>2010-06-17T08:50:39Z</time>
      </trkpt>
      <trkpt lat="49.0548740" lon="9.5643910">
        <ele>416.3900000</ele>
        <time>2010-06-17T08:50:43Z</time>
      </trkpt>
      <trkpt lat="49.0549990" lon="9.5641870">
        <ele>416.8700000</ele>
        <time>2010-06-17T08:50:47Z</time>
      </trkpt>
      <trkpt lat="49.0551080" lon="9.5639650">
        <ele>416.3900000</ele>
        <time>2010-06-17T08:50:51Z</time>
      </trkpt>
      <trkpt lat="49.0552650" lon="9.5633600">
        <ele>416.8700000</ele>
        <time>2010-06-17T08:51:01Z</time>
      </trkpt>
      <trkpt lat="49.0552830" lon="9.5633000">
        <ele>416.8700000</ele>
        <time>2010-06-17T08:51:02Z</time>
      </trkpt>
      <trkpt lat="49.0553550" lon="9.5630670">
        <ele>417.3500000</ele>
        <time>2010-06-17T08:51:06Z</time>
      </trkpt>
      <trkpt lat="49.0553610" lon="9.5629990">
        <ele>417.8300000</ele>
        <time>2010-06-17T08:51:07Z</time>
      </trkpt>
      <trkpt lat="49.0553650" lon="9.5629320">
        <ele>417.3500000</ele>
        <time>2010-06-17T08:51:08Z</time>
      </trkpt>
      <trkpt lat="49.0553660" lon="9.5628680">
        <ele>417.3500000</ele>
        <time>2010-06-17T08:51:09Z</time>
      </trkpt>
      <trkpt lat="49.0553720" lon="9.5627970">
        <ele>417.3500000</ele>
        <time>2010-06-17T08:51:10Z</time>
      </trkpt>
      <trkpt lat="49.0553740" lon="9.5627250">
        <ele>417.3500000</ele>
        <time>2010-06-17T08:51:11Z</time>
      </trkpt>
      <trkpt lat="49.0553730" lon="9.5626560">
        <ele>417.3500000</ele>
        <time>2010-06-17T08:51:12Z</time>
      </trkpt>
      <trkpt lat="49.0553440" lon="9.5624320">
        <ele>417.3500000</ele>
        <time>2010-06-17T08:51:15Z</time>
      </trkpt>
      <trkpt lat="49.0552600" lon="9.5620690">
        <ele>417.8300000</ele>
        <time>2010-06-17T08:51:20Z</time>
      </trkpt>
      <trkpt lat="49.0549910" lon="9.5614650">
        <ele>417.8300000</ele>
        <time>2010-06-17T08:51:30Z</time>
      </trkpt>
      <trkpt lat="49.0547050" lon="9.5605640">
        <ele>418.3100000</ele>
        <time>2010-06-17T08:51:45Z</time>
      </trkpt>
      <trkpt lat="49.0546140" lon="9.5600110">
        <ele>419.7500000</ele>
        <time>2010-06-17T08:51:56Z</time>
      </trkpt>
      <trkpt lat="49.0545560" lon="9.5594880">
        <ele>421.1900000</ele>
        <time>2010-06-17T08:52:06Z</time>
      </trkpt>
      <trkpt lat="49.0544900" lon="9.5589850">
        <ele>421.6800000</ele>
        <time>2010-06-17T08:52:16Z</time>
      </trkpt>
      <trkpt lat="49.0545950" lon="9.5584350">
        <ele>422.1600000</ele>
        <time>2010-06-17T08:52:28Z</time>
      </trkpt>
      <trkpt lat="49.0548050" lon="9.5576180">
        <ele>422.1600000</ele>
        <time>2010-06-17T08:52:41Z</time>
      </trkpt>
      <trkpt lat="49.0548560" lon="9.5574320">
        <ele>422.1600000</ele>
        <time>2010-06-17T08:52:44Z</time>
      </trkpt>
      <trkpt lat="49.0548800" lon="9.5573740">
        <ele>422.1600000</ele>
        <time>2010-06-17T08:52:45Z</time>
      </trkpt>
      <trkpt lat="49.0549020" lon="9.5573150">
        <ele>422.1600000</ele>
        <time>2010-06-17T08:52:46Z</time>
      </trkpt>
      <trkpt lat="49.0550370" lon="9.5569520">
        <ele>421.6800000</ele>
        <time>2010-06-17T08:52:52Z</time>
      </trkpt>
      <trkpt lat="49.0550610" lon="9.5568920">
        <ele>422.1600000</ele>
        <time>2010-06-17T08:52:53Z</time>
      </trkpt>
      <trkpt lat="49.0550840" lon="9.5568310">
        <ele>422.1600000</ele>
        <time>2010-06-17T08:52:54Z</time>
      </trkpt>
      <trkpt lat="49.0551080" lon="9.5567730">
        <ele>421.6800000</ele>
        <time>2010-06-17T08:52:55Z</time>
      </trkpt>
      <trkpt lat="49.0551360" lon="9.5567210">
        <ele>422.1600000</ele>
        <time>2010-06-17T08:52:56Z</time>
      </trkpt>
      <trkpt lat="49.0551630" lon="9.5566730">
        <ele>421.6800000</ele>
        <time>2010-06-17T08:52:57Z</time>
      </trkpt>
      <trkpt lat="49.0552870" lon="9.5564550">
        <ele>422.1600000</ele>
        <time>2010-06-17T08:53:02Z</time>
      </trkpt>
      <trkpt lat="49.0553200" lon="9.5564100">
        <ele>422.1600000</ele>
        <time>2010-06-17T08:53:03Z</time>
      </trkpt>
      <trkpt lat="49.0553490" lon="9.5563570">
        <ele>422.1600000</ele>
        <time>2010-06-17T08:53:04Z</time>
      </trkpt>
      <trkpt lat="49.0553710" lon="9.5563060">
        <ele>422.1600000</ele>
        <time>2010-06-17T08:53:05Z</time>
      </trkpt>
      <trkpt lat="49.0553970" lon="9.5562570">
        <ele>422.6400000</ele>
        <time>2010-06-17T08:53:06Z</time>
      </trkpt>
      <trkpt lat="49.0554230" lon="9.5562050">
        <ele>422.6400000</ele>
        <time>2010-06-17T08:53:07Z</time>
      </trkpt>
      <trkpt lat="49.0557630" lon="9.5554500">
        <ele>422.6400000</ele>
        <time>2010-06-17T08:53:21Z</time>
      </trkpt>
      <trkpt lat="49.0559010" lon="9.5548730">
        <ele>423.1200000</ele>
        <time>2010-06-17T08:53:31Z</time>
      </trkpt>
      <trkpt lat="49.0559360" lon="9.5541460">
        <ele>424.0800000</ele>
        <time>2010-06-17T08:53:42Z</time>
      </trkpt>
      <trkpt lat="49.0558620" lon="9.5537360">
        <ele>424.0800000</ele>
        <time>2010-06-17T08:53:48Z</time>
      </trkpt>
      <trkpt lat="49.0558480" lon="9.5536720">
        <ele>424.0800000</ele>
        <time>2010-06-17T08:53:49Z</time>
      </trkpt>
      <trkpt lat="49.0557610" lon="9.5533060">
        <ele>424.5600000</ele>
        <time>2010-06-17T08:53:55Z</time>
      </trkpt>
      <trkpt lat="49.0556830" lon="9.5529980">
        <ele>424.5600000</ele>
        <time>2010-06-17T08:54:00Z</time>
      </trkpt>
      <trkpt lat="49.0556410" lon="9.5528720">
        <ele>424.5600000</ele>
        <time>2010-06-17T08:54:02Z</time>
      </trkpt>
      <trkpt lat="49.0556250" lon="9.5528100">
        <ele>424.5600000</ele>
        <time>2010-06-17T08:54:03Z</time>
      </trkpt>
      <trkpt lat="49.0554420" lon="9.5520550">
        <ele>425.0400000</ele>
        <time>2010-06-17T08:54:15Z</time>
      </trkpt>
      <trkpt lat="49.0554300" lon="9.5519920">
        <ele>425.0400000</ele>
        <time>2010-06-17T08:54:16Z</time>
      </trkpt>
      <trkpt lat="49.0554160" lon="9.5519310">
        <ele>425.5200000</ele>
        <time>2010-06-17T08:54:17Z</time>
      </trkpt>
      <trkpt lat="49.0554060" lon="9.5518660">
        <ele>425.0400000</ele>
        <time>2010-06-17T08:54:18Z</time>
      </trkpt>
      <trkpt lat="49.0554000" lon="9.5517990">
        <ele>425.5200000</ele>
        <time>2010-06-17T08:54:19Z</time>
      </trkpt>
      <trkpt lat="49.0553900" lon="9.5517340">
        <ele>425.5200000</ele>
        <time>2010-06-17T08:54:20Z</time>
      </trkpt>
      <trkpt lat="49.0553210" lon="9.5509560">
        <ele>426.0000000</ele>
        <time>2010-06-17T08:54:33Z</time>
      </trkpt>
      <trkpt lat="49.0553410" lon="9.5506410">
        <ele>426.0000000</ele>
        <time>2010-06-17T08:54:38Z</time>
      </trkpt>
      <trkpt lat="49.0555360" lon="9.5498850">
        <ele>426.4800000</ele>
        <time>2010-06-17T08:54:50Z</time>
      </trkpt>
      <trkpt lat="49.0556000" lon="9.5497210">
        <ele>426.4800000</ele>
        <time>2010-06-17T08:54:53Z</time>
      </trkpt>
      <trkpt lat="49.0558280" lon="9.5487340">
        <ele>427.4400000</ele>
        <time>2010-06-17T08:55:09Z</time>
      </trkpt>
      <trkpt lat="49.0558600" lon="9.5476670">
        <ele>427.9200000</ele>
        <time>2010-06-17T08:55:25Z</time>
      </trkpt>
      <trkpt lat="49.0558290" lon="9.5473930">
        <ele>427.9200000</ele>
        <time>2010-06-17T08:55:29Z</time>
      </trkpt>
      <trkpt lat="49.0558110" lon="9.5473270">
        <ele>428.4000000</ele>
        <time>2010-06-17T08:55:30Z</time>
      </trkpt>
      <trkpt lat="49.0557710" lon="9.5472080">
        <ele>427.9200000</ele>
        <time>2010-06-17T08:55:32Z</time>
      </trkpt>
      <trkpt lat="49.0557480" lon="9.5471520">
        <ele>427.9200000</ele>
        <time>2010-06-17T08:55:33Z</time>
      </trkpt>
      <trkpt lat="49.0555180" lon="9.5467260">
        <ele>428.4000000</ele>
        <time>2010-06-17T08:55:41Z</time>
      </trkpt>
      <trkpt lat="49.0554500" lon="9.5462410">
        <ele>428.8900000</ele>
        <time>2010-06-17T08:55:50Z</time>
      </trkpt>
      <trkpt lat="49.0554080" lon="9.5452630">
        <ele>429.3700000</ele>
        <time>2010-06-17T08:56:04Z</time>
      </trkpt>
      <trkpt lat="49.0554080" lon="9.5451900">
        <ele>429.3700000</ele>
        <time>2010-06-17T08:56:05Z</time>
      </trkpt>
      <trkpt lat="49.0554310" lon="9.5448420">
        <ele>428.8900000</ele>
        <time>2010-06-17T08:56:10Z</time>
      </trkpt>
      <trkpt lat="49.0554530" lon="9.5446900">
        <ele>429.3700000</ele>
        <time>2010-06-17T08:56:12Z</time>
      </trkpt>
      <trkpt lat="49.0554700" lon="9.5445460">
        <ele>429.3700000</ele>
        <time>2010-06-17T08:56:14Z</time>
      </trkpt>
      <trkpt lat="49.0554840" lon="9.5444730">
        <ele>429.3700000</ele>
        <time>2010-06-17T08:56:15Z</time>
      </trkpt>
      <trkpt lat="49.0554990" lon="9.5444000">
        <ele>429.3700000</ele>
        <time>2010-06-17T08:56:16Z</time>
      </trkpt>
      <trkpt lat="49.0558360" lon="9.5437070">
        <ele>429.8500000</ele>
        <time>2010-06-17T08:56:28Z</time>
      </trkpt>
      <trkpt lat="49.0563200" lon="9.5430450">
        <ele>430.3300000</ele>
        <time>2010-06-17T08:56:43Z</time>
      </trkpt>
      <trkpt lat="49.0566220" lon="9.5425830">
        <ele>432.2500000</ele>
        <time>2010-06-17T08:56:56Z</time>
      </trkpt>
      <trkpt lat="49.0567340" lon="9.5419930">
        <ele>435.1300000</ele>
        <time>2010-06-17T08:57:14Z</time>
      </trkpt>
      <trkpt lat="49.0568370" lon="9.5414610">
        <ele>438.0200000</ele>
        <time>2010-06-17T08:57:32Z</time>
      </trkpt>
      <trkpt lat="49.0568030" lon="9.5409230">
        <ele>440.9000000</ele>
        <time>2010-06-17T08:57:50Z</time>
      </trkpt>
      <trkpt lat="49.0566180" lon="9.5406400">
        <ele>442.8200000</ele>
        <time>2010-06-17T08:58:04Z</time>
      </trkpt>
      <trkpt lat="49.0565190" lon="9.5403360">
        <ele>442.3400000</ele>
        <time>2010-06-17T08:58:15Z</time>
      </trkpt>
      <trkpt lat="49.0564070" lon="9.5398830">
        <ele>444.7500000</ele>
        <time>2010-06-17T08:58:32Z</time>
      </trkpt>
      <trkpt lat="49.0563560" lon="9.5394460">
        <ele>447.6300000</ele>
        <time>2010-06-17T08:58:48Z</time>
      </trkpt>
      <trkpt lat="49.0563070" lon="9.5389450">
        <ele>450.0300000</ele>
        <time>2010-06-17T08:59:05Z</time>
      </trkpt>
      <trkpt lat="49.0562900" lon="9.5386310">
        <ele>453.4000000</ele>
        <time>2010-06-17T08:59:15Z</time>
      </trkpt>
      <trkpt lat="49.0562860" lon="9.5386020">
        <ele>452.9200000</ele>
        <time>2010-06-17T08:59:16Z</time>
      </trkpt>
      <trkpt lat="49.0562880" lon="9.5380290">
        <ele>455.3200000</ele>
        <time>2010-06-17T08:59:34Z</time>
      </trkpt>
      <trkpt lat="49.0563070" lon="9.5376360">
        <ele>457.2400000</ele>
        <time>2010-06-17T08:59:47Z</time>
      </trkpt>
      <trkpt lat="49.0563630" lon="9.5371610">
        <ele>459.6500000</ele>
        <time>2010-06-17T09:00:02Z</time>
      </trkpt>
      <trkpt lat="49.0563790" lon="9.5367060">
        <ele>461.5700000</ele>
        <time>2010-06-17T09:00:16Z</time>
      </trkpt>
      <trkpt lat="49.0563680" lon="9.5361710">
        <ele>463.9700000</ele>
        <time>2010-06-17T09:00:32Z</time>
      </trkpt>
      <trkpt lat="49.0563600" lon="9.5355740">
        <ele>466.8600000</ele>
        <time>2010-06-17T09:00:50Z</time>
      </trkpt>
      <trkpt lat="49.0563960" lon="9.5349890">
        <ele>468.3000000</ele>
        <time>2010-06-17T09:01:06Z</time>
      </trkpt>
      <trkpt lat="49.0564240" lon="9.5343350">
        <ele>470.2200000</ele>
        <time>2010-06-17T09:01:23Z</time>
      </trkpt>
      <trkpt lat="49.0565480" lon="9.5337180">
        <ele>471.6600000</ele>
        <time>2010-06-17T09:01:39Z</time>
      </trkpt>
      <trkpt lat="49.0567290" lon="9.5331130">
        <ele>472.6300000</ele>
        <time>2010-06-17T09:01:54Z</time>
      </trkpt>
      <trkpt lat="49.0568820" lon="9.5324590">
        <ele>474.0700000</ele>
        <time>2010-06-17T09:02:08Z</time>
      </trkpt>
      <trkpt lat="49.0568860" lon="9.5317170">
        <ele>475.5100000</ele>
        <time>2010-06-17T09:02:23Z</time>
      </trkpt>
      <trkpt lat="49.0567670" lon="9.5309740">
        <ele>476.4700000</ele>
        <time>2010-06-17T09:02:39Z</time>
      </trkpt>
      <trkpt lat="49.0565600" lon="9.5303200">
        <ele>478.8700000</ele>
        <time>2010-06-17T09:02:56Z</time>
      </trkpt>
      <trkpt lat="49.0563810" lon="9.5295350">
        <ele>481.2800000</ele>
        <time>2010-06-17T09:03:17Z</time>
      </trkpt>
      <trkpt lat="49.0563350" lon="9.5288030">
        <ele>483.6800000</ele>
        <time>2010-06-17T09:03:36Z</time>
      </trkpt>
      <trkpt lat="49.0563340" lon="9.5281270">
        <ele>484.6400000</ele>
        <time>2010-06-17T09:03:52Z</time>
      </trkpt>
      <trkpt lat="49.0563190" lon="9.5273750">
        <ele>486.0800000</ele>
        <time>2010-06-17T09:04:08Z</time>
      </trkpt>
      <trkpt lat="49.0563160" lon="9.5266930">
        <ele>487.0500000</ele>
        <time>2010-06-17T09:04:22Z</time>
      </trkpt>
      <trkpt lat="49.0564080" lon="9.5256630">
        <ele>485.1200000</ele>
        <time>2010-06-17T09:04:38Z</time>
      </trkpt>
      <trkpt lat="49.0565410" lon="9.5245820">
        <ele>481.7600000</ele>
        <time>2010-06-17T09:04:49Z</time>
      </trkpt>
      <trkpt lat="49.0569060" lon="9.5232930">
        <ele>480.3200000</ele>
        <time>2010-06-17T09:05:02Z</time>
      </trkpt>
      <trkpt lat="49.0571670" lon="9.5224940">
        <ele>481.2800000</ele>
        <time>2010-06-17T09:05:13Z</time>
      </trkpt>
      <trkpt lat="49.0571990" lon="9.5222760">
        <ele>480.8000000</ele>
        <time>2010-06-17T09:05:16Z</time>
      </trkpt>
      <trkpt lat="49.0572300" lon="9.5213570">
        <ele>484.1600000</ele>
        <time>2010-06-17T09:05:30Z</time>
      </trkpt>
      <trkpt lat="49.0572260" lon="9.5206510">
        <ele>486.0800000</ele>
        <time>2010-06-17T09:05:43Z</time>
      </trkpt>
      <trkpt lat="49.0572010" lon="9.5200200">
        <ele>488.0100000</ele>
        <time>2010-06-17T09:05:55Z</time>
      </trkpt>
      <trkpt lat="49.0571000" lon="9.5193990">
        <ele>489.4500000</ele>
        <time>2010-06-17T09:06:09Z</time>
      </trkpt>
      <trkpt lat="49.0570130" lon="9.5188170">
        <ele>491.3700000</ele>
        <time>2010-06-17T09:06:25Z</time>
      </trkpt>
      <trkpt lat="49.0567790" lon="9.5182330">
        <ele>494.2600000</ele>
        <time>2010-06-17T09:06:42Z</time>
      </trkpt>
      <trkpt lat="49.0565620" lon="9.5176010">
        <ele>497.1400000</ele>
        <time>2010-06-17T09:07:00Z</time>
      </trkpt>
      <trkpt lat="49.0564010" lon="9.5171710">
        <ele>499.0600000</ele>
        <time>2010-06-17T09:07:13Z</time>
      </trkpt>
      <trkpt lat="49.0561880" lon="9.5166590">
        <ele>501.9500000</ele>
        <time>2010-06-17T09:07:28Z</time>
      </trkpt>
      <trkpt lat="49.0558610" lon="9.5162660">
        <ele>504.8300000</ele>
        <time>2010-06-17T09:07:44Z</time>
      </trkpt>
      <trkpt lat="49.0554750" lon="9.5161850">
        <ele>506.2700000</ele>
        <time>2010-06-17T09:07:59Z</time>
      </trkpt>
      <trkpt lat="49.0550840" lon="9.5162540">
        <ele>507.2300000</ele>
        <time>2010-06-17T09:08:13Z</time>
      </trkpt>
      <trkpt lat="49.0546450" lon="9.5163520">
        <ele>507.2300000</ele>
        <time>2010-06-17T09:08:26Z</time>
      </trkpt>
      <trkpt lat="49.0544850" lon="9.5163670">
        <ele>507.2300000</ele>
        <time>2010-06-17T09:08:31Z</time>
      </trkpt>
      <trkpt lat="49.0544630" lon="9.5163550">
        <ele>507.2300000</ele>
        <time>2010-06-17T09:08:32Z</time>
      </trkpt>
      <trkpt lat="49.0544410" lon="9.5163340">
        <ele>506.7500000</ele>
        <time>2010-06-17T09:08:33Z</time>
      </trkpt>
      <trkpt lat="49.0543530" lon="9.5162420">
        <ele>506.7500000</ele>
        <time>2010-06-17T09:08:36Z</time>
      </trkpt>
      <trkpt lat="49.0543130" lon="9.5162210">
        <ele>506.2700000</ele>
        <time>2010-06-17T09:08:37Z</time>
      </trkpt>
      <trkpt lat="49.0542690" lon="9.5162010">
        <ele>506.2700000</ele>
        <time>2010-06-17T09:08:38Z</time>
      </trkpt>
      <trkpt lat="49.0542240" lon="9.5161800">
        <ele>505.7900000</ele>
        <time>2010-06-17T09:08:39Z</time>
      </trkpt>
      <trkpt lat="49.0541780" lon="9.5161530">
        <ele>505.7900000</ele>
        <time>2010-06-17T09:08:40Z</time>
      </trkpt>
      <trkpt lat="49.0541310" lon="9.5161180">
        <ele>505.7900000</ele>
        <time>2010-06-17T09:08:41Z</time>
      </trkpt>
      <trkpt lat="49.0540860" lon="9.5160760">
        <ele>504.8300000</ele>
        <time>2010-06-17T09:08:42Z</time>
      </trkpt>
      <trkpt lat="49.0540460" lon="9.5160280">
        <ele>505.3100000</ele>
        <time>2010-06-17T09:08:43Z</time>
      </trkpt>
      <trkpt lat="49.0540070" lon="9.5159730">
        <ele>504.8300000</ele>
        <time>2010-06-17T09:08:44Z</time>
      </trkpt>
      <trkpt lat="49.0539380" lon="9.5158620">
        <ele>505.7900000</ele>
        <time>2010-06-17T09:08:46Z</time>
      </trkpt>
      <trkpt lat="49.0534130" lon="9.5147830">
        <ele>508.1900000</ele>
        <time>2010-06-17T09:09:05Z</time>
      </trkpt>
      <trkpt lat="49.0530820" lon="9.5142450">
        <ele>511.5600000</ele>
        <time>2010-06-17T09:09:19Z</time>
      </trkpt>
      <trkpt lat="49.0527100" lon="9.5136510">
        <ele>513.9600000</ele>
        <time>2010-06-17T09:09:36Z</time>
      </trkpt>
      <trkpt lat="49.0522480" lon="9.5130600">
        <ele>514.4400000</ele>
        <time>2010-06-17T09:09:53Z</time>
      </trkpt>
      <trkpt lat="49.0520860" lon="9.5129160">
        <ele>514.4400000</ele>
        <time>2010-06-17T09:09:58Z</time>
      </trkpt>
      <trkpt lat="49.0519710" lon="9.5128410">
        <ele>514.4400000</ele>
        <time>2010-06-17T09:10:01Z</time>
      </trkpt>
      <trkpt lat="49.0519350" lon="9.5128070">
        <ele>514.4400000</ele>
        <time>2010-06-17T09:10:02Z</time>
      </trkpt>
      <trkpt lat="49.0518690" lon="9.5127280">
        <ele>514.4400000</ele>
        <time>2010-06-17T09:10:04Z</time>
      </trkpt>
      <trkpt lat="49.0518320" lon="9.5126970">
        <ele>514.9200000</ele>
        <time>2010-06-17T09:10:05Z</time>
      </trkpt>
      <trkpt lat="49.0513910" lon="9.5126530">
        <ele>516.8500000</ele>
        <time>2010-06-17T09:10:17Z</time>
      </trkpt>
      <trkpt lat="49.0510010" lon="9.5128440">
        <ele>518.2900000</ele>
        <time>2010-06-17T09:10:30Z</time>
      </trkpt>
      <trkpt lat="49.0505740" lon="9.5131080">
        <ele>516.8500000</ele>
        <time>2010-06-17T09:10:43Z</time>
      </trkpt>
      <trkpt lat="49.0502130" lon="9.5130090">
        <ele>516.8500000</ele>
        <time>2010-06-17T09:10:53Z</time>
      </trkpt>
      <trkpt lat="49.0501760" lon="9.5129690">
        <ele>516.8500000</ele>
        <time>2010-06-17T09:10:54Z</time>
      </trkpt>
      <trkpt lat="49.0501360" lon="9.5129190">
        <ele>515.8800000</ele>
        <time>2010-06-17T09:10:55Z</time>
      </trkpt>
      <trkpt lat="49.0500710" lon="9.5128270">
        <ele>515.4000000</ele>
        <time>2010-06-17T09:10:57Z</time>
      </trkpt>
      <trkpt lat="49.0500370" lon="9.5127830">
        <ele>514.9200000</ele>
        <time>2010-06-17T09:10:58Z</time>
      </trkpt>
      <trkpt lat="49.0500090" lon="9.5127240">
        <ele>513.9600000</ele>
        <time>2010-06-17T09:10:59Z</time>
      </trkpt>
      <trkpt lat="49.0500000" lon="9.5126540">
        <ele>514.4400000</ele>
        <time>2010-06-17T09:11:00Z</time>
      </trkpt>
      <trkpt lat="49.0500010" lon="9.5125830">
        <ele>514.4400000</ele>
        <time>2010-06-17T09:11:01Z</time>
      </trkpt>
      <trkpt lat="49.0500270" lon="9.5115390">
        <ele>515.4000000</ele>
        <time>2010-06-17T09:11:16Z</time>
      </trkpt>
      <trkpt lat="49.0500380" lon="9.5105950">
        <ele>516.3700000</ele>
        <time>2010-06-17T09:11:32Z</time>
      </trkpt>
      <trkpt lat="49.0500400" lon="9.5104260">
        <ele>515.4000000</ele>
        <time>2010-06-17T09:11:34Z</time>
      </trkpt>
      <trkpt lat="49.0500110" lon="9.5090720">
        <ele>513.9600000</ele>
        <time>2010-06-17T09:11:47Z</time>
      </trkpt>
      <trkpt lat="49.0499300" lon="9.5082410">
        <ele>510.6000000</ele>
        <time>2010-06-17T09:11:54Z</time>
      </trkpt>
      <trkpt lat="49.0499300" lon="9.5081140">
        <ele>510.1200000</ele>
        <time>2010-06-17T09:11:55Z</time>
      </trkpt>
      <trkpt lat="49.0499200" lon="9.5070400">
        <ele>506.2700000</ele>
        <time>2010-06-17T09:12:03Z</time>
      </trkpt>
      <trkpt lat="49.0499120" lon="9.5063270">
        <ele>503.8700000</ele>
        <time>2010-06-17T09:12:08Z</time>
      </trkpt>
      <trkpt lat="49.0498970" lon="9.5057450">
        <ele>501.9500000</ele>
        <time>2010-06-17T09:12:12Z</time>
      </trkpt>
      <trkpt lat="49.0498810" lon="9.5045160">
        <ele>500.5000000</ele>
        <time>2010-06-17T09:12:22Z</time>
      </trkpt>
      <trkpt lat="49.0498600" lon="9.5044250">
        <ele>500.0200000</ele>
        <time>2010-06-17T09:12:23Z</time>
      </trkpt>
      <trkpt lat="49.0497920" lon="9.5042680">
        <ele>499.0600000</ele>
        <time>2010-06-17T09:12:25Z</time>
      </trkpt>
      <trkpt lat="49.0497620" lon="9.5041760">
        <ele>498.5800000</ele>
        <time>2010-06-17T09:12:26Z</time>
      </trkpt>
      <trkpt lat="49.0497340" lon="9.5040720">
        <ele>496.6600000</ele>
        <time>2010-06-17T09:12:27Z</time>
      </trkpt>
      <trkpt lat="49.0496150" lon="9.5036090">
        <ele>493.2900000</ele>
        <time>2010-06-17T09:12:31Z</time>
      </trkpt>
      <trkpt lat="49.0495300" lon="9.5032580">
        <ele>489.9300000</ele>
        <time>2010-06-17T09:12:34Z</time>
      </trkpt>
      <trkpt lat="49.0494620" lon="9.5030220">
        <ele>488.0100000</ele>
        <time>2010-06-17T09:12:36Z</time>
      </trkpt>
      <trkpt lat="49.0493610" lon="9.5027840">
        <ele>485.1200000</ele>
        <time>2010-06-17T09:12:38Z</time>
      </trkpt>
      <trkpt lat="49.0492010" lon="9.5024190">
        <ele>481.2800000</ele>
        <time>2010-06-17T09:12:41Z</time>
      </trkpt>
      <trkpt lat="49.0490860" lon="9.5021740">
        <ele>477.4300000</ele>
        <time>2010-06-17T09:12:43Z</time>
      </trkpt>
      <trkpt lat="49.0488780" lon="9.5018070">
        <ele>473.5900000</ele>
        <time>2010-06-17T09:12:46Z</time>
      </trkpt>
      <trkpt lat="49.0487460" lon="9.5015730">
        <ele>470.7000000</ele>
        <time>2010-06-17T09:12:48Z</time>
      </trkpt>
      <trkpt lat="49.0486420" lon="9.5013350">
        <ele>468.3000000</ele>
        <time>2010-06-17T09:12:50Z</time>
      </trkpt>
      <trkpt lat="49.0485550" lon="9.5012320">
        <ele>466.8600000</ele>
        <time>2010-06-17T09:12:51Z</time>
      </trkpt>
      <trkpt lat="49.0484440" lon="9.5011800">
        <ele>465.4200000</ele>
        <time>2010-06-17T09:12:52Z</time>
      </trkpt>
      <trkpt lat="49.0483230" lon="9.5011680">
        <ele>464.9300000</ele>
        <time>2010-06-17T09:12:53Z</time>
      </trkpt>
      <trkpt lat="49.0482070" lon="9.5011770">
        <ele>463.9700000</ele>
        <time>2010-06-17T09:12:54Z</time>
      </trkpt>
      <trkpt lat="49.0480920" lon="9.5012090">
        <ele>463.0100000</ele>
        <time>2010-06-17T09:12:55Z</time>
      </trkpt>
      <trkpt lat="49.0476430" lon="9.5013440">
        <ele>459.1700000</ele>
        <time>2010-06-17T09:12:59Z</time>
      </trkpt>
      <trkpt lat="49.0475380" lon="9.5013720">
        <ele>457.7200000</ele>
        <time>2010-06-17T09:13:00Z</time>
      </trkpt>
      <trkpt lat="49.0474400" lon="9.5013700">
        <ele>457.2400000</ele>
        <time>2010-06-17T09:13:01Z</time>
      </trkpt>
      <trkpt lat="49.0473510" lon="9.5013350">
        <ele>456.2800000</ele>
        <time>2010-06-17T09:13:02Z</time>
      </trkpt>
      <trkpt lat="49.0472730" lon="9.5012520">
        <ele>455.3200000</ele>
        <time>2010-06-17T09:13:03Z</time>
      </trkpt>
      <trkpt lat="49.0472060" lon="9.5011380">
        <ele>454.3600000</ele>
        <time>2010-06-17T09:13:04Z</time>
      </trkpt>
      <trkpt lat="49.0471460" lon="9.5010080">
        <ele>452.9200000</ele>
        <time>2010-06-17T09:13:05Z</time>
      </trkpt>
      <trkpt lat="49.0470970" lon="9.5008650">
        <ele>452.4400000</ele>
        <time>2010-06-17T09:13:06Z</time>
      </trkpt>
      <trkpt lat="49.0470590" lon="9.5007090">
        <ele>451.4800000</ele>
        <time>2010-06-17T09:13:07Z</time>
      </trkpt>
      <trkpt lat="49.0470320" lon="9.5005420">
        <ele>451.0000000</ele>
        <time>2010-06-17T09:13:08Z</time>
      </trkpt>
      <trkpt lat="49.0470170" lon="9.5003630">
        <ele>449.5500000</ele>
        <time>2010-06-17T09:13:09Z</time>
      </trkpt>
      <trkpt lat="49.0470080" lon="9.5001800">
        <ele>447.6300000</ele>
        <time>2010-06-17T09:13:10Z</time>
      </trkpt>
      <trkpt lat="49.0469810" lon="9.4994420">
        <ele>443.7900000</ele>
        <time>2010-06-17T09:13:14Z</time>
      </trkpt>
      <trkpt lat="49.0469390" lon="9.4987240">
        <ele>439.9400000</ele>
        <time>2010-06-17T09:13:18Z</time>
      </trkpt>
      <trkpt lat="49.0469030" lon="9.4981740">
        <ele>436.5800000</ele>
        <time>2010-06-17T09:13:21Z</time>
      </trkpt>
      <trkpt lat="49.0468700" lon="9.4975930">
        <ele>432.2500000</ele>
        <time>2010-06-17T09:13:24Z</time>
      </trkpt>
      <trkpt lat="49.0468330" lon="9.4969820">
        <ele>428.4000000</ele>
        <time>2010-06-17T09:13:27Z</time>
      </trkpt>
      <trkpt lat="49.0468250" lon="9.4963900">
        <ele>425.5200000</ele>
        <time>2010-06-17T09:13:30Z</time>
      </trkpt>
      <trkpt lat="49.0468420" lon="9.4958780">
        <ele>422.1600000</ele>
        <time>2010-06-17T09:13:33Z</time>
      </trkpt>
      <trkpt lat="49.0468660" lon="9.4957240">
        <ele>421.1900000</ele>
        <time>2010-06-17T09:13:34Z</time>
      </trkpt>
      <trkpt lat="49.0469020" lon="9.4955830">
        <ele>420.7100000</ele>
        <time>2010-06-17T09:13:35Z</time>
      </trkpt>
      <trkpt lat="49.0469480" lon="9.4954520">
        <ele>419.2700000</ele>
        <time>2010-06-17T09:13:36Z</time>
      </trkpt>
      <trkpt lat="49.0469980" lon="9.4953290">
        <ele>418.3100000</ele>
        <time>2010-06-17T09:13:37Z</time>
      </trkpt>
      <trkpt lat="49.0470460" lon="9.4952180">
        <ele>417.8300000</ele>
        <time>2010-06-17T09:13:38Z</time>
      </trkpt>
      <trkpt lat="49.0470820" lon="9.4951120">
        <ele>416.8700000</ele>
        <time>2010-06-17T09:13:39Z</time>
      </trkpt>
      <trkpt lat="49.0470980" lon="9.4950060">
        <ele>416.3900000</ele>
        <time>2010-06-17T09:13:40Z</time>
      </trkpt>
      <trkpt lat="49.0470930" lon="9.4949040">
        <ele>415.9100000</ele>
        <time>2010-06-17T09:13:41Z</time>
      </trkpt>
      <trkpt lat="49.0470660" lon="9.4948180">
        <ele>415.9100000</ele>
        <time>2010-06-17T09:13:42Z</time>
      </trkpt>
      <trkpt lat="49.0470260" lon="9.4947480">
        <ele>414.9500000</ele>
        <time>2010-06-17T09:13:43Z</time>
      </trkpt>
      <trkpt lat="49.0469760" lon="9.4946970">
        <ele>414.4700000</ele>
        <time>2010-06-17T09:13:44Z</time>
      </trkpt>
      <trkpt lat="49.0469170" lon="9.4946850">
        <ele>413.9800000</ele>
        <time>2010-06-17T09:13:45Z</time>
      </trkpt>
      <trkpt lat="49.0468550" lon="9.4947260">
        <ele>413.5000000</ele>
        <time>2010-06-17T09:13:46Z</time>
      </trkpt>
      <trkpt lat="49.0468010" lon="9.4947960">
        <ele>413.0200000</ele>
        <time>2010-06-17T09:13:47Z</time>
      </trkpt>
      <trkpt lat="49.0467530" lon="9.4948910">
        <ele>412.0600000</ele>
        <time>2010-06-17T09:13:48Z</time>
      </trkpt>
      <trkpt lat="49.0467080" lon="9.4950000">
        <ele>411.5800000</ele>
        <time>2010-06-17T09:13:49Z</time>
      </trkpt>
      <trkpt lat="49.0466050" lon="9.4952230">
        <ele>410.1400000</ele>
        <time>2010-06-17T09:13:51Z</time>
      </trkpt>
      <trkpt lat="49.0465380" lon="9.4952950">
        <ele>409.6600000</ele>
        <time>2010-06-17T09:13:52Z</time>
      </trkpt>
      <trkpt lat="49.0464580" lon="9.4953240">
        <ele>408.7000000</ele>
        <time>2010-06-17T09:13:53Z</time>
      </trkpt>
      <trkpt lat="49.0463710" lon="9.4953040">
        <ele>408.2200000</ele>
        <time>2010-06-17T09:13:54Z</time>
      </trkpt>
      <trkpt lat="49.0462900" lon="9.4952410">
        <ele>407.7400000</ele>
        <time>2010-06-17T09:13:55Z</time>
      </trkpt>
      <trkpt lat="49.0462210" lon="9.4951450">
        <ele>406.7700000</ele>
        <time>2010-06-17T09:13:56Z</time>
      </trkpt>
      <trkpt lat="49.0461580" lon="9.4950320">
        <ele>406.2900000</ele>
        <time>2010-06-17T09:13:57Z</time>
      </trkpt>
      <trkpt lat="49.0460940" lon="9.4949160">
        <ele>405.3300000</ele>
        <time>2010-06-17T09:13:58Z</time>
      </trkpt>
      <trkpt lat="49.0460260" lon="9.4948050">
        <ele>404.3700000</ele>
        <time>2010-06-17T09:13:59Z</time>
      </trkpt>
      <trkpt lat="49.0459450" lon="9.4947080">
        <ele>403.8900000</ele>
        <time>2010-06-17T09:14:00Z</time>
      </trkpt>
      <trkpt lat="49.0458560" lon="9.4946280">
        <ele>402.4500000</ele>
        <time>2010-06-17T09:14:01Z</time>
      </trkpt>
      <trkpt lat="49.0457590" lon="9.4945630">
        <ele>401.4900000</ele>
        <time>2010-06-17T09:14:02Z</time>
      </trkpt>
      <trkpt lat="49.0456570" lon="9.4945110">
        <ele>400.5300000</ele>
        <time>2010-06-17T09:14:03Z</time>
      </trkpt>
      <trkpt lat="49.0455520" lon="9.4944710">
        <ele>400.0500000</ele>
        <time>2010-06-17T09:14:04Z</time>
      </trkpt>
      <trkpt lat="49.0454400" lon="9.4944500">
        <ele>398.6000000</ele>
        <time>2010-06-17T09:14:05Z</time>
      </trkpt>
      <trkpt lat="49.0453190" lon="9.4944500">
        <ele>398.1200000</ele>
        <time>2010-06-17T09:14:06Z</time>
      </trkpt>
      <trkpt lat="49.0452010" lon="9.4944630">
        <ele>397.1600000</ele>
        <time>2010-06-17T09:14:07Z</time>
      </trkpt>
      <trkpt lat="49.0450840" lon="9.4944920">
        <ele>396.2000000</ele>
        <time>2010-06-17T09:14:08Z</time>
      </trkpt>
      <trkpt lat="49.0449730" lon="9.4945280">
        <ele>395.7200000</ele>
        <time>2010-06-17T09:14:09Z</time>
      </trkpt>
      <trkpt lat="49.0448680" lon="9.4945760">
        <ele>394.2800000</ele>
        <time>2010-06-17T09:14:10Z</time>
      </trkpt>
      <trkpt lat="49.0447720" lon="9.4946410">
        <ele>393.8000000</ele>
        <time>2010-06-17T09:14:11Z</time>
      </trkpt>
      <trkpt lat="49.0443640" lon="9.4949990">
        <ele>390.4300000</ele>
        <time>2010-06-17T09:14:16Z</time>
      </trkpt>
      <trkpt lat="49.0442460" lon="9.4951340">
        <ele>389.4700000</ele>
        <time>2010-06-17T09:14:18Z</time>
      </trkpt>
      <trkpt lat="49.0439560" lon="9.4954360">
        <ele>386.1100000</ele>
        <time>2010-06-17T09:14:23Z</time>
      </trkpt>
      <trkpt lat="49.0438970" lon="9.4954990">
        <ele>385.6300000</ele>
        <time>2010-06-17T09:14:24Z</time>
      </trkpt>
      <trkpt lat="49.0438430" lon="9.4955730">
        <ele>385.6300000</ele>
        <time>2010-06-17T09:14:25Z</time>
      </trkpt>
      <trkpt lat="49.0437980" lon="9.4956500">
        <ele>385.1500000</ele>
        <time>2010-06-17T09:14:26Z</time>
      </trkpt>
      <trkpt lat="49.0436690" lon="9.4959080">
        <ele>384.6600000</ele>
        <time>2010-06-17T09:14:30Z</time>
      </trkpt>
      <trkpt lat="49.0435580" lon="9.4961080">
        <ele>382.7400000</ele>
        <time>2010-06-17T09:14:33Z</time>
      </trkpt>
      <trkpt lat="49.0435300" lon="9.4962020">
        <ele>381.7800000</ele>
        <time>2010-06-17T09:14:34Z</time>
      </trkpt>
      <trkpt lat="49.0435190" lon="9.4963130">
        <ele>381.3000000</ele>
        <time>2010-06-17T09:14:35Z</time>
      </trkpt>
      <trkpt lat="49.0435210" lon="9.4964380">
        <ele>380.8200000</ele>
        <time>2010-06-17T09:14:36Z</time>
      </trkpt>
      <trkpt lat="49.0435300" lon="9.4965640">
        <ele>379.3800000</ele>
        <time>2010-06-17T09:14:37Z</time>
      </trkpt>
      <trkpt lat="49.0435440" lon="9.4966930">
        <ele>378.4200000</ele>
        <time>2010-06-17T09:14:38Z</time>
      </trkpt>
      <trkpt lat="49.0435820" lon="9.4970690">
        <ele>376.4900000</ele>
        <time>2010-06-17T09:14:41Z</time>
      </trkpt>
      <trkpt lat="49.0435970" lon="9.4975630">
        <ele>373.1300000</ele>
        <time>2010-06-17T09:14:45Z</time>
      </trkpt>
      <trkpt lat="49.0435770" lon="9.4978040">
        <ele>372.1700000</ele>
        <time>2010-06-17T09:14:47Z</time>
      </trkpt>
      <trkpt lat="49.0435530" lon="9.4979180">
        <ele>371.2100000</ele>
        <time>2010-06-17T09:14:48Z</time>
      </trkpt>
      <trkpt lat="49.0435160" lon="9.4980220">
        <ele>371.2100000</ele>
        <time>2010-06-17T09:14:49Z</time>
      </trkpt>
      <trkpt lat="49.0434580" lon="9.4981050">
        <ele>369.7600000</ele>
        <time>2010-06-17T09:14:50Z</time>
      </trkpt>
      <trkpt lat="49.0433800" lon="9.4981530">
        <ele>368.8000000</ele>
        <time>2010-06-17T09:14:51Z</time>
      </trkpt>
      <trkpt lat="49.0432910" lon="9.4981740">
        <ele>367.3600000</ele>
        <time>2010-06-17T09:14:52Z</time>
      </trkpt>
      <trkpt lat="49.0431990" lon="9.4981750">
        <ele>366.4000000</ele>
        <time>2010-06-17T09:14:53Z</time>
      </trkpt>
      <trkpt lat="49.0431170" lon="9.4981580">
        <ele>366.4000000</ele>
        <time>2010-06-17T09:14:54Z</time>
      </trkpt>
      <trkpt lat="49.0430560" lon="9.4981210">
        <ele>365.9200000</ele>
        <time>2010-06-17T09:14:55Z</time>
      </trkpt>
      <trkpt lat="49.0430170" lon="9.4980610">
        <ele>365.4400000</ele>
        <time>2010-06-17T09:14:56Z</time>
      </trkpt>
      <trkpt lat="49.0430030" lon="9.4979740">
        <ele>364.9600000</ele>
        <time>2010-06-17T09:14:57Z</time>
      </trkpt>
      <trkpt lat="49.0429930" lon="9.4978810">
        <ele>364.4800000</ele>
        <time>2010-06-17T09:14:58Z</time>
      </trkpt>
      <trkpt lat="49.0429770" lon="9.4977860">
        <ele>364.0000000</ele>
        <time>2010-06-17T09:14:59Z</time>
      </trkpt>
      <trkpt lat="49.0429180" lon="9.4974620">
        <ele>362.0700000</ele>
        <time>2010-06-17T09:15:02Z</time>
      </trkpt>
      <trkpt lat="49.0428740" lon="9.4971140">
        <ele>360.1500000</ele>
        <time>2010-06-17T09:15:05Z</time>
      </trkpt>
      <trkpt lat="49.0428500" lon="9.4970100">
        <ele>359.1900000</ele>
        <time>2010-06-17T09:15:06Z</time>
      </trkpt>
      <trkpt lat="49.0428150" lon="9.4969170">
        <ele>359.1900000</ele>
        <time>2010-06-17T09:15:07Z</time>
      </trkpt>
      <trkpt lat="49.0426400" lon="9.4965430">
        <ele>356.3100000</ele>
        <time>2010-06-17T09:15:11Z</time>
      </trkpt>
      <trkpt lat="49.0425860" lon="9.4964760">
        <ele>355.8300000</ele>
        <time>2010-06-17T09:15:12Z</time>
      </trkpt>
      <trkpt lat="49.0425290" lon="9.4964180">
        <ele>356.3100000</ele>
        <time>2010-06-17T09:15:13Z</time>
      </trkpt>
      <trkpt lat="49.0424710" lon="9.4963750">
        <ele>355.3400000</ele>
        <time>2010-06-17T09:15:14Z</time>
      </trkpt>
      <trkpt lat="49.0424090" lon="9.4963390">
        <ele>354.8600000</ele>
        <time>2010-06-17T09:15:15Z</time>
      </trkpt>
      <trkpt lat="49.0423370" lon="9.4963120">
        <ele>354.3800000</ele>
        <time>2010-06-17T09:15:16Z</time>
      </trkpt>
      <trkpt lat="49.0422570" lon="9.4962910">
        <ele>353.9000000</ele>
        <time>2010-06-17T09:15:17Z</time>
      </trkpt>
      <trkpt lat="49.0415600" lon="9.4961460">
        <ele>351.0200000</ele>
        <time>2010-06-17T09:15:26Z</time>
      </trkpt>
      <trkpt lat="49.0409050" lon="9.4961710">
        <ele>349.1000000</ele>
        <time>2010-06-17T09:15:35Z</time>
      </trkpt>
      <trkpt lat="49.0400780" lon="9.4962010">
        <ele>346.6900000</ele>
        <time>2010-06-17T09:15:46Z</time>
      </trkpt>
      <trkpt lat="49.0392690" lon="9.4964650">
        <ele>343.3300000</ele>
        <time>2010-06-17T09:15:58Z</time>
      </trkpt>
      <trkpt lat="49.0392070" lon="9.4964910">
        <ele>343.8100000</ele>
        <time>2010-06-17T09:15:59Z</time>
      </trkpt>
      <trkpt lat="49.0384390" lon="9.4965380">
        <ele>343.8100000</ele>
        <time>2010-06-17T09:16:10Z</time>
      </trkpt>
      <trkpt lat="49.0382120" lon="9.4965890">
        <ele>343.3300000</ele>
        <time>2010-06-17T09:16:13Z</time>
      </trkpt>
      <trkpt lat="49.0378100" lon="9.4967760">
        <ele>342.8500000</ele>
        <time>2010-06-17T09:16:19Z</time>
      </trkpt>
      <trkpt lat="49.0375680" lon="9.4969860">
        <ele>340.4400000</ele>
        <time>2010-06-17T09:16:23Z</time>
      </trkpt>
      <trkpt lat="49.0373190" lon="9.4972170">
        <ele>338.5200000</ele>
        <time>2010-06-17T09:16:27Z</time>
      </trkpt>
      <trkpt lat="49.0370240" lon="9.4973720">
        <ele>337.5600000</ele>
        <time>2010-06-17T09:16:31Z</time>
      </trkpt>
      <trkpt lat="49.0369450" lon="9.4973730">
        <ele>337.5600000</ele>
        <time>2010-06-17T09:16:32Z</time>
      </trkpt>
      <trkpt lat="49.0368690" lon="9.4973450">
        <ele>337.0800000</ele>
        <time>2010-06-17T09:16:33Z</time>
      </trkpt>
      <trkpt lat="49.0367130" lon="9.4972540">
        <ele>336.6000000</ele>
        <time>2010-06-17T09:16:35Z</time>
      </trkpt>
      <trkpt lat="49.0361360" lon="9.4968510">
        <ele>335.1600000</ele>
        <time>2010-06-17T09:16:42Z</time>
      </trkpt>
      <trkpt lat="49.0360660" lon="9.4968360">
        <ele>334.6800000</ele>
        <time>2010-06-17T09:16:43Z</time>
      </trkpt>
      <trkpt lat="49.0359910" lon="9.4968490">
        <ele>335.1600000</ele>
        <time>2010-06-17T09:16:44Z</time>
      </trkpt>
      <trkpt lat="49.0354820" lon="9.4970690">
        <ele>334.2000000</ele>
        <time>2010-06-17T09:16:50Z</time>
      </trkpt>
      <trkpt lat="49.0354060" lon="9.4971260">
        <ele>333.7100000</ele>
        <time>2010-06-17T09:16:51Z</time>
      </trkpt>
      <trkpt lat="49.0353410" lon="9.4971980">
        <ele>333.7100000</ele>
        <time>2010-06-17T09:16:52Z</time>
      </trkpt>
      <trkpt lat="49.0351100" lon="9.4974990">
        <ele>333.2300000</ele>
        <time>2010-06-17T09:16:56Z</time>
      </trkpt>
      <trkpt lat="49.0350480" lon="9.4975460">
        <ele>332.7500000</ele>
        <time>2010-06-17T09:16:57Z</time>
      </trkpt>
      <trkpt lat="49.0349840" lon="9.4975800">
        <ele>333.2300000</ele>
        <time>2010-06-17T09:16:58Z</time>
      </trkpt>
      <trkpt lat="49.0349160" lon="9.4976050">
        <ele>332.7500000</ele>
        <time>2010-06-17T09:16:59Z</time>
      </trkpt>
      <trkpt lat="49.0348330" lon="9.4976300">
        <ele>332.7500000</ele>
        <time>2010-06-17T09:17:00Z</time>
      </trkpt>
      <trkpt lat="49.0347500" lon="9.4976460">
        <ele>332.2700000</ele>
        <time>2010-06-17T09:17:01Z</time>
      </trkpt>
      <trkpt lat="49.0338330" lon="9.4976840">
        <ele>329.8700000</ele>
        <time>2010-06-17T09:17:12Z</time>
      </trkpt>
      <trkpt lat="49.0335090" lon="9.4976840">
        <ele>329.3900000</ele>
        <time>2010-06-17T09:17:16Z</time>
      </trkpt>
      <trkpt lat="49.0329570" lon="9.4978240">
        <ele>327.9500000</ele>
        <time>2010-06-17T09:17:23Z</time>
      </trkpt>
      <trkpt lat="49.0321440" lon="9.4979740">
        <ele>326.5000000</ele>
        <time>2010-06-17T09:17:34Z</time>
      </trkpt>
      <trkpt lat="49.0318360" lon="9.4979880">
        <ele>325.0600000</ele>
        <time>2010-06-17T09:17:38Z</time>
      </trkpt>
      <trkpt lat="49.0317570" lon="9.4979710">
        <ele>325.0600000</ele>
        <time>2010-06-17T09:17:39Z</time>
      </trkpt>
      <trkpt lat="49.0316810" lon="9.4979450">
        <ele>325.0600000</ele>
        <time>2010-06-17T09:17:40Z</time>
      </trkpt>
      <trkpt lat="49.0316070" lon="9.4979060">
        <ele>324.5800000</ele>
        <time>2010-06-17T09:17:41Z</time>
      </trkpt>
      <trkpt lat="49.0315320" lon="9.4978610">
        <ele>324.5800000</ele>
        <time>2010-06-17T09:17:42Z</time>
      </trkpt>
      <trkpt lat="49.0314610" lon="9.4978240">
        <ele>324.1000000</ele>
        <time>2010-06-17T09:17:43Z</time>
      </trkpt>
      <trkpt lat="49.0313220" lon="9.4977840">
        <ele>323.6200000</ele>
        <time>2010-06-17T09:17:45Z</time>
      </trkpt>
      <trkpt lat="49.0312490" lon="9.4977820">
        <ele>324.1000000</ele>
        <time>2010-06-17T09:17:46Z</time>
      </trkpt>
      <trkpt lat="49.0311190" lon="9.4977830">
        <ele>323.6200000</ele>
        <time>2010-06-17T09:17:48Z</time>
      </trkpt>
      <trkpt lat="49.0308480" lon="9.4977250">
        <ele>323.1400000</ele>
        <time>2010-06-17T09:17:52Z</time>
      </trkpt>
      <trkpt lat="49.0306270" lon="9.4976090">
        <ele>323.1400000</ele>
        <time>2010-06-17T09:17:55Z</time>
      </trkpt>
      <trkpt lat="49.0298480" lon="9.4973080">
        <ele>320.7400000</ele>
        <time>2010-06-17T09:18:06Z</time>
      </trkpt>
      <trkpt lat="49.0289000" lon="9.4970430">
        <ele>318.8100000</ele>
        <time>2010-06-17T09:18:18Z</time>
      </trkpt>
      <trkpt lat="49.0281630" lon="9.4970220">
        <ele>317.8500000</ele>
        <time>2010-06-17T09:18:28Z</time>
      </trkpt>
      <trkpt lat="49.0277190" lon="9.4969360">
        <ele>316.4100000</ele>
        <time>2010-06-17T09:18:34Z</time>
      </trkpt>
      <trkpt lat="49.0276560" lon="9.4969520">
        <ele>315.9300000</ele>
        <time>2010-06-17T09:18:35Z</time>
      </trkpt>
      <trkpt lat="49.0275950" lon="9.4969680">
        <ele>315.4500000</ele>
        <time>2010-06-17T09:18:36Z</time>
      </trkpt>
      <trkpt lat="49.0275330" lon="9.4969820">
        <ele>315.4500000</ele>
        <time>2010-06-17T09:18:37Z</time>
      </trkpt>
      <trkpt lat="49.0274700" lon="9.4970040">
        <ele>314.9700000</ele>
        <time>2010-06-17T09:18:38Z</time>
      </trkpt>
      <trkpt lat="49.0269080" lon="9.4973310">
        <ele>314.4900000</ele>
        <time>2010-06-17T09:18:46Z</time>
      </trkpt>
      <trkpt lat="49.0264640" lon="9.4973910">
        <ele>314.0100000</ele>
        <time>2010-06-17T09:18:52Z</time>
      </trkpt>
      <trkpt lat="49.0261780" lon="9.4975010">
        <ele>314.0100000</ele>
        <time>2010-06-17T09:18:56Z</time>
      </trkpt>
      <trkpt lat="49.0261240" lon="9.4975670">
        <ele>313.5300000</ele>
        <time>2010-06-17T09:18:57Z</time>
      </trkpt>
      <trkpt lat="49.0260670" lon="9.4976490">
        <ele>313.0500000</ele>
        <time>2010-06-17T09:18:58Z</time>
      </trkpt>
      <trkpt lat="49.0259390" lon="9.4977840">
        <ele>313.0500000</ele>
        <time>2010-06-17T09:19:00Z</time>
      </trkpt>
      <trkpt lat="49.0258750" lon="9.4978270">
        <ele>312.5700000</ele>
        <time>2010-06-17T09:19:01Z</time>
      </trkpt>
      <trkpt lat="49.0258110" lon="9.4978570">
        <ele>312.0900000</ele>
        <time>2010-06-17T09:19:02Z</time>
      </trkpt>
      <trkpt lat="49.0257430" lon="9.4978680">
        <ele>312.0900000</ele>
        <time>2010-06-17T09:19:03Z</time>
      </trkpt>
      <trkpt lat="49.0256710" lon="9.4978650">
        <ele>311.6000000</ele>
        <time>2010-06-17T09:19:04Z</time>
      </trkpt>
      <trkpt lat="49.0252810" lon="9.4978080">
        <ele>310.6400000</ele>
        <time>2010-06-17T09:19:09Z</time>
      </trkpt>
      <trkpt lat="49.0252110" lon="9.4978180">
        <ele>310.6400000</ele>
        <time>2010-06-17T09:19:10Z</time>
      </trkpt>
      <trkpt lat="49.0251400" lon="9.4978410">
        <ele>310.6400000</ele>
        <time>2010-06-17T09:19:11Z</time>
      </trkpt>
      <trkpt lat="49.0248600" lon="9.4979790">
        <ele>310.1600000</ele>
        <time>2010-06-17T09:19:15Z</time>
      </trkpt>
      <trkpt lat="49.0240920" lon="9.4984410">
        <ele>309.2000000</ele>
        <time>2010-06-17T09:19:26Z</time>
      </trkpt>
      <trkpt lat="49.0233300" lon="9.4986690">
        <ele>308.7200000</ele>
        <time>2010-06-17T09:19:38Z</time>
      </trkpt>
      <trkpt lat="49.0232810" lon="9.4986750">
        <ele>308.7200000</ele>
        <time>2010-06-17T09:19:39Z</time>
      </trkpt>
      <trkpt lat="49.0232190" lon="9.4986980">
        <ele>308.7200000</ele>
        <time>2010-06-17T09:19:40Z</time>
      </trkpt>
      <trkpt lat="49.0225530" lon="9.4989630">
        <ele>308.2400000</ele>
        <time>2010-06-17T09:19:51Z</time>
      </trkpt>
      <trkpt lat="49.0225010" lon="9.4990030">
        <ele>308.2400000</ele>
        <time>2010-06-17T09:19:52Z</time>
      </trkpt>
      <trkpt lat="49.0222840" lon="9.4992060">
        <ele>308.2400000</ele>
        <time>2010-06-17T09:19:56Z</time>
      </trkpt>
      <trkpt lat="49.0222440" lon="9.4992610">
        <ele>308.2400000</ele>
        <time>2010-06-17T09:19:57Z</time>
      </trkpt>
      <trkpt lat="49.0222060" lon="9.4993110">
        <ele>308.7200000</ele>
        <time>2010-06-17T09:19:58Z</time>
      </trkpt>
      <trkpt lat="49.0220670" lon="9.4994450">
        <ele>308.7200000</ele>
        <time>2010-06-17T09:20:01Z</time>
      </trkpt>
      <trkpt lat="49.0220150" lon="9.4994670">
        <ele>308.7200000</ele>
        <time>2010-06-17T09:20:02Z</time>
      </trkpt>
      <trkpt lat="49.0219740" lon="9.4994730">
        <ele>308.7200000</ele>
        <time>2010-06-17T09:20:03Z</time>
      </trkpt>
      <trkpt lat="49.0219210" lon="9.4994900">
        <ele>308.7200000</ele>
        <time>2010-06-17T09:20:04Z</time>
      </trkpt>
      <trkpt lat="49.0218680" lon="9.4995080">
        <ele>308.7200000</ele>
        <time>2010-06-17T09:20:05Z</time>
      </trkpt>
      <trkpt lat="49.0218110" lon="9.4995210">
        <ele>308.2400000</ele>
        <time>2010-06-17T09:20:06Z</time>
      </trkpt>
      <trkpt lat="49.0215360" lon="9.4996180">
        <ele>307.7600000</ele>
        <time>2010-06-17T09:20:10Z</time>
      </trkpt>
      <trkpt lat="49.0211340" lon="9.4997460">
        <ele>305.8400000</ele>
        <time>2010-06-17T09:20:15Z</time>
      </trkpt>
      <trkpt lat="49.0210570" lon="9.4997470">
        <ele>305.3600000</ele>
        <time>2010-06-17T09:20:16Z</time>
      </trkpt>
      <trkpt lat="49.0209050" lon="9.4997100">
        <ele>304.3900000</ele>
        <time>2010-06-17T09:20:18Z</time>
      </trkpt>
      <trkpt lat="49.0208370" lon="9.4996870">
        <ele>304.3900000</ele>
        <time>2010-06-17T09:20:19Z</time>
      </trkpt>
      <trkpt lat="49.0207110" lon="9.4996490">
        <ele>302.9500000</ele>
        <time>2010-06-17T09:20:21Z</time>
      </trkpt>
      <trkpt lat="49.0206470" lon="9.4996460">
        <ele>302.4700000</ele>
        <time>2010-06-17T09:20:22Z</time>
      </trkpt>
      <trkpt lat="49.0205740" lon="9.4996670">
        <ele>301.9900000</ele>
        <time>2010-06-17T09:20:23Z</time>
      </trkpt>
      <trkpt lat="49.0204240" lon="9.4997410">
        <ele>301.0300000</ele>
        <time>2010-06-17T09:20:25Z</time>
      </trkpt>
      <trkpt lat="49.0198100" lon="9.5003030">
        <ele>300.0700000</ele>
        <time>2010-06-17T09:20:34Z</time>
      </trkpt>
      <trkpt lat="49.0196720" lon="9.5005120">
        <ele>299.1100000</ele>
        <time>2010-06-17T09:20:36Z</time>
      </trkpt>
      <trkpt lat="49.0195500" lon="9.5007140">
        <ele>299.1100000</ele>
        <time>2010-06-17T09:20:38Z</time>
      </trkpt>
      <trkpt lat="49.0195020" lon="9.5008040">
        <ele>298.6300000</ele>
        <time>2010-06-17T09:20:39Z</time>
      </trkpt>
      <trkpt lat="49.0193940" lon="9.5009620">
        <ele>298.1500000</ele>
        <time>2010-06-17T09:20:41Z</time>
      </trkpt>
      <trkpt lat="49.0193350" lon="9.5010260">
        <ele>298.1500000</ele>
        <time>2010-06-17T09:20:42Z</time>
      </trkpt>
      <trkpt lat="49.0189490" lon="9.5013380">
        <ele>297.6700000</ele>
        <time>2010-06-17T09:20:48Z</time>
      </trkpt>
      <trkpt lat="49.0188860" lon="9.5013690">
        <ele>297.6700000</ele>
        <time>2010-06-17T09:20:49Z</time>
      </trkpt>
      <trkpt lat="49.0182520" lon="9.5016030">
        <ele>295.2600000</ele>
        <time>2010-06-17T09:20:58Z</time>
      </trkpt>
      <trkpt lat="49.0178170" lon="9.5017390">
        <ele>295.7400000</ele>
        <time>2010-06-17T09:21:04Z</time>
      </trkpt>
      <trkpt lat="49.0177410" lon="9.5017430">
        <ele>295.7400000</ele>
        <time>2010-06-17T09:21:05Z</time>
      </trkpt>
      <trkpt lat="49.0174420" lon="9.5017340">
        <ele>295.2600000</ele>
        <time>2010-06-17T09:21:09Z</time>
      </trkpt>
      <trkpt lat="49.0173710" lon="9.5017500">
        <ele>294.7800000</ele>
        <time>2010-06-17T09:21:10Z</time>
      </trkpt>
      <trkpt lat="49.0173040" lon="9.5017660">
        <ele>294.7800000</ele>
        <time>2010-06-17T09:21:11Z</time>
      </trkpt>
      <trkpt lat="49.0171230" lon="9.5018190">
        <ele>293.8200000</ele>
        <time>2010-06-17T09:21:14Z</time>
      </trkpt>
      <trkpt lat="49.0168770" lon="9.5019760">
        <ele>292.8600000</ele>
        <time>2010-06-17T09:21:22Z</time>
      </trkpt>
      <trkpt lat="49.0168660" lon="9.5019990">
        <ele>287.5700000</ele>
        <time>2010-06-17T09:21:30Z</time>
      </trkpt>
      <trkpt lat="49.0168660" lon="9.5019990">
        <ele>288.0500000</ele>
        <time>2010-06-17T09:21:31Z</time>
      </trkpt>
      <trkpt lat="49.0168660" lon="9.5019990">
        <ele>297.6700000</ele>
        <time>2010-06-17T09:21:32Z</time>
      </trkpt>
      <trkpt lat="49.0168660" lon="9.5019990">
        <ele>293.8200000</ele>
        <time>2010-06-17T09:21:33Z</time>
      </trkpt>
      <trkpt lat="49.0168440" lon="9.5020200">
        <ele>292.8600000</ele>
        <time>2010-06-17T09:22:50Z</time>
      </trkpt>
      <trkpt lat="49.0168410" lon="9.5020160">
        <ele>292.3800000</ele>
        <time>2010-06-17T09:27:59Z</time>
      </trkpt>
      <trkpt lat="49.0168410" lon="9.5020160">
        <ele>303.4300000</ele>
        <time>2010-06-17T09:29:00Z</time>
      </trkpt>
      <trkpt lat="49.0168410" lon="9.5020160">
        <ele>293.8200000</ele>
        <time>2010-06-17T09:29:01Z</time>
      </trkpt>
      <trkpt lat="49.0168850" lon="9.5016860">
        <ele>294.3000000</ele>
        <time>2010-06-17T09:29:08Z</time>
      </trkpt>
      <trkpt lat="49.0167630" lon="9.5020390">
        <ele>293.8200000</ele>
        <time>2010-06-17T09:29:42Z</time>
      </trkpt>
      <trkpt lat="49.0167370" lon="9.5020370">
        <ele>293.8200000</ele>
        <time>2010-06-17T09:29:54Z</time>
      </trkpt>
      <trkpt lat="49.0163540" lon="9.5020060">
        <ele>292.8600000</ele>
        <time>2010-06-17T09:30:06Z</time>
      </trkpt>
      <trkpt lat="49.0162620" lon="9.5019860">
        <ele>292.8600000</ele>
        <time>2010-06-17T09:30:08Z</time>
      </trkpt>
      <trkpt lat="49.0162100" lon="9.5019960">
        <ele>292.3800000</ele>
        <time>2010-06-17T09:30:09Z</time>
      </trkpt>
      <trkpt lat="49.0161050" lon="9.5020250">
        <ele>292.3800000</ele>
        <time>2010-06-17T09:30:11Z</time>
      </trkpt>
      <trkpt lat="49.0155470" lon="9.5022370">
        <ele>291.9000000</ele>
        <time>2010-06-17T09:30:21Z</time>
      </trkpt>
      <trkpt lat="49.0152910" lon="9.5024230">
        <ele>291.4200000</ele>
        <time>2010-06-17T09:30:26Z</time>
      </trkpt>
      <trkpt lat="49.0152480" lon="9.5024680">
        <ele>291.4200000</ele>
        <time>2010-06-17T09:30:27Z</time>
      </trkpt>
      <trkpt lat="49.0150130" lon="9.5026960">
        <ele>291.9000000</ele>
        <time>2010-06-17T09:30:32Z</time>
      </trkpt>
      <trkpt lat="49.0145460" lon="9.5028830">
        <ele>291.4200000</ele>
        <time>2010-06-17T09:30:40Z</time>
      </trkpt>
      <trkpt lat="49.0143360" lon="9.5029020">
        <ele>291.4200000</ele>
        <time>2010-06-17T09:30:43Z</time>
      </trkpt>
      <trkpt lat="49.0142090" lon="9.5028750">
        <ele>291.4200000</ele>
        <time>2010-06-17T09:30:45Z</time>
      </trkpt>
      <trkpt lat="49.0141410" lon="9.5028670">
        <ele>291.4200000</ele>
        <time>2010-06-17T09:30:46Z</time>
      </trkpt>
      <trkpt lat="49.0140160" lon="9.5028620">
        <ele>291.4200000</ele>
        <time>2010-06-17T09:30:48Z</time>
      </trkpt>
      <trkpt lat="49.0139570" lon="9.5028610">
        <ele>291.4200000</ele>
        <time>2010-06-17T09:30:49Z</time>
      </trkpt>
      <trkpt lat="49.0137010" lon="9.5028920">
        <ele>291.9000000</ele>
        <time>2010-06-17T09:30:54Z</time>
      </trkpt>
      <trkpt lat="49.0136540" lon="9.5028850">
        <ele>291.4200000</ele>
        <time>2010-06-17T09:30:55Z</time>
      </trkpt>
      <trkpt lat="49.0130620" lon="9.5027130">
        <ele>291.4200000</ele>
        <time>2010-06-17T09:31:07Z</time>
      </trkpt>
      <trkpt lat="49.0121910" lon="9.5023980">
        <ele>288.5300000</ele>
        <time>2010-06-17T09:31:21Z</time>
      </trkpt>
      <trkpt lat="49.0114950" lon="9.5019790">
        <ele>289.9700000</ele>
        <time>2010-06-17T09:31:35Z</time>
      </trkpt>
      <trkpt lat="49.0111810" lon="9.5021000">
        <ele>292.3800000</ele>
        <time>2010-06-17T09:31:45Z</time>
      </trkpt>
      <trkpt lat="49.0110550" lon="9.5022250">
        <ele>290.9400000</ele>
        <time>2010-06-17T09:31:54Z</time>
      </trkpt>
      <trkpt lat="49.0110270" lon="9.5022050">
        <ele>290.9400000</ele>
        <time>2010-06-17T09:31:55Z</time>
      </trkpt>
      <trkpt lat="49.0108250" lon="9.5019740">
        <ele>290.9400000</ele>
        <time>2010-06-17T09:32:02Z</time>
      </trkpt>
      <trkpt lat="49.0107090" lon="9.5018880">
        <ele>290.4600000</ele>
        <time>2010-06-17T09:32:05Z</time>
      </trkpt>
      <trkpt lat="49.0104200" lon="9.5017810">
        <ele>289.9700000</ele>
        <time>2010-06-17T09:32:11Z</time>
      </trkpt>
      <trkpt lat="49.0103670" lon="9.5017820">
        <ele>289.9700000</ele>
        <time>2010-06-17T09:32:12Z</time>
      </trkpt>
      <trkpt lat="49.0103130" lon="9.5017910">
        <ele>289.9700000</ele>
        <time>2010-06-17T09:32:13Z</time>
      </trkpt>
      <trkpt lat="49.0100490" lon="9.5018810">
        <ele>289.9700000</ele>
        <time>2010-06-17T09:32:18Z</time>
      </trkpt>
      <trkpt lat="49.0093650" lon="9.5024930">
        <ele>288.5300000</ele>
        <time>2010-06-17T09:32:32Z</time>
      </trkpt>
      <trkpt lat="49.0085260" lon="9.5032630">
        <ele>286.6100000</ele>
        <time>2010-06-17T09:32:49Z</time>
      </trkpt>
      <trkpt lat="49.0075480" lon="9.5036200">
        <ele>284.2100000</ele>
        <time>2010-06-17T09:33:05Z</time>
      </trkpt>
      <trkpt lat="49.0069120" lon="9.5037540">
        <ele>283.7300000</ele>
        <time>2010-06-17T09:33:16Z</time>
      </trkpt>
      <trkpt lat="49.0068560" lon="9.5037650">
        <ele>283.7300000</ele>
        <time>2010-06-17T09:33:17Z</time>
      </trkpt>
      <trkpt lat="49.0060260" lon="9.5038590">
        <ele>282.2800000</ele>
        <time>2010-06-17T09:33:32Z</time>
      </trkpt>
      <trkpt lat="49.0059720" lon="9.5038630">
        <ele>281.8000000</ele>
        <time>2010-06-17T09:33:33Z</time>
      </trkpt>
      <trkpt lat="49.0051160" lon="9.5037150">
        <ele>279.8800000</ele>
        <time>2010-06-17T09:33:49Z</time>
      </trkpt>
      <trkpt lat="49.0050770" lon="9.5036770">
        <ele>280.3600000</ele>
        <time>2010-06-17T09:33:51Z</time>
      </trkpt>
      <trkpt lat="49.0050590" lon="9.5036590">
        <ele>279.8800000</ele>
        <time>2010-06-17T09:33:52Z</time>
      </trkpt>
      <trkpt lat="49.0048860" lon="9.5033740">
        <ele>277.9600000</ele>
        <time>2010-06-17T09:34:02Z</time>
      </trkpt>
      <trkpt lat="49.0047310" lon="9.5032610">
        <ele>277.4800000</ele>
        <time>2010-06-17T09:34:10Z</time>
      </trkpt>
      <trkpt lat="49.0046040" lon="9.5032240">
        <ele>277.4800000</ele>
        <time>2010-06-17T09:34:13Z</time>
      </trkpt>
      <trkpt lat="49.0045630" lon="9.5032110">
        <ele>277.0000000</ele>
        <time>2010-06-17T09:34:14Z</time>
      </trkpt>
      <trkpt lat="49.0044250" lon="9.5031880">
        <ele>277.0000000</ele>
        <time>2010-06-17T09:34:17Z</time>
      </trkpt>
      <trkpt lat="49.0043770" lon="9.5031930">
        <ele>276.5200000</ele>
        <time>2010-06-17T09:34:18Z</time>
      </trkpt>
      <trkpt lat="49.0042310" lon="9.5032090">
        <ele>276.5200000</ele>
        <time>2010-06-17T09:34:21Z</time>
      </trkpt>
      <trkpt lat="49.0041850" lon="9.5032000">
        <ele>276.5200000</ele>
        <time>2010-06-17T09:34:22Z</time>
      </trkpt>
      <trkpt lat="49.0041390" lon="9.5031820">
        <ele>276.0400000</ele>
        <time>2010-06-17T09:34:23Z</time>
      </trkpt>
      <trkpt lat="49.0040960" lon="9.5031550">
        <ele>276.0400000</ele>
        <time>2010-06-17T09:34:24Z</time>
      </trkpt>
      <trkpt lat="49.0040540" lon="9.5031190">
        <ele>276.0400000</ele>
        <time>2010-06-17T09:34:25Z</time>
      </trkpt>
      <trkpt lat="49.0040130" lon="9.5030780">
        <ele>275.5600000</ele>
        <time>2010-06-17T09:34:26Z</time>
      </trkpt>
      <trkpt lat="49.0039740" lon="9.5030310">
        <ele>275.5600000</ele>
        <time>2010-06-17T09:34:27Z</time>
      </trkpt>
      <trkpt lat="49.0039420" lon="9.5029750">
        <ele>275.5600000</ele>
        <time>2010-06-17T09:34:28Z</time>
      </trkpt>
      <trkpt lat="49.0039140" lon="9.5029120">
        <ele>275.5600000</ele>
        <time>2010-06-17T09:34:29Z</time>
      </trkpt>
      <trkpt lat="49.0038850" lon="9.5028430">
        <ele>276.5200000</ele>
        <time>2010-06-17T09:34:30Z</time>
      </trkpt>
      <trkpt lat="49.0038570" lon="9.5027730">
        <ele>276.5200000</ele>
        <time>2010-06-17T09:34:31Z</time>
      </trkpt>
      <trkpt lat="49.0035260" lon="9.5021370">
        <ele>275.0700000</ele>
        <time>2010-06-17T09:34:41Z</time>
      </trkpt>
      <trkpt lat="49.0034770" lon="9.5021030">
        <ele>275.0700000</ele>
        <time>2010-06-17T09:34:42Z</time>
      </trkpt>
      <trkpt lat="49.0034250" lon="9.5020840">
        <ele>275.0700000</ele>
        <time>2010-06-17T09:34:43Z</time>
      </trkpt>
      <trkpt lat="49.0033710" lon="9.5020780">
        <ele>275.0700000</ele>
        <time>2010-06-17T09:34:44Z</time>
      </trkpt>
      <trkpt lat="49.0031760" lon="9.5020900">
        <ele>274.5900000</ele>
        <time>2010-06-17T09:34:48Z</time>
      </trkpt>
      <trkpt lat="49.0031280" lon="9.5020770">
        <ele>274.5900000</ele>
        <time>2010-06-17T09:34:49Z</time>
      </trkpt>
      <trkpt lat="49.0030830" lon="9.5020470">
        <ele>274.5900000</ele>
        <time>2010-06-17T09:34:50Z</time>
      </trkpt>
      <trkpt lat="49.0030420" lon="9.5020040">
        <ele>274.5900000</ele>
        <time>2010-06-17T09:34:51Z</time>
      </trkpt>
      <trkpt lat="49.0030040" lon="9.5019560">
        <ele>274.5900000</ele>
        <time>2010-06-17T09:34:52Z</time>
      </trkpt>
      <trkpt lat="49.0029270" lon="9.5018660">
        <ele>274.1100000</ele>
        <time>2010-06-17T09:34:54Z</time>
      </trkpt>
      <trkpt lat="49.0028460" lon="9.5017890">
        <ele>274.1100000</ele>
        <time>2010-06-17T09:34:56Z</time>
      </trkpt>
      <trkpt lat="49.0027010" lon="9.5016110">
        <ele>274.1100000</ele>
        <time>2010-06-17T09:35:00Z</time>
      </trkpt>
      <trkpt lat="49.0026690" lon="9.5015600">
        <ele>274.1100000</ele>
        <time>2010-06-17T09:35:01Z</time>
      </trkpt>
      <trkpt lat="49.0026410" lon="9.5015060">
        <ele>274.1100000</ele>
        <time>2010-06-17T09:35:02Z</time>
      </trkpt>
      <trkpt lat="49.0025190" lon="9.5012700">
        <ele>274.5900000</ele>
        <time>2010-06-17T09:35:07Z</time>
      </trkpt>
      <trkpt lat="49.0024890" lon="9.5012570">
        <ele>274.5900000</ele>
        <time>2010-06-17T09:35:08Z</time>
      </trkpt>
      <trkpt lat="49.0024530" lon="9.5012620">
        <ele>274.1100000</ele>
        <time>2010-06-17T09:35:09Z</time>
      </trkpt>
      <trkpt lat="49.0024150" lon="9.5012670">
        <ele>274.1100000</ele>
        <time>2010-06-17T09:35:10Z</time>
      </trkpt>
      <trkpt lat="49.0023760" lon="9.5012660">
        <ele>274.1100000</ele>
        <time>2010-06-17T09:35:11Z</time>
      </trkpt>
      <trkpt lat="49.0023350" lon="9.5012600">
        <ele>274.1100000</ele>
        <time>2010-06-17T09:35:12Z</time>
      </trkpt>
      <trkpt lat="49.0022920" lon="9.5012470">
        <ele>274.1100000</ele>
        <time>2010-06-17T09:35:13Z</time>
      </trkpt>
      <trkpt lat="49.0016010" lon="9.5010640">
        <ele>274.1100000</ele>
        <time>2010-06-17T09:35:28Z</time>
      </trkpt>
      <trkpt lat="49.0007490" lon="9.5008150">
        <ele>274.1100000</ele>
        <time>2010-06-17T09:35:46Z</time>
      </trkpt>
      <trkpt lat="48.9999920" lon="9.5005780">
        <ele>274.1100000</ele>
        <time>2010-06-17T09:36:02Z</time>
      </trkpt>
      <trkpt lat="48.9999490" lon="9.5005490">
        <ele>274.1100000</ele>
        <time>2010-06-17T09:36:03Z</time>
      </trkpt>
      <trkpt lat="48.9999080" lon="9.5005110">
        <ele>273.6300000</ele>
        <time>2010-06-17T09:36:04Z</time>
      </trkpt>
      <trkpt lat="48.9998790" lon="9.5004600">
        <ele>274.1100000</ele>
        <time>2010-06-17T09:36:05Z</time>
      </trkpt>
      <trkpt lat="48.9998630" lon="9.5003980">
        <ele>274.1100000</ele>
        <time>2010-06-17T09:36:06Z</time>
      </trkpt>
      <trkpt lat="48.9998550" lon="9.5003290">
        <ele>274.1100000</ele>
        <time>2010-06-17T09:36:07Z</time>
      </trkpt>
      <trkpt lat="48.9998500" lon="9.5002560">
        <ele>274.1100000</ele>
        <time>2010-06-17T09:36:08Z</time>
      </trkpt>
      <trkpt lat="48.9998260" lon="9.4998610">
        <ele>273.1500000</ele>
        <time>2010-06-17T09:36:13Z</time>
      </trkpt>
      <trkpt lat="48.9998110" lon="9.4997830">
        <ele>272.6700000</ele>
        <time>2010-06-17T09:36:14Z</time>
      </trkpt>
      <trkpt lat="48.9994410" lon="9.4985430">
        <ele>272.6700000</ele>
        <time>2010-06-17T09:36:30Z</time>
      </trkpt>
      <trkpt lat="48.9992810" lon="9.4974210">
        <ele>272.1900000</ele>
        <time>2010-06-17T09:36:44Z</time>
      </trkpt>
      <trkpt lat="48.9991430" lon="9.4962470">
        <ele>272.6700000</ele>
        <time>2010-06-17T09:36:59Z</time>
      </trkpt>
      <trkpt lat="48.9990310" lon="9.4954250">
        <ele>272.6700000</ele>
        <time>2010-06-17T09:37:10Z</time>
      </trkpt>
      <trkpt lat="48.9991100" lon="9.4950630">
        <ele>271.7100000</ele>
        <time>2010-06-17T09:37:17Z</time>
      </trkpt>
      <trkpt lat="48.9991480" lon="9.4950290">
        <ele>271.7100000</ele>
        <time>2010-06-17T09:37:18Z</time>
      </trkpt>
      <trkpt lat="48.9991880" lon="9.4950010">
        <ele>272.1900000</ele>
        <time>2010-06-17T09:37:19Z</time>
      </trkpt>
      <trkpt lat="48.9993540" lon="9.4949060">
        <ele>272.6700000</ele>
        <time>2010-06-17T09:37:23Z</time>
      </trkpt>
      <trkpt lat="48.9993850" lon="9.4948600">
        <ele>272.6700000</ele>
        <time>2010-06-17T09:37:24Z</time>
      </trkpt>
      <trkpt lat="48.9994040" lon="9.4948000">
        <ele>273.1500000</ele>
        <time>2010-06-17T09:37:25Z</time>
      </trkpt>
      <trkpt lat="48.9994130" lon="9.4947350">
        <ele>272.6700000</ele>
        <time>2010-06-17T09:37:26Z</time>
      </trkpt>
      <trkpt lat="48.9994160" lon="9.4946670">
        <ele>273.1500000</ele>
        <time>2010-06-17T09:37:27Z</time>
      </trkpt>
      <trkpt lat="48.9994140" lon="9.4945960">
        <ele>273.1500000</ele>
        <time>2010-06-17T09:37:28Z</time>
      </trkpt>
      <trkpt lat="48.9994050" lon="9.4945250">
        <ele>272.6700000</ele>
        <time>2010-06-17T09:37:29Z</time>
      </trkpt>
      <trkpt lat="48.9993890" lon="9.4944570">
        <ele>272.6700000</ele>
        <time>2010-06-17T09:37:30Z</time>
      </trkpt>
      <trkpt lat="48.9992670" lon="9.4938030">
        <ele>273.1500000</ele>
        <time>2010-06-17T09:37:41Z</time>
      </trkpt>
      <trkpt lat="48.9992670" lon="9.4937610">
        <ele>272.6700000</ele>
        <time>2010-06-17T09:37:42Z</time>
      </trkpt>
      <trkpt lat="48.9992620" lon="9.4937090">
        <ele>273.1500000</ele>
        <time>2010-06-17T09:37:43Z</time>
      </trkpt>
      <trkpt lat="48.9992400" lon="9.4935820">
        <ele>273.1500000</ele>
        <time>2010-06-17T09:37:45Z</time>
      </trkpt>
      <trkpt lat="48.9992230" lon="9.4935200">
        <ele>273.1500000</ele>
        <time>2010-06-17T09:37:46Z</time>
      </trkpt>
      <trkpt lat="48.9990770" lon="9.4930770">
        <ele>273.1500000</ele>
        <time>2010-06-17T09:37:53Z</time>
      </trkpt>
      <trkpt lat="48.9989880" lon="9.4928530">
        <ele>273.6300000</ele>
        <time>2010-06-17T09:37:57Z</time>
      </trkpt>
      <trkpt lat="48.9987330" lon="9.4923590">
        <ele>273.1500000</ele>
        <time>2010-06-17T09:38:06Z</time>
      </trkpt>
      <trkpt lat="48.9985080" lon="9.4919810">
        <ele>273.6300000</ele>
        <time>2010-06-17T09:38:13Z</time>
      </trkpt>
      <trkpt lat="48.9984800" lon="9.4919310">
        <ele>273.6300000</ele>
        <time>2010-06-17T09:38:14Z</time>
      </trkpt>
      <trkpt lat="48.9984520" lon="9.4918860">
        <ele>274.1100000</ele>
        <time>2010-06-17T09:38:15Z</time>
      </trkpt>
      <trkpt lat="48.9980620" lon="9.4912020">
        <ele>272.6700000</ele>
        <time>2010-06-17T09:38:28Z</time>
      </trkpt>
      <trkpt lat="48.9977600" lon="9.4902280">
        <ele>271.2300000</ele>
        <time>2010-06-17T09:38:39Z</time>
      </trkpt>
      <trkpt lat="48.9977450" lon="9.4901430">
        <ele>271.2300000</ele>
        <time>2010-06-17T09:38:40Z</time>
      </trkpt>
      <trkpt lat="48.9973710" lon="9.4889360">
        <ele>270.7500000</ele>
        <time>2010-06-17T09:38:55Z</time>
      </trkpt>
      <trkpt lat="48.9973480" lon="9.4888580">
        <ele>270.7500000</ele>
        <time>2010-06-17T09:38:56Z</time>
      </trkpt>
      <trkpt lat="48.9973330" lon="9.4887770">
        <ele>271.2300000</ele>
        <time>2010-06-17T09:38:57Z</time>
      </trkpt>
      <trkpt lat="48.9971240" lon="9.4876710">
        <ele>270.2700000</ele>
        <time>2010-06-17T09:39:11Z</time>
      </trkpt>
      <trkpt lat="48.9968490" lon="9.4863510">
        <ele>269.7900000</ele>
        <time>2010-06-17T09:39:28Z</time>
      </trkpt>
      <trkpt lat="48.9966000" lon="9.4854020">
        <ele>269.7900000</ele>
        <time>2010-06-17T09:39:41Z</time>
      </trkpt>
      <trkpt lat="48.9965980" lon="9.4853290">
        <ele>270.2700000</ele>
        <time>2010-06-17T09:39:42Z</time>
      </trkpt>
      <trkpt lat="48.9966120" lon="9.4852600">
        <ele>269.7900000</ele>
        <time>2010-06-17T09:39:43Z</time>
      </trkpt>
      <trkpt lat="48.9966390" lon="9.4852000">
        <ele>270.2700000</ele>
        <time>2010-06-17T09:39:44Z</time>
      </trkpt>
      <trkpt lat="48.9966710" lon="9.4851450">
        <ele>270.2700000</ele>
        <time>2010-06-17T09:39:45Z</time>
      </trkpt>
      <trkpt lat="48.9969370" lon="9.4846730">
        <ele>269.7900000</ele>
        <time>2010-06-17T09:39:53Z</time>
      </trkpt>
      <trkpt lat="48.9969570" lon="9.4846010">
        <ele>269.7900000</ele>
        <time>2010-06-17T09:39:54Z</time>
      </trkpt>
      <trkpt lat="48.9969690" lon="9.4845240">
        <ele>269.7900000</ele>
        <time>2010-06-17T09:39:55Z</time>
      </trkpt>
      <trkpt lat="48.9969740" lon="9.4844480">
        <ele>269.7900000</ele>
        <time>2010-06-17T09:39:56Z</time>
      </trkpt>
      <trkpt lat="48.9969660" lon="9.4843770">
        <ele>270.2700000</ele>
        <time>2010-06-17T09:39:57Z</time>
      </trkpt>
      <trkpt lat="48.9969460" lon="9.4843110">
        <ele>269.7900000</ele>
        <time>2010-06-17T09:39:58Z</time>
      </trkpt>
      <trkpt lat="48.9969220" lon="9.4842490">
        <ele>269.7900000</ele>
        <time>2010-06-17T09:39:59Z</time>
      </trkpt>
      <trkpt lat="48.9968160" lon="9.4840250">
        <ele>269.7900000</ele>
        <time>2010-06-17T09:40:03Z</time>
      </trkpt>
      <trkpt lat="48.9967810" lon="9.4839730">
        <ele>269.7900000</ele>
        <time>2010-06-17T09:40:04Z</time>
      </trkpt>
      <trkpt lat="48.9967420" lon="9.4839180">
        <ele>269.7900000</ele>
        <time>2010-06-17T09:40:05Z</time>
      </trkpt>
      <trkpt lat="48.9967040" lon="9.4838650">
        <ele>269.7900000</ele>
        <time>2010-06-17T09:40:06Z</time>
      </trkpt>
      <trkpt lat="48.9966660" lon="9.4838190">
        <ele>269.7900000</ele>
        <time>2010-06-17T09:40:07Z</time>
      </trkpt>
      <trkpt lat="48.9966260" lon="9.4837810">
        <ele>269.3100000</ele>
        <time>2010-06-17T09:40:08Z</time>
      </trkpt>
      <trkpt lat="48.9965770" lon="9.4837720">
        <ele>269.7900000</ele>
        <time>2010-06-17T09:40:09Z</time>
      </trkpt>
      <trkpt lat="48.9965240" lon="9.4837810">
        <ele>269.7900000</ele>
        <time>2010-06-17T09:40:10Z</time>
      </trkpt>
      <trkpt lat="48.9964730" lon="9.4837970">
        <ele>269.7900000</ele>
        <time>2010-06-17T09:40:11Z</time>
      </trkpt>
      <trkpt lat="48.9964250" lon="9.4838170">
        <ele>269.7900000</ele>
        <time>2010-06-17T09:40:12Z</time>
      </trkpt>
      <trkpt lat="48.9963790" lon="9.4838390">
        <ele>269.7900000</ele>
        <time>2010-06-17T09:40:13Z</time>
      </trkpt>
      <trkpt lat="48.9963340" lon="9.4838560">
        <ele>269.7900000</ele>
        <time>2010-06-17T09:40:14Z</time>
      </trkpt>
      <trkpt lat="48.9962890" lon="9.4838520">
        <ele>269.3100000</ele>
        <time>2010-06-17T09:40:15Z</time>
      </trkpt>
      <trkpt lat="48.9962520" lon="9.4838140">
        <ele>269.3100000</ele>
        <time>2010-06-17T09:40:16Z</time>
      </trkpt>
      <trkpt lat="48.9962160" lon="9.4837560">
        <ele>269.3100000</ele>
        <time>2010-06-17T09:40:17Z</time>
      </trkpt>
      <trkpt lat="48.9961830" lon="9.4836960">
        <ele>269.3100000</ele>
        <time>2010-06-17T09:40:18Z</time>
      </trkpt>
      <trkpt lat="48.9960240" lon="9.4833430">
        <ele>269.3100000</ele>
        <time>2010-06-17T09:40:23Z</time>
      </trkpt>
      <trkpt lat="48.9959600" lon="9.4832250">
        <ele>269.3100000</ele>
        <time>2010-06-17T09:40:25Z</time>
      </trkpt>
      <trkpt lat="48.9956160" lon="9.4827080">
        <ele>269.3100000</ele>
        <time>2010-06-17T09:40:34Z</time>
      </trkpt>
      <trkpt lat="48.9955300" lon="9.4825080">
        <ele>269.3100000</ele>
        <time>2010-06-17T09:40:37Z</time>
      </trkpt>
      <trkpt lat="48.9955060" lon="9.4824250">
        <ele>269.3100000</ele>
        <time>2010-06-17T09:40:38Z</time>
      </trkpt>
      <trkpt lat="48.9953130" lon="9.4816200">
        <ele>269.3100000</ele>
        <time>2010-06-17T09:40:49Z</time>
      </trkpt>
      <trkpt lat="48.9951900" lon="9.4812070">
        <ele>268.3500000</ele>
        <time>2010-06-17T09:40:54Z</time>
      </trkpt>
      <trkpt lat="48.9951140" lon="9.4810730">
        <ele>268.3500000</ele>
        <time>2010-06-17T09:40:56Z</time>
      </trkpt>
      <trkpt lat="48.9949520" lon="9.4808340">
        <ele>268.3500000</ele>
        <time>2010-06-17T09:41:00Z</time>
      </trkpt>
      <trkpt lat="48.9948260" lon="9.4805330">
        <ele>268.3500000</ele>
        <time>2010-06-17T09:41:04Z</time>
      </trkpt>
      <trkpt lat="48.9947990" lon="9.4804460">
        <ele>268.8300000</ele>
        <time>2010-06-17T09:41:05Z</time>
      </trkpt>
      <trkpt lat="48.9947810" lon="9.4803520">
        <ele>268.3500000</ele>
        <time>2010-06-17T09:41:06Z</time>
      </trkpt>
      <trkpt lat="48.9947700" lon="9.4802620">
        <ele>268.3500000</ele>
        <time>2010-06-17T09:41:07Z</time>
      </trkpt>
      <trkpt lat="48.9947620" lon="9.4801770">
        <ele>268.8300000</ele>
        <time>2010-06-17T09:41:08Z</time>
      </trkpt>
      <trkpt lat="48.9947480" lon="9.4800180">
        <ele>268.8300000</ele>
        <time>2010-06-17T09:41:10Z</time>
      </trkpt>
      <trkpt lat="48.9947490" lon="9.4799380">
        <ele>268.8300000</ele>
        <time>2010-06-17T09:41:11Z</time>
      </trkpt>
      <trkpt lat="48.9947530" lon="9.4798570">
        <ele>268.8300000</ele>
        <time>2010-06-17T09:41:12Z</time>
      </trkpt>
      <trkpt lat="48.9947600" lon="9.4797760">
        <ele>268.8300000</ele>
        <time>2010-06-17T09:41:13Z</time>
      </trkpt>
      <trkpt lat="48.9947720" lon="9.4796950">
        <ele>268.8300000</ele>
        <time>2010-06-17T09:41:14Z</time>
      </trkpt>
      <trkpt lat="48.9947910" lon="9.4796150">
        <ele>268.3500000</ele>
        <time>2010-06-17T09:41:15Z</time>
      </trkpt>
      <trkpt lat="48.9948130" lon="9.4795340">
        <ele>268.8300000</ele>
        <time>2010-06-17T09:41:16Z</time>
      </trkpt>
      <trkpt lat="48.9951960" lon="9.4784040">
        <ele>268.3500000</ele>
        <time>2010-06-17T09:41:31Z</time>
      </trkpt>
      <trkpt lat="48.9956020" lon="9.4769130">
        <ele>267.8600000</ele>
        <time>2010-06-17T09:41:50Z</time>
      </trkpt>
      <trkpt lat="48.9956970" lon="9.4757450">
        <ele>267.8600000</ele>
        <time>2010-06-17T09:42:04Z</time>
      </trkpt>
      <trkpt lat="48.9956950" lon="9.4752530">
        <ele>267.8600000</ele>
        <time>2010-06-17T09:42:10Z</time>
      </trkpt>
      <trkpt lat="48.9954110" lon="9.4740120">
        <ele>267.3800000</ele>
        <time>2010-06-17T09:42:26Z</time>
      </trkpt>
      <trkpt lat="48.9949150" lon="9.4729630">
        <ele>267.8600000</ele>
        <time>2010-06-17T09:42:41Z</time>
      </trkpt>
      <trkpt lat="48.9944020" lon="9.4723130">
        <ele>267.3800000</ele>
        <time>2010-06-17T09:42:53Z</time>
      </trkpt>
      <trkpt lat="48.9937590" lon="9.4715480">
        <ele>266.9000000</ele>
        <time>2010-06-17T09:43:08Z</time>
      </trkpt>
      <trkpt lat="48.9932090" lon="9.4706980">
        <ele>266.9000000</ele>
        <time>2010-06-17T09:43:22Z</time>
      </trkpt>
      <trkpt lat="48.9928990" lon="9.4699380">
        <ele>266.9000000</ele>
        <time>2010-06-17T09:43:33Z</time>
      </trkpt>
      <trkpt lat="48.9927520" lon="9.4695910">
        <ele>266.9000000</ele>
        <time>2010-06-17T09:43:38Z</time>
      </trkpt>
      <trkpt lat="48.9926420" lon="9.4694110">
        <ele>265.4600000</ele>
        <time>2010-06-17T09:43:41Z</time>
      </trkpt>
      <trkpt lat="48.9926030" lon="9.4693560">
        <ele>265.4600000</ele>
        <time>2010-06-17T09:43:42Z</time>
      </trkpt>
      <trkpt lat="48.9922590" lon="9.4689830">
        <ele>265.4600000</ele>
        <time>2010-06-17T09:43:50Z</time>
      </trkpt>
      <trkpt lat="48.9922100" lon="9.4689610">
        <ele>265.4600000</ele>
        <time>2010-06-17T09:43:51Z</time>
      </trkpt>
      <trkpt lat="48.9921590" lon="9.4689550">
        <ele>265.4600000</ele>
        <time>2010-06-17T09:43:52Z</time>
      </trkpt>
      <trkpt lat="48.9909110" lon="9.4691150">
        <ele>264.9800000</ele>
        <time>2010-06-17T09:44:14Z</time>
      </trkpt>
      <trkpt lat="48.9906000" lon="9.4691490">
        <ele>264.9800000</ele>
        <time>2010-06-17T09:44:20Z</time>
      </trkpt>
      <trkpt lat="48.9905480" lon="9.4691410">
        <ele>264.9800000</ele>
        <time>2010-06-17T09:44:21Z</time>
      </trkpt>
      <trkpt lat="48.9905020" lon="9.4691160">
        <ele>264.9800000</ele>
        <time>2010-06-17T09:44:22Z</time>
      </trkpt>
      <trkpt lat="48.9904620" lon="9.4690760">
        <ele>264.9800000</ele>
        <time>2010-06-17T09:44:23Z</time>
      </trkpt>
      <trkpt lat="48.9904250" lon="9.4690330">
        <ele>265.4600000</ele>
        <time>2010-06-17T09:44:24Z</time>
      </trkpt>
      <trkpt lat="48.9903860" lon="9.4689890">
        <ele>265.4600000</ele>
        <time>2010-06-17T09:44:25Z</time>
      </trkpt>
      <trkpt lat="48.9902950" lon="9.4689010">
        <ele>265.4600000</ele>
        <time>2010-06-17T09:44:27Z</time>
      </trkpt>
      <trkpt lat="48.9894720" lon="9.4684250">
        <ele>264.5000000</ele>
        <time>2010-06-17T09:44:42Z</time>
      </trkpt>
      <trkpt lat="48.9885510" lon="9.4678920">
        <ele>264.0200000</ele>
        <time>2010-06-17T09:44:59Z</time>
      </trkpt>
      <trkpt lat="48.9876510" lon="9.4667760">
        <ele>263.0600000</ele>
        <time>2010-06-17T09:45:19Z</time>
      </trkpt>
      <trkpt lat="48.9873570" lon="9.4664090">
        <ele>263.0600000</ele>
        <time>2010-06-17T09:45:26Z</time>
      </trkpt>
      <trkpt lat="48.9873100" lon="9.4663600">
        <ele>263.0600000</ele>
        <time>2010-06-17T09:45:27Z</time>
      </trkpt>
      <trkpt lat="48.9872600" lon="9.4663160">
        <ele>263.0600000</ele>
        <time>2010-06-17T09:45:28Z</time>
      </trkpt>
      <trkpt lat="48.9872080" lon="9.4662790">
        <ele>263.0600000</ele>
        <time>2010-06-17T09:45:29Z</time>
      </trkpt>
      <trkpt lat="48.9871560" lon="9.4662510">
        <ele>263.0600000</ele>
        <time>2010-06-17T09:45:30Z</time>
      </trkpt>
      <trkpt lat="48.9871030" lon="9.4662270">
        <ele>263.0600000</ele>
        <time>2010-06-17T09:45:31Z</time>
      </trkpt>
      <trkpt lat="48.9870010" lon="9.4661760">
        <ele>263.0600000</ele>
        <time>2010-06-17T09:45:33Z</time>
      </trkpt>
      <trkpt lat="48.9865820" lon="9.4660520">
        <ele>263.0600000</ele>
        <time>2010-06-17T09:45:41Z</time>
      </trkpt>
      <trkpt lat="48.9865310" lon="9.4660340">
        <ele>263.0600000</ele>
        <time>2010-06-17T09:45:42Z</time>
      </trkpt>
      <trkpt lat="48.9864290" lon="9.4660130">
        <ele>263.0600000</ele>
        <time>2010-06-17T09:45:44Z</time>
      </trkpt>
      <trkpt lat="48.9862740" lon="9.4659950">
        <ele>263.0600000</ele>
        <time>2010-06-17T09:45:47Z</time>
      </trkpt>
      <trkpt lat="48.9862250" lon="9.4659810">
        <ele>263.0600000</ele>
        <time>2010-06-17T09:45:48Z</time>
      </trkpt>
      <trkpt lat="48.9861800" lon="9.4659610">
        <ele>263.5400000</ele>
        <time>2010-06-17T09:45:49Z</time>
      </trkpt>
      <trkpt lat="48.9861470" lon="9.4659210">
        <ele>263.0600000</ele>
        <time>2010-06-17T09:45:50Z</time>
      </trkpt>
      <trkpt lat="48.9861310" lon="9.4658590">
        <ele>263.0600000</ele>
        <time>2010-06-17T09:45:51Z</time>
      </trkpt>
      <trkpt lat="48.9861270" lon="9.4657890">
        <ele>263.5400000</ele>
        <time>2010-06-17T09:45:52Z</time>
      </trkpt>
      <trkpt lat="48.9861290" lon="9.4657180">
        <ele>263.0600000</ele>
        <time>2010-06-17T09:45:53Z</time>
      </trkpt>
      <trkpt lat="48.9861320" lon="9.4656520">
        <ele>263.5400000</ele>
        <time>2010-06-17T09:45:54Z</time>
      </trkpt>
      <trkpt lat="48.9861440" lon="9.4653610">
        <ele>263.5400000</ele>
        <time>2010-06-17T09:45:58Z</time>
      </trkpt>
      <trkpt lat="48.9861300" lon="9.4652890">
        <ele>263.5400000</ele>
        <time>2010-06-17T09:45:59Z</time>
      </trkpt>
      <trkpt lat="48.9861100" lon="9.4652330">
        <ele>263.5400000</ele>
        <time>2010-06-17T09:46:00Z</time>
      </trkpt>
      <trkpt lat="48.9860830" lon="9.4651900">
        <ele>263.5400000</ele>
        <time>2010-06-17T09:46:01Z</time>
      </trkpt>
      <trkpt lat="48.9860480" lon="9.4651530">
        <ele>264.0200000</ele>
        <time>2010-06-17T09:46:02Z</time>
      </trkpt>
      <trkpt lat="48.9860090" lon="9.4651190">
        <ele>264.0200000</ele>
        <time>2010-06-17T09:46:03Z</time>
      </trkpt>
      <trkpt lat="48.9859720" lon="9.4650890">
        <ele>264.5000000</ele>
        <time>2010-06-17T09:46:04Z</time>
      </trkpt>
      <trkpt lat="48.9857260" lon="9.4648860">
        <ele>264.9800000</ele>
        <time>2010-06-17T09:46:11Z</time>
      </trkpt>
      <trkpt lat="48.9851920" lon="9.4644860">
        <ele>263.0600000</ele>
        <time>2010-06-17T09:46:22Z</time>
      </trkpt>
      <trkpt lat="48.9847940" lon="9.4640700">
        <ele>262.5800000</ele>
        <time>2010-06-17T09:46:31Z</time>
      </trkpt>
      <trkpt lat="48.9847540" lon="9.4640150">
        <ele>262.5800000</ele>
        <time>2010-06-17T09:46:32Z</time>
      </trkpt>
      <trkpt lat="48.9847150" lon="9.4639610">
        <ele>262.5800000</ele>
        <time>2010-06-17T09:46:33Z</time>
      </trkpt>
      <trkpt lat="48.9843610" lon="9.4634600">
        <ele>262.5800000</ele>
        <time>2010-06-17T09:46:42Z</time>
      </trkpt>
      <trkpt lat="48.9842860" lon="9.4633450">
        <ele>262.5800000</ele>
        <time>2010-06-17T09:46:44Z</time>
      </trkpt>
      <trkpt lat="48.9838190" lon="9.4626940">
        <ele>262.1000000</ele>
        <time>2010-06-17T09:46:56Z</time>
      </trkpt>
      <trkpt lat="48.9834660" lon="9.4622170">
        <ele>262.5800000</ele>
        <time>2010-06-17T09:47:05Z</time>
      </trkpt>
      <trkpt lat="48.9834220" lon="9.4621750">
        <ele>262.5800000</ele>
        <time>2010-06-17T09:47:06Z</time>
      </trkpt>
      <trkpt lat="48.9833740" lon="9.4621400">
        <ele>262.5800000</ele>
        <time>2010-06-17T09:47:07Z</time>
      </trkpt>
      <trkpt lat="48.9826210" lon="9.4617220">
        <ele>262.5800000</ele>
        <time>2010-06-17T09:47:22Z</time>
      </trkpt>
      <trkpt lat="48.9825700" lon="9.4616970">
        <ele>262.1000000</ele>
        <time>2010-06-17T09:47:23Z</time>
      </trkpt>
      <trkpt lat="48.9825200" lon="9.4616720">
        <ele>262.1000000</ele>
        <time>2010-06-17T09:47:24Z</time>
      </trkpt>
      <trkpt lat="48.9820490" lon="9.4613180">
        <ele>263.5400000</ele>
        <time>2010-06-17T09:47:36Z</time>
      </trkpt>
      <trkpt lat="48.9820480" lon="9.4612910">
        <ele>263.5400000</ele>
        <time>2010-06-17T09:47:37Z</time>
      </trkpt>
      <trkpt lat="48.9820500" lon="9.4612670">
        <ele>263.5400000</ele>
        <time>2010-06-17T09:47:38Z</time>
      </trkpt>
      <trkpt lat="48.9820560" lon="9.4612390">
        <ele>264.0200000</ele>
        <time>2010-06-17T09:47:39Z</time>
      </trkpt>
      <trkpt lat="48.9820670" lon="9.4612080">
        <ele>263.5400000</ele>
        <time>2010-06-17T09:47:40Z</time>
      </trkpt>
      <trkpt lat="48.9820830" lon="9.4611710">
        <ele>263.5400000</ele>
        <time>2010-06-17T09:47:41Z</time>
      </trkpt>
      <trkpt lat="48.9823200" lon="9.4604280">
        <ele>262.5800000</ele>
        <time>2010-06-17T09:47:54Z</time>
      </trkpt>
      <trkpt lat="48.9825550" lon="9.4595670">
        <ele>263.0600000</ele>
        <time>2010-06-17T09:48:07Z</time>
      </trkpt>
      <trkpt lat="48.9827560" lon="9.4589760">
        <ele>265.9400000</ele>
        <time>2010-06-17T09:48:18Z</time>
      </trkpt>
      <trkpt lat="48.9828850" lon="9.4586470">
        <ele>267.8600000</ele>
        <time>2010-06-17T09:48:30Z</time>
      </trkpt>
      <trkpt lat="48.9828890" lon="9.4584070">
        <ele>267.8600000</ele>
        <time>2010-06-17T09:49:06Z</time>
      </trkpt>
      <trkpt lat="48.9828050" lon="9.4582890">
        <ele>267.8600000</ele>
        <time>2010-06-17T09:49:09Z</time>
      </trkpt>
      <trkpt lat="48.9821220" lon="9.4578170">
        <ele>265.9400000</ele>
        <time>2010-06-17T09:49:23Z</time>
      </trkpt>
      <trkpt lat="48.9819050" lon="9.4576600">
        <ele>264.9800000</ele>
        <time>2010-06-17T09:49:27Z</time>
      </trkpt>
      <trkpt lat="48.9808540" lon="9.4570120">
        <ele>263.5400000</ele>
        <time>2010-06-17T09:49:44Z</time>
      </trkpt>
      <trkpt lat="48.9805620" lon="9.4567880">
        <ele>263.5400000</ele>
        <time>2010-06-17T09:49:50Z</time>
      </trkpt>
      <trkpt lat="48.9805180" lon="9.4567690">
        <ele>264.0200000</ele>
        <time>2010-06-17T09:49:51Z</time>
      </trkpt>
      <trkpt lat="48.9804760" lon="9.4567490">
        <ele>264.0200000</ele>
        <time>2010-06-17T09:49:52Z</time>
      </trkpt>
      <trkpt lat="48.9804400" lon="9.4567200">
        <ele>264.0200000</ele>
        <time>2010-06-17T09:49:53Z</time>
      </trkpt>
      <trkpt lat="48.9804070" lon="9.4566810">
        <ele>264.0200000</ele>
        <time>2010-06-17T09:49:54Z</time>
      </trkpt>
      <trkpt lat="48.9803780" lon="9.4566350">
        <ele>264.0200000</ele>
        <time>2010-06-17T09:49:55Z</time>
      </trkpt>
      <trkpt lat="48.9803530" lon="9.4565850">
        <ele>264.0200000</ele>
        <time>2010-06-17T09:49:56Z</time>
      </trkpt>
      <trkpt lat="48.9799860" lon="9.4558280">
        <ele>264.9800000</ele>
        <time>2010-06-17T09:50:12Z</time>
      </trkpt>
      <trkpt lat="48.9796370" lon="9.4549840">
        <ele>266.9000000</ele>
        <time>2010-06-17T09:50:30Z</time>
      </trkpt>
      <trkpt lat="48.9794850" lon="9.4546760">
        <ele>268.8300000</ele>
        <time>2010-06-17T09:50:43Z</time>
      </trkpt>
      <trkpt lat="48.9794850" lon="9.4546770">
        <ele>268.3500000</ele>
        <time>2010-06-17T09:51:37Z</time>
      </trkpt>
      <trkpt lat="48.9794680" lon="9.4545650">
        <ele>268.8300000</ele>
        <time>2010-06-17T09:51:45Z</time>
      </trkpt>
      <trkpt lat="48.9794590" lon="9.4544720">
        <ele>268.8300000</ele>
        <time>2010-06-17T09:51:48Z</time>
      </trkpt>
      <trkpt lat="48.9794410" lon="9.4544500">
        <ele>268.8300000</ele>
        <time>2010-06-17T09:51:49Z</time>
      </trkpt>
      <trkpt lat="48.9794150" lon="9.4544550">
        <ele>268.8300000</ele>
        <time>2010-06-17T09:51:50Z</time>
      </trkpt>
      <trkpt lat="48.9793880" lon="9.4544680">
        <ele>268.8300000</ele>
        <time>2010-06-17T09:51:51Z</time>
      </trkpt>
      <trkpt lat="48.9793570" lon="9.4544770">
        <ele>268.8300000</ele>
        <time>2010-06-17T09:51:52Z</time>
      </trkpt>
      <trkpt lat="48.9793260" lon="9.4544840">
        <ele>268.8300000</ele>
        <time>2010-06-17T09:51:53Z</time>
      </trkpt>
      <trkpt lat="48.9792940" lon="9.4544860">
        <ele>269.3100000</ele>
        <time>2010-06-17T09:51:54Z</time>
      </trkpt>
      <trkpt lat="48.9792610" lon="9.4544840">
        <ele>269.3100000</ele>
        <time>2010-06-17T09:51:55Z</time>
      </trkpt>
      <trkpt lat="48.9789530" lon="9.4542550">
        <ele>270.7500000</ele>
        <time>2010-06-17T09:52:07Z</time>
      </trkpt>
      <trkpt lat="48.9788180" lon="9.4539720">
        <ele>274.1100000</ele>
        <time>2010-06-17T09:52:18Z</time>
      </trkpt>
      <trkpt lat="48.9787200" lon="9.4536120">
        <ele>276.5200000</ele>
        <time>2010-06-17T09:52:32Z</time>
      </trkpt>
      <trkpt lat="48.9786500" lon="9.4532650">
        <ele>279.4000000</ele>
        <time>2010-06-17T09:52:45Z</time>
      </trkpt>
      <trkpt lat="48.9785730" lon="9.4528930">
        <ele>282.7700000</ele>
        <time>2010-06-17T09:53:01Z</time>
      </trkpt>
      <trkpt lat="48.9784950" lon="9.4525210">
        <ele>285.6500000</ele>
        <time>2010-06-17T09:53:17Z</time>
      </trkpt>
      <trkpt lat="48.9784350" lon="9.4522510">
        <ele>287.0900000</ele>
        <time>2010-06-17T09:53:29Z</time>
      </trkpt>
      <trkpt lat="48.9784270" lon="9.4522340">
        <ele>287.0900000</ele>
        <time>2010-06-17T09:53:30Z</time>
      </trkpt>
      <trkpt lat="48.9784200" lon="9.4522130">
        <ele>287.0900000</ele>
        <time>2010-06-17T09:53:31Z</time>
      </trkpt>
      <trkpt lat="48.9783180" lon="9.4518120">
        <ele>290.4600000</ele>
        <time>2010-06-17T09:53:48Z</time>
      </trkpt>
      <trkpt lat="48.9781690" lon="9.4512860">
        <ele>292.3800000</ele>
        <time>2010-06-17T09:54:08Z</time>
      </trkpt>
      <trkpt lat="48.9780530" lon="9.4509060">
        <ele>295.7400000</ele>
        <time>2010-06-17T09:54:22Z</time>
      </trkpt>
      <trkpt lat="48.9779220" lon="9.4503560">
        <ele>299.1100000</ele>
        <time>2010-06-17T09:54:41Z</time>
      </trkpt>
      <trkpt lat="48.9778120" lon="9.4497780">
        <ele>301.5100000</ele>
        <time>2010-06-17T09:55:00Z</time>
      </trkpt>
      <trkpt lat="48.9776610" lon="9.4491480">
        <ele>304.3900000</ele>
        <time>2010-06-17T09:55:20Z</time>
      </trkpt>
      <trkpt lat="48.9775210" lon="9.4486430">
        <ele>306.8000000</ele>
        <time>2010-06-17T09:55:36Z</time>
      </trkpt>
      <trkpt lat="48.9773790" lon="9.4481870">
        <ele>310.1600000</ele>
        <time>2010-06-17T09:55:50Z</time>
      </trkpt>
      <trkpt lat="48.9773070" lon="9.4478010">
        <ele>310.6400000</ele>
        <time>2010-06-17T09:56:04Z</time>
      </trkpt>
      <trkpt lat="48.9772760" lon="9.4478010">
        <ele>310.1600000</ele>
        <time>2010-06-17T09:56:12Z</time>
      </trkpt>
      <trkpt lat="48.9772620" lon="9.4478280">
        <ele>309.6800000</ele>
        <time>2010-06-17T10:00:41Z</time>
      </trkpt>
      <trkpt lat="48.9772620" lon="9.4478280">
        <ele>310.1600000</ele>
        <time>2010-06-17T10:00:44Z</time>
      </trkpt>
      <trkpt lat="48.9772280" lon="9.4477930">
        <ele>310.1600000</ele>
        <time>2010-06-17T10:00:48Z</time>
      </trkpt>
      <trkpt lat="48.9772180" lon="9.4476780">
        <ele>309.6800000</ele>
        <time>2010-06-17T10:00:53Z</time>
      </trkpt>
      <trkpt lat="48.9771710" lon="9.4475400">
        <ele>309.6800000</ele>
        <time>2010-06-17T10:00:58Z</time>
      </trkpt>
      <trkpt lat="48.9771640" lon="9.4475040">
        <ele>309.2000000</ele>
        <time>2010-06-17T10:01:16Z</time>
      </trkpt>
      <trkpt lat="48.9771630" lon="9.4474980">
        <ele>308.7200000</ele>
        <time>2010-06-17T10:03:09Z</time>
      </trkpt>
      <trkpt lat="48.9771630" lon="9.4474950">
        <ele>308.7200000</ele>
        <time>2010-06-17T10:03:48Z</time>
      </trkpt>
      <trkpt lat="48.9771130" lon="9.4474180">
        <ele>308.7200000</ele>
        <time>2010-06-17T10:03:52Z</time>
      </trkpt>
      <trkpt lat="48.9768450" lon="9.4467050">
        <ele>305.3600000</ele>
        <time>2010-06-17T10:04:04Z</time>
      </trkpt>
      <trkpt lat="48.9767520" lon="9.4465340">
        <ele>304.8800000</ele>
        <time>2010-06-17T10:04:06Z</time>
      </trkpt>
      <trkpt lat="48.9766970" lon="9.4464530">
        <ele>304.8800000</ele>
        <time>2010-06-17T10:04:07Z</time>
      </trkpt>
      <trkpt lat="48.9759200" lon="9.4454870">
        <ele>302.9500000</ele>
        <time>2010-06-17T10:04:21Z</time>
      </trkpt>
      <trkpt lat="48.9753920" lon="9.4446630">
        <ele>303.4300000</ele>
        <time>2010-06-17T10:04:35Z</time>
      </trkpt>
      <trkpt lat="48.9753630" lon="9.4446100">
        <ele>303.9100000</ele>
        <time>2010-06-17T10:04:36Z</time>
      </trkpt>
      <trkpt lat="48.9753410" lon="9.4445530">
        <ele>303.9100000</ele>
        <time>2010-06-17T10:04:37Z</time>
      </trkpt>
      <trkpt lat="48.9753260" lon="9.4444900">
        <ele>303.9100000</ele>
        <time>2010-06-17T10:04:38Z</time>
      </trkpt>
      <trkpt lat="48.9753200" lon="9.4444240">
        <ele>304.3900000</ele>
        <time>2010-06-17T10:04:39Z</time>
      </trkpt>
      <trkpt lat="48.9753200" lon="9.4443560">
        <ele>303.9100000</ele>
        <time>2010-06-17T10:04:40Z</time>
      </trkpt>
      <trkpt lat="48.9753170" lon="9.4442840">
        <ele>303.9100000</ele>
        <time>2010-06-17T10:04:41Z</time>
      </trkpt>
      <trkpt lat="48.9753050" lon="9.4442110">
        <ele>303.4300000</ele>
        <time>2010-06-17T10:04:42Z</time>
      </trkpt>
      <trkpt lat="48.9750950" lon="9.4434740">
        <ele>302.9500000</ele>
        <time>2010-06-17T10:04:52Z</time>
      </trkpt>
      <trkpt lat="48.9746570" lon="9.4422630">
        <ele>300.0700000</ele>
        <time>2010-06-17T10:05:08Z</time>
      </trkpt>
      <trkpt lat="48.9745560" lon="9.4419830">
        <ele>298.1500000</ele>
        <time>2010-06-17T10:05:12Z</time>
      </trkpt>
      <trkpt lat="48.9745280" lon="9.4419170">
        <ele>298.1500000</ele>
        <time>2010-06-17T10:05:13Z</time>
      </trkpt>
      <trkpt lat="48.9744460" lon="9.4417180">
        <ele>296.2200000</ele>
        <time>2010-06-17T10:05:16Z</time>
      </trkpt>
      <trkpt lat="48.9744120" lon="9.4416660">
        <ele>295.7400000</ele>
        <time>2010-06-17T10:05:17Z</time>
      </trkpt>
      <trkpt lat="48.9743710" lon="9.4416360">
        <ele>295.7400000</ele>
        <time>2010-06-17T10:05:18Z</time>
      </trkpt>
      <trkpt lat="48.9743260" lon="9.4416320">
        <ele>295.2600000</ele>
        <time>2010-06-17T10:05:19Z</time>
      </trkpt>
      <trkpt lat="48.9742780" lon="9.4416450">
        <ele>295.2600000</ele>
        <time>2010-06-17T10:05:20Z</time>
      </trkpt>
      <trkpt lat="48.9742270" lon="9.4416670">
        <ele>294.7800000</ele>
        <time>2010-06-17T10:05:21Z</time>
      </trkpt>
      <trkpt lat="48.9740810" lon="9.4417130">
        <ele>294.3000000</ele>
        <time>2010-06-17T10:05:24Z</time>
      </trkpt>
      <trkpt lat="48.9740420" lon="9.4417170">
        <ele>294.3000000</ele>
        <time>2010-06-17T10:05:25Z</time>
      </trkpt>
      <trkpt lat="48.9740080" lon="9.4417080">
        <ele>294.3000000</ele>
        <time>2010-06-17T10:05:26Z</time>
      </trkpt>
      <trkpt lat="48.9739840" lon="9.4416820">
        <ele>294.3000000</ele>
        <time>2010-06-17T10:05:27Z</time>
      </trkpt>
      <trkpt lat="48.9739690" lon="9.4416400">
        <ele>293.8200000</ele>
        <time>2010-06-17T10:05:28Z</time>
      </trkpt>
      <trkpt lat="48.9739640" lon="9.4415810">
        <ele>293.8200000</ele>
        <time>2010-06-17T10:05:29Z</time>
      </trkpt>
      <trkpt lat="48.9739680" lon="9.4415160">
        <ele>293.3400000</ele>
        <time>2010-06-17T10:05:30Z</time>
      </trkpt>
      <trkpt lat="48.9739780" lon="9.4414470">
        <ele>292.8600000</ele>
        <time>2010-06-17T10:05:31Z</time>
      </trkpt>
      <trkpt lat="48.9739870" lon="9.4413720">
        <ele>292.8600000</ele>
        <time>2010-06-17T10:05:32Z</time>
      </trkpt>
      <trkpt lat="48.9739900" lon="9.4412930">
        <ele>292.8600000</ele>
        <time>2010-06-17T10:05:33Z</time>
      </trkpt>
      <trkpt lat="48.9739790" lon="9.4409650">
        <ele>291.4200000</ele>
        <time>2010-06-17T10:05:37Z</time>
      </trkpt>
      <trkpt lat="48.9739870" lon="9.4408880">
        <ele>291.4200000</ele>
        <time>2010-06-17T10:05:38Z</time>
      </trkpt>
      <trkpt lat="48.9740050" lon="9.4408130">
        <ele>290.9400000</ele>
        <time>2010-06-17T10:05:39Z</time>
      </trkpt>
      <trkpt lat="48.9740140" lon="9.4407340">
        <ele>290.9400000</ele>
        <time>2010-06-17T10:05:40Z</time>
      </trkpt>
      <trkpt lat="48.9740040" lon="9.4406560">
        <ele>290.9400000</ele>
        <time>2010-06-17T10:05:41Z</time>
      </trkpt>
      <trkpt lat="48.9739860" lon="9.4405800">
        <ele>290.4600000</ele>
        <time>2010-06-17T10:05:42Z</time>
      </trkpt>
      <trkpt lat="48.9739630" lon="9.4405070">
        <ele>290.4600000</ele>
        <time>2010-06-17T10:05:43Z</time>
      </trkpt>
      <trkpt lat="48.9739350" lon="9.4404380">
        <ele>290.9400000</ele>
        <time>2010-06-17T10:05:44Z</time>
      </trkpt>
      <trkpt lat="48.9739040" lon="9.4403690">
        <ele>290.4600000</ele>
        <time>2010-06-17T10:05:45Z</time>
      </trkpt>
      <trkpt lat="48.9736750" lon="9.4398410">
        <ele>290.4600000</ele>
        <time>2010-06-17T10:05:53Z</time>
      </trkpt>
      <trkpt lat="48.9736320" lon="9.4397050">
        <ele>290.4600000</ele>
        <time>2010-06-17T10:05:55Z</time>
      </trkpt>
      <trkpt lat="48.9734150" lon="9.4391850">
        <ele>287.0900000</ele>
        <time>2010-06-17T10:06:03Z</time>
      </trkpt>
      <trkpt lat="48.9733690" lon="9.4391230">
        <ele>287.0900000</ele>
        <time>2010-06-17T10:06:04Z</time>
      </trkpt>
      <trkpt lat="48.9733190" lon="9.4390690">
        <ele>286.6100000</ele>
        <time>2010-06-17T10:06:05Z</time>
      </trkpt>
      <trkpt lat="48.9732700" lon="9.4390240">
        <ele>286.6100000</ele>
        <time>2010-06-17T10:06:06Z</time>
      </trkpt>
      <trkpt lat="48.9732240" lon="9.4389850">
        <ele>286.6100000</ele>
        <time>2010-06-17T10:06:07Z</time>
      </trkpt>
      <trkpt lat="48.9730010" lon="9.4388230">
        <ele>286.1300000</ele>
        <time>2010-06-17T10:06:14Z</time>
      </trkpt>
      <trkpt lat="48.9729940" lon="9.4387980">
        <ele>285.1700000</ele>
        <time>2010-06-17T10:06:27Z</time>
      </trkpt>
      <trkpt lat="48.9729990" lon="9.4387780">
        <ele>285.6500000</ele>
        <time>2010-06-17T10:07:15Z</time>
      </trkpt>
      <trkpt lat="48.9730050" lon="9.4387480">
        <ele>285.1700000</ele>
        <time>2010-06-17T10:07:16Z</time>
      </trkpt>
      <trkpt lat="48.9730130" lon="9.4387170">
        <ele>285.1700000</ele>
        <time>2010-06-17T10:07:17Z</time>
      </trkpt>
      <trkpt lat="48.9730200" lon="9.4386830">
        <ele>285.1700000</ele>
        <time>2010-06-17T10:07:18Z</time>
      </trkpt>
      <trkpt lat="48.9730250" lon="9.4386530">
        <ele>285.6500000</ele>
        <time>2010-06-17T10:07:19Z</time>
      </trkpt>
      <trkpt lat="48.9730310" lon="9.4385910">
        <ele>285.6500000</ele>
        <time>2010-06-17T10:07:21Z</time>
      </trkpt>
      <trkpt lat="48.9730210" lon="9.4385530">
        <ele>285.1700000</ele>
        <time>2010-06-17T10:07:22Z</time>
      </trkpt>
      <trkpt lat="48.9730130" lon="9.4385100">
        <ele>285.1700000</ele>
        <time>2010-06-17T10:07:23Z</time>
      </trkpt>
      <trkpt lat="48.9730110" lon="9.4384510">
        <ele>285.1700000</ele>
        <time>2010-06-17T10:07:24Z</time>
      </trkpt>
      <trkpt lat="48.9730140" lon="9.4383850">
        <ele>285.1700000</ele>
        <time>2010-06-17T10:07:25Z</time>
      </trkpt>
      <trkpt lat="48.9730120" lon="9.4383140">
        <ele>285.1700000</ele>
        <time>2010-06-17T10:07:26Z</time>
      </trkpt>
      <trkpt lat="48.9729990" lon="9.4381710">
        <ele>284.6900000</ele>
        <time>2010-06-17T10:07:28Z</time>
      </trkpt>
      <trkpt lat="48.9729830" lon="9.4380980">
        <ele>284.6900000</ele>
        <time>2010-06-17T10:07:29Z</time>
      </trkpt>
      <trkpt lat="48.9729620" lon="9.4380240">
        <ele>284.6900000</ele>
        <time>2010-06-17T10:07:30Z</time>
      </trkpt>
      <trkpt lat="48.9726000" lon="9.4371230">
        <ele>284.2100000</ele>
        <time>2010-06-17T10:07:44Z</time>
      </trkpt>
      <trkpt lat="48.9725410" lon="9.4369430">
        <ele>284.6900000</ele>
        <time>2010-06-17T10:07:47Z</time>
      </trkpt>
      <trkpt lat="48.9722590" lon="9.4364400">
        <ele>287.5700000</ele>
        <time>2010-06-17T10:07:59Z</time>
      </trkpt>
      <trkpt lat="48.9718210" lon="9.4361290">
        <ele>290.9400000</ele>
        <time>2010-06-17T10:08:15Z</time>
      </trkpt>
      <trkpt lat="48.9717090" lon="9.4355940">
        <ele>293.3400000</ele>
        <time>2010-06-17T10:08:28Z</time>
      </trkpt>
      <trkpt lat="48.9715680" lon="9.4348300">
        <ele>294.3000000</ele>
        <time>2010-06-17T10:08:46Z</time>
      </trkpt>
      <trkpt lat="48.9715360" lon="9.4341380">
        <ele>295.7400000</ele>
        <time>2010-06-17T10:09:01Z</time>
      </trkpt>
      <trkpt lat="48.9714670" lon="9.4334830">
        <ele>298.6300000</ele>
        <time>2010-06-17T10:09:16Z</time>
      </trkpt>
      <trkpt lat="48.9713510" lon="9.4329450">
        <ele>301.5100000</ele>
        <time>2010-06-17T10:09:30Z</time>
      </trkpt>
      <trkpt lat="48.9712450" lon="9.4322740">
        <ele>302.9500000</ele>
        <time>2010-06-17T10:09:45Z</time>
      </trkpt>
      <trkpt lat="48.9712730" lon="9.4321600">
        <ele>302.9500000</ele>
        <time>2010-06-17T10:09:48Z</time>
      </trkpt>
      <trkpt lat="48.9712680" lon="9.4321200">
        <ele>303.4300000</ele>
        <time>2010-06-17T10:09:49Z</time>
      </trkpt>
      <trkpt lat="48.9712570" lon="9.4320800">
        <ele>303.9100000</ele>
        <time>2010-06-17T10:09:50Z</time>
      </trkpt>
      <trkpt lat="48.9711270" lon="9.4314110">
        <ele>306.3200000</ele>
        <time>2010-06-17T10:10:06Z</time>
      </trkpt>
      <trkpt lat="48.9709520" lon="9.4304760">
        <ele>306.8000000</ele>
        <time>2010-06-17T10:10:23Z</time>
      </trkpt>
      <trkpt lat="48.9708300" lon="9.4301780">
        <ele>306.8000000</ele>
        <time>2010-06-17T10:10:29Z</time>
      </trkpt>
      <trkpt lat="48.9707970" lon="9.4301320">
        <ele>306.3200000</ele>
        <time>2010-06-17T10:10:30Z</time>
      </trkpt>
      <trkpt lat="48.9702540" lon="9.4294580">
        <ele>305.3600000</ele>
        <time>2010-06-17T10:10:45Z</time>
      </trkpt>
      <trkpt lat="48.9697420" lon="9.4283380">
        <ele>303.9100000</ele>
        <time>2010-06-17T10:11:02Z</time>
      </trkpt>
      <trkpt lat="48.9692380" lon="9.4271670">
        <ele>302.4700000</ele>
        <time>2010-06-17T10:11:17Z</time>
      </trkpt>
      <trkpt lat="48.9690870" lon="9.4269220">
        <ele>301.9900000</ele>
        <time>2010-06-17T10:11:21Z</time>
      </trkpt>
      <trkpt lat="48.9690430" lon="9.4268900">
        <ele>301.5100000</ele>
        <time>2010-06-17T10:11:22Z</time>
      </trkpt>
      <trkpt lat="48.9689480" lon="9.4268300">
        <ele>301.5100000</ele>
        <time>2010-06-17T10:11:24Z</time>
      </trkpt>
      <trkpt lat="48.9689030" lon="9.4267830">
        <ele>301.0300000</ele>
        <time>2010-06-17T10:11:25Z</time>
      </trkpt>
      <trkpt lat="48.9688600" lon="9.4267270">
        <ele>301.0300000</ele>
        <time>2010-06-17T10:11:26Z</time>
      </trkpt>
      <trkpt lat="48.9680660" lon="9.4256160">
        <ele>298.6300000</ele>
        <time>2010-06-17T10:11:42Z</time>
      </trkpt>
      <trkpt lat="48.9678770" lon="9.4252370">
        <ele>297.1800000</ele>
        <time>2010-06-17T10:11:46Z</time>
      </trkpt>
      <trkpt lat="48.9675440" lon="9.4240150">
        <ele>293.8200000</ele>
        <time>2010-06-17T10:11:56Z</time>
      </trkpt>
      <trkpt lat="48.9674280" lon="9.4227640">
        <ele>290.4600000</ele>
        <time>2010-06-17T10:12:06Z</time>
      </trkpt>
      <trkpt lat="48.9673880" lon="9.4223220">
        <ele>289.0100000</ele>
        <time>2010-06-17T10:12:09Z</time>
      </trkpt>
      <trkpt lat="48.9673040" lon="9.4215390">
        <ele>285.1700000</ele>
        <time>2010-06-17T10:12:14Z</time>
      </trkpt>
      <trkpt lat="48.9670690" lon="9.4193990">
        <ele>284.2100000</ele>
        <time>2010-06-17T10:12:28Z</time>
      </trkpt>
      <trkpt lat="48.9668700" lon="9.4170740">
        <ele>285.1700000</ele>
        <time>2010-06-17T10:12:46Z</time>
      </trkpt>
      <trkpt lat="48.9667290" lon="9.4156770">
        <ele>288.5300000</ele>
        <time>2010-06-17T10:12:59Z</time>
      </trkpt>
      <trkpt lat="48.9667760" lon="9.4144310">
        <ele>291.4200000</ele>
        <time>2010-06-17T10:13:16Z</time>
      </trkpt>
      <trkpt lat="48.9667920" lon="9.4141230">
        <ele>292.3800000</ele>
        <time>2010-06-17T10:13:21Z</time>
      </trkpt>
      <trkpt lat="48.9667960" lon="9.4134930">
        <ele>295.7400000</ele>
        <time>2010-06-17T10:13:32Z</time>
      </trkpt>
      <trkpt lat="48.9667630" lon="9.4127000">
        <ele>298.6300000</ele>
        <time>2010-06-17T10:13:47Z</time>
      </trkpt>
      <trkpt lat="48.9667510" lon="9.4118150">
        <ele>300.0700000</ele>
        <time>2010-06-17T10:14:03Z</time>
      </trkpt>
      <trkpt lat="48.9667320" lon="9.4108970">
        <ele>301.9900000</ele>
        <time>2010-06-17T10:14:19Z</time>
      </trkpt>
      <trkpt lat="48.9667540" lon="9.4100220">
        <ele>303.4300000</ele>
        <time>2010-06-17T10:14:35Z</time>
      </trkpt>
      <trkpt lat="48.9668180" lon="9.4091450">
        <ele>305.8400000</ele>
        <time>2010-06-17T10:14:52Z</time>
      </trkpt>
      <trkpt lat="48.9667010" lon="9.4081730">
        <ele>303.9100000</ele>
        <time>2010-06-17T10:15:05Z</time>
      </trkpt>
      <trkpt lat="48.9666130" lon="9.4074950">
        <ele>300.5500000</ele>
        <time>2010-06-17T10:15:11Z</time>
      </trkpt>
      <trkpt lat="48.9666060" lon="9.4065480">
        <ele>297.1800000</ele>
        <time>2010-06-17T10:15:18Z</time>
      </trkpt>
      <trkpt lat="48.9666560" lon="9.4057070">
        <ele>294.7800000</ele>
        <time>2010-06-17T10:15:24Z</time>
      </trkpt>
      <trkpt lat="48.9667010" lon="9.4049660">
        <ele>291.4200000</ele>
        <time>2010-06-17T10:15:29Z</time>
      </trkpt>
      <trkpt lat="48.9667130" lon="9.4048110">
        <ele>290.9400000</ele>
        <time>2010-06-17T10:15:30Z</time>
      </trkpt>
      <trkpt lat="48.9667670" lon="9.4041900">
        <ele>288.0500000</ele>
        <time>2010-06-17T10:15:34Z</time>
      </trkpt>
      <trkpt lat="48.9668510" lon="9.4036040">
        <ele>284.6900000</ele>
        <time>2010-06-17T10:15:38Z</time>
      </trkpt>
      <trkpt lat="48.9668540" lon="9.4034530">
        <ele>283.7300000</ele>
        <time>2010-06-17T10:15:39Z</time>
      </trkpt>
      <trkpt lat="48.9668420" lon="9.4033070">
        <ele>283.2500000</ele>
        <time>2010-06-17T10:15:40Z</time>
      </trkpt>
      <trkpt lat="48.9668210" lon="9.4031640">
        <ele>282.2800000</ele>
        <time>2010-06-17T10:15:41Z</time>
      </trkpt>
      <trkpt lat="48.9667950" lon="9.4030140">
        <ele>281.3200000</ele>
        <time>2010-06-17T10:15:42Z</time>
      </trkpt>
      <trkpt lat="48.9667700" lon="9.4028620">
        <ele>281.3200000</ele>
        <time>2010-06-17T10:15:43Z</time>
      </trkpt>
      <trkpt lat="48.9667530" lon="9.4027050">
        <ele>279.8800000</ele>
        <time>2010-06-17T10:15:44Z</time>
      </trkpt>
      <trkpt lat="48.9667420" lon="9.4025470">
        <ele>279.8800000</ele>
        <time>2010-06-17T10:15:45Z</time>
      </trkpt>
      <trkpt lat="48.9667510" lon="9.4014610">
        <ele>277.9600000</ele>
        <time>2010-06-17T10:15:53Z</time>
      </trkpt>
      <trkpt lat="48.9667670" lon="9.4013440">
        <ele>277.9600000</ele>
        <time>2010-06-17T10:15:54Z</time>
      </trkpt>
      <trkpt lat="48.9668580" lon="9.4003710">
        <ele>277.0000000</ele>
        <time>2010-06-17T10:16:03Z</time>
      </trkpt>
      <trkpt lat="48.9668860" lon="9.4001940">
        <ele>276.0400000</ele>
        <time>2010-06-17T10:16:05Z</time>
      </trkpt>
      <trkpt lat="48.9668430" lon="9.3991630">
        <ele>277.4800000</ele>
        <time>2010-06-17T10:16:17Z</time>
      </trkpt>
      <trkpt lat="48.9667230" lon="9.3977500">
        <ele>276.5200000</ele>
        <time>2010-06-17T10:16:33Z</time>
      </trkpt>
      <trkpt lat="48.9667020" lon="9.3974810">
        <ele>277.0000000</ele>
        <time>2010-06-17T10:16:36Z</time>
      </trkpt>
      <trkpt lat="48.9666740" lon="9.3973120">
        <ele>277.0000000</ele>
        <time>2010-06-17T10:16:38Z</time>
      </trkpt>
      <trkpt lat="48.9666470" lon="9.3972520">
        <ele>277.0000000</ele>
        <time>2010-06-17T10:16:39Z</time>
      </trkpt>
      <trkpt lat="48.9666150" lon="9.3972050">
        <ele>276.5200000</ele>
        <time>2010-06-17T10:16:40Z</time>
      </trkpt>
      <trkpt lat="48.9665800" lon="9.3971740">
        <ele>277.0000000</ele>
        <time>2010-06-17T10:16:41Z</time>
      </trkpt>
      <trkpt lat="48.9665470" lon="9.3971470">
        <ele>277.4800000</ele>
        <time>2010-06-17T10:16:42Z</time>
      </trkpt>
      <trkpt lat="48.9665260" lon="9.3971160">
        <ele>277.0000000</ele>
        <time>2010-06-17T10:16:43Z</time>
      </trkpt>
      <trkpt lat="48.9665100" lon="9.3970750">
        <ele>277.4800000</ele>
        <time>2010-06-17T10:16:44Z</time>
      </trkpt>
      <trkpt lat="48.9664920" lon="9.3970350">
        <ele>277.4800000</ele>
        <time>2010-06-17T10:16:45Z</time>
      </trkpt>
      <trkpt lat="48.9664780" lon="9.3969940">
        <ele>277.4800000</ele>
        <time>2010-06-17T10:16:46Z</time>
      </trkpt>
      <trkpt lat="48.9664670" lon="9.3969510">
        <ele>277.0000000</ele>
        <time>2010-06-17T10:16:47Z</time>
      </trkpt>
      <trkpt lat="48.9664610" lon="9.3969090">
        <ele>277.0000000</ele>
        <time>2010-06-17T10:16:48Z</time>
      </trkpt>
      <trkpt lat="48.9664570" lon="9.3968630">
        <ele>277.0000000</ele>
        <time>2010-06-17T10:16:49Z</time>
      </trkpt>
      <trkpt lat="48.9664130" lon="9.3963010">
        <ele>277.0000000</ele>
        <time>2010-06-17T10:17:02Z</time>
      </trkpt>
      <trkpt lat="48.9664670" lon="9.3958080">
        <ele>277.9600000</ele>
        <time>2010-06-17T10:17:11Z</time>
      </trkpt>
      <trkpt lat="48.9664830" lon="9.3957440">
        <ele>277.9600000</ele>
        <time>2010-06-17T10:17:12Z</time>
      </trkpt>
      <trkpt lat="48.9664960" lon="9.3956770">
        <ele>277.9600000</ele>
        <time>2010-06-17T10:17:13Z</time>
      </trkpt>
      <trkpt lat="48.9665010" lon="9.3956110">
        <ele>277.4800000</ele>
        <time>2010-06-17T10:17:14Z</time>
      </trkpt>
      <trkpt lat="48.9665370" lon="9.3949750">
        <ele>279.4000000</ele>
        <time>2010-06-17T10:17:25Z</time>
      </trkpt>
      <trkpt lat="48.9665180" lon="9.3946090">
        <ele>278.4400000</ele>
        <time>2010-06-17T10:17:31Z</time>
      </trkpt>
      <trkpt lat="48.9665840" lon="9.3938700">
        <ele>281.3200000</ele>
        <time>2010-06-17T10:17:44Z</time>
      </trkpt>
      <trkpt lat="48.9666560" lon="9.3933350">
        <ele>284.2100000</ele>
        <time>2010-06-17T10:17:56Z</time>
      </trkpt>
      <trkpt lat="48.9665040" lon="9.3929360">
        <ele>286.6100000</ele>
        <time>2010-06-17T10:18:09Z</time>
      </trkpt>
      <trkpt lat="48.9664550" lon="9.3928110">
        <ele>287.5700000</ele>
        <time>2010-06-17T10:18:13Z</time>
      </trkpt>
      <trkpt lat="48.9664460" lon="9.3927760">
        <ele>287.5700000</ele>
        <time>2010-06-17T10:18:14Z</time>
      </trkpt>
      <trkpt lat="48.9662890" lon="9.3924030">
        <ele>290.9400000</ele>
        <time>2010-06-17T10:18:27Z</time>
      </trkpt>
      <trkpt lat="48.9660760" lon="9.3920930">
        <ele>294.3000000</ele>
        <time>2010-06-17T10:18:41Z</time>
      </trkpt>
      <trkpt lat="48.9658090" lon="9.3919400">
        <ele>296.2200000</ele>
        <time>2010-06-17T10:18:55Z</time>
      </trkpt>
      <trkpt lat="48.9656320" lon="9.3915900">
        <ele>298.6300000</ele>
        <time>2010-06-17T10:19:08Z</time>
      </trkpt>
      <trkpt lat="48.9656140" lon="9.3914660">
        <ele>299.1100000</ele>
        <time>2010-06-17T10:19:19Z</time>
      </trkpt>
      <trkpt lat="48.9655980" lon="9.3914730">
        <ele>299.5900000</ele>
        <time>2010-06-17T10:24:00Z</time>
      </trkpt>
      <trkpt lat="48.9655850" lon="9.3914650">
        <ele>300.0700000</ele>
        <time>2010-06-17T10:24:13Z</time>
      </trkpt>
      <trkpt lat="48.9655670" lon="9.3914500">
        <ele>299.5900000</ele>
        <time>2010-06-17T10:24:14Z</time>
      </trkpt>
      <trkpt lat="48.9655110" lon="9.3913910">
        <ele>299.5900000</ele>
        <time>2010-06-17T10:24:18Z</time>
      </trkpt>
      <trkpt lat="48.9655070" lon="9.3913690">
        <ele>300.0700000</ele>
        <time>2010-06-17T10:24:19Z</time>
      </trkpt>
      <trkpt lat="48.9655000" lon="9.3913460">
        <ele>299.5900000</ele>
        <time>2010-06-17T10:24:20Z</time>
      </trkpt>
      <trkpt lat="48.9654840" lon="9.3913230">
        <ele>299.5900000</ele>
        <time>2010-06-17T10:24:21Z</time>
      </trkpt>
      <trkpt lat="48.9654650" lon="9.3912980">
        <ele>299.5900000</ele>
        <time>2010-06-17T10:24:22Z</time>
      </trkpt>
      <trkpt lat="48.9651290" lon="9.3910970">
        <ele>300.5500000</ele>
        <time>2010-06-17T10:24:35Z</time>
      </trkpt>
      <trkpt lat="48.9649650" lon="9.3906980">
        <ele>301.5100000</ele>
        <time>2010-06-17T10:24:45Z</time>
      </trkpt>
      <trkpt lat="48.9648700" lon="9.3899790">
        <ele>301.5100000</ele>
        <time>2010-06-17T10:24:58Z</time>
      </trkpt>
      <trkpt lat="48.9647960" lon="9.3891890">
        <ele>301.9900000</ele>
        <time>2010-06-17T10:25:10Z</time>
      </trkpt>
      <trkpt lat="48.9647460" lon="9.3889000">
        <ele>302.4700000</ele>
        <time>2010-06-17T10:25:14Z</time>
      </trkpt>
      <trkpt lat="48.9647250" lon="9.3888300">
        <ele>302.4700000</ele>
        <time>2010-06-17T10:25:15Z</time>
      </trkpt>
      <trkpt lat="48.9646980" lon="9.3887650">
        <ele>302.4700000</ele>
        <time>2010-06-17T10:25:16Z</time>
      </trkpt>
      <trkpt lat="48.9646650" lon="9.3887020">
        <ele>302.9500000</ele>
        <time>2010-06-17T10:25:17Z</time>
      </trkpt>
      <trkpt lat="48.9646320" lon="9.3886360">
        <ele>301.9900000</ele>
        <time>2010-06-17T10:25:18Z</time>
      </trkpt>
      <trkpt lat="48.9646090" lon="9.3885610">
        <ele>301.9900000</ele>
        <time>2010-06-17T10:25:19Z</time>
      </trkpt>
      <trkpt lat="48.9645990" lon="9.3884780">
        <ele>301.9900000</ele>
        <time>2010-06-17T10:25:20Z</time>
      </trkpt>
      <trkpt lat="48.9645920" lon="9.3883950">
        <ele>301.9900000</ele>
        <time>2010-06-17T10:25:21Z</time>
      </trkpt>
      <trkpt lat="48.9645860" lon="9.3880700">
        <ele>302.4700000</ele>
        <time>2010-06-17T10:25:25Z</time>
      </trkpt>
      <trkpt lat="48.9645970" lon="9.3879920">
        <ele>302.9500000</ele>
        <time>2010-06-17T10:25:26Z</time>
      </trkpt>
      <trkpt lat="48.9646100" lon="9.3879180">
        <ele>302.9500000</ele>
        <time>2010-06-17T10:25:27Z</time>
      </trkpt>
      <trkpt lat="48.9646210" lon="9.3878460">
        <ele>302.9500000</ele>
        <time>2010-06-17T10:25:28Z</time>
      </trkpt>
      <trkpt lat="48.9646290" lon="9.3877730">
        <ele>303.4300000</ele>
        <time>2010-06-17T10:25:29Z</time>
      </trkpt>
      <trkpt lat="48.9646340" lon="9.3876990">
        <ele>302.9500000</ele>
        <time>2010-06-17T10:25:30Z</time>
      </trkpt>
      <trkpt lat="48.9646760" lon="9.3864640">
        <ele>304.3900000</ele>
        <time>2010-06-17T10:25:46Z</time>
      </trkpt>
      <trkpt lat="48.9646870" lon="9.3862300">
        <ele>306.3200000</ele>
        <time>2010-06-17T10:25:49Z</time>
      </trkpt>
      <trkpt lat="48.9647290" lon="9.3848200">
        <ele>307.2800000</ele>
        <time>2010-06-17T10:26:08Z</time>
      </trkpt>
      <trkpt lat="48.9645610" lon="9.3833730">
        <ele>304.3900000</ele>
        <time>2010-06-17T10:26:23Z</time>
      </trkpt>
      <trkpt lat="48.9643750" lon="9.3826970">
        <ele>302.4700000</ele>
        <time>2010-06-17T10:26:29Z</time>
      </trkpt>
      <trkpt lat="48.9638210" lon="9.3811710">
        <ele>300.0700000</ele>
        <time>2010-06-17T10:26:44Z</time>
      </trkpt>
      <trkpt lat="48.9636140" lon="9.3801950">
        <ele>298.1500000</ele>
        <time>2010-06-17T10:26:55Z</time>
      </trkpt>
      <trkpt lat="48.9635190" lon="9.3788210">
        <ele>295.2600000</ele>
        <time>2010-06-17T10:27:07Z</time>
      </trkpt>
      <trkpt lat="48.9634690" lon="9.3777770">
        <ele>291.9000000</ele>
        <time>2010-06-17T10:27:15Z</time>
      </trkpt>
      <trkpt lat="48.9634770" lon="9.3769220">
        <ele>289.0100000</ele>
        <time>2010-06-17T10:27:21Z</time>
      </trkpt>
      <trkpt lat="48.9634890" lon="9.3764730">
        <ele>287.5700000</ele>
        <time>2010-06-17T10:27:24Z</time>
      </trkpt>
      <trkpt lat="48.9635030" lon="9.3758650">
        <ele>286.1300000</ele>
        <time>2010-06-17T10:27:28Z</time>
      </trkpt>
      <trkpt lat="48.9634090" lon="9.3740430">
        <ele>285.6500000</ele>
        <time>2010-06-17T10:27:42Z</time>
      </trkpt>
      <trkpt lat="48.9632780" lon="9.3730460">
        <ele>287.5700000</ele>
        <time>2010-06-17T10:27:52Z</time>
      </trkpt>
      <trkpt lat="48.9632510" lon="9.3729770">
        <ele>287.5700000</ele>
        <time>2010-06-17T10:27:53Z</time>
      </trkpt>
      <trkpt lat="48.9632130" lon="9.3729280">
        <ele>287.5700000</ele>
        <time>2010-06-17T10:27:54Z</time>
      </trkpt>
      <trkpt lat="48.9631680" lon="9.3729050">
        <ele>287.5700000</ele>
        <time>2010-06-17T10:27:55Z</time>
      </trkpt>
      <trkpt lat="48.9631220" lon="9.3729030">
        <ele>287.5700000</ele>
        <time>2010-06-17T10:27:56Z</time>
      </trkpt>
      <trkpt lat="48.9630770" lon="9.3729040">
        <ele>288.5300000</ele>
        <time>2010-06-17T10:27:57Z</time>
      </trkpt>
      <trkpt lat="48.9624250" lon="9.3728820">
        <ele>290.9400000</ele>
        <time>2010-06-17T10:28:14Z</time>
      </trkpt>
      <trkpt lat="48.9617700" lon="9.3728090">
        <ele>293.8200000</ele>
        <time>2010-06-17T10:28:34Z</time>
      </trkpt>
      <trkpt lat="48.9611200" lon="9.3727080">
        <ele>294.7800000</ele>
        <time>2010-06-17T10:28:53Z</time>
      </trkpt>
      <trkpt lat="48.9603040" lon="9.3724310">
        <ele>293.8200000</ele>
        <time>2010-06-17T10:29:09Z</time>
      </trkpt>
      <trkpt lat="48.9600320" lon="9.3724150">
        <ele>294.7800000</ele>
        <time>2010-06-17T10:29:15Z</time>
      </trkpt>
      <trkpt lat="48.9600020" lon="9.3724230">
        <ele>294.7800000</ele>
        <time>2010-06-17T10:29:25Z</time>
      </trkpt>
      <trkpt lat="48.9600270" lon="9.3724700">
        <ele>294.7800000</ele>
        <time>2010-06-17T10:29:28Z</time>
      </trkpt>
      <trkpt lat="48.9604420" lon="9.3724340">
        <ele>295.2600000</ele>
        <time>2010-06-17T10:29:40Z</time>
      </trkpt>
      <trkpt lat="48.9605060" lon="9.3723540">
        <ele>295.2600000</ele>
        <time>2010-06-17T10:29:43Z</time>
      </trkpt>
      <trkpt lat="48.9605190" lon="9.3723080">
        <ele>294.7800000</ele>
        <time>2010-06-17T10:29:44Z</time>
      </trkpt>
      <trkpt lat="48.9605280" lon="9.3722530">
        <ele>295.2600000</ele>
        <time>2010-06-17T10:29:45Z</time>
      </trkpt>
      <trkpt lat="48.9606260" lon="9.3711190">
        <ele>295.7400000</ele>
        <time>2010-06-17T10:30:03Z</time>
      </trkpt>
      <trkpt lat="48.9607100" lon="9.3700810">
        <ele>297.6700000</ele>
        <time>2010-06-17T10:30:20Z</time>
      </trkpt>
      <trkpt lat="48.9607930" lon="9.3690910">
        <ele>300.0700000</ele>
        <time>2010-06-17T10:30:37Z</time>
      </trkpt>
      <trkpt lat="48.9608700" lon="9.3680870">
        <ele>301.5100000</ele>
        <time>2010-06-17T10:30:55Z</time>
      </trkpt>
      <trkpt lat="48.9609560" lon="9.3669910">
        <ele>303.9100000</ele>
        <time>2010-06-17T10:31:15Z</time>
      </trkpt>
      <trkpt lat="48.9609930" lon="9.3661160">
        <ele>306.3200000</ele>
        <time>2010-06-17T10:31:33Z</time>
      </trkpt>
      <trkpt lat="48.9608350" lon="9.3654640">
        <ele>308.7200000</ele>
        <time>2010-06-17T10:31:49Z</time>
      </trkpt>
      <trkpt lat="48.9606790" lon="9.3648120">
        <ele>311.6000000</ele>
        <time>2010-06-17T10:32:07Z</time>
      </trkpt>
      <trkpt lat="48.9605610" lon="9.3643340">
        <ele>314.9700000</ele>
        <time>2010-06-17T10:32:23Z</time>
      </trkpt>
      <trkpt lat="48.9604500" lon="9.3638900">
        <ele>317.8500000</ele>
        <time>2010-06-17T10:32:38Z</time>
      </trkpt>
      <trkpt lat="48.9603790" lon="9.3634070">
        <ele>319.7800000</ele>
        <time>2010-06-17T10:32:53Z</time>
      </trkpt>
      <trkpt lat="48.9603700" lon="9.3626850">
        <ele>321.7000000</ele>
        <time>2010-06-17T10:33:12Z</time>
      </trkpt>
      <trkpt lat="48.9603540" lon="9.3620540">
        <ele>324.1000000</ele>
        <time>2010-06-17T10:33:28Z</time>
      </trkpt>
      <trkpt lat="48.9603320" lon="9.3611920">
        <ele>326.9900000</ele>
        <time>2010-06-17T10:33:50Z</time>
      </trkpt>
      <trkpt lat="48.9603130" lon="9.3604900">
        <ele>329.8700000</ele>
        <time>2010-06-17T10:34:08Z</time>
      </trkpt>
      <trkpt lat="48.9602870" lon="9.3598150">
        <ele>333.2300000</ele>
        <time>2010-06-17T10:34:26Z</time>
      </trkpt>
      <trkpt lat="48.9602980" lon="9.3591610">
        <ele>336.1200000</ele>
        <time>2010-06-17T10:34:44Z</time>
      </trkpt>
      <trkpt lat="48.9603310" lon="9.3591170">
        <ele>336.1200000</ele>
        <time>2010-06-17T10:34:46Z</time>
      </trkpt>
      <trkpt lat="48.9603530" lon="9.3591110">
        <ele>336.6000000</ele>
        <time>2010-06-17T10:34:47Z</time>
      </trkpt>
      <trkpt lat="48.9603760" lon="9.3591150">
        <ele>336.6000000</ele>
        <time>2010-06-17T10:34:48Z</time>
      </trkpt>
      <trkpt lat="48.9604020" lon="9.3591260">
        <ele>336.1200000</ele>
        <time>2010-06-17T10:34:49Z</time>
      </trkpt>
      <trkpt lat="48.9604300" lon="9.3591400">
        <ele>336.6000000</ele>
        <time>2010-06-17T10:34:50Z</time>
      </trkpt>
      <trkpt lat="48.9604580" lon="9.3591550">
        <ele>336.6000000</ele>
        <time>2010-06-17T10:34:51Z</time>
      </trkpt>
      <trkpt lat="48.9609640" lon="9.3593800">
        <ele>335.6400000</ele>
        <time>2010-06-17T10:35:05Z</time>
      </trkpt>
      <trkpt lat="48.9610810" lon="9.3594110">
        <ele>335.6400000</ele>
        <time>2010-06-17T10:35:08Z</time>
      </trkpt>
      <trkpt lat="48.9611170" lon="9.3593880">
        <ele>335.6400000</ele>
        <time>2010-06-17T10:35:09Z</time>
      </trkpt>
      <trkpt lat="48.9611430" lon="9.3593450">
        <ele>335.6400000</ele>
        <time>2010-06-17T10:35:10Z</time>
      </trkpt>
      <trkpt lat="48.9611640" lon="9.3592910">
        <ele>335.6400000</ele>
        <time>2010-06-17T10:35:11Z</time>
      </trkpt>
      <trkpt lat="48.9611820" lon="9.3592350">
        <ele>335.6400000</ele>
        <time>2010-06-17T10:35:12Z</time>
      </trkpt>
      <trkpt lat="48.9611980" lon="9.3591800">
        <ele>336.1200000</ele>
        <time>2010-06-17T10:35:13Z</time>
      </trkpt>
      <trkpt lat="48.9614890" lon="9.3579200">
        <ele>335.1600000</ele>
        <time>2010-06-17T10:35:34Z</time>
      </trkpt>
      <trkpt lat="48.9617160" lon="9.3569310">
        <ele>333.7100000</ele>
        <time>2010-06-17T10:35:48Z</time>
      </trkpt>
      <trkpt lat="48.9619710" lon="9.3558330">
        <ele>330.8300000</ele>
        <time>2010-06-17T10:36:01Z</time>
      </trkpt>
      <trkpt lat="48.9621520" lon="9.3550450">
        <ele>328.4300000</ele>
        <time>2010-06-17T10:36:09Z</time>
      </trkpt>
      <trkpt lat="48.9623170" lon="9.3545760">
        <ele>325.0600000</ele>
        <time>2010-06-17T10:36:17Z</time>
      </trkpt>
      <trkpt lat="48.9623580" lon="9.3545600">
        <ele>324.5800000</ele>
        <time>2010-06-17T10:36:18Z</time>
      </trkpt>
      <trkpt lat="48.9624030" lon="9.3545560">
        <ele>324.5800000</ele>
        <time>2010-06-17T10:36:19Z</time>
      </trkpt>
      <trkpt lat="48.9628470" lon="9.3545540">
        <ele>321.2200000</ele>
        <time>2010-06-17T10:36:26Z</time>
      </trkpt>
      <trkpt lat="48.9632660" lon="9.3545430">
        <ele>318.3300000</ele>
        <time>2010-06-17T10:36:31Z</time>
      </trkpt>
      <trkpt lat="48.9633470" lon="9.3545110">
        <ele>317.8500000</ele>
        <time>2010-06-17T10:36:32Z</time>
      </trkpt>
      <trkpt lat="48.9635610" lon="9.3543680">
        <ele>318.3300000</ele>
        <time>2010-06-17T10:36:35Z</time>
      </trkpt>
      <trkpt lat="48.9636010" lon="9.3542820">
        <ele>318.3300000</ele>
        <time>2010-06-17T10:36:36Z</time>
      </trkpt>
      <trkpt lat="48.9636090" lon="9.3541840">
        <ele>318.3300000</ele>
        <time>2010-06-17T10:36:37Z</time>
      </trkpt>
      <trkpt lat="48.9636040" lon="9.3540820">
        <ele>318.3300000</ele>
        <time>2010-06-17T10:36:38Z</time>
      </trkpt>
      <trkpt lat="48.9635980" lon="9.3539790">
        <ele>318.3300000</ele>
        <time>2010-06-17T10:36:39Z</time>
      </trkpt>
      <trkpt lat="48.9635230" lon="9.3532190">
        <ele>317.8500000</ele>
        <time>2010-06-17T10:36:47Z</time>
      </trkpt>
      <trkpt lat="48.9634990" lon="9.3531400">
        <ele>317.8500000</ele>
        <time>2010-06-17T10:36:48Z</time>
      </trkpt>
      <trkpt lat="48.9630580" lon="9.3519430">
        <ele>315.9300000</ele>
        <time>2010-06-17T10:37:03Z</time>
      </trkpt>
      <trkpt lat="48.9625210" lon="9.3503900">
        <ele>312.5700000</ele>
        <time>2010-06-17T10:37:20Z</time>
      </trkpt>
      <trkpt lat="48.9623330" lon="9.3498130">
        <ele>311.6000000</ele>
        <time>2010-06-17T10:37:26Z</time>
      </trkpt>
      <trkpt lat="48.9623140" lon="9.3497050">
        <ele>311.1200000</ele>
        <time>2010-06-17T10:37:27Z</time>
      </trkpt>
      <trkpt lat="48.9621110" lon="9.3479480">
        <ele>307.7600000</ele>
        <time>2010-06-17T10:37:42Z</time>
      </trkpt>
      <trkpt lat="48.9620860" lon="9.3475930">
        <ele>307.7600000</ele>
        <time>2010-06-17T10:37:45Z</time>
      </trkpt>
      <trkpt lat="48.9621020" lon="9.3461460">
        <ele>304.8800000</ele>
        <time>2010-06-17T10:37:57Z</time>
      </trkpt>
      <trkpt lat="48.9621070" lon="9.3456330">
        <ele>303.4300000</ele>
        <time>2010-06-17T10:38:04Z</time>
      </trkpt>
      <trkpt lat="48.9620980" lon="9.3454640">
        <ele>302.4700000</ele>
        <time>2010-06-17T10:38:12Z</time>
      </trkpt>
      <trkpt lat="48.9621180" lon="9.3450040">
        <ele>301.5100000</ele>
        <time>2010-06-17T10:38:25Z</time>
      </trkpt>
      <trkpt lat="48.9621250" lon="9.3449220">
        <ele>301.5100000</ele>
        <time>2010-06-17T10:38:33Z</time>
      </trkpt>
      <trkpt lat="48.9621260" lon="9.3448920">
        <ele>301.9900000</ele>
        <time>2010-06-17T10:38:34Z</time>
      </trkpt>
      <trkpt lat="48.9621260" lon="9.3448540">
        <ele>301.5100000</ele>
        <time>2010-06-17T10:38:35Z</time>
      </trkpt>
      <trkpt lat="48.9621490" lon="9.3442320">
        <ele>300.0700000</ele>
        <time>2010-06-17T10:38:44Z</time>
      </trkpt>
      <trkpt lat="48.9621580" lon="9.3441480">
        <ele>300.0700000</ele>
        <time>2010-06-17T10:38:45Z</time>
      </trkpt>
      <trkpt lat="48.9622670" lon="9.3427220">
        <ele>298.1500000</ele>
        <time>2010-06-17T10:39:00Z</time>
      </trkpt>
      <trkpt lat="48.9623050" lon="9.3420720">
        <ele>300.0700000</ele>
        <time>2010-06-17T10:39:08Z</time>
      </trkpt>
      <trkpt lat="48.9622960" lon="9.3420070">
        <ele>300.0700000</ele>
        <time>2010-06-17T10:39:09Z</time>
      </trkpt>
      <trkpt lat="48.9622830" lon="9.3419470">
        <ele>300.0700000</ele>
        <time>2010-06-17T10:39:10Z</time>
      </trkpt>
      <trkpt lat="48.9622670" lon="9.3418910">
        <ele>300.5500000</ele>
        <time>2010-06-17T10:39:11Z</time>
      </trkpt>
      <trkpt lat="48.9622490" lon="9.3418360">
        <ele>300.5500000</ele>
        <time>2010-06-17T10:39:12Z</time>
      </trkpt>
      <trkpt lat="48.9621910" lon="9.3416780">
        <ele>301.5100000</ele>
        <time>2010-06-17T10:39:15Z</time>
      </trkpt>
      <trkpt lat="48.9619110" lon="9.3409310">
        <ele>305.3600000</ele>
        <time>2010-06-17T10:39:30Z</time>
      </trkpt>
      <trkpt lat="48.9615580" lon="9.3405600">
        <ele>306.8000000</ele>
        <time>2010-06-17T10:39:43Z</time>
      </trkpt>
      <trkpt lat="48.9612570" lon="9.3395830">
        <ele>307.2800000</ele>
        <time>2010-06-17T10:40:02Z</time>
      </trkpt>
      <trkpt lat="48.9611760" lon="9.3387570">
        <ele>308.2400000</ele>
        <time>2010-06-17T10:40:17Z</time>
      </trkpt>
      <trkpt lat="48.9611350" lon="9.3381610">
        <ele>307.2800000</ele>
        <time>2010-06-17T10:40:27Z</time>
      </trkpt>
      <trkpt lat="48.9610830" lon="9.3373840">
        <ele>304.8800000</ele>
        <time>2010-06-17T10:40:38Z</time>
      </trkpt>
      <trkpt lat="48.9610610" lon="9.3373250">
        <ele>304.3900000</ele>
        <time>2010-06-17T10:40:39Z</time>
      </trkpt>
      <trkpt lat="48.9610240" lon="9.3372780">
        <ele>303.9100000</ele>
        <time>2010-06-17T10:40:40Z</time>
      </trkpt>
      <trkpt lat="48.9609780" lon="9.3372420">
        <ele>303.9100000</ele>
        <time>2010-06-17T10:40:41Z</time>
      </trkpt>
      <trkpt lat="48.9609270" lon="9.3372110">
        <ele>303.9100000</ele>
        <time>2010-06-17T10:40:42Z</time>
      </trkpt>
      <trkpt lat="48.9605020" lon="9.3369260">
        <ele>300.5500000</ele>
        <time>2010-06-17T10:40:49Z</time>
      </trkpt>
      <trkpt lat="48.9604310" lon="9.3368760">
        <ele>300.5500000</ele>
        <time>2010-06-17T10:40:50Z</time>
      </trkpt>
      <trkpt lat="48.9594190" lon="9.3361710">
        <ele>298.6300000</ele>
        <time>2010-06-17T10:41:05Z</time>
      </trkpt>
      <trkpt lat="48.9593820" lon="9.3361010">
        <ele>298.6300000</ele>
        <time>2010-06-17T10:41:06Z</time>
      </trkpt>
      <trkpt lat="48.9593580" lon="9.3360170">
        <ele>298.1500000</ele>
        <time>2010-06-17T10:41:07Z</time>
      </trkpt>
      <trkpt lat="48.9593400" lon="9.3359220">
        <ele>297.6700000</ele>
        <time>2010-06-17T10:41:08Z</time>
      </trkpt>
      <trkpt lat="48.9593210" lon="9.3358140">
        <ele>296.7000000</ele>
        <time>2010-06-17T10:41:09Z</time>
      </trkpt>
      <trkpt lat="48.9592160" lon="9.3352490">
        <ele>294.7800000</ele>
        <time>2010-06-17T10:41:14Z</time>
      </trkpt>
      <trkpt lat="48.9591280" lon="9.3348970">
        <ele>293.8200000</ele>
        <time>2010-06-17T10:41:22Z</time>
      </trkpt>
      <trkpt lat="48.9590690" lon="9.3345590">
        <ele>292.8600000</ele>
        <time>2010-06-17T10:41:33Z</time>
      </trkpt>
      <trkpt lat="48.9588860" lon="9.3336070">
        <ele>291.4200000</ele>
        <time>2010-06-17T10:41:45Z</time>
      </trkpt>
      <trkpt lat="48.9588770" lon="9.3335170">
        <ele>290.9400000</ele>
        <time>2010-06-17T10:41:46Z</time>
      </trkpt>
      <trkpt lat="48.9588640" lon="9.3327160">
        <ele>287.5700000</ele>
        <time>2010-06-17T10:41:54Z</time>
      </trkpt>
      <trkpt lat="48.9588130" lon="9.3317110">
        <ele>285.1700000</ele>
        <time>2010-06-17T10:42:03Z</time>
      </trkpt>
      <trkpt lat="48.9585360" lon="9.3302700">
        <ele>282.2800000</ele>
        <time>2010-06-17T10:42:15Z</time>
      </trkpt>
      <trkpt lat="48.9585140" lon="9.3300400">
        <ele>281.8000000</ele>
        <time>2010-06-17T10:42:17Z</time>
      </trkpt>
      <trkpt lat="48.9584140" lon="9.3293550">
        <ele>280.3600000</ele>
        <time>2010-06-17T10:42:24Z</time>
      </trkpt>
      <trkpt lat="48.9584140" lon="9.3292580">
        <ele>280.8400000</ele>
        <time>2010-06-17T10:42:25Z</time>
      </trkpt>
      <trkpt lat="48.9584160" lon="9.3291640">
        <ele>280.8400000</ele>
        <time>2010-06-17T10:42:26Z</time>
      </trkpt>
      <trkpt lat="48.9584130" lon="9.3290720">
        <ele>280.8400000</ele>
        <time>2010-06-17T10:42:27Z</time>
      </trkpt>
      <trkpt lat="48.9584050" lon="9.3289810">
        <ele>280.3600000</ele>
        <time>2010-06-17T10:42:28Z</time>
      </trkpt>
      <trkpt lat="48.9583730" lon="9.3285820">
        <ele>280.3600000</ele>
        <time>2010-06-17T10:42:33Z</time>
      </trkpt>
      <trkpt lat="48.9583530" lon="9.3285070">
        <ele>280.3600000</ele>
        <time>2010-06-17T10:42:34Z</time>
      </trkpt>
      <trkpt lat="48.9583290" lon="9.3284340">
        <ele>280.3600000</ele>
        <time>2010-06-17T10:42:35Z</time>
      </trkpt>
      <trkpt lat="48.9583020" lon="9.3283680">
        <ele>280.8400000</ele>
        <time>2010-06-17T10:42:36Z</time>
      </trkpt>
      <trkpt lat="48.9582710" lon="9.3283070">
        <ele>280.8400000</ele>
        <time>2010-06-17T10:42:37Z</time>
      </trkpt>
      <trkpt lat="48.9582400" lon="9.3282460">
        <ele>280.8400000</ele>
        <time>2010-06-17T10:42:38Z</time>
      </trkpt>
      <trkpt lat="48.9582110" lon="9.3281870">
        <ele>280.8400000</ele>
        <time>2010-06-17T10:42:39Z</time>
      </trkpt>
      <trkpt lat="48.9578960" lon="9.3276060">
        <ele>281.8000000</ele>
        <time>2010-06-17T10:42:49Z</time>
      </trkpt>
      <trkpt lat="48.9576640" lon="9.3270230">
        <ele>282.2800000</ele>
        <time>2010-06-17T10:42:59Z</time>
      </trkpt>
      <trkpt lat="48.9576380" lon="9.3269760">
        <ele>282.2800000</ele>
        <time>2010-06-17T10:43:00Z</time>
      </trkpt>
      <trkpt lat="48.9576080" lon="9.3269270">
        <ele>282.7700000</ele>
        <time>2010-06-17T10:43:01Z</time>
      </trkpt>
      <trkpt lat="48.9575830" lon="9.3268710">
        <ele>282.2800000</ele>
        <time>2010-06-17T10:43:02Z</time>
      </trkpt>
      <trkpt lat="48.9575630" lon="9.3268090">
        <ele>281.8000000</ele>
        <time>2010-06-17T10:43:03Z</time>
      </trkpt>
      <trkpt lat="48.9575430" lon="9.3267460">
        <ele>280.8400000</ele>
        <time>2010-06-17T10:43:04Z</time>
      </trkpt>
      <trkpt lat="48.9575250" lon="9.3266880">
        <ele>280.3600000</ele>
        <time>2010-06-17T10:43:05Z</time>
      </trkpt>
      <trkpt lat="48.9574700" lon="9.3265330">
        <ele>278.9200000</ele>
        <time>2010-06-17T10:43:08Z</time>
      </trkpt>
      <trkpt lat="48.9574620" lon="9.3264550">
        <ele>277.9600000</ele>
        <time>2010-06-17T10:43:09Z</time>
      </trkpt>
      <trkpt lat="48.9574610" lon="9.3263690">
        <ele>277.4800000</ele>
        <time>2010-06-17T10:43:10Z</time>
      </trkpt>
      <trkpt lat="48.9574660" lon="9.3262840">
        <ele>277.4800000</ele>
        <time>2010-06-17T10:43:11Z</time>
      </trkpt>
      <trkpt lat="48.9574780" lon="9.3262020">
        <ele>277.0000000</ele>
        <time>2010-06-17T10:43:12Z</time>
      </trkpt>
      <trkpt lat="48.9575000" lon="9.3261230">
        <ele>276.5200000</ele>
        <time>2010-06-17T10:43:13Z</time>
      </trkpt>
      <trkpt lat="48.9575320" lon="9.3260490">
        <ele>276.0400000</ele>
        <time>2010-06-17T10:43:14Z</time>
      </trkpt>
      <trkpt lat="48.9575760" lon="9.3259810">
        <ele>276.0400000</ele>
        <time>2010-06-17T10:43:15Z</time>
      </trkpt>
      <trkpt lat="48.9576240" lon="9.3259200">
        <ele>275.0700000</ele>
        <time>2010-06-17T10:43:16Z</time>
      </trkpt>
      <trkpt lat="48.9576750" lon="9.3258640">
        <ele>275.0700000</ele>
        <time>2010-06-17T10:43:17Z</time>
      </trkpt>
      <trkpt lat="48.9581380" lon="9.3254620">
        <ele>273.6300000</ele>
        <time>2010-06-17T10:43:26Z</time>
      </trkpt>
      <trkpt lat="48.9581720" lon="9.3253740">
        <ele>273.1500000</ele>
        <time>2010-06-17T10:43:29Z</time>
      </trkpt>
      <trkpt lat="48.9581860" lon="9.3253700">
        <ele>273.6300000</ele>
        <time>2010-06-17T10:43:30Z</time>
      </trkpt>
      <trkpt lat="48.9585090" lon="9.3253730">
        <ele>273.6300000</ele>
        <time>2010-06-17T10:43:40Z</time>
      </trkpt>
      <trkpt lat="48.9588680" lon="9.3252450">
        <ele>275.0700000</ele>
        <time>2010-06-17T10:43:50Z</time>
      </trkpt>
      <trkpt lat="48.9588810" lon="9.3251990">
        <ele>274.5900000</ele>
        <time>2010-06-17T10:43:51Z</time>
      </trkpt>
      <trkpt lat="48.9588800" lon="9.3251540">
        <ele>274.5900000</ele>
        <time>2010-06-17T10:43:52Z</time>
      </trkpt>
      <trkpt lat="48.9588720" lon="9.3251100">
        <ele>275.0700000</ele>
        <time>2010-06-17T10:43:53Z</time>
      </trkpt>
      <trkpt lat="48.9588650" lon="9.3250660">
        <ele>275.5600000</ele>
        <time>2010-06-17T10:43:54Z</time>
      </trkpt>
      <trkpt lat="48.9588600" lon="9.3250200">
        <ele>275.0700000</ele>
        <time>2010-06-17T10:43:55Z</time>
      </trkpt>
      <trkpt lat="48.9588510" lon="9.3249740">
        <ele>275.0700000</ele>
        <time>2010-06-17T10:43:56Z</time>
      </trkpt>
      <trkpt lat="48.9588410" lon="9.3249260">
        <ele>275.0700000</ele>
        <time>2010-06-17T10:43:57Z</time>
      </trkpt>
      <trkpt lat="48.9588330" lon="9.3248720">
        <ele>275.0700000</ele>
        <time>2010-06-17T10:43:58Z</time>
      </trkpt>
      <trkpt lat="48.9588160" lon="9.3246980">
        <ele>274.5900000</ele>
        <time>2010-06-17T10:44:01Z</time>
      </trkpt>
      <trkpt lat="48.9588230" lon="9.3246380">
        <ele>274.5900000</ele>
        <time>2010-06-17T10:44:02Z</time>
      </trkpt>
      <trkpt lat="48.9588390" lon="9.3245830">
        <ele>275.0700000</ele>
        <time>2010-06-17T10:44:03Z</time>
      </trkpt>
      <trkpt lat="48.9588580" lon="9.3245290">
        <ele>275.0700000</ele>
        <time>2010-06-17T10:44:04Z</time>
      </trkpt>
      <trkpt lat="48.9588770" lon="9.3244740">
        <ele>274.5900000</ele>
        <time>2010-06-17T10:44:05Z</time>
      </trkpt>
      <trkpt lat="48.9588870" lon="9.3244170">
        <ele>275.0700000</ele>
        <time>2010-06-17T10:44:06Z</time>
      </trkpt>
      <trkpt lat="48.9588770" lon="9.3243570">
        <ele>274.5900000</ele>
        <time>2010-06-17T10:44:07Z</time>
      </trkpt>
      <trkpt lat="48.9588530" lon="9.3242980">
        <ele>274.1100000</ele>
        <time>2010-06-17T10:44:08Z</time>
      </trkpt>
      <trkpt lat="48.9588270" lon="9.3242390">
        <ele>274.1100000</ele>
        <time>2010-06-17T10:44:09Z</time>
      </trkpt>
      <trkpt lat="48.9587990" lon="9.3241760">
        <ele>274.1100000</ele>
        <time>2010-06-17T10:44:10Z</time>
      </trkpt>
      <trkpt lat="48.9587690" lon="9.3241120">
        <ele>274.1100000</ele>
        <time>2010-06-17T10:44:11Z</time>
      </trkpt>
      <trkpt lat="48.9587390" lon="9.3240470">
        <ele>274.1100000</ele>
        <time>2010-06-17T10:44:12Z</time>
      </trkpt>
      <trkpt lat="48.9587050" lon="9.3239860">
        <ele>273.6300000</ele>
        <time>2010-06-17T10:44:13Z</time>
      </trkpt>
      <trkpt lat="48.9586710" lon="9.3239260">
        <ele>273.6300000</ele>
        <time>2010-06-17T10:44:14Z</time>
      </trkpt>
      <trkpt lat="48.9586070" lon="9.3238100">
        <ele>273.6300000</ele>
        <time>2010-06-17T10:44:16Z</time>
      </trkpt>
      <trkpt lat="48.9585680" lon="9.3237550">
        <ele>273.1500000</ele>
        <time>2010-06-17T10:44:17Z</time>
      </trkpt>
      <trkpt lat="48.9585290" lon="9.3237020">
        <ele>273.1500000</ele>
        <time>2010-06-17T10:44:18Z</time>
      </trkpt>
      <trkpt lat="48.9584660" lon="9.3235840">
        <ele>273.6300000</ele>
        <time>2010-06-17T10:44:20Z</time>
      </trkpt>
      <trkpt lat="48.9584360" lon="9.3235200">
        <ele>273.1500000</ele>
        <time>2010-06-17T10:44:21Z</time>
      </trkpt>
      <trkpt lat="48.9581640" lon="9.3228460">
        <ele>273.6300000</ele>
        <time>2010-06-17T10:44:31Z</time>
      </trkpt>
      <trkpt lat="48.9581170" lon="9.3225710">
        <ele>273.6300000</ele>
        <time>2010-06-17T10:44:35Z</time>
      </trkpt>
      <trkpt lat="48.9581050" lon="9.3225120">
        <ele>273.6300000</ele>
        <time>2010-06-17T10:44:36Z</time>
      </trkpt>
      <trkpt lat="48.9580990" lon="9.3224520">
        <ele>273.6300000</ele>
        <time>2010-06-17T10:44:37Z</time>
      </trkpt>
      <trkpt lat="48.9579960" lon="9.3220110">
        <ele>276.0400000</ele>
        <time>2010-06-17T10:44:47Z</time>
      </trkpt>
      <trkpt lat="48.9576290" lon="9.3215310">
        <ele>278.4400000</ele>
        <time>2010-06-17T10:45:01Z</time>
      </trkpt>
      <trkpt lat="48.9572250" lon="9.3210760">
        <ele>279.4000000</ele>
        <time>2010-06-17T10:45:17Z</time>
      </trkpt>
      <trkpt lat="48.9567330" lon="9.3204040">
        <ele>277.9600000</ele>
        <time>2010-06-17T10:45:31Z</time>
      </trkpt>
      <trkpt lat="48.9561560" lon="9.3193480">
        <ele>276.0400000</ele>
        <time>2010-06-17T10:45:46Z</time>
      </trkpt>
      <trkpt lat="48.9560730" lon="9.3192130">
        <ele>275.5600000</ele>
        <time>2010-06-17T10:45:48Z</time>
      </trkpt>
      <trkpt lat="48.9560310" lon="9.3191480">
        <ele>276.0400000</ele>
        <time>2010-06-17T10:45:49Z</time>
      </trkpt>
      <trkpt lat="48.9554630" lon="9.3182250">
        <ele>277.0000000</ele>
        <time>2010-06-17T10:46:04Z</time>
      </trkpt>
      <trkpt lat="48.9554260" lon="9.3181680">
        <ele>274.1100000</ele>
        <time>2010-06-17T10:46:05Z</time>
      </trkpt>
      <trkpt lat="48.9553880" lon="9.3181080">
        <ele>275.5600000</ele>
        <time>2010-06-17T10:46:06Z</time>
      </trkpt>
      <trkpt lat="48.9552290" lon="9.3178640">
        <ele>276.0400000</ele>
        <time>2010-06-17T10:46:10Z</time>
      </trkpt>
      <trkpt lat="48.9546770" lon="9.3170290">
        <ele>277.4800000</ele>
        <time>2010-06-17T10:46:24Z</time>
      </trkpt>
      <trkpt lat="48.9546430" lon="9.3169760">
        <ele>277.9600000</ele>
        <time>2010-06-17T10:46:25Z</time>
      </trkpt>
      <trkpt lat="48.9545930" lon="9.3166020">
        <ele>279.4000000</ele>
        <time>2010-06-17T10:46:32Z</time>
      </trkpt>
      <trkpt lat="48.9548550" lon="9.3162550">
        <ele>282.7700000</ele>
        <time>2010-06-17T10:46:44Z</time>
      </trkpt>
      <trkpt lat="48.9551340" lon="9.3160240">
        <ele>286.1300000</ele>
        <time>2010-06-17T10:46:57Z</time>
      </trkpt>
      <trkpt lat="48.9554290" lon="9.3156760">
        <ele>288.5300000</ele>
        <time>2010-06-17T10:47:12Z</time>
      </trkpt>
      <trkpt lat="48.9556130" lon="9.3154060">
        <ele>287.5700000</ele>
        <time>2010-06-17T10:47:21Z</time>
      </trkpt>
      <trkpt lat="48.9555710" lon="9.3151800">
        <ele>288.0500000</ele>
        <time>2010-06-17T10:47:26Z</time>
      </trkpt>
      <trkpt lat="48.9551410" lon="9.3143170">
        <ele>286.1300000</ele>
        <time>2010-06-17T10:47:43Z</time>
      </trkpt>
      <trkpt lat="48.9546980" lon="9.3134310">
        <ele>284.2100000</ele>
        <time>2010-06-17T10:47:56Z</time>
      </trkpt>
      <trkpt lat="48.9544160" lon="9.3125950">
        <ele>281.3200000</ele>
        <time>2010-06-17T10:48:05Z</time>
      </trkpt>
      <trkpt lat="48.9542630" lon="9.3121310">
        <ele>279.4000000</ele>
        <time>2010-06-17T10:48:09Z</time>
      </trkpt>
      <trkpt lat="48.9538330" lon="9.3108740">
        <ele>278.4400000</ele>
        <time>2010-06-17T10:48:20Z</time>
      </trkpt>
      <trkpt lat="48.9534820" lon="9.3093590">
        <ele>275.0700000</ele>
        <time>2010-06-17T10:48:34Z</time>
      </trkpt>
      <trkpt lat="48.9534460" lon="9.3092610">
        <ele>274.5900000</ele>
        <time>2010-06-17T10:48:35Z</time>
      </trkpt>
      <trkpt lat="48.9534000" lon="9.3091740">
        <ele>275.0700000</ele>
        <time>2010-06-17T10:48:36Z</time>
      </trkpt>
      <trkpt lat="48.9533490" lon="9.3091000">
        <ele>275.0700000</ele>
        <time>2010-06-17T10:48:37Z</time>
      </trkpt>
      <trkpt lat="48.9532970" lon="9.3090410">
        <ele>275.0700000</ele>
        <time>2010-06-17T10:48:38Z</time>
      </trkpt>
      <trkpt lat="48.9532480" lon="9.3089960">
        <ele>275.5600000</ele>
        <time>2010-06-17T10:48:39Z</time>
      </trkpt>
      <trkpt lat="48.9532000" lon="9.3089620">
        <ele>275.5600000</ele>
        <time>2010-06-17T10:48:40Z</time>
      </trkpt>
      <trkpt lat="48.9531530" lon="9.3089370">
        <ele>276.0400000</ele>
        <time>2010-06-17T10:48:41Z</time>
      </trkpt>
      <trkpt lat="48.9531070" lon="9.3089190">
        <ele>276.5200000</ele>
        <time>2010-06-17T10:48:42Z</time>
      </trkpt>
      <trkpt lat="48.9530630" lon="9.3089080">
        <ele>277.4800000</ele>
        <time>2010-06-17T10:48:43Z</time>
      </trkpt>
      <trkpt lat="48.9530240" lon="9.3089020">
        <ele>277.4800000</ele>
        <time>2010-06-17T10:48:44Z</time>
      </trkpt>
      <trkpt lat="48.9526520" lon="9.3087770">
        <ele>277.4800000</ele>
        <time>2010-06-17T10:48:57Z</time>
      </trkpt>
      <trkpt lat="48.9525740" lon="9.3087350">
        <ele>278.4400000</ele>
        <time>2010-06-17T10:49:02Z</time>
      </trkpt>
      <trkpt lat="48.9525320" lon="9.3086840">
        <ele>278.4400000</ele>
        <time>2010-06-17T10:49:17Z</time>
      </trkpt>
      <trkpt lat="48.9525320" lon="9.3086840">
        <ele>277.9600000</ele>
        <time>2010-06-17T10:49:48Z</time>
      </trkpt>
      <trkpt lat="48.9526220" lon="9.3082850">
        <ele>276.5200000</ele>
        <time>2010-06-17T10:49:57Z</time>
      </trkpt>
      <trkpt lat="48.9527420" lon="9.3076270">
        <ele>273.1500000</ele>
        <time>2010-06-17T10:50:04Z</time>
      </trkpt>
      <trkpt lat="48.9527620" lon="9.3075220">
        <ele>272.6700000</ele>
        <time>2010-06-17T10:50:05Z</time>
      </trkpt>
      <trkpt lat="48.9528420" lon="9.3069990">
        <ele>269.7900000</ele>
        <time>2010-06-17T10:50:10Z</time>
      </trkpt>
      <trkpt lat="48.9529510" lon="9.3063930">
        <ele>266.9000000</ele>
        <time>2010-06-17T10:50:16Z</time>
      </trkpt>
      <trkpt lat="48.9529580" lon="9.3063000">
        <ele>266.4200000</ele>
        <time>2010-06-17T10:50:17Z</time>
      </trkpt>
      <trkpt lat="48.9529610" lon="9.3062150">
        <ele>265.9400000</ele>
        <time>2010-06-17T10:50:18Z</time>
      </trkpt>
      <trkpt lat="48.9529590" lon="9.3061420">
        <ele>265.4600000</ele>
        <time>2010-06-17T10:50:19Z</time>
      </trkpt>
      <trkpt lat="48.9529620" lon="9.3059550">
        <ele>264.0200000</ele>
        <time>2010-06-17T10:50:27Z</time>
      </trkpt>
      <trkpt lat="48.9529760" lon="9.3060070">
        <ele>264.5000000</ele>
        <time>2010-06-17T10:50:45Z</time>
      </trkpt>
      <trkpt lat="48.9529870" lon="9.3060360">
        <ele>264.5000000</ele>
        <time>2010-06-17T10:50:47Z</time>
      </trkpt>
      <trkpt lat="48.9529990" lon="9.3060570">
        <ele>264.0200000</ele>
        <time>2010-06-17T10:50:48Z</time>
      </trkpt>
      <trkpt lat="48.9530100" lon="9.3060850">
        <ele>264.0200000</ele>
        <time>2010-06-17T10:50:49Z</time>
      </trkpt>
      <trkpt lat="48.9530940" lon="9.3067660">
        <ele>264.9800000</ele>
        <time>2010-06-17T10:51:03Z</time>
      </trkpt>
      <trkpt lat="48.9531220" lon="9.3068530">
        <ele>264.9800000</ele>
        <time>2010-06-17T10:51:05Z</time>
      </trkpt>
      <trkpt lat="48.9531800" lon="9.3068290">
        <ele>264.5000000</ele>
        <time>2010-06-17T10:51:11Z</time>
      </trkpt>
      <trkpt lat="48.9531800" lon="9.3068290">
        <ele>264.5000000</ele>
        <time>2010-06-17T10:51:18Z</time>
      </trkpt>
      <trkpt lat="48.9532070" lon="9.3069820">
        <ele>264.5000000</ele>
        <time>2010-06-17T10:51:24Z</time>
      </trkpt>
      <trkpt lat="48.9533130" lon="9.3076930">
        <ele>266.4200000</ele>
        <time>2010-06-17T10:51:38Z</time>
      </trkpt>
      <trkpt lat="48.9534210" lon="9.3082900">
        <ele>268.3500000</ele>
        <time>2010-06-17T10:51:50Z</time>
      </trkpt>
      <trkpt lat="48.9536130" lon="9.3091260">
        <ele>269.3100000</ele>
        <time>2010-06-17T10:52:08Z</time>
      </trkpt>
      <trkpt lat="48.9536410" lon="9.3092550">
        <ele>269.3100000</ele>
        <time>2010-06-17T10:52:11Z</time>
      </trkpt>
      <trkpt lat="48.9537210" lon="9.3092250">
        <ele>268.8300000</ele>
        <time>2010-06-17T10:52:16Z</time>
      </trkpt>
      <trkpt lat="48.9536680" lon="9.3082690">
        <ele>265.9400000</ele>
        <time>2010-06-17T10:52:28Z</time>
      </trkpt>
      <trkpt lat="48.9536220" lon="9.3075110">
        <ele>262.5800000</ele>
        <time>2010-06-17T10:52:34Z</time>
      </trkpt>
      <trkpt lat="48.9536090" lon="9.3072270">
        <ele>261.6200000</ele>
        <time>2010-06-17T10:52:36Z</time>
      </trkpt>
      <trkpt lat="48.9535920" lon="9.3067800">
        <ele>260.1700000</ele>
        <time>2010-06-17T10:52:39Z</time>
      </trkpt>
      <trkpt lat="48.9535640" lon="9.3061480">
        <ele>256.8100000</ele>
        <time>2010-06-17T10:52:43Z</time>
      </trkpt>
      <trkpt lat="48.9535460" lon="9.3056530">
        <ele>255.3700000</ele>
        <time>2010-06-17T10:52:46Z</time>
      </trkpt>
      <trkpt lat="48.9535260" lon="9.3049810">
        <ele>252.0000000</ele>
        <time>2010-06-17T10:52:50Z</time>
      </trkpt>
      <trkpt lat="48.9535220" lon="9.3048130">
        <ele>251.5200000</ele>
        <time>2010-06-17T10:52:51Z</time>
      </trkpt>
      <trkpt lat="48.9535120" lon="9.3041310">
        <ele>249.1200000</ele>
        <time>2010-06-17T10:52:55Z</time>
      </trkpt>
      <trkpt lat="48.9535040" lon="9.3034300">
        <ele>245.7500000</ele>
        <time>2010-06-17T10:52:59Z</time>
      </trkpt>
      <trkpt lat="48.9535030" lon="9.3027190">
        <ele>242.8700000</ele>
        <time>2010-06-17T10:53:03Z</time>
      </trkpt>
      <trkpt lat="48.9534650" lon="9.3018180">
        <ele>239.5100000</ele>
        <time>2010-06-17T10:53:08Z</time>
      </trkpt>
      <trkpt lat="48.9533350" lon="9.3010990">
        <ele>235.6600000</ele>
        <time>2010-06-17T10:53:12Z</time>
      </trkpt>
      <trkpt lat="48.9532220" lon="9.3007700">
        <ele>234.7000000</ele>
        <time>2010-06-17T10:53:14Z</time>
      </trkpt>
      <trkpt lat="48.9531500" lon="9.3006240">
        <ele>233.7400000</ele>
        <time>2010-06-17T10:53:15Z</time>
      </trkpt>
      <trkpt lat="48.9530700" lon="9.3004880">
        <ele>232.7800000</ele>
        <time>2010-06-17T10:53:16Z</time>
      </trkpt>
      <trkpt lat="48.9529820" lon="9.3003660">
        <ele>232.7800000</ele>
        <time>2010-06-17T10:53:17Z</time>
      </trkpt>
      <trkpt lat="48.9528820" lon="9.3002600">
        <ele>232.3000000</ele>
        <time>2010-06-17T10:53:18Z</time>
      </trkpt>
      <trkpt lat="48.9527720" lon="9.3001740">
        <ele>231.3300000</ele>
        <time>2010-06-17T10:53:19Z</time>
      </trkpt>
      <trkpt lat="48.9526560" lon="9.3001200">
        <ele>230.3700000</ele>
        <time>2010-06-17T10:53:20Z</time>
      </trkpt>
      <trkpt lat="48.9525340" lon="9.3001050">
        <ele>229.4100000</ele>
        <time>2010-06-17T10:53:21Z</time>
      </trkpt>
      <trkpt lat="48.9524130" lon="9.3001240">
        <ele>228.9300000</ele>
        <time>2010-06-17T10:53:22Z</time>
      </trkpt>
      <trkpt lat="48.9522950" lon="9.3001660">
        <ele>227.9700000</ele>
        <time>2010-06-17T10:53:23Z</time>
      </trkpt>
      <trkpt lat="48.9521830" lon="9.3002290">
        <ele>227.4900000</ele>
        <time>2010-06-17T10:53:24Z</time>
      </trkpt>
      <trkpt lat="48.9520750" lon="9.3003140">
        <ele>226.5300000</ele>
        <time>2010-06-17T10:53:25Z</time>
      </trkpt>
      <trkpt lat="48.9519740" lon="9.3004170">
        <ele>226.0500000</ele>
        <time>2010-06-17T10:53:26Z</time>
      </trkpt>
      <trkpt lat="48.9518790" lon="9.3005290">
        <ele>225.0900000</ele>
        <time>2010-06-17T10:53:27Z</time>
      </trkpt>
      <trkpt lat="48.9517920" lon="9.3006550">
        <ele>224.1200000</ele>
        <time>2010-06-17T10:53:28Z</time>
      </trkpt>
      <trkpt lat="48.9517140" lon="9.3007890">
        <ele>223.1600000</ele>
        <time>2010-06-17T10:53:29Z</time>
      </trkpt>
      <trkpt lat="48.9516470" lon="9.3009220">
        <ele>222.6800000</ele>
        <time>2010-06-17T10:53:30Z</time>
      </trkpt>
      <trkpt lat="48.9515910" lon="9.3010480">
        <ele>222.2000000</ele>
        <time>2010-06-17T10:53:31Z</time>
      </trkpt>
      <trkpt lat="48.9515470" lon="9.3011670">
        <ele>221.7200000</ele>
        <time>2010-06-17T10:53:32Z</time>
      </trkpt>
      <trkpt lat="48.9515110" lon="9.3012740">
        <ele>220.7600000</ele>
        <time>2010-06-17T10:53:33Z</time>
      </trkpt>
      <trkpt lat="48.9514720" lon="9.3013610">
        <ele>220.7600000</ele>
        <time>2010-06-17T10:53:34Z</time>
      </trkpt>
      <trkpt lat="48.9514220" lon="9.3014200">
        <ele>220.2800000</ele>
        <time>2010-06-17T10:53:35Z</time>
      </trkpt>
      <trkpt lat="48.9513580" lon="9.3014420">
        <ele>220.2800000</ele>
        <time>2010-06-17T10:53:36Z</time>
      </trkpt>
      <trkpt lat="48.9512930" lon="9.3014590">
        <ele>219.8000000</ele>
        <time>2010-06-17T10:53:37Z</time>
      </trkpt>
      <trkpt lat="48.9512360" lon="9.3015060">
        <ele>219.3200000</ele>
        <time>2010-06-17T10:53:38Z</time>
      </trkpt>
      <trkpt lat="48.9511910" lon="9.3015830">
        <ele>218.8400000</ele>
        <time>2010-06-17T10:53:39Z</time>
      </trkpt>
      <trkpt lat="48.9511450" lon="9.3016670">
        <ele>218.8400000</ele>
        <time>2010-06-17T10:53:40Z</time>
      </trkpt>
      <trkpt lat="48.9510930" lon="9.3017450">
        <ele>218.3600000</ele>
        <time>2010-06-17T10:53:41Z</time>
      </trkpt>
      <trkpt lat="48.9510350" lon="9.3018120">
        <ele>217.8800000</ele>
        <time>2010-06-17T10:53:42Z</time>
      </trkpt>
      <trkpt lat="48.9509730" lon="9.3018660">
        <ele>217.4000000</ele>
        <time>2010-06-17T10:53:43Z</time>
      </trkpt>
      <trkpt lat="48.9509060" lon="9.3019110">
        <ele>217.4000000</ele>
        <time>2010-06-17T10:53:44Z</time>
      </trkpt>
      <trkpt lat="48.9508390" lon="9.3019520">
        <ele>216.9100000</ele>
        <time>2010-06-17T10:53:45Z</time>
      </trkpt>
      <trkpt lat="48.9506300" lon="9.3020500">
        <ele>216.9100000</ele>
        <time>2010-06-17T10:53:48Z</time>
      </trkpt>
      <trkpt lat="48.9505600" lon="9.3020640">
        <ele>216.4300000</ele>
        <time>2010-06-17T10:53:49Z</time>
      </trkpt>
      <trkpt lat="48.9503610" lon="9.3020720">
        <ele>215.9500000</ele>
        <time>2010-06-17T10:53:52Z</time>
      </trkpt>
      <trkpt lat="48.9503110" lon="9.3020590">
        <ele>215.9500000</ele>
        <time>2010-06-17T10:53:53Z</time>
      </trkpt>
      <trkpt lat="48.9502820" lon="9.3020380">
        <ele>215.9500000</ele>
        <time>2010-06-17T10:53:54Z</time>
      </trkpt>
      <trkpt lat="48.9502680" lon="9.3020260">
        <ele>215.4700000</ele>
        <time>2010-06-17T10:54:05Z</time>
      </trkpt>
      <trkpt lat="48.9502570" lon="9.3020320">
        <ele>215.9500000</ele>
        <time>2010-06-17T10:54:14Z</time>
      </trkpt>
      <trkpt lat="48.9502380" lon="9.3020340">
        <ele>215.9500000</ele>
        <time>2010-06-17T10:54:15Z</time>
      </trkpt>
      <trkpt lat="48.9502140" lon="9.3020310">
        <ele>215.9500000</ele>
        <time>2010-06-17T10:54:16Z</time>
      </trkpt>
      <trkpt lat="48.9500430" lon="9.3019590">
        <ele>215.4700000</ele>
        <time>2010-06-17T10:54:21Z</time>
      </trkpt>
      <trkpt lat="48.9499120" lon="9.3018640">
        <ele>215.4700000</ele>
        <time>2010-06-17T10:54:24Z</time>
      </trkpt>
      <trkpt lat="48.9498690" lon="9.3018180">
        <ele>215.4700000</ele>
        <time>2010-06-17T10:54:25Z</time>
      </trkpt>
      <trkpt lat="48.9496930" lon="9.3015960">
        <ele>215.4700000</ele>
        <time>2010-06-17T10:54:29Z</time>
      </trkpt>
      <trkpt lat="48.9496560" lon="9.3015260">
        <ele>215.9500000</ele>
        <time>2010-06-17T10:54:30Z</time>
      </trkpt>
      <trkpt lat="48.9493550" lon="9.3004830">
        <ele>216.4300000</ele>
        <time>2010-06-17T10:54:43Z</time>
      </trkpt>
      <trkpt lat="48.9491900" lon="9.2992370">
        <ele>216.9100000</ele>
        <time>2010-06-17T10:54:58Z</time>
      </trkpt>
      <trkpt lat="48.9493750" lon="9.2977710">
        <ele>216.4300000</ele>
        <time>2010-06-17T10:55:14Z</time>
      </trkpt>
      <trkpt lat="48.9496770" lon="9.2964430">
        <ele>216.9100000</ele>
        <time>2010-06-17T10:55:28Z</time>
      </trkpt>
      <trkpt lat="48.9497110" lon="9.2963630">
        <ele>216.9100000</ele>
        <time>2010-06-17T10:55:29Z</time>
      </trkpt>
      <trkpt lat="48.9501290" lon="9.2952750">
        <ele>218.8400000</ele>
        <time>2010-06-17T10:55:43Z</time>
      </trkpt>
      <trkpt lat="48.9502110" lon="9.2950730">
        <ele>219.8000000</ele>
        <time>2010-06-17T10:55:46Z</time>
      </trkpt>
      <trkpt lat="48.9502370" lon="9.2950080">
        <ele>220.2800000</ele>
        <time>2010-06-17T10:55:47Z</time>
      </trkpt>
      <trkpt lat="48.9502630" lon="9.2949430">
        <ele>220.2800000</ele>
        <time>2010-06-17T10:55:48Z</time>
      </trkpt>
      <trkpt lat="48.9503760" lon="9.2946300">
        <ele>221.7200000</ele>
        <time>2010-06-17T10:55:53Z</time>
      </trkpt>
      <trkpt lat="48.9505200" lon="9.2940110">
        <ele>225.0900000</ele>
        <time>2010-06-17T10:56:05Z</time>
      </trkpt>
      <trkpt lat="48.9504190" lon="9.2935170">
        <ele>227.4900000</ele>
        <time>2010-06-17T10:56:17Z</time>
      </trkpt>
      <trkpt lat="48.9502220" lon="9.2929990">
        <ele>229.4100000</ele>
        <time>2010-06-17T10:56:30Z</time>
      </trkpt>
      <trkpt lat="48.9499690" lon="9.2924010">
        <ele>231.3300000</ele>
        <time>2010-06-17T10:56:44Z</time>
      </trkpt>
      <trkpt lat="48.9497360" lon="9.2917720">
        <ele>233.7400000</ele>
        <time>2010-06-17T10:56:58Z</time>
      </trkpt>
      <trkpt lat="48.9496030" lon="9.2912540">
        <ele>234.7000000</ele>
        <time>2010-06-17T10:57:10Z</time>
      </trkpt>
      <trkpt lat="48.9494680" lon="9.2903980">
        <ele>236.1400000</ele>
        <time>2010-06-17T10:57:25Z</time>
      </trkpt>
      <trkpt lat="48.9493700" lon="9.2896300">
        <ele>237.5800000</ele>
        <time>2010-06-17T10:57:38Z</time>
      </trkpt>
      <trkpt lat="48.9492590" lon="9.2890380">
        <ele>240.4700000</ele>
        <time>2010-06-17T10:57:51Z</time>
      </trkpt>
      <trkpt lat="48.9491790" lon="9.2881870">
        <ele>243.3500000</ele>
        <time>2010-06-17T10:58:06Z</time>
      </trkpt>
      <trkpt lat="48.9491130" lon="9.2873940">
        <ele>245.2700000</ele>
        <time>2010-06-17T10:58:23Z</time>
      </trkpt>
      <trkpt lat="48.9490450" lon="9.2865480">
        <ele>247.2000000</ele>
        <time>2010-06-17T10:58:40Z</time>
      </trkpt>
      <trkpt lat="48.9488430" lon="9.2858580">
        <ele>250.0800000</ele>
        <time>2010-06-17T10:58:56Z</time>
      </trkpt>
      <trkpt lat="48.9484080" lon="9.2856170">
        <ele>252.0000000</ele>
        <time>2010-06-17T10:59:11Z</time>
      </trkpt>
      <trkpt lat="48.9478090" lon="9.2854280">
        <ele>253.4400000</ele>
        <time>2010-06-17T10:59:27Z</time>
      </trkpt>
      <trkpt lat="48.9477730" lon="9.2853930">
        <ele>253.4400000</ele>
        <time>2010-06-17T10:59:28Z</time>
      </trkpt>
      <trkpt lat="48.9477400" lon="9.2853480">
        <ele>252.9600000</ele>
        <time>2010-06-17T10:59:29Z</time>
      </trkpt>
      <trkpt lat="48.9477110" lon="9.2852900">
        <ele>252.9600000</ele>
        <time>2010-06-17T10:59:30Z</time>
      </trkpt>
      <trkpt lat="48.9476860" lon="9.2852260">
        <ele>252.4800000</ele>
        <time>2010-06-17T10:59:31Z</time>
      </trkpt>
      <trkpt lat="48.9476700" lon="9.2851570">
        <ele>252.9600000</ele>
        <time>2010-06-17T10:59:32Z</time>
      </trkpt>
      <trkpt lat="48.9476590" lon="9.2850830">
        <ele>252.9600000</ele>
        <time>2010-06-17T10:59:33Z</time>
      </trkpt>
      <trkpt lat="48.9476520" lon="9.2850030">
        <ele>252.9600000</ele>
        <time>2010-06-17T10:59:34Z</time>
      </trkpt>
      <trkpt lat="48.9475560" lon="9.2840340">
        <ele>251.5200000</ele>
        <time>2010-06-17T10:59:45Z</time>
      </trkpt>
      <trkpt lat="48.9475050" lon="9.2837540">
        <ele>250.5600000</ele>
        <time>2010-06-17T10:59:48Z</time>
      </trkpt>
      <trkpt lat="48.9472080" lon="9.2822670">
        <ele>248.1600000</ele>
        <time>2010-06-17T11:00:03Z</time>
      </trkpt>
      <trkpt lat="48.9469570" lon="9.2809530">
        <ele>245.2700000</ele>
        <time>2010-06-17T11:00:15Z</time>
      </trkpt>
      <trkpt lat="48.9466920" lon="9.2796520">
        <ele>241.9100000</ele>
        <time>2010-06-17T11:00:26Z</time>
      </trkpt>
      <trkpt lat="48.9466670" lon="9.2795320">
        <ele>241.9100000</ele>
        <time>2010-06-17T11:00:27Z</time>
      </trkpt>
      <trkpt lat="48.9461800" lon="9.2771300">
        <ele>239.0200000</ele>
        <time>2010-06-17T11:00:47Z</time>
      </trkpt>
      <trkpt lat="48.9456830" lon="9.2753250">
        <ele>237.5800000</ele>
        <time>2010-06-17T11:01:04Z</time>
      </trkpt>
      <trkpt lat="48.9451450" lon="9.2735500">
        <ele>236.1400000</ele>
        <time>2010-06-17T11:01:21Z</time>
      </trkpt>
      <trkpt lat="48.9447890" lon="9.2723610">
        <ele>234.2200000</ele>
        <time>2010-06-17T11:01:32Z</time>
      </trkpt>
      <trkpt lat="48.9442940" lon="9.2705750">
        <ele>232.7800000</ele>
        <time>2010-06-17T11:01:48Z</time>
      </trkpt>
      <trkpt lat="48.9439670" lon="9.2696330">
        <ele>232.7800000</ele>
        <time>2010-06-17T11:01:58Z</time>
      </trkpt>
      <trkpt lat="48.9435070" lon="9.2687810">
        <ele>232.7800000</ele>
        <time>2010-06-17T11:02:09Z</time>
      </trkpt>
      <trkpt lat="48.9434570" lon="9.2687140">
        <ele>232.3000000</ele>
        <time>2010-06-17T11:02:10Z</time>
      </trkpt>
      <trkpt lat="48.9434110" lon="9.2686410">
        <ele>232.3000000</ele>
        <time>2010-06-17T11:02:11Z</time>
      </trkpt>
      <trkpt lat="48.9430760" lon="9.2679010">
        <ele>231.8100000</ele>
        <time>2010-06-17T11:02:20Z</time>
      </trkpt>
      <trkpt lat="48.9427610" lon="9.2670450">
        <ele>234.2200000</ele>
        <time>2010-06-17T11:02:31Z</time>
      </trkpt>
      <trkpt lat="48.9425260" lon="9.2664050">
        <ele>235.1800000</ele>
        <time>2010-06-17T11:02:44Z</time>
      </trkpt>
      <trkpt lat="48.9425220" lon="9.2663840">
        <ele>235.1800000</ele>
        <time>2010-06-17T11:02:58Z</time>
      </trkpt>
      <trkpt lat="48.9424100" lon="9.2660410">
        <ele>235.1800000</ele>
        <time>2010-06-17T11:03:19Z</time>
      </trkpt>
      <trkpt lat="48.9423190" lon="9.2652550">
        <ele>235.1800000</ele>
        <time>2010-06-17T11:03:32Z</time>
      </trkpt>
      <trkpt lat="48.9423080" lon="9.2651930">
        <ele>234.7000000</ele>
        <time>2010-06-17T11:03:34Z</time>
      </trkpt>
      <trkpt lat="48.9422990" lon="9.2651800">
        <ele>235.1800000</ele>
        <time>2010-06-17T11:03:45Z</time>
      </trkpt>
      <trkpt lat="48.9422950" lon="9.2651590">
        <ele>234.7000000</ele>
        <time>2010-06-17T11:03:47Z</time>
      </trkpt>
      <trkpt lat="48.9422910" lon="9.2651250">
        <ele>234.7000000</ele>
        <time>2010-06-17T11:03:48Z</time>
      </trkpt>
      <trkpt lat="48.9422840" lon="9.2650780">
        <ele>235.1800000</ele>
        <time>2010-06-17T11:03:49Z</time>
      </trkpt>
      <trkpt lat="48.9422670" lon="9.2650230">
        <ele>234.7000000</ele>
        <time>2010-06-17T11:03:50Z</time>
      </trkpt>
      <trkpt lat="48.9422430" lon="9.2649680">
        <ele>235.1800000</ele>
        <time>2010-06-17T11:03:51Z</time>
      </trkpt>
      <trkpt lat="48.9421900" lon="9.2648460">
        <ele>234.7000000</ele>
        <time>2010-06-17T11:03:53Z</time>
      </trkpt>
      <trkpt lat="48.9417470" lon="9.2636010">
        <ele>234.7000000</ele>
        <time>2010-06-17T11:04:10Z</time>
      </trkpt>
      <trkpt lat="48.9416800" lon="9.2634760">
        <ele>235.1800000</ele>
        <time>2010-06-17T11:04:12Z</time>
      </trkpt>
      <trkpt lat="48.9413500" lon="9.2631030">
        <ele>236.6200000</ele>
        <time>2010-06-17T11:04:20Z</time>
      </trkpt>
      <trkpt lat="48.9413030" lon="9.2630720">
        <ele>236.6200000</ele>
        <time>2010-06-17T11:04:21Z</time>
      </trkpt>
      <trkpt lat="48.9412550" lon="9.2630440">
        <ele>236.6200000</ele>
        <time>2010-06-17T11:04:22Z</time>
      </trkpt>
      <trkpt lat="48.9407870" lon="9.2628050">
        <ele>237.1000000</ele>
        <time>2010-06-17T11:04:32Z</time>
      </trkpt>
      <trkpt lat="48.9407450" lon="9.2627620">
        <ele>237.1000000</ele>
        <time>2010-06-17T11:04:33Z</time>
      </trkpt>
      <trkpt lat="48.9406680" lon="9.2626610">
        <ele>237.1000000</ele>
        <time>2010-06-17T11:04:35Z</time>
      </trkpt>
      <trkpt lat="48.9406370" lon="9.2626020">
        <ele>237.1000000</ele>
        <time>2010-06-17T11:04:36Z</time>
      </trkpt>
      <trkpt lat="48.9406090" lon="9.2625410">
        <ele>237.5800000</ele>
        <time>2010-06-17T11:04:37Z</time>
      </trkpt>
      <trkpt lat="48.9405840" lon="9.2624780">
        <ele>237.5800000</ele>
        <time>2010-06-17T11:04:38Z</time>
      </trkpt>
      <trkpt lat="48.9405600" lon="9.2624160">
        <ele>238.0600000</ele>
        <time>2010-06-17T11:04:39Z</time>
      </trkpt>
      <trkpt lat="48.9402890" lon="9.2617070">
        <ele>240.9500000</ele>
        <time>2010-06-17T11:04:53Z</time>
      </trkpt>
      <trkpt lat="48.9400870" lon="9.2609520">
        <ele>242.3900000</ele>
        <time>2010-06-17T11:05:09Z</time>
      </trkpt>
      <trkpt lat="48.9399140" lon="9.2601850">
        <ele>245.2700000</ele>
        <time>2010-06-17T11:05:26Z</time>
      </trkpt>
      <trkpt lat="48.9397810" lon="9.2599580">
        <ele>245.7500000</ele>
        <time>2010-06-17T11:05:36Z</time>
      </trkpt>
      <trkpt lat="48.9396910" lon="9.2598440">
        <ele>246.7200000</ele>
        <time>2010-06-17T11:05:45Z</time>
      </trkpt>
      <trkpt lat="48.9396870" lon="9.2598130">
        <ele>246.7200000</ele>
        <time>2010-06-17T11:05:46Z</time>
      </trkpt>
      <trkpt lat="48.9396900" lon="9.2597780">
        <ele>246.2300000</ele>
        <time>2010-06-17T11:05:47Z</time>
      </trkpt>
      <trkpt lat="48.9396970" lon="9.2597460">
        <ele>246.2300000</ele>
        <time>2010-06-17T11:05:48Z</time>
      </trkpt>
      <trkpt lat="48.9397060" lon="9.2597130">
        <ele>246.2300000</ele>
        <time>2010-06-17T11:05:49Z</time>
      </trkpt>
      <trkpt lat="48.9398230" lon="9.2592420">
        <ele>245.7500000</ele>
        <time>2010-06-17T11:06:02Z</time>
      </trkpt>
      <trkpt lat="48.9398230" lon="9.2590380">
        <ele>245.2700000</ele>
        <time>2010-06-17T11:06:08Z</time>
      </trkpt>
      <trkpt lat="48.9398290" lon="9.2590150">
        <ele>245.2700000</ele>
        <time>2010-06-17T11:06:09Z</time>
      </trkpt>
      <trkpt lat="48.9398360" lon="9.2589910">
        <ele>245.2700000</ele>
        <time>2010-06-17T11:06:10Z</time>
      </trkpt>
      <trkpt lat="48.9398450" lon="9.2589520">
        <ele>245.2700000</ele>
        <time>2010-06-17T11:06:11Z</time>
      </trkpt>
      <trkpt lat="48.9398550" lon="9.2589110">
        <ele>245.2700000</ele>
        <time>2010-06-17T11:06:12Z</time>
      </trkpt>
      <trkpt lat="48.9398590" lon="9.2588760">
        <ele>244.7900000</ele>
        <time>2010-06-17T11:06:14Z</time>
      </trkpt>
      <trkpt lat="48.9399240" lon="9.2586280">
        <ele>244.3100000</ele>
        <time>2010-06-17T11:06:26Z</time>
      </trkpt>
      <trkpt lat="48.9399280" lon="9.2586190">
        <ele>244.3100000</ele>
        <time>2010-06-17T11:06:38Z</time>
      </trkpt>
      <trkpt lat="48.9399330" lon="9.2586020">
        <ele>244.3100000</ele>
        <time>2010-06-17T11:06:39Z</time>
      </trkpt>
      <trkpt lat="48.9399390" lon="9.2585810">
        <ele>244.3100000</ele>
        <time>2010-06-17T11:06:40Z</time>
      </trkpt>
      <trkpt lat="48.9399470" lon="9.2585590">
        <ele>244.3100000</ele>
        <time>2010-06-17T11:06:41Z</time>
      </trkpt>
      <trkpt lat="48.9399580" lon="9.2585390">
        <ele>244.3100000</ele>
        <time>2010-06-17T11:06:42Z</time>
      </trkpt>
      <trkpt lat="48.9399710" lon="9.2585170">
        <ele>244.3100000</ele>
        <time>2010-06-17T11:06:43Z</time>
      </trkpt>
      <trkpt lat="48.9399840" lon="9.2584940">
        <ele>243.8300000</ele>
        <time>2010-06-17T11:06:44Z</time>
      </trkpt>
      <trkpt lat="48.9400640" lon="9.2582220">
        <ele>243.3500000</ele>
        <time>2010-06-17T11:06:53Z</time>
      </trkpt>
      <trkpt lat="48.9400730" lon="9.2582030">
        <ele>242.8700000</ele>
        <time>2010-06-17T11:06:54Z</time>
      </trkpt>
      <trkpt lat="48.9400820" lon="9.2581780">
        <ele>242.8700000</ele>
        <time>2010-06-17T11:06:55Z</time>
      </trkpt>
      <trkpt lat="48.9401980" lon="9.2577580">
        <ele>242.3900000</ele>
        <time>2010-06-17T11:07:09Z</time>
      </trkpt>
      <trkpt lat="48.9402490" lon="9.2575000">
        <ele>241.9100000</ele>
        <time>2010-06-17T11:07:22Z</time>
      </trkpt>
      <trkpt lat="48.9402560" lon="9.2574870">
        <ele>241.9100000</ele>
        <time>2010-06-17T11:07:24Z</time>
      </trkpt>
      <trkpt lat="48.9402640" lon="9.2574680">
        <ele>241.4300000</ele>
        <time>2010-06-17T11:07:25Z</time>
      </trkpt>
      <trkpt lat="48.9402740" lon="9.2574510">
        <ele>241.9100000</ele>
        <time>2010-06-17T11:07:26Z</time>
      </trkpt>
      <trkpt lat="48.9403000" lon="9.2572840">
        <ele>241.4300000</ele>
        <time>2010-06-17T11:07:38Z</time>
      </trkpt>
      <trkpt lat="48.9403260" lon="9.2572100">
        <ele>240.9500000</ele>
        <time>2010-06-17T11:08:00Z</time>
      </trkpt>
      <trkpt lat="48.9403300" lon="9.2571740">
        <ele>240.4700000</ele>
        <time>2010-06-17T11:08:01Z</time>
      </trkpt>
      <trkpt lat="48.9403320" lon="9.2571360">
        <ele>240.4700000</ele>
        <time>2010-06-17T11:08:02Z</time>
      </trkpt>
      <trkpt lat="48.9403410" lon="9.2570970">
        <ele>240.9500000</ele>
        <time>2010-06-17T11:08:03Z</time>
      </trkpt>
      <trkpt lat="48.9403490" lon="9.2570640">
        <ele>240.4700000</ele>
        <time>2010-06-17T11:08:04Z</time>
      </trkpt>
      <trkpt lat="48.9403560" lon="9.2570370">
        <ele>240.9500000</ele>
        <time>2010-06-17T11:08:05Z</time>
      </trkpt>
      <trkpt lat="48.9403440" lon="9.2570430">
        <ele>240.4700000</ele>
        <time>2010-06-17T11:08:15Z</time>
      </trkpt>
      <trkpt lat="48.9403400" lon="9.2570600">
        <ele>240.4700000</ele>
        <time>2010-06-17T11:08:16Z</time>
      </trkpt>
      <trkpt lat="48.9403380" lon="9.2570780">
        <ele>240.9500000</ele>
        <time>2010-06-17T11:08:17Z</time>
      </trkpt>
      <trkpt lat="48.9403390" lon="9.2570990">
        <ele>240.9500000</ele>
        <time>2010-06-17T11:08:18Z</time>
      </trkpt>
      <trkpt lat="48.9403550" lon="9.2571170">
        <ele>240.9500000</ele>
        <time>2010-06-17T11:08:27Z</time>
      </trkpt>
      <trkpt lat="48.9403690" lon="9.2571040">
        <ele>240.9500000</ele>
        <time>2010-06-17T11:08:28Z</time>
      </trkpt>
      <trkpt lat="48.9403820" lon="9.2570880">
        <ele>240.4700000</ele>
        <time>2010-06-17T11:08:29Z</time>
      </trkpt>
      <trkpt lat="48.9403980" lon="9.2570700">
        <ele>240.4700000</ele>
        <time>2010-06-17T11:08:30Z</time>
      </trkpt>
      <trkpt lat="48.9404120" lon="9.2570450">
        <ele>240.9500000</ele>
        <time>2010-06-17T11:08:31Z</time>
      </trkpt>
      <trkpt lat="48.9404280" lon="9.2570160">
        <ele>240.4700000</ele>
        <time>2010-06-17T11:08:32Z</time>
      </trkpt>
      <trkpt lat="48.9404910" lon="9.2565730">
        <ele>239.9900000</ele>
        <time>2010-06-17T11:08:42Z</time>
      </trkpt>
      <trkpt lat="48.9405290" lon="9.2561060">
        <ele>238.5400000</ele>
        <time>2010-06-17T11:08:53Z</time>
      </trkpt>
      <trkpt lat="48.9405430" lon="9.2559810">
        <ele>238.5400000</ele>
        <time>2010-06-17T11:09:02Z</time>
      </trkpt>
      <trkpt lat="48.9405420" lon="9.2557270">
        <ele>237.5800000</ele>
        <time>2010-06-17T11:09:15Z</time>
      </trkpt>
      <trkpt lat="48.9405390" lon="9.2557360">
        <ele>237.5800000</ele>
        <time>2010-06-17T11:09:26Z</time>
      </trkpt>
      <trkpt lat="48.9405460" lon="9.2557200">
        <ele>237.5800000</ele>
        <time>2010-06-17T11:09:50Z</time>
      </trkpt>
      <trkpt lat="48.9405290" lon="9.2556870">
        <ele>239.0200000</ele>
        <time>2010-06-17T11:11:51Z</time>
      </trkpt>
      <trkpt lat="48.9405290" lon="9.2556870">
        <ele>230.3700000</ele>
        <time>2010-06-17T11:12:07Z</time>
      </trkpt>
      <trkpt lat="48.9405290" lon="9.2556870">
        <ele>224.1200000</ele>
        <time>2010-06-17T11:12:08Z</time>
      </trkpt>
      <trkpt lat="48.9405290" lon="9.2556870">
        <ele>245.2700000</ele>
        <time>2010-06-17T11:12:09Z</time>
      </trkpt>
      <trkpt lat="48.9405270" lon="9.2556910">
        <ele>238.5400000</ele>
        <time>2010-06-17T11:12:10Z</time>
      </trkpt>
      <trkpt lat="48.9405270" lon="9.2556910">
        <ele>238.0600000</ele>
        <time>2010-06-17T11:12:12Z</time>
      </trkpt>
      <trkpt lat="48.9405610" lon="9.2557330">
        <ele>238.0600000</ele>
        <time>2010-06-17T11:12:24Z</time>
      </trkpt>
      <trkpt lat="48.9405690" lon="9.2557350">
        <ele>237.5800000</ele>
        <time>2010-06-17T11:12:44Z</time>
      </trkpt>
      <trkpt lat="48.9405710" lon="9.2557340">
        <ele>233.2600000</ele>
        <time>2010-06-17T11:13:19Z</time>
      </trkpt>
      <trkpt lat="48.9405710" lon="9.2557340">
        <ele>242.3900000</ele>
        <time>2010-06-17T11:13:20Z</time>
      </trkpt>
      <trkpt lat="48.9405650" lon="9.2557360">
        <ele>240.4700000</ele>
        <time>2010-06-17T11:13:21Z</time>
      </trkpt>
      <trkpt lat="48.9405650" lon="9.2557360">
        <ele>239.5100000</ele>
        <time>2010-06-17T11:13:23Z</time>
      </trkpt>
      <trkpt lat="48.9405740" lon="9.2557490">
        <ele>239.0200000</ele>
        <time>2010-06-17T11:13:41Z</time>
      </trkpt>
      <trkpt lat="48.9405520" lon="9.2557580">
        <ele>241.9100000</ele>
        <time>2010-06-17T11:31:26Z</time>
      </trkpt>
      <trkpt lat="48.9405390" lon="9.2557720">
        <ele>245.2700000</ele>
        <time>2010-06-17T11:48:19Z</time>
      </trkpt>
      <trkpt lat="48.9405560" lon="9.2557980">
        <ele>248.1600000</ele>
        <time>2010-06-17T12:02:53Z</time>
      </trkpt>
      <trkpt lat="48.9405440" lon="9.2557950">
        <ele>245.7500000</ele>
        <time>2010-06-17T12:05:32Z</time>
      </trkpt>
      <trkpt lat="48.9405500" lon="9.2557990">
        <ele>247.2000000</ele>
        <time>2010-06-17T12:05:54Z</time>
      </trkpt>
      <trkpt lat="48.9405440" lon="9.2558030">
        <ele>246.7200000</ele>
        <time>2010-06-17T12:09:17Z</time>
      </trkpt>
      <trkpt lat="48.9405520" lon="9.2557890">
        <ele>247.2000000</ele>
        <time>2010-06-17T12:09:18Z</time>
      </trkpt>
      <trkpt lat="48.9405580" lon="9.2557760">
        <ele>247.2000000</ele>
        <time>2010-06-17T12:09:19Z</time>
      </trkpt>
      <trkpt lat="48.9404870" lon="9.2557720">
        <ele>247.6800000</ele>
        <time>2010-06-17T12:09:42Z</time>
      </trkpt>
      <trkpt lat="48.9404850" lon="9.2557710">
        <ele>248.1600000</ele>
        <time>2010-06-17T12:09:44Z</time>
      </trkpt>
      <trkpt lat="48.9404850" lon="9.2557710">
        <ele>247.2000000</ele>
        <time>2010-06-17T12:09:46Z</time>
      </trkpt>
      <trkpt lat="48.9405320" lon="9.2557200">
        <ele>245.7500000</ele>
        <time>2010-06-17T12:10:38Z</time>
      </trkpt>
      <trkpt lat="48.9405380" lon="9.2557730">
        <ele>246.2300000</ele>
        <time>2010-06-17T12:10:51Z</time>
      </trkpt>
      <trkpt lat="48.9405320" lon="9.2557970">
        <ele>246.2300000</ele>
        <time>2010-06-17T12:11:07Z</time>
      </trkpt>
      <trkpt lat="48.9405440" lon="9.2557490">
        <ele>245.7500000</ele>
        <time>2010-06-17T12:11:17Z</time>
      </trkpt>
      <trkpt lat="48.9405860" lon="9.2554870">
        <ele>245.7500000</ele>
        <time>2010-06-17T12:11:42Z</time>
      </trkpt>
      <trkpt lat="48.9405850" lon="9.2554110">
        <ele>245.2700000</ele>
        <time>2010-06-17T12:11:44Z</time>
      </trkpt>
      <trkpt lat="48.9405660" lon="9.2553810">
        <ele>244.7900000</ele>
        <time>2010-06-17T12:11:45Z</time>
      </trkpt>
      <trkpt lat="48.9405040" lon="9.2552850">
        <ele>243.8300000</ele>
        <time>2010-06-17T12:11:50Z</time>
      </trkpt>
      <trkpt lat="48.9403870" lon="9.2552200">
        <ele>243.3500000</ele>
        <time>2010-06-17T12:11:54Z</time>
      </trkpt>
      <trkpt lat="48.9403440" lon="9.2552050">
        <ele>243.3500000</ele>
        <time>2010-06-17T12:11:55Z</time>
      </trkpt>
      <trkpt lat="48.9402990" lon="9.2551980">
        <ele>242.3900000</ele>
        <time>2010-06-17T12:11:56Z</time>
      </trkpt>
      <trkpt lat="48.9402500" lon="9.2551980">
        <ele>241.9100000</ele>
        <time>2010-06-17T12:11:57Z</time>
      </trkpt>
      <trkpt lat="48.9401970" lon="9.2552020">
        <ele>241.9100000</ele>
        <time>2010-06-17T12:11:58Z</time>
      </trkpt>
      <trkpt lat="48.9401480" lon="9.2552110">
        <ele>241.9100000</ele>
        <time>2010-06-17T12:11:59Z</time>
      </trkpt>
      <trkpt lat="48.9400230" lon="9.2552320">
        <ele>240.4700000</ele>
        <time>2010-06-17T12:12:02Z</time>
      </trkpt>
      <trkpt lat="48.9398900" lon="9.2552500">
        <ele>239.0200000</ele>
        <time>2010-06-17T12:12:06Z</time>
      </trkpt>
      <trkpt lat="48.9395570" lon="9.2553650">
        <ele>237.1000000</ele>
        <time>2010-06-17T12:12:14Z</time>
      </trkpt>
      <trkpt lat="48.9395150" lon="9.2553620">
        <ele>236.6200000</ele>
        <time>2010-06-17T12:12:15Z</time>
      </trkpt>
      <trkpt lat="48.9394700" lon="9.2553450">
        <ele>236.6200000</ele>
        <time>2010-06-17T12:12:16Z</time>
      </trkpt>
      <trkpt lat="48.9394200" lon="9.2553290">
        <ele>236.1400000</ele>
        <time>2010-06-17T12:12:17Z</time>
      </trkpt>
      <trkpt lat="48.9393650" lon="9.2553200">
        <ele>235.1800000</ele>
        <time>2010-06-17T12:12:18Z</time>
      </trkpt>
      <trkpt lat="48.9393090" lon="9.2553150">
        <ele>234.2200000</ele>
        <time>2010-06-17T12:12:19Z</time>
      </trkpt>
      <trkpt lat="48.9391130" lon="9.2552900">
        <ele>233.2600000</ele>
        <time>2010-06-17T12:12:22Z</time>
      </trkpt>
      <trkpt lat="48.9389790" lon="9.2552250">
        <ele>231.8100000</ele>
        <time>2010-06-17T12:12:24Z</time>
      </trkpt>
      <trkpt lat="48.9389180" lon="9.2551830">
        <ele>231.8100000</ele>
        <time>2010-06-17T12:12:25Z</time>
      </trkpt>
      <trkpt lat="48.9388580" lon="9.2551290">
        <ele>231.3300000</ele>
        <time>2010-06-17T12:12:26Z</time>
      </trkpt>
      <trkpt lat="48.9387990" lon="9.2550620">
        <ele>230.3700000</ele>
        <time>2010-06-17T12:12:27Z</time>
      </trkpt>
      <trkpt lat="48.9387410" lon="9.2549820">
        <ele>229.8900000</ele>
        <time>2010-06-17T12:12:28Z</time>
      </trkpt>
      <trkpt lat="48.9386880" lon="9.2548930">
        <ele>229.4100000</ele>
        <time>2010-06-17T12:12:29Z</time>
      </trkpt>
      <trkpt lat="48.9386340" lon="9.2548010">
        <ele>229.4100000</ele>
        <time>2010-06-17T12:12:30Z</time>
      </trkpt>
      <trkpt lat="48.9385750" lon="9.2547160">
        <ele>229.4100000</ele>
        <time>2010-06-17T12:12:31Z</time>
      </trkpt>
      <trkpt lat="48.9385070" lon="9.2546450">
        <ele>228.9300000</ele>
        <time>2010-06-17T12:12:32Z</time>
      </trkpt>
      <trkpt lat="48.9384300" lon="9.2545910">
        <ele>228.4500000</ele>
        <time>2010-06-17T12:12:33Z</time>
      </trkpt>
      <trkpt lat="48.9383480" lon="9.2545520">
        <ele>227.9700000</ele>
        <time>2010-06-17T12:12:34Z</time>
      </trkpt>
      <trkpt lat="48.9382630" lon="9.2545160">
        <ele>227.4900000</ele>
        <time>2010-06-17T12:12:35Z</time>
      </trkpt>
      <trkpt lat="48.9378110" lon="9.2543370">
        <ele>224.6100000</ele>
        <time>2010-06-17T12:12:40Z</time>
      </trkpt>
      <trkpt lat="48.9369810" lon="9.2540440">
        <ele>221.2400000</ele>
        <time>2010-06-17T12:12:49Z</time>
      </trkpt>
      <trkpt lat="48.9362050" lon="9.2537450">
        <ele>218.3600000</ele>
        <time>2010-06-17T12:12:58Z</time>
      </trkpt>
      <trkpt lat="48.9361280" lon="9.2537060">
        <ele>217.8800000</ele>
        <time>2010-06-17T12:12:59Z</time>
      </trkpt>
      <trkpt lat="48.9359270" lon="9.2536100">
        <ele>216.9100000</ele>
        <time>2010-06-17T12:13:02Z</time>
      </trkpt>
      <trkpt lat="48.9358780" lon="9.2535580">
        <ele>216.4300000</ele>
        <time>2010-06-17T12:13:03Z</time>
      </trkpt>
      <trkpt lat="48.9358440" lon="9.2534900">
        <ele>215.4700000</ele>
        <time>2010-06-17T12:13:04Z</time>
      </trkpt>
      <trkpt lat="48.9358300" lon="9.2534160">
        <ele>214.9900000</ele>
        <time>2010-06-17T12:13:05Z</time>
      </trkpt>
      <trkpt lat="48.9358380" lon="9.2533450">
        <ele>215.4700000</ele>
        <time>2010-06-17T12:13:06Z</time>
      </trkpt>
      <trkpt lat="48.9358550" lon="9.2532930">
        <ele>214.5100000</ele>
        <time>2010-06-17T12:13:07Z</time>
      </trkpt>
      <trkpt lat="48.9358740" lon="9.2532590">
        <ele>214.5100000</ele>
        <time>2010-06-17T12:13:08Z</time>
      </trkpt>
      <trkpt lat="48.9358990" lon="9.2532390">
        <ele>214.5100000</ele>
        <time>2010-06-17T12:13:09Z</time>
      </trkpt>
      <trkpt lat="48.9359170" lon="9.2532290">
        <ele>214.5100000</ele>
        <time>2010-06-17T12:13:10Z</time>
      </trkpt>
      <trkpt lat="48.9359330" lon="9.2532180">
        <ele>214.5100000</ele>
        <time>2010-06-17T12:13:11Z</time>
      </trkpt>
      <trkpt lat="48.9359500" lon="9.2532090">
        <ele>214.5100000</ele>
        <time>2010-06-17T12:13:12Z</time>
      </trkpt>
      <trkpt lat="48.9359720" lon="9.2532060">
        <ele>214.5100000</ele>
        <time>2010-06-17T12:13:13Z</time>
      </trkpt>
      <trkpt lat="48.9364150" lon="9.2533880">
        <ele>213.5500000</ele>
        <time>2010-06-17T12:13:24Z</time>
      </trkpt>
      <trkpt lat="48.9373950" lon="9.2536800">
        <ele>212.1100000</ele>
        <time>2010-06-17T12:13:41Z</time>
      </trkpt>
      <trkpt lat="48.9379450" lon="9.2538260">
        <ele>211.6300000</ele>
        <time>2010-06-17T12:13:52Z</time>
      </trkpt>
      <trkpt lat="48.9385830" lon="9.2539870">
        <ele>213.0700000</ele>
        <time>2010-06-17T12:14:05Z</time>
      </trkpt>
      <trkpt lat="48.9393160" lon="9.2541120">
        <ele>213.5500000</ele>
        <time>2010-06-17T12:14:22Z</time>
      </trkpt>
      <trkpt lat="48.9400020" lon="9.2540660">
        <ele>212.5900000</ele>
        <time>2010-06-17T12:14:36Z</time>
      </trkpt>
      <trkpt lat="48.9400450" lon="9.2540530">
        <ele>212.1100000</ele>
        <time>2010-06-17T12:14:37Z</time>
      </trkpt>
      <trkpt lat="48.9400880" lon="9.2540340">
        <ele>212.5900000</ele>
        <time>2010-06-17T12:14:38Z</time>
      </trkpt>
      <trkpt lat="48.9401310" lon="9.2540180">
        <ele>212.5900000</ele>
        <time>2010-06-17T12:14:39Z</time>
      </trkpt>
      <trkpt lat="48.9402710" lon="9.2539830">
        <ele>212.5900000</ele>
        <time>2010-06-17T12:14:42Z</time>
      </trkpt>
      <trkpt lat="48.9409160" lon="9.2538770">
        <ele>211.6300000</ele>
        <time>2010-06-17T12:14:54Z</time>
      </trkpt>
      <trkpt lat="48.9415210" lon="9.2537930">
        <ele>213.0700000</ele>
        <time>2010-06-17T12:15:08Z</time>
      </trkpt>
      <trkpt lat="48.9418440" lon="9.2538190">
        <ele>213.5500000</ele>
        <time>2010-06-17T12:15:20Z</time>
      </trkpt>
      <trkpt lat="48.9418620" lon="9.2538160">
        <ele>212.5900000</ele>
        <time>2010-06-17T12:15:54Z</time>
      </trkpt>
      <trkpt lat="48.9418620" lon="9.2538160">
        <ele>213.0700000</ele>
        <time>2010-06-17T12:16:09Z</time>
      </trkpt>
      <trkpt lat="48.9418720" lon="9.2537910">
        <ele>212.5900000</ele>
        <time>2010-06-17T12:16:10Z</time>
      </trkpt>
      <trkpt lat="48.9418780" lon="9.2537550">
        <ele>212.5900000</ele>
        <time>2010-06-17T12:16:11Z</time>
      </trkpt>
      <trkpt lat="48.9418790" lon="9.2537150">
        <ele>213.0700000</ele>
        <time>2010-06-17T12:16:12Z</time>
      </trkpt>
      <trkpt lat="48.9418790" lon="9.2536770">
        <ele>212.5900000</ele>
        <time>2010-06-17T12:16:13Z</time>
      </trkpt>
      <trkpt lat="48.9418770" lon="9.2536350">
        <ele>212.5900000</ele>
        <time>2010-06-17T12:16:14Z</time>
      </trkpt>
      <trkpt lat="48.9418730" lon="9.2535850">
        <ele>212.5900000</ele>
        <time>2010-06-17T12:16:15Z</time>
      </trkpt>
      <trkpt lat="48.9418810" lon="9.2534930">
        <ele>212.5900000</ele>
        <time>2010-06-17T12:16:17Z</time>
      </trkpt>
      <trkpt lat="48.9419030" lon="9.2534660">
        <ele>212.5900000</ele>
        <time>2010-06-17T12:16:18Z</time>
      </trkpt>
      <trkpt lat="48.9419310" lon="9.2534520">
        <ele>212.5900000</ele>
        <time>2010-06-17T12:16:19Z</time>
      </trkpt>
      <trkpt lat="48.9422010" lon="9.2533350">
        <ele>212.1100000</ele>
        <time>2010-06-17T12:16:28Z</time>
      </trkpt>
      <trkpt lat="48.9422110" lon="9.2533150">
        <ele>212.1100000</ele>
        <time>2010-06-17T12:16:29Z</time>
      </trkpt>
      <trkpt lat="48.9422200" lon="9.2532980">
        <ele>212.1100000</ele>
        <time>2010-06-17T12:16:45Z</time>
      </trkpt>
      <trkpt lat="48.9422240" lon="9.2531100">
        <ele>213.0700000</ele>
        <time>2010-06-17T12:17:25Z</time>
      </trkpt>
      <trkpt lat="48.9422350" lon="9.2527780">
        <ele>214.5100000</ele>
        <time>2010-06-17T12:17:36Z</time>
      </trkpt>
      <trkpt lat="48.9422520" lon="9.2521480">
        <ele>214.0300000</ele>
        <time>2010-06-17T12:17:47Z</time>
      </trkpt>
      <trkpt lat="48.9422410" lon="9.2516850">
        <ele>211.1500000</ele>
        <time>2010-06-17T12:17:52Z</time>
      </trkpt>
      <trkpt lat="48.9421750" lon="9.2513570">
        <ele>209.2200000</ele>
        <time>2010-06-17T12:17:55Z</time>
      </trkpt>
      <trkpt lat="48.9420660" lon="9.2510860">
        <ele>208.7400000</ele>
        <time>2010-06-17T12:17:58Z</time>
      </trkpt>
      <trkpt lat="48.9420200" lon="9.2510130">
        <ele>208.7400000</ele>
        <time>2010-06-17T12:17:59Z</time>
      </trkpt>
      <trkpt lat="48.9420440" lon="9.2507750">
        <ele>209.2200000</ele>
        <time>2010-06-17T12:18:04Z</time>
      </trkpt>
      <trkpt lat="48.9420850" lon="9.2507580">
        <ele>209.7000000</ele>
        <time>2010-06-17T12:18:05Z</time>
      </trkpt>
      <trkpt lat="48.9421740" lon="9.2507230">
        <ele>209.2200000</ele>
        <time>2010-06-17T12:18:07Z</time>
      </trkpt>
      <trkpt lat="48.9423470" lon="9.2505950">
        <ele>209.7000000</ele>
        <time>2010-06-17T12:18:11Z</time>
      </trkpt>
      <trkpt lat="48.9423880" lon="9.2505570">
        <ele>208.7400000</ele>
        <time>2010-06-17T12:18:12Z</time>
      </trkpt>
      <trkpt lat="48.9428380" lon="9.2501140">
        <ele>209.7000000</ele>
        <time>2010-06-17T12:18:23Z</time>
      </trkpt>
      <trkpt lat="48.9428840" lon="9.2500840">
        <ele>209.2200000</ele>
        <time>2010-06-17T12:18:24Z</time>
      </trkpt>
      <trkpt lat="48.9436280" lon="9.2495400">
        <ele>208.2600000</ele>
        <time>2010-06-17T12:18:40Z</time>
      </trkpt>
      <trkpt lat="48.9443040" lon="9.2491580">
        <ele>207.7800000</ele>
        <time>2010-06-17T12:18:54Z</time>
      </trkpt>
      <trkpt lat="48.9447460" lon="9.2488940">
        <ele>207.7800000</ele>
        <time>2010-06-17T12:19:03Z</time>
      </trkpt>
      <trkpt lat="48.9447930" lon="9.2488460">
        <ele>207.7800000</ele>
        <time>2010-06-17T12:19:04Z</time>
      </trkpt>
      <trkpt lat="48.9448360" lon="9.2487860">
        <ele>207.7800000</ele>
        <time>2010-06-17T12:19:05Z</time>
      </trkpt>
      <trkpt lat="48.9454050" lon="9.2480010">
        <ele>207.3000000</ele>
        <time>2010-06-17T12:19:19Z</time>
      </trkpt>
      <trkpt lat="48.9460390" lon="9.2474640">
        <ele>210.6700000</ele>
        <time>2010-06-17T12:19:32Z</time>
      </trkpt>
      <trkpt lat="48.9463870" lon="9.2471710">
        <ele>209.2200000</ele>
        <time>2010-06-17T12:19:42Z</time>
      </trkpt>
      <trkpt lat="48.9464440" lon="9.2471300">
        <ele>208.7400000</ele>
        <time>2010-06-17T12:19:43Z</time>
      </trkpt>
      <trkpt lat="48.9464950" lon="9.2470800">
        <ele>208.7400000</ele>
        <time>2010-06-17T12:19:44Z</time>
      </trkpt>
      <trkpt lat="48.9470790" lon="9.2465110">
        <ele>208.7400000</ele>
        <time>2010-06-17T12:19:56Z</time>
      </trkpt>
      <trkpt lat="48.9471200" lon="9.2464490">
        <ele>208.7400000</ele>
        <time>2010-06-17T12:19:57Z</time>
      </trkpt>
      <trkpt lat="48.9471510" lon="9.2463740">
        <ele>208.2600000</ele>
        <time>2010-06-17T12:19:58Z</time>
      </trkpt>
      <trkpt lat="48.9471690" lon="9.2462910">
        <ele>208.2600000</ele>
        <time>2010-06-17T12:19:59Z</time>
      </trkpt>
      <trkpt lat="48.9471710" lon="9.2462020">
        <ele>207.7800000</ele>
        <time>2010-06-17T12:20:00Z</time>
      </trkpt>
      <trkpt lat="48.9471620" lon="9.2461130">
        <ele>207.3000000</ele>
        <time>2010-06-17T12:20:01Z</time>
      </trkpt>
      <trkpt lat="48.9470340" lon="9.2453280">
        <ele>207.3000000</ele>
        <time>2010-06-17T12:20:10Z</time>
      </trkpt>
      <trkpt lat="48.9470330" lon="9.2452430">
        <ele>207.7800000</ele>
        <time>2010-06-17T12:20:11Z</time>
      </trkpt>
      <trkpt lat="48.9470440" lon="9.2451580">
        <ele>207.7800000</ele>
        <time>2010-06-17T12:20:12Z</time>
      </trkpt>
      <trkpt lat="48.9470720" lon="9.2450010">
        <ele>207.7800000</ele>
        <time>2010-06-17T12:20:14Z</time>
      </trkpt>
      <trkpt lat="48.9470960" lon="9.2449230">
        <ele>207.7800000</ele>
        <time>2010-06-17T12:20:15Z</time>
      </trkpt>
      <trkpt lat="48.9473120" lon="9.2443140">
        <ele>207.7800000</ele>
        <time>2010-06-17T12:20:23Z</time>
      </trkpt>
      <trkpt lat="48.9475110" lon="9.2436040">
        <ele>207.7800000</ele>
        <time>2010-06-17T12:20:32Z</time>
      </trkpt>
      <trkpt lat="48.9475490" lon="9.2433730">
        <ele>208.7400000</ele>
        <time>2010-06-17T12:20:35Z</time>
      </trkpt>
      <trkpt lat="48.9477270" lon="9.2426760">
        <ele>209.2200000</ele>
        <time>2010-06-17T12:20:48Z</time>
      </trkpt>
      <trkpt lat="48.9477410" lon="9.2426210">
        <ele>209.2200000</ele>
        <time>2010-06-17T12:20:55Z</time>
      </trkpt>
      <trkpt lat="48.9477590" lon="9.2426120">
        <ele>209.2200000</ele>
        <time>2010-06-17T12:20:56Z</time>
      </trkpt>
      <trkpt lat="48.9477850" lon="9.2426130">
        <ele>209.7000000</ele>
        <time>2010-06-17T12:20:57Z</time>
      </trkpt>
      <trkpt lat="48.9478440" lon="9.2426400">
        <ele>209.2200000</ele>
        <time>2010-06-17T12:20:59Z</time>
      </trkpt>
      <trkpt lat="48.9478720" lon="9.2426800">
        <ele>209.2200000</ele>
        <time>2010-06-17T12:21:00Z</time>
      </trkpt>
      <trkpt lat="48.9479000" lon="9.2427180">
        <ele>209.2200000</ele>
        <time>2010-06-17T12:21:01Z</time>
      </trkpt>
      <trkpt lat="48.9481220" lon="9.2429090">
        <ele>210.6700000</ele>
        <time>2010-06-17T12:21:07Z</time>
      </trkpt>
      <trkpt lat="48.9482470" lon="9.2430180">
        <ele>211.6300000</ele>
        <time>2010-06-17T12:21:10Z</time>
      </trkpt>
      <trkpt lat="48.9486730" lon="9.2433780">
        <ele>213.5500000</ele>
        <time>2010-06-17T12:21:22Z</time>
      </trkpt>
      <trkpt lat="48.9487140" lon="9.2434050">
        <ele>213.5500000</ele>
        <time>2010-06-17T12:21:23Z</time>
      </trkpt>
      <trkpt lat="48.9487520" lon="9.2434360">
        <ele>213.0700000</ele>
        <time>2010-06-17T12:21:24Z</time>
      </trkpt>
      <trkpt lat="48.9491220" lon="9.2437260">
        <ele>210.6700000</ele>
        <time>2010-06-17T12:21:32Z</time>
      </trkpt>
      <trkpt lat="48.9491730" lon="9.2437230">
        <ele>210.6700000</ele>
        <time>2010-06-17T12:21:33Z</time>
      </trkpt>
      <trkpt lat="48.9492140" lon="9.2436790">
        <ele>210.1900000</ele>
        <time>2010-06-17T12:21:34Z</time>
      </trkpt>
      <trkpt lat="48.9492390" lon="9.2436100">
        <ele>210.1900000</ele>
        <time>2010-06-17T12:21:35Z</time>
      </trkpt>
      <trkpt lat="48.9492520" lon="9.2435320">
        <ele>209.7000000</ele>
        <time>2010-06-17T12:21:36Z</time>
      </trkpt>
      <trkpt lat="48.9492600" lon="9.2434510">
        <ele>210.1900000</ele>
        <time>2010-06-17T12:21:37Z</time>
      </trkpt>
      <trkpt lat="48.9492610" lon="9.2433700">
        <ele>208.7400000</ele>
        <time>2010-06-17T12:21:38Z</time>
      </trkpt>
      <trkpt lat="48.9492590" lon="9.2432880">
        <ele>208.7400000</ele>
        <time>2010-06-17T12:21:39Z</time>
      </trkpt>
      <trkpt lat="48.9493300" lon="9.2417800">
        <ele>207.3000000</ele>
        <time>2010-06-17T12:21:56Z</time>
      </trkpt>
      <trkpt lat="48.9496390" lon="9.2406370">
        <ele>206.3400000</ele>
        <time>2010-06-17T12:22:09Z</time>
      </trkpt>
      <trkpt lat="48.9496840" lon="9.2405820">
        <ele>206.8200000</ele>
        <time>2010-06-17T12:22:10Z</time>
      </trkpt>
      <trkpt lat="48.9497420" lon="9.2405590">
        <ele>206.8200000</ele>
        <time>2010-06-17T12:22:11Z</time>
      </trkpt>
      <trkpt lat="48.9498030" lon="9.2405650">
        <ele>206.8200000</ele>
        <time>2010-06-17T12:22:12Z</time>
      </trkpt>
      <trkpt lat="48.9498590" lon="9.2405720">
        <ele>206.8200000</ele>
        <time>2010-06-17T12:22:13Z</time>
      </trkpt>
      <trkpt lat="48.9499120" lon="9.2405550">
        <ele>207.3000000</ele>
        <time>2010-06-17T12:22:14Z</time>
      </trkpt>
      <trkpt lat="48.9499600" lon="9.2405190">
        <ele>206.8200000</ele>
        <time>2010-06-17T12:22:15Z</time>
      </trkpt>
      <trkpt lat="48.9500000" lon="9.2404750">
        <ele>206.8200000</ele>
        <time>2010-06-17T12:22:16Z</time>
      </trkpt>
      <trkpt lat="48.9500310" lon="9.2404320">
        <ele>206.8200000</ele>
        <time>2010-06-17T12:22:17Z</time>
      </trkpt>
      <trkpt lat="48.9500540" lon="9.2403970">
        <ele>206.8200000</ele>
        <time>2010-06-17T12:22:18Z</time>
      </trkpt>
      <trkpt lat="48.9500730" lon="9.2403130">
        <ele>206.8200000</ele>
        <time>2010-06-17T12:22:21Z</time>
      </trkpt>
      <trkpt lat="48.9500540" lon="9.2403000">
        <ele>207.3000000</ele>
        <time>2010-06-17T12:22:22Z</time>
      </trkpt>
      <trkpt lat="48.9500340" lon="9.2403190">
        <ele>206.8200000</ele>
        <time>2010-06-17T12:22:23Z</time>
      </trkpt>
      <trkpt lat="48.9500230" lon="9.2403540">
        <ele>206.8200000</ele>
        <time>2010-06-17T12:22:24Z</time>
      </trkpt>
      <trkpt lat="48.9500240" lon="9.2403960">
        <ele>206.8200000</ele>
        <time>2010-06-17T12:22:25Z</time>
      </trkpt>
      <trkpt lat="48.9500290" lon="9.2404400">
        <ele>206.8200000</ele>
        <time>2010-06-17T12:22:26Z</time>
      </trkpt>
      <trkpt lat="48.9500360" lon="9.2404880">
        <ele>206.8200000</ele>
        <time>2010-06-17T12:22:27Z</time>
      </trkpt>
      <trkpt lat="48.9500500" lon="9.2405360">
        <ele>207.3000000</ele>
        <time>2010-06-17T12:22:28Z</time>
      </trkpt>
      <trkpt lat="48.9500730" lon="9.2405820">
        <ele>206.8200000</ele>
        <time>2010-06-17T12:22:29Z</time>
      </trkpt>
      <trkpt lat="48.9501040" lon="9.2406200">
        <ele>206.8200000</ele>
        <time>2010-06-17T12:22:30Z</time>
      </trkpt>
      <trkpt lat="48.9501440" lon="9.2406500">
        <ele>206.8200000</ele>
        <time>2010-06-17T12:22:31Z</time>
      </trkpt>
      <trkpt lat="48.9501870" lon="9.2406780">
        <ele>207.3000000</ele>
        <time>2010-06-17T12:22:32Z</time>
      </trkpt>
      <trkpt lat="48.9502830" lon="9.2407290">
        <ele>206.8200000</ele>
        <time>2010-06-17T12:22:34Z</time>
      </trkpt>
      <trkpt lat="48.9508260" lon="9.2409630">
        <ele>207.3000000</ele>
        <time>2010-06-17T12:22:46Z</time>
      </trkpt>
      <trkpt lat="48.9511740" lon="9.2408780">
        <ele>207.3000000</ele>
        <time>2010-06-17T12:22:57Z</time>
      </trkpt>
      <trkpt lat="48.9512090" lon="9.2408040">
        <ele>206.3400000</ele>
        <time>2010-06-17T12:23:07Z</time>
      </trkpt>
      <trkpt lat="48.9512130" lon="9.2407790">
        <ele>207.3000000</ele>
        <time>2010-06-17T12:23:46Z</time>
      </trkpt>
      <trkpt lat="48.9512140" lon="9.2407480">
        <ele>206.8200000</ele>
        <time>2010-06-17T12:23:47Z</time>
      </trkpt>
      <trkpt lat="48.9512370" lon="9.2405370">
        <ele>207.3000000</ele>
        <time>2010-06-17T12:23:51Z</time>
      </trkpt>
      <trkpt lat="48.9514550" lon="9.2395160">
        <ele>205.3800000</ele>
        <time>2010-06-17T12:24:04Z</time>
      </trkpt>
      <trkpt lat="48.9514600" lon="9.2394350">
        <ele>205.8600000</ele>
        <time>2010-06-17T12:24:05Z</time>
      </trkpt>
      <trkpt lat="48.9514650" lon="9.2393560">
        <ele>205.8600000</ele>
        <time>2010-06-17T12:24:06Z</time>
      </trkpt>
      <trkpt lat="48.9514820" lon="9.2391950">
        <ele>205.3800000</ele>
        <time>2010-06-17T12:24:08Z</time>
      </trkpt>
      <trkpt lat="48.9515050" lon="9.2390450">
        <ele>205.8600000</ele>
        <time>2010-06-17T12:24:10Z</time>
      </trkpt>
      <trkpt lat="48.9515180" lon="9.2389740">
        <ele>205.8600000</ele>
        <time>2010-06-17T12:24:11Z</time>
      </trkpt>
      <trkpt lat="48.9515320" lon="9.2389050">
        <ele>205.8600000</ele>
        <time>2010-06-17T12:24:12Z</time>
      </trkpt>
      <trkpt lat="48.9518230" lon="9.2377060">
        <ele>205.3800000</ele>
        <time>2010-06-17T12:24:27Z</time>
      </trkpt>
      <trkpt lat="48.9519320" lon="9.2365100">
        <ele>205.8600000</ele>
        <time>2010-06-17T12:24:41Z</time>
      </trkpt>
      <trkpt lat="48.9519400" lon="9.2352590">
        <ele>205.8600000</ele>
        <time>2010-06-17T12:24:56Z</time>
      </trkpt>
      <trkpt lat="48.9519160" lon="9.2350440">
        <ele>209.2200000</ele>
        <time>2010-06-17T12:25:00Z</time>
      </trkpt>
      <trkpt lat="48.9519120" lon="9.2350010">
        <ele>209.2200000</ele>
        <time>2010-06-17T12:25:01Z</time>
      </trkpt>
      <trkpt lat="48.9519160" lon="9.2349030">
        <ele>209.2200000</ele>
        <time>2010-06-17T12:25:03Z</time>
      </trkpt>
      <trkpt lat="48.9519330" lon="9.2344370">
        <ele>206.3400000</ele>
        <time>2010-06-17T12:25:08Z</time>
      </trkpt>
      <trkpt lat="48.9519330" lon="9.2343260">
        <ele>206.3400000</ele>
        <time>2010-06-17T12:25:09Z</time>
      </trkpt>
      <trkpt lat="48.9518390" lon="9.2330040">
        <ele>205.8600000</ele>
        <time>2010-06-17T12:25:22Z</time>
      </trkpt>
      <trkpt lat="48.9517100" lon="9.2319060">
        <ele>206.3400000</ele>
        <time>2010-06-17T12:25:34Z</time>
      </trkpt>
      <trkpt lat="48.9516870" lon="9.2318340">
        <ele>206.3400000</ele>
        <time>2010-06-17T12:25:35Z</time>
      </trkpt>
      <trkpt lat="48.9516690" lon="9.2317580">
        <ele>206.3400000</ele>
        <time>2010-06-17T12:25:36Z</time>
      </trkpt>
      <trkpt lat="48.9516650" lon="9.2316810">
        <ele>206.3400000</ele>
        <time>2010-06-17T12:25:37Z</time>
      </trkpt>
      <trkpt lat="48.9516700" lon="9.2316010">
        <ele>205.8600000</ele>
        <time>2010-06-17T12:25:38Z</time>
      </trkpt>
      <trkpt lat="48.9516800" lon="9.2315170">
        <ele>205.8600000</ele>
        <time>2010-06-17T12:25:39Z</time>
      </trkpt>
      <trkpt lat="48.9516860" lon="9.2309690">
        <ele>204.9000000</ele>
        <time>2010-06-17T12:25:45Z</time>
      </trkpt>
      <trkpt lat="48.9513750" lon="9.2293870">
        <ele>204.4200000</ele>
        <time>2010-06-17T12:26:02Z</time>
      </trkpt>
      <trkpt lat="48.9511630" lon="9.2284720">
        <ele>204.4200000</ele>
        <time>2010-06-17T12:26:12Z</time>
      </trkpt>
      <trkpt lat="48.9511490" lon="9.2283800">
        <ele>204.4200000</ele>
        <time>2010-06-17T12:26:13Z</time>
      </trkpt>
      <trkpt lat="48.9509880" lon="9.2276630">
        <ele>204.4200000</ele>
        <time>2010-06-17T12:26:21Z</time>
      </trkpt>
      <trkpt lat="48.9509090" lon="9.2274160">
        <ele>204.4200000</ele>
        <time>2010-06-17T12:26:24Z</time>
      </trkpt>
      <trkpt lat="48.9506240" lon="9.2260160">
        <ele>204.9000000</ele>
        <time>2010-06-17T12:26:40Z</time>
      </trkpt>
      <trkpt lat="48.9501340" lon="9.2243210">
        <ele>205.8600000</ele>
        <time>2010-06-17T12:27:00Z</time>
      </trkpt>
      <trkpt lat="48.9497230" lon="9.2229130">
        <ele>205.3800000</ele>
        <time>2010-06-17T12:27:17Z</time>
      </trkpt>
      <trkpt lat="48.9492640" lon="9.2214980">
        <ele>205.3800000</ele>
        <time>2010-06-17T12:27:35Z</time>
      </trkpt>
      <trkpt lat="48.9488240" lon="9.2203950">
        <ele>204.9000000</ele>
        <time>2010-06-17T12:27:51Z</time>
      </trkpt>
      <trkpt lat="48.9486560" lon="9.2199900">
        <ele>204.9000000</ele>
        <time>2010-06-17T12:27:57Z</time>
      </trkpt>
      <trkpt lat="48.9481710" lon="9.2187730">
        <ele>204.9000000</ele>
        <time>2010-06-17T12:28:14Z</time>
      </trkpt>
      <trkpt lat="48.9477250" lon="9.2176060">
        <ele>205.3800000</ele>
        <time>2010-06-17T12:28:30Z</time>
      </trkpt>
      <trkpt lat="48.9472410" lon="9.2163100">
        <ele>204.9000000</ele>
        <time>2010-06-17T12:28:47Z</time>
      </trkpt>
      <trkpt lat="48.9467280" lon="9.2151150">
        <ele>204.9000000</ele>
        <time>2010-06-17T12:29:03Z</time>
      </trkpt>
      <trkpt lat="48.9462750" lon="9.2140180">
        <ele>204.9000000</ele>
        <time>2010-06-17T12:29:18Z</time>
      </trkpt>
      <trkpt lat="48.9457730" lon="9.2128210">
        <ele>204.9000000</ele>
        <time>2010-06-17T12:29:34Z</time>
      </trkpt>
      <trkpt lat="48.9451920" lon="9.2113070">
        <ele>205.3800000</ele>
        <time>2010-06-17T12:29:54Z</time>
      </trkpt>
      <trkpt lat="48.9448750" lon="9.2102190">
        <ele>206.3400000</ele>
        <time>2010-06-17T12:30:09Z</time>
      </trkpt>
      <trkpt lat="48.9448330" lon="9.2100890">
        <ele>206.3400000</ele>
        <time>2010-06-17T12:30:11Z</time>
      </trkpt>
      <trkpt lat="48.9448080" lon="9.2100280">
        <ele>206.8200000</ele>
        <time>2010-06-17T12:30:12Z</time>
      </trkpt>
      <trkpt lat="48.9443440" lon="9.2088110">
        <ele>206.3400000</ele>
        <time>2010-06-17T12:30:28Z</time>
      </trkpt>
      <trkpt lat="48.9439330" lon="9.2076390">
        <ele>205.3800000</ele>
        <time>2010-06-17T12:30:43Z</time>
      </trkpt>
      <trkpt lat="48.9436270" lon="9.2062880">
        <ele>205.3800000</ele>
        <time>2010-06-17T12:30:59Z</time>
      </trkpt>
      <trkpt lat="48.9435020" lon="9.2055450">
        <ele>205.8600000</ele>
        <time>2010-06-17T12:31:08Z</time>
      </trkpt>
      <trkpt lat="48.9434960" lon="9.2054690">
        <ele>206.3400000</ele>
        <time>2010-06-17T12:31:09Z</time>
      </trkpt>
      <trkpt lat="48.9434920" lon="9.2053920">
        <ele>206.3400000</ele>
        <time>2010-06-17T12:31:10Z</time>
      </trkpt>
      <trkpt lat="48.9434900" lon="9.2051580">
        <ele>206.8200000</ele>
        <time>2010-06-17T12:31:13Z</time>
      </trkpt>
      <trkpt lat="48.9434940" lon="9.2050870">
        <ele>206.8200000</ele>
        <time>2010-06-17T12:31:14Z</time>
      </trkpt>
      <trkpt lat="48.9435120" lon="9.2048200">
        <ele>206.3400000</ele>
        <time>2010-06-17T12:31:18Z</time>
      </trkpt>
      <trkpt lat="48.9435140" lon="9.2047570">
        <ele>206.3400000</ele>
        <time>2010-06-17T12:31:19Z</time>
      </trkpt>
      <trkpt lat="48.9435160" lon="9.2040850">
        <ele>210.1900000</ele>
        <time>2010-06-17T12:31:32Z</time>
      </trkpt>
      <trkpt lat="48.9435000" lon="9.2039080">
        <ele>211.1500000</ele>
        <time>2010-06-17T12:31:37Z</time>
      </trkpt>
      <trkpt lat="48.9434820" lon="9.2037760">
        <ele>211.1500000</ele>
        <time>2010-06-17T12:31:47Z</time>
      </trkpt>
      <trkpt lat="48.9434670" lon="9.2037510">
        <ele>211.1500000</ele>
        <time>2010-06-17T12:31:48Z</time>
      </trkpt>
      <trkpt lat="48.9434480" lon="9.2037200">
        <ele>211.1500000</ele>
        <time>2010-06-17T12:31:49Z</time>
      </trkpt>
      <trkpt lat="48.9434180" lon="9.2036960">
        <ele>211.1500000</ele>
        <time>2010-06-17T12:31:50Z</time>
      </trkpt>
      <trkpt lat="48.9433840" lon="9.2036840">
        <ele>211.1500000</ele>
        <time>2010-06-17T12:31:51Z</time>
      </trkpt>
      <trkpt lat="48.9433500" lon="9.2036840">
        <ele>211.1500000</ele>
        <time>2010-06-17T12:31:52Z</time>
      </trkpt>
      <trkpt lat="48.9433130" lon="9.2036830">
        <ele>211.1500000</ele>
        <time>2010-06-17T12:31:53Z</time>
      </trkpt>
      <trkpt lat="48.9428710" lon="9.2037530">
        <ele>210.1900000</ele>
        <time>2010-06-17T12:32:04Z</time>
      </trkpt>
      <trkpt lat="48.9426070" lon="9.2037670">
        <ele>209.2200000</ele>
        <time>2010-06-17T12:32:10Z</time>
      </trkpt>
      <trkpt lat="48.9425530" lon="9.2037820">
        <ele>209.2200000</ele>
        <time>2010-06-17T12:32:11Z</time>
      </trkpt>
      <trkpt lat="48.9419490" lon="9.2043060">
        <ele>206.8200000</ele>
        <time>2010-06-17T12:32:22Z</time>
      </trkpt>
      <trkpt lat="48.9417670" lon="9.2046690">
        <ele>205.3800000</ele>
        <time>2010-06-17T12:32:26Z</time>
      </trkpt>
      <trkpt lat="48.9414970" lon="9.2051570">
        <ele>202.9800000</ele>
        <time>2010-06-17T12:32:31Z</time>
      </trkpt>
      <trkpt lat="48.9413200" lon="9.2053860">
        <ele>202.9800000</ele>
        <time>2010-06-17T12:32:34Z</time>
      </trkpt>
      <trkpt lat="48.9408070" lon="9.2056690">
        <ele>202.9800000</ele>
        <time>2010-06-17T12:32:44Z</time>
      </trkpt>
      <trkpt lat="48.9407640" lon="9.2056710">
        <ele>202.9800000</ele>
        <time>2010-06-17T12:32:45Z</time>
      </trkpt>
      <trkpt lat="48.9406480" lon="9.2056520">
        <ele>202.9800000</ele>
        <time>2010-06-17T12:32:48Z</time>
      </trkpt>
      <trkpt lat="48.9404250" lon="9.2057130">
        <ele>203.9400000</ele>
        <time>2010-06-17T12:32:53Z</time>
      </trkpt>
      <trkpt lat="48.9401150" lon="9.2058080">
        <ele>205.8600000</ele>
        <time>2010-06-17T12:33:02Z</time>
      </trkpt>
      <trkpt lat="48.9400300" lon="9.2058290">
        <ele>205.8600000</ele>
        <time>2010-06-17T12:33:04Z</time>
      </trkpt>
      <trkpt lat="48.9399820" lon="9.2058350">
        <ele>205.8600000</ele>
        <time>2010-06-17T12:33:05Z</time>
      </trkpt>
      <trkpt lat="48.9399270" lon="9.2058470">
        <ele>206.3400000</ele>
        <time>2010-06-17T12:33:06Z</time>
      </trkpt>
      <trkpt lat="48.9394280" lon="9.2059950">
        <ele>204.9000000</ele>
        <time>2010-06-17T12:33:19Z</time>
      </trkpt>
      <trkpt lat="48.9393910" lon="9.2060220">
        <ele>203.9400000</ele>
        <time>2010-06-17T12:33:24Z</time>
      </trkpt>
      <trkpt lat="48.9394160" lon="9.2059520">
        <ele>203.9400000</ele>
        <time>2010-06-17T12:33:34Z</time>
      </trkpt>
      <trkpt lat="48.9394240" lon="9.2059280">
        <ele>204.4200000</ele>
        <time>2010-06-17T12:33:35Z</time>
      </trkpt>
      <trkpt lat="48.9394300" lon="9.2058960">
        <ele>204.4200000</ele>
        <time>2010-06-17T12:33:36Z</time>
      </trkpt>
      <trkpt lat="48.9394350" lon="9.2058630">
        <ele>203.9400000</ele>
        <time>2010-06-17T12:33:37Z</time>
      </trkpt>
      <trkpt lat="48.9394430" lon="9.2058330">
        <ele>203.9400000</ele>
        <time>2010-06-17T12:33:38Z</time>
      </trkpt>
      <trkpt lat="48.9394570" lon="9.2053130">
        <ele>203.9400000</ele>
        <time>2010-06-17T12:33:48Z</time>
      </trkpt>
      <trkpt lat="48.9394510" lon="9.2046150">
        <ele>203.9400000</ele>
        <time>2010-06-17T12:34:00Z</time>
      </trkpt>
      <trkpt lat="48.9394430" lon="9.2045540">
        <ele>203.9400000</ele>
        <time>2010-06-17T12:34:01Z</time>
      </trkpt>
      <trkpt lat="48.9394370" lon="9.2044920">
        <ele>203.9400000</ele>
        <time>2010-06-17T12:34:02Z</time>
      </trkpt>
      <trkpt lat="48.9394250" lon="9.2044350">
        <ele>203.4600000</ele>
        <time>2010-06-17T12:34:03Z</time>
      </trkpt>
      <trkpt lat="48.9394130" lon="9.2043800">
        <ele>203.9400000</ele>
        <time>2010-06-17T12:34:04Z</time>
      </trkpt>
      <trkpt lat="48.9394100" lon="9.2043140">
        <ele>203.4600000</ele>
        <time>2010-06-17T12:34:05Z</time>
      </trkpt>
      <trkpt lat="48.9394060" lon="9.2042490">
        <ele>203.4600000</ele>
        <time>2010-06-17T12:34:06Z</time>
      </trkpt>
      <trkpt lat="48.9394070" lon="9.2041880">
        <ele>203.4600000</ele>
        <time>2010-06-17T12:34:07Z</time>
      </trkpt>
      <trkpt lat="48.9393820" lon="9.2039360">
        <ele>202.0100000</ele>
        <time>2010-06-17T12:34:13Z</time>
      </trkpt>
      <trkpt lat="48.9393910" lon="9.2035110">
        <ele>201.5300000</ele>
        <time>2010-06-17T12:34:21Z</time>
      </trkpt>
      <trkpt lat="48.9394990" lon="9.2024330">
        <ele>201.0500000</ele>
        <time>2010-06-17T12:34:36Z</time>
      </trkpt>
      <trkpt lat="48.9395340" lon="9.2022090">
        <ele>201.0500000</ele>
        <time>2010-06-17T12:34:39Z</time>
      </trkpt>
      <trkpt lat="48.9398700" lon="9.2009220">
        <ele>201.0500000</ele>
        <time>2010-06-17T12:34:56Z</time>
      </trkpt>
      <trkpt lat="48.9401980" lon="9.1998290">
        <ele>201.5300000</ele>
        <time>2010-06-17T12:35:11Z</time>
      </trkpt>
      <trkpt lat="48.9405720" lon="9.1985750">
        <ele>202.9800000</ele>
        <time>2010-06-17T12:35:30Z</time>
      </trkpt>
      <trkpt lat="48.9406950" lon="9.1983410">
        <ele>202.9800000</ele>
        <time>2010-06-17T12:35:35Z</time>
      </trkpt>
      <trkpt lat="48.9407290" lon="9.1983220">
        <ele>202.9800000</ele>
        <time>2010-06-17T12:35:36Z</time>
      </trkpt>
      <trkpt lat="48.9408430" lon="9.1982100">
        <ele>202.9800000</ele>
        <time>2010-06-17T12:35:41Z</time>
      </trkpt>
      <trkpt lat="48.9408290" lon="9.1982000">
        <ele>202.9800000</ele>
        <time>2010-06-17T12:35:43Z</time>
      </trkpt>
      <trkpt lat="48.9408200" lon="9.1982060">
        <ele>203.4600000</ele>
        <time>2010-06-17T12:35:44Z</time>
      </trkpt>
      <trkpt lat="48.9408080" lon="9.1982160">
        <ele>203.4600000</ele>
        <time>2010-06-17T12:35:45Z</time>
      </trkpt>
      <trkpt lat="48.9407910" lon="9.1982290">
        <ele>203.9400000</ele>
        <time>2010-06-17T12:35:46Z</time>
      </trkpt>
      <trkpt lat="48.9407680" lon="9.1982470">
        <ele>203.4600000</ele>
        <time>2010-06-17T12:35:47Z</time>
      </trkpt>
      <trkpt lat="48.9407400" lon="9.1982650">
        <ele>203.4600000</ele>
        <time>2010-06-17T12:35:48Z</time>
      </trkpt>
      <trkpt lat="48.9407100" lon="9.1982790">
        <ele>203.4600000</ele>
        <time>2010-06-17T12:35:49Z</time>
      </trkpt>
      <trkpt lat="48.9406770" lon="9.1982890">
        <ele>203.4600000</ele>
        <time>2010-06-17T12:35:50Z</time>
      </trkpt>
      <trkpt lat="48.9406440" lon="9.1983020">
        <ele>203.4600000</ele>
        <time>2010-06-17T12:35:51Z</time>
      </trkpt>
      <trkpt lat="48.9406170" lon="9.1983320">
        <ele>203.4600000</ele>
        <time>2010-06-17T12:35:52Z</time>
      </trkpt>
      <trkpt lat="48.9405990" lon="9.1983710">
        <ele>203.9400000</ele>
        <time>2010-06-17T12:35:53Z</time>
      </trkpt>
      <trkpt lat="48.9405980" lon="9.1984110">
        <ele>203.4600000</ele>
        <time>2010-06-17T12:35:54Z</time>
      </trkpt>
      <trkpt lat="48.9406110" lon="9.1984340">
        <ele>203.4600000</ele>
        <time>2010-06-17T12:35:55Z</time>
      </trkpt>
      <trkpt lat="48.9406270" lon="9.1984370">
        <ele>203.4600000</ele>
        <time>2010-06-17T12:35:56Z</time>
      </trkpt>
      <trkpt lat="48.9406410" lon="9.1984250">
        <ele>203.4600000</ele>
        <time>2010-06-17T12:35:57Z</time>
      </trkpt>
      <trkpt lat="48.9406620" lon="9.1984090">
        <ele>203.4600000</ele>
        <time>2010-06-17T12:35:58Z</time>
      </trkpt>
      <trkpt lat="48.9406870" lon="9.1984020">
        <ele>203.4600000</ele>
        <time>2010-06-17T12:35:59Z</time>
      </trkpt>
      <trkpt lat="48.9407090" lon="9.1984040">
        <ele>203.4600000</ele>
        <time>2010-06-17T12:36:00Z</time>
      </trkpt>
      <trkpt lat="48.9407340" lon="9.1984070">
        <ele>203.4600000</ele>
        <time>2010-06-17T12:36:01Z</time>
      </trkpt>
      <trkpt lat="48.9408400" lon="9.1983850">
        <ele>202.4900000</ele>
        <time>2010-06-17T12:36:04Z</time>
      </trkpt>
      <trkpt lat="48.9408770" lon="9.1983440">
        <ele>202.4900000</ele>
        <time>2010-06-17T12:36:05Z</time>
      </trkpt>
      <trkpt lat="48.9409270" lon="9.1982800">
        <ele>202.0100000</ele>
        <time>2010-06-17T12:36:06Z</time>
      </trkpt>
      <trkpt lat="48.9409700" lon="9.1981970">
        <ele>202.0100000</ele>
        <time>2010-06-17T12:36:07Z</time>
      </trkpt>
      <trkpt lat="48.9410040" lon="9.1981050">
        <ele>202.0100000</ele>
        <time>2010-06-17T12:36:08Z</time>
      </trkpt>
      <trkpt lat="48.9410350" lon="9.1980150">
        <ele>201.5300000</ele>
        <time>2010-06-17T12:36:09Z</time>
      </trkpt>
      <trkpt lat="48.9413490" lon="9.1971000">
        <ele>202.0100000</ele>
        <time>2010-06-17T12:36:20Z</time>
      </trkpt>
      <trkpt lat="48.9414120" lon="9.1969510">
        <ele>201.5300000</ele>
        <time>2010-06-17T12:36:22Z</time>
      </trkpt>
      <trkpt lat="48.9415590" lon="9.1965530">
        <ele>201.5300000</ele>
        <time>2010-06-17T12:36:27Z</time>
      </trkpt>
      <trkpt lat="48.9416490" lon="9.1962330">
        <ele>202.0100000</ele>
        <time>2010-06-17T12:36:31Z</time>
      </trkpt>
      <trkpt lat="48.9416810" lon="9.1960500">
        <ele>203.4600000</ele>
        <time>2010-06-17T12:36:34Z</time>
      </trkpt>
      <trkpt lat="48.9418870" lon="9.1954760">
        <ele>202.0100000</ele>
        <time>2010-06-17T12:36:42Z</time>
      </trkpt>
      <trkpt lat="48.9420380" lon="9.1952120">
        <ele>202.0100000</ele>
        <time>2010-06-17T12:36:46Z</time>
      </trkpt>
      <trkpt lat="48.9420810" lon="9.1951500">
        <ele>202.0100000</ele>
        <time>2010-06-17T12:36:47Z</time>
      </trkpt>
      <trkpt lat="48.9421340" lon="9.1950820">
        <ele>201.5300000</ele>
        <time>2010-06-17T12:36:48Z</time>
      </trkpt>
      <trkpt lat="48.9423350" lon="9.1948330">
        <ele>202.0100000</ele>
        <time>2010-06-17T12:36:52Z</time>
      </trkpt>
      <trkpt lat="48.9425550" lon="9.1944220">
        <ele>200.5700000</ele>
        <time>2010-06-17T12:36:59Z</time>
      </trkpt>
      <trkpt lat="48.9425840" lon="9.1943710">
        <ele>201.0500000</ele>
        <time>2010-06-17T12:37:00Z</time>
      </trkpt>
      <trkpt lat="48.9426150" lon="9.1943200">
        <ele>200.5700000</ele>
        <time>2010-06-17T12:37:01Z</time>
      </trkpt>
      <trkpt lat="48.9426440" lon="9.1942660">
        <ele>200.5700000</ele>
        <time>2010-06-17T12:37:02Z</time>
      </trkpt>
      <trkpt lat="48.9426670" lon="9.1942090">
        <ele>201.0500000</ele>
        <time>2010-06-17T12:37:03Z</time>
      </trkpt>
      <trkpt lat="48.9426870" lon="9.1941480">
        <ele>201.0500000</ele>
        <time>2010-06-17T12:37:04Z</time>
      </trkpt>
      <trkpt lat="48.9427040" lon="9.1940790">
        <ele>200.5700000</ele>
        <time>2010-06-17T12:37:05Z</time>
      </trkpt>
      <trkpt lat="48.9427210" lon="9.1940080">
        <ele>200.5700000</ele>
        <time>2010-06-17T12:37:06Z</time>
      </trkpt>
      <trkpt lat="48.9429170" lon="9.1931960">
        <ele>201.0500000</ele>
        <time>2010-06-17T12:37:17Z</time>
      </trkpt>
      <trkpt lat="48.9429370" lon="9.1931280">
        <ele>201.0500000</ele>
        <time>2010-06-17T12:37:18Z</time>
      </trkpt>
      <trkpt lat="48.9429500" lon="9.1930580">
        <ele>201.0500000</ele>
        <time>2010-06-17T12:37:19Z</time>
      </trkpt>
      <trkpt lat="48.9429620" lon="9.1929930">
        <ele>201.0500000</ele>
        <time>2010-06-17T12:37:20Z</time>
      </trkpt>
      <trkpt lat="48.9429760" lon="9.1929320">
        <ele>201.0500000</ele>
        <time>2010-06-17T12:37:21Z</time>
      </trkpt>
      <trkpt lat="48.9429880" lon="9.1928690">
        <ele>201.5300000</ele>
        <time>2010-06-17T12:37:22Z</time>
      </trkpt>
      <trkpt lat="48.9429960" lon="9.1928060">
        <ele>201.0500000</ele>
        <time>2010-06-17T12:37:23Z</time>
      </trkpt>
      <trkpt lat="48.9430090" lon="9.1927470">
        <ele>201.0500000</ele>
        <time>2010-06-17T12:37:24Z</time>
      </trkpt>
      <trkpt lat="48.9430280" lon="9.1926880">
        <ele>201.0500000</ele>
        <time>2010-06-17T12:37:25Z</time>
      </trkpt>
      <trkpt lat="48.9430490" lon="9.1926270">
        <ele>201.5300000</ele>
        <time>2010-06-17T12:37:26Z</time>
      </trkpt>
      <trkpt lat="48.9433150" lon="9.1915260">
        <ele>201.0500000</ele>
        <time>2010-06-17T12:37:40Z</time>
      </trkpt>
      <trkpt lat="48.9433840" lon="9.1908150">
        <ele>200.5700000</ele>
        <time>2010-06-17T12:37:48Z</time>
      </trkpt>
      <trkpt lat="48.9433840" lon="9.1907230">
        <ele>200.0900000</ele>
        <time>2010-06-17T12:37:49Z</time>
      </trkpt>
      <trkpt lat="48.9433840" lon="9.1904410">
        <ele>200.5700000</ele>
        <time>2010-06-17T12:37:52Z</time>
      </trkpt>
      <trkpt lat="48.9431050" lon="9.1891920">
        <ele>201.0500000</ele>
        <time>2010-06-17T12:38:06Z</time>
      </trkpt>
      <trkpt lat="48.9426900" lon="9.1884660">
        <ele>201.0500000</ele>
        <time>2010-06-17T12:38:17Z</time>
      </trkpt>
      <trkpt lat="48.9426550" lon="9.1884060">
        <ele>200.5700000</ele>
        <time>2010-06-17T12:38:18Z</time>
      </trkpt>
      <trkpt lat="48.9426190" lon="9.1883490">
        <ele>200.5700000</ele>
        <time>2010-06-17T12:38:19Z</time>
      </trkpt>
      <trkpt lat="48.9424720" lon="9.1881250">
        <ele>199.6100000</ele>
        <time>2010-06-17T12:38:23Z</time>
      </trkpt>
      <trkpt lat="48.9424290" lon="9.1880680">
        <ele>199.1300000</ele>
        <time>2010-06-17T12:38:24Z</time>
      </trkpt>
      <trkpt lat="48.9419330" lon="9.1873800">
        <ele>199.6100000</ele>
        <time>2010-06-17T12:38:36Z</time>
      </trkpt>
      <trkpt lat="48.9418880" lon="9.1873330">
        <ele>200.0900000</ele>
        <time>2010-06-17T12:38:37Z</time>
      </trkpt>
      <trkpt lat="48.9416280" lon="9.1869920">
        <ele>199.6100000</ele>
        <time>2010-06-17T12:38:45Z</time>
      </trkpt>
      <trkpt lat="48.9416240" lon="9.1869420">
        <ele>199.6100000</ele>
        <time>2010-06-17T12:38:46Z</time>
      </trkpt>
      <trkpt lat="48.9416350" lon="9.1868920">
        <ele>199.6100000</ele>
        <time>2010-06-17T12:38:47Z</time>
      </trkpt>
      <trkpt lat="48.9416590" lon="9.1868490">
        <ele>199.6100000</ele>
        <time>2010-06-17T12:38:48Z</time>
      </trkpt>
      <trkpt lat="48.9416880" lon="9.1868100">
        <ele>199.1300000</ele>
        <time>2010-06-17T12:38:49Z</time>
      </trkpt>
      <trkpt lat="48.9417240" lon="9.1867680">
        <ele>199.6100000</ele>
        <time>2010-06-17T12:38:50Z</time>
      </trkpt>
      <trkpt lat="48.9417610" lon="9.1867240">
        <ele>199.6100000</ele>
        <time>2010-06-17T12:38:51Z</time>
      </trkpt>
      <trkpt lat="48.9417950" lon="9.1866800">
        <ele>199.6100000</ele>
        <time>2010-06-17T12:38:52Z</time>
      </trkpt>
      <trkpt lat="48.9418700" lon="9.1865780">
        <ele>199.6100000</ele>
        <time>2010-06-17T12:38:54Z</time>
      </trkpt>
      <trkpt lat="48.9423680" lon="9.1859650">
        <ele>199.1300000</ele>
        <time>2010-06-17T12:39:07Z</time>
      </trkpt>
      <trkpt lat="48.9430220" lon="9.1853600">
        <ele>199.1300000</ele>
        <time>2010-06-17T12:39:20Z</time>
      </trkpt>
      <trkpt lat="48.9433120" lon="9.1850650">
        <ele>199.1300000</ele>
        <time>2010-06-17T12:39:26Z</time>
      </trkpt>
      <trkpt lat="48.9434040" lon="9.1849680">
        <ele>199.1300000</ele>
        <time>2010-06-17T12:39:28Z</time>
      </trkpt>
      <trkpt lat="48.9438240" lon="9.1845880">
        <ele>200.0900000</ele>
        <time>2010-06-17T12:39:37Z</time>
      </trkpt>
      <trkpt lat="48.9444630" lon="9.1842400">
        <ele>200.0900000</ele>
        <time>2010-06-17T12:39:50Z</time>
      </trkpt>
      <trkpt lat="48.9448500" lon="9.1840210">
        <ele>199.6100000</ele>
        <time>2010-06-17T12:39:57Z</time>
      </trkpt>
      <trkpt lat="48.9449050" lon="9.1839770">
        <ele>199.6100000</ele>
        <time>2010-06-17T12:39:58Z</time>
      </trkpt>
      <trkpt lat="48.9454700" lon="9.1834570">
        <ele>200.0900000</ele>
        <time>2010-06-17T12:40:10Z</time>
      </trkpt>
      <trkpt lat="48.9456540" lon="9.1833510">
        <ele>201.5300000</ele>
        <time>2010-06-17T12:40:14Z</time>
      </trkpt>
      <trkpt lat="48.9458690" lon="9.1832540">
        <ele>201.5300000</ele>
        <time>2010-06-17T12:40:19Z</time>
      </trkpt>
      <trkpt lat="48.9463120" lon="9.1831020">
        <ele>200.5700000</ele>
        <time>2010-06-17T12:40:28Z</time>
      </trkpt>
      <trkpt lat="48.9463670" lon="9.1830950">
        <ele>200.5700000</ele>
        <time>2010-06-17T12:40:29Z</time>
      </trkpt>
      <trkpt lat="48.9472640" lon="9.1829650">
        <ele>199.1300000</ele>
        <time>2010-06-17T12:40:43Z</time>
      </trkpt>
      <trkpt lat="48.9480740" lon="9.1828240">
        <ele>198.1700000</ele>
        <time>2010-06-17T12:40:55Z</time>
      </trkpt>
      <trkpt lat="48.9489860" lon="9.1826780">
        <ele>197.6900000</ele>
        <time>2010-06-17T12:41:10Z</time>
      </trkpt>
      <trkpt lat="48.9496780" lon="9.1825960">
        <ele>197.2100000</ele>
        <time>2010-06-17T12:41:22Z</time>
      </trkpt>
      <trkpt lat="48.9497340" lon="9.1826120">
        <ele>196.7300000</ele>
        <time>2010-06-17T12:41:23Z</time>
      </trkpt>
      <trkpt lat="48.9497890" lon="9.1826310">
        <ele>196.7300000</ele>
        <time>2010-06-17T12:41:24Z</time>
      </trkpt>
      <trkpt lat="48.9505690" lon="9.1831010">
        <ele>196.7300000</ele>
        <time>2010-06-17T12:41:39Z</time>
      </trkpt>
      <trkpt lat="48.9513030" lon="9.1833920">
        <ele>196.7300000</ele>
        <time>2010-06-17T12:41:52Z</time>
      </trkpt>
      <trkpt lat="48.9521750" lon="9.1834040">
        <ele>198.1700000</ele>
        <time>2010-06-17T12:42:06Z</time>
      </trkpt>
      <trkpt lat="48.9530360" lon="9.1834790">
        <ele>197.6900000</ele>
        <time>2010-06-17T12:42:20Z</time>
      </trkpt>
      <trkpt lat="48.9540220" lon="9.1836120">
        <ele>197.6900000</ele>
        <time>2010-06-17T12:42:36Z</time>
      </trkpt>
      <trkpt lat="48.9549400" lon="9.1837660">
        <ele>197.6900000</ele>
        <time>2010-06-17T12:42:51Z</time>
      </trkpt>
      <trkpt lat="48.9557310" lon="9.1838260">
        <ele>198.6500000</ele>
        <time>2010-06-17T12:43:05Z</time>
      </trkpt>
      <trkpt lat="48.9558950" lon="9.1838680">
        <ele>199.1300000</ele>
        <time>2010-06-17T12:43:08Z</time>
      </trkpt>
      <trkpt lat="48.9562730" lon="9.1840850">
        <ele>199.1300000</ele>
        <time>2010-06-17T12:43:15Z</time>
      </trkpt>
      <trkpt lat="48.9563210" lon="9.1841230">
        <ele>198.6500000</ele>
        <time>2010-06-17T12:43:16Z</time>
      </trkpt>
      <trkpt lat="48.9563730" lon="9.1841550">
        <ele>199.1300000</ele>
        <time>2010-06-17T12:43:17Z</time>
      </trkpt>
      <trkpt lat="48.9564260" lon="9.1841830">
        <ele>199.1300000</ele>
        <time>2010-06-17T12:43:18Z</time>
      </trkpt>
      <trkpt lat="48.9564790" lon="9.1842170">
        <ele>199.1300000</ele>
        <time>2010-06-17T12:43:19Z</time>
      </trkpt>
      <trkpt lat="48.9572990" lon="9.1847580">
        <ele>198.6500000</ele>
        <time>2010-06-17T12:43:34Z</time>
      </trkpt>
      <trkpt lat="48.9580930" lon="9.1852800">
        <ele>198.6500000</ele>
        <time>2010-06-17T12:43:48Z</time>
      </trkpt>
      <trkpt lat="48.9586520" lon="9.1857460">
        <ele>199.6100000</ele>
        <time>2010-06-17T12:43:59Z</time>
      </trkpt>
      <trkpt lat="48.9592090" lon="9.1862890">
        <ele>198.6500000</ele>
        <time>2010-06-17T12:44:10Z</time>
      </trkpt>
      <trkpt lat="48.9598400" lon="9.1867580">
        <ele>197.2100000</ele>
        <time>2010-06-17T12:44:23Z</time>
      </trkpt>
      <trkpt lat="48.9600130" lon="9.1868660">
        <ele>197.2100000</ele>
        <time>2010-06-17T12:44:27Z</time>
      </trkpt>
      <trkpt lat="48.9602760" lon="9.1870370">
        <ele>198.6500000</ele>
        <time>2010-06-17T12:44:37Z</time>
      </trkpt>
      <trkpt lat="48.9603050" lon="9.1870210">
        <ele>198.6500000</ele>
        <time>2010-06-17T12:44:38Z</time>
      </trkpt>
      <trkpt lat="48.9603300" lon="9.1870100">
        <ele>198.1700000</ele>
        <time>2010-06-17T12:44:39Z</time>
      </trkpt>
      <trkpt lat="48.9603550" lon="9.1870090">
        <ele>198.1700000</ele>
        <time>2010-06-17T12:44:40Z</time>
      </trkpt>
      <trkpt lat="48.9603780" lon="9.1870100">
        <ele>198.6500000</ele>
        <time>2010-06-17T12:44:41Z</time>
      </trkpt>
      <trkpt lat="48.9604850" lon="9.1870340">
        <ele>198.6500000</ele>
        <time>2010-06-17T12:44:54Z</time>
      </trkpt>
      <trkpt lat="48.9605210" lon="9.1869990">
        <ele>199.6100000</ele>
        <time>2010-06-17T12:45:15Z</time>
      </trkpt>
      <trkpt lat="48.9605400" lon="9.1869660">
        <ele>199.6100000</ele>
        <time>2010-06-17T12:45:16Z</time>
      </trkpt>
      <trkpt lat="48.9605530" lon="9.1869270">
        <ele>199.1300000</ele>
        <time>2010-06-17T12:45:17Z</time>
      </trkpt>
      <trkpt lat="48.9606060" lon="9.1864470">
        <ele>201.0500000</ele>
        <time>2010-06-17T12:45:27Z</time>
      </trkpt>
      <trkpt lat="48.9607080" lon="9.1859550">
        <ele>203.4600000</ele>
        <time>2010-06-17T12:45:39Z</time>
      </trkpt>
      <trkpt lat="48.9607970" lon="9.1856330">
        <ele>205.3800000</ele>
        <time>2010-06-17T12:45:49Z</time>
      </trkpt>
      <trkpt lat="48.9607850" lon="9.1856070">
        <ele>205.8600000</ele>
        <time>2010-06-17T12:45:50Z</time>
      </trkpt>
      <trkpt lat="48.9607720" lon="9.1855870">
        <ele>205.8600000</ele>
        <time>2010-06-17T12:45:51Z</time>
      </trkpt>
      <trkpt lat="48.9607610" lon="9.1855740">
        <ele>206.3400000</ele>
        <time>2010-06-17T12:45:52Z</time>
      </trkpt>
      <trkpt lat="48.9607490" lon="9.1855660">
        <ele>206.3400000</ele>
        <time>2010-06-17T12:45:53Z</time>
      </trkpt>
      <trkpt lat="48.9607390" lon="9.1855620">
        <ele>205.8600000</ele>
        <time>2010-06-17T12:45:54Z</time>
      </trkpt>
      <trkpt lat="48.9607170" lon="9.1855580">
        <ele>206.3400000</ele>
        <time>2010-06-17T12:46:13Z</time>
      </trkpt>
      <trkpt lat="48.9605810" lon="9.1855000">
        <ele>207.7800000</ele>
        <time>2010-06-17T12:46:23Z</time>
      </trkpt>
      <trkpt lat="48.9603740" lon="9.1854060">
        <ele>210.1900000</ele>
        <time>2010-06-17T12:46:35Z</time>
      </trkpt>
      <trkpt lat="48.9602510" lon="9.1852850">
        <ele>213.0700000</ele>
        <time>2010-06-17T12:46:42Z</time>
      </trkpt>
      <trkpt lat="48.9602350" lon="9.1852750">
        <ele>213.0700000</ele>
        <time>2010-06-17T12:46:43Z</time>
      </trkpt>
      <trkpt lat="48.9600680" lon="9.1851530">
        <ele>215.4700000</ele>
        <time>2010-06-17T12:46:55Z</time>
      </trkpt>
      <trkpt lat="48.9598590" lon="9.1850460">
        <ele>217.8800000</ele>
        <time>2010-06-17T12:47:08Z</time>
      </trkpt>
      <trkpt lat="48.9598460" lon="9.1850270">
        <ele>218.3600000</ele>
        <time>2010-06-17T12:47:09Z</time>
      </trkpt>
      <trkpt lat="48.9598360" lon="9.1850070">
        <ele>218.3600000</ele>
        <time>2010-06-17T12:47:10Z</time>
      </trkpt>
      <trkpt lat="48.9598270" lon="9.1849800">
        <ele>218.3600000</ele>
        <time>2010-06-17T12:47:11Z</time>
      </trkpt>
      <trkpt lat="48.9598220" lon="9.1849510">
        <ele>218.8400000</ele>
        <time>2010-06-17T12:47:12Z</time>
      </trkpt>
      <trkpt lat="48.9598190" lon="9.1849220">
        <ele>218.8400000</ele>
        <time>2010-06-17T12:47:13Z</time>
      </trkpt>
      <trkpt lat="48.9598350" lon="9.1844850">
        <ele>220.7600000</ele>
        <time>2010-06-17T12:47:28Z</time>
      </trkpt>
      <trkpt lat="48.9599260" lon="9.1840860">
        <ele>219.3200000</ele>
        <time>2010-06-17T12:47:44Z</time>
      </trkpt>
      <trkpt lat="48.9599460" lon="9.1839820">
        <ele>219.3200000</ele>
        <time>2010-06-17T12:47:57Z</time>
      </trkpt>
      <trkpt lat="48.9599780" lon="9.1838350">
        <ele>218.3600000</ele>
        <time>2010-06-17T12:48:15Z</time>
      </trkpt>
      <trkpt lat="48.9599970" lon="9.1833330">
        <ele>221.7200000</ele>
        <time>2010-06-17T12:48:27Z</time>
      </trkpt>
      <trkpt lat="48.9600610" lon="9.1827030">
        <ele>223.6400000</ele>
        <time>2010-06-17T12:48:41Z</time>
      </trkpt>
      <trkpt lat="48.9601080" lon="9.1821510">
        <ele>224.6100000</ele>
        <time>2010-06-17T12:48:53Z</time>
      </trkpt>
      <trkpt lat="48.9602060" lon="9.1813460">
        <ele>225.5700000</ele>
        <time>2010-06-17T12:49:07Z</time>
      </trkpt>
      <trkpt lat="48.9602800" lon="9.1806800">
        <ele>226.5300000</ele>
        <time>2010-06-17T12:49:20Z</time>
      </trkpt>
      <trkpt lat="48.9603410" lon="9.1798360">
        <ele>227.9700000</ele>
        <time>2010-06-17T12:49:36Z</time>
      </trkpt>
      <trkpt lat="48.9604230" lon="9.1791080">
        <ele>228.9300000</ele>
        <time>2010-06-17T12:49:50Z</time>
      </trkpt>
      <trkpt lat="48.9604950" lon="9.1782950">
        <ele>230.3700000</ele>
        <time>2010-06-17T12:50:05Z</time>
      </trkpt>
      <trkpt lat="48.9605900" lon="9.1774780">
        <ele>231.3300000</ele>
        <time>2010-06-17T12:50:20Z</time>
      </trkpt>
      <trkpt lat="48.9606540" lon="9.1766840">
        <ele>232.7800000</ele>
        <time>2010-06-17T12:50:35Z</time>
      </trkpt>
      <trkpt lat="48.9607020" lon="9.1761740">
        <ele>232.7800000</ele>
        <time>2010-06-17T12:50:48Z</time>
      </trkpt>
      <trkpt lat="48.9607290" lon="9.1758090">
        <ele>233.2600000</ele>
        <time>2010-06-17T12:50:58Z</time>
      </trkpt>
      <trkpt lat="48.9608350" lon="9.1749390">
        <ele>233.2600000</ele>
        <time>2010-06-17T12:51:15Z</time>
      </trkpt>
      <trkpt lat="48.9609850" lon="9.1737940">
        <ele>233.2600000</ele>
        <time>2010-06-17T12:51:33Z</time>
      </trkpt>
      <trkpt lat="48.9611390" lon="9.1727730">
        <ele>233.2600000</ele>
        <time>2010-06-17T12:51:47Z</time>
      </trkpt>
      <trkpt lat="48.9612750" lon="9.1716670">
        <ele>234.7000000</ele>
        <time>2010-06-17T12:52:02Z</time>
      </trkpt>
      <trkpt lat="48.9613130" lon="9.1713560">
        <ele>234.7000000</ele>
        <time>2010-06-17T12:52:06Z</time>
      </trkpt>
      <trkpt lat="48.9615030" lon="9.1696810">
        <ele>235.6600000</ele>
        <time>2010-06-17T12:52:27Z</time>
      </trkpt>
      <trkpt lat="48.9616530" lon="9.1683150">
        <ele>235.1800000</ele>
        <time>2010-06-17T12:52:44Z</time>
      </trkpt>
      <trkpt lat="48.9618210" lon="9.1670810">
        <ele>236.1400000</ele>
        <time>2010-06-17T12:53:01Z</time>
      </trkpt>
      <trkpt lat="48.9618940" lon="9.1662250">
        <ele>236.1400000</ele>
        <time>2010-06-17T12:53:16Z</time>
      </trkpt>
      <trkpt lat="48.9619110" lon="9.1659640">
        <ele>236.1400000</ele>
        <time>2010-06-17T12:53:20Z</time>
      </trkpt>
      <trkpt lat="48.9619140" lon="9.1658950">
        <ele>236.1400000</ele>
        <time>2010-06-17T12:53:21Z</time>
      </trkpt>
      <trkpt lat="48.9619300" lon="9.1657560">
        <ele>236.6200000</ele>
        <time>2010-06-17T12:53:23Z</time>
      </trkpt>
      <trkpt lat="48.9619690" lon="9.1655580">
        <ele>236.6200000</ele>
        <time>2010-06-17T12:53:26Z</time>
      </trkpt>
      <trkpt lat="48.9619880" lon="9.1654930">
        <ele>236.1400000</ele>
        <time>2010-06-17T12:53:27Z</time>
      </trkpt>
      <trkpt lat="48.9621310" lon="9.1647520">
        <ele>237.5800000</ele>
        <time>2010-06-17T12:53:37Z</time>
      </trkpt>
      <trkpt lat="48.9621460" lon="9.1646810">
        <ele>237.1000000</ele>
        <time>2010-06-17T12:53:38Z</time>
      </trkpt>
      <trkpt lat="48.9621870" lon="9.1643360">
        <ele>238.0600000</ele>
        <time>2010-06-17T12:53:43Z</time>
      </trkpt>
      <trkpt lat="48.9622440" lon="9.1640580">
        <ele>237.5800000</ele>
        <time>2010-06-17T12:53:47Z</time>
      </trkpt>
      <trkpt lat="48.9622990" lon="9.1638500">
        <ele>237.1000000</ele>
        <time>2010-06-17T12:53:50Z</time>
      </trkpt>
      <trkpt lat="48.9623090" lon="9.1637800">
        <ele>237.1000000</ele>
        <time>2010-06-17T12:53:51Z</time>
      </trkpt>
      <trkpt lat="48.9623800" lon="9.1633270">
        <ele>237.1000000</ele>
        <time>2010-06-17T12:53:57Z</time>
      </trkpt>
      <trkpt lat="48.9625190" lon="9.1624310">
        <ele>237.5800000</ele>
        <time>2010-06-17T12:54:09Z</time>
      </trkpt>
      <trkpt lat="48.9625300" lon="9.1623560">
        <ele>237.1000000</ele>
        <time>2010-06-17T12:54:10Z</time>
      </trkpt>
      <trkpt lat="48.9625420" lon="9.1622800">
        <ele>237.1000000</ele>
        <time>2010-06-17T12:54:11Z</time>
      </trkpt>
      <trkpt lat="48.9625770" lon="9.1620660">
        <ele>237.1000000</ele>
        <time>2010-06-17T12:54:14Z</time>
      </trkpt>
      <trkpt lat="48.9625900" lon="9.1619930">
        <ele>237.1000000</ele>
        <time>2010-06-17T12:54:15Z</time>
      </trkpt>
      <trkpt lat="48.9626250" lon="9.1617850">
        <ele>237.1000000</ele>
        <time>2010-06-17T12:54:18Z</time>
      </trkpt>
      <trkpt lat="48.9626390" lon="9.1617180">
        <ele>237.5800000</ele>
        <time>2010-06-17T12:54:19Z</time>
      </trkpt>
      <trkpt lat="48.9626560" lon="9.1615890">
        <ele>237.1000000</ele>
        <time>2010-06-17T12:54:21Z</time>
      </trkpt>
      <trkpt lat="48.9626680" lon="9.1615240">
        <ele>237.5800000</ele>
        <time>2010-06-17T12:54:22Z</time>
      </trkpt>
      <trkpt lat="48.9626830" lon="9.1614590">
        <ele>237.5800000</ele>
        <time>2010-06-17T12:54:23Z</time>
      </trkpt>
      <trkpt lat="48.9627400" lon="9.1608850">
        <ele>237.1000000</ele>
        <time>2010-06-17T12:54:32Z</time>
      </trkpt>
      <trkpt lat="48.9627590" lon="9.1608130">
        <ele>237.1000000</ele>
        <time>2010-06-17T12:54:33Z</time>
      </trkpt>
      <trkpt lat="48.9628280" lon="9.1605940">
        <ele>237.1000000</ele>
        <time>2010-06-17T12:54:36Z</time>
      </trkpt>
      <trkpt lat="48.9628530" lon="9.1605170">
        <ele>236.6200000</ele>
        <time>2010-06-17T12:54:37Z</time>
      </trkpt>
      <trkpt lat="48.9628720" lon="9.1604380">
        <ele>236.6200000</ele>
        <time>2010-06-17T12:54:38Z</time>
      </trkpt>
      <trkpt lat="48.9629710" lon="9.1600470">
        <ele>236.6200000</ele>
        <time>2010-06-17T12:54:43Z</time>
      </trkpt>
      <trkpt lat="48.9631290" lon="9.1594680">
        <ele>237.5800000</ele>
        <time>2010-06-17T12:54:50Z</time>
      </trkpt>
      <trkpt lat="48.9631750" lon="9.1593190">
        <ele>237.5800000</ele>
        <time>2010-06-17T12:54:52Z</time>
      </trkpt>
      <trkpt lat="48.9631870" lon="9.1592380">
        <ele>237.5800000</ele>
        <time>2010-06-17T12:54:53Z</time>
      </trkpt>
      <trkpt lat="48.9632660" lon="9.1587130">
        <ele>238.0600000</ele>
        <time>2010-06-17T12:55:00Z</time>
      </trkpt>
      <trkpt lat="48.9633220" lon="9.1583960">
        <ele>238.0600000</ele>
        <time>2010-06-17T12:55:04Z</time>
      </trkpt>
      <trkpt lat="48.9633590" lon="9.1582630">
        <ele>238.0600000</ele>
        <time>2010-06-17T12:55:06Z</time>
      </trkpt>
      <trkpt lat="48.9634760" lon="9.1575460">
        <ele>238.5400000</ele>
        <time>2010-06-17T12:55:17Z</time>
      </trkpt>
      <trkpt lat="48.9634680" lon="9.1575050">
        <ele>238.5400000</ele>
        <time>2010-06-17T12:55:18Z</time>
      </trkpt>
      <trkpt lat="48.9634540" lon="9.1574610">
        <ele>238.5400000</ele>
        <time>2010-06-17T12:55:19Z</time>
      </trkpt>
      <trkpt lat="48.9633810" lon="9.1567570">
        <ele>236.6200000</ele>
        <time>2010-06-17T12:55:31Z</time>
      </trkpt>
      <trkpt lat="48.9633810" lon="9.1565790">
        <ele>236.6200000</ele>
        <time>2010-06-17T12:55:33Z</time>
      </trkpt>
      <trkpt lat="48.9633690" lon="9.1564090">
        <ele>236.6200000</ele>
        <time>2010-06-17T12:55:35Z</time>
      </trkpt>
      <trkpt lat="48.9632550" lon="9.1559830">
        <ele>235.6600000</ele>
        <time>2010-06-17T12:55:40Z</time>
      </trkpt>
      <trkpt lat="48.9632110" lon="9.1559060">
        <ele>235.1800000</ele>
        <time>2010-06-17T12:55:41Z</time>
      </trkpt>
      <trkpt lat="48.9630000" lon="9.1555650">
        <ele>234.2200000</ele>
        <time>2010-06-17T12:55:46Z</time>
      </trkpt>
      <trkpt lat="48.9629690" lon="9.1554900">
        <ele>233.7400000</ele>
        <time>2010-06-17T12:55:47Z</time>
      </trkpt>
      <trkpt lat="48.9628800" lon="9.1551180">
        <ele>233.7400000</ele>
        <time>2010-06-17T12:55:51Z</time>
      </trkpt>
      <trkpt lat="48.9628600" lon="9.1550290">
        <ele>233.2600000</ele>
        <time>2010-06-17T12:55:52Z</time>
      </trkpt>
      <trkpt lat="48.9628500" lon="9.1549250">
        <ele>233.2600000</ele>
        <time>2010-06-17T12:55:53Z</time>
      </trkpt>
      <trkpt lat="48.9628830" lon="9.1548110">
        <ele>233.2600000</ele>
        <time>2010-06-17T12:55:54Z</time>
      </trkpt>
      <trkpt lat="48.9628850" lon="9.1547000">
        <ele>232.7800000</ele>
        <time>2010-06-17T12:55:55Z</time>
      </trkpt>
      <trkpt lat="48.9628720" lon="9.1545970">
        <ele>232.7800000</ele>
        <time>2010-06-17T12:55:56Z</time>
      </trkpt>
      <trkpt lat="48.9628160" lon="9.1540720">
        <ele>232.7800000</ele>
        <time>2010-06-17T12:56:01Z</time>
      </trkpt>
      <trkpt lat="48.9627290" lon="9.1536320">
        <ele>233.2600000</ele>
        <time>2010-06-17T12:56:06Z</time>
      </trkpt>
      <trkpt lat="48.9626890" lon="9.1535390">
        <ele>233.2600000</ele>
        <time>2010-06-17T12:56:07Z</time>
      </trkpt>
      <trkpt lat="48.9626700" lon="9.1534580">
        <ele>233.2600000</ele>
        <time>2010-06-17T12:56:08Z</time>
      </trkpt>
      <trkpt lat="48.9625490" lon="9.1531120">
        <ele>233.7400000</ele>
        <time>2010-06-17T12:56:12Z</time>
      </trkpt>
      <trkpt lat="48.9625030" lon="9.1529850">
        <ele>233.2600000</ele>
        <time>2010-06-17T12:56:14Z</time>
      </trkpt>
      <trkpt lat="48.9624900" lon="9.1529050">
        <ele>234.2200000</ele>
        <time>2010-06-17T12:56:15Z</time>
      </trkpt>
      <trkpt lat="48.9621330" lon="9.1519250">
        <ele>237.1000000</ele>
        <time>2010-06-17T12:56:28Z</time>
      </trkpt>
      <trkpt lat="48.9618950" lon="9.1512170">
        <ele>237.5800000</ele>
        <time>2010-06-17T12:56:38Z</time>
      </trkpt>
      <trkpt lat="48.9617290" lon="9.1510040">
        <ele>237.1000000</ele>
        <time>2010-06-17T12:56:43Z</time>
      </trkpt>
      <trkpt lat="48.9612680" lon="9.1505330">
        <ele>235.1800000</ele>
        <time>2010-06-17T12:56:54Z</time>
      </trkpt>
      <trkpt lat="48.9607080" lon="9.1500230">
        <ele>232.7800000</ele>
        <time>2010-06-17T12:57:04Z</time>
      </trkpt>
      <trkpt lat="48.9600380" lon="9.1493690">
        <ele>229.8900000</ele>
        <time>2010-06-17T12:57:13Z</time>
      </trkpt>
      <trkpt lat="48.9594870" lon="9.1489120">
        <ele>228.9300000</ele>
        <time>2010-06-17T12:57:21Z</time>
      </trkpt>
      <trkpt lat="48.9591080" lon="9.1485600">
        <ele>228.4500000</ele>
        <time>2010-06-17T12:57:28Z</time>
      </trkpt>
      <trkpt lat="48.9585080" lon="9.1480660">
        <ele>227.0100000</ele>
        <time>2010-06-17T12:57:39Z</time>
      </trkpt>
      <trkpt lat="48.9583480" lon="9.1479050">
        <ele>226.5300000</ele>
        <time>2010-06-17T12:57:42Z</time>
      </trkpt>
      <trkpt lat="48.9582960" lon="9.1478690">
        <ele>227.0100000</ele>
        <time>2010-06-17T12:57:43Z</time>
      </trkpt>
      <trkpt lat="48.9582450" lon="9.1478300">
        <ele>227.0100000</ele>
        <time>2010-06-17T12:57:44Z</time>
      </trkpt>
      <trkpt lat="48.9581940" lon="9.1477890">
        <ele>226.5300000</ele>
        <time>2010-06-17T12:57:45Z</time>
      </trkpt>
      <trkpt lat="48.9581420" lon="9.1477510">
        <ele>224.6100000</ele>
        <time>2010-06-17T12:57:46Z</time>
      </trkpt>
      <trkpt lat="48.9580940" lon="9.1477120">
        <ele>225.0900000</ele>
        <time>2010-06-17T12:57:47Z</time>
      </trkpt>
      <trkpt lat="48.9579520" lon="9.1475720">
        <ele>223.6400000</ele>
        <time>2010-06-17T12:57:51Z</time>
      </trkpt>
      <trkpt lat="48.9579360" lon="9.1475090">
        <ele>223.6400000</ele>
        <time>2010-06-17T12:57:52Z</time>
      </trkpt>
      <trkpt lat="48.9579250" lon="9.1474390">
        <ele>223.6400000</ele>
        <time>2010-06-17T12:57:53Z</time>
      </trkpt>
      <trkpt lat="48.9579140" lon="9.1473770">
        <ele>223.1600000</ele>
        <time>2010-06-17T12:57:54Z</time>
      </trkpt>
      <trkpt lat="48.9578990" lon="9.1473280">
        <ele>223.6400000</ele>
        <time>2010-06-17T12:57:55Z</time>
      </trkpt>
      <trkpt lat="48.9578890" lon="9.1472980">
        <ele>223.1600000</ele>
        <time>2010-06-17T12:57:56Z</time>
      </trkpt>
      <trkpt lat="48.9578870" lon="9.1472740">
        <ele>223.6400000</ele>
        <time>2010-06-17T12:58:09Z</time>
      </trkpt>
      <trkpt lat="48.9578880" lon="9.1472810">
        <ele>223.1600000</ele>
        <time>2010-06-17T12:59:03Z</time>
      </trkpt>
      <trkpt lat="48.9578900" lon="9.1472650">
        <ele>223.1600000</ele>
        <time>2010-06-17T13:00:03Z</time>
      </trkpt>
      <trkpt lat="48.9578900" lon="9.1472410">
        <ele>223.1600000</ele>
        <time>2010-06-17T13:00:04Z</time>
      </trkpt>
      <trkpt lat="48.9578870" lon="9.1472120">
        <ele>222.6800000</ele>
        <time>2010-06-17T13:00:05Z</time>
      </trkpt>
      <trkpt lat="48.9578830" lon="9.1471790">
        <ele>223.1600000</ele>
        <time>2010-06-17T13:00:06Z</time>
      </trkpt>
      <trkpt lat="48.9578790" lon="9.1471430">
        <ele>223.1600000</ele>
        <time>2010-06-17T13:00:07Z</time>
      </trkpt>
      <trkpt lat="48.9578780" lon="9.1471010">
        <ele>222.6800000</ele>
        <time>2010-06-17T13:00:08Z</time>
      </trkpt>
      <trkpt lat="48.9578970" lon="9.1467250">
        <ele>222.2000000</ele>
        <time>2010-06-17T13:00:15Z</time>
      </trkpt>
      <trkpt lat="48.9579000" lon="9.1465870">
        <ele>222.2000000</ele>
        <time>2010-06-17T13:00:17Z</time>
      </trkpt>
      <trkpt lat="48.9579090" lon="9.1463770">
        <ele>221.7200000</ele>
        <time>2010-06-17T13:00:20Z</time>
      </trkpt>
      <trkpt lat="48.9578790" lon="9.1459300">
        <ele>220.2800000</ele>
        <time>2010-06-17T13:00:26Z</time>
      </trkpt>
      <trkpt lat="48.9578760" lon="9.1456300">
        <ele>218.3600000</ele>
        <time>2010-06-17T13:00:29Z</time>
      </trkpt>
      <trkpt lat="48.9579090" lon="9.1447900">
        <ele>215.4700000</ele>
        <time>2010-06-17T13:00:36Z</time>
      </trkpt>
      <trkpt lat="48.9579180" lon="9.1446610">
        <ele>214.9900000</ele>
        <time>2010-06-17T13:00:37Z</time>
      </trkpt>
      <trkpt lat="48.9579330" lon="9.1445310">
        <ele>214.5100000</ele>
        <time>2010-06-17T13:00:38Z</time>
      </trkpt>
      <trkpt lat="48.9580720" lon="9.1430340">
        <ele>214.5100000</ele>
        <time>2010-06-17T13:00:51Z</time>
      </trkpt>
      <trkpt lat="48.9581380" lon="9.1426740">
        <ele>215.4700000</ele>
        <time>2010-06-17T13:00:55Z</time>
      </trkpt>
      <trkpt lat="48.9584180" lon="9.1414970">
        <ele>214.9900000</ele>
        <time>2010-06-17T13:01:11Z</time>
      </trkpt>
      <trkpt lat="48.9584390" lon="9.1414310">
        <ele>214.9900000</ele>
        <time>2010-06-17T13:01:12Z</time>
      </trkpt>
      <trkpt lat="48.9585640" lon="9.1409750">
        <ele>214.5100000</ele>
        <time>2010-06-17T13:01:18Z</time>
      </trkpt>
      <trkpt lat="48.9586220" lon="9.1408240">
        <ele>213.5500000</ele>
        <time>2010-06-17T13:01:20Z</time>
      </trkpt>
      <trkpt lat="48.9590310" lon="9.1396470">
        <ele>212.1100000</ele>
        <time>2010-06-17T13:01:34Z</time>
      </trkpt>
      <trkpt lat="48.9591420" lon="9.1393640">
        <ele>211.1500000</ele>
        <time>2010-06-17T13:01:42Z</time>
      </trkpt>
      <trkpt lat="48.9591710" lon="9.1392330">
        <ele>210.6700000</ele>
        <time>2010-06-17T13:02:11Z</time>
      </trkpt>
      <trkpt lat="48.9595210" lon="9.1383010">
        <ele>207.3000000</ele>
        <time>2010-06-17T13:02:23Z</time>
      </trkpt>
      <trkpt lat="48.9595600" lon="9.1382010">
        <ele>206.8200000</ele>
        <time>2010-06-17T13:02:24Z</time>
      </trkpt>
      <trkpt lat="48.9598460" lon="9.1375650">
        <ele>203.9400000</ele>
        <time>2010-06-17T13:02:30Z</time>
      </trkpt>
      <trkpt lat="48.9600550" lon="9.1370970">
        <ele>202.0100000</ele>
        <time>2010-06-17T13:02:34Z</time>
      </trkpt>
      <trkpt lat="48.9601930" lon="9.1367580">
        <ele>200.0900000</ele>
        <time>2010-06-17T13:02:37Z</time>
      </trkpt>
      <trkpt lat="48.9602260" lon="9.1366360">
        <ele>199.6100000</ele>
        <time>2010-06-17T13:02:38Z</time>
      </trkpt>
      <trkpt lat="48.9602490" lon="9.1365140">
        <ele>199.1300000</ele>
        <time>2010-06-17T13:02:39Z</time>
      </trkpt>
      <trkpt lat="48.9603170" lon="9.1360300">
        <ele>197.2100000</ele>
        <time>2010-06-17T13:02:43Z</time>
      </trkpt>
      <trkpt lat="48.9603370" lon="9.1357700">
        <ele>196.2500000</ele>
        <time>2010-06-17T13:02:45Z</time>
      </trkpt>
      <trkpt lat="48.9603300" lon="9.1356410">
        <ele>195.7700000</ele>
        <time>2010-06-17T13:02:46Z</time>
      </trkpt>
      <trkpt lat="48.9603130" lon="9.1355140">
        <ele>195.2800000</ele>
        <time>2010-06-17T13:02:47Z</time>
      </trkpt>
      <trkpt lat="48.9602850" lon="9.1353920">
        <ele>194.8000000</ele>
        <time>2010-06-17T13:02:48Z</time>
      </trkpt>
      <trkpt lat="48.9602470" lon="9.1352730">
        <ele>194.8000000</ele>
        <time>2010-06-17T13:02:49Z</time>
      </trkpt>
      <trkpt lat="48.9602020" lon="9.1351580">
        <ele>194.3200000</ele>
        <time>2010-06-17T13:02:50Z</time>
      </trkpt>
      <trkpt lat="48.9601510" lon="9.1350430">
        <ele>193.8400000</ele>
        <time>2010-06-17T13:02:51Z</time>
      </trkpt>
      <trkpt lat="48.9598160" lon="9.1343480">
        <ele>190.4800000</ele>
        <time>2010-06-17T13:02:57Z</time>
      </trkpt>
      <trkpt lat="48.9596200" lon="9.1339600">
        <ele>190.4800000</ele>
        <time>2010-06-17T13:03:01Z</time>
      </trkpt>
      <trkpt lat="48.9592600" lon="9.1333340">
        <ele>191.9200000</ele>
        <time>2010-06-17T13:03:11Z</time>
      </trkpt>
      <trkpt lat="48.9591720" lon="9.1332180">
        <ele>191.4400000</ele>
        <time>2010-06-17T13:03:14Z</time>
      </trkpt>
      <trkpt lat="48.9591450" lon="9.1331700">
        <ele>190.9600000</ele>
        <time>2010-06-17T13:03:15Z</time>
      </trkpt>
      <trkpt lat="48.9591260" lon="9.1331210">
        <ele>190.9600000</ele>
        <time>2010-06-17T13:03:16Z</time>
      </trkpt>
      <trkpt lat="48.9591230" lon="9.1330710">
        <ele>190.4800000</ele>
        <time>2010-06-17T13:03:17Z</time>
      </trkpt>
      <trkpt lat="48.9591340" lon="9.1330240">
        <ele>190.4800000</ele>
        <time>2010-06-17T13:03:18Z</time>
      </trkpt>
      <trkpt lat="48.9591550" lon="9.1329830">
        <ele>190.4800000</ele>
        <time>2010-06-17T13:03:19Z</time>
      </trkpt>
      <trkpt lat="48.9591790" lon="9.1329510">
        <ele>190.4800000</ele>
        <time>2010-06-17T13:03:20Z</time>
      </trkpt>
      <trkpt lat="48.9592020" lon="9.1329290">
        <ele>190.0000000</ele>
        <time>2010-06-17T13:03:21Z</time>
      </trkpt>
      <trkpt lat="48.9592250" lon="9.1329070">
        <ele>190.0000000</ele>
        <time>2010-06-17T13:03:22Z</time>
      </trkpt>
      <trkpt lat="48.9592450" lon="9.1328800">
        <ele>190.0000000</ele>
        <time>2010-06-17T13:03:23Z</time>
      </trkpt>
      <trkpt lat="48.9592620" lon="9.1328480">
        <ele>189.5200000</ele>
        <time>2010-06-17T13:03:24Z</time>
      </trkpt>
      <trkpt lat="48.9592750" lon="9.1328130">
        <ele>190.0000000</ele>
        <time>2010-06-17T13:03:25Z</time>
      </trkpt>
      <trkpt lat="48.9592810" lon="9.1327660">
        <ele>190.4800000</ele>
        <time>2010-06-17T13:03:26Z</time>
      </trkpt>
      <trkpt lat="48.9592750" lon="9.1326940">
        <ele>190.0000000</ele>
        <time>2010-06-17T13:03:27Z</time>
      </trkpt>
      <trkpt lat="48.9592550" lon="9.1326250">
        <ele>190.4800000</ele>
        <time>2010-06-17T13:03:28Z</time>
      </trkpt>
      <trkpt lat="48.9592310" lon="9.1325520">
        <ele>190.4800000</ele>
        <time>2010-06-17T13:03:29Z</time>
      </trkpt>
      <trkpt lat="48.9592200" lon="9.1324850">
        <ele>189.5200000</ele>
        <time>2010-06-17T13:03:30Z</time>
      </trkpt>
      <trkpt lat="48.9592170" lon="9.1324230">
        <ele>190.0000000</ele>
        <time>2010-06-17T13:03:31Z</time>
      </trkpt>
      <trkpt lat="48.9592150" lon="9.1323710">
        <ele>190.4800000</ele>
        <time>2010-06-17T13:03:32Z</time>
      </trkpt>
      <trkpt lat="48.9592130" lon="9.1323240">
        <ele>190.4800000</ele>
        <time>2010-06-17T13:03:33Z</time>
      </trkpt>
      <trkpt lat="48.9590800" lon="9.1317670">
        <ele>191.4400000</ele>
        <time>2010-06-17T13:03:45Z</time>
      </trkpt>
      <trkpt lat="48.9590140" lon="9.1316050">
        <ele>191.4400000</ele>
        <time>2010-06-17T13:03:55Z</time>
      </trkpt>
      <trkpt lat="48.9590060" lon="9.1315830">
        <ele>190.4800000</ele>
        <time>2010-06-17T13:04:02Z</time>
      </trkpt>
      <trkpt lat="48.9590010" lon="9.1315560">
        <ele>190.9600000</ele>
        <time>2010-06-17T13:04:03Z</time>
      </trkpt>
      <trkpt lat="48.9590040" lon="9.1315300">
        <ele>191.4400000</ele>
        <time>2010-06-17T13:04:04Z</time>
      </trkpt>
      <trkpt lat="48.9590110" lon="9.1315050">
        <ele>190.9600000</ele>
        <time>2010-06-17T13:04:05Z</time>
      </trkpt>
      <trkpt lat="48.9590200" lon="9.1314810">
        <ele>190.9600000</ele>
        <time>2010-06-17T13:04:06Z</time>
      </trkpt>
      <trkpt lat="48.9590300" lon="9.1314640">
        <ele>191.4400000</ele>
        <time>2010-06-17T13:04:07Z</time>
      </trkpt>
      <trkpt lat="48.9592150" lon="9.1311840">
        <ele>191.4400000</ele>
        <time>2010-06-17T13:04:18Z</time>
      </trkpt>
      <trkpt lat="48.9596090" lon="9.1306350">
        <ele>192.4000000</ele>
        <time>2010-06-17T13:04:36Z</time>
      </trkpt>
      <trkpt lat="48.9599990" lon="9.1300640">
        <ele>191.4400000</ele>
        <time>2010-06-17T13:04:51Z</time>
      </trkpt>
      <trkpt lat="48.9601880" lon="9.1297500">
        <ele>193.3600000</ele>
        <time>2010-06-17T13:05:02Z</time>
      </trkpt>
      <trkpt lat="48.9602530" lon="9.1297020">
        <ele>193.3600000</ele>
        <time>2010-06-17T13:05:05Z</time>
      </trkpt>
      <trkpt lat="48.9602640" lon="9.1296840">
        <ele>193.8400000</ele>
        <time>2010-06-17T13:05:06Z</time>
      </trkpt>
      <trkpt lat="48.9602780" lon="9.1296690">
        <ele>193.8400000</ele>
        <time>2010-06-17T13:05:07Z</time>
      </trkpt>
      <trkpt lat="48.9602920" lon="9.1296540">
        <ele>193.8400000</ele>
        <time>2010-06-17T13:05:08Z</time>
      </trkpt>
      <trkpt lat="48.9603070" lon="9.1296430">
        <ele>194.3200000</ele>
        <time>2010-06-17T13:05:09Z</time>
      </trkpt>
      <trkpt lat="48.9604160" lon="9.1295870">
        <ele>195.7700000</ele>
        <time>2010-06-17T13:05:16Z</time>
      </trkpt>
      <trkpt lat="48.9604220" lon="9.1295650">
        <ele>195.7700000</ele>
        <time>2010-06-17T13:05:17Z</time>
      </trkpt>
      <trkpt lat="48.9604410" lon="9.1295470">
        <ele>195.7700000</ele>
        <time>2010-06-17T13:05:18Z</time>
      </trkpt>
      <trkpt lat="48.9604820" lon="9.1295070">
        <ele>192.4000000</ele>
        <time>2010-06-17T13:05:20Z</time>
      </trkpt>
      <trkpt lat="48.9605510" lon="9.1294280">
        <ele>196.2500000</ele>
        <time>2010-06-17T13:05:24Z</time>
      </trkpt>
      <trkpt lat="48.9607910" lon="9.1290930">
        <ele>198.6500000</ele>
        <time>2010-06-17T13:05:38Z</time>
      </trkpt>
      <trkpt lat="48.9608830" lon="9.1287280">
        <ele>201.0500000</ele>
        <time>2010-06-17T13:05:50Z</time>
      </trkpt>
      <trkpt lat="48.9608760" lon="9.1286490">
        <ele>201.5300000</ele>
        <time>2010-06-17T13:05:52Z</time>
      </trkpt>
      <trkpt lat="48.9608760" lon="9.1286150">
        <ele>201.5300000</ele>
        <time>2010-06-17T13:05:53Z</time>
      </trkpt>
      <trkpt lat="48.9608760" lon="9.1285760">
        <ele>202.0100000</ele>
        <time>2010-06-17T13:05:54Z</time>
      </trkpt>
      <trkpt lat="48.9608730" lon="9.1285380">
        <ele>202.0100000</ele>
        <time>2010-06-17T13:05:55Z</time>
      </trkpt>
      <trkpt lat="48.9608740" lon="9.1285040">
        <ele>202.4900000</ele>
        <time>2010-06-17T13:05:56Z</time>
      </trkpt>
      <trkpt lat="48.9608700" lon="9.1284730">
        <ele>202.0100000</ele>
        <time>2010-06-17T13:05:57Z</time>
      </trkpt>
      <trkpt lat="48.9608630" lon="9.1284410">
        <ele>202.4900000</ele>
        <time>2010-06-17T13:05:58Z</time>
      </trkpt>
      <trkpt lat="48.9608560" lon="9.1284050">
        <ele>202.9800000</ele>
        <time>2010-06-17T13:05:59Z</time>
      </trkpt>
      <trkpt lat="48.9608510" lon="9.1283700">
        <ele>202.4900000</ele>
        <time>2010-06-17T13:06:00Z</time>
      </trkpt>
      <trkpt lat="48.9608470" lon="9.1283350">
        <ele>202.9800000</ele>
        <time>2010-06-17T13:06:01Z</time>
      </trkpt>
      <trkpt lat="48.9608420" lon="9.1282980">
        <ele>202.9800000</ele>
        <time>2010-06-17T13:06:02Z</time>
      </trkpt>
      <trkpt lat="48.9607950" lon="9.1277670">
        <ele>204.4200000</ele>
        <time>2010-06-17T13:06:17Z</time>
      </trkpt>
      <trkpt lat="48.9608460" lon="9.1271550">
        <ele>207.3000000</ele>
        <time>2010-06-17T13:06:34Z</time>
      </trkpt>
      <trkpt lat="48.9610170" lon="9.1266000">
        <ele>209.2200000</ele>
        <time>2010-06-17T13:06:50Z</time>
      </trkpt>
      <trkpt lat="48.9612020" lon="9.1261350">
        <ele>211.1500000</ele>
        <time>2010-06-17T13:07:04Z</time>
      </trkpt>
      <trkpt lat="48.9613340" lon="9.1256970">
        <ele>212.1100000</ele>
        <time>2010-06-17T13:07:17Z</time>
      </trkpt>
      <trkpt lat="48.9615180" lon="9.1252240">
        <ele>214.9900000</ele>
        <time>2010-06-17T13:07:32Z</time>
      </trkpt>
      <trkpt lat="48.9616690" lon="9.1247920">
        <ele>216.9100000</ele>
        <time>2010-06-17T13:07:46Z</time>
      </trkpt>
      <trkpt lat="48.9617880" lon="9.1244530">
        <ele>220.2800000</ele>
        <time>2010-06-17T13:07:57Z</time>
      </trkpt>
      <trkpt lat="48.9619550" lon="9.1239510">
        <ele>221.2400000</ele>
        <time>2010-06-17T13:08:13Z</time>
      </trkpt>
      <trkpt lat="48.9620840" lon="9.1234820">
        <ele>223.6400000</ele>
        <time>2010-06-17T13:08:28Z</time>
      </trkpt>
      <trkpt lat="48.9620820" lon="9.1234510">
        <ele>224.1200000</ele>
        <time>2010-06-17T13:08:29Z</time>
      </trkpt>
      <trkpt lat="48.9620740" lon="9.1234280">
        <ele>224.6100000</ele>
        <time>2010-06-17T13:08:30Z</time>
      </trkpt>
      <trkpt lat="48.9620650" lon="9.1234060">
        <ele>224.1200000</ele>
        <time>2010-06-17T13:08:44Z</time>
      </trkpt>
      <trkpt lat="48.9620650" lon="9.1234080">
        <ele>223.6400000</ele>
        <time>2010-06-17T13:09:32Z</time>
      </trkpt>
      <trkpt lat="48.9620560" lon="9.1234280">
        <ele>224.1200000</ele>
        <time>2010-06-17T13:09:44Z</time>
      </trkpt>
      <trkpt lat="48.9620410" lon="9.1234450">
        <ele>223.6400000</ele>
        <time>2010-06-17T13:09:45Z</time>
      </trkpt>
      <trkpt lat="48.9620190" lon="9.1234570">
        <ele>223.6400000</ele>
        <time>2010-06-17T13:09:46Z</time>
      </trkpt>
      <trkpt lat="48.9619970" lon="9.1234750">
        <ele>223.6400000</ele>
        <time>2010-06-17T13:09:47Z</time>
      </trkpt>
      <trkpt lat="48.9619740" lon="9.1234920">
        <ele>223.6400000</ele>
        <time>2010-06-17T13:09:48Z</time>
      </trkpt>
      <trkpt lat="48.9619470" lon="9.1235020">
        <ele>223.1600000</ele>
        <time>2010-06-17T13:09:49Z</time>
      </trkpt>
      <trkpt lat="48.9619130" lon="9.1235100">
        <ele>222.6800000</ele>
        <time>2010-06-17T13:09:50Z</time>
      </trkpt>
      <trkpt lat="48.9618790" lon="9.1235160">
        <ele>223.1600000</ele>
        <time>2010-06-17T13:09:51Z</time>
      </trkpt>
      <trkpt lat="48.9618040" lon="9.1235150">
        <ele>222.2000000</ele>
        <time>2010-06-17T13:09:53Z</time>
      </trkpt>
      <trkpt lat="48.9616070" lon="9.1234610">
        <ele>220.7600000</ele>
        <time>2010-06-17T13:09:57Z</time>
      </trkpt>
      <trkpt lat="48.9612470" lon="9.1233510">
        <ele>217.8800000</ele>
        <time>2010-06-17T13:10:03Z</time>
      </trkpt>
      <trkpt lat="48.9611810" lon="9.1233330">
        <ele>217.8800000</ele>
        <time>2010-06-17T13:10:04Z</time>
      </trkpt>
      <trkpt lat="48.9609240" lon="9.1232600">
        <ele>216.9100000</ele>
        <time>2010-06-17T13:10:09Z</time>
      </trkpt>
      <trkpt lat="48.9608290" lon="9.1232560">
        <ele>216.4300000</ele>
        <time>2010-06-17T13:10:11Z</time>
      </trkpt>
      <trkpt lat="48.9607240" lon="9.1232620">
        <ele>215.4700000</ele>
        <time>2010-06-17T13:10:13Z</time>
      </trkpt>
      <trkpt lat="48.9605090" lon="9.1232370">
        <ele>214.0300000</ele>
        <time>2010-06-17T13:10:17Z</time>
      </trkpt>
      <trkpt lat="48.9604510" lon="9.1232340">
        <ele>214.9900000</ele>
        <time>2010-06-17T13:10:18Z</time>
      </trkpt>
      <trkpt lat="48.9599890" lon="9.1232160">
        <ele>212.5900000</ele>
        <time>2010-06-17T13:10:25Z</time>
      </trkpt>
      <trkpt lat="48.9596460" lon="9.1231720">
        <ele>210.6700000</ele>
        <time>2010-06-17T13:10:31Z</time>
      </trkpt>
      <trkpt lat="48.9596000" lon="9.1231440">
        <ele>210.6700000</ele>
        <time>2010-06-17T13:10:32Z</time>
      </trkpt>
      <trkpt lat="48.9595640" lon="9.1231040">
        <ele>210.1900000</ele>
        <time>2010-06-17T13:10:33Z</time>
      </trkpt>
      <trkpt lat="48.9594260" lon="9.1229240">
        <ele>208.7400000</ele>
        <time>2010-06-17T13:10:37Z</time>
      </trkpt>
      <trkpt lat="48.9593990" lon="9.1228660">
        <ele>208.2600000</ele>
        <time>2010-06-17T13:10:38Z</time>
      </trkpt>
      <trkpt lat="48.9593740" lon="9.1228070">
        <ele>207.7800000</ele>
        <time>2010-06-17T13:10:39Z</time>
      </trkpt>
      <trkpt lat="48.9593520" lon="9.1227440">
        <ele>207.3000000</ele>
        <time>2010-06-17T13:10:40Z</time>
      </trkpt>
      <trkpt lat="48.9593340" lon="9.1226810">
        <ele>207.3000000</ele>
        <time>2010-06-17T13:10:41Z</time>
      </trkpt>
      <trkpt lat="48.9593160" lon="9.1226190">
        <ele>206.8200000</ele>
        <time>2010-06-17T13:10:42Z</time>
      </trkpt>
      <trkpt lat="48.9591810" lon="9.1220640">
        <ele>204.9000000</ele>
        <time>2010-06-17T13:10:54Z</time>
      </trkpt>
      <trkpt lat="48.9591800" lon="9.1220540">
        <ele>203.9400000</ele>
        <time>2010-06-17T13:11:15Z</time>
      </trkpt>
      <trkpt lat="48.9591710" lon="9.1220190">
        <ele>203.9400000</ele>
        <time>2010-06-17T13:11:17Z</time>
      </trkpt>
      <trkpt lat="48.9591690" lon="9.1219930">
        <ele>203.9400000</ele>
        <time>2010-06-17T13:11:18Z</time>
      </trkpt>
      <trkpt lat="48.9591680" lon="9.1219660">
        <ele>204.4200000</ele>
        <time>2010-06-17T13:11:19Z</time>
      </trkpt>
      <trkpt lat="48.9591720" lon="9.1219450">
        <ele>204.4200000</ele>
        <time>2010-06-17T13:11:20Z</time>
      </trkpt>
      <trkpt lat="48.9591770" lon="9.1219250">
        <ele>204.4200000</ele>
        <time>2010-06-17T13:11:21Z</time>
      </trkpt>
      <trkpt lat="48.9591810" lon="9.1219030">
        <ele>204.4200000</ele>
        <time>2010-06-17T13:11:22Z</time>
      </trkpt>
      <trkpt lat="48.9591840" lon="9.1218810">
        <ele>204.4200000</ele>
        <time>2010-06-17T13:11:23Z</time>
      </trkpt>
      <trkpt lat="48.9591850" lon="9.1218530">
        <ele>204.4200000</ele>
        <time>2010-06-17T13:11:24Z</time>
      </trkpt>
      <trkpt lat="48.9591840" lon="9.1218190">
        <ele>204.4200000</ele>
        <time>2010-06-17T13:11:25Z</time>
      </trkpt>
      <trkpt lat="48.9591870" lon="9.1217770">
        <ele>204.9000000</ele>
        <time>2010-06-17T13:11:26Z</time>
      </trkpt>
      <trkpt lat="48.9591950" lon="9.1217320">
        <ele>204.4200000</ele>
        <time>2010-06-17T13:11:27Z</time>
      </trkpt>
      <trkpt lat="48.9593350" lon="9.1209850">
        <ele>203.4600000</ele>
        <time>2010-06-17T13:11:40Z</time>
      </trkpt>
      <trkpt lat="48.9596350" lon="9.1197180">
        <ele>201.0500000</ele>
        <time>2010-06-17T13:11:54Z</time>
      </trkpt>
      <trkpt lat="48.9597830" lon="9.1180940">
        <ele>201.0500000</ele>
        <time>2010-06-17T13:12:10Z</time>
      </trkpt>
      <trkpt lat="48.9595810" lon="9.1168510">
        <ele>199.1300000</ele>
        <time>2010-06-17T13:12:22Z</time>
      </trkpt>
      <trkpt lat="48.9589900" lon="9.1154520">
        <ele>197.2100000</ele>
        <time>2010-06-17T13:12:36Z</time>
      </trkpt>
      <trkpt lat="48.9589600" lon="9.1153470">
        <ele>197.2100000</ele>
        <time>2010-06-17T13:12:37Z</time>
      </trkpt>
      <trkpt lat="48.9587850" lon="9.1143430">
        <ele>197.6900000</ele>
        <time>2010-06-17T13:12:47Z</time>
      </trkpt>
      <trkpt lat="48.9587800" lon="9.1142480">
        <ele>197.6900000</ele>
        <time>2010-06-17T13:12:48Z</time>
      </trkpt>
      <trkpt lat="48.9587730" lon="9.1140730">
        <ele>197.6900000</ele>
        <time>2010-06-17T13:12:50Z</time>
      </trkpt>
      <trkpt lat="48.9587590" lon="9.1140100">
        <ele>197.6900000</ele>
        <time>2010-06-17T13:12:51Z</time>
      </trkpt>
      <trkpt lat="48.9587340" lon="9.1139690">
        <ele>198.1700000</ele>
        <time>2010-06-17T13:12:52Z</time>
      </trkpt>
      <trkpt lat="48.9587070" lon="9.1139470">
        <ele>197.6900000</ele>
        <time>2010-06-17T13:12:53Z</time>
      </trkpt>
      <trkpt lat="48.9586830" lon="9.1139230">
        <ele>197.6900000</ele>
        <time>2010-06-17T13:12:54Z</time>
      </trkpt>
      <trkpt lat="48.9586690" lon="9.1138770">
        <ele>197.2100000</ele>
        <time>2010-06-17T13:12:55Z</time>
      </trkpt>
      <trkpt lat="48.9586690" lon="9.1138150">
        <ele>196.7300000</ele>
        <time>2010-06-17T13:12:56Z</time>
      </trkpt>
      <trkpt lat="48.9586820" lon="9.1137510">
        <ele>196.7300000</ele>
        <time>2010-06-17T13:12:57Z</time>
      </trkpt>
      <trkpt lat="48.9586980" lon="9.1136870">
        <ele>196.2500000</ele>
        <time>2010-06-17T13:12:58Z</time>
      </trkpt>
      <trkpt lat="48.9587090" lon="9.1136190">
        <ele>196.2500000</ele>
        <time>2010-06-17T13:12:59Z</time>
      </trkpt>
      <trkpt lat="48.9587200" lon="9.1135460">
        <ele>196.2500000</ele>
        <time>2010-06-17T13:13:00Z</time>
      </trkpt>
      <trkpt lat="48.9587300" lon="9.1134660">
        <ele>196.2500000</ele>
        <time>2010-06-17T13:13:01Z</time>
      </trkpt>
      <trkpt lat="48.9589790" lon="9.1119360">
        <ele>196.2500000</ele>
        <time>2010-06-17T13:13:19Z</time>
      </trkpt>
      <trkpt lat="48.9590240" lon="9.1115800">
        <ele>195.7700000</ele>
        <time>2010-06-17T13:13:23Z</time>
      </trkpt>
      <trkpt lat="48.9590330" lon="9.1114940">
        <ele>195.7700000</ele>
        <time>2010-06-17T13:13:24Z</time>
      </trkpt>
      <trkpt lat="48.9590200" lon="9.1104080">
        <ele>196.7300000</ele>
        <time>2010-06-17T13:13:37Z</time>
      </trkpt>
      <trkpt lat="48.9589610" lon="9.1100320">
        <ele>197.2100000</ele>
        <time>2010-06-17T13:13:42Z</time>
      </trkpt>
      <trkpt lat="48.9588170" lon="9.1090980">
        <ele>198.6500000</ele>
        <time>2010-06-17T13:13:54Z</time>
      </trkpt>
      <trkpt lat="48.9587650" lon="9.1080080">
        <ele>200.0900000</ele>
        <time>2010-06-17T13:14:09Z</time>
      </trkpt>
      <trkpt lat="48.9589090" lon="9.1074450">
        <ele>202.0100000</ele>
        <time>2010-06-17T13:14:22Z</time>
      </trkpt>
      <trkpt lat="48.9590150" lon="9.1069470">
        <ele>204.4200000</ele>
        <time>2010-06-17T13:14:36Z</time>
      </trkpt>
      <trkpt lat="48.9591100" lon="9.1064620">
        <ele>207.7800000</ele>
        <time>2010-06-17T13:14:52Z</time>
      </trkpt>
      <trkpt lat="48.9592360" lon="9.1059970">
        <ele>211.1500000</ele>
        <time>2010-06-17T13:15:10Z</time>
      </trkpt>
      <trkpt lat="48.9593360" lon="9.1056140">
        <ele>214.5100000</ele>
        <time>2010-06-17T13:15:26Z</time>
      </trkpt>
      <trkpt lat="48.9594410" lon="9.1052580">
        <ele>217.4000000</ele>
        <time>2010-06-17T13:15:41Z</time>
      </trkpt>
      <trkpt lat="48.9595430" lon="9.1048590">
        <ele>219.8000000</ele>
        <time>2010-06-17T13:15:57Z</time>
      </trkpt>
      <trkpt lat="48.9597150" lon="9.1045170">
        <ele>221.7200000</ele>
        <time>2010-06-17T13:16:12Z</time>
      </trkpt>
      <trkpt lat="48.9598600" lon="9.1041550">
        <ele>223.6400000</ele>
        <time>2010-06-17T13:16:25Z</time>
      </trkpt>
      <trkpt lat="48.9599540" lon="9.1038740">
        <ele>224.1200000</ele>
        <time>2010-06-17T13:16:34Z</time>
      </trkpt>
      <trkpt lat="48.9601770" lon="9.1031470">
        <ele>224.6100000</ele>
        <time>2010-06-17T13:16:48Z</time>
      </trkpt>
      <trkpt lat="48.9603840" lon="9.1026420">
        <ele>224.1200000</ele>
        <time>2010-06-17T13:16:59Z</time>
      </trkpt>
      <trkpt lat="48.9606890" lon="9.1022340">
        <ele>224.6100000</ele>
        <time>2010-06-17T13:17:14Z</time>
      </trkpt>
      <trkpt lat="48.9609110" lon="9.1021390">
        <ele>227.0100000</ele>
        <time>2010-06-17T13:17:28Z</time>
      </trkpt>
      <trkpt lat="48.9611500" lon="9.1021830">
        <ele>230.3700000</ele>
        <time>2010-06-17T13:17:39Z</time>
      </trkpt>
      <trkpt lat="48.9613310" lon="9.1022700">
        <ele>232.7800000</ele>
        <time>2010-06-17T13:17:49Z</time>
      </trkpt>
      <trkpt lat="48.9614260" lon="9.1022930">
        <ele>233.2600000</ele>
        <time>2010-06-17T13:17:52Z</time>
      </trkpt>
      <trkpt lat="48.9615290" lon="9.1020850">
        <ele>233.7400000</ele>
        <time>2010-06-17T13:18:00Z</time>
      </trkpt>
      <trkpt lat="48.9615570" lon="9.1018340">
        <ele>236.1400000</ele>
        <time>2010-06-17T13:18:07Z</time>
      </trkpt>
      <trkpt lat="48.9616070" lon="9.1013250">
        <ele>237.1000000</ele>
        <time>2010-06-17T13:18:20Z</time>
      </trkpt>
      <trkpt lat="48.9616410" lon="9.1009210">
        <ele>236.1400000</ele>
        <time>2010-06-17T13:18:28Z</time>
      </trkpt>
      <trkpt lat="48.9617480" lon="9.1002750">
        <ele>237.5800000</ele>
        <time>2010-06-17T13:18:41Z</time>
      </trkpt>
      <trkpt lat="48.9618420" lon="9.0997060">
        <ele>238.0600000</ele>
        <time>2010-06-17T13:18:52Z</time>
      </trkpt>
      <trkpt lat="48.9619700" lon="9.0989060">
        <ele>238.0600000</ele>
        <time>2010-06-17T13:19:07Z</time>
      </trkpt>
      <trkpt lat="48.9620640" lon="9.0980890">
        <ele>239.0200000</ele>
        <time>2010-06-17T13:19:22Z</time>
      </trkpt>
      <trkpt lat="48.9621110" lon="9.0971430">
        <ele>241.4300000</ele>
        <time>2010-06-17T13:19:39Z</time>
      </trkpt>
      <trkpt lat="48.9621230" lon="9.0971040">
        <ele>241.9100000</ele>
        <time>2010-06-17T13:19:40Z</time>
      </trkpt>
      <trkpt lat="48.9622090" lon="9.0970280">
        <ele>242.8700000</ele>
        <time>2010-06-17T13:19:44Z</time>
      </trkpt>
      <trkpt lat="48.9625290" lon="9.0968500">
        <ele>246.2300000</ele>
        <time>2010-06-17T13:19:57Z</time>
      </trkpt>
      <trkpt lat="48.9628910" lon="9.0968140">
        <ele>248.1600000</ele>
        <time>2010-06-17T13:20:11Z</time>
      </trkpt>
      <trkpt lat="48.9629810" lon="9.0968030">
        <ele>248.1600000</ele>
        <time>2010-06-17T13:20:14Z</time>
      </trkpt>
      <trkpt lat="48.9630500" lon="9.0962480">
        <ele>250.0800000</ele>
        <time>2010-06-17T13:20:27Z</time>
      </trkpt>
      <trkpt lat="48.9631030" lon="9.0955980">
        <ele>251.0400000</ele>
        <time>2010-06-17T13:20:42Z</time>
      </trkpt>
      <trkpt lat="48.9631710" lon="9.0948720">
        <ele>252.4800000</ele>
        <time>2010-06-17T13:20:58Z</time>
      </trkpt>
      <trkpt lat="48.9632680" lon="9.0941650">
        <ele>253.9300000</ele>
        <time>2010-06-17T13:21:13Z</time>
      </trkpt>
      <trkpt lat="48.9633170" lon="9.0936680">
        <ele>254.8900000</ele>
        <time>2010-06-17T13:21:24Z</time>
      </trkpt>
      <trkpt lat="48.9634700" lon="9.0929500">
        <ele>254.8900000</ele>
        <time>2010-06-17T13:21:37Z</time>
      </trkpt>
      <trkpt lat="48.9635940" lon="9.0924450">
        <ele>254.8900000</ele>
        <time>2010-06-17T13:21:45Z</time>
      </trkpt>
      <trkpt lat="48.9639080" lon="9.0912810">
        <ele>252.0000000</ele>
        <time>2010-06-17T13:22:00Z</time>
      </trkpt>
      <trkpt lat="48.9642240" lon="9.0902130">
        <ele>248.6400000</ele>
        <time>2010-06-17T13:22:10Z</time>
      </trkpt>
      <trkpt lat="48.9648000" lon="9.0885190">
        <ele>245.7500000</ele>
        <time>2010-06-17T13:22:25Z</time>
      </trkpt>
      <trkpt lat="48.9652860" lon="9.0870200">
        <ele>244.3100000</ele>
        <time>2010-06-17T13:22:39Z</time>
      </trkpt>
      <trkpt lat="48.9653180" lon="9.0869130">
        <ele>243.8300000</ele>
        <time>2010-06-17T13:22:40Z</time>
      </trkpt>
      <trkpt lat="48.9653480" lon="9.0868050">
        <ele>243.8300000</ele>
        <time>2010-06-17T13:22:41Z</time>
      </trkpt>
      <trkpt lat="48.9658300" lon="9.0851720">
        <ele>242.8700000</ele>
        <time>2010-06-17T13:22:57Z</time>
      </trkpt>
      <trkpt lat="48.9661760" lon="9.0838690">
        <ele>241.9100000</ele>
        <time>2010-06-17T13:23:11Z</time>
      </trkpt>
      <trkpt lat="48.9664300" lon="9.0828890">
        <ele>241.9100000</ele>
        <time>2010-06-17T13:23:22Z</time>
      </trkpt>
      <trkpt lat="48.9664560" lon="9.0828120">
        <ele>241.4300000</ele>
        <time>2010-06-17T13:23:23Z</time>
      </trkpt>
      <trkpt lat="48.9664820" lon="9.0827480">
        <ele>241.4300000</ele>
        <time>2010-06-17T13:23:24Z</time>
      </trkpt>
      <trkpt lat="48.9664990" lon="9.0827020">
        <ele>241.4300000</ele>
        <time>2010-06-17T13:23:25Z</time>
      </trkpt>
      <trkpt lat="48.9665010" lon="9.0826630">
        <ele>241.4300000</ele>
        <time>2010-06-17T13:23:26Z</time>
      </trkpt>
      <trkpt lat="48.9664910" lon="9.0826270">
        <ele>241.4300000</ele>
        <time>2010-06-17T13:23:27Z</time>
      </trkpt>
      <trkpt lat="48.9664810" lon="9.0825880">
        <ele>241.4300000</ele>
        <time>2010-06-17T13:23:28Z</time>
      </trkpt>
      <trkpt lat="48.9664830" lon="9.0825410">
        <ele>240.9500000</ele>
        <time>2010-06-17T13:23:29Z</time>
      </trkpt>
      <trkpt lat="48.9664930" lon="9.0824950">
        <ele>240.9500000</ele>
        <time>2010-06-17T13:23:30Z</time>
      </trkpt>
      <trkpt lat="48.9665080" lon="9.0824480">
        <ele>240.4700000</ele>
        <time>2010-06-17T13:23:31Z</time>
      </trkpt>
      <trkpt lat="48.9665650" lon="9.0823300">
        <ele>240.9500000</ele>
        <time>2010-06-17T13:23:34Z</time>
      </trkpt>
      <trkpt lat="48.9665990" lon="9.0823100">
        <ele>240.9500000</ele>
        <time>2010-06-17T13:23:35Z</time>
      </trkpt>
      <trkpt lat="48.9666250" lon="9.0822800">
        <ele>241.4300000</ele>
        <time>2010-06-17T13:23:36Z</time>
      </trkpt>
      <trkpt lat="48.9666410" lon="9.0822360">
        <ele>241.4300000</ele>
        <time>2010-06-17T13:23:37Z</time>
      </trkpt>
      <trkpt lat="48.9666570" lon="9.0821850">
        <ele>241.4300000</ele>
        <time>2010-06-17T13:23:38Z</time>
      </trkpt>
      <trkpt lat="48.9669390" lon="9.0811700">
        <ele>239.9900000</ele>
        <time>2010-06-17T13:23:52Z</time>
      </trkpt>
      <trkpt lat="48.9673860" lon="9.0795170">
        <ele>239.9900000</ele>
        <time>2010-06-17T13:24:11Z</time>
      </trkpt>
      <trkpt lat="48.9677030" lon="9.0781940">
        <ele>241.4300000</ele>
        <time>2010-06-17T13:24:27Z</time>
      </trkpt>
      <trkpt lat="48.9677560" lon="9.0779630">
        <ele>240.9500000</ele>
        <time>2010-06-17T13:24:30Z</time>
      </trkpt>
      <trkpt lat="48.9677750" lon="9.0778880">
        <ele>241.4300000</ele>
        <time>2010-06-17T13:24:31Z</time>
      </trkpt>
      <trkpt lat="48.9680320" lon="9.0768300">
        <ele>240.9500000</ele>
        <time>2010-06-17T13:24:46Z</time>
      </trkpt>
      <trkpt lat="48.9681150" lon="9.0766360">
        <ele>240.4700000</ele>
        <time>2010-06-17T13:24:51Z</time>
      </trkpt>
      <trkpt lat="48.9681400" lon="9.0766140">
        <ele>239.9900000</ele>
        <time>2010-06-17T13:24:52Z</time>
      </trkpt>
      <trkpt lat="48.9681730" lon="9.0765910">
        <ele>240.4700000</ele>
        <time>2010-06-17T13:24:53Z</time>
      </trkpt>
      <trkpt lat="48.9682110" lon="9.0765600">
        <ele>239.9900000</ele>
        <time>2010-06-17T13:24:54Z</time>
      </trkpt>
      <trkpt lat="48.9682500" lon="9.0765200">
        <ele>239.9900000</ele>
        <time>2010-06-17T13:24:55Z</time>
      </trkpt>
      <trkpt lat="48.9682890" lon="9.0764770">
        <ele>239.9900000</ele>
        <time>2010-06-17T13:24:56Z</time>
      </trkpt>
      <trkpt lat="48.9684540" lon="9.0762940">
        <ele>238.0600000</ele>
        <time>2010-06-17T13:25:00Z</time>
      </trkpt>
      <trkpt lat="48.9686780" lon="9.0761350">
        <ele>237.1000000</ele>
        <time>2010-06-17T13:25:04Z</time>
      </trkpt>
      <trkpt lat="48.9692210" lon="9.0760060">
        <ele>235.1800000</ele>
        <time>2010-06-17T13:25:12Z</time>
      </trkpt>
      <trkpt lat="48.9692800" lon="9.0759630">
        <ele>234.7000000</ele>
        <time>2010-06-17T13:25:13Z</time>
      </trkpt>
      <trkpt lat="48.9693320" lon="9.0759020">
        <ele>235.1800000</ele>
        <time>2010-06-17T13:25:14Z</time>
      </trkpt>
      <trkpt lat="48.9693720" lon="9.0758300">
        <ele>235.1800000</ele>
        <time>2010-06-17T13:25:15Z</time>
      </trkpt>
      <trkpt lat="48.9693950" lon="9.0757490">
        <ele>235.6600000</ele>
        <time>2010-06-17T13:25:16Z</time>
      </trkpt>
      <trkpt lat="48.9693990" lon="9.0756650">
        <ele>235.6600000</ele>
        <time>2010-06-17T13:25:17Z</time>
      </trkpt>
      <trkpt lat="48.9693900" lon="9.0755840">
        <ele>235.6600000</ele>
        <time>2010-06-17T13:25:18Z</time>
      </trkpt>
      <trkpt lat="48.9693740" lon="9.0755010">
        <ele>235.6600000</ele>
        <time>2010-06-17T13:25:19Z</time>
      </trkpt>
      <trkpt lat="48.9693520" lon="9.0754220">
        <ele>235.6600000</ele>
        <time>2010-06-17T13:25:20Z</time>
      </trkpt>
      <trkpt lat="48.9693290" lon="9.0753500">
        <ele>236.1400000</ele>
        <time>2010-06-17T13:25:21Z</time>
      </trkpt>
      <trkpt lat="48.9691710" lon="9.0746330">
        <ele>239.5100000</ele>
        <time>2010-06-17T13:25:33Z</time>
      </trkpt>
      <trkpt lat="48.9691590" lon="9.0741040">
        <ele>242.8700000</ele>
        <time>2010-06-17T13:25:43Z</time>
      </trkpt>
      <trkpt lat="48.9692220" lon="9.0733920">
        <ele>245.7500000</ele>
        <time>2010-06-17T13:25:58Z</time>
      </trkpt>
      <trkpt lat="48.9692810" lon="9.0727910">
        <ele>246.2300000</ele>
        <time>2010-06-17T13:26:10Z</time>
      </trkpt>
      <trkpt lat="48.9693510" lon="9.0722220">
        <ele>245.7500000</ele>
        <time>2010-06-17T13:26:21Z</time>
      </trkpt>
      <trkpt lat="48.9694920" lon="9.0719770">
        <ele>245.7500000</ele>
        <time>2010-06-17T13:26:30Z</time>
      </trkpt>
      <trkpt lat="48.9695340" lon="9.0719510">
        <ele>246.2300000</ele>
        <time>2010-06-17T13:26:32Z</time>
      </trkpt>
      <trkpt lat="48.9695490" lon="9.0719340">
        <ele>246.2300000</ele>
        <time>2010-06-17T13:26:33Z</time>
      </trkpt>
      <trkpt lat="48.9695670" lon="9.0719230">
        <ele>246.2300000</ele>
        <time>2010-06-17T13:26:34Z</time>
      </trkpt>
      <trkpt lat="48.9699740" lon="9.0717150">
        <ele>248.1600000</ele>
        <time>2010-06-17T13:26:49Z</time>
      </trkpt>
      <trkpt lat="48.9703700" lon="9.0714530">
        <ele>249.1200000</ele>
        <time>2010-06-17T13:27:02Z</time>
      </trkpt>
      <trkpt lat="48.9708110" lon="9.0712130">
        <ele>252.4800000</ele>
        <time>2010-06-17T13:27:16Z</time>
      </trkpt>
      <trkpt lat="48.9711500" lon="9.0711050">
        <ele>253.9300000</ele>
        <time>2010-06-17T13:27:29Z</time>
      </trkpt>
      <trkpt lat="48.9711600" lon="9.0710750">
        <ele>254.4100000</ele>
        <time>2010-06-17T13:27:30Z</time>
      </trkpt>
      <trkpt lat="48.9711630" lon="9.0710310">
        <ele>254.4100000</ele>
        <time>2010-06-17T13:27:31Z</time>
      </trkpt>
      <trkpt lat="48.9711660" lon="9.0709830">
        <ele>254.4100000</ele>
        <time>2010-06-17T13:27:32Z</time>
      </trkpt>
      <trkpt lat="48.9711710" lon="9.0709300">
        <ele>254.4100000</ele>
        <time>2010-06-17T13:27:33Z</time>
      </trkpt>
      <trkpt lat="48.9713120" lon="9.0705650">
        <ele>254.4100000</ele>
        <time>2010-06-17T13:27:44Z</time>
      </trkpt>
      <trkpt lat="48.9713600" lon="9.0705190">
        <ele>253.9300000</ele>
        <time>2010-06-17T13:27:55Z</time>
      </trkpt>
      <trkpt lat="48.9714980" lon="9.0704670">
        <ele>254.4100000</ele>
        <time>2010-06-17T13:28:19Z</time>
      </trkpt>
      <trkpt lat="48.9717490" lon="9.0702000">
        <ele>256.3300000</ele>
        <time>2010-06-17T13:28:33Z</time>
      </trkpt>
      <trkpt lat="48.9718330" lon="9.0700420">
        <ele>257.2900000</ele>
        <time>2010-06-17T13:28:41Z</time>
      </trkpt>
      <trkpt lat="48.9718270" lon="9.0700260">
        <ele>256.8100000</ele>
        <time>2010-06-17T13:28:42Z</time>
      </trkpt>
      <trkpt lat="48.9718190" lon="9.0700060">
        <ele>256.8100000</ele>
        <time>2010-06-17T13:28:43Z</time>
      </trkpt>
      <trkpt lat="48.9718140" lon="9.0699820">
        <ele>256.8100000</ele>
        <time>2010-06-17T13:28:44Z</time>
      </trkpt>
      <trkpt lat="48.9718080" lon="9.0699500">
        <ele>256.8100000</ele>
        <time>2010-06-17T13:28:45Z</time>
      </trkpt>
      <trkpt lat="48.9717980" lon="9.0699110">
        <ele>256.8100000</ele>
        <time>2010-06-17T13:28:46Z</time>
      </trkpt>
      <trkpt lat="48.9716500" lon="9.0691990">
        <ele>258.2500000</ele>
        <time>2010-06-17T13:29:01Z</time>
      </trkpt>
      <trkpt lat="48.9714710" lon="9.0683130">
        <ele>258.2500000</ele>
        <time>2010-06-17T13:29:17Z</time>
      </trkpt>
      <trkpt lat="48.9713890" lon="9.0675510">
        <ele>258.7300000</ele>
        <time>2010-06-17T13:29:31Z</time>
      </trkpt>
      <trkpt lat="48.9713790" lon="9.0668600">
        <ele>259.2100000</ele>
        <time>2010-06-17T13:29:44Z</time>
      </trkpt>
      <trkpt lat="48.9713700" lon="9.0668420">
        <ele>259.2100000</ele>
        <time>2010-06-17T13:29:45Z</time>
      </trkpt>
      <trkpt lat="48.9713560" lon="9.0668360">
        <ele>259.2100000</ele>
        <time>2010-06-17T13:29:46Z</time>
      </trkpt>
      <trkpt lat="48.9713380" lon="9.0668390">
        <ele>259.6900000</ele>
        <time>2010-06-17T13:29:47Z</time>
      </trkpt>
      <trkpt lat="48.9713200" lon="9.0668470">
        <ele>260.1700000</ele>
        <time>2010-06-17T13:29:48Z</time>
      </trkpt>
      <trkpt lat="48.9712950" lon="9.0668590">
        <ele>260.1700000</ele>
        <time>2010-06-17T13:29:49Z</time>
      </trkpt>
      <trkpt lat="48.9712670" lon="9.0668670">
        <ele>260.1700000</ele>
        <time>2010-06-17T13:29:50Z</time>
      </trkpt>
      <trkpt lat="48.9712360" lon="9.0668740">
        <ele>260.1700000</ele>
        <time>2010-06-17T13:29:51Z</time>
      </trkpt>
      <trkpt lat="48.9712010" lon="9.0668840">
        <ele>259.6900000</ele>
        <time>2010-06-17T13:29:52Z</time>
      </trkpt>
      <trkpt lat="48.9711670" lon="9.0668990">
        <ele>259.6900000</ele>
        <time>2010-06-17T13:29:53Z</time>
      </trkpt>
      <trkpt lat="48.9711320" lon="9.0669190">
        <ele>259.6900000</ele>
        <time>2010-06-17T13:29:54Z</time>
      </trkpt>
      <trkpt lat="48.9710060" lon="9.0669690">
        <ele>257.7700000</ele>
        <time>2010-06-17T13:29:57Z</time>
      </trkpt>
      <trkpt lat="48.9708110" lon="9.0670630">
        <ele>256.8100000</ele>
        <time>2010-06-17T13:30:01Z</time>
      </trkpt>
      <trkpt lat="48.9707550" lon="9.0670960">
        <ele>255.8500000</ele>
        <time>2010-06-17T13:30:02Z</time>
      </trkpt>
      <trkpt lat="48.9706310" lon="9.0671500">
        <ele>255.3700000</ele>
        <time>2010-06-17T13:30:04Z</time>
      </trkpt>
      <trkpt lat="48.9704010" lon="9.0672860">
        <ele>253.4400000</ele>
        <time>2010-06-17T13:30:08Z</time>
      </trkpt>
      <trkpt lat="48.9702280" lon="9.0673920">
        <ele>251.0400000</ele>
        <time>2010-06-17T13:30:12Z</time>
      </trkpt>
      <trkpt lat="48.9701900" lon="9.0673950">
        <ele>250.5600000</ele>
        <time>2010-06-17T13:30:13Z</time>
      </trkpt>
      <trkpt lat="48.9701520" lon="9.0673760">
        <ele>251.0400000</ele>
        <time>2010-06-17T13:30:14Z</time>
      </trkpt>
      <trkpt lat="48.9701150" lon="9.0673410">
        <ele>250.5600000</ele>
        <time>2010-06-17T13:30:15Z</time>
      </trkpt>
      <trkpt lat="48.9700840" lon="9.0673020">
        <ele>250.5600000</ele>
        <time>2010-06-17T13:30:16Z</time>
      </trkpt>
      <trkpt lat="48.9700600" lon="9.0672650">
        <ele>250.5600000</ele>
        <time>2010-06-17T13:30:17Z</time>
      </trkpt>
      <trkpt lat="48.9700010" lon="9.0671570">
        <ele>250.5600000</ele>
        <time>2010-06-17T13:30:21Z</time>
      </trkpt>
      <trkpt lat="48.9700020" lon="9.0671290">
        <ele>250.5600000</ele>
        <time>2010-06-17T13:30:22Z</time>
      </trkpt>
      <trkpt lat="48.9700160" lon="9.0671040">
        <ele>251.0400000</ele>
        <time>2010-06-17T13:30:23Z</time>
      </trkpt>
      <trkpt lat="48.9702680" lon="9.0667060">
        <ele>252.9600000</ele>
        <time>2010-06-17T13:30:35Z</time>
      </trkpt>
      <trkpt lat="48.9703070" lon="9.0665860">
        <ele>253.4400000</ele>
        <time>2010-06-17T13:30:38Z</time>
      </trkpt>
      <trkpt lat="48.9703010" lon="9.0665390">
        <ele>253.9300000</ele>
        <time>2010-06-17T13:30:39Z</time>
      </trkpt>
      <trkpt lat="48.9702860" lon="9.0664930">
        <ele>253.9300000</ele>
        <time>2010-06-17T13:30:40Z</time>
      </trkpt>
      <trkpt lat="48.9702670" lon="9.0664510">
        <ele>253.4400000</ele>
        <time>2010-06-17T13:30:41Z</time>
      </trkpt>
      <trkpt lat="48.9702450" lon="9.0664100">
        <ele>253.4400000</ele>
        <time>2010-06-17T13:30:42Z</time>
      </trkpt>
      <trkpt lat="48.9698870" lon="9.0657500">
        <ele>255.3700000</ele>
        <time>2010-06-17T13:30:59Z</time>
      </trkpt>
      <trkpt lat="48.9694910" lon="9.0653670">
        <ele>256.3300000</ele>
        <time>2010-06-17T13:31:14Z</time>
      </trkpt>
      <trkpt lat="48.9690970" lon="9.0650350">
        <ele>255.8500000</ele>
        <time>2010-06-17T13:31:25Z</time>
      </trkpt>
      <trkpt lat="48.9690550" lon="9.0650080">
        <ele>255.3700000</ele>
        <time>2010-06-17T13:31:26Z</time>
      </trkpt>
      <trkpt lat="48.9689590" lon="9.0649590">
        <ele>254.8900000</ele>
        <time>2010-06-17T13:31:28Z</time>
      </trkpt>
      <trkpt lat="48.9685080" lon="9.0647990">
        <ele>251.0400000</ele>
        <time>2010-06-17T13:31:35Z</time>
      </trkpt>
      <trkpt lat="48.9680930" lon="9.0647070">
        <ele>247.6800000</ele>
        <time>2010-06-17T13:31:42Z</time>
      </trkpt>
      <trkpt lat="48.9676530" lon="9.0647610">
        <ele>245.7500000</ele>
        <time>2010-06-17T13:31:52Z</time>
      </trkpt>
      <trkpt lat="48.9672590" lon="9.0649610">
        <ele>242.3900000</ele>
        <time>2010-06-17T13:31:58Z</time>
      </trkpt>
      <trkpt lat="48.9667250" lon="9.0653800">
        <ele>238.5400000</ele>
        <time>2010-06-17T13:32:06Z</time>
      </trkpt>
      <trkpt lat="48.9665190" lon="9.0655620">
        <ele>237.5800000</ele>
        <time>2010-06-17T13:32:10Z</time>
      </trkpt>
      <trkpt lat="48.9664810" lon="9.0655980">
        <ele>236.6200000</ele>
        <time>2010-06-17T13:32:11Z</time>
      </trkpt>
      <trkpt lat="48.9663370" lon="9.0657320">
        <ele>234.7000000</ele>
        <time>2010-06-17T13:32:16Z</time>
      </trkpt>
      <trkpt lat="48.9663120" lon="9.0657210">
        <ele>234.7000000</ele>
        <time>2010-06-17T13:32:17Z</time>
      </trkpt>
      <trkpt lat="48.9662850" lon="9.0656900">
        <ele>234.7000000</ele>
        <time>2010-06-17T13:32:18Z</time>
      </trkpt>
      <trkpt lat="48.9662650" lon="9.0656450">
        <ele>235.1800000</ele>
        <time>2010-06-17T13:32:19Z</time>
      </trkpt>
      <trkpt lat="48.9662490" lon="9.0655970">
        <ele>235.1800000</ele>
        <time>2010-06-17T13:32:20Z</time>
      </trkpt>
      <trkpt lat="48.9662320" lon="9.0655420">
        <ele>235.6600000</ele>
        <time>2010-06-17T13:32:21Z</time>
      </trkpt>
      <trkpt lat="48.9661360" lon="9.0652680">
        <ele>235.1800000</ele>
        <time>2010-06-17T13:32:26Z</time>
      </trkpt>
      <trkpt lat="48.9658920" lon="9.0644030">
        <ele>237.1000000</ele>
        <time>2010-06-17T13:32:41Z</time>
      </trkpt>
      <trkpt lat="48.9657800" lon="9.0636160">
        <ele>239.0200000</ele>
        <time>2010-06-17T13:32:56Z</time>
      </trkpt>
      <trkpt lat="48.9656570" lon="9.0631250">
        <ele>239.0200000</ele>
        <time>2010-06-17T13:33:05Z</time>
      </trkpt>
      <trkpt lat="48.9654020" lon="9.0621560">
        <ele>236.6200000</ele>
        <time>2010-06-17T13:33:20Z</time>
      </trkpt>
      <trkpt lat="48.9651570" lon="9.0615030">
        <ele>232.7800000</ele>
        <time>2010-06-17T13:33:30Z</time>
      </trkpt>
      <trkpt lat="48.9650230" lon="9.0611540">
        <ele>229.8900000</ele>
        <time>2010-06-17T13:33:35Z</time>
      </trkpt>
      <trkpt lat="48.9650030" lon="9.0610800">
        <ele>229.8900000</ele>
        <time>2010-06-17T13:33:36Z</time>
      </trkpt>
      <trkpt lat="48.9649370" lon="9.0608140">
        <ele>227.9700000</ele>
        <time>2010-06-17T13:33:40Z</time>
      </trkpt>
      <trkpt lat="48.9649230" lon="9.0607570">
        <ele>227.0100000</ele>
        <time>2010-06-17T13:33:41Z</time>
      </trkpt>
      <trkpt lat="48.9648660" lon="9.0605080">
        <ele>223.6400000</ele>
        <time>2010-06-17T13:33:45Z</time>
      </trkpt>
      <trkpt lat="48.9648310" lon="9.0603580">
        <ele>222.2000000</ele>
        <time>2010-06-17T13:33:47Z</time>
      </trkpt>
      <trkpt lat="48.9648160" lon="9.0602800">
        <ele>221.2400000</ele>
        <time>2010-06-17T13:33:48Z</time>
      </trkpt>
      <trkpt lat="48.9647800" lon="9.0601260">
        <ele>220.2800000</ele>
        <time>2010-06-17T13:33:50Z</time>
      </trkpt>
      <trkpt lat="48.9646960" lon="9.0598160">
        <ele>216.9100000</ele>
        <time>2010-06-17T13:33:54Z</time>
      </trkpt>
      <trkpt lat="48.9646600" lon="9.0596680">
        <ele>215.4700000</ele>
        <time>2010-06-17T13:33:56Z</time>
      </trkpt>
      <trkpt lat="48.9646270" lon="9.0594810">
        <ele>212.5900000</ele>
        <time>2010-06-17T13:33:58Z</time>
      </trkpt>
      <trkpt lat="48.9646100" lon="9.0593850">
        <ele>212.5900000</ele>
        <time>2010-06-17T13:33:59Z</time>
      </trkpt>
      <trkpt lat="48.9645960" lon="9.0592920">
        <ele>212.1100000</ele>
        <time>2010-06-17T13:34:00Z</time>
      </trkpt>
      <trkpt lat="48.9643100" lon="9.0580910">
        <ele>209.7000000</ele>
        <time>2010-06-17T13:34:13Z</time>
      </trkpt>
      <trkpt lat="48.9640040" lon="9.0569150">
        <ele>209.2200000</ele>
        <time>2010-06-17T13:34:28Z</time>
      </trkpt>
      <trkpt lat="48.9637790" lon="9.0561010">
        <ele>208.7400000</ele>
        <time>2010-06-17T13:34:42Z</time>
      </trkpt>
      <trkpt lat="48.9637490" lon="9.0560440">
        <ele>208.7400000</ele>
        <time>2010-06-17T13:34:52Z</time>
      </trkpt>
      <trkpt lat="48.9635910" lon="9.0561040">
        <ele>208.2600000</ele>
        <time>2010-06-17T13:35:24Z</time>
      </trkpt>
      <trkpt lat="48.9634450" lon="9.0560960">
        <ele>208.7400000</ele>
        <time>2010-06-17T13:35:29Z</time>
      </trkpt>
      <trkpt lat="48.9634330" lon="9.0560750">
        <ele>208.7400000</ele>
        <time>2010-06-17T13:35:30Z</time>
      </trkpt>
      <trkpt lat="48.9634210" lon="9.0560480">
        <ele>208.2600000</ele>
        <time>2010-06-17T13:35:31Z</time>
      </trkpt>
      <trkpt lat="48.9634160" lon="9.0560060">
        <ele>208.2600000</ele>
        <time>2010-06-17T13:35:32Z</time>
      </trkpt>
      <trkpt lat="48.9634200" lon="9.0559560">
        <ele>208.2600000</ele>
        <time>2010-06-17T13:35:33Z</time>
      </trkpt>
      <trkpt lat="48.9634370" lon="9.0559040">
        <ele>208.7400000</ele>
        <time>2010-06-17T13:35:34Z</time>
      </trkpt>
      <trkpt lat="48.9634570" lon="9.0558480">
        <ele>208.2600000</ele>
        <time>2010-06-17T13:35:35Z</time>
      </trkpt>
      <trkpt lat="48.9635790" lon="9.0554540">
        <ele>207.7800000</ele>
        <time>2010-06-17T13:35:41Z</time>
      </trkpt>
      <trkpt lat="48.9635940" lon="9.0553820">
        <ele>208.2600000</ele>
        <time>2010-06-17T13:35:42Z</time>
      </trkpt>
      <trkpt lat="48.9636070" lon="9.0553090">
        <ele>208.2600000</ele>
        <time>2010-06-17T13:35:43Z</time>
      </trkpt>
      <trkpt lat="48.9636120" lon="9.0552350">
        <ele>208.2600000</ele>
        <time>2010-06-17T13:35:44Z</time>
      </trkpt>
      <trkpt lat="48.9636140" lon="9.0551600">
        <ele>208.2600000</ele>
        <time>2010-06-17T13:35:45Z</time>
      </trkpt>
      <trkpt lat="48.9635890" lon="9.0544780">
        <ele>208.7400000</ele>
        <time>2010-06-17T13:35:54Z</time>
      </trkpt>
      <trkpt lat="48.9635980" lon="9.0544010">
        <ele>208.7400000</ele>
        <time>2010-06-17T13:35:55Z</time>
      </trkpt>
      <trkpt lat="48.9636250" lon="9.0542500">
        <ele>208.7400000</ele>
        <time>2010-06-17T13:35:57Z</time>
      </trkpt>
      <trkpt lat="48.9636420" lon="9.0541810">
        <ele>208.7400000</ele>
        <time>2010-06-17T13:35:58Z</time>
      </trkpt>
      <trkpt lat="48.9636600" lon="9.0541090">
        <ele>208.7400000</ele>
        <time>2010-06-17T13:35:59Z</time>
      </trkpt>
      <trkpt lat="48.9637420" lon="9.0537660">
        <ele>209.7000000</ele>
        <time>2010-06-17T13:36:04Z</time>
      </trkpt>
      <trkpt lat="48.9638730" lon="9.0530640">
        <ele>213.0700000</ele>
        <time>2010-06-17T13:36:16Z</time>
      </trkpt>
      <trkpt lat="48.9639290" lon="9.0526100">
        <ele>213.5500000</ele>
        <time>2010-06-17T13:36:24Z</time>
      </trkpt>
      <trkpt lat="48.9639480" lon="9.0525610">
        <ele>213.5500000</ele>
        <time>2010-06-17T13:36:25Z</time>
      </trkpt>
      <trkpt lat="48.9639580" lon="9.0525060">
        <ele>213.5500000</ele>
        <time>2010-06-17T13:36:26Z</time>
      </trkpt>
      <trkpt lat="48.9639650" lon="9.0524510">
        <ele>213.0700000</ele>
        <time>2010-06-17T13:36:27Z</time>
      </trkpt>
      <trkpt lat="48.9639700" lon="9.0523970">
        <ele>213.5500000</ele>
        <time>2010-06-17T13:36:28Z</time>
      </trkpt>
      <trkpt lat="48.9639770" lon="9.0522300">
        <ele>213.0700000</ele>
        <time>2010-06-17T13:36:31Z</time>
      </trkpt>
      <trkpt lat="48.9639370" lon="9.0517440">
        <ele>212.1100000</ele>
        <time>2010-06-17T13:36:38Z</time>
      </trkpt>
      <trkpt lat="48.9639190" lon="9.0514110">
        <ele>211.6300000</ele>
        <time>2010-06-17T13:36:42Z</time>
      </trkpt>
      <trkpt lat="48.9639180" lon="9.0513320">
        <ele>211.6300000</ele>
        <time>2010-06-17T13:36:43Z</time>
      </trkpt>
      <trkpt lat="48.9639360" lon="9.0499440">
        <ele>211.6300000</ele>
        <time>2010-06-17T13:36:58Z</time>
      </trkpt>
      <trkpt lat="48.9640540" lon="9.0490490">
        <ele>211.6300000</ele>
        <time>2010-06-17T13:37:08Z</time>
      </trkpt>
      <trkpt lat="48.9640710" lon="9.0489640">
        <ele>211.6300000</ele>
        <time>2010-06-17T13:37:09Z</time>
      </trkpt>
      <trkpt lat="48.9641110" lon="9.0488030">
        <ele>211.6300000</ele>
        <time>2010-06-17T13:37:11Z</time>
      </trkpt>
      <trkpt lat="48.9641890" lon="9.0485040">
        <ele>212.1100000</ele>
        <time>2010-06-17T13:37:15Z</time>
      </trkpt>
      <trkpt lat="48.9642320" lon="9.0482630">
        <ele>212.1100000</ele>
        <time>2010-06-17T13:37:18Z</time>
      </trkpt>
      <trkpt lat="48.9643090" lon="9.0478790">
        <ele>212.1100000</ele>
        <time>2010-06-17T13:37:23Z</time>
      </trkpt>
      <trkpt lat="48.9643310" lon="9.0477200">
        <ele>212.5900000</ele>
        <time>2010-06-17T13:37:25Z</time>
      </trkpt>
      <trkpt lat="48.9644220" lon="9.0470990">
        <ele>212.1100000</ele>
        <time>2010-06-17T13:37:33Z</time>
      </trkpt>
      <trkpt lat="48.9644130" lon="9.0470090">
        <ele>212.5900000</ele>
        <time>2010-06-17T13:37:34Z</time>
      </trkpt>
      <trkpt lat="48.9643990" lon="9.0468380">
        <ele>212.5900000</ele>
        <time>2010-06-17T13:37:36Z</time>
      </trkpt>
      <trkpt lat="48.9643780" lon="9.0465870">
        <ele>212.1100000</ele>
        <time>2010-06-17T13:37:39Z</time>
      </trkpt>
      <trkpt lat="48.9643670" lon="9.0465060">
        <ele>212.5900000</ele>
        <time>2010-06-17T13:37:40Z</time>
      </trkpt>
      <trkpt lat="48.9643590" lon="9.0464230">
        <ele>212.5900000</ele>
        <time>2010-06-17T13:37:41Z</time>
      </trkpt>
      <trkpt lat="48.9643520" lon="9.0463430">
        <ele>212.1100000</ele>
        <time>2010-06-17T13:37:42Z</time>
      </trkpt>
      <trkpt lat="48.9643390" lon="9.0462590">
        <ele>212.1100000</ele>
        <time>2010-06-17T13:37:43Z</time>
      </trkpt>
      <trkpt lat="48.9640860" lon="9.0448910">
        <ele>212.5900000</ele>
        <time>2010-06-17T13:38:00Z</time>
      </trkpt>
      <trkpt lat="48.9640720" lon="9.0448140">
        <ele>213.0700000</ele>
        <time>2010-06-17T13:38:01Z</time>
      </trkpt>
      <trkpt lat="48.9640600" lon="9.0447390">
        <ele>212.5900000</ele>
        <time>2010-06-17T13:38:02Z</time>
      </trkpt>
      <trkpt lat="48.9640200" lon="9.0445280">
        <ele>212.5900000</ele>
        <time>2010-06-17T13:38:05Z</time>
      </trkpt>
      <trkpt lat="48.9639450" lon="9.0438740">
        <ele>212.5900000</ele>
        <time>2010-06-17T13:38:13Z</time>
      </trkpt>
      <trkpt lat="48.9639820" lon="9.0433040">
        <ele>212.1100000</ele>
        <time>2010-06-17T13:38:20Z</time>
      </trkpt>
      <trkpt lat="48.9639950" lon="9.0432330">
        <ele>212.5900000</ele>
        <time>2010-06-17T13:38:21Z</time>
      </trkpt>
      <trkpt lat="48.9640140" lon="9.0430610">
        <ele>212.5900000</ele>
        <time>2010-06-17T13:38:23Z</time>
      </trkpt>
      <trkpt lat="48.9640270" lon="9.0429740">
        <ele>212.5900000</ele>
        <time>2010-06-17T13:38:24Z</time>
      </trkpt>
      <trkpt lat="48.9640540" lon="9.0427830">
        <ele>212.1100000</ele>
        <time>2010-06-17T13:38:26Z</time>
      </trkpt>
      <trkpt lat="48.9640750" lon="9.0426930">
        <ele>212.5900000</ele>
        <time>2010-06-17T13:38:27Z</time>
      </trkpt>
      <trkpt lat="48.9642210" lon="9.0420240">
        <ele>213.0700000</ele>
        <time>2010-06-17T13:38:35Z</time>
      </trkpt>
      <trkpt lat="48.9643600" lon="9.0413850">
        <ele>213.5500000</ele>
        <time>2010-06-17T13:38:43Z</time>
      </trkpt>
      <trkpt lat="48.9643770" lon="9.0413040">
        <ele>213.5500000</ele>
        <time>2010-06-17T13:38:44Z</time>
      </trkpt>
      <trkpt lat="48.9644140" lon="9.0411430">
        <ele>213.5500000</ele>
        <time>2010-06-17T13:38:46Z</time>
      </trkpt>
      <trkpt lat="48.9644440" lon="9.0409770">
        <ele>213.0700000</ele>
        <time>2010-06-17T13:38:48Z</time>
      </trkpt>
      <trkpt lat="48.9644610" lon="9.0409010">
        <ele>213.5500000</ele>
        <time>2010-06-17T13:38:49Z</time>
      </trkpt>
      <trkpt lat="48.9644730" lon="9.0408210">
        <ele>213.5500000</ele>
        <time>2010-06-17T13:38:50Z</time>
      </trkpt>
      <trkpt lat="48.9645020" lon="9.0403360">
        <ele>214.0300000</ele>
        <time>2010-06-17T13:38:56Z</time>
      </trkpt>
      <trkpt lat="48.9645070" lon="9.0402570">
        <ele>214.5100000</ele>
        <time>2010-06-17T13:38:57Z</time>
      </trkpt>
      <trkpt lat="48.9645150" lon="9.0401060">
        <ele>214.5100000</ele>
        <time>2010-06-17T13:38:59Z</time>
      </trkpt>
      <trkpt lat="48.9645140" lon="9.0400280">
        <ele>214.5100000</ele>
        <time>2010-06-17T13:39:00Z</time>
      </trkpt>
      <trkpt lat="48.9645150" lon="9.0399540">
        <ele>214.5100000</ele>
        <time>2010-06-17T13:39:01Z</time>
      </trkpt>
      <trkpt lat="48.9645140" lon="9.0397280">
        <ele>214.9900000</ele>
        <time>2010-06-17T13:39:04Z</time>
      </trkpt>
      <trkpt lat="48.9644940" lon="9.0395140">
        <ele>215.4700000</ele>
        <time>2010-06-17T13:39:07Z</time>
      </trkpt>
      <trkpt lat="48.9644890" lon="9.0394440">
        <ele>215.4700000</ele>
        <time>2010-06-17T13:39:08Z</time>
      </trkpt>
      <trkpt lat="48.9644440" lon="9.0389580">
        <ele>216.4300000</ele>
        <time>2010-06-17T13:39:15Z</time>
      </trkpt>
      <trkpt lat="48.9644290" lon="9.0388990">
        <ele>216.4300000</ele>
        <time>2010-06-17T13:39:16Z</time>
      </trkpt>
      <trkpt lat="48.9644240" lon="9.0388400">
        <ele>216.4300000</ele>
        <time>2010-06-17T13:39:17Z</time>
      </trkpt>
      <trkpt lat="48.9644240" lon="9.0387760">
        <ele>216.4300000</ele>
        <time>2010-06-17T13:39:18Z</time>
      </trkpt>
      <trkpt lat="48.9644250" lon="9.0387060">
        <ele>216.9100000</ele>
        <time>2010-06-17T13:39:19Z</time>
      </trkpt>
      <trkpt lat="48.9644270" lon="9.0386360">
        <ele>216.9100000</ele>
        <time>2010-06-17T13:39:20Z</time>
      </trkpt>
      <trkpt lat="48.9644300" lon="9.0384830">
        <ele>216.9100000</ele>
        <time>2010-06-17T13:39:22Z</time>
      </trkpt>
      <trkpt lat="48.9644350" lon="9.0384080">
        <ele>217.4000000</ele>
        <time>2010-06-17T13:39:23Z</time>
      </trkpt>
      <trkpt lat="48.9644350" lon="9.0383390">
        <ele>216.9100000</ele>
        <time>2010-06-17T13:39:24Z</time>
      </trkpt>
      <trkpt lat="48.9644240" lon="9.0381460">
        <ele>216.9100000</ele>
        <time>2010-06-17T13:39:27Z</time>
      </trkpt>
      <trkpt lat="48.9644190" lon="9.0380770">
        <ele>217.4000000</ele>
        <time>2010-06-17T13:39:28Z</time>
      </trkpt>
      <trkpt lat="48.9644190" lon="9.0380060">
        <ele>217.4000000</ele>
        <time>2010-06-17T13:39:29Z</time>
      </trkpt>
      <trkpt lat="48.9644130" lon="9.0369520">
        <ele>218.3600000</ele>
        <time>2010-06-17T13:39:43Z</time>
      </trkpt>
      <trkpt lat="48.9644050" lon="9.0367230">
        <ele>217.8800000</ele>
        <time>2010-06-17T13:39:46Z</time>
      </trkpt>
      <trkpt lat="48.9644090" lon="9.0366450">
        <ele>218.3600000</ele>
        <time>2010-06-17T13:39:47Z</time>
      </trkpt>
      <trkpt lat="48.9644110" lon="9.0365670">
        <ele>217.8800000</ele>
        <time>2010-06-17T13:39:48Z</time>
      </trkpt>
      <trkpt lat="48.9644070" lon="9.0364900">
        <ele>218.3600000</ele>
        <time>2010-06-17T13:39:49Z</time>
      </trkpt>
      <trkpt lat="48.9644040" lon="9.0364120">
        <ele>218.3600000</ele>
        <time>2010-06-17T13:39:50Z</time>
      </trkpt>
      <trkpt lat="48.9644000" lon="9.0363330">
        <ele>217.8800000</ele>
        <time>2010-06-17T13:39:51Z</time>
      </trkpt>
      <trkpt lat="48.9643960" lon="9.0361710">
        <ele>218.3600000</ele>
        <time>2010-06-17T13:39:53Z</time>
      </trkpt>
      <trkpt lat="48.9643920" lon="9.0360940">
        <ele>217.4000000</ele>
        <time>2010-06-17T13:39:54Z</time>
      </trkpt>
      <trkpt lat="48.9643940" lon="9.0359400">
        <ele>217.8800000</ele>
        <time>2010-06-17T13:39:56Z</time>
      </trkpt>
      <trkpt lat="48.9644070" lon="9.0358540">
        <ele>217.8800000</ele>
        <time>2010-06-17T13:39:57Z</time>
      </trkpt>
      <trkpt lat="48.9644130" lon="9.0357700">
        <ele>217.8800000</ele>
        <time>2010-06-17T13:39:58Z</time>
      </trkpt>
      <trkpt lat="48.9644630" lon="9.0346490">
        <ele>216.9100000</ele>
        <time>2010-06-17T13:40:11Z</time>
      </trkpt>
      <trkpt lat="48.9645290" lon="9.0338510">
        <ele>216.9100000</ele>
        <time>2010-06-17T13:40:20Z</time>
      </trkpt>
      <trkpt lat="48.9645400" lon="9.0337640">
        <ele>216.4300000</ele>
        <time>2010-06-17T13:40:21Z</time>
      </trkpt>
      <trkpt lat="48.9645620" lon="9.0333640">
        <ele>216.4300000</ele>
        <time>2010-06-17T13:40:26Z</time>
      </trkpt>
      <trkpt lat="48.9645730" lon="9.0332810">
        <ele>216.4300000</ele>
        <time>2010-06-17T13:40:27Z</time>
      </trkpt>
      <trkpt lat="48.9645780" lon="9.0331950">
        <ele>216.4300000</ele>
        <time>2010-06-17T13:40:28Z</time>
      </trkpt>
      <trkpt lat="48.9645810" lon="9.0331110">
        <ele>216.4300000</ele>
        <time>2010-06-17T13:40:29Z</time>
      </trkpt>
      <trkpt lat="48.9645840" lon="9.0326820">
        <ele>216.4300000</ele>
        <time>2010-06-17T13:40:34Z</time>
      </trkpt>
      <trkpt lat="48.9645800" lon="9.0325920">
        <ele>216.9100000</ele>
        <time>2010-06-17T13:40:35Z</time>
      </trkpt>
      <trkpt lat="48.9645980" lon="9.0325010">
        <ele>216.9100000</ele>
        <time>2010-06-17T13:40:36Z</time>
      </trkpt>
      <trkpt lat="48.9646260" lon="9.0324290">
        <ele>216.4300000</ele>
        <time>2010-06-17T13:40:37Z</time>
      </trkpt>
      <trkpt lat="48.9646680" lon="9.0323680">
        <ele>216.9100000</ele>
        <time>2010-06-17T13:40:38Z</time>
      </trkpt>
      <trkpt lat="48.9647000" lon="9.0323120">
        <ele>216.9100000</ele>
        <time>2010-06-17T13:40:39Z</time>
      </trkpt>
      <trkpt lat="48.9647170" lon="9.0322520">
        <ele>216.9100000</ele>
        <time>2010-06-17T13:40:40Z</time>
      </trkpt>
      <trkpt lat="48.9647260" lon="9.0321890">
        <ele>217.4000000</ele>
        <time>2010-06-17T13:40:41Z</time>
      </trkpt>
      <trkpt lat="48.9647240" lon="9.0321220">
        <ele>216.9100000</ele>
        <time>2010-06-17T13:40:42Z</time>
      </trkpt>
      <trkpt lat="48.9647050" lon="9.0320470">
        <ele>216.9100000</ele>
        <time>2010-06-17T13:40:43Z</time>
      </trkpt>
      <trkpt lat="48.9646820" lon="9.0319680">
        <ele>216.9100000</ele>
        <time>2010-06-17T13:40:44Z</time>
      </trkpt>
      <trkpt lat="48.9646620" lon="9.0318930">
        <ele>216.9100000</ele>
        <time>2010-06-17T13:40:45Z</time>
      </trkpt>
      <trkpt lat="48.9646510" lon="9.0318180">
        <ele>216.9100000</ele>
        <time>2010-06-17T13:40:46Z</time>
      </trkpt>
      <trkpt lat="48.9646460" lon="9.0315930">
        <ele>217.4000000</ele>
        <time>2010-06-17T13:40:49Z</time>
      </trkpt>
      <trkpt lat="48.9646610" lon="9.0315130">
        <ele>217.8800000</ele>
        <time>2010-06-17T13:40:50Z</time>
      </trkpt>
      <trkpt lat="48.9647340" lon="9.0311520">
        <ele>219.8000000</ele>
        <time>2010-06-17T13:40:55Z</time>
      </trkpt>
      <trkpt lat="48.9647400" lon="9.0310770">
        <ele>220.2800000</ele>
        <time>2010-06-17T13:40:56Z</time>
      </trkpt>
      <trkpt lat="48.9647440" lon="9.0305160">
        <ele>221.2400000</ele>
        <time>2010-06-17T13:41:05Z</time>
      </trkpt>
      <trkpt lat="48.9647360" lon="9.0303810">
        <ele>221.2400000</ele>
        <time>2010-06-17T13:41:07Z</time>
      </trkpt>
      <trkpt lat="48.9647390" lon="9.0303110">
        <ele>220.7600000</ele>
        <time>2010-06-17T13:41:08Z</time>
      </trkpt>
      <trkpt lat="48.9647220" lon="9.0298290">
        <ele>221.7200000</ele>
        <time>2010-06-17T13:41:15Z</time>
      </trkpt>
      <trkpt lat="48.9647150" lon="9.0297590">
        <ele>221.7200000</ele>
        <time>2010-06-17T13:41:16Z</time>
      </trkpt>
      <trkpt lat="48.9647180" lon="9.0289860">
        <ele>224.6100000</ele>
        <time>2010-06-17T13:41:28Z</time>
      </trkpt>
      <trkpt lat="48.9646160" lon="9.0280900">
        <ele>225.0900000</ele>
        <time>2010-06-17T13:41:43Z</time>
      </trkpt>
      <trkpt lat="48.9644440" lon="9.0268300">
        <ele>224.1200000</ele>
        <time>2010-06-17T13:42:00Z</time>
      </trkpt>
      <trkpt lat="48.9643240" lon="9.0255450">
        <ele>225.0900000</ele>
        <time>2010-06-17T13:42:17Z</time>
      </trkpt>
      <trkpt lat="48.9643160" lon="9.0249830">
        <ele>223.6400000</ele>
        <time>2010-06-17T13:42:24Z</time>
      </trkpt>
      <trkpt lat="48.9643290" lon="9.0248800">
        <ele>223.1600000</ele>
        <time>2010-06-17T13:42:25Z</time>
      </trkpt>
      <trkpt lat="48.9643500" lon="9.0247800">
        <ele>222.6800000</ele>
        <time>2010-06-17T13:42:26Z</time>
      </trkpt>
      <trkpt lat="48.9643780" lon="9.0246860">
        <ele>222.2000000</ele>
        <time>2010-06-17T13:42:27Z</time>
      </trkpt>
      <trkpt lat="48.9644100" lon="9.0245940">
        <ele>222.2000000</ele>
        <time>2010-06-17T13:42:28Z</time>
      </trkpt>
      <trkpt lat="48.9644600" lon="9.0244100">
        <ele>222.2000000</ele>
        <time>2010-06-17T13:42:30Z</time>
      </trkpt>
      <trkpt lat="48.9644670" lon="9.0243150">
        <ele>222.2000000</ele>
        <time>2010-06-17T13:42:31Z</time>
      </trkpt>
      <trkpt lat="48.9643990" lon="9.0231600">
        <ele>220.7600000</ele>
        <time>2010-06-17T13:42:42Z</time>
      </trkpt>
      <trkpt lat="48.9643530" lon="9.0224110">
        <ele>223.1600000</ele>
        <time>2010-06-17T13:42:51Z</time>
      </trkpt>
      <trkpt lat="48.9641100" lon="9.0211130">
        <ele>223.1600000</ele>
        <time>2010-06-17T13:43:09Z</time>
      </trkpt>
      <trkpt lat="48.9639530" lon="9.0205440">
        <ele>223.6400000</ele>
        <time>2010-06-17T13:43:15Z</time>
      </trkpt>
      <trkpt lat="48.9638090" lon="9.0199430">
        <ele>226.5300000</ele>
        <time>2010-06-17T13:43:24Z</time>
      </trkpt>
      <trkpt lat="48.9636540" lon="9.0187650">
        <ele>227.0100000</ele>
        <time>2010-06-17T13:43:42Z</time>
      </trkpt>
      <trkpt lat="48.9636520" lon="9.0187020">
        <ele>227.4900000</ele>
        <time>2010-06-17T13:43:43Z</time>
      </trkpt>
      <trkpt lat="48.9636520" lon="9.0186500">
        <ele>227.0100000</ele>
        <time>2010-06-17T13:43:44Z</time>
      </trkpt>
      <trkpt lat="48.9636530" lon="9.0186180">
        <ele>227.0100000</ele>
        <time>2010-06-17T13:43:45Z</time>
      </trkpt>
      <trkpt lat="48.9636500" lon="9.0186000">
        <ele>227.0100000</ele>
        <time>2010-06-17T13:43:46Z</time>
      </trkpt>
      <trkpt lat="48.9636280" lon="9.0185670">
        <ele>227.0100000</ele>
        <time>2010-06-17T13:43:51Z</time>
      </trkpt>
      <trkpt lat="48.9636170" lon="9.0185290">
        <ele>226.5300000</ele>
        <time>2010-06-17T13:43:52Z</time>
      </trkpt>
      <trkpt lat="48.9636070" lon="9.0184810">
        <ele>226.0500000</ele>
        <time>2010-06-17T13:43:53Z</time>
      </trkpt>
      <trkpt lat="48.9635940" lon="9.0184200">
        <ele>225.5700000</ele>
        <time>2010-06-17T13:43:54Z</time>
      </trkpt>
      <trkpt lat="48.9635770" lon="9.0183470">
        <ele>225.0900000</ele>
        <time>2010-06-17T13:43:55Z</time>
      </trkpt>
      <trkpt lat="48.9635170" lon="9.0181070">
        <ele>223.6400000</ele>
        <time>2010-06-17T13:43:58Z</time>
      </trkpt>
      <trkpt lat="48.9635050" lon="9.0180260">
        <ele>223.6400000</ele>
        <time>2010-06-17T13:43:59Z</time>
      </trkpt>
      <trkpt lat="48.9634580" lon="9.0175170">
        <ele>223.6400000</ele>
        <time>2010-06-17T13:44:06Z</time>
      </trkpt>
      <trkpt lat="48.9634520" lon="9.0174460">
        <ele>224.1200000</ele>
        <time>2010-06-17T13:44:07Z</time>
      </trkpt>
      <trkpt lat="48.9634470" lon="9.0173760">
        <ele>224.1200000</ele>
        <time>2010-06-17T13:44:08Z</time>
      </trkpt>
      <trkpt lat="48.9634420" lon="9.0173090">
        <ele>224.1200000</ele>
        <time>2010-06-17T13:44:09Z</time>
      </trkpt>
      <trkpt lat="48.9634370" lon="9.0172430">
        <ele>224.1200000</ele>
        <time>2010-06-17T13:44:10Z</time>
      </trkpt>
      <trkpt lat="48.9634150" lon="9.0169270">
        <ele>223.6400000</ele>
        <time>2010-06-17T13:44:15Z</time>
      </trkpt>
      <trkpt lat="48.9634080" lon="9.0168670">
        <ele>223.6400000</ele>
        <time>2010-06-17T13:44:16Z</time>
      </trkpt>
      <trkpt lat="48.9634050" lon="9.0168070">
        <ele>223.6400000</ele>
        <time>2010-06-17T13:44:17Z</time>
      </trkpt>
      <trkpt lat="48.9634010" lon="9.0167480">
        <ele>223.6400000</ele>
        <time>2010-06-17T13:44:18Z</time>
      </trkpt>
      <trkpt lat="48.9633950" lon="9.0166910">
        <ele>223.6400000</ele>
        <time>2010-06-17T13:44:19Z</time>
      </trkpt>
      <trkpt lat="48.9633900" lon="9.0166330">
        <ele>224.1200000</ele>
        <time>2010-06-17T13:44:20Z</time>
      </trkpt>
      <trkpt lat="48.9633500" lon="9.0158780">
        <ele>222.6800000</ele>
        <time>2010-06-17T13:44:31Z</time>
      </trkpt>
      <trkpt lat="48.9633380" lon="9.0156720">
        <ele>221.2400000</ele>
        <time>2010-06-17T13:44:33Z</time>
      </trkpt>
      <trkpt lat="48.9633180" lon="9.0154540">
        <ele>220.7600000</ele>
        <time>2010-06-17T13:44:35Z</time>
      </trkpt>
      <trkpt lat="48.9632910" lon="9.0153530">
        <ele>220.2800000</ele>
        <time>2010-06-17T13:44:36Z</time>
      </trkpt>
      <trkpt lat="48.9632490" lon="9.0152610">
        <ele>219.8000000</ele>
        <time>2010-06-17T13:44:37Z</time>
      </trkpt>
      <trkpt lat="48.9631960" lon="9.0151720">
        <ele>219.8000000</ele>
        <time>2010-06-17T13:44:38Z</time>
      </trkpt>
      <trkpt lat="48.9631380" lon="9.0150800">
        <ele>218.3600000</ele>
        <time>2010-06-17T13:44:39Z</time>
      </trkpt>
      <trkpt lat="48.9630130" lon="9.0148870">
        <ele>216.9100000</ele>
        <time>2010-06-17T13:44:41Z</time>
      </trkpt>
      <trkpt lat="48.9625470" lon="9.0142010">
        <ele>216.9100000</ele>
        <time>2010-06-17T13:44:50Z</time>
      </trkpt>
      <trkpt lat="48.9624870" lon="9.0141580">
        <ele>216.9100000</ele>
        <time>2010-06-17T13:44:51Z</time>
      </trkpt>
      <trkpt lat="48.9619650" lon="9.0138530">
        <ele>217.4000000</ele>
        <time>2010-06-17T13:45:00Z</time>
      </trkpt>
      <trkpt lat="48.9619220" lon="9.0138150">
        <ele>217.4000000</ele>
        <time>2010-06-17T13:45:01Z</time>
      </trkpt>
      <trkpt lat="48.9618810" lon="9.0137770">
        <ele>217.4000000</ele>
        <time>2010-06-17T13:45:02Z</time>
      </trkpt>
      <trkpt lat="48.9618080" lon="9.0137120">
        <ele>218.3600000</ele>
        <time>2010-06-17T13:45:04Z</time>
      </trkpt>
      <trkpt lat="48.9617760" lon="9.0136740">
        <ele>218.3600000</ele>
        <time>2010-06-17T13:45:05Z</time>
      </trkpt>
      <trkpt lat="48.9616370" lon="9.0134590">
        <ele>219.8000000</ele>
        <time>2010-06-17T13:45:10Z</time>
      </trkpt>
      <trkpt lat="48.9614470" lon="9.0130430">
        <ele>223.1600000</ele>
        <time>2010-06-17T13:45:19Z</time>
      </trkpt>
      <trkpt lat="48.9611970" lon="9.0122760">
        <ele>226.0500000</ele>
        <time>2010-06-17T13:45:37Z</time>
      </trkpt>
      <trkpt lat="48.9612110" lon="9.0118210">
        <ele>227.0100000</ele>
        <time>2010-06-17T13:45:47Z</time>
      </trkpt>
      <trkpt lat="48.9612700" lon="9.0112610">
        <ele>227.4900000</ele>
        <time>2010-06-17T13:45:58Z</time>
      </trkpt>
      <trkpt lat="48.9613960" lon="9.0107430">
        <ele>228.4500000</ele>
        <time>2010-06-17T13:46:09Z</time>
      </trkpt>
      <trkpt lat="48.9616820" lon="9.0101320">
        <ele>228.9300000</ele>
        <time>2010-06-17T13:46:22Z</time>
      </trkpt>
      <trkpt lat="48.9623570" lon="9.0091970">
        <ele>226.5300000</ele>
        <time>2010-06-17T13:46:39Z</time>
      </trkpt>
      <trkpt lat="48.9629940" lon="9.0077440">
        <ele>224.6100000</ele>
        <time>2010-06-17T13:46:56Z</time>
      </trkpt>
      <trkpt lat="48.9636630" lon="9.0065090">
        <ele>224.6100000</ele>
        <time>2010-06-17T13:47:14Z</time>
      </trkpt>
      <trkpt lat="48.9646110" lon="9.0053180">
        <ele>222.6800000</ele>
        <time>2010-06-17T13:47:34Z</time>
      </trkpt>
      <trkpt lat="48.9656260" lon="9.0043410">
        <ele>222.6800000</ele>
        <time>2010-06-17T13:47:53Z</time>
      </trkpt>
      <trkpt lat="48.9665400" lon="9.0034960">
        <ele>223.1600000</ele>
        <time>2010-06-17T13:48:13Z</time>
      </trkpt>
      <trkpt lat="48.9673910" lon="9.0023650">
        <ele>223.1600000</ele>
        <time>2010-06-17T13:48:33Z</time>
      </trkpt>
      <trkpt lat="48.9674270" lon="9.0023050">
        <ele>223.1600000</ele>
        <time>2010-06-17T13:48:34Z</time>
      </trkpt>
      <trkpt lat="48.9674610" lon="9.0022430">
        <ele>223.1600000</ele>
        <time>2010-06-17T13:48:35Z</time>
      </trkpt>
      <trkpt lat="48.9674960" lon="9.0021830">
        <ele>223.6400000</ele>
        <time>2010-06-17T13:48:36Z</time>
      </trkpt>
      <trkpt lat="48.9675290" lon="9.0021190">
        <ele>223.6400000</ele>
        <time>2010-06-17T13:48:37Z</time>
      </trkpt>
      <trkpt lat="48.9675590" lon="9.0020540">
        <ele>223.1600000</ele>
        <time>2010-06-17T13:48:38Z</time>
      </trkpt>
      <trkpt lat="48.9677420" lon="9.0016840">
        <ele>223.6400000</ele>
        <time>2010-06-17T13:48:44Z</time>
      </trkpt>
      <trkpt lat="48.9677490" lon="9.0016130">
        <ele>223.6400000</ele>
        <time>2010-06-17T13:48:45Z</time>
      </trkpt>
      <trkpt lat="48.9677280" lon="9.0015490">
        <ele>223.1600000</ele>
        <time>2010-06-17T13:48:46Z</time>
      </trkpt>
      <trkpt lat="48.9677080" lon="9.0014940">
        <ele>223.6400000</ele>
        <time>2010-06-17T13:48:47Z</time>
      </trkpt>
      <trkpt lat="48.9677600" lon="9.0013610">
        <ele>224.6100000</ele>
        <time>2010-06-17T13:48:50Z</time>
      </trkpt>
      <trkpt lat="48.9682500" lon="9.0005760">
        <ele>223.1600000</ele>
        <time>2010-06-17T13:49:08Z</time>
      </trkpt>
      <trkpt lat="48.9685930" lon="8.9999380">
        <ele>221.7200000</ele>
        <time>2010-06-17T13:49:17Z</time>
      </trkpt>
      <trkpt lat="48.9687800" lon="8.9995170">
        <ele>221.7200000</ele>
        <time>2010-06-17T13:49:23Z</time>
      </trkpt>
      <trkpt lat="48.9689350" lon="8.9993110">
        <ele>222.2000000</ele>
        <time>2010-06-17T13:49:27Z</time>
      </trkpt>
      <trkpt lat="48.9695290" lon="8.9982840">
        <ele>222.6800000</ele>
        <time>2010-06-17T13:49:44Z</time>
      </trkpt>
      <trkpt lat="48.9697890" lon="8.9978090">
        <ele>226.0500000</ele>
        <time>2010-06-17T13:49:53Z</time>
      </trkpt>
      <trkpt lat="48.9700090" lon="8.9973520">
        <ele>228.9300000</ele>
        <time>2010-06-17T13:50:03Z</time>
      </trkpt>
      <trkpt lat="48.9704270" lon="8.9966770">
        <ele>230.8500000</ele>
        <time>2010-06-17T13:50:21Z</time>
      </trkpt>
      <trkpt lat="48.9708680" lon="8.9958960">
        <ele>231.8100000</ele>
        <time>2010-06-17T13:50:39Z</time>
      </trkpt>
      <trkpt lat="48.9713720" lon="8.9949760">
        <ele>231.3300000</ele>
        <time>2010-06-17T13:50:57Z</time>
      </trkpt>
      <trkpt lat="48.9719200" lon="8.9939810">
        <ele>230.8500000</ele>
        <time>2010-06-17T13:51:14Z</time>
      </trkpt>
      <trkpt lat="48.9720480" lon="8.9935300">
        <ele>230.3700000</ele>
        <time>2010-06-17T13:51:21Z</time>
      </trkpt>
      <trkpt lat="48.9720690" lon="8.9934650">
        <ele>230.3700000</ele>
        <time>2010-06-17T13:51:24Z</time>
      </trkpt>
      <trkpt lat="48.9720500" lon="8.9935380">
        <ele>230.3700000</ele>
        <time>2010-06-17T13:51:32Z</time>
      </trkpt>
      <trkpt lat="48.9721160" lon="8.9936200">
        <ele>229.8900000</ele>
        <time>2010-06-17T13:51:35Z</time>
      </trkpt>
      <trkpt lat="48.9721530" lon="8.9936480">
        <ele>229.8900000</ele>
        <time>2010-06-17T13:51:37Z</time>
      </trkpt>
      <trkpt lat="48.9722880" lon="8.9934900">
        <ele>229.4100000</ele>
        <time>2010-06-17T13:51:42Z</time>
      </trkpt>
      <trkpt lat="48.9723720" lon="8.9933100">
        <ele>229.4100000</ele>
        <time>2010-06-17T13:51:45Z</time>
      </trkpt>
      <trkpt lat="48.9726260" lon="8.9928320">
        <ele>228.9300000</ele>
        <time>2010-06-17T13:51:53Z</time>
      </trkpt>
      <trkpt lat="48.9726330" lon="8.9923900">
        <ele>229.4100000</ele>
        <time>2010-06-17T13:51:59Z</time>
      </trkpt>
      <trkpt lat="48.9721870" lon="8.9910900">
        <ele>231.8100000</ele>
        <time>2010-06-17T13:52:20Z</time>
      </trkpt>
      <trkpt lat="48.9719020" lon="8.9898160">
        <ele>234.2200000</ele>
        <time>2010-06-17T13:52:41Z</time>
      </trkpt>
      <trkpt lat="48.9717350" lon="8.9884330">
        <ele>236.6200000</ele>
        <time>2010-06-17T13:53:05Z</time>
      </trkpt>
      <trkpt lat="48.9716770" lon="8.9868790">
        <ele>239.9900000</ele>
        <time>2010-06-17T13:53:32Z</time>
      </trkpt>
      <trkpt lat="48.9717070" lon="8.9856950">
        <ele>241.9100000</ele>
        <time>2010-06-17T13:53:53Z</time>
      </trkpt>
      <trkpt lat="48.9717820" lon="8.9848570">
        <ele>243.3500000</ele>
        <time>2010-06-17T13:54:08Z</time>
      </trkpt>
      <trkpt lat="48.9719150" lon="8.9839490">
        <ele>245.2700000</ele>
        <time>2010-06-17T13:54:25Z</time>
      </trkpt>
      <trkpt lat="48.9720500" lon="8.9831010">
        <ele>245.7500000</ele>
        <time>2010-06-17T13:54:40Z</time>
      </trkpt>
      <trkpt lat="48.9723590" lon="8.9817070">
        <ele>246.2300000</ele>
        <time>2010-06-17T13:55:03Z</time>
      </trkpt>
      <trkpt lat="48.9727630" lon="8.9804240">
        <ele>247.2000000</ele>
        <time>2010-06-17T13:55:23Z</time>
      </trkpt>
      <trkpt lat="48.9732820" lon="8.9791350">
        <ele>248.6400000</ele>
        <time>2010-06-17T13:55:45Z</time>
      </trkpt>
      <trkpt lat="48.9738720" lon="8.9780170">
        <ele>250.5600000</ele>
        <time>2010-06-17T13:56:07Z</time>
      </trkpt>
      <trkpt lat="48.9744730" lon="8.9772730">
        <ele>252.0000000</ele>
        <time>2010-06-17T13:56:27Z</time>
      </trkpt>
      <trkpt lat="48.9747260" lon="8.9770580">
        <ele>252.4800000</ele>
        <time>2010-06-17T13:56:36Z</time>
      </trkpt>
      <trkpt lat="48.9748500" lon="8.9768050">
        <ele>252.9600000</ele>
        <time>2010-06-17T13:56:41Z</time>
      </trkpt>
      <trkpt lat="48.9750650" lon="8.9765960">
        <ele>252.9600000</ele>
        <time>2010-06-17T13:56:47Z</time>
      </trkpt>
      <trkpt lat="48.9758000" lon="8.9761660">
        <ele>252.4800000</ele>
        <time>2010-06-17T13:57:03Z</time>
      </trkpt>
      <trkpt lat="48.9764170" lon="8.9759440">
        <ele>252.4800000</ele>
        <time>2010-06-17T13:57:16Z</time>
      </trkpt>
      <trkpt lat="48.9773780" lon="8.9757700">
        <ele>251.5200000</ele>
        <time>2010-06-17T13:57:35Z</time>
      </trkpt>
      <trkpt lat="48.9780980" lon="8.9756790">
        <ele>247.6800000</ele>
        <time>2010-06-17T13:57:46Z</time>
      </trkpt>
      <trkpt lat="48.9787240" lon="8.9755960">
        <ele>244.7900000</ele>
        <time>2010-06-17T13:57:54Z</time>
      </trkpt>
      <trkpt lat="48.9788970" lon="8.9755780">
        <ele>243.8300000</ele>
        <time>2010-06-17T13:57:56Z</time>
      </trkpt>
      <trkpt lat="48.9795370" lon="8.9755040">
        <ele>241.4300000</ele>
        <time>2010-06-17T13:58:03Z</time>
      </trkpt>
      <trkpt lat="48.9800260" lon="8.9754470">
        <ele>239.0200000</ele>
        <time>2010-06-17T13:58:08Z</time>
      </trkpt>
      <trkpt lat="48.9806400" lon="8.9753540">
        <ele>235.6600000</ele>
        <time>2010-06-17T13:58:14Z</time>
      </trkpt>
      <trkpt lat="48.9812890" lon="8.9751590">
        <ele>232.3000000</ele>
        <time>2010-06-17T13:58:20Z</time>
      </trkpt>
      <trkpt lat="48.9818910" lon="8.9748210">
        <ele>228.9300000</ele>
        <time>2010-06-17T13:58:26Z</time>
      </trkpt>
      <trkpt lat="48.9828750" lon="8.9739470">
        <ele>227.0100000</ele>
        <time>2010-06-17T13:58:38Z</time>
      </trkpt>
      <trkpt lat="48.9835750" lon="8.9729190">
        <ele>229.4100000</ele>
        <time>2010-06-17T13:58:52Z</time>
      </trkpt>
      <trkpt lat="48.9837040" lon="8.9726970">
        <ele>229.4100000</ele>
        <time>2010-06-17T13:58:56Z</time>
      </trkpt>
      <trkpt lat="48.9839030" lon="8.9725590">
        <ele>230.3700000</ele>
        <time>2010-06-17T13:59:02Z</time>
      </trkpt>
      <trkpt lat="48.9842490" lon="8.9725930">
        <ele>231.3300000</ele>
        <time>2010-06-17T13:59:13Z</time>
      </trkpt>
      <trkpt lat="48.9842520" lon="8.9720690">
        <ele>231.8100000</ele>
        <time>2010-06-17T13:59:23Z</time>
      </trkpt>
      <trkpt lat="48.9843430" lon="8.9712960">
        <ele>232.3000000</ele>
        <time>2010-06-17T13:59:37Z</time>
      </trkpt>
      <trkpt lat="48.9846680" lon="8.9714530">
        <ele>233.7400000</ele>
        <time>2010-06-17T13:59:46Z</time>
      </trkpt>
      <trkpt lat="48.9847700" lon="8.9713770">
        <ele>234.2200000</ele>
        <time>2010-06-17T13:59:50Z</time>
      </trkpt>
      <trkpt lat="48.9851530" lon="8.9708580">
        <ele>237.1000000</ele>
        <time>2010-06-17T14:00:06Z</time>
      </trkpt>
      <trkpt lat="48.9855000" lon="8.9704020">
        <ele>239.9900000</ele>
        <time>2010-06-17T14:00:24Z</time>
      </trkpt>
      <trkpt lat="48.9857850" lon="8.9700220">
        <ele>240.9500000</ele>
        <time>2010-06-17T14:00:38Z</time>
      </trkpt>
      <trkpt lat="48.9857790" lon="8.9699020">
        <ele>241.4300000</ele>
        <time>2010-06-17T14:00:42Z</time>
      </trkpt>
      <trkpt lat="48.9857370" lon="8.9697270">
        <ele>240.9500000</ele>
        <time>2010-06-17T14:00:47Z</time>
      </trkpt>
      <trkpt lat="48.9857570" lon="8.9695160">
        <ele>241.4300000</ele>
        <time>2010-06-17T14:00:53Z</time>
      </trkpt>
      <trkpt lat="48.9856620" lon="8.9688690">
        <ele>240.9500000</ele>
        <time>2010-06-17T14:01:04Z</time>
      </trkpt>
      <trkpt lat="48.9857160" lon="8.9685100">
        <ele>240.4700000</ele>
        <time>2010-06-17T14:01:09Z</time>
      </trkpt>
      <trkpt lat="48.9860900" lon="8.9674170">
        <ele>238.5400000</ele>
        <time>2010-06-17T14:01:24Z</time>
      </trkpt>
      <trkpt lat="48.9865840" lon="8.9659840">
        <ele>237.5800000</ele>
        <time>2010-06-17T14:01:43Z</time>
      </trkpt>
      <trkpt lat="48.9867410" lon="8.9655130">
        <ele>236.1400000</ele>
        <time>2010-06-17T14:01:48Z</time>
      </trkpt>
      <trkpt lat="48.9868730" lon="8.9651210">
        <ele>233.7400000</ele>
        <time>2010-06-17T14:01:52Z</time>
      </trkpt>
      <trkpt lat="48.9868990" lon="8.9650320">
        <ele>234.2200000</ele>
        <time>2010-06-17T14:01:53Z</time>
      </trkpt>
      <trkpt lat="48.9871120" lon="8.9648040">
        <ele>233.7400000</ele>
        <time>2010-06-17T14:01:58Z</time>
      </trkpt>
      <trkpt lat="48.9872890" lon="8.9646610">
        <ele>233.2600000</ele>
        <time>2010-06-17T14:02:07Z</time>
      </trkpt>
      <trkpt lat="48.9874420" lon="8.9644710">
        <ele>234.2200000</ele>
        <time>2010-06-17T14:02:18Z</time>
      </trkpt>
      <trkpt lat="48.9875610" lon="8.9642960">
        <ele>234.2200000</ele>
        <time>2010-06-17T14:02:22Z</time>
      </trkpt>
      <trkpt lat="48.9877460" lon="8.9639230">
        <ele>233.2600000</ele>
        <time>2010-06-17T14:02:29Z</time>
      </trkpt>
      <trkpt lat="48.9878290" lon="8.9637190">
        <ele>233.7400000</ele>
        <time>2010-06-17T14:02:33Z</time>
      </trkpt>
      <trkpt lat="48.9878740" lon="8.9636210">
        <ele>233.7400000</ele>
        <time>2010-06-17T14:02:35Z</time>
      </trkpt>
      <trkpt lat="48.9880470" lon="8.9634180">
        <ele>233.7400000</ele>
        <time>2010-06-17T14:02:40Z</time>
      </trkpt>
      <trkpt lat="48.9884760" lon="8.9631260">
        <ele>234.2200000</ele>
        <time>2010-06-17T14:02:52Z</time>
      </trkpt>
      <trkpt lat="48.9885660" lon="8.9630880">
        <ele>234.2200000</ele>
        <time>2010-06-17T14:02:55Z</time>
      </trkpt>
      <trkpt lat="48.9886330" lon="8.9628830">
        <ele>234.2200000</ele>
        <time>2010-06-17T14:02:59Z</time>
      </trkpt>
      <trkpt lat="48.9885980" lon="8.9615690">
        <ele>232.7800000</ele>
        <time>2010-06-17T14:03:15Z</time>
      </trkpt>
      <trkpt lat="48.9886590" lon="8.9610520">
        <ele>232.7800000</ele>
        <time>2010-06-17T14:03:21Z</time>
      </trkpt>
      <trkpt lat="48.9891390" lon="8.9599530">
        <ele>232.7800000</ele>
        <time>2010-06-17T14:03:36Z</time>
      </trkpt>
      <trkpt lat="48.9895090" lon="8.9593150">
        <ele>232.7800000</ele>
        <time>2010-06-17T14:03:46Z</time>
      </trkpt>
      <trkpt lat="48.9902460" lon="8.9587760">
        <ele>233.2600000</ele>
        <time>2010-06-17T14:04:01Z</time>
      </trkpt>
      <trkpt lat="48.9907580" lon="8.9584210">
        <ele>234.2200000</ele>
        <time>2010-06-17T14:04:12Z</time>
      </trkpt>
      <trkpt lat="48.9913490" lon="8.9576720">
        <ele>234.2200000</ele>
        <time>2010-06-17T14:04:26Z</time>
      </trkpt>
      <trkpt lat="48.9919580" lon="8.9564330">
        <ele>234.7000000</ele>
        <time>2010-06-17T14:04:45Z</time>
      </trkpt>
      <trkpt lat="48.9922070" lon="8.9558910">
        <ele>234.7000000</ele>
        <time>2010-06-17T14:04:53Z</time>
      </trkpt>
      <trkpt lat="48.9925910" lon="8.9544720">
        <ele>235.6600000</ele>
        <time>2010-06-17T14:05:12Z</time>
      </trkpt>
      <trkpt lat="48.9929260" lon="8.9532420">
        <ele>234.7000000</ele>
        <time>2010-06-17T14:05:28Z</time>
      </trkpt>
      <trkpt lat="48.9931550" lon="8.9523660">
        <ele>234.2200000</ele>
        <time>2010-06-17T14:05:39Z</time>
      </trkpt>
      <trkpt lat="48.9931530" lon="8.9509630">
        <ele>233.7400000</ele>
        <time>2010-06-17T14:05:55Z</time>
      </trkpt>
      <trkpt lat="48.9932730" lon="8.9497390">
        <ele>234.7000000</ele>
        <time>2010-06-17T14:06:11Z</time>
      </trkpt>
      <trkpt lat="48.9934890" lon="8.9483020">
        <ele>235.6600000</ele>
        <time>2010-06-17T14:06:31Z</time>
      </trkpt>
      <trkpt lat="48.9934980" lon="8.9471160">
        <ele>235.1800000</ele>
        <time>2010-06-17T14:06:46Z</time>
      </trkpt>
      <trkpt lat="48.9932350" lon="8.9459150">
        <ele>235.6600000</ele>
        <time>2010-06-17T14:07:01Z</time>
      </trkpt>
      <trkpt lat="48.9928390" lon="8.9446220">
        <ele>236.6200000</ele>
        <time>2010-06-17T14:07:19Z</time>
      </trkpt>
      <trkpt lat="48.9927520" lon="8.9443710">
        <ele>237.1000000</ele>
        <time>2010-06-17T14:07:23Z</time>
      </trkpt>
      <trkpt lat="48.9925010" lon="8.9435140">
        <ele>238.5400000</ele>
        <time>2010-06-17T14:07:37Z</time>
      </trkpt>
      <trkpt lat="48.9924310" lon="8.9429770">
        <ele>239.9900000</ele>
        <time>2010-06-17T14:07:46Z</time>
      </trkpt>
      <trkpt lat="48.9922430" lon="8.9418940">
        <ele>242.3900000</ele>
        <time>2010-06-17T14:08:05Z</time>
      </trkpt>
      <trkpt lat="48.9920960" lon="8.9410260">
        <ele>243.3500000</ele>
        <time>2010-06-17T14:08:20Z</time>
      </trkpt>
      <trkpt lat="48.9919820" lon="8.9403830">
        <ele>243.3500000</ele>
        <time>2010-06-17T14:08:34Z</time>
      </trkpt>
      <trkpt lat="48.9919550" lon="8.9400910">
        <ele>239.9900000</ele>
        <time>2010-06-17T14:08:40Z</time>
      </trkpt>
      <trkpt lat="48.9919500" lon="8.9400480">
        <ele>240.9500000</ele>
        <time>2010-06-17T14:08:41Z</time>
      </trkpt>
      <trkpt lat="48.9918300" lon="8.9396660">
        <ele>239.0200000</ele>
        <time>2010-06-17T14:08:53Z</time>
      </trkpt>
      <trkpt lat="48.9917150" lon="8.9393890">
        <ele>238.5400000</ele>
        <time>2010-06-17T14:08:59Z</time>
      </trkpt>
      <trkpt lat="48.9915680" lon="8.9388190">
        <ele>239.5100000</ele>
        <time>2010-06-17T14:09:11Z</time>
      </trkpt>
      <trkpt lat="48.9915540" lon="8.9385200">
        <ele>239.9900000</ele>
        <time>2010-06-17T14:09:17Z</time>
      </trkpt>
      <trkpt lat="48.9916740" lon="8.9376770">
        <ele>241.4300000</ele>
        <time>2010-06-17T14:09:32Z</time>
      </trkpt>
      <trkpt lat="48.9918580" lon="8.9365660">
        <ele>241.9100000</ele>
        <time>2010-06-17T14:09:49Z</time>
      </trkpt>
      <trkpt lat="48.9918910" lon="8.9363640">
        <ele>242.3900000</ele>
        <time>2010-06-17T14:09:52Z</time>
      </trkpt>
      <trkpt lat="48.9919980" lon="8.9347850">
        <ele>239.9900000</ele>
        <time>2010-06-17T14:10:11Z</time>
      </trkpt>
      <trkpt lat="48.9918050" lon="8.9332060">
        <ele>238.5400000</ele>
        <time>2010-06-17T14:10:25Z</time>
      </trkpt>
      <trkpt lat="48.9916150" lon="8.9319100">
        <ele>238.5400000</ele>
        <time>2010-06-17T14:10:40Z</time>
      </trkpt>
      <trkpt lat="48.9915970" lon="8.9314740">
        <ele>239.9900000</ele>
        <time>2010-06-17T14:10:45Z</time>
      </trkpt>
      <trkpt lat="48.9916800" lon="8.9298870">
        <ele>241.4300000</ele>
        <time>2010-06-17T14:11:03Z</time>
      </trkpt>
      <trkpt lat="48.9917410" lon="8.9285810">
        <ele>242.8700000</ele>
        <time>2010-06-17T14:11:19Z</time>
      </trkpt>
      <trkpt lat="48.9918390" lon="8.9277590">
        <ele>243.8300000</ele>
        <time>2010-06-17T14:11:30Z</time>
      </trkpt>
      <trkpt lat="48.9921430" lon="8.9268020">
        <ele>247.2000000</ele>
        <time>2010-06-17T14:11:47Z</time>
      </trkpt>
      <trkpt lat="48.9923680" lon="8.9260550">
        <ele>250.0800000</ele>
        <time>2010-06-17T14:12:05Z</time>
      </trkpt>
      <trkpt lat="48.9926480" lon="8.9254970">
        <ele>251.5200000</ele>
        <time>2010-06-17T14:12:21Z</time>
      </trkpt>
      <trkpt lat="48.9930930" lon="8.9247190">
        <ele>251.0400000</ele>
        <time>2010-06-17T14:12:36Z</time>
      </trkpt>
      <trkpt lat="48.9935450" lon="8.9234700">
        <ele>250.0800000</ele>
        <time>2010-06-17T14:12:52Z</time>
      </trkpt>
      <trkpt lat="48.9938820" lon="8.9221320">
        <ele>252.0000000</ele>
        <time>2010-06-17T14:13:09Z</time>
      </trkpt>
      <trkpt lat="48.9942260" lon="8.9208550">
        <ele>252.9600000</ele>
        <time>2010-06-17T14:13:27Z</time>
      </trkpt>
      <trkpt lat="48.9943890" lon="8.9196890">
        <ele>251.0400000</ele>
        <time>2010-06-17T14:13:39Z</time>
      </trkpt>
      <trkpt lat="48.9944630" lon="8.9176030">
        <ele>249.1200000</ele>
        <time>2010-06-17T14:13:57Z</time>
      </trkpt>
      <trkpt lat="48.9947820" lon="8.9156840">
        <ele>248.6400000</ele>
        <time>2010-06-17T14:14:15Z</time>
      </trkpt>
      <trkpt lat="48.9949350" lon="8.9140640">
        <ele>248.6400000</ele>
        <time>2010-06-17T14:14:31Z</time>
      </trkpt>
      <trkpt lat="48.9949460" lon="8.9122310">
        <ele>249.1200000</ele>
        <time>2010-06-17T14:14:50Z</time>
      </trkpt>
      <trkpt lat="48.9947830" lon="8.9110460">
        <ele>249.1200000</ele>
        <time>2010-06-17T14:15:03Z</time>
      </trkpt>
      <trkpt lat="48.9945380" lon="8.9096570">
        <ele>249.1200000</ele>
        <time>2010-06-17T14:15:19Z</time>
      </trkpt>
      <trkpt lat="48.9942250" lon="8.9087820">
        <ele>247.6800000</ele>
        <time>2010-06-17T14:15:30Z</time>
      </trkpt>
      <trkpt lat="48.9941530" lon="8.9074490">
        <ele>248.6400000</ele>
        <time>2010-06-17T14:15:45Z</time>
      </trkpt>
      <trkpt lat="48.9942460" lon="8.9058530">
        <ele>250.0800000</ele>
        <time>2010-06-17T14:16:05Z</time>
      </trkpt>
      <trkpt lat="48.9945950" lon="8.9045930">
        <ele>252.0000000</ele>
        <time>2010-06-17T14:16:23Z</time>
      </trkpt>
      <trkpt lat="48.9951150" lon="8.9029050">
        <ele>251.5200000</ele>
        <time>2010-06-17T14:16:43Z</time>
      </trkpt>
      <trkpt lat="48.9954470" lon="8.9015780">
        <ele>251.5200000</ele>
        <time>2010-06-17T14:16:57Z</time>
      </trkpt>
      <trkpt lat="48.9957200" lon="8.8998890">
        <ele>250.0800000</ele>
        <time>2010-06-17T14:17:14Z</time>
      </trkpt>
      <trkpt lat="48.9959720" lon="8.8982510">
        <ele>250.0800000</ele>
        <time>2010-06-17T14:17:31Z</time>
      </trkpt>
      <trkpt lat="48.9961530" lon="8.8964950">
        <ele>251.5200000</ele>
        <time>2010-06-17T14:17:51Z</time>
      </trkpt>
      <trkpt lat="48.9961860" lon="8.8963180">
        <ele>251.0400000</ele>
        <time>2010-06-17T14:17:53Z</time>
      </trkpt>
      <trkpt lat="48.9963230" lon="8.8960070">
        <ele>250.5600000</ele>
        <time>2010-06-17T14:17:57Z</time>
      </trkpt>
      <trkpt lat="48.9967800" lon="8.8953530">
        <ele>250.5600000</ele>
        <time>2010-06-17T14:18:07Z</time>
      </trkpt>
      <trkpt lat="48.9968790" lon="8.8950230">
        <ele>250.5600000</ele>
        <time>2010-06-17T14:18:11Z</time>
      </trkpt>
      <trkpt lat="48.9971800" lon="8.8937200">
        <ele>253.4400000</ele>
        <time>2010-06-17T14:18:28Z</time>
      </trkpt>
      <trkpt lat="48.9973060" lon="8.8924800">
        <ele>254.4100000</ele>
        <time>2010-06-17T14:18:43Z</time>
      </trkpt>
      <trkpt lat="48.9974040" lon="8.8906310">
        <ele>254.8900000</ele>
        <time>2010-06-17T14:19:04Z</time>
      </trkpt>
      <trkpt lat="48.9977320" lon="8.8894100">
        <ele>253.9300000</ele>
        <time>2010-06-17T14:19:17Z</time>
      </trkpt>
      <trkpt lat="48.9981560" lon="8.8879410">
        <ele>253.4400000</ele>
        <time>2010-06-17T14:19:31Z</time>
      </trkpt>
      <trkpt lat="48.9983220" lon="8.8861880">
        <ele>253.4400000</ele>
        <time>2010-06-17T14:19:48Z</time>
      </trkpt>
      <trkpt lat="48.9987310" lon="8.8847260">
        <ele>254.4100000</ele>
        <time>2010-06-17T14:20:04Z</time>
      </trkpt>
      <trkpt lat="48.9992720" lon="8.8833980">
        <ele>254.8900000</ele>
        <time>2010-06-17T14:20:21Z</time>
      </trkpt>
      <trkpt lat="49.0001680" lon="8.8824220">
        <ele>254.4100000</ele>
        <time>2010-06-17T14:20:38Z</time>
      </trkpt>
      <trkpt lat="49.0008270" lon="8.8814140">
        <ele>254.4100000</ele>
        <time>2010-06-17T14:20:52Z</time>
      </trkpt>
      <trkpt lat="49.0011910" lon="8.8804140">
        <ele>257.7700000</ele>
        <time>2010-06-17T14:21:08Z</time>
      </trkpt>
      <trkpt lat="49.0013680" lon="8.8797420">
        <ele>260.6500000</ele>
        <time>2010-06-17T14:21:22Z</time>
      </trkpt>
      <trkpt lat="49.0015240" lon="8.8790140">
        <ele>263.0600000</ele>
        <time>2010-06-17T14:21:39Z</time>
      </trkpt>
      <trkpt lat="49.0016970" lon="8.8782610">
        <ele>265.4600000</ele>
        <time>2010-06-17T14:21:59Z</time>
      </trkpt>
      <trkpt lat="49.0018640" lon="8.8775480">
        <ele>267.8600000</ele>
        <time>2010-06-17T14:22:17Z</time>
      </trkpt>
      <trkpt lat="49.0020220" lon="8.8768370">
        <ele>268.3500000</ele>
        <time>2010-06-17T14:22:33Z</time>
      </trkpt>
      <trkpt lat="49.0022200" lon="8.8759500">
        <ele>269.7900000</ele>
        <time>2010-06-17T14:22:51Z</time>
      </trkpt>
      <trkpt lat="49.0024630" lon="8.8751690">
        <ele>271.2300000</ele>
        <time>2010-06-17T14:23:06Z</time>
      </trkpt>
      <trkpt lat="49.0024840" lon="8.8751180">
        <ele>271.2300000</ele>
        <time>2010-06-17T14:23:07Z</time>
      </trkpt>
      <trkpt lat="49.0025730" lon="8.8748990">
        <ele>271.2300000</ele>
        <time>2010-06-17T14:23:11Z</time>
      </trkpt>
      <trkpt lat="49.0031010" lon="8.8739820">
        <ele>272.1900000</ele>
        <time>2010-06-17T14:23:29Z</time>
      </trkpt>
      <trkpt lat="49.0037030" lon="8.8732980">
        <ele>274.1100000</ele>
        <time>2010-06-17T14:23:45Z</time>
      </trkpt>
      <trkpt lat="49.0044880" lon="8.8722970">
        <ele>275.5600000</ele>
        <time>2010-06-17T14:24:05Z</time>
      </trkpt>
      <trkpt lat="49.0049980" lon="8.8710830">
        <ele>276.5200000</ele>
        <time>2010-06-17T14:24:23Z</time>
      </trkpt>
      <trkpt lat="49.0055560" lon="8.8697180">
        <ele>276.0400000</ele>
        <time>2010-06-17T14:24:43Z</time>
      </trkpt>
      <trkpt lat="49.0056080" lon="8.8695860">
        <ele>276.5200000</ele>
        <time>2010-06-17T14:24:45Z</time>
      </trkpt>
      <trkpt lat="49.0056900" lon="8.8693950">
        <ele>276.0400000</ele>
        <time>2010-06-17T14:24:48Z</time>
      </trkpt>
      <trkpt lat="49.0057100" lon="8.8693290">
        <ele>276.0400000</ele>
        <time>2010-06-17T14:24:49Z</time>
      </trkpt>
      <trkpt lat="49.0057270" lon="8.8692710">
        <ele>275.5600000</ele>
        <time>2010-06-17T14:24:50Z</time>
      </trkpt>
      <trkpt lat="49.0057430" lon="8.8691980">
        <ele>275.5600000</ele>
        <time>2010-06-17T14:24:58Z</time>
      </trkpt>
      <trkpt lat="49.0057430" lon="8.8691990">
        <ele>274.5900000</ele>
        <time>2010-06-17T14:25:58Z</time>
      </trkpt>
      <trkpt lat="49.0057470" lon="8.8692010">
        <ele>276.0400000</ele>
        <time>2010-06-17T14:27:19Z</time>
      </trkpt>
      <trkpt lat="49.0058140" lon="8.8690260">
        <ele>276.0400000</ele>
        <time>2010-06-17T14:27:49Z</time>
      </trkpt>
      <trkpt lat="49.0061160" lon="8.8682310">
        <ele>275.0700000</ele>
        <time>2010-06-17T14:28:02Z</time>
      </trkpt>
      <trkpt lat="49.0063030" lon="8.8677350">
        <ele>275.0700000</ele>
        <time>2010-06-17T14:28:09Z</time>
      </trkpt>
      <trkpt lat="49.0068010" lon="8.8668670">
        <ele>274.1100000</ele>
        <time>2010-06-17T14:28:24Z</time>
      </trkpt>
      <trkpt lat="49.0068320" lon="8.8668100">
        <ele>274.1100000</ele>
        <time>2010-06-17T14:28:25Z</time>
      </trkpt>
      <trkpt lat="49.0069940" lon="8.8665260">
        <ele>273.6300000</ele>
        <time>2010-06-17T14:28:30Z</time>
      </trkpt>
      <trkpt lat="49.0070320" lon="8.8664730">
        <ele>273.6300000</ele>
        <time>2010-06-17T14:28:31Z</time>
      </trkpt>
      <trkpt lat="49.0070700" lon="8.8664180">
        <ele>273.1500000</ele>
        <time>2010-06-17T14:28:32Z</time>
      </trkpt>
      <trkpt lat="49.0071450" lon="8.8662870">
        <ele>273.1500000</ele>
        <time>2010-06-17T14:28:34Z</time>
      </trkpt>
      <trkpt lat="49.0071760" lon="8.8662120">
        <ele>273.1500000</ele>
        <time>2010-06-17T14:28:35Z</time>
      </trkpt>
      <trkpt lat="49.0072020" lon="8.8661240">
        <ele>272.6700000</ele>
        <time>2010-06-17T14:28:36Z</time>
      </trkpt>
      <trkpt lat="49.0072250" lon="8.8660260">
        <ele>272.6700000</ele>
        <time>2010-06-17T14:28:37Z</time>
      </trkpt>
      <trkpt lat="49.0072440" lon="8.8659260">
        <ele>272.1900000</ele>
        <time>2010-06-17T14:28:38Z</time>
      </trkpt>
      <trkpt lat="49.0072590" lon="8.8658240">
        <ele>272.1900000</ele>
        <time>2010-06-17T14:28:39Z</time>
      </trkpt>
      <trkpt lat="49.0072800" lon="8.8655470">
        <ele>271.7100000</ele>
        <time>2010-06-17T14:28:42Z</time>
      </trkpt>
      <trkpt lat="49.0072680" lon="8.8654590">
        <ele>271.7100000</ele>
        <time>2010-06-17T14:28:43Z</time>
      </trkpt>
      <trkpt lat="49.0072450" lon="8.8653750">
        <ele>271.7100000</ele>
        <time>2010-06-17T14:28:44Z</time>
      </trkpt>
      <trkpt lat="49.0072130" lon="8.8652930">
        <ele>271.2300000</ele>
        <time>2010-06-17T14:28:45Z</time>
      </trkpt>
      <trkpt lat="49.0071750" lon="8.8652170">
        <ele>271.2300000</ele>
        <time>2010-06-17T14:28:46Z</time>
      </trkpt>
      <trkpt lat="49.0071300" lon="8.8651530">
        <ele>270.7500000</ele>
        <time>2010-06-17T14:28:47Z</time>
      </trkpt>
      <trkpt lat="49.0070800" lon="8.8651000">
        <ele>270.7500000</ele>
        <time>2010-06-17T14:28:48Z</time>
      </trkpt>
      <trkpt lat="49.0070290" lon="8.8650620">
        <ele>270.7500000</ele>
        <time>2010-06-17T14:28:49Z</time>
      </trkpt>
      <trkpt lat="49.0069320" lon="8.8649730">
        <ele>270.2700000</ele>
        <time>2010-06-17T14:28:51Z</time>
      </trkpt>
      <trkpt lat="49.0069090" lon="8.8649090">
        <ele>270.2700000</ele>
        <time>2010-06-17T14:28:52Z</time>
      </trkpt>
      <trkpt lat="49.0069070" lon="8.8648380">
        <ele>270.2700000</ele>
        <time>2010-06-17T14:28:53Z</time>
      </trkpt>
      <trkpt lat="49.0069220" lon="8.8647640">
        <ele>270.2700000</ele>
        <time>2010-06-17T14:28:54Z</time>
      </trkpt>
      <trkpt lat="49.0069460" lon="8.8646920">
        <ele>270.2700000</ele>
        <time>2010-06-17T14:28:55Z</time>
      </trkpt>
      <trkpt lat="49.0069890" lon="8.8645430">
        <ele>270.2700000</ele>
        <time>2010-06-17T14:28:57Z</time>
      </trkpt>
      <trkpt lat="49.0069990" lon="8.8644640">
        <ele>270.2700000</ele>
        <time>2010-06-17T14:28:58Z</time>
      </trkpt>
      <trkpt lat="49.0070040" lon="8.8643800">
        <ele>270.2700000</ele>
        <time>2010-06-17T14:28:59Z</time>
      </trkpt>
      <trkpt lat="49.0070060" lon="8.8642950">
        <ele>270.7500000</ele>
        <time>2010-06-17T14:29:00Z</time>
      </trkpt>
      <trkpt lat="49.0070030" lon="8.8642110">
        <ele>270.7500000</ele>
        <time>2010-06-17T14:29:01Z</time>
      </trkpt>
      <trkpt lat="49.0069600" lon="8.8630440">
        <ele>269.7900000</ele>
        <time>2010-06-17T14:29:15Z</time>
      </trkpt>
      <trkpt lat="49.0069430" lon="8.8627370">
        <ele>269.7900000</ele>
        <time>2010-06-17T14:29:20Z</time>
      </trkpt>
      <trkpt lat="49.0069170" lon="8.8627020">
        <ele>269.7900000</ele>
        <time>2010-06-17T14:29:21Z</time>
      </trkpt>
      <trkpt lat="49.0068840" lon="8.8626840">
        <ele>269.7900000</ele>
        <time>2010-06-17T14:29:22Z</time>
      </trkpt>
      <trkpt lat="49.0068470" lon="8.8626780">
        <ele>269.7900000</ele>
        <time>2010-06-17T14:29:23Z</time>
      </trkpt>
      <trkpt lat="49.0068080" lon="8.8626800">
        <ele>270.2700000</ele>
        <time>2010-06-17T14:29:24Z</time>
      </trkpt>
      <trkpt lat="49.0067670" lon="8.8626850">
        <ele>270.2700000</ele>
        <time>2010-06-17T14:29:25Z</time>
      </trkpt>
      <trkpt lat="49.0066810" lon="8.8626790">
        <ele>270.7500000</ele>
        <time>2010-06-17T14:29:27Z</time>
      </trkpt>
      <trkpt lat="49.0062930" lon="8.8626040">
        <ele>272.6700000</ele>
        <time>2010-06-17T14:29:37Z</time>
      </trkpt>
      <trkpt lat="49.0062650" lon="8.8625510">
        <ele>272.1900000</ele>
        <time>2010-06-17T14:29:38Z</time>
      </trkpt>
      <trkpt lat="49.0062440" lon="8.8624910">
        <ele>272.6700000</ele>
        <time>2010-06-17T14:29:39Z</time>
      </trkpt>
      <trkpt lat="49.0061320" lon="8.8620020">
        <ele>272.6700000</ele>
        <time>2010-06-17T14:29:46Z</time>
      </trkpt>
      <trkpt lat="49.0061220" lon="8.8619230">
        <ele>272.1900000</ele>
        <time>2010-06-17T14:29:47Z</time>
      </trkpt>
      <trkpt lat="49.0061190" lon="8.8618430">
        <ele>272.1900000</ele>
        <time>2010-06-17T14:29:48Z</time>
      </trkpt>
      <trkpt lat="49.0061220" lon="8.8617600">
        <ele>271.7100000</ele>
        <time>2010-06-17T14:29:49Z</time>
      </trkpt>
      <trkpt lat="49.0061290" lon="8.8616720">
        <ele>271.7100000</ele>
        <time>2010-06-17T14:29:50Z</time>
      </trkpt>
      <trkpt lat="49.0062260" lon="8.8607120">
        <ele>268.8300000</ele>
        <time>2010-06-17T14:29:59Z</time>
      </trkpt>
      <trkpt lat="49.0062860" lon="8.8600710">
        <ele>265.4600000</ele>
        <time>2010-06-17T14:30:04Z</time>
      </trkpt>
      <trkpt lat="49.0063000" lon="8.8597910">
        <ele>264.5000000</ele>
        <time>2010-06-17T14:30:06Z</time>
      </trkpt>
      <trkpt lat="49.0062940" lon="8.8596520">
        <ele>263.5400000</ele>
        <time>2010-06-17T14:30:07Z</time>
      </trkpt>
      <trkpt lat="49.0062800" lon="8.8595270">
        <ele>263.0600000</ele>
        <time>2010-06-17T14:30:08Z</time>
      </trkpt>
      <trkpt lat="49.0062620" lon="8.8594290">
        <ele>263.0600000</ele>
        <time>2010-06-17T14:30:09Z</time>
      </trkpt>
      <trkpt lat="49.0061620" lon="8.8590120">
        <ele>263.0600000</ele>
        <time>2010-06-17T14:30:16Z</time>
      </trkpt>
      <trkpt lat="49.0061620" lon="8.8589460">
        <ele>263.0600000</ele>
        <time>2010-06-17T14:30:17Z</time>
      </trkpt>
      <trkpt lat="49.0061650" lon="8.8588800">
        <ele>263.5400000</ele>
        <time>2010-06-17T14:30:18Z</time>
      </trkpt>
      <trkpt lat="49.0061730" lon="8.8588150">
        <ele>263.5400000</ele>
        <time>2010-06-17T14:30:19Z</time>
      </trkpt>
      <trkpt lat="49.0061830" lon="8.8587530">
        <ele>263.0600000</ele>
        <time>2010-06-17T14:30:20Z</time>
      </trkpt>
      <trkpt lat="49.0063170" lon="8.8580570">
        <ele>264.0200000</ele>
        <time>2010-06-17T14:30:33Z</time>
      </trkpt>
      <trkpt lat="49.0063150" lon="8.8580240">
        <ele>263.5400000</ele>
        <time>2010-06-17T14:30:34Z</time>
      </trkpt>
      <trkpt lat="49.0063060" lon="8.8579850">
        <ele>263.5400000</ele>
        <time>2010-06-17T14:30:35Z</time>
      </trkpt>
      <trkpt lat="49.0062890" lon="8.8579470">
        <ele>264.0200000</ele>
        <time>2010-06-17T14:30:36Z</time>
      </trkpt>
      <trkpt lat="49.0062650" lon="8.8579140">
        <ele>263.5400000</ele>
        <time>2010-06-17T14:30:37Z</time>
      </trkpt>
      <trkpt lat="49.0062370" lon="8.8578850">
        <ele>263.5400000</ele>
        <time>2010-06-17T14:30:38Z</time>
      </trkpt>
      <trkpt lat="49.0062060" lon="8.8578620">
        <ele>264.0200000</ele>
        <time>2010-06-17T14:30:39Z</time>
      </trkpt>
      <trkpt lat="49.0061720" lon="8.8578420">
        <ele>264.0200000</ele>
        <time>2010-06-17T14:30:40Z</time>
      </trkpt>
      <trkpt lat="49.0057140" lon="8.8574910">
        <ele>266.4200000</ele>
        <time>2010-06-17T14:30:54Z</time>
      </trkpt>
      <trkpt lat="49.0053500" lon="8.8572250">
        <ele>268.8300000</ele>
        <time>2010-06-17T14:31:09Z</time>
      </trkpt>
      <trkpt lat="49.0053410" lon="8.8571860">
        <ele>268.8300000</ele>
        <time>2010-06-17T14:31:10Z</time>
      </trkpt>
      <trkpt lat="49.0053390" lon="8.8571490">
        <ele>269.3100000</ele>
        <time>2010-06-17T14:31:11Z</time>
      </trkpt>
      <trkpt lat="49.0053370" lon="8.8571080">
        <ele>269.3100000</ele>
        <time>2010-06-17T14:31:12Z</time>
      </trkpt>
      <trkpt lat="49.0053410" lon="8.8570600">
        <ele>269.7900000</ele>
        <time>2010-06-17T14:31:13Z</time>
      </trkpt>
      <trkpt lat="49.0053400" lon="8.8570130">
        <ele>269.7900000</ele>
        <time>2010-06-17T14:31:14Z</time>
      </trkpt>
      <trkpt lat="49.0053360" lon="8.8569690">
        <ele>269.7900000</ele>
        <time>2010-06-17T14:31:15Z</time>
      </trkpt>
      <trkpt lat="49.0053800" lon="8.8562730">
        <ele>272.1900000</ele>
        <time>2010-06-17T14:31:29Z</time>
      </trkpt>
      <trkpt lat="49.0054800" lon="8.8556610">
        <ele>273.6300000</ele>
        <time>2010-06-17T14:31:43Z</time>
      </trkpt>
      <trkpt lat="49.0052890" lon="8.8550450">
        <ele>272.6700000</ele>
        <time>2010-06-17T14:31:56Z</time>
      </trkpt>
      <trkpt lat="49.0050690" lon="8.8540640">
        <ele>273.1500000</ele>
        <time>2010-06-17T14:32:11Z</time>
      </trkpt>
      <trkpt lat="49.0049450" lon="8.8527100">
        <ele>273.6300000</ele>
        <time>2010-06-17T14:32:30Z</time>
      </trkpt>
      <trkpt lat="49.0048730" lon="8.8512880">
        <ele>276.0400000</ele>
        <time>2010-06-17T14:32:49Z</time>
      </trkpt>
      <trkpt lat="49.0049580" lon="8.8503600">
        <ele>277.4800000</ele>
        <time>2010-06-17T14:33:02Z</time>
      </trkpt>
      <trkpt lat="49.0051460" lon="8.8490840">
        <ele>279.8800000</ele>
        <time>2010-06-17T14:33:21Z</time>
      </trkpt>
      <trkpt lat="49.0053810" lon="8.8478580">
        <ele>280.8400000</ele>
        <time>2010-06-17T14:33:40Z</time>
      </trkpt>
      <trkpt lat="49.0055220" lon="8.8463980">
        <ele>281.3200000</ele>
        <time>2010-06-17T14:34:01Z</time>
      </trkpt>
      <trkpt lat="49.0055500" lon="8.8449570">
        <ele>284.2100000</ele>
        <time>2010-06-17T14:34:22Z</time>
      </trkpt>
      <trkpt lat="49.0055920" lon="8.8434950">
        <ele>285.1700000</ele>
        <time>2010-06-17T14:34:43Z</time>
      </trkpt>
      <trkpt lat="49.0054960" lon="8.8421390">
        <ele>285.1700000</ele>
        <time>2010-06-17T14:35:00Z</time>
      </trkpt>
      <trkpt lat="49.0053980" lon="8.8404600">
        <ele>286.1300000</ele>
        <time>2010-06-17T14:35:21Z</time>
      </trkpt>
      <trkpt lat="49.0054030" lon="8.8391400">
        <ele>289.0100000</ele>
        <time>2010-06-17T14:35:40Z</time>
      </trkpt>
      <trkpt lat="49.0053460" lon="8.8380990">
        <ele>291.9000000</ele>
        <time>2010-06-17T14:35:58Z</time>
      </trkpt>
      <trkpt lat="49.0051090" lon="8.8372870">
        <ele>293.3400000</ele>
        <time>2010-06-17T14:36:15Z</time>
      </trkpt>
      <trkpt lat="49.0049800" lon="8.8364570">
        <ele>293.8200000</ele>
        <time>2010-06-17T14:36:30Z</time>
      </trkpt>
      <trkpt lat="49.0048190" lon="8.8350950">
        <ele>294.7800000</ele>
        <time>2010-06-17T14:36:50Z</time>
      </trkpt>
      <trkpt lat="49.0046520" lon="8.8336810">
        <ele>295.2600000</ele>
        <time>2010-06-17T14:37:09Z</time>
      </trkpt>
      <trkpt lat="49.0044570" lon="8.8320160">
        <ele>297.1800000</ele>
        <time>2010-06-17T14:37:32Z</time>
      </trkpt>
      <trkpt lat="49.0042900" lon="8.8306260">
        <ele>296.7000000</ele>
        <time>2010-06-17T14:37:51Z</time>
      </trkpt>
      <trkpt lat="49.0042650" lon="8.8305750">
        <ele>296.7000000</ele>
        <time>2010-06-17T14:37:52Z</time>
      </trkpt>
      <trkpt lat="49.0042290" lon="8.8305430">
        <ele>296.7000000</ele>
        <time>2010-06-17T14:37:53Z</time>
      </trkpt>
      <trkpt lat="49.0041860" lon="8.8305350">
        <ele>296.7000000</ele>
        <time>2010-06-17T14:37:54Z</time>
      </trkpt>
      <trkpt lat="49.0041410" lon="8.8305440">
        <ele>297.1800000</ele>
        <time>2010-06-17T14:37:55Z</time>
      </trkpt>
      <trkpt lat="49.0040960" lon="8.8305560">
        <ele>296.7000000</ele>
        <time>2010-06-17T14:37:56Z</time>
      </trkpt>
      <trkpt lat="49.0035190" lon="8.8306850">
        <ele>297.6700000</ele>
        <time>2010-06-17T14:38:09Z</time>
      </trkpt>
      <trkpt lat="49.0034730" lon="8.8306840">
        <ele>297.1800000</ele>
        <time>2010-06-17T14:38:10Z</time>
      </trkpt>
      <trkpt lat="49.0026660" lon="8.8306720">
        <ele>296.7000000</ele>
        <time>2010-06-17T14:38:27Z</time>
      </trkpt>
      <trkpt lat="49.0018970" lon="8.8305540">
        <ele>297.1800000</ele>
        <time>2010-06-17T14:38:42Z</time>
      </trkpt>
      <trkpt lat="49.0012510" lon="8.8304880">
        <ele>297.6700000</ele>
        <time>2010-06-17T14:38:55Z</time>
      </trkpt>
      <trkpt lat="49.0012200" lon="8.8304550">
        <ele>297.6700000</ele>
        <time>2010-06-17T14:38:56Z</time>
      </trkpt>
      <trkpt lat="49.0011970" lon="8.8304070">
        <ele>297.6700000</ele>
        <time>2010-06-17T14:38:57Z</time>
      </trkpt>
      <trkpt lat="49.0011820" lon="8.8303480">
        <ele>297.1800000</ele>
        <time>2010-06-17T14:38:58Z</time>
      </trkpt>
      <trkpt lat="49.0009860" lon="8.8292260">
        <ele>299.5900000</ele>
        <time>2010-06-17T14:39:15Z</time>
      </trkpt>
      <trkpt lat="49.0006120" lon="8.8279200">
        <ele>297.6700000</ele>
        <time>2010-06-17T14:39:33Z</time>
      </trkpt>
      <trkpt lat="49.0002030" lon="8.8267000">
        <ele>296.7000000</ele>
        <time>2010-06-17T14:39:49Z</time>
      </trkpt>
      <trkpt lat="48.9998980" lon="8.8256320">
        <ele>294.7800000</ele>
        <time>2010-06-17T14:40:03Z</time>
      </trkpt>
      <trkpt lat="48.9998630" lon="8.8255470">
        <ele>294.7800000</ele>
        <time>2010-06-17T14:40:04Z</time>
      </trkpt>
      <trkpt lat="48.9994330" lon="8.8245070">
        <ele>291.4200000</ele>
        <time>2010-06-17T14:40:16Z</time>
      </trkpt>
      <trkpt lat="48.9993330" lon="8.8243020">
        <ele>290.9400000</ele>
        <time>2010-06-17T14:40:19Z</time>
      </trkpt>
      <trkpt lat="48.9993110" lon="8.8240180">
        <ele>290.4600000</ele>
        <time>2010-06-17T14:40:23Z</time>
      </trkpt>
      <trkpt lat="48.9993970" lon="8.8227480">
        <ele>287.0900000</ele>
        <time>2010-06-17T14:40:36Z</time>
      </trkpt>
      <trkpt lat="48.9994120" lon="8.8225210">
        <ele>286.1300000</ele>
        <time>2010-06-17T14:40:38Z</time>
      </trkpt>
      <trkpt lat="48.9994540" lon="8.8217200">
        <ele>282.7700000</ele>
        <time>2010-06-17T14:40:44Z</time>
      </trkpt>
      <trkpt lat="48.9995300" lon="8.8209940">
        <ele>279.4000000</ele>
        <time>2010-06-17T14:40:49Z</time>
      </trkpt>
      <trkpt lat="48.9996620" lon="8.8203690">
        <ele>276.0400000</ele>
        <time>2010-06-17T14:40:53Z</time>
      </trkpt>
      <trkpt lat="48.9998230" lon="8.8197270">
        <ele>272.6700000</ele>
        <time>2010-06-17T14:40:57Z</time>
      </trkpt>
      <trkpt lat="48.9999480" lon="8.8192300">
        <ele>271.2300000</ele>
        <time>2010-06-17T14:41:00Z</time>
      </trkpt>
      <trkpt lat="49.0001480" lon="8.8184470">
        <ele>269.3100000</ele>
        <time>2010-06-17T14:41:05Z</time>
      </trkpt>
      <trkpt lat="49.0001750" lon="8.8182920">
        <ele>268.8300000</ele>
        <time>2010-06-17T14:41:06Z</time>
      </trkpt>
      <trkpt lat="49.0003010" lon="8.8162780">
        <ele>266.4200000</ele>
        <time>2010-06-17T14:41:20Z</time>
      </trkpt>
      <trkpt lat="49.0003630" lon="8.8147320">
        <ele>264.5000000</ele>
        <time>2010-06-17T14:41:33Z</time>
      </trkpt>
      <trkpt lat="49.0003780" lon="8.8146490">
        <ele>264.0200000</ele>
        <time>2010-06-17T14:41:34Z</time>
      </trkpt>
      <trkpt lat="49.0004100" lon="8.8145800">
        <ele>264.5000000</ele>
        <time>2010-06-17T14:41:35Z</time>
      </trkpt>
      <trkpt lat="49.0004360" lon="8.8145100">
        <ele>264.5000000</ele>
        <time>2010-06-17T14:41:36Z</time>
      </trkpt>
      <trkpt lat="49.0004350" lon="8.8144330">
        <ele>264.5000000</ele>
        <time>2010-06-17T14:41:37Z</time>
      </trkpt>
      <trkpt lat="49.0004140" lon="8.8143610">
        <ele>264.5000000</ele>
        <time>2010-06-17T14:41:38Z</time>
      </trkpt>
      <trkpt lat="49.0003930" lon="8.8142830">
        <ele>264.0200000</ele>
        <time>2010-06-17T14:41:39Z</time>
      </trkpt>
      <trkpt lat="49.0003770" lon="8.8141990">
        <ele>264.0200000</ele>
        <time>2010-06-17T14:41:40Z</time>
      </trkpt>
      <trkpt lat="49.0003680" lon="8.8141140">
        <ele>264.0200000</ele>
        <time>2010-06-17T14:41:41Z</time>
      </trkpt>
      <trkpt lat="49.0003630" lon="8.8140280">
        <ele>264.0200000</ele>
        <time>2010-06-17T14:41:42Z</time>
      </trkpt>
      <trkpt lat="49.0003700" lon="8.8135100">
        <ele>264.0200000</ele>
        <time>2010-06-17T14:41:51Z</time>
      </trkpt>
      <trkpt lat="49.0003780" lon="8.8134900">
        <ele>264.0200000</ele>
        <time>2010-06-17T14:41:52Z</time>
      </trkpt>
      <trkpt lat="49.0003780" lon="8.8134480">
        <ele>264.0200000</ele>
        <time>2010-06-17T14:42:11Z</time>
      </trkpt>
      <trkpt lat="49.0004610" lon="8.8132210">
        <ele>261.6200000</ele>
        <time>2010-06-17T14:42:25Z</time>
      </trkpt>
      <trkpt lat="49.0005740" lon="8.8129480">
        <ele>258.7300000</ele>
        <time>2010-06-17T14:42:29Z</time>
      </trkpt>
      <trkpt lat="49.0006000" lon="8.8128690">
        <ele>257.7700000</ele>
        <time>2010-06-17T14:42:30Z</time>
      </trkpt>
      <trkpt lat="49.0006220" lon="8.8127880">
        <ele>257.2900000</ele>
        <time>2010-06-17T14:42:31Z</time>
      </trkpt>
      <trkpt lat="49.0006580" lon="8.8125680">
        <ele>254.8900000</ele>
        <time>2010-06-17T14:42:34Z</time>
      </trkpt>
      <trkpt lat="49.0006530" lon="8.8124990">
        <ele>254.4100000</ele>
        <time>2010-06-17T14:42:35Z</time>
      </trkpt>
      <trkpt lat="49.0006570" lon="8.8124200">
        <ele>254.4100000</ele>
        <time>2010-06-17T14:42:36Z</time>
      </trkpt>
      <trkpt lat="49.0006670" lon="8.8123440">
        <ele>254.4100000</ele>
        <time>2010-06-17T14:42:37Z</time>
      </trkpt>
      <trkpt lat="49.0006820" lon="8.8122750">
        <ele>253.9300000</ele>
        <time>2010-06-17T14:42:38Z</time>
      </trkpt>
      <trkpt lat="49.0007220" lon="8.8120840">
        <ele>253.9300000</ele>
        <time>2010-06-17T14:42:41Z</time>
      </trkpt>
      <trkpt lat="49.0007410" lon="8.8120280">
        <ele>253.9300000</ele>
        <time>2010-06-17T14:42:42Z</time>
      </trkpt>
      <trkpt lat="49.0007650" lon="8.8119800">
        <ele>253.9300000</ele>
        <time>2010-06-17T14:42:43Z</time>
      </trkpt>
      <trkpt lat="49.0008020" lon="8.8119340">
        <ele>253.4400000</ele>
        <time>2010-06-17T14:42:44Z</time>
      </trkpt>
      <trkpt lat="49.0008450" lon="8.8118900">
        <ele>253.4400000</ele>
        <time>2010-06-17T14:42:45Z</time>
      </trkpt>
      <trkpt lat="49.0009350" lon="8.8118490">
        <ele>252.9600000</ele>
        <time>2010-06-17T14:42:47Z</time>
      </trkpt>
      <trkpt lat="49.0009840" lon="8.8118370">
        <ele>252.4800000</ele>
        <time>2010-06-17T14:42:48Z</time>
      </trkpt>
      <trkpt lat="49.0010320" lon="8.8118280">
        <ele>252.4800000</ele>
        <time>2010-06-17T14:42:49Z</time>
      </trkpt>
      <trkpt lat="49.0010760" lon="8.8118300">
        <ele>252.9600000</ele>
        <time>2010-06-17T14:42:50Z</time>
      </trkpt>
      <trkpt lat="49.0011150" lon="8.8118390">
        <ele>252.9600000</ele>
        <time>2010-06-17T14:42:51Z</time>
      </trkpt>
      <trkpt lat="49.0011500" lon="8.8118380">
        <ele>252.9600000</ele>
        <time>2010-06-17T14:42:52Z</time>
      </trkpt>
      <trkpt lat="49.0012080" lon="8.8117460">
        <ele>252.9600000</ele>
        <time>2010-06-17T14:42:58Z</time>
      </trkpt>
      <trkpt lat="49.0011700" lon="8.8117190">
        <ele>255.8500000</ele>
        <time>2010-06-17T15:27:42Z</time>
      </trkpt>
      <trkpt lat="49.0011660" lon="8.8117280">
        <ele>253.9300000</ele>
        <time>2010-06-17T15:28:22Z</time>
      </trkpt>
      <trkpt lat="49.0011600" lon="8.8117300">
        <ele>255.8500000</ele>
        <time>2010-06-17T15:29:08Z</time>
      </trkpt>
      <trkpt lat="49.0011260" lon="8.8117830">
        <ele>255.8500000</ele>
        <time>2010-06-17T15:29:12Z</time>
      </trkpt>
      <trkpt lat="49.0009320" lon="8.8117960">
        <ele>255.8500000</ele>
        <time>2010-06-17T15:29:21Z</time>
      </trkpt>
      <trkpt lat="49.0007910" lon="8.8116200">
        <ele>255.8500000</ele>
        <time>2010-06-17T15:29:27Z</time>
      </trkpt>
      <trkpt lat="49.0004530" lon="8.8112090">
        <ele>256.8100000</ele>
        <time>2010-06-17T15:29:41Z</time>
      </trkpt>
      <trkpt lat="49.0002280" lon="8.8108630">
        <ele>258.2500000</ele>
        <time>2010-06-17T15:29:54Z</time>
      </trkpt>
      <trkpt lat="49.0001700" lon="8.8107550">
        <ele>259.2100000</ele>
        <time>2010-06-17T15:29:59Z</time>
      </trkpt>
      <trkpt lat="49.0000200" lon="8.8104380">
        <ele>259.6900000</ele>
        <time>2010-06-17T15:30:11Z</time>
      </trkpt>
      <trkpt lat="48.9999860" lon="8.8103530">
        <ele>260.6500000</ele>
        <time>2010-06-17T15:30:14Z</time>
      </trkpt>
      <trkpt lat="48.9998620" lon="8.8101130">
        <ele>261.1400000</ele>
        <time>2010-06-17T15:30:26Z</time>
      </trkpt>
      <trkpt lat="48.9998250" lon="8.8100450">
        <ele>261.6200000</ele>
        <time>2010-06-17T15:30:35Z</time>
      </trkpt>
      <trkpt lat="48.9998060" lon="8.8100040">
        <ele>261.6200000</ele>
        <time>2010-06-17T15:30:38Z</time>
      </trkpt>
      <trkpt lat="48.9997630" lon="8.8099340">
        <ele>262.5800000</ele>
        <time>2010-06-17T15:30:44Z</time>
      </trkpt>
      <trkpt lat="48.9996350" lon="8.8097140">
        <ele>263.0600000</ele>
        <time>2010-06-17T15:30:53Z</time>
      </trkpt>
      <trkpt lat="48.9995630" lon="8.8096680">
        <ele>263.5400000</ele>
        <time>2010-06-17T15:31:06Z</time>
      </trkpt>
      <trkpt lat="48.9995630" lon="8.8096680">
        <ele>260.6500000</ele>
        <time>2010-06-17T15:31:33Z</time>
      </trkpt>
      <trkpt lat="48.9995570" lon="8.8096620">
        <ele>262.5800000</ele>
        <time>2010-06-17T15:32:53Z</time>
      </trkpt>
      <trkpt lat="48.9995490" lon="8.8096580">
        <ele>263.5400000</ele>
        <time>2010-06-17T15:34:28Z</time>
      </trkpt>
      <trkpt lat="48.9994890" lon="8.8093860">
        <ele>263.5400000</ele>
        <time>2010-06-17T15:34:38Z</time>
      </trkpt>
      <trkpt lat="48.9992030" lon="8.8086550">
        <ele>263.5400000</ele>
        <time>2010-06-17T15:34:55Z</time>
      </trkpt>
      <trkpt lat="48.9991490" lon="8.8085370">
        <ele>263.0600000</ele>
        <time>2010-06-17T15:34:57Z</time>
      </trkpt>
      <trkpt lat="48.9987990" lon="8.8074930">
        <ele>261.1400000</ele>
        <time>2010-06-17T15:35:11Z</time>
      </trkpt>
      <trkpt lat="48.9983010" lon="8.8058120">
        <ele>258.2500000</ele>
        <time>2010-06-17T15:35:30Z</time>
      </trkpt>
      <trkpt lat="48.9982120" lon="8.8053630">
        <ele>257.2900000</ele>
        <time>2010-06-17T15:35:36Z</time>
      </trkpt>
      <trkpt lat="48.9981320" lon="8.8051290">
        <ele>257.2900000</ele>
        <time>2010-06-17T15:35:40Z</time>
      </trkpt>
      <trkpt lat="48.9980330" lon="8.8047830">
        <ele>256.3300000</ele>
        <time>2010-06-17T15:35:45Z</time>
      </trkpt>
      <trkpt lat="48.9975840" lon="8.8032260">
        <ele>253.9300000</ele>
        <time>2010-06-17T15:36:03Z</time>
      </trkpt>
      <trkpt lat="48.9973100" lon="8.8022530">
        <ele>252.4800000</ele>
        <time>2010-06-17T15:36:14Z</time>
      </trkpt>
      <trkpt lat="48.9971420" lon="8.8018730">
        <ele>252.0000000</ele>
        <time>2010-06-17T15:36:19Z</time>
      </trkpt>
      <trkpt lat="48.9970120" lon="8.8014440">
        <ele>251.0400000</ele>
        <time>2010-06-17T15:36:28Z</time>
      </trkpt>
      <trkpt lat="48.9968340" lon="8.8007330">
        <ele>249.6000000</ele>
        <time>2010-06-17T15:36:42Z</time>
      </trkpt>
      <trkpt lat="48.9965990" lon="8.7997740">
        <ele>248.6400000</ele>
        <time>2010-06-17T15:36:55Z</time>
      </trkpt>
      <trkpt lat="48.9963780" lon="8.7989150">
        <ele>245.2700000</ele>
        <time>2010-06-17T15:37:07Z</time>
      </trkpt>
      <trkpt lat="48.9961620" lon="8.7981450">
        <ele>244.3100000</ele>
        <time>2010-06-17T15:37:20Z</time>
      </trkpt>
      <trkpt lat="48.9959230" lon="8.7972220">
        <ele>243.3500000</ele>
        <time>2010-06-17T15:37:34Z</time>
      </trkpt>
      <trkpt lat="48.9957250" lon="8.7969650">
        <ele>242.8700000</ele>
        <time>2010-06-17T15:37:46Z</time>
      </trkpt>
      <trkpt lat="48.9954200" lon="8.7970970">
        <ele>244.3100000</ele>
        <time>2010-06-17T15:37:56Z</time>
      </trkpt>
      <trkpt lat="48.9950280" lon="8.7966790">
        <ele>247.2000000</ele>
        <time>2010-06-17T15:38:11Z</time>
      </trkpt>
      <trkpt lat="48.9945220" lon="8.7961550">
        <ele>249.1200000</ele>
        <time>2010-06-17T15:38:29Z</time>
      </trkpt>
      <trkpt lat="48.9940530" lon="8.7957450">
        <ele>250.0800000</ele>
        <time>2010-06-17T15:38:44Z</time>
      </trkpt>
      <trkpt lat="48.9936380" lon="8.7954470">
        <ele>251.5200000</ele>
        <time>2010-06-17T15:38:57Z</time>
      </trkpt>
      <trkpt lat="48.9931210" lon="8.7951810">
        <ele>252.4800000</ele>
        <time>2010-06-17T15:39:13Z</time>
      </trkpt>
      <trkpt lat="48.9927050" lon="8.7949810">
        <ele>253.4400000</ele>
        <time>2010-06-17T15:39:27Z</time>
      </trkpt>
      <trkpt lat="48.9924370" lon="8.7948180">
        <ele>254.8900000</ele>
        <time>2010-06-17T15:39:37Z</time>
      </trkpt>
      <trkpt lat="48.9920480" lon="8.7946180">
        <ele>255.8500000</ele>
        <time>2010-06-17T15:39:50Z</time>
      </trkpt>
      <trkpt lat="48.9915860" lon="8.7943130">
        <ele>257.2900000</ele>
        <time>2010-06-17T15:40:03Z</time>
      </trkpt>
      <trkpt lat="48.9910010" lon="8.7938000">
        <ele>257.7700000</ele>
        <time>2010-06-17T15:40:16Z</time>
      </trkpt>
      <trkpt lat="48.9907160" lon="8.7931670">
        <ele>259.2100000</ele>
        <time>2010-06-17T15:40:29Z</time>
      </trkpt>
      <trkpt lat="48.9906110" lon="8.7924390">
        <ele>260.1700000</ele>
        <time>2010-06-17T15:40:43Z</time>
      </trkpt>
      <trkpt lat="48.9905270" lon="8.7918340">
        <ele>261.6200000</ele>
        <time>2010-06-17T15:40:54Z</time>
      </trkpt>
      <trkpt lat="48.9903490" lon="8.7909280">
        <ele>263.5400000</ele>
        <time>2010-06-17T15:41:11Z</time>
      </trkpt>
      <trkpt lat="48.9900650" lon="8.7900020">
        <ele>264.9800000</ele>
        <time>2010-06-17T15:41:30Z</time>
      </trkpt>
      <trkpt lat="48.9899420" lon="8.7894130">
        <ele>265.4600000</ele>
        <time>2010-06-17T15:41:43Z</time>
      </trkpt>
      <trkpt lat="48.9897990" lon="8.7889110">
        <ele>266.9000000</ele>
        <time>2010-06-17T15:41:55Z</time>
      </trkpt>
      <trkpt lat="48.9896030" lon="8.7883290">
        <ele>267.3800000</ele>
        <time>2010-06-17T15:42:09Z</time>
      </trkpt>
      <trkpt lat="48.9895970" lon="8.7883210">
        <ele>267.3800000</ele>
        <time>2010-06-17T15:42:36Z</time>
      </trkpt>
      <trkpt lat="48.9895700" lon="8.7882770">
        <ele>267.8600000</ele>
        <time>2010-06-17T15:43:02Z</time>
      </trkpt>
      <trkpt lat="48.9894540" lon="8.7878920">
        <ele>268.8300000</ele>
        <time>2010-06-17T15:43:12Z</time>
      </trkpt>
      <trkpt lat="48.9892120" lon="8.7871000">
        <ele>269.7900000</ele>
        <time>2010-06-17T15:43:27Z</time>
      </trkpt>
      <trkpt lat="48.9890550" lon="8.7866000">
        <ele>270.7500000</ele>
        <time>2010-06-17T15:43:37Z</time>
      </trkpt>
      <trkpt lat="48.9889200" lon="8.7860180">
        <ele>271.2300000</ele>
        <time>2010-06-17T15:43:48Z</time>
      </trkpt>
      <trkpt lat="48.9888260" lon="8.7853220">
        <ele>272.6700000</ele>
        <time>2010-06-17T15:44:01Z</time>
      </trkpt>
      <trkpt lat="48.9887630" lon="8.7845040">
        <ele>274.1100000</ele>
        <time>2010-06-17T15:44:16Z</time>
      </trkpt>
      <trkpt lat="48.9886770" lon="8.7835970">
        <ele>275.5600000</ele>
        <time>2010-06-17T15:44:33Z</time>
      </trkpt>
      <trkpt lat="48.9885680" lon="8.7828160">
        <ele>277.9600000</ele>
        <time>2010-06-17T15:44:48Z</time>
      </trkpt>
      <trkpt lat="48.9884450" lon="8.7818100">
        <ele>278.4400000</ele>
        <time>2010-06-17T15:45:07Z</time>
      </trkpt>
      <trkpt lat="48.9883000" lon="8.7808630">
        <ele>279.4000000</ele>
        <time>2010-06-17T15:45:24Z</time>
      </trkpt>
      <trkpt lat="48.9881540" lon="8.7798350">
        <ele>278.9200000</ele>
        <time>2010-06-17T15:45:38Z</time>
      </trkpt>
      <trkpt lat="48.9881150" lon="8.7794090">
        <ele>278.4400000</ele>
        <time>2010-06-17T15:45:43Z</time>
      </trkpt>
      <trkpt lat="48.9879930" lon="8.7781220">
        <ele>279.8800000</ele>
        <time>2010-06-17T15:45:59Z</time>
      </trkpt>
      <trkpt lat="48.9878660" lon="8.7766610">
        <ele>279.8800000</ele>
        <time>2010-06-17T15:46:17Z</time>
      </trkpt>
      <trkpt lat="48.9877740" lon="8.7753210">
        <ele>277.0000000</ele>
        <time>2010-06-17T15:46:30Z</time>
      </trkpt>
      <trkpt lat="48.9876430" lon="8.7735890">
        <ele>277.0000000</ele>
        <time>2010-06-17T15:46:45Z</time>
      </trkpt>
      <trkpt lat="48.9877750" lon="8.7720940">
        <ele>278.9200000</ele>
        <time>2010-06-17T15:47:02Z</time>
      </trkpt>
      <trkpt lat="48.9878380" lon="8.7714980">
        <ele>278.9200000</ele>
        <time>2010-06-17T15:47:09Z</time>
      </trkpt>
      <trkpt lat="48.9879390" lon="8.7707860">
        <ele>278.4400000</ele>
        <time>2010-06-17T15:47:17Z</time>
      </trkpt>
      <trkpt lat="48.9884460" lon="8.7695330">
        <ele>275.5600000</ele>
        <time>2010-06-17T15:47:31Z</time>
      </trkpt>
      <trkpt lat="48.9889580" lon="8.7689160">
        <ele>274.1100000</ele>
        <time>2010-06-17T15:47:40Z</time>
      </trkpt>
      <trkpt lat="48.9890700" lon="8.7687750">
        <ele>274.1100000</ele>
        <time>2010-06-17T15:47:42Z</time>
      </trkpt>
      <trkpt lat="48.9893400" lon="8.7681310">
        <ele>272.6700000</ele>
        <time>2010-06-17T15:47:49Z</time>
      </trkpt>
      <trkpt lat="48.9893860" lon="8.7669300">
        <ele>269.3100000</ele>
        <time>2010-06-17T15:47:59Z</time>
      </trkpt>
      <trkpt lat="48.9891630" lon="8.7658760">
        <ele>266.4200000</ele>
        <time>2010-06-17T15:48:07Z</time>
      </trkpt>
      <trkpt lat="48.9886810" lon="8.7641440">
        <ele>264.0200000</ele>
        <time>2010-06-17T15:48:21Z</time>
      </trkpt>
      <trkpt lat="48.9883870" lon="8.7631590">
        <ele>260.6500000</ele>
        <time>2010-06-17T15:48:29Z</time>
      </trkpt>
      <trkpt lat="48.9881360" lon="8.7624580">
        <ele>257.2900000</ele>
        <time>2010-06-17T15:48:34Z</time>
      </trkpt>
      <trkpt lat="48.9880770" lon="8.7623160">
        <ele>257.2900000</ele>
        <time>2010-06-17T15:48:35Z</time>
      </trkpt>
      <trkpt lat="48.9878930" lon="8.7619070">
        <ele>255.3700000</ele>
        <time>2010-06-17T15:48:38Z</time>
      </trkpt>
      <trkpt lat="48.9869920" lon="8.7606830">
        <ele>252.9600000</ele>
        <time>2010-06-17T15:48:50Z</time>
      </trkpt>
      <trkpt lat="48.9861190" lon="8.7601320">
        <ele>254.4100000</ele>
        <time>2010-06-17T15:49:02Z</time>
      </trkpt>
      <trkpt lat="48.9855080" lon="8.7599270">
        <ele>257.2900000</ele>
        <time>2010-06-17T15:49:14Z</time>
      </trkpt>
      <trkpt lat="48.9849970" lon="8.7597580">
        <ele>260.6500000</ele>
        <time>2010-06-17T15:49:28Z</time>
      </trkpt>
      <trkpt lat="48.9844580" lon="8.7595080">
        <ele>263.0600000</ele>
        <time>2010-06-17T15:49:47Z</time>
      </trkpt>
      <trkpt lat="48.9840120" lon="8.7591960">
        <ele>265.4600000</ele>
        <time>2010-06-17T15:50:05Z</time>
      </trkpt>
      <trkpt lat="48.9836010" lon="8.7588530">
        <ele>267.8600000</ele>
        <time>2010-06-17T15:50:23Z</time>
      </trkpt>
      <trkpt lat="48.9833190" lon="8.7585710">
        <ele>269.7900000</ele>
        <time>2010-06-17T15:50:36Z</time>
      </trkpt>
      <trkpt lat="48.9829600" lon="8.7581550">
        <ele>272.1900000</ele>
        <time>2010-06-17T15:50:53Z</time>
      </trkpt>
      <trkpt lat="48.9825620" lon="8.7576470">
        <ele>274.5900000</ele>
        <time>2010-06-17T15:51:12Z</time>
      </trkpt>
      <trkpt lat="48.9821420" lon="8.7570540">
        <ele>276.0400000</ele>
        <time>2010-06-17T15:51:30Z</time>
      </trkpt>
      <trkpt lat="48.9816010" lon="8.7563080">
        <ele>276.0400000</ele>
        <time>2010-06-17T15:51:47Z</time>
      </trkpt>
      <trkpt lat="48.9809150" lon="8.7554530">
        <ele>274.5900000</ele>
        <time>2010-06-17T15:52:02Z</time>
      </trkpt>
      <trkpt lat="48.9807770" lon="8.7552400">
        <ele>273.1500000</ele>
        <time>2010-06-17T15:52:05Z</time>
      </trkpt>
      <trkpt lat="48.9803380" lon="8.7545390">
        <ele>269.7900000</ele>
        <time>2010-06-17T15:52:14Z</time>
      </trkpt>
      <trkpt lat="48.9802400" lon="8.7543530">
        <ele>269.7900000</ele>
        <time>2010-06-17T15:52:16Z</time>
      </trkpt>
      <trkpt lat="48.9802010" lon="8.7542590">
        <ele>269.3100000</ele>
        <time>2010-06-17T15:52:17Z</time>
      </trkpt>
      <trkpt lat="48.9801720" lon="8.7539590">
        <ele>269.3100000</ele>
        <time>2010-06-17T15:52:21Z</time>
      </trkpt>
      <trkpt lat="48.9801780" lon="8.7538320">
        <ele>268.8300000</ele>
        <time>2010-06-17T15:52:26Z</time>
      </trkpt>
      <trkpt lat="48.9797670" lon="8.7539980">
        <ele>269.7900000</ele>
        <time>2010-06-17T15:52:40Z</time>
      </trkpt>
      <trkpt lat="48.9793200" lon="8.7541780">
        <ele>270.2700000</ele>
        <time>2010-06-17T15:52:53Z</time>
      </trkpt>
      <trkpt lat="48.9788030" lon="8.7543750">
        <ele>271.7100000</ele>
        <time>2010-06-17T15:53:08Z</time>
      </trkpt>
      <trkpt lat="48.9782590" lon="8.7544300">
        <ele>273.1500000</ele>
        <time>2010-06-17T15:53:24Z</time>
      </trkpt>
      <trkpt lat="48.9777490" lon="8.7541940">
        <ele>274.5900000</ele>
        <time>2010-06-17T15:53:39Z</time>
      </trkpt>
      <trkpt lat="48.9772920" lon="8.7538850">
        <ele>277.0000000</ele>
        <time>2010-06-17T15:53:53Z</time>
      </trkpt>
      <trkpt lat="48.9768670" lon="8.7534730">
        <ele>278.9200000</ele>
        <time>2010-06-17T15:54:07Z</time>
      </trkpt>
      <trkpt lat="48.9763830" lon="8.7529580">
        <ele>279.4000000</ele>
        <time>2010-06-17T15:54:23Z</time>
      </trkpt>
      <trkpt lat="48.9761960" lon="8.7529080">
        <ele>278.9200000</ele>
        <time>2010-06-17T15:54:28Z</time>
      </trkpt>
      <trkpt lat="48.9760390" lon="8.7527420">
        <ele>280.3600000</ele>
        <time>2010-06-17T15:54:34Z</time>
      </trkpt>
      <trkpt lat="48.9753520" lon="8.7525570">
        <ele>282.2800000</ele>
        <time>2010-06-17T15:54:54Z</time>
      </trkpt>
      <trkpt lat="48.9746100" lon="8.7523660">
        <ele>282.2800000</ele>
        <time>2010-06-17T15:55:10Z</time>
      </trkpt>
      <trkpt lat="48.9737250" lon="8.7521560">
        <ele>282.7700000</ele>
        <time>2010-06-17T15:55:31Z</time>
      </trkpt>
      <trkpt lat="48.9734210" lon="8.7521280">
        <ele>282.7700000</ele>
        <time>2010-06-17T15:55:40Z</time>
      </trkpt>
      <trkpt lat="48.9733720" lon="8.7519510">
        <ele>282.2800000</ele>
        <time>2010-06-17T15:55:44Z</time>
      </trkpt>
      <trkpt lat="48.9731210" lon="8.7515470">
        <ele>283.2500000</ele>
        <time>2010-06-17T15:55:54Z</time>
      </trkpt>
      <trkpt lat="48.9727150" lon="8.7514080">
        <ele>279.4000000</ele>
        <time>2010-06-17T15:56:01Z</time>
      </trkpt>
      <trkpt lat="48.9724350" lon="8.7513760">
        <ele>276.0400000</ele>
        <time>2010-06-17T15:56:04Z</time>
      </trkpt>
      <trkpt lat="48.9721120" lon="8.7513630">
        <ele>273.6300000</ele>
        <time>2010-06-17T15:56:07Z</time>
      </trkpt>
      <trkpt lat="48.9714740" lon="8.7514530">
        <ele>270.7500000</ele>
        <time>2010-06-17T15:56:13Z</time>
      </trkpt>
      <trkpt lat="48.9701420" lon="8.7517350">
        <ele>270.2700000</ele>
        <time>2010-06-17T15:56:28Z</time>
      </trkpt>
      <trkpt lat="48.9690990" lon="8.7519200">
        <ele>266.9000000</ele>
        <time>2010-06-17T15:56:41Z</time>
      </trkpt>
      <trkpt lat="48.9678530" lon="8.7520870">
        <ele>264.0200000</ele>
        <time>2010-06-17T15:56:56Z</time>
      </trkpt>
      <trkpt lat="48.9668090" lon="8.7522800">
        <ele>263.0600000</ele>
        <time>2010-06-17T15:57:11Z</time>
      </trkpt>
      <trkpt lat="48.9653650" lon="8.7525350">
        <ele>262.1000000</ele>
        <time>2010-06-17T15:57:31Z</time>
      </trkpt>
      <trkpt lat="48.9650100" lon="8.7525960">
        <ele>260.1700000</ele>
        <time>2010-06-17T15:57:36Z</time>
      </trkpt>
      <trkpt lat="48.9645590" lon="8.7526890">
        <ele>261.1400000</ele>
        <time>2010-06-17T15:57:43Z</time>
      </trkpt>
      <trkpt lat="48.9644710" lon="8.7527030">
        <ele>261.6200000</ele>
        <time>2010-06-17T15:57:45Z</time>
      </trkpt>
      <trkpt lat="48.9644130" lon="8.7525300">
        <ele>261.6200000</ele>
        <time>2010-06-17T15:57:50Z</time>
      </trkpt>
      <trkpt lat="48.9645630" lon="8.7517200">
        <ele>263.0600000</ele>
        <time>2010-06-17T15:58:05Z</time>
      </trkpt>
      <trkpt lat="48.9645990" lon="8.7513910">
        <ele>262.5800000</ele>
        <time>2010-06-17T15:58:10Z</time>
      </trkpt>
      <trkpt lat="48.9645960" lon="8.7512570">
        <ele>262.5800000</ele>
        <time>2010-06-17T15:58:12Z</time>
      </trkpt>
      <trkpt lat="48.9644280" lon="8.7499440">
        <ele>263.0600000</ele>
        <time>2010-06-17T15:58:32Z</time>
      </trkpt>
      <trkpt lat="48.9642540" lon="8.7485910">
        <ele>264.0200000</ele>
        <time>2010-06-17T15:58:53Z</time>
      </trkpt>
      <trkpt lat="48.9642090" lon="8.7473880">
        <ele>264.9800000</ele>
        <time>2010-06-17T15:59:13Z</time>
      </trkpt>
      <trkpt lat="48.9642060" lon="8.7472220">
        <ele>266.4200000</ele>
        <time>2010-06-17T15:59:16Z</time>
      </trkpt>
      <trkpt lat="48.9641540" lon="8.7458790">
        <ele>268.8300000</ele>
        <time>2010-06-17T15:59:40Z</time>
      </trkpt>
      <trkpt lat="48.9641170" lon="8.7447800">
        <ele>270.7500000</ele>
        <time>2010-06-17T16:00:01Z</time>
      </trkpt>
      <trkpt lat="48.9640830" lon="8.7437990">
        <ele>272.6700000</ele>
        <time>2010-06-17T16:00:20Z</time>
      </trkpt>
      <trkpt lat="48.9640700" lon="8.7430420">
        <ele>274.5900000</ele>
        <time>2010-06-17T16:00:38Z</time>
      </trkpt>
      <trkpt lat="48.9640540" lon="8.7423900">
        <ele>277.4800000</ele>
        <time>2010-06-17T16:00:55Z</time>
      </trkpt>
      <trkpt lat="48.9640540" lon="8.7417620">
        <ele>279.8800000</ele>
        <time>2010-06-17T16:01:13Z</time>
      </trkpt>
      <trkpt lat="48.9640390" lon="8.7411870">
        <ele>282.2800000</ele>
        <time>2010-06-17T16:01:31Z</time>
      </trkpt>
      <trkpt lat="48.9640350" lon="8.7406150">
        <ele>285.1700000</ele>
        <time>2010-06-17T16:01:51Z</time>
      </trkpt>
      <trkpt lat="48.9640340" lon="8.7401470">
        <ele>287.0900000</ele>
        <time>2010-06-17T16:02:08Z</time>
      </trkpt>
      <trkpt lat="48.9640280" lon="8.7397330">
        <ele>290.4600000</ele>
        <time>2010-06-17T16:02:26Z</time>
      </trkpt>
      <trkpt lat="48.9640130" lon="8.7393860">
        <ele>292.8600000</ele>
        <time>2010-06-17T16:02:43Z</time>
      </trkpt>
      <trkpt lat="48.9640040" lon="8.7390990">
        <ele>295.2600000</ele>
        <time>2010-06-17T16:02:58Z</time>
      </trkpt>
      <trkpt lat="48.9639650" lon="8.7387670">
        <ele>297.6700000</ele>
        <time>2010-06-17T16:03:15Z</time>
      </trkpt>
      <trkpt lat="48.9639600" lon="8.7386860">
        <ele>298.6300000</ele>
        <time>2010-06-17T16:03:19Z</time>
      </trkpt>
      <trkpt lat="48.9639660" lon="8.7385330">
        <ele>300.0700000</ele>
        <time>2010-06-17T16:03:26Z</time>
      </trkpt>
      <trkpt lat="48.9639440" lon="8.7382960">
        <ele>301.9900000</ele>
        <time>2010-06-17T16:03:38Z</time>
      </trkpt>
      <trkpt lat="48.9639050" lon="8.7379760">
        <ele>303.4300000</ele>
        <time>2010-06-17T16:03:53Z</time>
      </trkpt>
      <trkpt lat="48.9638850" lon="8.7375670">
        <ele>305.3600000</ele>
        <time>2010-06-17T16:04:09Z</time>
      </trkpt>
      <trkpt lat="48.9639360" lon="8.7371330">
        <ele>306.8000000</ele>
        <time>2010-06-17T16:04:26Z</time>
      </trkpt>
      <trkpt lat="48.9640290" lon="8.7367080">
        <ele>308.7200000</ele>
        <time>2010-06-17T16:04:43Z</time>
      </trkpt>
      <trkpt lat="48.9641500" lon="8.7362640">
        <ele>310.1600000</ele>
        <time>2010-06-17T16:04:58Z</time>
      </trkpt>
      <trkpt lat="48.9642830" lon="8.7359200">
        <ele>313.0500000</ele>
        <time>2010-06-17T16:05:11Z</time>
      </trkpt>
      <trkpt lat="48.9643000" lon="8.7359110">
        <ele>313.0500000</ele>
        <time>2010-06-17T16:05:12Z</time>
      </trkpt>
      <trkpt lat="48.9645090" lon="8.7358730">
        <ele>316.4100000</ele>
        <time>2010-06-17T16:05:26Z</time>
      </trkpt>
      <trkpt lat="48.9647190" lon="8.7358490">
        <ele>318.8100000</ele>
        <time>2010-06-17T16:05:41Z</time>
      </trkpt>
      <trkpt lat="48.9647840" lon="8.7358400">
        <ele>319.3000000</ele>
        <time>2010-06-17T16:05:46Z</time>
      </trkpt>
      <trkpt lat="48.9650570" lon="8.7358070">
        <ele>320.7400000</ele>
        <time>2010-06-17T16:06:03Z</time>
      </trkpt>
      <trkpt lat="48.9654510" lon="8.7357040">
        <ele>323.1400000</ele>
        <time>2010-06-17T16:06:22Z</time>
      </trkpt>
      <trkpt lat="48.9657790" lon="8.7355800">
        <ele>324.1000000</ele>
        <time>2010-06-17T16:06:39Z</time>
      </trkpt>
      <trkpt lat="48.9660670" lon="8.7354740">
        <ele>324.1000000</ele>
        <time>2010-06-17T16:06:56Z</time>
      </trkpt>
      <trkpt lat="48.9662030" lon="8.7354160">
        <ele>325.5400000</ele>
        <time>2010-06-17T16:09:17Z</time>
      </trkpt>
      <trkpt lat="48.9666470" lon="8.7352430">
        <ele>324.5800000</ele>
        <time>2010-06-17T16:09:30Z</time>
      </trkpt>
      <trkpt lat="48.9673680" lon="8.7349490">
        <ele>323.6200000</ele>
        <time>2010-06-17T16:09:48Z</time>
      </trkpt>
      <trkpt lat="48.9675240" lon="8.7348850">
        <ele>323.6200000</ele>
        <time>2010-06-17T16:09:52Z</time>
      </trkpt>
      <trkpt lat="48.9678170" lon="8.7347680">
        <ele>323.1400000</ele>
        <time>2010-06-17T16:09:59Z</time>
      </trkpt>
      <trkpt lat="48.9679410" lon="8.7346100">
        <ele>322.6600000</ele>
        <time>2010-06-17T16:10:03Z</time>
      </trkpt>
      <trkpt lat="48.9679820" lon="8.7344120">
        <ele>323.1400000</ele>
        <time>2010-06-17T16:10:06Z</time>
      </trkpt>
      <trkpt lat="48.9681640" lon="8.7335150">
        <ele>322.6600000</ele>
        <time>2010-06-17T16:10:20Z</time>
      </trkpt>
      <trkpt lat="48.9684420" lon="8.7325560">
        <ele>322.6600000</ele>
        <time>2010-06-17T16:10:36Z</time>
      </trkpt>
      <trkpt lat="48.9687390" lon="8.7315490">
        <ele>322.1800000</ele>
        <time>2010-06-17T16:10:54Z</time>
      </trkpt>
      <trkpt lat="48.9690300" lon="8.7307390">
        <ele>322.6600000</ele>
        <time>2010-06-17T16:11:11Z</time>
      </trkpt>
      <trkpt lat="48.9690720" lon="8.7305110">
        <ele>322.6600000</ele>
        <time>2010-06-17T16:11:17Z</time>
      </trkpt>
      <trkpt lat="48.9693670" lon="8.7299590">
        <ele>323.1400000</ele>
        <time>2010-06-17T16:11:30Z</time>
      </trkpt>
      <trkpt lat="48.9697040" lon="8.7293690">
        <ele>323.1400000</ele>
        <time>2010-06-17T16:11:45Z</time>
      </trkpt>
      <trkpt lat="48.9698630" lon="8.7290620">
        <ele>324.1000000</ele>
        <time>2010-06-17T16:11:52Z</time>
      </trkpt>
      <trkpt lat="48.9698870" lon="8.7289080">
        <ele>322.6600000</ele>
        <time>2010-06-17T16:11:56Z</time>
      </trkpt>
      <trkpt lat="48.9698800" lon="8.7288530">
        <ele>322.6600000</ele>
        <time>2010-06-17T16:12:10Z</time>
      </trkpt>
      <trkpt lat="48.9698800" lon="8.7288530">
        <ele>322.1800000</ele>
        <time>2010-06-17T16:12:17Z</time>
      </trkpt>
      <trkpt lat="48.9699280" lon="8.7288100">
        <ele>322.6600000</ele>
        <time>2010-06-17T16:12:21Z</time>
      </trkpt>
      <trkpt lat="48.9702180" lon="8.7286080">
        <ele>322.1800000</ele>
        <time>2010-06-17T16:12:34Z</time>
      </trkpt>
      <trkpt lat="48.9703270" lon="8.7284640">
        <ele>322.1800000</ele>
        <time>2010-06-17T16:12:38Z</time>
      </trkpt>
      <trkpt lat="48.9704350" lon="8.7283400">
        <ele>321.7000000</ele>
        <time>2010-06-17T16:12:41Z</time>
      </trkpt>
      <trkpt lat="48.9705360" lon="8.7279050">
        <ele>320.7400000</ele>
        <time>2010-06-17T16:12:48Z</time>
      </trkpt>
      <trkpt lat="48.9703890" lon="8.7265610">
        <ele>319.3000000</ele>
        <time>2010-06-17T16:13:04Z</time>
      </trkpt>
      <trkpt lat="48.9702280" lon="8.7250520">
        <ele>317.3700000</ele>
        <time>2010-06-17T16:13:22Z</time>
      </trkpt>
      <trkpt lat="48.9700580" lon="8.7234740">
        <ele>315.9300000</ele>
        <time>2010-06-17T16:13:39Z</time>
      </trkpt>
      <trkpt lat="48.9698340" lon="8.7217330">
        <ele>314.0100000</ele>
        <time>2010-06-17T16:13:57Z</time>
      </trkpt>
      <trkpt lat="48.9697870" lon="8.7209740">
        <ele>313.5300000</ele>
        <time>2010-06-17T16:14:05Z</time>
      </trkpt>
      <trkpt lat="48.9699080" lon="8.7197440">
        <ele>312.5700000</ele>
        <time>2010-06-17T16:14:19Z</time>
      </trkpt>
      <trkpt lat="48.9702300" lon="8.7186520">
        <ele>312.0900000</ele>
        <time>2010-06-17T16:14:33Z</time>
      </trkpt>
      <trkpt lat="48.9709290" lon="8.7172600">
        <ele>309.6800000</ele>
        <time>2010-06-17T16:14:51Z</time>
      </trkpt>
      <trkpt lat="48.9716590" lon="8.7161100">
        <ele>306.3200000</ele>
        <time>2010-06-17T16:15:06Z</time>
      </trkpt>
      <trkpt lat="48.9723410" lon="8.7147210">
        <ele>307.2800000</ele>
        <time>2010-06-17T16:15:23Z</time>
      </trkpt>
      <trkpt lat="48.9723940" lon="8.7133810">
        <ele>308.7200000</ele>
        <time>2010-06-17T16:15:40Z</time>
      </trkpt>
      <trkpt lat="48.9722230" lon="8.7126950">
        <ele>310.1600000</ele>
        <time>2010-06-17T16:15:51Z</time>
      </trkpt>
      <trkpt lat="48.9719220" lon="8.7118830">
        <ele>312.5700000</ele>
        <time>2010-06-17T16:16:08Z</time>
      </trkpt>
      <trkpt lat="48.9717100" lon="8.7113340">
        <ele>315.9300000</ele>
        <time>2010-06-17T16:16:23Z</time>
      </trkpt>
      <trkpt lat="48.9715450" lon="8.7108610">
        <ele>318.8100000</ele>
        <time>2010-06-17T16:16:39Z</time>
      </trkpt>
      <trkpt lat="48.9714080" lon="8.7104360">
        <ele>321.7000000</ele>
        <time>2010-06-17T16:16:54Z</time>
      </trkpt>
      <trkpt lat="48.9712590" lon="8.7099300">
        <ele>324.5800000</ele>
        <time>2010-06-17T16:17:12Z</time>
      </trkpt>
      <trkpt lat="48.9710840" lon="8.7092580">
        <ele>326.9900000</ele>
        <time>2010-06-17T16:17:34Z</time>
      </trkpt>
      <trkpt lat="48.9709330" lon="8.7085680">
        <ele>328.9100000</ele>
        <time>2010-06-17T16:17:53Z</time>
      </trkpt>
      <trkpt lat="48.9707760" lon="8.7076610">
        <ele>329.8700000</ele>
        <time>2010-06-17T16:18:10Z</time>
      </trkpt>
      <trkpt lat="48.9706300" lon="8.7064880">
        <ele>326.5000000</ele>
        <time>2010-06-17T16:18:25Z</time>
      </trkpt>
      <trkpt lat="48.9705350" lon="8.7054800">
        <ele>323.1400000</ele>
        <time>2010-06-17T16:18:34Z</time>
      </trkpt>
      <trkpt lat="48.9705260" lon="8.7053570">
        <ele>323.1400000</ele>
        <time>2010-06-17T16:18:35Z</time>
      </trkpt>
      <trkpt lat="48.9704770" lon="8.7045850">
        <ele>320.7400000</ele>
        <time>2010-06-17T16:18:42Z</time>
      </trkpt>
      <trkpt lat="48.9703570" lon="8.7043020">
        <ele>320.2600000</ele>
        <time>2010-06-17T16:18:45Z</time>
      </trkpt>
      <trkpt lat="48.9701230" lon="8.7032640">
        <ele>317.3700000</ele>
        <time>2010-06-17T16:18:54Z</time>
      </trkpt>
      <trkpt lat="48.9697960" lon="8.7015770">
        <ele>314.9700000</ele>
        <time>2010-06-17T16:19:08Z</time>
      </trkpt>
      <trkpt lat="48.9694610" lon="8.6999260">
        <ele>312.0900000</ele>
        <time>2010-06-17T16:19:21Z</time>
      </trkpt>
      <trkpt lat="48.9690610" lon="8.6988310">
        <ele>308.7200000</ele>
        <time>2010-06-17T16:19:30Z</time>
      </trkpt>
      <trkpt lat="48.9686860" lon="8.6980200">
        <ele>304.8800000</ele>
        <time>2010-06-17T16:19:37Z</time>
      </trkpt>
      <trkpt lat="48.9686280" lon="8.6978960">
        <ele>304.8800000</ele>
        <time>2010-06-17T16:19:38Z</time>
      </trkpt>
      <trkpt lat="48.9683670" lon="8.6974000">
        <ele>301.0300000</ele>
        <time>2010-06-17T16:19:42Z</time>
      </trkpt>
      <trkpt lat="48.9680070" lon="8.6967650">
        <ele>297.6700000</ele>
        <time>2010-06-17T16:19:47Z</time>
      </trkpt>
      <trkpt lat="48.9677030" lon="8.6962760">
        <ele>294.7800000</ele>
        <time>2010-06-17T16:19:51Z</time>
      </trkpt>
      <trkpt lat="48.9673290" lon="8.6957060">
        <ele>291.9000000</ele>
        <time>2010-06-17T16:19:56Z</time>
      </trkpt>
      <trkpt lat="48.9670460" lon="8.6952550">
        <ele>289.9700000</ele>
        <time>2010-06-17T16:20:00Z</time>
      </trkpt>
      <trkpt lat="48.9668890" lon="8.6950260">
        <ele>289.0100000</ele>
        <time>2010-06-17T16:20:02Z</time>
      </trkpt>
      <trkpt lat="48.9665690" lon="8.6945280">
        <ele>285.1700000</ele>
        <time>2010-06-17T16:20:06Z</time>
      </trkpt>
      <trkpt lat="48.9663290" lon="8.6941110">
        <ele>283.2500000</ele>
        <time>2010-06-17T16:20:09Z</time>
      </trkpt>
      <trkpt lat="48.9661050" lon="8.6936280">
        <ele>280.3600000</ele>
        <time>2010-06-17T16:20:12Z</time>
      </trkpt>
      <trkpt lat="48.9659830" lon="8.6932820">
        <ele>278.4400000</ele>
        <time>2010-06-17T16:20:14Z</time>
      </trkpt>
      <trkpt lat="48.9658900" lon="8.6929230">
        <ele>276.0400000</ele>
        <time>2010-06-17T16:20:16Z</time>
      </trkpt>
      <trkpt lat="48.9656230" lon="8.6918910">
        <ele>272.1900000</ele>
        <time>2010-06-17T16:20:22Z</time>
      </trkpt>
      <trkpt lat="48.9655820" lon="8.6917250">
        <ele>272.1900000</ele>
        <time>2010-06-17T16:20:23Z</time>
      </trkpt>
      <trkpt lat="48.9653420" lon="8.6907600">
        <ele>268.8300000</ele>
        <time>2010-06-17T16:20:29Z</time>
      </trkpt>
      <trkpt lat="48.9652700" lon="8.6904580">
        <ele>267.8600000</ele>
        <time>2010-06-17T16:20:31Z</time>
      </trkpt>
      <trkpt lat="48.9649920" lon="8.6894010">
        <ele>264.0200000</ele>
        <time>2010-06-17T16:20:38Z</time>
      </trkpt>
      <trkpt lat="48.9649340" lon="8.6891310">
        <ele>263.5400000</ele>
        <time>2010-06-17T16:20:40Z</time>
      </trkpt>
      <trkpt lat="48.9648840" lon="8.6888670">
        <ele>262.5800000</ele>
        <time>2010-06-17T16:20:42Z</time>
      </trkpt>
      <trkpt lat="48.9644600" lon="8.6874960">
        <ele>259.6900000</ele>
        <time>2010-06-17T16:20:53Z</time>
      </trkpt>
      <trkpt lat="48.9640830" lon="8.6861020">
        <ele>256.3300000</ele>
        <time>2010-06-17T16:21:04Z</time>
      </trkpt>
      <trkpt lat="48.9637570" lon="8.6848650">
        <ele>252.9600000</ele>
        <time>2010-06-17T16:21:13Z</time>
      </trkpt>
      <trkpt lat="48.9633230" lon="8.6833210">
        <ele>250.0800000</ele>
        <time>2010-06-17T16:21:25Z</time>
      </trkpt>
      <trkpt lat="48.9629640" lon="8.6821340">
        <ele>248.6400000</ele>
        <time>2010-06-17T16:21:35Z</time>
      </trkpt>
      <trkpt lat="48.9629390" lon="8.6818820">
        <ele>248.1600000</ele>
        <time>2010-06-17T16:21:37Z</time>
      </trkpt>
      <trkpt lat="48.9630260" lon="8.6802970">
        <ele>247.2000000</ele>
        <time>2010-06-17T16:21:50Z</time>
      </trkpt>
      <trkpt lat="48.9633280" lon="8.6787150">
        <ele>244.3100000</ele>
        <time>2010-06-17T16:22:03Z</time>
      </trkpt>
      <trkpt lat="48.9636380" lon="8.6774000">
        <ele>241.4300000</ele>
        <time>2010-06-17T16:22:14Z</time>
      </trkpt>
      <trkpt lat="48.9637100" lon="8.6770350">
        <ele>239.0200000</ele>
        <time>2010-06-17T16:22:17Z</time>
      </trkpt>
      <trkpt lat="48.9638510" lon="8.6754970">
        <ele>236.1400000</ele>
        <time>2010-06-17T16:22:29Z</time>
      </trkpt>
      <trkpt lat="48.9640290" lon="8.6737450">
        <ele>232.7800000</ele>
        <time>2010-06-17T16:22:43Z</time>
      </trkpt>
      <trkpt lat="48.9640630" lon="8.6728900">
        <ele>230.8500000</ele>
        <time>2010-06-17T16:22:50Z</time>
      </trkpt>
      <trkpt lat="48.9641000" lon="8.6708450">
        <ele>229.4100000</ele>
        <time>2010-06-17T16:23:07Z</time>
      </trkpt>
      <trkpt lat="48.9640970" lon="8.6705080">
        <ele>229.8900000</ele>
        <time>2010-06-17T16:23:10Z</time>
      </trkpt>
      <trkpt lat="48.9640490" lon="8.6688040">
        <ele>231.8100000</ele>
        <time>2010-06-17T16:23:26Z</time>
      </trkpt>
      <trkpt lat="48.9639870" lon="8.6677510">
        <ele>231.8100000</ele>
        <time>2010-06-17T16:23:36Z</time>
      </trkpt>
      <trkpt lat="48.9637670" lon="8.6662040">
        <ele>229.8900000</ele>
        <time>2010-06-17T16:23:50Z</time>
      </trkpt>
      <trkpt lat="48.9638410" lon="8.6646460">
        <ele>228.4500000</ele>
        <time>2010-06-17T16:24:03Z</time>
      </trkpt>
      <trkpt lat="48.9642490" lon="8.6627130">
        <ele>227.0100000</ele>
        <time>2010-06-17T16:24:20Z</time>
      </trkpt>
      <trkpt lat="48.9643520" lon="8.6612750">
        <ele>223.6400000</ele>
        <time>2010-06-17T16:24:31Z</time>
      </trkpt>
      <trkpt lat="48.9641980" lon="8.6595790">
        <ele>223.1600000</ele>
        <time>2010-06-17T16:24:45Z</time>
      </trkpt>
      <trkpt lat="48.9640070" lon="8.6589180">
        <ele>219.8000000</ele>
        <time>2010-06-17T16:24:51Z</time>
      </trkpt>
      <trkpt lat="48.9639690" lon="8.6588140">
        <ele>221.2400000</ele>
        <time>2010-06-17T16:24:52Z</time>
      </trkpt>
      <trkpt lat="48.9639260" lon="8.6587110">
        <ele>221.2400000</ele>
        <time>2010-06-17T16:24:53Z</time>
      </trkpt>
      <trkpt lat="48.9635180" lon="8.6580620">
        <ele>219.3200000</ele>
        <time>2010-06-17T16:25:00Z</time>
      </trkpt>
      <trkpt lat="48.9626610" lon="8.6575540">
        <ele>215.9500000</ele>
        <time>2010-06-17T16:25:11Z</time>
      </trkpt>
      <trkpt lat="48.9625800" lon="8.6575150">
        <ele>216.4300000</ele>
        <time>2010-06-17T16:25:12Z</time>
      </trkpt>
      <trkpt lat="48.9623510" lon="8.6573510">
        <ele>215.4700000</ele>
        <time>2010-06-17T16:25:15Z</time>
      </trkpt>
      <trkpt lat="48.9619840" lon="8.6568070">
        <ele>215.4700000</ele>
        <time>2010-06-17T16:25:21Z</time>
      </trkpt>
      <trkpt lat="48.9618260" lon="8.6555940">
        <ele>214.9900000</ele>
        <time>2010-06-17T16:25:32Z</time>
      </trkpt>
      <trkpt lat="48.9621620" lon="8.6531870">
        <ele>214.0300000</ele>
        <time>2010-06-17T16:25:54Z</time>
      </trkpt>
      <trkpt lat="48.9627410" lon="8.6519020">
        <ele>212.1100000</ele>
        <time>2010-06-17T16:26:07Z</time>
      </trkpt>
      <trkpt lat="48.9631270" lon="8.6509720">
        <ele>213.5500000</ele>
        <time>2010-06-17T16:26:17Z</time>
      </trkpt>
      <trkpt lat="48.9631760" lon="8.6505820">
        <ele>213.5500000</ele>
        <time>2010-06-17T16:26:21Z</time>
      </trkpt>
      <trkpt lat="48.9630740" lon="8.6496850">
        <ele>214.0300000</ele>
        <time>2010-06-17T16:26:31Z</time>
      </trkpt>
      <trkpt lat="48.9628880" lon="8.6485670">
        <ele>212.1100000</ele>
        <time>2010-06-17T16:26:44Z</time>
      </trkpt>
      <trkpt lat="48.9628490" lon="8.6484270">
        <ele>211.6300000</ele>
        <time>2010-06-17T16:26:46Z</time>
      </trkpt>
      <trkpt lat="48.9627810" lon="8.6480780">
        <ele>209.7000000</ele>
        <time>2010-06-17T16:26:50Z</time>
      </trkpt>
      <trkpt lat="48.9626830" lon="8.6477970">
        <ele>210.1900000</ele>
        <time>2010-06-17T16:26:53Z</time>
      </trkpt>
      <trkpt lat="48.9623790" lon="8.6466490">
        <ele>206.3400000</ele>
        <time>2010-06-17T16:27:04Z</time>
      </trkpt>
      <trkpt lat="48.9623360" lon="8.6462240">
        <ele>206.3400000</ele>
        <time>2010-06-17T16:27:08Z</time>
      </trkpt>
      <trkpt lat="48.9623220" lon="8.6458870">
        <ele>204.9000000</ele>
        <time>2010-06-17T16:27:11Z</time>
      </trkpt>
      <trkpt lat="48.9623350" lon="8.6453810">
        <ele>201.5300000</ele>
        <time>2010-06-17T16:27:15Z</time>
      </trkpt>
      <trkpt lat="48.9623410" lon="8.6451380">
        <ele>200.0900000</ele>
        <time>2010-06-17T16:27:17Z</time>
      </trkpt>
      <trkpt lat="48.9621080" lon="8.6447190">
        <ele>199.1300000</ele>
        <time>2010-06-17T16:27:23Z</time>
      </trkpt>
      <trkpt lat="48.9621010" lon="8.6446070">
        <ele>199.1300000</ele>
        <time>2010-06-17T16:27:27Z</time>
      </trkpt>
      <trkpt lat="48.9620860" lon="8.6443870">
        <ele>198.6500000</ele>
        <time>2010-06-17T16:27:35Z</time>
      </trkpt>
      <trkpt lat="48.9619880" lon="8.6441650">
        <ele>198.6500000</ele>
        <time>2010-06-17T16:27:40Z</time>
      </trkpt>
      <trkpt lat="48.9615750" lon="8.6434010">
        <ele>194.8000000</ele>
        <time>2010-06-17T16:27:51Z</time>
      </trkpt>
      <trkpt lat="48.9615290" lon="8.6433070">
        <ele>194.3200000</ele>
        <time>2010-06-17T16:27:52Z</time>
      </trkpt>
      <trkpt lat="48.9612560" lon="8.6424800">
        <ele>193.3600000</ele>
        <time>2010-06-17T16:28:00Z</time>
      </trkpt>
      <trkpt lat="48.9612030" lon="8.6408000">
        <ele>192.4000000</ele>
        <time>2010-06-17T16:28:15Z</time>
      </trkpt>
      <trkpt lat="48.9612830" lon="8.6392470">
        <ele>191.9200000</ele>
        <time>2010-06-17T16:28:31Z</time>
      </trkpt>
      <trkpt lat="48.9613740" lon="8.6376470">
        <ele>192.8800000</ele>
        <time>2010-06-17T16:28:49Z</time>
      </trkpt>
      <trkpt lat="48.9616730" lon="8.6362480">
        <ele>192.8800000</ele>
        <time>2010-06-17T16:29:05Z</time>
      </trkpt>
      <trkpt lat="48.9618010" lon="8.6357800">
        <ele>192.4000000</ele>
        <time>2010-06-17T16:29:11Z</time>
      </trkpt>
      <trkpt lat="48.9620040" lon="8.6346500">
        <ele>192.4000000</ele>
        <time>2010-06-17T16:29:25Z</time>
      </trkpt>
      <trkpt lat="48.9620880" lon="8.6341490">
        <ele>192.4000000</ele>
        <time>2010-06-17T16:29:32Z</time>
      </trkpt>
      <trkpt lat="48.9620360" lon="8.6339960">
        <ele>191.9200000</ele>
        <time>2010-06-17T16:29:34Z</time>
      </trkpt>
      <trkpt lat="48.9618370" lon="8.6324660">
        <ele>191.4400000</ele>
        <time>2010-06-17T16:29:50Z</time>
      </trkpt>
      <trkpt lat="48.9616900" lon="8.6307780">
        <ele>189.0400000</ele>
        <time>2010-06-17T16:30:06Z</time>
      </trkpt>
      <trkpt lat="48.9615610" lon="8.6288030">
        <ele>188.0800000</ele>
        <time>2010-06-17T16:30:25Z</time>
      </trkpt>
      <trkpt lat="48.9614100" lon="8.6272160">
        <ele>187.1100000</ele>
        <time>2010-06-17T16:30:39Z</time>
      </trkpt>
      <trkpt lat="48.9611020" lon="8.6255790">
        <ele>184.2300000</ele>
        <time>2010-06-17T16:30:53Z</time>
      </trkpt>
      <trkpt lat="48.9605850" lon="8.6236050">
        <ele>182.3100000</ele>
        <time>2010-06-17T16:31:11Z</time>
      </trkpt>
      <trkpt lat="48.9598970" lon="8.6215010">
        <ele>181.3500000</ele>
        <time>2010-06-17T16:31:31Z</time>
      </trkpt>
      <trkpt lat="48.9597000" lon="8.6208640">
        <ele>181.3500000</ele>
        <time>2010-06-17T16:31:38Z</time>
      </trkpt>
      <trkpt lat="48.9598650" lon="8.6203590">
        <ele>180.3800000</ele>
        <time>2010-06-17T16:31:45Z</time>
      </trkpt>
      <trkpt lat="48.9600830" lon="8.6203890">
        <ele>180.3800000</ele>
        <time>2010-06-17T16:31:48Z</time>
      </trkpt>
      <trkpt lat="48.9608610" lon="8.6207790">
        <ele>180.3800000</ele>
        <time>2010-06-17T16:32:01Z</time>
      </trkpt>
      <trkpt lat="48.9616590" lon="8.6211640">
        <ele>180.8700000</ele>
        <time>2010-06-17T16:32:16Z</time>
      </trkpt>
      <trkpt lat="48.9620210" lon="8.6211720">
        <ele>181.8300000</ele>
        <time>2010-06-17T16:32:23Z</time>
      </trkpt>
      <trkpt lat="48.9621880" lon="8.6210200">
        <ele>182.3100000</ele>
        <time>2010-06-17T16:32:27Z</time>
      </trkpt>
      <trkpt lat="48.9622920" lon="8.6208380">
        <ele>181.8300000</ele>
        <time>2010-06-17T16:32:30Z</time>
      </trkpt>
      <trkpt lat="48.9628170" lon="8.6197250">
        <ele>182.3100000</ele>
        <time>2010-06-17T16:32:46Z</time>
      </trkpt>
      <trkpt lat="48.9632680" lon="8.6184480">
        <ele>183.2700000</ele>
        <time>2010-06-17T16:33:02Z</time>
      </trkpt>
      <trkpt lat="48.9636850" lon="8.6169800">
        <ele>181.8300000</ele>
        <time>2010-06-17T16:33:20Z</time>
      </trkpt>
      <trkpt lat="48.9639820" lon="8.6157280">
        <ele>181.8300000</ele>
        <time>2010-06-17T16:33:35Z</time>
      </trkpt>
      <trkpt lat="48.9642360" lon="8.6146700">
        <ele>182.3100000</ele>
        <time>2010-06-17T16:33:48Z</time>
      </trkpt>
      <trkpt lat="48.9645960" lon="8.6140500">
        <ele>182.3100000</ele>
        <time>2010-06-17T16:33:58Z</time>
      </trkpt>
      <trkpt lat="48.9647830" lon="8.6138910">
        <ele>181.3500000</ele>
        <time>2010-06-17T16:34:02Z</time>
      </trkpt>
      <trkpt lat="48.9649520" lon="8.6138380">
        <ele>179.9000000</ele>
        <time>2010-06-17T16:34:05Z</time>
      </trkpt>
      <trkpt lat="48.9651590" lon="8.6136750">
        <ele>177.0200000</ele>
        <time>2010-06-17T16:34:09Z</time>
      </trkpt>
      <trkpt lat="48.9654340" lon="8.6133240">
        <ele>176.0600000</ele>
        <time>2010-06-17T16:34:19Z</time>
      </trkpt>
      <trkpt lat="48.9654490" lon="8.6132730">
        <ele>175.5800000</ele>
        <time>2010-06-17T16:34:21Z</time>
      </trkpt>
      <trkpt lat="48.9653520" lon="8.6130690">
        <ele>175.5800000</ele>
        <time>2010-06-17T16:34:29Z</time>
      </trkpt>
      <trkpt lat="48.9651910" lon="8.6126170">
        <ele>176.0600000</ele>
        <time>2010-06-17T16:34:40Z</time>
      </trkpt>
      <trkpt lat="48.9652200" lon="8.6121220">
        <ele>175.1000000</ele>
        <time>2010-06-17T16:34:52Z</time>
      </trkpt>
      <trkpt lat="48.9652490" lon="8.6114320">
        <ele>175.1000000</ele>
        <time>2010-06-17T16:35:05Z</time>
      </trkpt>
      <trkpt lat="48.9652180" lon="8.6113300">
        <ele>175.1000000</ele>
        <time>2010-06-17T16:35:10Z</time>
      </trkpt>
      <trkpt lat="48.9648640" lon="8.6112720">
        <ele>174.6200000</ele>
        <time>2010-06-17T16:35:21Z</time>
      </trkpt>
      <trkpt lat="48.9648110" lon="8.6112730">
        <ele>174.6200000</ele>
        <time>2010-06-17T16:35:22Z</time>
      </trkpt>
      <trkpt lat="48.9645890" lon="8.6112470">
        <ele>174.6200000</ele>
        <time>2010-06-17T16:35:27Z</time>
      </trkpt>
      <trkpt lat="48.9644530" lon="8.6112590">
        <ele>174.1400000</ele>
        <time>2010-06-17T16:35:30Z</time>
      </trkpt>
      <trkpt lat="48.9641380" lon="8.6114540">
        <ele>174.6200000</ele>
        <time>2010-06-17T16:35:41Z</time>
      </trkpt>
      <trkpt lat="48.9641320" lon="8.6114770">
        <ele>174.6200000</ele>
        <time>2010-06-17T16:36:01Z</time>
      </trkpt>
      <trkpt lat="48.9641330" lon="8.6114780">
        <ele>175.5800000</ele>
        <time>2010-06-17T16:36:29Z</time>
      </trkpt>
      <trkpt lat="48.9640050" lon="8.6115610">
        <ele>175.5800000</ele>
        <time>2010-06-17T16:36:41Z</time>
      </trkpt>
      <trkpt lat="48.9638780" lon="8.6116690">
        <ele>175.5800000</ele>
        <time>2010-06-17T16:36:48Z</time>
      </trkpt>
      <trkpt lat="48.9639050" lon="8.6117100">
        <ele>175.5800000</ele>
        <time>2010-06-17T16:36:55Z</time>
      </trkpt>
      <trkpt lat="48.9639040" lon="8.6117060">
        <ele>174.6200000</ele>
        <time>2010-06-17T16:36:59Z</time>
      </trkpt>
      <trkpt lat="48.9639040" lon="8.6117060">
        <ele>174.6200000</ele>
        <time>2010-06-17T16:37:00Z</time>
      </trkpt>
      <trkpt lat="48.9640120" lon="8.6115860">
        <ele>174.6200000</ele>
        <time>2010-06-17T16:37:07Z</time>
      </trkpt>
      <trkpt lat="48.9640750" lon="8.6114930">
        <ele>174.6200000</ele>
        <time>2010-06-17T16:37:13Z</time>
      </trkpt>
      <trkpt lat="48.9639300" lon="8.6110800">
        <ele>174.6200000</ele>
        <time>2010-06-17T16:37:22Z</time>
      </trkpt>
      <trkpt lat="48.9637920" lon="8.6104300">
        <ele>174.6200000</ele>
        <time>2010-06-17T16:37:34Z</time>
      </trkpt>
      <trkpt lat="48.9637840" lon="8.6103740">
        <ele>174.6200000</ele>
        <time>2010-06-17T16:37:35Z</time>
      </trkpt>
      <trkpt lat="48.9638740" lon="8.6102530">
        <ele>174.6200000</ele>
        <time>2010-06-17T16:37:39Z</time>
      </trkpt>
      <trkpt lat="48.9643180" lon="8.6103280">
        <ele>174.1400000</ele>
        <time>2010-06-17T16:37:54Z</time>
      </trkpt>
      <trkpt lat="48.9643010" lon="8.6103430">
        <ele>174.6200000</ele>
        <time>2010-06-17T16:38:06Z</time>
      </trkpt>
      <trkpt lat="48.9643010" lon="8.6103430">
        <ele>170.7700000</ele>
        <time>2010-06-17T16:38:31Z</time>
      </trkpt>
      <trkpt lat="48.9643010" lon="8.6103430">
        <ele>174.1400000</ele>
        <time>2010-06-17T16:38:32Z</time>
      </trkpt>
      <trkpt lat="48.9642790" lon="8.6103400">
        <ele>174.6200000</ele>
        <time>2010-06-17T16:38:43Z</time>
      </trkpt>
      <trkpt lat="48.9642920" lon="8.6104290">
        <ele>175.5800000</ele>
        <time>2010-06-17T16:40:10Z</time>
      </trkpt>
      <trkpt lat="48.9642750" lon="8.6103730">
        <ele>175.5800000</ele>
        <time>2010-06-17T16:40:50Z</time>
      </trkpt>
      <trkpt lat="48.9643680" lon="8.6105570">
        <ele>174.6200000</ele>
        <time>2010-06-17T16:41:11Z</time>
      </trkpt>
      <trkpt lat="48.9643740" lon="8.6105700">
        <ele>173.1700000</ele>
        <time>2010-06-17T16:41:45Z</time>
      </trkpt>
      <trkpt lat="48.9643740" lon="8.6105700">
        <ele>173.6600000</ele>
        <time>2010-06-17T16:48:45Z</time>
      </trkpt>
      <trkpt lat="48.9643740" lon="8.6105700">
        <ele>184.7100000</ele>
        <time>2010-06-17T16:48:46Z</time>
      </trkpt>
      <trkpt lat="48.9643720" lon="8.6102980">
        <ele>183.2700000</ele>
        <time>2010-06-17T16:48:57Z</time>
      </trkpt>
      <trkpt lat="48.9642690" lon="8.6103310">
        <ele>182.7900000</ele>
        <time>2010-06-17T16:49:19Z</time>
      </trkpt>
      <trkpt lat="48.9642520" lon="8.6102940">
        <ele>182.3100000</ele>
        <time>2010-06-17T16:52:21Z</time>
      </trkpt>
      <trkpt lat="48.9642520" lon="8.6102940">
        <ele>189.0400000</ele>
        <time>2010-06-18T06:30:55Z</time>
      </trkpt>
      <trkpt lat="48.9642520" lon="8.6102940">
        <ele>189.5200000</ele>
        <time>2010-06-18T06:30:56Z</time>
      </trkpt>
      <trkpt lat="48.9642950" lon="8.6104870">
        <ele>188.0800000</ele>
        <time>2010-06-18T06:31:09Z</time>
      </trkpt>
      <trkpt lat="48.9643000" lon="8.6105000">
        <ele>187.1100000</ele>
        <time>2010-06-18T06:31:14Z</time>
      </trkpt>
      <trkpt lat="48.9642980" lon="8.6105110">
        <ele>187.5900000</ele>
        <time>2010-06-18T06:31:18Z</time>
      </trkpt>
      <trkpt lat="48.9642950" lon="8.6105190">
        <ele>187.5900000</ele>
        <time>2010-06-18T06:31:27Z</time>
      </trkpt>
      <trkpt lat="48.9642790" lon="8.6105500">
        <ele>188.5600000</ele>
        <time>2010-06-18T06:31:28Z</time>
      </trkpt>
      <trkpt lat="48.9641640" lon="8.6105480">
        <ele>188.0800000</ele>
        <time>2010-06-18T06:31:37Z</time>
      </trkpt>
      <trkpt lat="48.9641630" lon="8.6103550">
        <ele>187.1100000</ele>
        <time>2010-06-18T06:31:55Z</time>
      </trkpt>
      <trkpt lat="48.9642030" lon="8.6102730">
        <ele>183.2700000</ele>
        <time>2010-06-18T06:32:23Z</time>
      </trkpt>
      <trkpt lat="48.9642130" lon="8.6102420">
        <ele>184.7100000</ele>
        <time>2010-06-18T06:33:06Z</time>
      </trkpt>
      <trkpt lat="48.9645700" lon="8.6103910">
        <ele>184.7100000</ele>
        <time>2010-06-18T06:33:18Z</time>
      </trkpt>
      <trkpt lat="48.9650780" lon="8.6107140">
        <ele>185.6700000</ele>
        <time>2010-06-18T06:33:34Z</time>
      </trkpt>
      <trkpt lat="48.9653250" lon="8.6108950">
        <ele>186.1500000</ele>
        <time>2010-06-18T06:33:44Z</time>
      </trkpt>
      <trkpt lat="48.9653860" lon="8.6107750">
        <ele>186.6300000</ele>
        <time>2010-06-18T06:33:57Z</time>
      </trkpt>
      <trkpt lat="48.9653950" lon="8.6107520">
        <ele>186.6300000</ele>
        <time>2010-06-18T06:35:50Z</time>
      </trkpt>
      <trkpt lat="48.9655040" lon="8.6103740">
        <ele>187.1100000</ele>
        <time>2010-06-18T06:36:01Z</time>
      </trkpt>
      <trkpt lat="48.9656960" lon="8.6096050">
        <ele>187.1100000</ele>
        <time>2010-06-18T06:36:18Z</time>
      </trkpt>
      <trkpt lat="48.9660290" lon="8.6086220">
        <ele>186.6300000</ele>
        <time>2010-06-18T06:36:37Z</time>
      </trkpt>
      <trkpt lat="48.9661950" lon="8.6078700">
        <ele>186.6300000</ele>
        <time>2010-06-18T06:36:51Z</time>
      </trkpt>
      <trkpt lat="48.9663590" lon="8.6068840">
        <ele>185.6700000</ele>
        <time>2010-06-18T06:37:09Z</time>
      </trkpt>
      <trkpt lat="48.9663850" lon="8.6067080">
        <ele>185.1900000</ele>
        <time>2010-06-18T06:37:12Z</time>
      </trkpt>
      <trkpt lat="48.9664780" lon="8.6054210">
        <ele>184.7100000</ele>
        <time>2010-06-18T06:37:33Z</time>
      </trkpt>
      <trkpt lat="48.9665810" lon="8.6044470">
        <ele>184.7100000</ele>
        <time>2010-06-18T06:37:49Z</time>
      </trkpt>
      <trkpt lat="48.9666900" lon="8.6034200">
        <ele>185.6700000</ele>
        <time>2010-06-18T06:38:06Z</time>
      </trkpt>
      <trkpt lat="48.9669410" lon="8.6023840">
        <ele>184.7100000</ele>
        <time>2010-06-18T06:38:24Z</time>
      </trkpt>
      <trkpt lat="48.9669890" lon="8.6022190">
        <ele>183.2700000</ele>
        <time>2010-06-18T06:38:27Z</time>
      </trkpt>
      <trkpt lat="48.9672900" lon="8.6013120">
        <ele>182.7900000</ele>
        <time>2010-06-18T06:38:44Z</time>
      </trkpt>
      <trkpt lat="48.9673870" lon="8.6009440">
        <ele>183.2700000</ele>
        <time>2010-06-18T06:38:54Z</time>
      </trkpt>
      <trkpt lat="48.9673870" lon="8.6009440">
        <ele>183.2700000</ele>
        <time>2010-06-18T06:38:55Z</time>
      </trkpt>
      <trkpt lat="48.9673850" lon="8.6007670">
        <ele>182.7900000</ele>
        <time>2010-06-18T06:39:00Z</time>
      </trkpt>
      <trkpt lat="48.9670960" lon="8.6006360">
        <ele>182.7900000</ele>
        <time>2010-06-18T06:39:09Z</time>
      </trkpt>
      <trkpt lat="48.9666310" lon="8.6004200">
        <ele>182.3100000</ele>
        <time>2010-06-18T06:39:22Z</time>
      </trkpt>
      <trkpt lat="48.9662290" lon="8.6002920">
        <ele>181.8300000</ele>
        <time>2010-06-18T06:39:32Z</time>
      </trkpt>
      <trkpt lat="48.9660270" lon="8.6002390">
        <ele>181.3500000</ele>
        <time>2010-06-18T06:39:37Z</time>
      </trkpt>
      <trkpt lat="48.9658960" lon="8.5997900">
        <ele>181.8300000</ele>
        <time>2010-06-18T06:39:46Z</time>
      </trkpt>
      <trkpt lat="48.9658710" lon="8.5997450">
        <ele>181.8300000</ele>
        <time>2010-06-18T06:39:47Z</time>
      </trkpt>
      <trkpt lat="48.9657790" lon="8.5996230">
        <ele>181.3500000</ele>
        <time>2010-06-18T06:39:50Z</time>
      </trkpt>
      <trkpt lat="48.9654300" lon="8.5987870">
        <ele>180.3800000</ele>
        <time>2010-06-18T06:40:05Z</time>
      </trkpt>
      <trkpt lat="48.9652160" lon="8.5986520">
        <ele>180.3800000</ele>
        <time>2010-06-18T06:40:11Z</time>
      </trkpt>
      <trkpt lat="48.9649590" lon="8.5988310">
        <ele>180.3800000</ele>
        <time>2010-06-18T06:40:17Z</time>
      </trkpt>
      <trkpt lat="48.9647140" lon="8.5986470">
        <ele>180.3800000</ele>
        <time>2010-06-18T06:40:24Z</time>
      </trkpt>
      <trkpt lat="48.9645640" lon="8.5980810">
        <ele>179.9000000</ele>
        <time>2010-06-18T06:40:32Z</time>
      </trkpt>
      <trkpt lat="48.9643360" lon="8.5973800">
        <ele>179.9000000</ele>
        <time>2010-06-18T06:40:45Z</time>
      </trkpt>
      <trkpt lat="48.9641370" lon="8.5968130">
        <ele>179.4200000</ele>
        <time>2010-06-18T06:41:00Z</time>
      </trkpt>
      <trkpt lat="48.9639070" lon="8.5961430">
        <ele>178.4600000</ele>
        <time>2010-06-18T06:41:15Z</time>
      </trkpt>
      <trkpt lat="48.9636020" lon="8.5955450">
        <ele>177.5000000</ele>
        <time>2010-06-18T06:41:28Z</time>
      </trkpt>
      <trkpt lat="48.9632590" lon="8.5947080">
        <ele>177.5000000</ele>
        <time>2010-06-18T06:41:44Z</time>
      </trkpt>
      <trkpt lat="48.9629440" lon="8.5940480">
        <ele>176.0600000</ele>
        <time>2010-06-18T06:41:57Z</time>
      </trkpt>
      <trkpt lat="48.9627900" lon="8.5937620">
        <ele>176.5400000</ele>
        <time>2010-06-18T06:42:03Z</time>
      </trkpt>
      <trkpt lat="48.9626790" lon="8.5935820">
        <ele>176.5400000</ele>
        <time>2010-06-18T06:42:07Z</time>
      </trkpt>
      <trkpt lat="48.9622740" lon="8.5927820">
        <ele>176.5400000</ele>
        <time>2010-06-18T06:42:23Z</time>
      </trkpt>
      <trkpt lat="48.9617730" lon="8.5918220">
        <ele>175.5800000</ele>
        <time>2010-06-18T06:42:41Z</time>
      </trkpt>
      <trkpt lat="48.9612460" lon="8.5909670">
        <ele>177.0200000</ele>
        <time>2010-06-18T06:42:58Z</time>
      </trkpt>
      <trkpt lat="48.9606070" lon="8.5904200">
        <ele>176.0600000</ele>
        <time>2010-06-18T06:43:13Z</time>
      </trkpt>
      <trkpt lat="48.9603650" lon="8.5901510">
        <ele>175.5800000</ele>
        <time>2010-06-18T06:43:19Z</time>
      </trkpt>
      <trkpt lat="48.9598410" lon="8.5893950">
        <ele>175.1000000</ele>
        <time>2010-06-18T06:43:34Z</time>
      </trkpt>
      <trkpt lat="48.9597640" lon="8.5893080">
        <ele>175.1000000</ele>
        <time>2010-06-18T06:43:36Z</time>
      </trkpt>
      <trkpt lat="48.9591830" lon="8.5887010">
        <ele>173.6600000</ele>
        <time>2010-06-18T06:43:51Z</time>
      </trkpt>
      <trkpt lat="48.9590170" lon="8.5883400">
        <ele>174.1400000</ele>
        <time>2010-06-18T06:43:57Z</time>
      </trkpt>
      <trkpt lat="48.9589120" lon="8.5872330">
        <ele>172.6900000</ele>
        <time>2010-06-18T06:44:12Z</time>
      </trkpt>
      <trkpt lat="48.9588260" lon="8.5861780">
        <ele>173.1700000</ele>
        <time>2010-06-18T06:44:27Z</time>
      </trkpt>
      <trkpt lat="48.9587630" lon="8.5857840">
        <ele>173.6600000</ele>
        <time>2010-06-18T06:44:33Z</time>
      </trkpt>
      <trkpt lat="48.9585740" lon="8.5850550">
        <ele>174.6200000</ele>
        <time>2010-06-18T06:44:44Z</time>
      </trkpt>
      <trkpt lat="48.9582900" lon="8.5840880">
        <ele>174.6200000</ele>
        <time>2010-06-18T06:45:00Z</time>
      </trkpt>
      <trkpt lat="48.9580710" lon="8.5835630">
        <ele>173.1700000</ele>
        <time>2010-06-18T06:45:09Z</time>
      </trkpt>
      <trkpt lat="48.9580560" lon="8.5835140">
        <ele>172.6900000</ele>
        <time>2010-06-18T06:45:10Z</time>
      </trkpt>
      <trkpt lat="48.9579990" lon="8.5834240">
        <ele>173.1700000</ele>
        <time>2010-06-18T06:45:13Z</time>
      </trkpt>
      <trkpt lat="48.9577840" lon="8.5835620">
        <ele>171.7300000</ele>
        <time>2010-06-18T06:45:20Z</time>
      </trkpt>
      <trkpt lat="48.9575730" lon="8.5836580">
        <ele>171.7300000</ele>
        <time>2010-06-18T06:45:25Z</time>
      </trkpt>
      <trkpt lat="48.9572920" lon="8.5833820">
        <ele>170.2900000</ele>
        <time>2010-06-18T06:45:33Z</time>
      </trkpt>
      <trkpt lat="48.9571700" lon="8.5826880">
        <ele>170.2900000</ele>
        <time>2010-06-18T06:45:45Z</time>
      </trkpt>
      <trkpt lat="48.9568440" lon="8.5823100">
        <ele>168.8500000</ele>
        <time>2010-06-18T06:45:56Z</time>
      </trkpt>
      <trkpt lat="48.9569050" lon="8.5816090">
        <ele>169.3300000</ele>
        <time>2010-06-18T06:46:07Z</time>
      </trkpt>
      <trkpt lat="48.9569020" lon="8.5811940">
        <ele>169.3300000</ele>
        <time>2010-06-18T06:46:13Z</time>
      </trkpt>
      <trkpt lat="48.9568950" lon="8.5809860">
        <ele>168.8500000</ele>
        <time>2010-06-18T06:46:16Z</time>
      </trkpt>
      <trkpt lat="48.9568480" lon="8.5807790">
        <ele>168.8500000</ele>
        <time>2010-06-18T06:46:19Z</time>
      </trkpt>
      <trkpt lat="48.9567720" lon="8.5804510">
        <ele>168.8500000</ele>
        <time>2010-06-18T06:46:24Z</time>
      </trkpt>
      <trkpt lat="48.9565030" lon="8.5801260">
        <ele>168.8500000</ele>
        <time>2010-06-18T06:46:32Z</time>
      </trkpt>
      <trkpt lat="48.9563870" lon="8.5798760">
        <ele>168.8500000</ele>
        <time>2010-06-18T06:46:36Z</time>
      </trkpt>
      <trkpt lat="48.9562300" lon="8.5791700">
        <ele>169.3300000</ele>
        <time>2010-06-18T06:46:50Z</time>
      </trkpt>
      <trkpt lat="48.9560590" lon="8.5790930">
        <ele>169.3300000</ele>
        <time>2010-06-18T06:46:55Z</time>
      </trkpt>
      <trkpt lat="48.9559970" lon="8.5789570">
        <ele>168.3700000</ele>
        <time>2010-06-18T06:47:05Z</time>
      </trkpt>
      <trkpt lat="48.9559970" lon="8.5789370">
        <ele>168.3700000</ele>
        <time>2010-06-18T06:47:15Z</time>
      </trkpt>
      <trkpt lat="48.9562550" lon="8.5785350">
        <ele>167.8900000</ele>
        <time>2010-06-18T06:47:26Z</time>
      </trkpt>
      <trkpt lat="48.9564150" lon="8.5782530">
        <ele>167.4100000</ele>
        <time>2010-06-18T06:47:31Z</time>
      </trkpt>
      <trkpt lat="48.9565280" lon="8.5781140">
        <ele>166.9300000</ele>
        <time>2010-06-18T06:47:34Z</time>
      </trkpt>
      <trkpt lat="48.9570150" lon="8.5773630">
        <ele>166.9300000</ele>
        <time>2010-06-18T06:47:50Z</time>
      </trkpt>
      <trkpt lat="48.9569990" lon="8.5771650">
        <ele>166.9300000</ele>
        <time>2010-06-18T06:47:54Z</time>
      </trkpt>
      <trkpt lat="48.9569160" lon="8.5768560">
        <ele>167.8900000</ele>
        <time>2010-06-18T06:47:59Z</time>
      </trkpt>
      <trkpt lat="48.9568320" lon="8.5766170">
        <ele>167.4100000</ele>
        <time>2010-06-18T06:48:03Z</time>
      </trkpt>
      <trkpt lat="48.9567880" lon="8.5763700">
        <ele>167.4100000</ele>
        <time>2010-06-18T06:48:07Z</time>
      </trkpt>
      <trkpt lat="48.9567450" lon="8.5761870">
        <ele>165.9600000</ele>
        <time>2010-06-18T06:48:10Z</time>
      </trkpt>
      <trkpt lat="48.9566170" lon="8.5753940">
        <ele>165.9600000</ele>
        <time>2010-06-18T06:48:26Z</time>
      </trkpt>
      <trkpt lat="48.9566340" lon="8.5745560">
        <ele>165.4800000</ele>
        <time>2010-06-18T06:48:42Z</time>
      </trkpt>
      <trkpt lat="48.9566360" lon="8.5737180">
        <ele>165.4800000</ele>
        <time>2010-06-18T06:48:57Z</time>
      </trkpt>
      <trkpt lat="48.9566420" lon="8.5734020">
        <ele>165.0000000</ele>
        <time>2010-06-18T06:49:02Z</time>
      </trkpt>
      <trkpt lat="48.9566830" lon="8.5723880">
        <ele>166.4500000</ele>
        <time>2010-06-18T06:49:19Z</time>
      </trkpt>
      <trkpt lat="48.9567100" lon="8.5720970">
        <ele>165.9600000</ele>
        <time>2010-06-18T06:49:24Z</time>
      </trkpt>
      <trkpt lat="48.9567190" lon="8.5709180">
        <ele>165.9600000</ele>
        <time>2010-06-18T06:49:43Z</time>
      </trkpt>
      <trkpt lat="48.9567210" lon="8.5707930">
        <ele>165.4800000</ele>
        <time>2010-06-18T06:49:45Z</time>
      </trkpt>
      <trkpt lat="48.9566760" lon="8.5704050">
        <ele>165.4800000</ele>
        <time>2010-06-18T06:49:51Z</time>
      </trkpt>
      <trkpt lat="48.9566650" lon="8.5702160">
        <ele>165.4800000</ele>
        <time>2010-06-18T06:49:54Z</time>
      </trkpt>
      <trkpt lat="48.9566460" lon="8.5699040">
        <ele>164.0400000</ele>
        <time>2010-06-18T06:49:59Z</time>
      </trkpt>
      <trkpt lat="48.9566110" lon="8.5697150">
        <ele>164.5200000</ele>
        <time>2010-06-18T06:50:02Z</time>
      </trkpt>
      <trkpt lat="48.9565740" lon="8.5687580">
        <ele>163.0800000</ele>
        <time>2010-06-18T06:50:16Z</time>
      </trkpt>
      <trkpt lat="48.9567220" lon="8.5682020">
        <ele>163.5600000</ele>
        <time>2010-06-18T06:50:26Z</time>
      </trkpt>
      <trkpt lat="48.9571920" lon="8.5677590">
        <ele>165.4800000</ele>
        <time>2010-06-18T06:50:41Z</time>
      </trkpt>
      <trkpt lat="48.9574460" lon="8.5677740">
        <ele>166.4500000</ele>
        <time>2010-06-18T06:50:50Z</time>
      </trkpt>
      <trkpt lat="48.9575650" lon="8.5677640">
        <ele>166.4500000</ele>
        <time>2010-06-18T06:50:53Z</time>
      </trkpt>
      <trkpt lat="48.9576760" lon="8.5672500">
        <ele>165.0000000</ele>
        <time>2010-06-18T06:51:00Z</time>
      </trkpt>
      <trkpt lat="48.9576590" lon="8.5654600">
        <ele>162.6000000</ele>
        <time>2010-06-18T06:51:21Z</time>
      </trkpt>
      <trkpt lat="48.9577540" lon="8.5643590">
        <ele>162.1200000</ele>
        <time>2010-06-18T06:51:35Z</time>
      </trkpt>
      <trkpt lat="48.9577920" lon="8.5641440">
        <ele>161.1600000</ele>
        <time>2010-06-18T06:51:38Z</time>
      </trkpt>
      <trkpt lat="48.9579020" lon="8.5639000">
        <ele>162.1200000</ele>
        <time>2010-06-18T06:51:42Z</time>
      </trkpt>
      <trkpt lat="48.9584020" lon="8.5632320">
        <ele>161.6400000</ele>
        <time>2010-06-18T06:51:56Z</time>
      </trkpt>
      <trkpt lat="48.9585670" lon="8.5631340">
        <ele>161.6400000</ele>
        <time>2010-06-18T06:52:00Z</time>
      </trkpt>
      <trkpt lat="48.9593920" lon="8.5631970">
        <ele>162.6000000</ele>
        <time>2010-06-18T06:52:18Z</time>
      </trkpt>
      <trkpt lat="48.9596290" lon="8.5632620">
        <ele>162.6000000</ele>
        <time>2010-06-18T06:52:27Z</time>
      </trkpt>
      <trkpt lat="48.9597040" lon="8.5632100">
        <ele>163.0800000</ele>
        <time>2010-06-18T06:52:31Z</time>
      </trkpt>
      <trkpt lat="48.9598710" lon="8.5627870">
        <ele>162.1200000</ele>
        <time>2010-06-18T06:52:40Z</time>
      </trkpt>
      <trkpt lat="48.9598860" lon="8.5625100">
        <ele>162.1200000</ele>
        <time>2010-06-18T06:52:47Z</time>
      </trkpt>
      <trkpt lat="48.9598430" lon="8.5624440">
        <ele>162.1200000</ele>
        <time>2010-06-18T06:52:50Z</time>
      </trkpt>
      <trkpt lat="48.9599020" lon="8.5620530">
        <ele>161.1600000</ele>
        <time>2010-06-18T06:52:57Z</time>
      </trkpt>
      <trkpt lat="48.9604220" lon="8.5610600">
        <ele>160.6800000</ele>
        <time>2010-06-18T06:53:16Z</time>
      </trkpt>
      <trkpt lat="48.9609700" lon="8.5602270">
        <ele>158.2700000</ele>
        <time>2010-06-18T06:53:33Z</time>
      </trkpt>
      <trkpt lat="48.9610030" lon="8.5601780">
        <ele>158.7500000</ele>
        <time>2010-06-18T06:53:34Z</time>
      </trkpt>
      <trkpt lat="48.9611130" lon="8.5600500">
        <ele>158.2700000</ele>
        <time>2010-06-18T06:53:37Z</time>
      </trkpt>
      <trkpt lat="48.9614940" lon="8.5597990">
        <ele>158.7500000</ele>
        <time>2010-06-18T06:53:46Z</time>
      </trkpt>
      <trkpt lat="48.9618910" lon="8.5592420">
        <ele>158.2700000</ele>
        <time>2010-06-18T06:53:58Z</time>
      </trkpt>
      <trkpt lat="48.9620240" lon="8.5590790">
        <ele>158.2700000</ele>
        <time>2010-06-18T06:54:02Z</time>
      </trkpt>
      <trkpt lat="48.9622050" lon="8.5589210">
        <ele>158.2700000</ele>
        <time>2010-06-18T06:54:07Z</time>
      </trkpt>
      <trkpt lat="48.9624610" lon="8.5586620">
        <ele>157.7900000</ele>
        <time>2010-06-18T06:54:14Z</time>
      </trkpt>
      <trkpt lat="48.9626100" lon="8.5585210">
        <ele>158.7500000</ele>
        <time>2010-06-18T06:54:18Z</time>
      </trkpt>
      <trkpt lat="48.9628800" lon="8.5582990">
        <ele>158.2700000</ele>
        <time>2010-06-18T06:54:25Z</time>
      </trkpt>
      <trkpt lat="48.9635270" lon="8.5581430">
        <ele>158.2700000</ele>
        <time>2010-06-18T06:54:41Z</time>
      </trkpt>
      <trkpt lat="48.9638740" lon="8.5581850">
        <ele>158.7500000</ele>
        <time>2010-06-18T06:54:49Z</time>
      </trkpt>
      <trkpt lat="48.9639600" lon="8.5581820">
        <ele>158.7500000</ele>
        <time>2010-06-18T06:54:51Z</time>
      </trkpt>
      <trkpt lat="48.9642080" lon="8.5582180">
        <ele>158.2700000</ele>
        <time>2010-06-18T06:54:57Z</time>
      </trkpt>
      <trkpt lat="48.9645860" lon="8.5583820">
        <ele>158.2700000</ele>
        <time>2010-06-18T06:55:07Z</time>
      </trkpt>
      <trkpt lat="48.9649010" lon="8.5584770">
        <ele>158.2700000</ele>
        <time>2010-06-18T06:55:14Z</time>
      </trkpt>
      <trkpt lat="48.9650810" lon="8.5584630">
        <ele>158.7500000</ele>
        <time>2010-06-18T06:55:18Z</time>
      </trkpt>
      <trkpt lat="48.9655060" lon="8.5583810">
        <ele>157.3100000</ele>
        <time>2010-06-18T06:55:28Z</time>
      </trkpt>
      <trkpt lat="48.9656350" lon="8.5583910">
        <ele>157.3100000</ele>
        <time>2010-06-18T06:55:31Z</time>
      </trkpt>
      <trkpt lat="48.9661220" lon="8.5583470">
        <ele>157.7900000</ele>
        <time>2010-06-18T06:55:44Z</time>
      </trkpt>
      <trkpt lat="48.9665700" lon="8.5583250">
        <ele>158.2700000</ele>
        <time>2010-06-18T06:55:56Z</time>
      </trkpt>
      <trkpt lat="48.9668520" lon="8.5586330">
        <ele>157.7900000</ele>
        <time>2010-06-18T06:56:07Z</time>
      </trkpt>
      <trkpt lat="48.9670230" lon="8.5586200">
        <ele>157.3100000</ele>
        <time>2010-06-18T06:56:10Z</time>
      </trkpt>
      <trkpt lat="48.9677050" lon="8.5583120">
        <ele>157.7900000</ele>
        <time>2010-06-18T06:56:22Z</time>
      </trkpt>
      <trkpt lat="48.9681930" lon="8.5577260">
        <ele>156.8300000</ele>
        <time>2010-06-18T06:56:33Z</time>
      </trkpt>
      <trkpt lat="48.9683210" lon="8.5575570">
        <ele>157.3100000</ele>
        <time>2010-06-18T06:56:36Z</time>
      </trkpt>
      <trkpt lat="48.9687570" lon="8.5569120">
        <ele>157.3100000</ele>
        <time>2010-06-18T06:56:47Z</time>
      </trkpt>
      <trkpt lat="48.9690590" lon="8.5564190">
        <ele>157.3100000</ele>
        <time>2010-06-18T06:56:55Z</time>
      </trkpt>
      <trkpt lat="48.9694620" lon="8.5557350">
        <ele>156.8300000</ele>
        <time>2010-06-18T06:57:06Z</time>
      </trkpt>
      <trkpt lat="48.9697070" lon="8.5551560">
        <ele>157.7900000</ele>
        <time>2010-06-18T06:57:15Z</time>
      </trkpt>
      <trkpt lat="48.9701720" lon="8.5541940">
        <ele>156.3500000</ele>
        <time>2010-06-18T06:57:29Z</time>
      </trkpt>
      <trkpt lat="48.9702970" lon="8.5539130">
        <ele>156.3500000</ele>
        <time>2010-06-18T06:57:33Z</time>
      </trkpt>
      <trkpt lat="48.9705870" lon="8.5532830">
        <ele>156.8300000</ele>
        <time>2010-06-18T06:57:42Z</time>
      </trkpt>
      <trkpt lat="48.9707330" lon="8.5529500">
        <ele>156.3500000</ele>
        <time>2010-06-18T06:57:48Z</time>
      </trkpt>
      <trkpt lat="48.9708140" lon="8.5526910">
        <ele>155.8700000</ele>
        <time>2010-06-18T06:57:52Z</time>
      </trkpt>
      <trkpt lat="48.9710120" lon="8.5521880">
        <ele>155.8700000</ele>
        <time>2010-06-18T06:58:00Z</time>
      </trkpt>
      <trkpt lat="48.9712820" lon="8.5519140">
        <ele>155.8700000</ele>
        <time>2010-06-18T06:58:05Z</time>
      </trkpt>
      <trkpt lat="48.9718100" lon="8.5515550">
        <ele>159.2400000</ele>
        <time>2010-06-18T06:58:19Z</time>
      </trkpt>
      <trkpt lat="48.9720780" lon="8.5514840">
        <ele>161.1600000</ele>
        <time>2010-06-18T06:58:30Z</time>
      </trkpt>
      <trkpt lat="48.9723960" lon="8.5514150">
        <ele>163.5600000</ele>
        <time>2010-06-18T06:58:43Z</time>
      </trkpt>
      <trkpt lat="48.9728440" lon="8.5513600">
        <ele>165.4800000</ele>
        <time>2010-06-18T06:58:59Z</time>
      </trkpt>
      <trkpt lat="48.9733200" lon="8.5513770">
        <ele>166.4500000</ele>
        <time>2010-06-18T06:59:16Z</time>
      </trkpt>
      <trkpt lat="48.9736540" lon="8.5513840">
        <ele>164.5200000</ele>
        <time>2010-06-18T06:59:26Z</time>
      </trkpt>
      <trkpt lat="48.9736940" lon="8.5513840">
        <ele>164.0400000</ele>
        <time>2010-06-18T06:59:27Z</time>
      </trkpt>
      <trkpt lat="48.9737360" lon="8.5513780">
        <ele>164.5200000</ele>
        <time>2010-06-18T06:59:28Z</time>
      </trkpt>
      <trkpt lat="48.9743650" lon="8.5514620">
        <ele>160.6800000</ele>
        <time>2010-06-18T06:59:38Z</time>
      </trkpt>
      <trkpt lat="48.9744990" lon="8.5514910">
        <ele>159.7200000</ele>
        <time>2010-06-18T06:59:40Z</time>
      </trkpt>
      <trkpt lat="48.9751410" lon="8.5517640">
        <ele>159.2400000</ele>
        <time>2010-06-18T06:59:49Z</time>
      </trkpt>
      <trkpt lat="48.9754780" lon="8.5519870">
        <ele>159.2400000</ele>
        <time>2010-06-18T06:59:55Z</time>
      </trkpt>
      <trkpt lat="48.9763160" lon="8.5524040">
        <ele>157.7900000</ele>
        <time>2010-06-18T07:00:10Z</time>
      </trkpt>
      <trkpt lat="48.9771510" lon="8.5527400">
        <ele>157.3100000</ele>
        <time>2010-06-18T07:00:22Z</time>
      </trkpt>
      <trkpt lat="48.9777830" lon="8.5530100">
        <ele>155.8700000</ele>
        <time>2010-06-18T07:00:32Z</time>
      </trkpt>
      <trkpt lat="48.9780870" lon="8.5531180">
        <ele>153.4700000</ele>
        <time>2010-06-18T07:00:36Z</time>
      </trkpt>
      <trkpt lat="48.9782490" lon="8.5532060">
        <ele>152.0300000</ele>
        <time>2010-06-18T07:00:38Z</time>
      </trkpt>
      <trkpt lat="48.9790750" lon="8.5538010">
        <ele>152.0300000</ele>
        <time>2010-06-18T07:00:50Z</time>
      </trkpt>
      <trkpt lat="48.9796120" lon="8.5540210">
        <ele>150.5800000</ele>
        <time>2010-06-18T07:00:59Z</time>
      </trkpt>
      <trkpt lat="48.9799270" lon="8.5539360">
        <ele>151.0600000</ele>
        <time>2010-06-18T07:01:05Z</time>
      </trkpt>
      <trkpt lat="48.9801800" lon="8.5539090">
        <ele>150.5800000</ele>
        <time>2010-06-18T07:01:10Z</time>
      </trkpt>
      <trkpt lat="48.9803190" lon="8.5539670">
        <ele>150.1000000</ele>
        <time>2010-06-18T07:01:13Z</time>
      </trkpt>
      <trkpt lat="48.9809770" lon="8.5539300">
        <ele>150.1000000</ele>
        <time>2010-06-18T07:01:24Z</time>
      </trkpt>
      <trkpt lat="48.9811460" lon="8.5538510">
        <ele>150.1000000</ele>
        <time>2010-06-18T07:01:27Z</time>
      </trkpt>
      <trkpt lat="48.9814400" lon="8.5536390">
        <ele>150.1000000</ele>
        <time>2010-06-18T07:01:33Z</time>
      </trkpt>
      <trkpt lat="48.9815470" lon="8.5534770">
        <ele>150.5800000</ele>
        <time>2010-06-18T07:01:36Z</time>
      </trkpt>
      <trkpt lat="48.9822300" lon="8.5529890">
        <ele>150.1000000</ele>
        <time>2010-06-18T07:01:51Z</time>
      </trkpt>
      <trkpt lat="48.9825710" lon="8.5525110">
        <ele>150.1000000</ele>
        <time>2010-06-18T07:02:00Z</time>
      </trkpt>
      <trkpt lat="48.9831880" lon="8.5515820">
        <ele>150.1000000</ele>
        <time>2010-06-18T07:02:17Z</time>
      </trkpt>
      <trkpt lat="48.9836460" lon="8.5507060">
        <ele>150.5800000</ele>
        <time>2010-06-18T07:02:32Z</time>
      </trkpt>
      <trkpt lat="48.9839370" lon="8.5498880">
        <ele>151.0600000</ele>
        <time>2010-06-18T07:02:47Z</time>
      </trkpt>
      <trkpt lat="48.9840640" lon="8.5496500">
        <ele>148.6600000</ele>
        <time>2010-06-18T07:02:55Z</time>
      </trkpt>
      <trkpt lat="48.9840490" lon="8.5496020">
        <ele>148.1800000</ele>
        <time>2010-06-18T07:03:00Z</time>
      </trkpt>
      <trkpt lat="48.9839860" lon="8.5496470">
        <ele>147.7000000</ele>
        <time>2010-06-18T07:03:08Z</time>
      </trkpt>
      <trkpt lat="48.9840040" lon="8.5494090">
        <ele>148.1800000</ele>
        <time>2010-06-18T07:03:14Z</time>
      </trkpt>
      <trkpt lat="48.9843660" lon="8.5488130">
        <ele>148.6600000</ele>
        <time>2010-06-18T07:03:28Z</time>
      </trkpt>
      <trkpt lat="48.9848830" lon="8.5479540">
        <ele>148.6600000</ele>
        <time>2010-06-18T07:03:46Z</time>
      </trkpt>
      <trkpt lat="48.9849110" lon="8.5479010">
        <ele>148.6600000</ele>
        <time>2010-06-18T07:03:47Z</time>
      </trkpt>
      <trkpt lat="48.9851510" lon="8.5474570">
        <ele>148.1800000</ele>
        <time>2010-06-18T07:03:55Z</time>
      </trkpt>
      <trkpt lat="48.9855620" lon="8.5467470">
        <ele>148.6600000</ele>
        <time>2010-06-18T07:04:08Z</time>
      </trkpt>
      <trkpt lat="48.9858500" lon="8.5462750">
        <ele>148.1800000</ele>
        <time>2010-06-18T07:04:17Z</time>
      </trkpt>
      <trkpt lat="48.9862990" lon="8.5455300">
        <ele>148.1800000</ele>
        <time>2010-06-18T07:04:31Z</time>
      </trkpt>
      <trkpt lat="48.9865220" lon="8.5451490">
        <ele>148.1800000</ele>
        <time>2010-06-18T07:04:38Z</time>
      </trkpt>
      <trkpt lat="48.9870840" lon="8.5442130">
        <ele>147.7000000</ele>
        <time>2010-06-18T07:04:55Z</time>
      </trkpt>
      <trkpt lat="48.9875640" lon="8.5435640">
        <ele>148.6600000</ele>
        <time>2010-06-18T07:05:11Z</time>
      </trkpt>
      <trkpt lat="48.9876910" lon="8.5433520">
        <ele>148.1800000</ele>
        <time>2010-06-18T07:05:21Z</time>
      </trkpt>
      <trkpt lat="48.9877460" lon="8.5432400">
        <ele>148.1800000</ele>
        <time>2010-06-18T07:05:25Z</time>
      </trkpt>
      <trkpt lat="48.9878220" lon="8.5430950">
        <ele>147.7000000</ele>
        <time>2010-06-18T07:05:28Z</time>
      </trkpt>
      <trkpt lat="48.9878880" lon="8.5430020">
        <ele>146.2600000</ele>
        <time>2010-06-18T07:05:30Z</time>
      </trkpt>
      <trkpt lat="48.9884840" lon="8.5423320">
        <ele>145.3000000</ele>
        <time>2010-06-18T07:05:44Z</time>
      </trkpt>
      <trkpt lat="48.9892330" lon="8.5413500">
        <ele>144.3400000</ele>
        <time>2010-06-18T07:06:02Z</time>
      </trkpt>
      <trkpt lat="48.9895810" lon="8.5408470">
        <ele>144.3400000</ele>
        <time>2010-06-18T07:06:11Z</time>
      </trkpt>
      <trkpt lat="48.9898830" lon="8.5405560">
        <ele>144.3400000</ele>
        <time>2010-06-18T07:06:18Z</time>
      </trkpt>
      <trkpt lat="48.9902810" lon="8.5403560">
        <ele>144.3400000</ele>
        <time>2010-06-18T07:06:27Z</time>
      </trkpt>
      <trkpt lat="48.9904870" lon="8.5402990">
        <ele>145.3000000</ele>
        <time>2010-06-18T07:06:31Z</time>
      </trkpt>
      <trkpt lat="48.9908420" lon="8.5401640">
        <ele>145.3000000</ele>
        <time>2010-06-18T07:06:38Z</time>
      </trkpt>
      <trkpt lat="48.9915430" lon="8.5399780">
        <ele>145.3000000</ele>
        <time>2010-06-18T07:06:52Z</time>
      </trkpt>
      <trkpt lat="48.9923040" lon="8.5396870">
        <ele>143.8500000</ele>
        <time>2010-06-18T07:07:07Z</time>
      </trkpt>
      <trkpt lat="48.9929080" lon="8.5393660">
        <ele>143.8500000</ele>
        <time>2010-06-18T07:07:19Z</time>
      </trkpt>
      <trkpt lat="48.9937060" lon="8.5389990">
        <ele>143.8500000</ele>
        <time>2010-06-18T07:07:34Z</time>
      </trkpt>
      <trkpt lat="48.9946380" lon="8.5384050">
        <ele>144.3400000</ele>
        <time>2010-06-18T07:07:52Z</time>
      </trkpt>
      <trkpt lat="48.9956250" lon="8.5380540">
        <ele>144.3400000</ele>
        <time>2010-06-18T07:08:10Z</time>
      </trkpt>
      <trkpt lat="48.9959680" lon="8.5379220">
        <ele>144.8200000</ele>
        <time>2010-06-18T07:08:17Z</time>
      </trkpt>
      <trkpt lat="48.9961650" lon="8.5378440">
        <ele>144.3400000</ele>
        <time>2010-06-18T07:08:21Z</time>
      </trkpt>
      <trkpt lat="48.9963170" lon="8.5378210">
        <ele>144.8200000</ele>
        <time>2010-06-18T07:08:24Z</time>
      </trkpt>
      <trkpt lat="48.9964650" lon="8.5380980">
        <ele>145.3000000</ele>
        <time>2010-06-18T07:08:29Z</time>
      </trkpt>
      <trkpt lat="48.9965460" lon="8.5385700">
        <ele>144.8200000</ele>
        <time>2010-06-18T07:08:35Z</time>
      </trkpt>
      <trkpt lat="48.9968310" lon="8.5387470">
        <ele>144.8200000</ele>
        <time>2010-06-18T07:08:42Z</time>
      </trkpt>
      <trkpt lat="48.9978240" lon="8.5384110">
        <ele>145.3000000</ele>
        <time>2010-06-18T07:09:01Z</time>
      </trkpt>
      <trkpt lat="48.9987680" lon="8.5381270">
        <ele>144.3400000</ele>
        <time>2010-06-18T07:09:18Z</time>
      </trkpt>
      <trkpt lat="48.9998940" lon="8.5377330">
        <ele>143.3700000</ele>
        <time>2010-06-18T07:09:39Z</time>
      </trkpt>
      <trkpt lat="49.0007620" lon="8.5372760">
        <ele>140.9700000</ele>
        <time>2010-06-18T07:09:57Z</time>
      </trkpt>
      <trkpt lat="49.0014600" lon="8.5367830">
        <ele>140.9700000</ele>
        <time>2010-06-18T07:10:13Z</time>
      </trkpt>
      <trkpt lat="49.0022330" lon="8.5360400">
        <ele>141.4500000</ele>
        <time>2010-06-18T07:10:32Z</time>
      </trkpt>
      <trkpt lat="49.0027340" lon="8.5354320">
        <ele>141.9300000</ele>
        <time>2010-06-18T07:10:45Z</time>
      </trkpt>
      <trkpt lat="49.0029620" lon="8.5351770">
        <ele>141.4500000</ele>
        <time>2010-06-18T07:10:51Z</time>
      </trkpt>
      <trkpt lat="49.0030000" lon="8.5351360">
        <ele>140.9700000</ele>
        <time>2010-06-18T07:10:52Z</time>
      </trkpt>
      <trkpt lat="49.0033310" lon="8.5347480">
        <ele>142.4100000</ele>
        <time>2010-06-18T07:11:01Z</time>
      </trkpt>
      <trkpt lat="49.0034090" lon="8.5346820">
        <ele>142.4100000</ele>
        <time>2010-06-18T07:11:03Z</time>
      </trkpt>
      <trkpt lat="49.0034400" lon="8.5346310">
        <ele>142.4100000</ele>
        <time>2010-06-18T07:11:04Z</time>
      </trkpt>
      <trkpt lat="49.0034930" lon="8.5345110">
        <ele>141.9300000</ele>
        <time>2010-06-18T07:11:06Z</time>
      </trkpt>
      <trkpt lat="49.0035240" lon="8.5344590">
        <ele>141.9300000</ele>
        <time>2010-06-18T07:11:07Z</time>
      </trkpt>
      <trkpt lat="49.0035590" lon="8.5344080">
        <ele>141.9300000</ele>
        <time>2010-06-18T07:11:08Z</time>
      </trkpt>
      <trkpt lat="49.0035950" lon="8.5343580">
        <ele>141.9300000</ele>
        <time>2010-06-18T07:11:09Z</time>
      </trkpt>
      <trkpt lat="49.0036320" lon="8.5343060">
        <ele>141.9300000</ele>
        <time>2010-06-18T07:11:10Z</time>
      </trkpt>
      <trkpt lat="49.0039110" lon="8.5338960">
        <ele>141.4500000</ele>
        <time>2010-06-18T07:11:18Z</time>
      </trkpt>
      <trkpt lat="49.0039520" lon="8.5338580">
        <ele>141.4500000</ele>
        <time>2010-06-18T07:11:19Z</time>
      </trkpt>
      <trkpt lat="49.0039900" lon="8.5338180">
        <ele>141.4500000</ele>
        <time>2010-06-18T07:11:20Z</time>
      </trkpt>
      <trkpt lat="49.0040170" lon="8.5337610">
        <ele>141.9300000</ele>
        <time>2010-06-18T07:11:21Z</time>
      </trkpt>
      <trkpt lat="49.0040370" lon="8.5336950">
        <ele>141.4500000</ele>
        <time>2010-06-18T07:11:22Z</time>
      </trkpt>
      <trkpt lat="49.0040590" lon="8.5336300">
        <ele>140.9700000</ele>
        <time>2010-06-18T07:11:23Z</time>
      </trkpt>
      <trkpt lat="49.0040850" lon="8.5335670">
        <ele>141.4500000</ele>
        <time>2010-06-18T07:11:24Z</time>
      </trkpt>
      <trkpt lat="49.0046980" lon="8.5324240">
        <ele>140.9700000</ele>
        <time>2010-06-18T07:11:44Z</time>
      </trkpt>
      <trkpt lat="49.0052410" lon="8.5312990">
        <ele>141.4500000</ele>
        <time>2010-06-18T07:12:04Z</time>
      </trkpt>
      <trkpt lat="49.0052540" lon="8.5312440">
        <ele>141.4500000</ele>
        <time>2010-06-18T07:12:05Z</time>
      </trkpt>
      <trkpt lat="49.0052630" lon="8.5311900">
        <ele>141.4500000</ele>
        <time>2010-06-18T07:12:06Z</time>
      </trkpt>
      <trkpt lat="49.0053230" lon="8.5309010">
        <ele>141.4500000</ele>
        <time>2010-06-18T07:12:12Z</time>
      </trkpt>
      <trkpt lat="49.0053520" lon="8.5308630">
        <ele>141.4500000</ele>
        <time>2010-06-18T07:12:13Z</time>
      </trkpt>
      <trkpt lat="49.0053860" lon="8.5308280">
        <ele>141.4500000</ele>
        <time>2010-06-18T07:12:14Z</time>
      </trkpt>
      <trkpt lat="49.0054190" lon="8.5307830">
        <ele>140.9700000</ele>
        <time>2010-06-18T07:12:15Z</time>
      </trkpt>
      <trkpt lat="49.0054460" lon="8.5307240">
        <ele>140.9700000</ele>
        <time>2010-06-18T07:12:16Z</time>
      </trkpt>
      <trkpt lat="49.0054660" lon="8.5306570">
        <ele>140.9700000</ele>
        <time>2010-06-18T07:12:17Z</time>
      </trkpt>
      <trkpt lat="49.0054860" lon="8.5305890">
        <ele>140.4900000</ele>
        <time>2010-06-18T07:12:18Z</time>
      </trkpt>
      <trkpt lat="49.0057740" lon="8.5296480">
        <ele>140.0100000</ele>
        <time>2010-06-18T07:12:33Z</time>
      </trkpt>
      <trkpt lat="49.0059920" lon="8.5289590">
        <ele>140.4900000</ele>
        <time>2010-06-18T07:12:47Z</time>
      </trkpt>
      <trkpt lat="49.0060610" lon="8.5286580">
        <ele>140.0100000</ele>
        <time>2010-06-18T07:12:58Z</time>
      </trkpt>
      <trkpt lat="49.0061030" lon="8.5284270">
        <ele>140.0100000</ele>
        <time>2010-06-18T07:13:32Z</time>
      </trkpt>
      <trkpt lat="49.0061630" lon="8.5279640">
        <ele>138.0900000</ele>
        <time>2010-06-18T07:13:42Z</time>
      </trkpt>
      <trkpt lat="49.0062700" lon="8.5272990">
        <ele>138.0900000</ele>
        <time>2010-06-18T07:13:54Z</time>
      </trkpt>
      <trkpt lat="49.0062740" lon="8.5272380">
        <ele>138.0900000</ele>
        <time>2010-06-18T07:13:55Z</time>
      </trkpt>
      <trkpt lat="49.0062800" lon="8.5271760">
        <ele>137.6100000</ele>
        <time>2010-06-18T07:13:56Z</time>
      </trkpt>
      <trkpt lat="49.0062840" lon="8.5271130">
        <ele>138.0900000</ele>
        <time>2010-06-18T07:13:57Z</time>
      </trkpt>
      <trkpt lat="49.0062900" lon="8.5270530">
        <ele>137.6100000</ele>
        <time>2010-06-18T07:13:58Z</time>
      </trkpt>
      <trkpt lat="49.0063680" lon="8.5261600">
        <ele>137.1300000</ele>
        <time>2010-06-18T07:14:12Z</time>
      </trkpt>
      <trkpt lat="49.0064620" lon="8.5250880">
        <ele>137.6100000</ele>
        <time>2010-06-18T07:14:28Z</time>
      </trkpt>
      <trkpt lat="49.0064650" lon="8.5250190">
        <ele>138.0900000</ele>
        <time>2010-06-18T07:14:29Z</time>
      </trkpt>
      <trkpt lat="49.0064800" lon="8.5244000">
        <ele>138.0900000</ele>
        <time>2010-06-18T07:14:38Z</time>
      </trkpt>
      <trkpt lat="49.0064730" lon="8.5231870">
        <ele>137.6100000</ele>
        <time>2010-06-18T07:14:55Z</time>
      </trkpt>
      <trkpt lat="49.0063730" lon="8.5217200">
        <ele>137.1300000</ele>
        <time>2010-06-18T07:15:15Z</time>
      </trkpt>
      <trkpt lat="49.0063250" lon="8.5209690">
        <ele>136.6400000</ele>
        <time>2010-06-18T07:15:26Z</time>
      </trkpt>
      <trkpt lat="49.0063450" lon="8.5209300">
        <ele>136.1600000</ele>
        <time>2010-06-18T07:15:27Z</time>
      </trkpt>
      <trkpt lat="49.0063760" lon="8.5209070">
        <ele>136.1600000</ele>
        <time>2010-06-18T07:15:28Z</time>
      </trkpt>
      <trkpt lat="49.0067350" lon="8.5207990">
        <ele>137.1300000</ele>
        <time>2010-06-18T07:15:38Z</time>
      </trkpt>
      <trkpt lat="49.0067610" lon="8.5207460">
        <ele>137.1300000</ele>
        <time>2010-06-18T07:15:39Z</time>
      </trkpt>
      <trkpt lat="49.0069310" lon="8.5202120">
        <ele>137.1300000</ele>
        <time>2010-06-18T07:15:47Z</time>
      </trkpt>
      <trkpt lat="49.0070420" lon="8.5200130">
        <ele>136.6400000</ele>
        <time>2010-06-18T07:15:51Z</time>
      </trkpt>
      <trkpt lat="49.0071100" lon="8.5199250">
        <ele>136.6400000</ele>
        <time>2010-06-18T07:15:53Z</time>
      </trkpt>
      <trkpt lat="49.0073230" lon="8.5195090">
        <ele>136.1600000</ele>
        <time>2010-06-18T07:16:00Z</time>
      </trkpt>
      <trkpt lat="49.0073550" lon="8.5194500">
        <ele>136.1600000</ele>
        <time>2010-06-18T07:16:01Z</time>
      </trkpt>
      <trkpt lat="49.0073810" lon="8.5193860">
        <ele>136.1600000</ele>
        <time>2010-06-18T07:16:02Z</time>
      </trkpt>
      <trkpt lat="49.0074010" lon="8.5193160">
        <ele>136.1600000</ele>
        <time>2010-06-18T07:16:03Z</time>
      </trkpt>
      <trkpt lat="49.0074220" lon="8.5192400">
        <ele>135.6800000</ele>
        <time>2010-06-18T07:16:04Z</time>
      </trkpt>
      <trkpt lat="49.0074470" lon="8.5191600">
        <ele>134.7200000</ele>
        <time>2010-06-18T07:16:05Z</time>
      </trkpt>
      <trkpt lat="49.0075080" lon="8.5189800">
        <ele>133.7600000</ele>
        <time>2010-06-18T07:16:07Z</time>
      </trkpt>
      <trkpt lat="49.0075770" lon="8.5187890">
        <ele>133.7600000</ele>
        <time>2010-06-18T07:16:09Z</time>
      </trkpt>
      <trkpt lat="49.0076090" lon="8.5187020">
        <ele>133.2800000</ele>
        <time>2010-06-18T07:16:10Z</time>
      </trkpt>
      <trkpt lat="49.0077060" lon="8.5184920">
        <ele>134.7200000</ele>
        <time>2010-06-18T07:16:13Z</time>
      </trkpt>
      <trkpt lat="49.0078270" lon="8.5181990">
        <ele>136.1600000</ele>
        <time>2010-06-18T07:16:18Z</time>
      </trkpt>
      <trkpt lat="49.0078510" lon="8.5181420">
        <ele>136.6400000</ele>
        <time>2010-06-18T07:16:19Z</time>
      </trkpt>
      <trkpt lat="49.0078700" lon="8.5180810">
        <ele>136.1600000</ele>
        <time>2010-06-18T07:16:20Z</time>
      </trkpt>
      <trkpt lat="49.0080700" lon="8.5171300">
        <ele>136.1600000</ele>
        <time>2010-06-18T07:16:34Z</time>
      </trkpt>
      <trkpt lat="49.0081450" lon="8.5166470">
        <ele>135.6800000</ele>
        <time>2010-06-18T07:16:41Z</time>
      </trkpt>
      <trkpt lat="49.0081860" lon="8.5161730">
        <ele>135.6800000</ele>
        <time>2010-06-18T07:16:47Z</time>
      </trkpt>
      <trkpt lat="49.0081960" lon="8.5160110">
        <ele>135.2000000</ele>
        <time>2010-06-18T07:16:49Z</time>
      </trkpt>
      <trkpt lat="49.0081630" lon="8.5146590">
        <ele>134.7200000</ele>
        <time>2010-06-18T07:17:05Z</time>
      </trkpt>
      <trkpt lat="49.0081070" lon="8.5136660">
        <ele>134.2400000</ele>
        <time>2010-06-18T07:17:18Z</time>
      </trkpt>
      <trkpt lat="49.0080900" lon="8.5132580">
        <ele>134.2400000</ele>
        <time>2010-06-18T07:17:23Z</time>
      </trkpt>
      <trkpt lat="49.0080810" lon="8.5131810">
        <ele>134.2400000</ele>
        <time>2010-06-18T07:17:24Z</time>
      </trkpt>
      <trkpt lat="49.0080370" lon="8.5124150">
        <ele>133.7600000</ele>
        <time>2010-06-18T07:17:35Z</time>
      </trkpt>
      <trkpt lat="49.0080270" lon="8.5118050">
        <ele>133.7600000</ele>
        <time>2010-06-18T07:17:42Z</time>
      </trkpt>
      <trkpt lat="49.0080290" lon="8.5117290">
        <ele>133.7600000</ele>
        <time>2010-06-18T07:17:43Z</time>
      </trkpt>
      <trkpt lat="49.0080240" lon="8.5115620">
        <ele>133.7600000</ele>
        <time>2010-06-18T07:17:45Z</time>
      </trkpt>
      <trkpt lat="49.0079910" lon="8.5111200">
        <ele>133.7600000</ele>
        <time>2010-06-18T07:17:50Z</time>
      </trkpt>
      <trkpt lat="49.0079830" lon="8.5109700">
        <ele>133.2800000</ele>
        <time>2010-06-18T07:17:52Z</time>
      </trkpt>
      <trkpt lat="49.0079750" lon="8.5108300">
        <ele>133.7600000</ele>
        <time>2010-06-18T07:17:54Z</time>
      </trkpt>
      <trkpt lat="49.0079520" lon="8.5106370">
        <ele>133.7600000</ele>
        <time>2010-06-18T07:17:57Z</time>
      </trkpt>
      <trkpt lat="49.0079330" lon="8.5105710">
        <ele>133.7600000</ele>
        <time>2010-06-18T07:17:58Z</time>
      </trkpt>
      <trkpt lat="49.0079140" lon="8.5105040">
        <ele>133.7600000</ele>
        <time>2010-06-18T07:17:59Z</time>
      </trkpt>
      <trkpt lat="49.0078930" lon="8.5104380">
        <ele>133.7600000</ele>
        <time>2010-06-18T07:18:00Z</time>
      </trkpt>
      <trkpt lat="49.0078760" lon="8.5103730">
        <ele>133.7600000</ele>
        <time>2010-06-18T07:18:01Z</time>
      </trkpt>
      <trkpt lat="49.0078630" lon="8.5103130">
        <ele>133.7600000</ele>
        <time>2010-06-18T07:18:02Z</time>
      </trkpt>
      <trkpt lat="49.0078510" lon="8.5102570">
        <ele>134.2400000</ele>
        <time>2010-06-18T07:18:03Z</time>
      </trkpt>
      <trkpt lat="49.0078380" lon="8.5100000">
        <ele>133.7600000</ele>
        <time>2010-06-18T07:18:08Z</time>
      </trkpt>
      <trkpt lat="49.0078620" lon="8.5099540">
        <ele>133.7600000</ele>
        <time>2010-06-18T07:18:09Z</time>
      </trkpt>
      <trkpt lat="49.0078870" lon="8.5098990">
        <ele>134.2400000</ele>
        <time>2010-06-18T07:18:10Z</time>
      </trkpt>
      <trkpt lat="49.0079170" lon="8.5098450">
        <ele>134.2400000</ele>
        <time>2010-06-18T07:18:11Z</time>
      </trkpt>
      <trkpt lat="49.0079310" lon="8.5097800">
        <ele>134.7200000</ele>
        <time>2010-06-18T07:18:12Z</time>
      </trkpt>
      <trkpt lat="49.0079430" lon="8.5096970">
        <ele>134.7200000</ele>
        <time>2010-06-18T07:18:13Z</time>
      </trkpt>
      <trkpt lat="49.0079550" lon="8.5096170">
        <ele>134.7200000</ele>
        <time>2010-06-18T07:18:14Z</time>
      </trkpt>
      <trkpt lat="49.0079730" lon="8.5093850">
        <ele>135.2000000</ele>
        <time>2010-06-18T07:18:17Z</time>
      </trkpt>
      <trkpt lat="49.0079680" lon="8.5093120">
        <ele>135.2000000</ele>
        <time>2010-06-18T07:18:18Z</time>
      </trkpt>
      <trkpt lat="49.0079500" lon="8.5090770">
        <ele>135.2000000</ele>
        <time>2010-06-18T07:18:21Z</time>
      </trkpt>
      <trkpt lat="49.0078670" lon="8.5086560">
        <ele>135.2000000</ele>
        <time>2010-06-18T07:18:27Z</time>
      </trkpt>
      <trkpt lat="49.0078420" lon="8.5085900">
        <ele>134.7200000</ele>
        <time>2010-06-18T07:18:28Z</time>
      </trkpt>
      <trkpt lat="49.0076020" lon="8.5081200">
        <ele>134.7200000</ele>
        <time>2010-06-18T07:18:36Z</time>
      </trkpt>
      <trkpt lat="49.0075660" lon="8.5080670">
        <ele>134.2400000</ele>
        <time>2010-06-18T07:18:37Z</time>
      </trkpt>
      <trkpt lat="49.0075330" lon="8.5080100">
        <ele>134.2400000</ele>
        <time>2010-06-18T07:18:38Z</time>
      </trkpt>
      <trkpt lat="49.0072050" lon="8.5073970">
        <ele>133.7600000</ele>
        <time>2010-06-18T07:18:48Z</time>
      </trkpt>
      <trkpt lat="49.0071700" lon="8.5073340">
        <ele>133.7600000</ele>
        <time>2010-06-18T07:18:49Z</time>
      </trkpt>
      <trkpt lat="49.0067900" lon="8.5066340">
        <ele>132.8000000</ele>
        <time>2010-06-18T07:19:00Z</time>
      </trkpt>
      <trkpt lat="49.0066310" lon="8.5063610">
        <ele>132.8000000</ele>
        <time>2010-06-18T07:19:05Z</time>
      </trkpt>
      <trkpt lat="49.0065920" lon="8.5063000">
        <ele>132.8000000</ele>
        <time>2010-06-18T07:19:06Z</time>
      </trkpt>
      <trkpt lat="49.0065050" lon="8.5061040">
        <ele>132.8000000</ele>
        <time>2010-06-18T07:19:09Z</time>
      </trkpt>
      <trkpt lat="49.0064390" lon="8.5059050">
        <ele>132.8000000</ele>
        <time>2010-06-18T07:19:12Z</time>
      </trkpt>
      <trkpt lat="49.0060950" lon="8.5050240">
        <ele>132.3200000</ele>
        <time>2010-06-18T07:19:26Z</time>
      </trkpt>
      <trkpt lat="49.0060570" lon="8.5048920">
        <ele>132.8000000</ele>
        <time>2010-06-18T07:19:28Z</time>
      </trkpt>
      <trkpt lat="49.0059790" lon="8.5044880">
        <ele>132.8000000</ele>
        <time>2010-06-18T07:19:34Z</time>
      </trkpt>
      <trkpt lat="49.0059720" lon="8.5044310">
        <ele>132.8000000</ele>
        <time>2010-06-18T07:19:35Z</time>
      </trkpt>
      <trkpt lat="49.0059640" lon="8.5043700">
        <ele>131.8400000</ele>
        <time>2010-06-18T07:19:36Z</time>
      </trkpt>
      <trkpt lat="49.0059450" lon="8.5043190">
        <ele>132.3200000</ele>
        <time>2010-06-18T07:19:37Z</time>
      </trkpt>
      <trkpt lat="49.0059220" lon="8.5042780">
        <ele>132.3200000</ele>
        <time>2010-06-18T07:19:38Z</time>
      </trkpt>
      <trkpt lat="49.0058950" lon="8.5042320">
        <ele>132.3200000</ele>
        <time>2010-06-18T07:19:39Z</time>
      </trkpt>
      <trkpt lat="49.0058540" lon="8.5041300">
        <ele>132.3200000</ele>
        <time>2010-06-18T07:19:41Z</time>
      </trkpt>
      <trkpt lat="49.0058480" lon="8.5040670">
        <ele>132.3200000</ele>
        <time>2010-06-18T07:19:42Z</time>
      </trkpt>
      <trkpt lat="49.0058450" lon="8.5040020">
        <ele>132.3200000</ele>
        <time>2010-06-18T07:19:43Z</time>
      </trkpt>
      <trkpt lat="49.0058510" lon="8.5033200">
        <ele>130.8800000</ele>
        <time>2010-06-18T07:19:53Z</time>
      </trkpt>
      <trkpt lat="49.0058560" lon="8.5032520">
        <ele>131.3600000</ele>
        <time>2010-06-18T07:19:54Z</time>
      </trkpt>
      <trkpt lat="49.0059270" lon="8.5022380">
        <ele>131.8400000</ele>
        <time>2010-06-18T07:20:10Z</time>
      </trkpt>
      <trkpt lat="49.0059340" lon="8.5021760">
        <ele>131.3600000</ele>
        <time>2010-06-18T07:20:11Z</time>
      </trkpt>
      <trkpt lat="49.0059360" lon="8.5021110">
        <ele>131.8400000</ele>
        <time>2010-06-18T07:20:12Z</time>
      </trkpt>
      <trkpt lat="49.0059400" lon="8.5013680">
        <ele>129.9200000</ele>
        <time>2010-06-18T07:20:21Z</time>
      </trkpt>
      <trkpt lat="49.0059520" lon="8.5002810">
        <ele>129.4300000</ele>
        <time>2010-06-18T07:20:35Z</time>
      </trkpt>
      <trkpt lat="49.0059640" lon="8.5001350">
        <ele>129.9200000</ele>
        <time>2010-06-18T07:20:37Z</time>
      </trkpt>
      <trkpt lat="49.0059800" lon="8.5000680">
        <ele>129.4300000</ele>
        <time>2010-06-18T07:20:38Z</time>
      </trkpt>
      <trkpt lat="49.0060060" lon="8.5000050">
        <ele>129.4300000</ele>
        <time>2010-06-18T07:20:39Z</time>
      </trkpt>
      <trkpt lat="49.0060470" lon="8.4999400">
        <ele>129.4300000</ele>
        <time>2010-06-18T07:20:40Z</time>
      </trkpt>
      <trkpt lat="49.0060830" lon="8.4998780">
        <ele>130.4000000</ele>
        <time>2010-06-18T07:20:41Z</time>
      </trkpt>
      <trkpt lat="49.0063390" lon="8.4992620">
        <ele>129.9200000</ele>
        <time>2010-06-18T07:20:51Z</time>
      </trkpt>
      <trkpt lat="49.0063740" lon="8.4989050">
        <ele>129.4300000</ele>
        <time>2010-06-18T07:20:56Z</time>
      </trkpt>
      <trkpt lat="49.0063900" lon="8.4985190">
        <ele>129.9200000</ele>
        <time>2010-06-18T07:21:01Z</time>
      </trkpt>
      <trkpt lat="49.0064020" lon="8.4984450">
        <ele>129.9200000</ele>
        <time>2010-06-18T07:21:02Z</time>
      </trkpt>
      <trkpt lat="49.0064180" lon="8.4983700">
        <ele>129.9200000</ele>
        <time>2010-06-18T07:21:03Z</time>
      </trkpt>
      <trkpt lat="49.0064360" lon="8.4982950">
        <ele>129.9200000</ele>
        <time>2010-06-18T07:21:04Z</time>
      </trkpt>
      <trkpt lat="49.0064590" lon="8.4982240">
        <ele>129.9200000</ele>
        <time>2010-06-18T07:21:05Z</time>
      </trkpt>
      <trkpt lat="49.0066260" lon="8.4977340">
        <ele>129.4300000</ele>
        <time>2010-06-18T07:21:12Z</time>
      </trkpt>
      <trkpt lat="49.0069640" lon="8.4967390">
        <ele>128.9500000</ele>
        <time>2010-06-18T07:21:27Z</time>
      </trkpt>
      <trkpt lat="49.0070140" lon="8.4963170">
        <ele>127.5100000</ele>
        <time>2010-06-18T07:21:37Z</time>
      </trkpt>
      <trkpt lat="49.0070710" lon="8.4956870">
        <ele>127.5100000</ele>
        <time>2010-06-18T07:21:48Z</time>
      </trkpt>
      <trkpt lat="49.0072410" lon="8.4954250">
        <ele>127.9900000</ele>
        <time>2010-06-18T07:21:54Z</time>
      </trkpt>
      <trkpt lat="49.0074000" lon="8.4953230">
        <ele>127.5100000</ele>
        <time>2010-06-18T07:21:58Z</time>
      </trkpt>
      <trkpt lat="49.0074950" lon="8.4949820">
        <ele>127.5100000</ele>
        <time>2010-06-18T07:22:04Z</time>
      </trkpt>
      <trkpt lat="49.0075330" lon="8.4937260">
        <ele>127.5100000</ele>
        <time>2010-06-18T07:22:21Z</time>
      </trkpt>
      <trkpt lat="49.0075880" lon="8.4925280">
        <ele>126.5500000</ele>
        <time>2010-06-18T07:22:37Z</time>
      </trkpt>
      <trkpt lat="49.0076600" lon="8.4916650">
        <ele>127.5100000</ele>
        <time>2010-06-18T07:22:48Z</time>
      </trkpt>
      <trkpt lat="49.0077330" lon="8.4910380">
        <ele>127.0300000</ele>
        <time>2010-06-18T07:22:56Z</time>
      </trkpt>
      <trkpt lat="49.0076170" lon="8.4908380">
        <ele>127.9900000</ele>
        <time>2010-06-18T07:23:01Z</time>
      </trkpt>
      <trkpt lat="49.0072700" lon="8.4906240">
        <ele>128.9500000</ele>
        <time>2010-06-18T07:23:12Z</time>
      </trkpt>
      <trkpt lat="49.0072720" lon="8.4904950">
        <ele>128.4700000</ele>
        <time>2010-06-18T07:23:17Z</time>
      </trkpt>
      <trkpt lat="49.0072700" lon="8.4904440">
        <ele>128.9500000</ele>
        <time>2010-06-18T07:23:19Z</time>
      </trkpt>
      <trkpt lat="49.0073190" lon="8.4903340">
        <ele>127.9900000</ele>
        <time>2010-06-18T07:23:22Z</time>
      </trkpt>
      <trkpt lat="49.0073670" lon="8.4901270">
        <ele>126.5500000</ele>
        <time>2010-06-18T07:23:25Z</time>
      </trkpt>
      <trkpt lat="49.0073800" lon="8.4900450">
        <ele>125.5900000</ele>
        <time>2010-06-18T07:23:26Z</time>
      </trkpt>
      <trkpt lat="49.0076730" lon="8.4889130">
        <ele>124.6300000</ele>
        <time>2010-06-18T07:23:41Z</time>
      </trkpt>
      <trkpt lat="49.0077150" lon="8.4886170">
        <ele>124.6300000</ele>
        <time>2010-06-18T07:23:45Z</time>
      </trkpt>
      <trkpt lat="49.0077390" lon="8.4880850">
        <ele>124.6300000</ele>
        <time>2010-06-18T07:23:52Z</time>
      </trkpt>
      <trkpt lat="49.0077590" lon="8.4879320">
        <ele>125.1100000</ele>
        <time>2010-06-18T07:23:54Z</time>
      </trkpt>
      <trkpt lat="49.0079810" lon="8.4868130">
        <ele>126.0700000</ele>
        <time>2010-06-18T07:24:09Z</time>
      </trkpt>
      <trkpt lat="49.0080650" lon="8.4862330">
        <ele>124.6300000</ele>
        <time>2010-06-18T07:24:17Z</time>
      </trkpt>
      <trkpt lat="49.0081870" lon="8.4855460">
        <ele>123.1900000</ele>
        <time>2010-06-18T07:24:25Z</time>
      </trkpt>
      <trkpt lat="49.0082600" lon="8.4849730">
        <ele>123.6700000</ele>
        <time>2010-06-18T07:24:32Z</time>
      </trkpt>
      <trkpt lat="49.0083460" lon="8.4840730">
        <ele>125.1100000</ele>
        <time>2010-06-18T07:24:43Z</time>
      </trkpt>
      <trkpt lat="49.0083380" lon="8.4837410">
        <ele>126.0700000</ele>
        <time>2010-06-18T07:24:48Z</time>
      </trkpt>
      <trkpt lat="49.0083360" lon="8.4829550">
        <ele>125.5900000</ele>
        <time>2010-06-18T07:25:00Z</time>
      </trkpt>
      <trkpt lat="49.0084000" lon="8.4816580">
        <ele>124.1500000</ele>
        <time>2010-06-18T07:25:16Z</time>
      </trkpt>
      <trkpt lat="49.0083620" lon="8.4810750">
        <ele>124.6300000</ele>
        <time>2010-06-18T07:25:24Z</time>
      </trkpt>
      <trkpt lat="49.0082950" lon="8.4799870">
        <ele>124.1500000</ele>
        <time>2010-06-18T07:25:38Z</time>
      </trkpt>
      <trkpt lat="49.0082380" lon="8.4792330">
        <ele>127.0300000</ele>
        <time>2010-06-18T07:25:49Z</time>
      </trkpt>
      <trkpt lat="49.0081960" lon="8.4783680">
        <ele>129.9200000</ele>
        <time>2010-06-18T07:26:07Z</time>
      </trkpt>
      <trkpt lat="49.0081960" lon="8.4780520">
        <ele>129.4300000</ele>
        <time>2010-06-18T07:26:16Z</time>
      </trkpt>
      <trkpt lat="49.0080910" lon="8.4779460">
        <ele>130.4000000</ele>
        <time>2010-06-18T07:26:22Z</time>
      </trkpt>
      <trkpt lat="49.0075200" lon="8.4779550">
        <ele>130.4000000</ele>
        <time>2010-06-18T07:26:37Z</time>
      </trkpt>
      <trkpt lat="49.0066680" lon="8.4779590">
        <ele>127.5100000</ele>
        <time>2010-06-18T07:26:53Z</time>
      </trkpt>
      <trkpt lat="49.0064910" lon="8.4779610">
        <ele>127.5100000</ele>
        <time>2010-06-18T07:26:56Z</time>
      </trkpt>
      <trkpt lat="49.0063980" lon="8.4779340">
        <ele>126.5500000</ele>
        <time>2010-06-18T07:26:58Z</time>
      </trkpt>
      <trkpt lat="49.0056030" lon="8.4779760">
        <ele>125.5900000</ele>
        <time>2010-06-18T07:27:10Z</time>
      </trkpt>
      <trkpt lat="49.0046410" lon="8.4781280">
        <ele>124.1500000</ele>
        <time>2010-06-18T07:27:25Z</time>
      </trkpt>
      <trkpt lat="49.0044490" lon="8.4781920">
        <ele>124.1500000</ele>
        <time>2010-06-18T07:27:29Z</time>
      </trkpt>
      <trkpt lat="49.0041300" lon="8.4783230">
        <ele>124.6300000</ele>
        <time>2010-06-18T07:27:35Z</time>
      </trkpt>
      <trkpt lat="49.0032790" lon="8.4786100">
        <ele>126.5500000</ele>
        <time>2010-06-18T07:27:53Z</time>
      </trkpt>
      <trkpt lat="49.0025810" lon="8.4785720">
        <ele>125.1100000</ele>
        <time>2010-06-18T07:28:08Z</time>
      </trkpt>
      <trkpt lat="49.0019780" lon="8.4785210">
        <ele>125.1100000</ele>
        <time>2010-06-18T07:28:23Z</time>
      </trkpt>
      <trkpt lat="49.0017230" lon="8.4783840">
        <ele>125.5900000</ele>
        <time>2010-06-18T07:28:30Z</time>
      </trkpt>
      <trkpt lat="49.0010940" lon="8.4780440">
        <ele>125.5900000</ele>
        <time>2010-06-18T07:28:47Z</time>
      </trkpt>
      <trkpt lat="49.0006360" lon="8.4775520">
        <ele>125.5900000</ele>
        <time>2010-06-18T07:29:01Z</time>
      </trkpt>
      <trkpt lat="49.0004950" lon="8.4772460">
        <ele>126.0700000</ele>
        <time>2010-06-18T07:29:10Z</time>
      </trkpt>
      <trkpt lat="49.0004580" lon="8.4771310">
        <ele>126.5500000</ele>
        <time>2010-06-18T07:29:13Z</time>
      </trkpt>
      <trkpt lat="49.0003380" lon="8.4772100">
        <ele>126.5500000</ele>
        <time>2010-06-18T07:29:19Z</time>
      </trkpt>
      <trkpt lat="49.0000550" lon="8.4779220">
        <ele>125.1100000</ele>
        <time>2010-06-18T07:29:34Z</time>
      </trkpt>
      <trkpt lat="48.9997600" lon="8.4785980">
        <ele>126.0700000</ele>
        <time>2010-06-18T07:29:49Z</time>
      </trkpt>
      <trkpt lat="48.9996340" lon="8.4787660">
        <ele>126.0700000</ele>
        <time>2010-06-18T07:29:55Z</time>
      </trkpt>
      <trkpt lat="48.9995370" lon="8.4787050">
        <ele>126.5500000</ele>
        <time>2010-06-18T07:29:59Z</time>
      </trkpt>
      <trkpt lat="48.9992700" lon="8.4784110">
        <ele>127.0300000</ele>
        <time>2010-06-18T07:30:10Z</time>
      </trkpt>
      <trkpt lat="48.9991970" lon="8.4783140">
        <ele>126.5500000</ele>
        <time>2010-06-18T07:30:13Z</time>
      </trkpt>
      <trkpt lat="48.9988830" lon="8.4780480">
        <ele>128.4700000</ele>
        <time>2010-06-18T07:30:24Z</time>
      </trkpt>
      <trkpt lat="48.9985250" lon="8.4776030">
        <ele>128.4700000</ele>
        <time>2010-06-18T07:30:37Z</time>
      </trkpt>
      <trkpt lat="48.9984520" lon="8.4774570">
        <ele>128.4700000</ele>
        <time>2010-06-18T07:30:42Z</time>
      </trkpt>
      <trkpt lat="48.9982840" lon="8.4774100">
        <ele>128.9500000</ele>
        <time>2010-06-18T07:30:49Z</time>
      </trkpt>
      <trkpt lat="48.9982140" lon="8.4773520">
        <ele>127.5100000</ele>
        <time>2010-06-18T07:30:52Z</time>
      </trkpt>
      <trkpt lat="48.9981170" lon="8.4772730">
        <ele>127.9900000</ele>
        <time>2010-06-18T07:30:56Z</time>
      </trkpt>
      <trkpt lat="48.9980790" lon="8.4772180">
        <ele>127.9900000</ele>
        <time>2010-06-18T07:31:09Z</time>
      </trkpt>
      <trkpt lat="48.9980790" lon="8.4772180">
        <ele>127.9900000</ele>
        <time>2010-06-18T07:31:18Z</time>
      </trkpt>
      <trkpt lat="48.9979510" lon="8.4771790">
        <ele>127.9900000</ele>
        <time>2010-06-18T07:31:28Z</time>
      </trkpt>
      <trkpt lat="48.9979510" lon="8.4771790">
        <ele>128.9500000</ele>
        <time>2010-06-18T07:32:04Z</time>
      </trkpt>
      <trkpt lat="48.9977770" lon="8.4770780">
        <ele>128.9500000</ele>
        <time>2010-06-18T07:32:10Z</time>
      </trkpt>
      <trkpt lat="48.9973250" lon="8.4767610">
        <ele>128.4700000</ele>
        <time>2010-06-18T07:32:23Z</time>
      </trkpt>
      <trkpt lat="48.9971220" lon="8.4766130">
        <ele>128.4700000</ele>
        <time>2010-06-18T07:32:32Z</time>
      </trkpt>
      <trkpt lat="48.9969920" lon="8.4764810">
        <ele>127.9900000</ele>
        <time>2010-06-18T07:32:37Z</time>
      </trkpt>
      <trkpt lat="48.9962340" lon="8.4759680">
        <ele>126.5500000</ele>
        <time>2010-06-18T07:32:54Z</time>
      </trkpt>
      <trkpt lat="48.9960470" lon="8.4758110">
        <ele>125.5900000</ele>
        <time>2010-06-18T07:32:58Z</time>
      </trkpt>
      <trkpt lat="48.9959640" lon="8.4757170">
        <ele>125.1100000</ele>
        <time>2010-06-18T07:33:00Z</time>
      </trkpt>
      <trkpt lat="48.9951790" lon="8.4750040">
        <ele>124.6300000</ele>
        <time>2010-06-18T07:33:16Z</time>
      </trkpt>
      <trkpt lat="48.9946370" lon="8.4747660">
        <ele>124.6300000</ele>
        <time>2010-06-18T07:33:26Z</time>
      </trkpt>
      <trkpt lat="48.9939540" lon="8.4743430">
        <ele>125.1100000</ele>
        <time>2010-06-18T07:33:40Z</time>
      </trkpt>
      <trkpt lat="48.9932180" lon="8.4736000">
        <ele>125.1100000</ele>
        <time>2010-06-18T07:33:57Z</time>
      </trkpt>
      <trkpt lat="48.9925280" lon="8.4732500">
        <ele>123.6700000</ele>
        <time>2010-06-18T07:34:11Z</time>
      </trkpt>
      <trkpt lat="48.9920540" lon="8.4730550">
        <ele>124.6300000</ele>
        <time>2010-06-18T07:34:24Z</time>
      </trkpt>
      <trkpt lat="48.9918080" lon="8.4729650">
        <ele>124.1500000</ele>
        <time>2010-06-18T07:34:55Z</time>
      </trkpt>
      <trkpt lat="48.9916630" lon="8.4729030">
        <ele>125.5900000</ele>
        <time>2010-06-18T07:34:58Z</time>
      </trkpt>
      <trkpt lat="48.9915150" lon="8.4728470">
        <ele>124.1500000</ele>
        <time>2010-06-18T07:35:01Z</time>
      </trkpt>
      <trkpt lat="48.9907600" lon="8.4724300">
        <ele>124.6300000</ele>
        <time>2010-06-18T07:35:17Z</time>
      </trkpt>
      <trkpt lat="48.9904180" lon="8.4721980">
        <ele>125.1100000</ele>
        <time>2010-06-18T07:35:25Z</time>
      </trkpt>
      <trkpt lat="48.9897750" lon="8.4716670">
        <ele>126.0700000</ele>
        <time>2010-06-18T07:35:41Z</time>
      </trkpt>
      <trkpt lat="48.9894270" lon="8.4713610">
        <ele>126.0700000</ele>
        <time>2010-06-18T07:35:50Z</time>
      </trkpt>
      <trkpt lat="48.9885600" lon="8.4705690">
        <ele>127.9900000</ele>
        <time>2010-06-18T07:36:13Z</time>
      </trkpt>
      <trkpt lat="48.9881110" lon="8.4701330">
        <ele>127.9900000</ele>
        <time>2010-06-18T07:36:25Z</time>
      </trkpt>
      <trkpt lat="48.9879830" lon="8.4699560">
        <ele>127.9900000</ele>
        <time>2010-06-18T07:36:29Z</time>
      </trkpt>
      <trkpt lat="48.9878670" lon="8.4698370">
        <ele>127.5100000</ele>
        <time>2010-06-18T07:36:32Z</time>
      </trkpt>
      <trkpt lat="48.9877360" lon="8.4697470">
        <ele>127.5100000</ele>
        <time>2010-06-18T07:36:35Z</time>
      </trkpt>
      <trkpt lat="48.9868780" lon="8.4687980">
        <ele>126.0700000</ele>
        <time>2010-06-18T07:36:56Z</time>
      </trkpt>
      <trkpt lat="48.9865970" lon="8.4684710">
        <ele>126.0700000</ele>
        <time>2010-06-18T07:37:03Z</time>
      </trkpt>
      <trkpt lat="48.9860640" lon="8.4678150">
        <ele>126.0700000</ele>
        <time>2010-06-18T07:37:17Z</time>
      </trkpt>
      <trkpt lat="48.9859890" lon="8.4677290">
        <ele>125.5900000</ele>
        <time>2010-06-18T07:37:19Z</time>
      </trkpt>
      <trkpt lat="48.9857710" lon="8.4674750">
        <ele>126.0700000</ele>
        <time>2010-06-18T07:37:25Z</time>
      </trkpt>
      <trkpt lat="48.9854770" lon="8.4670520">
        <ele>126.5500000</ele>
        <time>2010-06-18T07:37:34Z</time>
      </trkpt>
      <trkpt lat="48.9850860" lon="8.4661380">
        <ele>126.0700000</ele>
        <time>2010-06-18T07:37:50Z</time>
      </trkpt>
      <trkpt lat="48.9845700" lon="8.4648990">
        <ele>126.0700000</ele>
        <time>2010-06-18T07:38:11Z</time>
      </trkpt>
      <trkpt lat="48.9840650" lon="8.4639400">
        <ele>127.0300000</ele>
        <time>2010-06-18T07:38:31Z</time>
      </trkpt>
      <trkpt lat="48.9834850" lon="8.4629970">
        <ele>127.5100000</ele>
        <time>2010-06-18T07:38:52Z</time>
      </trkpt>
      <trkpt lat="48.9833230" lon="8.4627430">
        <ele>128.9500000</ele>
        <time>2010-06-18T07:38:58Z</time>
      </trkpt>
      <trkpt lat="48.9829520" lon="8.4621400">
        <ele>129.4300000</ele>
        <time>2010-06-18T07:39:12Z</time>
      </trkpt>
      <trkpt lat="48.9825890" lon="8.4617890">
        <ele>129.4300000</ele>
        <time>2010-06-18T07:39:24Z</time>
      </trkpt>
      <trkpt lat="48.9825690" lon="8.4617470">
        <ele>129.4300000</ele>
        <time>2010-06-18T07:39:26Z</time>
      </trkpt>
      <trkpt lat="48.9824480" lon="8.4618130">
        <ele>129.4300000</ele>
        <time>2010-06-18T07:39:37Z</time>
      </trkpt>
      <trkpt lat="48.9824480" lon="8.4618130">
        <ele>129.4300000</ele>
        <time>2010-06-18T07:39:47Z</time>
      </trkpt>
      <trkpt lat="48.9823360" lon="8.4617330">
        <ele>128.9500000</ele>
        <time>2010-06-18T07:39:53Z</time>
      </trkpt>
      <trkpt lat="48.9822160" lon="8.4616140">
        <ele>129.4300000</ele>
        <time>2010-06-18T07:39:57Z</time>
      </trkpt>
      <trkpt lat="48.9819090" lon="8.4615490">
        <ele>128.9500000</ele>
        <time>2010-06-18T07:40:05Z</time>
      </trkpt>
      <trkpt lat="48.9811580" lon="8.4608250">
        <ele>127.9900000</ele>
        <time>2010-06-18T07:40:23Z</time>
      </trkpt>
      <trkpt lat="48.9804370" lon="8.4600060">
        <ele>128.9500000</ele>
        <time>2010-06-18T07:40:42Z</time>
      </trkpt>
      <trkpt lat="48.9797740" lon="8.4595030">
        <ele>131.3600000</ele>
        <time>2010-06-18T07:41:01Z</time>
      </trkpt>
      <trkpt lat="48.9795330" lon="8.4592090">
        <ele>131.8400000</ele>
        <time>2010-06-18T07:41:10Z</time>
      </trkpt>
      <trkpt lat="48.9788950" lon="8.4586380">
        <ele>133.7600000</ele>
        <time>2010-06-18T07:41:29Z</time>
      </trkpt>
      <trkpt lat="48.9785000" lon="8.4582890">
        <ele>135.2000000</ele>
        <time>2010-06-18T07:41:39Z</time>
      </trkpt>
      <trkpt lat="48.9779860" lon="8.4579690">
        <ele>137.1300000</ele>
        <time>2010-06-18T07:41:54Z</time>
      </trkpt>
      <trkpt lat="48.9776390" lon="8.4577210">
        <ele>137.6100000</ele>
        <time>2010-06-18T07:42:05Z</time>
      </trkpt>
      <trkpt lat="48.9771770" lon="8.4572040">
        <ele>139.5300000</ele>
        <time>2010-06-18T07:42:21Z</time>
      </trkpt>
      <trkpt lat="48.9767470" lon="8.4566960">
        <ele>140.0100000</ele>
        <time>2010-06-18T07:42:36Z</time>
      </trkpt>
      <trkpt lat="48.9762310" lon="8.4560320">
        <ele>139.5300000</ele>
        <time>2010-06-18T07:42:52Z</time>
      </trkpt>
      <trkpt lat="48.9760830" lon="8.4558650">
        <ele>138.5700000</ele>
        <time>2010-06-18T07:42:56Z</time>
      </trkpt>
      <trkpt lat="48.9759320" lon="8.4557010">
        <ele>138.5700000</ele>
        <time>2010-06-18T07:43:00Z</time>
      </trkpt>
      <trkpt lat="48.9757510" lon="8.4554700">
        <ele>137.1300000</ele>
        <time>2010-06-18T07:43:05Z</time>
      </trkpt>
      <trkpt lat="48.9750590" lon="8.4546970">
        <ele>136.1600000</ele>
        <time>2010-06-18T07:43:23Z</time>
      </trkpt>
      <trkpt lat="48.9750190" lon="8.4546490">
        <ele>136.1600000</ele>
        <time>2010-06-18T07:43:24Z</time>
      </trkpt>
      <trkpt lat="48.9744120" lon="8.4537170">
        <ele>135.6800000</ele>
        <time>2010-06-18T07:43:40Z</time>
      </trkpt>
      <trkpt lat="48.9742430" lon="8.4534890">
        <ele>135.6800000</ele>
        <time>2010-06-18T07:43:44Z</time>
      </trkpt>
      <trkpt lat="48.9738150" lon="8.4527070">
        <ele>137.1300000</ele>
        <time>2010-06-18T07:43:59Z</time>
      </trkpt>
      <trkpt lat="48.9732600" lon="8.4519900">
        <ele>140.4900000</ele>
        <time>2010-06-18T07:44:16Z</time>
      </trkpt>
      <trkpt lat="48.9730760" lon="8.4518360">
        <ele>140.9700000</ele>
        <time>2010-06-18T07:44:21Z</time>
      </trkpt>
      <trkpt lat="48.9725940" lon="8.4513570">
        <ele>142.4100000</ele>
        <time>2010-06-18T07:44:35Z</time>
      </trkpt>
      <trkpt lat="48.9724650" lon="8.4512050">
        <ele>142.4100000</ele>
        <time>2010-06-18T07:44:39Z</time>
      </trkpt>
      <trkpt lat="48.9719240" lon="8.4506080">
        <ele>143.3700000</ele>
        <time>2010-06-18T07:44:56Z</time>
      </trkpt>
      <trkpt lat="48.9715430" lon="8.4501650">
        <ele>143.8500000</ele>
        <time>2010-06-18T07:45:09Z</time>
      </trkpt>
      <trkpt lat="48.9713320" lon="8.4495960">
        <ele>143.8500000</ele>
        <time>2010-06-18T07:45:21Z</time>
      </trkpt>
      <trkpt lat="48.9712890" lon="8.4493030">
        <ele>144.8200000</ele>
        <time>2010-06-18T07:45:32Z</time>
      </trkpt>
      <trkpt lat="48.9712890" lon="8.4492940">
        <ele>144.3400000</ele>
        <time>2010-06-18T07:45:43Z</time>
      </trkpt>
      <trkpt lat="48.9712920" lon="8.4491800">
        <ele>143.8500000</ele>
        <time>2010-06-18T07:45:49Z</time>
      </trkpt>
      <trkpt lat="48.9713530" lon="8.4490360">
        <ele>142.8900000</ele>
        <time>2010-06-18T07:46:01Z</time>
      </trkpt>
      <trkpt lat="48.9714320" lon="8.4488980">
        <ele>142.4100000</ele>
        <time>2010-06-18T07:46:41Z</time>
      </trkpt>
      <trkpt lat="48.9714610" lon="8.4488670">
        <ele>142.4100000</ele>
        <time>2010-06-18T07:46:42Z</time>
      </trkpt>
      <trkpt lat="48.9716200" lon="8.4483910">
        <ele>139.5300000</ele>
        <time>2010-06-18T07:46:49Z</time>
      </trkpt>
      <trkpt lat="48.9716140" lon="8.4481840">
        <ele>138.5700000</ele>
        <time>2010-06-18T07:46:51Z</time>
      </trkpt>
      <trkpt lat="48.9715940" lon="8.4470470">
        <ele>135.6800000</ele>
        <time>2010-06-18T07:47:01Z</time>
      </trkpt>
      <trkpt lat="48.9715530" lon="8.4454980">
        <ele>132.8000000</ele>
        <time>2010-06-18T07:47:16Z</time>
      </trkpt>
      <trkpt lat="48.9715450" lon="8.4451540">
        <ele>132.3200000</ele>
        <time>2010-06-18T07:47:20Z</time>
      </trkpt>
      <trkpt lat="48.9713790" lon="8.4451090">
        <ele>132.3200000</ele>
        <time>2010-06-18T07:47:25Z</time>
      </trkpt>
      <trkpt lat="48.9713610" lon="8.4451730">
        <ele>132.8000000</ele>
        <time>2010-06-18T07:47:26Z</time>
      </trkpt>
      <trkpt lat="48.9712070" lon="8.4454520">
        <ele>134.2400000</ele>
        <time>2010-06-18T07:47:32Z</time>
      </trkpt>
      <trkpt lat="48.9706330" lon="8.4457350">
        <ele>136.6400000</ele>
        <time>2010-06-18T07:47:49Z</time>
      </trkpt>
      <trkpt lat="48.9701890" lon="8.4458470">
        <ele>139.0500000</ele>
        <time>2010-06-18T07:48:03Z</time>
      </trkpt>
      <trkpt lat="48.9696820" lon="8.4459740">
        <ele>141.9300000</ele>
        <time>2010-06-18T07:48:20Z</time>
      </trkpt>
      <trkpt lat="48.9691850" lon="8.4460030">
        <ele>144.3400000</ele>
        <time>2010-06-18T07:48:38Z</time>
      </trkpt>
      <trkpt lat="48.9687240" lon="8.4458640">
        <ele>146.7400000</ele>
        <time>2010-06-18T07:48:55Z</time>
      </trkpt>
      <trkpt lat="48.9682490" lon="8.4456250">
        <ele>148.6600000</ele>
        <time>2010-06-18T07:49:13Z</time>
      </trkpt>
      <trkpt lat="48.9678100" lon="8.4452240">
        <ele>149.6200000</ele>
        <time>2010-06-18T07:49:30Z</time>
      </trkpt>
      <trkpt lat="48.9672820" lon="8.4446900">
        <ele>150.1000000</ele>
        <time>2010-06-18T07:49:48Z</time>
      </trkpt>
      <trkpt lat="48.9669930" lon="8.4442680">
        <ele>150.1000000</ele>
        <time>2010-06-18T07:49:58Z</time>
      </trkpt>
      <trkpt lat="48.9664450" lon="8.4434500">
        <ele>150.1000000</ele>
        <time>2010-06-18T07:50:15Z</time>
      </trkpt>
      <trkpt lat="48.9659100" lon="8.4426190">
        <ele>150.1000000</ele>
        <time>2010-06-18T07:50:31Z</time>
      </trkpt>
      <trkpt lat="48.9657120" lon="8.4423030">
        <ele>149.6200000</ele>
        <time>2010-06-18T07:50:37Z</time>
      </trkpt>
      <trkpt lat="48.9653540" lon="8.4417070">
        <ele>149.6200000</ele>
        <time>2010-06-18T07:50:48Z</time>
      </trkpt>
      <trkpt lat="48.9649800" lon="8.4409990">
        <ele>148.6600000</ele>
        <time>2010-06-18T07:50:59Z</time>
      </trkpt>
      <trkpt lat="48.9644960" lon="8.4401490">
        <ele>148.6600000</ele>
        <time>2010-06-18T07:51:13Z</time>
      </trkpt>
      <trkpt lat="48.9639420" lon="8.4392360">
        <ele>149.6200000</ele>
        <time>2010-06-18T07:51:30Z</time>
      </trkpt>
      <trkpt lat="48.9638440" lon="8.4390570">
        <ele>149.6200000</ele>
        <time>2010-06-18T07:51:33Z</time>
      </trkpt>
      <trkpt lat="48.9637690" lon="8.4389410">
        <ele>149.6200000</ele>
        <time>2010-06-18T07:51:35Z</time>
      </trkpt>
      <trkpt lat="48.9636650" lon="8.4387550">
        <ele>149.1400000</ele>
        <time>2010-06-18T07:51:38Z</time>
      </trkpt>
      <trkpt lat="48.9634470" lon="8.4383790">
        <ele>148.6600000</ele>
        <time>2010-06-18T07:51:44Z</time>
      </trkpt>
      <trkpt lat="48.9629320" lon="8.4374880">
        <ele>147.2200000</ele>
        <time>2010-06-18T07:51:58Z</time>
      </trkpt>
      <trkpt lat="48.9624000" lon="8.4364760">
        <ele>145.3000000</ele>
        <time>2010-06-18T07:52:12Z</time>
      </trkpt>
      <trkpt lat="48.9617150" lon="8.4353160">
        <ele>143.8500000</ele>
        <time>2010-06-18T07:52:30Z</time>
      </trkpt>
      <trkpt lat="48.9609030" lon="8.4338860">
        <ele>140.4900000</ele>
        <time>2010-06-18T07:52:51Z</time>
      </trkpt>
      <trkpt lat="48.9602020" lon="8.4326250">
        <ele>140.4900000</ele>
        <time>2010-06-18T07:53:09Z</time>
      </trkpt>
      <trkpt lat="48.9598450" lon="8.4319550">
        <ele>140.0100000</ele>
        <time>2010-06-18T07:53:19Z</time>
      </trkpt>
      <trkpt lat="48.9597670" lon="8.4317500">
        <ele>139.5300000</ele>
        <time>2010-06-18T07:53:22Z</time>
      </trkpt>
      <trkpt lat="48.9595460" lon="8.4314200">
        <ele>138.5700000</ele>
        <time>2010-06-18T07:53:28Z</time>
      </trkpt>
      <trkpt lat="48.9594520" lon="8.4313700">
        <ele>139.0500000</ele>
        <time>2010-06-18T07:53:30Z</time>
      </trkpt>
      <trkpt lat="48.9588780" lon="8.4306620">
        <ele>138.0900000</ele>
        <time>2010-06-18T07:53:44Z</time>
      </trkpt>
      <trkpt lat="48.9582460" lon="8.4298490">
        <ele>138.0900000</ele>
        <time>2010-06-18T07:54:01Z</time>
      </trkpt>
      <trkpt lat="48.9581790" lon="8.4297610">
        <ele>137.6100000</ele>
        <time>2010-06-18T07:54:03Z</time>
      </trkpt>
      <trkpt lat="48.9576180" lon="8.4289160">
        <ele>136.1600000</ele>
        <time>2010-06-18T07:54:17Z</time>
      </trkpt>
      <trkpt lat="48.9570360" lon="8.4278320">
        <ele>135.2000000</ele>
        <time>2010-06-18T07:54:33Z</time>
      </trkpt>
      <trkpt lat="48.9565750" lon="8.4268550">
        <ele>135.2000000</ele>
        <time>2010-06-18T07:54:47Z</time>
      </trkpt>
      <trkpt lat="48.9560910" lon="8.4258280">
        <ele>135.6800000</ele>
        <time>2010-06-18T07:55:03Z</time>
      </trkpt>
      <trkpt lat="48.9556200" lon="8.4248640">
        <ele>138.0900000</ele>
        <time>2010-06-18T07:55:19Z</time>
      </trkpt>
      <trkpt lat="48.9552070" lon="8.4240030">
        <ele>140.0100000</ele>
        <time>2010-06-18T07:55:36Z</time>
      </trkpt>
      <trkpt lat="48.9551300" lon="8.4238400">
        <ele>139.0500000</ele>
        <time>2010-06-18T07:55:39Z</time>
      </trkpt>
      <trkpt lat="48.9550830" lon="8.4237380">
        <ele>139.0500000</ele>
        <time>2010-06-18T07:55:41Z</time>
      </trkpt>
      <trkpt lat="48.9550390" lon="8.4236270">
        <ele>139.0500000</ele>
        <time>2010-06-18T07:55:43Z</time>
      </trkpt>
      <trkpt lat="48.9550050" lon="8.4235050">
        <ele>139.0500000</ele>
        <time>2010-06-18T07:55:45Z</time>
      </trkpt>
      <trkpt lat="48.9546410" lon="8.4228840">
        <ele>141.4500000</ele>
        <time>2010-06-18T07:55:59Z</time>
      </trkpt>
      <trkpt lat="48.9541910" lon="8.4222070">
        <ele>140.0100000</ele>
        <time>2010-06-18T07:56:14Z</time>
      </trkpt>
      <trkpt lat="48.9535870" lon="8.4213590">
        <ele>136.6400000</ele>
        <time>2010-06-18T07:56:27Z</time>
      </trkpt>
      <trkpt lat="48.9530080" lon="8.4206110">
        <ele>139.5300000</ele>
        <time>2010-06-18T07:56:40Z</time>
      </trkpt>
      <trkpt lat="48.9526400" lon="8.4200560">
        <ele>142.8900000</ele>
        <time>2010-06-18T07:56:54Z</time>
      </trkpt>
      <trkpt lat="48.9523850" lon="8.4196290">
        <ele>143.8500000</ele>
        <time>2010-06-18T07:57:06Z</time>
      </trkpt>
      <trkpt lat="48.9522730" lon="8.4189540">
        <ele>144.3400000</ele>
        <time>2010-06-18T07:57:18Z</time>
      </trkpt>
      <trkpt lat="48.9520980" lon="8.4186270">
        <ele>144.3400000</ele>
        <time>2010-06-18T07:57:26Z</time>
      </trkpt>
      <trkpt lat="48.9518950" lon="8.4181740">
        <ele>144.8200000</ele>
        <time>2010-06-18T07:57:35Z</time>
      </trkpt>
      <trkpt lat="48.9516660" lon="8.4175940">
        <ele>144.8200000</ele>
        <time>2010-06-18T07:57:45Z</time>
      </trkpt>
      <trkpt lat="48.9512840" lon="8.4164420">
        <ele>143.8500000</ele>
        <time>2010-06-18T07:58:03Z</time>
      </trkpt>
      <trkpt lat="48.9510940" lon="8.4158990">
        <ele>143.8500000</ele>
        <time>2010-06-18T07:58:11Z</time>
      </trkpt>
      <trkpt lat="48.9509840" lon="8.4151950">
        <ele>142.4100000</ele>
        <time>2010-06-18T07:58:23Z</time>
      </trkpt>
      <trkpt lat="48.9508920" lon="8.4149700">
        <ele>142.8900000</ele>
        <time>2010-06-18T07:58:28Z</time>
      </trkpt>
      <trkpt lat="48.9507210" lon="8.4148260">
        <ele>143.8500000</ele>
        <time>2010-06-18T07:58:33Z</time>
      </trkpt>
      <trkpt lat="48.9506300" lon="8.4146580">
        <ele>142.8900000</ele>
        <time>2010-06-18T07:58:36Z</time>
      </trkpt>
      <trkpt lat="48.9505030" lon="8.4144730">
        <ele>142.8900000</ele>
        <time>2010-06-18T07:58:40Z</time>
      </trkpt>
      <trkpt lat="48.9498780" lon="8.4136710">
        <ele>145.3000000</ele>
        <time>2010-06-18T07:59:01Z</time>
      </trkpt>
      <trkpt lat="48.9495650" lon="8.4133130">
        <ele>145.7800000</ele>
        <time>2010-06-18T07:59:11Z</time>
      </trkpt>
      <trkpt lat="48.9492270" lon="8.4130750">
        <ele>146.7400000</ele>
        <time>2010-06-18T07:59:22Z</time>
      </trkpt>
      <trkpt lat="48.9490860" lon="8.4131730">
        <ele>146.7400000</ele>
        <time>2010-06-18T07:59:27Z</time>
      </trkpt>
      <trkpt lat="48.9484570" lon="8.4129150">
        <ele>147.7000000</ele>
        <time>2010-06-18T07:59:43Z</time>
      </trkpt>
      <trkpt lat="48.9478000" lon="8.4126710">
        <ele>149.1400000</ele>
        <time>2010-06-18T07:59:59Z</time>
      </trkpt>
      <trkpt lat="48.9472750" lon="8.4124400">
        <ele>149.1400000</ele>
        <time>2010-06-18T08:00:12Z</time>
      </trkpt>
      <trkpt lat="48.9465100" lon="8.4121150">
        <ele>148.1800000</ele>
        <time>2010-06-18T08:00:28Z</time>
      </trkpt>
      <trkpt lat="48.9461830" lon="8.4119070">
        <ele>147.7000000</ele>
        <time>2010-06-18T08:00:35Z</time>
      </trkpt>
      <trkpt lat="48.9459910" lon="8.4116400">
        <ele>146.7400000</ele>
        <time>2010-06-18T08:00:41Z</time>
      </trkpt>
      <trkpt lat="48.9459070" lon="8.4113130">
        <ele>145.7800000</ele>
        <time>2010-06-18T08:00:47Z</time>
      </trkpt>
      <trkpt lat="48.9457880" lon="8.4111870">
        <ele>145.3000000</ele>
        <time>2010-06-18T08:00:52Z</time>
      </trkpt>
      <trkpt lat="48.9456130" lon="8.4111090">
        <ele>145.3000000</ele>
        <time>2010-06-18T08:00:56Z</time>
      </trkpt>
      <trkpt lat="48.9451640" lon="8.4107990">
        <ele>141.9300000</ele>
        <time>2010-06-18T08:01:05Z</time>
      </trkpt>
      <trkpt lat="48.9444640" lon="8.4103220">
        <ele>140.4900000</ele>
        <time>2010-06-18T08:01:17Z</time>
      </trkpt>
      <trkpt lat="48.9436320" lon="8.4097740">
        <ele>139.0500000</ele>
        <time>2010-06-18T08:01:32Z</time>
      </trkpt>
      <trkpt lat="48.9431690" lon="8.4094860">
        <ele>137.6100000</ele>
        <time>2010-06-18T08:01:44Z</time>
      </trkpt>
      <trkpt lat="48.9429410" lon="8.4093060">
        <ele>137.1300000</ele>
        <time>2010-06-18T08:01:56Z</time>
      </trkpt>
      <trkpt lat="48.9427940" lon="8.4091870">
        <ele>137.6100000</ele>
        <time>2010-06-18T08:02:04Z</time>
      </trkpt>
      <trkpt lat="48.9425480" lon="8.4090200">
        <ele>136.6400000</ele>
        <time>2010-06-18T08:02:16Z</time>
      </trkpt>
      <trkpt lat="48.9422130" lon="8.4086500">
        <ele>135.6800000</ele>
        <time>2010-06-18T08:02:30Z</time>
      </trkpt>
      <trkpt lat="48.9421220" lon="8.4085490">
        <ele>135.6800000</ele>
        <time>2010-06-18T08:02:41Z</time>
      </trkpt>
      <trkpt lat="48.9421090" lon="8.4085430">
        <ele>135.6800000</ele>
        <time>2010-06-18T08:03:05Z</time>
      </trkpt>
      <trkpt lat="48.9419100" lon="8.4082200">
        <ele>135.6800000</ele>
        <time>2010-06-18T08:03:16Z</time>
      </trkpt>
      <trkpt lat="48.9416340" lon="8.4078600">
        <ele>136.1600000</ele>
        <time>2010-06-18T08:03:30Z</time>
      </trkpt>
      <trkpt lat="48.9413910" lon="8.4077110">
        <ele>134.7200000</ele>
        <time>2010-06-18T08:03:39Z</time>
      </trkpt>
      <trkpt lat="48.9411450" lon="8.4074030">
        <ele>134.7200000</ele>
        <time>2010-06-18T08:03:51Z</time>
      </trkpt>
      <trkpt lat="48.9409520" lon="8.4069730">
        <ele>135.2000000</ele>
        <time>2010-06-18T08:04:02Z</time>
      </trkpt>
      <trkpt lat="48.9408490" lon="8.4066890">
        <ele>135.6800000</ele>
        <time>2010-06-18T08:04:12Z</time>
      </trkpt>
      <trkpt lat="48.9407720" lon="8.4064330">
        <ele>135.6800000</ele>
        <time>2010-06-18T08:04:24Z</time>
      </trkpt>
      <trkpt lat="48.9407720" lon="8.4064330">
        <ele>135.6800000</ele>
        <time>2010-06-18T08:04:43Z</time>
      </trkpt>
      <trkpt lat="48.9407730" lon="8.4064340">
        <ele>135.6800000</ele>
        <time>2010-06-18T08:06:05Z</time>
      </trkpt>
      <trkpt lat="48.9407780" lon="8.4064370">
        <ele>135.6800000</ele>
        <time>2010-06-18T08:06:42Z</time>
      </trkpt>
      <trkpt lat="48.9407810" lon="8.4064360">
        <ele>135.2000000</ele>
        <time>2010-06-18T08:08:46Z</time>
      </trkpt>
      <trkpt lat="48.9407850" lon="8.4064400">
        <ele>134.2400000</ele>
        <time>2010-06-18T08:24:15Z</time>
      </trkpt>
      <trkpt lat="48.9407900" lon="8.4064590">
        <ele>134.7200000</ele>
        <time>2010-06-18T08:28:32Z</time>
      </trkpt>
      <trkpt lat="48.9407840" lon="8.4064600">
        <ele>133.7600000</ele>
        <time>2010-06-18T08:38:34Z</time>
      </trkpt>
      <trkpt lat="48.9407850" lon="8.4064590">
        <ele>133.2800000</ele>
        <time>2010-06-18T08:39:13Z</time>
      </trkpt>
      <trkpt lat="48.9407780" lon="8.4064470">
        <ele>133.7600000</ele>
        <time>2010-06-18T08:41:43Z</time>
      </trkpt>
      <trkpt lat="48.9407940" lon="8.4064540">
        <ele>133.7600000</ele>
        <time>2010-06-18T08:43:02Z</time>
      </trkpt>
      <trkpt lat="48.9407800" lon="8.4064380">
        <ele>133.7600000</ele>
        <time>2010-06-18T08:43:12Z</time>
      </trkpt>
      <trkpt lat="48.9407650" lon="8.4064210">
        <ele>134.2400000</ele>
        <time>2010-06-18T08:43:24Z</time>
      </trkpt>
      <trkpt lat="48.9406760" lon="8.4063060">
        <ele>134.2400000</ele>
        <time>2010-06-18T08:43:30Z</time>
      </trkpt>
      <trkpt lat="48.9406820" lon="8.4061300">
        <ele>134.2400000</ele>
        <time>2010-06-18T08:43:39Z</time>
      </trkpt>
      <trkpt lat="48.9408590" lon="8.4057780">
        <ele>132.8000000</ele>
        <time>2010-06-18T08:43:51Z</time>
      </trkpt>
      <trkpt lat="48.9408900" lon="8.4057360">
        <ele>132.8000000</ele>
        <time>2010-06-18T08:43:53Z</time>
      </trkpt>
      <trkpt lat="48.9408070" lon="8.4054580">
        <ele>132.8000000</ele>
        <time>2010-06-18T08:44:01Z</time>
      </trkpt>
      <trkpt lat="48.9407870" lon="8.4049550">
        <ele>132.8000000</ele>
        <time>2010-06-18T08:44:14Z</time>
      </trkpt>
      <trkpt lat="48.9407870" lon="8.4049550">
        <ele>132.8000000</ele>
        <time>2010-06-18T08:44:26Z</time>
      </trkpt>
      <trkpt lat="48.9407560" lon="8.4049150">
        <ele>132.8000000</ele>
        <time>2010-06-18T08:44:30Z</time>
      </trkpt>
      <trkpt lat="48.9405790" lon="8.4047550">
        <ele>132.3200000</ele>
        <time>2010-06-18T08:44:39Z</time>
      </trkpt>
      <trkpt lat="48.9403010" lon="8.4042820">
        <ele>133.7600000</ele>
        <time>2010-06-18T08:44:53Z</time>
      </trkpt>
      <trkpt lat="48.9401710" lon="8.4040500">
        <ele>133.2800000</ele>
        <time>2010-06-18T08:45:00Z</time>
      </trkpt>
      <trkpt lat="48.9401300" lon="8.4036540">
        <ele>131.8400000</ele>
        <time>2010-06-18T08:45:10Z</time>
      </trkpt>
      <trkpt lat="48.9400530" lon="8.4031790">
        <ele>132.8000000</ele>
        <time>2010-06-18T08:45:22Z</time>
      </trkpt>
      <trkpt lat="48.9400460" lon="8.4031560">
        <ele>133.7600000</ele>
        <time>2010-06-18T08:46:08Z</time>
      </trkpt>
      <trkpt lat="48.9400130" lon="8.4029840">
        <ele>132.8000000</ele>
        <time>2010-06-18T08:46:14Z</time>
      </trkpt>
      <trkpt lat="48.9398720" lon="8.4024700">
        <ele>133.2800000</ele>
        <time>2010-06-18T08:46:24Z</time>
      </trkpt>
      <trkpt lat="48.9396390" lon="8.4016820">
        <ele>132.8000000</ele>
        <time>2010-06-18T08:46:38Z</time>
      </trkpt>
      <trkpt lat="48.9396080" lon="8.4015710">
        <ele>132.8000000</ele>
        <time>2010-06-18T08:46:40Z</time>
      </trkpt>
      <trkpt lat="48.9395100" lon="8.4013270">
        <ele>133.2800000</ele>
        <time>2010-06-18T08:46:44Z</time>
      </trkpt>
      <trkpt lat="48.9393750" lon="8.4009610">
        <ele>133.2800000</ele>
        <time>2010-06-18T08:46:50Z</time>
      </trkpt>
      <trkpt lat="48.9391510" lon="8.4004620">
        <ele>132.8000000</ele>
        <time>2010-06-18T08:46:58Z</time>
      </trkpt>
      <trkpt lat="48.9389340" lon="8.3998870">
        <ele>132.3200000</ele>
        <time>2010-06-18T08:47:07Z</time>
      </trkpt>
      <trkpt lat="48.9388200" lon="8.3995760">
        <ele>132.3200000</ele>
        <time>2010-06-18T08:47:12Z</time>
      </trkpt>
      <trkpt lat="48.9385380" lon="8.3989370">
        <ele>132.3200000</ele>
        <time>2010-06-18T08:47:23Z</time>
      </trkpt>
      <trkpt lat="48.9382680" lon="8.3982560">
        <ele>131.8400000</ele>
        <time>2010-06-18T08:47:34Z</time>
      </trkpt>
      <trkpt lat="48.9378530" lon="8.3972360">
        <ele>130.4000000</ele>
        <time>2010-06-18T08:47:49Z</time>
      </trkpt>
      <trkpt lat="48.9378230" lon="8.3971620">
        <ele>130.4000000</ele>
        <time>2010-06-18T08:47:50Z</time>
      </trkpt>
      <trkpt lat="48.9376950" lon="8.3968870">
        <ele>129.9200000</ele>
        <time>2010-06-18T08:47:54Z</time>
      </trkpt>
      <trkpt lat="48.9375940" lon="8.3966840">
        <ele>129.4300000</ele>
        <time>2010-06-18T08:47:57Z</time>
      </trkpt>
      <trkpt lat="48.9372340" lon="8.3958060">
        <ele>129.4300000</ele>
        <time>2010-06-18T08:48:09Z</time>
      </trkpt>
      <trkpt lat="48.9368040" lon="8.3947480">
        <ele>128.9500000</ele>
        <time>2010-06-18T08:48:24Z</time>
      </trkpt>
      <trkpt lat="48.9363880" lon="8.3937610">
        <ele>129.4300000</ele>
        <time>2010-06-18T08:48:39Z</time>
      </trkpt>
      <trkpt lat="48.9359140" lon="8.3926280">
        <ele>128.9500000</ele>
        <time>2010-06-18T08:48:58Z</time>
      </trkpt>
      <trkpt lat="48.9354770" lon="8.3915630">
        <ele>129.4300000</ele>
        <time>2010-06-18T08:49:16Z</time>
      </trkpt>
      <trkpt lat="48.9350490" lon="8.3905040">
        <ele>128.4700000</ele>
        <time>2010-06-18T08:49:33Z</time>
      </trkpt>
      <trkpt lat="48.9345070" lon="8.3892670">
        <ele>127.5100000</ele>
        <time>2010-06-18T08:49:52Z</time>
      </trkpt>
      <trkpt lat="48.9341320" lon="8.3884010">
        <ele>127.0300000</ele>
        <time>2010-06-18T08:50:05Z</time>
      </trkpt>
      <trkpt lat="48.9339610" lon="8.3879410">
        <ele>127.0300000</ele>
        <time>2010-06-18T08:50:12Z</time>
      </trkpt>
      <trkpt lat="48.9337690" lon="8.3877230">
        <ele>127.0300000</ele>
        <time>2010-06-18T08:50:17Z</time>
      </trkpt>
      <trkpt lat="48.9330120" lon="8.3875370">
        <ele>126.5500000</ele>
        <time>2010-06-18T08:50:32Z</time>
      </trkpt>
      <trkpt lat="48.9328560" lon="8.3873420">
        <ele>126.5500000</ele>
        <time>2010-06-18T08:50:38Z</time>
      </trkpt>
      <trkpt lat="48.9328290" lon="8.3872520">
        <ele>127.0300000</ele>
        <time>2010-06-18T08:50:41Z</time>
      </trkpt>
      <trkpt lat="48.9327450" lon="8.3871910">
        <ele>127.0300000</ele>
        <time>2010-06-18T08:50:45Z</time>
      </trkpt>
      <trkpt lat="48.9320940" lon="8.3870520">
        <ele>124.1500000</ele>
        <time>2010-06-18T08:51:00Z</time>
      </trkpt>
      <trkpt lat="48.9311770" lon="8.3868260">
        <ele>123.1900000</ele>
        <time>2010-06-18T08:51:17Z</time>
      </trkpt>
      <trkpt lat="48.9306030" lon="8.3866860">
        <ele>122.2200000</ele>
        <time>2010-06-18T08:51:28Z</time>
      </trkpt>
      <trkpt lat="48.9299840" lon="8.3864860">
        <ele>121.2600000</ele>
        <time>2010-06-18T08:51:40Z</time>
      </trkpt>
      <trkpt lat="48.9298880" lon="8.3864520">
        <ele>121.2600000</ele>
        <time>2010-06-18T08:51:42Z</time>
      </trkpt>
      <trkpt lat="48.9297450" lon="8.3864210">
        <ele>122.7100000</ele>
        <time>2010-06-18T08:51:45Z</time>
      </trkpt>
      <trkpt lat="48.9295630" lon="8.3863560">
        <ele>122.7100000</ele>
        <time>2010-06-18T08:51:49Z</time>
      </trkpt>
      <trkpt lat="48.9288000" lon="8.3860800">
        <ele>122.7100000</ele>
        <time>2010-06-18T08:52:05Z</time>
      </trkpt>
      <trkpt lat="48.9285500" lon="8.3860310">
        <ele>122.7100000</ele>
        <time>2010-06-18T08:52:13Z</time>
      </trkpt>
      <trkpt lat="48.9283890" lon="8.3860100">
        <ele>122.7100000</ele>
        <time>2010-06-18T08:52:19Z</time>
      </trkpt>
      <trkpt lat="48.9283180" lon="8.3859970">
        <ele>123.1900000</ele>
        <time>2010-06-18T08:52:21Z</time>
      </trkpt>
      <trkpt lat="48.9278330" lon="8.3858390">
        <ele>123.1900000</ele>
        <time>2010-06-18T08:52:33Z</time>
      </trkpt>
      <trkpt lat="48.9276570" lon="8.3857990">
        <ele>123.1900000</ele>
        <time>2010-06-18T08:52:37Z</time>
      </trkpt>
      <trkpt lat="48.9274250" lon="8.3857970">
        <ele>123.1900000</ele>
        <time>2010-06-18T08:52:42Z</time>
      </trkpt>
      <trkpt lat="48.9272000" lon="8.3857580">
        <ele>122.7100000</ele>
        <time>2010-06-18T08:52:47Z</time>
      </trkpt>
      <trkpt lat="48.9264930" lon="8.3856980">
        <ele>123.1900000</ele>
        <time>2010-06-18T08:53:03Z</time>
      </trkpt>
      <trkpt lat="48.9262880" lon="8.3856480">
        <ele>123.6700000</ele>
        <time>2010-06-18T08:53:08Z</time>
      </trkpt>
      <trkpt lat="48.9261990" lon="8.3856150">
        <ele>123.6700000</ele>
        <time>2010-06-18T08:53:10Z</time>
      </trkpt>
      <trkpt lat="48.9260760" lon="8.3856190">
        <ele>123.6700000</ele>
        <time>2010-06-18T08:53:13Z</time>
      </trkpt>
      <trkpt lat="48.9255560" lon="8.3852770">
        <ele>122.7100000</ele>
        <time>2010-06-18T08:53:25Z</time>
      </trkpt>
      <trkpt lat="48.9255180" lon="8.3852360">
        <ele>122.2200000</ele>
        <time>2010-06-18T08:53:26Z</time>
      </trkpt>
      <trkpt lat="48.9252730" lon="8.3848970">
        <ele>121.7400000</ele>
        <time>2010-06-18T08:53:33Z</time>
      </trkpt>
      <trkpt lat="48.9250890" lon="8.3847760">
        <ele>122.7100000</ele>
        <time>2010-06-18T08:53:37Z</time>
      </trkpt>
      <trkpt lat="48.9242090" lon="8.3845140">
        <ele>123.6700000</ele>
        <time>2010-06-18T08:53:55Z</time>
      </trkpt>
      <trkpt lat="48.9233880" lon="8.3839510">
        <ele>125.1100000</ele>
        <time>2010-06-18T08:54:14Z</time>
      </trkpt>
      <trkpt lat="48.9233480" lon="8.3839150">
        <ele>125.1100000</ele>
        <time>2010-06-18T08:54:15Z</time>
      </trkpt>
      <trkpt lat="48.9231960" lon="8.3837830">
        <ele>125.1100000</ele>
        <time>2010-06-18T08:54:19Z</time>
      </trkpt>
      <trkpt lat="48.9228830" lon="8.3837300">
        <ele>126.5500000</ele>
        <time>2010-06-18T08:54:28Z</time>
      </trkpt>
      <trkpt lat="48.9228010" lon="8.3836120">
        <ele>126.5500000</ele>
        <time>2010-06-18T08:54:31Z</time>
      </trkpt>
      <trkpt lat="48.9226460" lon="8.3832770">
        <ele>126.0700000</ele>
        <time>2010-06-18T08:54:37Z</time>
      </trkpt>
      <trkpt lat="48.9219570" lon="8.3826790">
        <ele>127.5100000</ele>
        <time>2010-06-18T08:54:54Z</time>
      </trkpt>
      <trkpt lat="48.9212020" lon="8.3820980">
        <ele>127.5100000</ele>
        <time>2010-06-18T08:55:12Z</time>
      </trkpt>
      <trkpt lat="48.9204740" lon="8.3815070">
        <ele>127.5100000</ele>
        <time>2010-06-18T08:55:27Z</time>
      </trkpt>
      <trkpt lat="48.9194790" lon="8.3807150">
        <ele>127.0300000</ele>
        <time>2010-06-18T08:55:48Z</time>
      </trkpt>
      <trkpt lat="48.9185340" lon="8.3800270">
        <ele>126.0700000</ele>
        <time>2010-06-18T08:56:06Z</time>
      </trkpt>
      <trkpt lat="48.9180370" lon="8.3796980">
        <ele>128.4700000</ele>
        <time>2010-06-18T08:56:19Z</time>
      </trkpt>
      <trkpt lat="48.9177830" lon="8.3794900">
        <ele>128.4700000</ele>
        <time>2010-06-18T08:56:25Z</time>
      </trkpt>
      <trkpt lat="48.9176490" lon="8.3793570">
        <ele>127.0300000</ele>
        <time>2010-06-18T08:56:28Z</time>
      </trkpt>
      <trkpt lat="48.9170600" lon="8.3788660">
        <ele>124.1500000</ele>
        <time>2010-06-18T08:56:39Z</time>
      </trkpt>
      <trkpt lat="48.9170110" lon="8.3788330">
        <ele>123.1900000</ele>
        <time>2010-06-18T08:56:40Z</time>
      </trkpt>
      <trkpt lat="48.9168430" lon="8.3786710">
        <ele>123.1900000</ele>
        <time>2010-06-18T08:56:44Z</time>
      </trkpt>
      <trkpt lat="48.9166860" lon="8.3784100">
        <ele>123.1900000</ele>
        <time>2010-06-18T08:56:49Z</time>
      </trkpt>
      <trkpt lat="48.9161560" lon="8.3778230">
        <ele>123.1900000</ele>
        <time>2010-06-18T08:57:03Z</time>
      </trkpt>
      <trkpt lat="48.9154060" lon="8.3769540">
        <ele>122.7100000</ele>
        <time>2010-06-18T08:57:22Z</time>
      </trkpt>
      <trkpt lat="48.9152670" lon="8.3767710">
        <ele>123.1900000</ele>
        <time>2010-06-18T08:57:26Z</time>
      </trkpt>
      <trkpt lat="48.9147110" lon="8.3760940">
        <ele>122.7100000</ele>
        <time>2010-06-18T08:57:40Z</time>
      </trkpt>
      <trkpt lat="48.9145050" lon="8.3758240">
        <ele>122.2200000</ele>
        <time>2010-06-18T08:57:45Z</time>
      </trkpt>
      <trkpt lat="48.9144150" lon="8.3757350">
        <ele>122.2200000</ele>
        <time>2010-06-18T08:57:47Z</time>
      </trkpt>
      <trkpt lat="48.9139770" lon="8.3751730">
        <ele>122.7100000</ele>
        <time>2010-06-18T08:57:58Z</time>
      </trkpt>
      <trkpt lat="48.9132810" lon="8.3743290">
        <ele>123.1900000</ele>
        <time>2010-06-18T08:58:15Z</time>
      </trkpt>
      <trkpt lat="48.9129030" lon="8.3739290">
        <ele>123.6700000</ele>
        <time>2010-06-18T08:58:24Z</time>
      </trkpt>
      <trkpt lat="48.9122350" lon="8.3734110">
        <ele>125.5900000</ele>
        <time>2010-06-18T08:58:39Z</time>
      </trkpt>
      <trkpt lat="48.9113050" lon="8.3727370">
        <ele>127.5100000</ele>
        <time>2010-06-18T08:59:01Z</time>
      </trkpt>
      <trkpt lat="48.9105020" lon="8.3721270">
        <ele>127.0300000</ele>
        <time>2010-06-18T08:59:19Z</time>
      </trkpt>
      <trkpt lat="48.9098370" lon="8.3715420">
        <ele>126.5500000</ele>
        <time>2010-06-18T08:59:33Z</time>
      </trkpt>
      <trkpt lat="48.9092120" lon="8.3710050">
        <ele>126.5500000</ele>
        <time>2010-06-18T08:59:46Z</time>
      </trkpt>
      <trkpt lat="48.9084230" lon="8.3701780">
        <ele>126.0700000</ele>
        <time>2010-06-18T09:00:04Z</time>
      </trkpt>
      <trkpt lat="48.9076660" lon="8.3692640">
        <ele>126.0700000</ele>
        <time>2010-06-18T09:00:22Z</time>
      </trkpt>
      <trkpt lat="48.9068860" lon="8.3682510">
        <ele>125.5900000</ele>
        <time>2010-06-18T09:00:40Z</time>
      </trkpt>
      <trkpt lat="48.9065390" lon="8.3678540">
        <ele>124.6300000</ele>
        <time>2010-06-18T09:00:48Z</time>
      </trkpt>
      <trkpt lat="48.9063230" lon="8.3675690">
        <ele>124.1500000</ele>
        <time>2010-06-18T09:00:53Z</time>
      </trkpt>
      <trkpt lat="48.9062320" lon="8.3674350">
        <ele>124.6300000</ele>
        <time>2010-06-18T09:00:55Z</time>
      </trkpt>
      <trkpt lat="48.9056030" lon="8.3666270">
        <ele>123.1900000</ele>
        <time>2010-06-18T09:01:08Z</time>
      </trkpt>
      <trkpt lat="48.9049550" lon="8.3659080">
        <ele>123.1900000</ele>
        <time>2010-06-18T09:01:21Z</time>
      </trkpt>
      <trkpt lat="48.9047490" lon="8.3657140">
        <ele>123.1900000</ele>
        <time>2010-06-18T09:01:25Z</time>
      </trkpt>
      <trkpt lat="48.9044430" lon="8.3654500">
        <ele>123.1900000</ele>
        <time>2010-06-18T09:01:31Z</time>
      </trkpt>
      <trkpt lat="48.9043350" lon="8.3653920">
        <ele>123.6700000</ele>
        <time>2010-06-18T09:01:33Z</time>
      </trkpt>
      <trkpt lat="48.9041920" lon="8.3652730">
        <ele>123.6700000</ele>
        <time>2010-06-18T09:01:36Z</time>
      </trkpt>
      <trkpt lat="48.9034830" lon="8.3646300">
        <ele>124.6300000</ele>
        <time>2010-06-18T09:01:51Z</time>
      </trkpt>
      <trkpt lat="48.9025730" lon="8.3639310">
        <ele>125.5900000</ele>
        <time>2010-06-18T09:02:11Z</time>
      </trkpt>
      <trkpt lat="48.9018570" lon="8.3633380">
        <ele>126.0700000</ele>
        <time>2010-06-18T09:02:26Z</time>
      </trkpt>
      <trkpt lat="48.9012000" lon="8.3626960">
        <ele>126.0700000</ele>
        <time>2010-06-18T09:02:40Z</time>
      </trkpt>
      <trkpt lat="48.9004560" lon="8.3618730">
        <ele>125.1100000</ele>
        <time>2010-06-18T09:02:56Z</time>
      </trkpt>
      <trkpt lat="48.9003610" lon="8.3617670">
        <ele>125.1100000</ele>
        <time>2010-06-18T09:02:58Z</time>
      </trkpt>
      <trkpt lat="48.9002660" lon="8.3616550">
        <ele>125.1100000</ele>
        <time>2010-06-18T09:03:00Z</time>
      </trkpt>
      <trkpt lat="48.8994840" lon="8.3608140">
        <ele>124.1500000</ele>
        <time>2010-06-18T09:03:17Z</time>
      </trkpt>
      <trkpt lat="48.8988190" lon="8.3602020">
        <ele>124.1500000</ele>
        <time>2010-06-18T09:03:31Z</time>
      </trkpt>
      <trkpt lat="48.8981120" lon="8.3595870">
        <ele>124.6300000</ele>
        <time>2010-06-18T09:03:46Z</time>
      </trkpt>
      <trkpt lat="48.8972670" lon="8.3588880">
        <ele>126.0700000</ele>
        <time>2010-06-18T09:04:04Z</time>
      </trkpt>
      <trkpt lat="48.8965690" lon="8.3582660">
        <ele>126.5500000</ele>
        <time>2010-06-18T09:04:20Z</time>
      </trkpt>
      <trkpt lat="48.8963610" lon="8.3581110">
        <ele>127.5100000</ele>
        <time>2010-06-18T09:04:25Z</time>
      </trkpt>
      <trkpt lat="48.8962390" lon="8.3580000">
        <ele>127.0300000</ele>
        <time>2010-06-18T09:04:28Z</time>
      </trkpt>
      <trkpt lat="48.8956040" lon="8.3573190">
        <ele>127.0300000</ele>
        <time>2010-06-18T09:04:42Z</time>
      </trkpt>
      <trkpt lat="48.8950570" lon="8.3567360">
        <ele>128.9500000</ele>
        <time>2010-06-18T09:04:55Z</time>
      </trkpt>
      <trkpt lat="48.8944130" lon="8.3558630">
        <ele>127.5100000</ele>
        <time>2010-06-18T09:05:11Z</time>
      </trkpt>
      <trkpt lat="48.8937130" lon="8.3548560">
        <ele>126.0700000</ele>
        <time>2010-06-18T09:05:26Z</time>
      </trkpt>
      <trkpt lat="48.8929880" lon="8.3538400">
        <ele>125.1100000</ele>
        <time>2010-06-18T09:05:44Z</time>
      </trkpt>
      <trkpt lat="48.8925270" lon="8.3528980">
        <ele>125.1100000</ele>
        <time>2010-06-18T09:05:59Z</time>
      </trkpt>
      <trkpt lat="48.8922340" lon="8.3521880">
        <ele>126.0700000</ele>
        <time>2010-06-18T09:06:10Z</time>
      </trkpt>
      <trkpt lat="48.8917290" lon="8.3512070">
        <ele>126.5500000</ele>
        <time>2010-06-18T09:06:26Z</time>
      </trkpt>
      <trkpt lat="48.8912700" lon="8.3503160">
        <ele>127.9900000</ele>
        <time>2010-06-18T09:06:42Z</time>
      </trkpt>
      <trkpt lat="48.8908340" lon="8.3493010">
        <ele>127.0300000</ele>
        <time>2010-06-18T09:06:59Z</time>
      </trkpt>
      <trkpt lat="48.8907600" lon="8.3491100">
        <ele>126.0700000</ele>
        <time>2010-06-18T09:07:01Z</time>
      </trkpt>
      <trkpt lat="48.8906160" lon="8.3488270">
        <ele>124.6300000</ele>
        <time>2010-06-18T09:07:04Z</time>
      </trkpt>
      <trkpt lat="48.8900480" lon="8.3477960">
        <ele>124.6300000</ele>
        <time>2010-06-18T09:07:18Z</time>
      </trkpt>
      <trkpt lat="48.8893930" lon="8.3466910">
        <ele>125.5900000</ele>
        <time>2010-06-18T09:07:37Z</time>
      </trkpt>
      <trkpt lat="48.8887350" lon="8.3457150">
        <ele>125.1100000</ele>
        <time>2010-06-18T09:07:55Z</time>
      </trkpt>
      <trkpt lat="48.8881430" lon="8.3448020">
        <ele>124.6300000</ele>
        <time>2010-06-18T09:08:12Z</time>
      </trkpt>
      <trkpt lat="48.8879330" lon="8.3444680">
        <ele>124.6300000</ele>
        <time>2010-06-18T09:08:18Z</time>
      </trkpt>
      <trkpt lat="48.8873260" lon="8.3433800">
        <ele>124.6300000</ele>
        <time>2010-06-18T09:08:36Z</time>
      </trkpt>
      <trkpt lat="48.8868940" lon="8.3425410">
        <ele>124.6300000</ele>
        <time>2010-06-18T09:08:50Z</time>
      </trkpt>
      <trkpt lat="48.8863770" lon="8.3414320">
        <ele>123.6700000</ele>
        <time>2010-06-18T09:09:08Z</time>
      </trkpt>
      <trkpt lat="48.8859340" lon="8.3404150">
        <ele>123.1900000</ele>
        <time>2010-06-18T09:09:25Z</time>
      </trkpt>
      <trkpt lat="48.8858150" lon="8.3401320">
        <ele>122.7100000</ele>
        <time>2010-06-18T09:09:30Z</time>
      </trkpt>
      <trkpt lat="48.8853820" lon="8.3390150">
        <ele>122.7100000</ele>
        <time>2010-06-18T09:09:47Z</time>
      </trkpt>
      <trkpt lat="48.8853210" lon="8.3389130">
        <ele>123.1900000</ele>
        <time>2010-06-18T09:09:49Z</time>
      </trkpt>
      <trkpt lat="48.8853450" lon="8.3387560">
        <ele>124.1500000</ele>
        <time>2010-06-18T09:09:56Z</time>
      </trkpt>
      <trkpt lat="48.8853580" lon="8.3387410">
        <ele>124.1500000</ele>
        <time>2010-06-18T09:09:57Z</time>
      </trkpt>
      <trkpt lat="48.8852600" lon="8.3384050">
        <ele>123.6700000</ele>
        <time>2010-06-18T09:10:05Z</time>
      </trkpt>
      <trkpt lat="48.8850790" lon="8.3379650">
        <ele>124.6300000</ele>
        <time>2010-06-18T09:10:13Z</time>
      </trkpt>
      <trkpt lat="48.8848600" lon="8.3373650">
        <ele>124.1500000</ele>
        <time>2010-06-18T09:10:24Z</time>
      </trkpt>
      <trkpt lat="48.8847290" lon="8.3370220">
        <ele>123.1900000</ele>
        <time>2010-06-18T09:10:30Z</time>
      </trkpt>
      <trkpt lat="48.8844060" lon="8.3361670">
        <ele>123.6700000</ele>
        <time>2010-06-18T09:10:45Z</time>
      </trkpt>
      <trkpt lat="48.8842330" lon="8.3357230">
        <ele>124.6300000</ele>
        <time>2010-06-18T09:10:53Z</time>
      </trkpt>
      <trkpt lat="48.8841230" lon="8.3354520">
        <ele>124.1500000</ele>
        <time>2010-06-18T09:10:58Z</time>
      </trkpt>
      <trkpt lat="48.8839900" lon="8.3350240">
        <ele>123.1900000</ele>
        <time>2010-06-18T09:11:05Z</time>
      </trkpt>
      <trkpt lat="48.8837940" lon="8.3340830">
        <ele>123.1900000</ele>
        <time>2010-06-18T09:11:19Z</time>
      </trkpt>
      <trkpt lat="48.8837450" lon="8.3338540">
        <ele>122.7100000</ele>
        <time>2010-06-18T09:11:24Z</time>
      </trkpt>
      <trkpt lat="48.8838250" lon="8.3336830">
        <ele>123.1900000</ele>
        <time>2010-06-18T09:11:34Z</time>
      </trkpt>
      <trkpt lat="48.8838270" lon="8.3336790">
        <ele>123.1900000</ele>
        <time>2010-06-18T09:11:42Z</time>
      </trkpt>
      <trkpt lat="48.8837700" lon="8.3333800">
        <ele>122.7100000</ele>
        <time>2010-06-18T09:11:50Z</time>
      </trkpt>
      <trkpt lat="48.8836350" lon="8.3328150">
        <ele>122.7100000</ele>
        <time>2010-06-18T09:11:58Z</time>
      </trkpt>
      <trkpt lat="48.8835800" lon="8.3326820">
        <ele>122.2200000</ele>
        <time>2010-06-18T09:12:00Z</time>
      </trkpt>
      <trkpt lat="48.8833730" lon="8.3324460">
        <ele>121.2600000</ele>
        <time>2010-06-18T09:12:05Z</time>
      </trkpt>
      <trkpt lat="48.8829710" lon="8.3322480">
        <ele>120.7800000</ele>
        <time>2010-06-18T09:12:13Z</time>
      </trkpt>
      <trkpt lat="48.8825010" lon="8.3319430">
        <ele>121.7400000</ele>
        <time>2010-06-18T09:12:24Z</time>
      </trkpt>
      <trkpt lat="48.8823430" lon="8.3317100">
        <ele>121.2600000</ele>
        <time>2010-06-18T09:12:29Z</time>
      </trkpt>
      <trkpt lat="48.8821720" lon="8.3315890">
        <ele>121.2600000</ele>
        <time>2010-06-18T09:12:33Z</time>
      </trkpt>
      <trkpt lat="48.8820260" lon="8.3315470">
        <ele>120.3000000</ele>
        <time>2010-06-18T09:12:36Z</time>
      </trkpt>
      <trkpt lat="48.8819330" lon="8.3315240">
        <ele>119.8200000</ele>
        <time>2010-06-18T09:12:38Z</time>
      </trkpt>
      <trkpt lat="48.8816350" lon="8.3314060">
        <ele>119.8200000</ele>
        <time>2010-06-18T09:12:44Z</time>
      </trkpt>
      <trkpt lat="48.8814920" lon="8.3313170">
        <ele>119.3400000</ele>
        <time>2010-06-18T09:12:47Z</time>
      </trkpt>
      <trkpt lat="48.8813850" lon="8.3310130">
        <ele>119.3400000</ele>
        <time>2010-06-18T09:12:52Z</time>
      </trkpt>
      <trkpt lat="48.8814820" lon="8.3300800">
        <ele>120.3000000</ele>
        <time>2010-06-18T09:13:04Z</time>
      </trkpt>
      <trkpt lat="48.8816260" lon="8.3288030">
        <ele>119.3400000</ele>
        <time>2010-06-18T09:13:20Z</time>
      </trkpt>
      <trkpt lat="48.8817650" lon="8.3274190">
        <ele>118.8600000</ele>
        <time>2010-06-18T09:13:37Z</time>
      </trkpt>
      <trkpt lat="48.8817430" lon="8.3262060">
        <ele>119.3400000</ele>
        <time>2010-06-18T09:13:52Z</time>
      </trkpt>
      <trkpt lat="48.8817340" lon="8.3259640">
        <ele>119.3400000</ele>
        <time>2010-06-18T09:13:56Z</time>
      </trkpt>
      <trkpt lat="48.8815470" lon="8.3248850">
        <ele>118.3800000</ele>
        <time>2010-06-18T09:14:13Z</time>
      </trkpt>
      <trkpt lat="48.8815200" lon="8.3247490">
        <ele>117.9000000</ele>
        <time>2010-06-18T09:14:15Z</time>
      </trkpt>
      <trkpt lat="48.8814570" lon="8.3244130">
        <ele>117.4200000</ele>
        <time>2010-06-18T09:14:20Z</time>
      </trkpt>
      <trkpt lat="48.8814110" lon="8.3242070">
        <ele>117.9000000</ele>
        <time>2010-06-18T09:14:23Z</time>
      </trkpt>
      <trkpt lat="48.8810750" lon="8.3237470">
        <ele>117.9000000</ele>
        <time>2010-06-18T09:14:33Z</time>
      </trkpt>
      <trkpt lat="48.8804620" lon="8.3229720">
        <ele>117.9000000</ele>
        <time>2010-06-18T09:14:50Z</time>
      </trkpt>
      <trkpt lat="48.8797940" lon="8.3221640">
        <ele>117.9000000</ele>
        <time>2010-06-18T09:15:07Z</time>
      </trkpt>
      <trkpt lat="48.8791430" lon="8.3213540">
        <ele>117.9000000</ele>
        <time>2010-06-18T09:15:24Z</time>
      </trkpt>
      <trkpt lat="48.8784650" lon="8.3204630">
        <ele>118.8600000</ele>
        <time>2010-06-18T09:15:42Z</time>
      </trkpt>
      <trkpt lat="48.8778380" lon="8.3195430">
        <ele>119.3400000</ele>
        <time>2010-06-18T09:15:59Z</time>
      </trkpt>
      <trkpt lat="48.8777130" lon="8.3193320">
        <ele>119.3400000</ele>
        <time>2010-06-18T09:16:03Z</time>
      </trkpt>
      <trkpt lat="48.8773770" lon="8.3188500">
        <ele>119.3400000</ele>
        <time>2010-06-18T09:16:12Z</time>
      </trkpt>
      <trkpt lat="48.8772500" lon="8.3184190">
        <ele>119.3400000</ele>
        <time>2010-06-18T09:16:18Z</time>
      </trkpt>
      <trkpt lat="48.8771070" lon="8.3170950">
        <ele>118.3800000</ele>
        <time>2010-06-18T09:16:35Z</time>
      </trkpt>
      <trkpt lat="48.8770260" lon="8.3164370">
        <ele>117.9000000</ele>
        <time>2010-06-18T09:16:43Z</time>
      </trkpt>
      <trkpt lat="48.8768570" lon="8.3150430">
        <ele>118.8600000</ele>
        <time>2010-06-18T09:17:01Z</time>
      </trkpt>
      <trkpt lat="48.8766980" lon="8.3136350">
        <ele>117.4200000</ele>
        <time>2010-06-18T09:17:19Z</time>
      </trkpt>
      <trkpt lat="48.8766730" lon="8.3133080">
        <ele>117.9000000</ele>
        <time>2010-06-18T09:17:23Z</time>
      </trkpt>
      <trkpt lat="48.8766170" lon="8.3129270">
        <ele>118.3800000</ele>
        <time>2010-06-18T09:17:28Z</time>
      </trkpt>
      <trkpt lat="48.8763780" lon="8.3125990">
        <ele>118.8600000</ele>
        <time>2010-06-18T09:17:35Z</time>
      </trkpt>
      <trkpt lat="48.8761720" lon="8.3124380">
        <ele>118.8600000</ele>
        <time>2010-06-18T09:17:40Z</time>
      </trkpt>
      <trkpt lat="48.8759230" lon="8.3119530">
        <ele>119.8200000</ele>
        <time>2010-06-18T09:17:51Z</time>
      </trkpt>
      <trkpt lat="48.8759020" lon="8.3116610">
        <ele>119.8200000</ele>
        <time>2010-06-18T09:18:03Z</time>
      </trkpt>
      <trkpt lat="48.8758970" lon="8.3113330">
        <ele>121.2600000</ele>
        <time>2010-06-18T09:18:54Z</time>
      </trkpt>
      <trkpt lat="48.8758930" lon="8.3112130">
        <ele>121.2600000</ele>
        <time>2010-06-18T09:19:04Z</time>
      </trkpt>
      <trkpt lat="48.8758980" lon="8.3112000">
        <ele>121.2600000</ele>
        <time>2010-06-18T09:21:16Z</time>
      </trkpt>
      <trkpt lat="48.8758960" lon="8.3111970">
        <ele>121.7400000</ele>
        <time>2010-06-18T09:22:16Z</time>
      </trkpt>
      <trkpt lat="48.8759610" lon="8.3106880">
        <ele>121.2600000</ele>
        <time>2010-06-18T09:22:28Z</time>
      </trkpt>
      <trkpt lat="48.8761410" lon="8.3096580">
        <ele>121.2600000</ele>
        <time>2010-06-18T09:22:43Z</time>
      </trkpt>
      <trkpt lat="48.8762390" lon="8.3084530">
        <ele>122.7100000</ele>
        <time>2010-06-18T09:23:00Z</time>
      </trkpt>
      <trkpt lat="48.8761890" lon="8.3077600">
        <ele>122.7100000</ele>
        <time>2010-06-18T09:23:09Z</time>
      </trkpt>
      <trkpt lat="48.8762350" lon="8.3073170">
        <ele>121.2600000</ele>
        <time>2010-06-18T09:23:15Z</time>
      </trkpt>
      <trkpt lat="48.8762660" lon="8.3070600">
        <ele>120.7800000</ele>
        <time>2010-06-18T09:23:18Z</time>
      </trkpt>
      <trkpt lat="48.8762300" lon="8.3054870">
        <ele>119.8200000</ele>
        <time>2010-06-18T09:23:34Z</time>
      </trkpt>
      <trkpt lat="48.8762350" lon="8.3046780">
        <ele>121.7400000</ele>
        <time>2010-06-18T09:23:44Z</time>
      </trkpt>
      <trkpt lat="48.8762300" lon="8.3042050">
        <ele>121.2600000</ele>
        <time>2010-06-18T09:23:50Z</time>
      </trkpt>
      <trkpt lat="48.8762210" lon="8.3040490">
        <ele>121.7400000</ele>
        <time>2010-06-18T09:23:52Z</time>
      </trkpt>
      <trkpt lat="48.8762210" lon="8.3038910">
        <ele>121.2600000</ele>
        <time>2010-06-18T09:23:54Z</time>
      </trkpt>
      <trkpt lat="48.8761600" lon="8.3027870">
        <ele>120.7800000</ele>
        <time>2010-06-18T09:24:07Z</time>
      </trkpt>
      <trkpt lat="48.8761610" lon="8.3025480">
        <ele>120.3000000</ele>
        <time>2010-06-18T09:24:10Z</time>
      </trkpt>
      <trkpt lat="48.8761600" lon="8.3023880">
        <ele>120.3000000</ele>
        <time>2010-06-18T09:24:12Z</time>
      </trkpt>
      <trkpt lat="48.8761580" lon="8.3022360">
        <ele>121.7400000</ele>
        <time>2010-06-18T09:24:14Z</time>
      </trkpt>
      <trkpt lat="48.8761550" lon="8.3018600">
        <ele>123.6700000</ele>
        <time>2010-06-18T09:24:20Z</time>
      </trkpt>
      <trkpt lat="48.8760300" lon="8.3008370">
        <ele>124.6300000</ele>
        <time>2010-06-18T09:24:35Z</time>
      </trkpt>
      <trkpt lat="48.8758870" lon="8.2998120">
        <ele>124.6300000</ele>
        <time>2010-06-18T09:24:49Z</time>
      </trkpt>
      <trkpt lat="48.8758100" lon="8.2991510">
        <ele>124.1500000</ele>
        <time>2010-06-18T09:24:58Z</time>
      </trkpt>
      <trkpt lat="48.8756490" lon="8.2980910">
        <ele>124.6300000</ele>
        <time>2010-06-18T09:25:11Z</time>
      </trkpt>
      <trkpt lat="48.8755000" lon="8.2969750">
        <ele>124.6300000</ele>
        <time>2010-06-18T09:25:25Z</time>
      </trkpt>
      <trkpt lat="48.8753870" lon="8.2960270">
        <ele>124.1500000</ele>
        <time>2010-06-18T09:25:37Z</time>
      </trkpt>
      <trkpt lat="48.8753610" lon="8.2958770">
        <ele>123.6700000</ele>
        <time>2010-06-18T09:25:39Z</time>
      </trkpt>
      <trkpt lat="48.8751880" lon="8.2946300">
        <ele>123.6700000</ele>
        <time>2010-06-18T09:25:54Z</time>
      </trkpt>
      <trkpt lat="48.8750160" lon="8.2935580">
        <ele>123.6700000</ele>
        <time>2010-06-18T09:26:09Z</time>
      </trkpt>
      <trkpt lat="48.8749850" lon="8.2934210">
        <ele>123.6700000</ele>
        <time>2010-06-18T09:26:11Z</time>
      </trkpt>
      <trkpt lat="48.8749680" lon="8.2932800">
        <ele>124.1500000</ele>
        <time>2010-06-18T09:26:13Z</time>
      </trkpt>
      <trkpt lat="48.8747920" lon="8.2921960">
        <ele>124.1500000</ele>
        <time>2010-06-18T09:26:28Z</time>
      </trkpt>
      <trkpt lat="48.8747420" lon="8.2918910">
        <ele>124.1500000</ele>
        <time>2010-06-18T09:26:32Z</time>
      </trkpt>
      <trkpt lat="48.8747090" lon="8.2917430">
        <ele>124.1500000</ele>
        <time>2010-06-18T09:26:34Z</time>
      </trkpt>
      <trkpt lat="48.8746080" lon="8.2912330">
        <ele>124.1500000</ele>
        <time>2010-06-18T09:26:41Z</time>
      </trkpt>
      <trkpt lat="48.8744920" lon="8.2906670">
        <ele>124.1500000</ele>
        <time>2010-06-18T09:26:49Z</time>
      </trkpt>
      <trkpt lat="48.8744300" lon="8.2904140">
        <ele>124.1500000</ele>
        <time>2010-06-18T09:26:53Z</time>
      </trkpt>
      <trkpt lat="48.8744530" lon="8.2902590">
        <ele>123.6700000</ele>
        <time>2010-06-18T09:26:57Z</time>
      </trkpt>
      <trkpt lat="48.8744280" lon="8.2901720">
        <ele>123.1900000</ele>
        <time>2010-06-18T09:27:06Z</time>
      </trkpt>
      <trkpt lat="48.8744610" lon="8.2900500">
        <ele>122.7100000</ele>
        <time>2010-06-18T09:27:15Z</time>
      </trkpt>
      <trkpt lat="48.8744790" lon="8.2900190">
        <ele>122.7100000</ele>
        <time>2010-06-18T09:27:17Z</time>
      </trkpt>
      <trkpt lat="48.8744970" lon="8.2899460">
        <ele>123.1900000</ele>
        <time>2010-06-18T09:27:19Z</time>
      </trkpt>
      <trkpt lat="48.8744660" lon="8.2898750">
        <ele>122.7100000</ele>
        <time>2010-06-18T09:27:22Z</time>
      </trkpt>
      <trkpt lat="48.8741100" lon="8.2896370">
        <ele>122.2200000</ele>
        <time>2010-06-18T09:27:34Z</time>
      </trkpt>
      <trkpt lat="48.8736390" lon="8.2893590">
        <ele>121.7400000</ele>
        <time>2010-06-18T09:27:45Z</time>
      </trkpt>
      <trkpt lat="48.8728110" lon="8.2890510">
        <ele>120.3000000</ele>
        <time>2010-06-18T09:28:02Z</time>
      </trkpt>
      <trkpt lat="48.8725710" lon="8.2889680">
        <ele>119.3400000</ele>
        <time>2010-06-18T09:28:07Z</time>
      </trkpt>
      <trkpt lat="48.8723780" lon="8.2889930">
        <ele>119.3400000</ele>
        <time>2010-06-18T09:28:11Z</time>
      </trkpt>
      <trkpt lat="48.8715790" lon="8.2891170">
        <ele>118.8600000</ele>
        <time>2010-06-18T09:28:26Z</time>
      </trkpt>
      <trkpt lat="48.8709700" lon="8.2891450">
        <ele>118.3800000</ele>
        <time>2010-06-18T09:28:39Z</time>
      </trkpt>
      <trkpt lat="48.8708810" lon="8.2891500">
        <ele>118.8600000</ele>
        <time>2010-06-18T09:28:41Z</time>
      </trkpt>
      <trkpt lat="48.8702600" lon="8.2892200">
        <ele>119.8200000</ele>
        <time>2010-06-18T09:28:54Z</time>
      </trkpt>
      <trkpt lat="48.8699260" lon="8.2891810">
        <ele>119.8200000</ele>
        <time>2010-06-18T09:29:01Z</time>
      </trkpt>
      <trkpt lat="48.8698970" lon="8.2890700">
        <ele>119.3400000</ele>
        <time>2010-06-18T09:29:05Z</time>
      </trkpt>
      <trkpt lat="48.8697800" lon="8.2886400">
        <ele>118.8600000</ele>
        <time>2010-06-18T09:29:16Z</time>
      </trkpt>
      <trkpt lat="48.8697550" lon="8.2885870">
        <ele>117.4200000</ele>
        <time>2010-06-18T09:29:17Z</time>
      </trkpt>
      <trkpt lat="48.8693090" lon="8.2877380">
        <ele>117.9000000</ele>
        <time>2010-06-18T09:29:32Z</time>
      </trkpt>
      <trkpt lat="48.8692360" lon="8.2875720">
        <ele>117.9000000</ele>
        <time>2010-06-18T09:29:35Z</time>
      </trkpt>
      <trkpt lat="48.8691710" lon="8.2872970">
        <ele>118.3800000</ele>
        <time>2010-06-18T09:29:41Z</time>
      </trkpt>
      <trkpt lat="48.8691770" lon="8.2871350">
        <ele>116.9400000</ele>
        <time>2010-06-18T09:29:51Z</time>
      </trkpt>
      <trkpt lat="48.8691860" lon="8.2870750">
        <ele>117.4200000</ele>
        <time>2010-06-18T09:29:54Z</time>
      </trkpt>
      <trkpt lat="48.8689820" lon="8.2867140">
        <ele>116.9400000</ele>
        <time>2010-06-18T09:30:05Z</time>
      </trkpt>
      <trkpt lat="48.8687200" lon="8.2863360">
        <ele>117.4200000</ele>
        <time>2010-06-18T09:30:15Z</time>
      </trkpt>
      <trkpt lat="48.8683500" lon="8.2857450">
        <ele>117.4200000</ele>
        <time>2010-06-18T09:30:25Z</time>
      </trkpt>
      <trkpt lat="48.8682960" lon="8.2856090">
        <ele>117.9000000</ele>
        <time>2010-06-18T09:30:28Z</time>
      </trkpt>
      <trkpt lat="48.8683370" lon="8.2854360">
        <ele>118.3800000</ele>
        <time>2010-06-18T09:30:32Z</time>
      </trkpt>
      <trkpt lat="48.8683080" lon="8.2852770">
        <ele>117.4200000</ele>
        <time>2010-06-18T09:30:36Z</time>
      </trkpt>
      <trkpt lat="48.8680310" lon="8.2847320">
        <ele>116.9400000</ele>
        <time>2010-06-18T09:30:48Z</time>
      </trkpt>
      <trkpt lat="48.8676880" lon="8.2840640">
        <ele>117.4200000</ele>
        <time>2010-06-18T09:31:04Z</time>
      </trkpt>
      <trkpt lat="48.8676010" lon="8.2839000">
        <ele>118.8600000</ele>
        <time>2010-06-18T09:31:08Z</time>
      </trkpt>
      <trkpt lat="48.8673500" lon="8.2832740">
        <ele>118.8600000</ele>
        <time>2010-06-18T09:31:22Z</time>
      </trkpt>
      <trkpt lat="48.8671310" lon="8.2828220">
        <ele>118.3800000</ele>
        <time>2010-06-18T09:31:33Z</time>
      </trkpt>
      <trkpt lat="48.8668720" lon="8.2822920">
        <ele>118.3800000</ele>
        <time>2010-06-18T09:31:46Z</time>
      </trkpt>
      <trkpt lat="48.8668590" lon="8.2822650">
        <ele>118.3800000</ele>
        <time>2010-06-18T09:31:47Z</time>
      </trkpt>
      <trkpt lat="48.8668390" lon="8.2822490">
        <ele>118.3800000</ele>
        <time>2010-06-18T09:31:49Z</time>
      </trkpt>
      <trkpt lat="48.8669710" lon="8.2824720">
        <ele>118.3800000</ele>
        <time>2010-06-18T09:32:00Z</time>
      </trkpt>
      <trkpt lat="48.8671280" lon="8.2827570">
        <ele>118.3800000</ele>
        <time>2010-06-18T09:32:11Z</time>
      </trkpt>
      <trkpt lat="48.8671280" lon="8.2827570">
        <ele>118.3800000</ele>
        <time>2010-06-18T09:32:18Z</time>
      </trkpt>
      <trkpt lat="48.8671310" lon="8.2827340">
        <ele>118.3800000</ele>
        <time>2010-06-18T09:32:29Z</time>
      </trkpt>
      <trkpt lat="48.8671380" lon="8.2827280">
        <ele>117.9000000</ele>
        <time>2010-06-18T09:33:25Z</time>
      </trkpt>
      <trkpt lat="48.8671270" lon="8.2827260">
        <ele>118.8600000</ele>
        <time>2010-06-18T09:36:40Z</time>
      </trkpt>
      <trkpt lat="48.8671100" lon="8.2827110">
        <ele>118.8600000</ele>
        <time>2010-06-18T09:36:48Z</time>
      </trkpt>
      <trkpt lat="48.8669460" lon="8.2824010">
        <ele>118.3800000</ele>
        <time>2010-06-18T09:37:01Z</time>
      </trkpt>
      <trkpt lat="48.8666700" lon="8.2818980">
        <ele>118.8600000</ele>
        <time>2010-06-18T09:37:13Z</time>
      </trkpt>
      <trkpt lat="48.8662720" lon="8.2810760">
        <ele>118.8600000</ele>
        <time>2010-06-18T09:37:31Z</time>
      </trkpt>
      <trkpt lat="48.8659960" lon="8.2804770">
        <ele>119.3400000</ele>
        <time>2010-06-18T09:37:44Z</time>
      </trkpt>
      <trkpt lat="48.8658790" lon="8.2802280">
        <ele>119.8200000</ele>
        <time>2010-06-18T09:37:51Z</time>
      </trkpt>
      <trkpt lat="48.8657500" lon="8.2802480">
        <ele>119.8200000</ele>
        <time>2010-06-18T09:37:56Z</time>
      </trkpt>
      <trkpt lat="48.8651270" lon="8.2809280">
        <ele>118.8600000</ele>
        <time>2010-06-18T09:38:13Z</time>
      </trkpt>
      <trkpt lat="48.8648400" lon="8.2812380">
        <ele>119.3400000</ele>
        <time>2010-06-18T09:38:21Z</time>
      </trkpt>
      <trkpt lat="48.8646410" lon="8.2808810">
        <ele>117.9000000</ele>
        <time>2010-06-18T09:38:31Z</time>
      </trkpt>
      <trkpt lat="48.8644720" lon="8.2802390">
        <ele>118.3800000</ele>
        <time>2010-06-18T09:38:40Z</time>
      </trkpt>
      <trkpt lat="48.8644170" lon="8.2800300">
        <ele>118.3800000</ele>
        <time>2010-06-18T09:38:43Z</time>
      </trkpt>
      <trkpt lat="48.8641010" lon="8.2788600">
        <ele>118.8600000</ele>
        <time>2010-06-18T09:38:58Z</time>
      </trkpt>
      <trkpt lat="48.8637910" lon="8.2778300">
        <ele>120.3000000</ele>
        <time>2010-06-18T09:39:12Z</time>
      </trkpt>
      <trkpt lat="48.8636190" lon="8.2773190">
        <ele>119.8200000</ele>
        <time>2010-06-18T09:39:19Z</time>
      </trkpt>
      <trkpt lat="48.8632970" lon="8.2763370">
        <ele>119.3400000</ele>
        <time>2010-06-18T09:39:33Z</time>
      </trkpt>
      <trkpt lat="48.8629590" lon="8.2752180">
        <ele>119.8200000</ele>
        <time>2010-06-18T09:39:48Z</time>
      </trkpt>
      <trkpt lat="48.8628260" lon="8.2747890">
        <ele>119.8200000</ele>
        <time>2010-06-18T09:39:54Z</time>
      </trkpt>
      <trkpt lat="48.8625890" lon="8.2740180">
        <ele>120.3000000</ele>
        <time>2010-06-18T09:40:06Z</time>
      </trkpt>
      <trkpt lat="48.8624580" lon="8.2735630">
        <ele>119.8200000</ele>
        <time>2010-06-18T09:40:13Z</time>
      </trkpt>
      <trkpt lat="48.8621350" lon="8.2724840">
        <ele>119.8200000</ele>
        <time>2010-06-18T09:40:27Z</time>
      </trkpt>
      <trkpt lat="48.8617610" lon="8.2710060">
        <ele>119.3400000</ele>
        <time>2010-06-18T09:40:46Z</time>
      </trkpt>
      <trkpt lat="48.8611360" lon="8.2700660">
        <ele>118.8600000</ele>
        <time>2010-06-18T09:41:04Z</time>
      </trkpt>
      <trkpt lat="48.8604850" lon="8.2690360">
        <ele>118.3800000</ele>
        <time>2010-06-18T09:41:23Z</time>
      </trkpt>
      <trkpt lat="48.8600850" lon="8.2679690">
        <ele>120.3000000</ele>
        <time>2010-06-18T09:41:40Z</time>
      </trkpt>
      <trkpt lat="48.8595980" lon="8.2667640">
        <ele>120.7800000</ele>
        <time>2010-06-18T09:41:59Z</time>
      </trkpt>
      <trkpt lat="48.8594650" lon="8.2664570">
        <ele>121.2600000</ele>
        <time>2010-06-18T09:42:04Z</time>
      </trkpt>
      <trkpt lat="48.8592000" lon="8.2653370">
        <ele>121.7400000</ele>
        <time>2010-06-18T09:42:20Z</time>
      </trkpt>
      <trkpt lat="48.8591150" lon="8.2648610">
        <ele>120.3000000</ele>
        <time>2010-06-18T09:42:27Z</time>
      </trkpt>
      <trkpt lat="48.8590810" lon="8.2645610">
        <ele>120.3000000</ele>
        <time>2010-06-18T09:42:32Z</time>
      </trkpt>
      <trkpt lat="48.8593750" lon="8.2638370">
        <ele>120.3000000</ele>
        <time>2010-06-18T09:42:43Z</time>
      </trkpt>
      <trkpt lat="48.8597860" lon="8.2628090">
        <ele>119.8200000</ele>
        <time>2010-06-18T09:42:58Z</time>
      </trkpt>
      <trkpt lat="48.8598390" lon="8.2626750">
        <ele>119.8200000</ele>
        <time>2010-06-18T09:43:00Z</time>
      </trkpt>
      <trkpt lat="48.8602770" lon="8.2615510">
        <ele>120.7800000</ele>
        <time>2010-06-18T09:43:17Z</time>
      </trkpt>
      <trkpt lat="48.8603460" lon="8.2613540">
        <ele>120.3000000</ele>
        <time>2010-06-18T09:43:20Z</time>
      </trkpt>
      <trkpt lat="48.8604600" lon="8.2610790">
        <ele>119.8200000</ele>
        <time>2010-06-18T09:43:24Z</time>
      </trkpt>
      <trkpt lat="48.8610620" lon="8.2605120">
        <ele>119.8200000</ele>
        <time>2010-06-18T09:43:36Z</time>
      </trkpt>
      <trkpt lat="48.8616490" lon="8.2601710">
        <ele>119.3400000</ele>
        <time>2010-06-18T09:43:48Z</time>
      </trkpt>
      <trkpt lat="48.8618900" lon="8.2599040">
        <ele>119.8200000</ele>
        <time>2010-06-18T09:43:54Z</time>
      </trkpt>
      <trkpt lat="48.8621260" lon="8.2596310">
        <ele>119.8200000</ele>
        <time>2010-06-18T09:44:00Z</time>
      </trkpt>
      <trkpt lat="48.8625650" lon="8.2589930">
        <ele>119.8200000</ele>
        <time>2010-06-18T09:44:12Z</time>
      </trkpt>
      <trkpt lat="48.8628120" lon="8.2585650">
        <ele>119.3400000</ele>
        <time>2010-06-18T09:44:19Z</time>
      </trkpt>
      <trkpt lat="48.8630040" lon="8.2581850">
        <ele>119.8200000</ele>
        <time>2010-06-18T09:44:25Z</time>
      </trkpt>
      <trkpt lat="48.8632830" lon="8.2574470">
        <ele>119.8200000</ele>
        <time>2010-06-18T09:44:36Z</time>
      </trkpt>
      <trkpt lat="48.8635200" lon="8.2569230">
        <ele>119.8200000</ele>
        <time>2010-06-18T09:44:44Z</time>
      </trkpt>
      <trkpt lat="48.8642460" lon="8.2560220">
        <ele>119.8200000</ele>
        <time>2010-06-18T09:45:02Z</time>
      </trkpt>
      <trkpt lat="48.8647030" lon="8.2555940">
        <ele>119.3400000</ele>
        <time>2010-06-18T09:45:12Z</time>
      </trkpt>
      <trkpt lat="48.8652070" lon="8.2553110">
        <ele>118.3800000</ele>
        <time>2010-06-18T09:45:22Z</time>
      </trkpt>
      <trkpt lat="48.8653950" lon="8.2552490">
        <ele>118.3800000</ele>
        <time>2010-06-18T09:45:26Z</time>
      </trkpt>
      <trkpt lat="48.8656280" lon="8.2552150">
        <ele>117.9000000</ele>
        <time>2010-06-18T09:45:31Z</time>
      </trkpt>
      <trkpt lat="48.8657640" lon="8.2552140">
        <ele>118.3800000</ele>
        <time>2010-06-18T09:45:34Z</time>
      </trkpt>
      <trkpt lat="48.8660290" lon="8.2551980">
        <ele>118.8600000</ele>
        <time>2010-06-18T09:45:41Z</time>
      </trkpt>
      <trkpt lat="48.8660520" lon="8.2551710">
        <ele>118.8600000</ele>
        <time>2010-06-18T09:45:56Z</time>
      </trkpt>
      <trkpt lat="48.8660520" lon="8.2551670">
        <ele>117.9000000</ele>
        <time>2010-06-18T09:46:26Z</time>
      </trkpt>
      <trkpt lat="48.8660560" lon="8.2551680">
        <ele>119.3400000</ele>
        <time>2010-06-18T09:47:56Z</time>
      </trkpt>
      <trkpt lat="48.8660060" lon="8.2550820">
        <ele>119.3400000</ele>
        <time>2010-06-18T09:48:00Z</time>
      </trkpt>
      <trkpt lat="48.8657430" lon="8.2549140">
        <ele>118.8600000</ele>
        <time>2010-06-18T09:48:06Z</time>
      </trkpt>
      <trkpt lat="48.8648080" lon="8.2539950">
        <ele>119.3400000</ele>
        <time>2010-06-18T09:48:27Z</time>
      </trkpt>
      <trkpt lat="48.8642040" lon="8.2529820">
        <ele>119.8200000</ele>
        <time>2010-06-18T09:48:44Z</time>
      </trkpt>
      <trkpt lat="48.8637260" lon="8.2516770">
        <ele>118.8600000</ele>
        <time>2010-06-18T09:49:02Z</time>
      </trkpt>
      <trkpt lat="48.8632280" lon="8.2503220">
        <ele>117.9000000</ele>
        <time>2010-06-18T09:49:19Z</time>
      </trkpt>
      <trkpt lat="48.8631400" lon="8.2501190">
        <ele>117.9000000</ele>
        <time>2010-06-18T09:49:22Z</time>
      </trkpt>
      <trkpt lat="48.8626020" lon="8.2494130">
        <ele>118.3800000</ele>
        <time>2010-06-18T09:49:36Z</time>
      </trkpt>
      <trkpt lat="48.8618490" lon="8.2491050">
        <ele>119.8200000</ele>
        <time>2010-06-18T09:49:52Z</time>
      </trkpt>
      <trkpt lat="48.8616320" lon="8.2490860">
        <ele>121.2600000</ele>
        <time>2010-06-18T09:50:03Z</time>
      </trkpt>
      <trkpt lat="48.8616320" lon="8.2490860">
        <ele>120.7800000</ele>
        <time>2010-06-18T09:50:13Z</time>
      </trkpt>
      <trkpt lat="48.8616300" lon="8.2490800">
        <ele>121.2600000</ele>
        <time>2010-06-18T09:51:09Z</time>
      </trkpt>
      <trkpt lat="48.8614960" lon="8.2490520">
        <ele>120.3000000</ele>
        <time>2010-06-18T09:51:38Z</time>
      </trkpt>
      <trkpt lat="48.8611950" lon="8.2489700">
        <ele>120.3000000</ele>
        <time>2010-06-18T09:51:44Z</time>
      </trkpt>
      <trkpt lat="48.8607320" lon="8.2489510">
        <ele>120.3000000</ele>
        <time>2010-06-18T09:51:52Z</time>
      </trkpt>
      <trkpt lat="48.8599580" lon="8.2488710">
        <ele>119.3400000</ele>
        <time>2010-06-18T09:52:06Z</time>
      </trkpt>
      <trkpt lat="48.8591680" lon="8.2488250">
        <ele>120.3000000</ele>
        <time>2010-06-18T09:52:20Z</time>
      </trkpt>
      <trkpt lat="48.8588200" lon="8.2488530">
        <ele>120.7800000</ele>
        <time>2010-06-18T09:52:27Z</time>
      </trkpt>
      <trkpt lat="48.8583930" lon="8.2487890">
        <ele>121.2600000</ele>
        <time>2010-06-18T09:52:36Z</time>
      </trkpt>
      <trkpt lat="48.8582620" lon="8.2487250">
        <ele>121.2600000</ele>
        <time>2010-06-18T09:52:39Z</time>
      </trkpt>
      <trkpt lat="48.8581050" lon="8.2485810">
        <ele>121.2600000</ele>
        <time>2010-06-18T09:52:43Z</time>
      </trkpt>
      <trkpt lat="48.8576190" lon="8.2481650">
        <ele>120.7800000</ele>
        <time>2010-06-18T09:52:55Z</time>
      </trkpt>
      <trkpt lat="48.8568490" lon="8.2477890">
        <ele>120.3000000</ele>
        <time>2010-06-18T09:53:11Z</time>
      </trkpt>
      <trkpt lat="48.8567510" lon="8.2477590">
        <ele>120.3000000</ele>
        <time>2010-06-18T09:53:13Z</time>
      </trkpt>
      <trkpt lat="48.8559030" lon="8.2476860">
        <ele>120.7800000</ele>
        <time>2010-06-18T09:53:30Z</time>
      </trkpt>
      <trkpt lat="48.8552650" lon="8.2475220">
        <ele>122.2200000</ele>
        <time>2010-06-18T09:53:45Z</time>
      </trkpt>
      <trkpt lat="48.8547750" lon="8.2471120">
        <ele>120.7800000</ele>
        <time>2010-06-18T09:53:58Z</time>
      </trkpt>
      <trkpt lat="48.8545040" lon="8.2468400">
        <ele>121.2600000</ele>
        <time>2010-06-18T09:54:05Z</time>
      </trkpt>
      <trkpt lat="48.8538810" lon="8.2462410">
        <ele>121.2600000</ele>
        <time>2010-06-18T09:54:21Z</time>
      </trkpt>
      <trkpt lat="48.8531090" lon="8.2458660">
        <ele>120.7800000</ele>
        <time>2010-06-18T09:54:38Z</time>
      </trkpt>
      <trkpt lat="48.8523930" lon="8.2455450">
        <ele>122.7100000</ele>
        <time>2010-06-18T09:54:53Z</time>
      </trkpt>
      <trkpt lat="48.8516650" lon="8.2450790">
        <ele>123.1900000</ele>
        <time>2010-06-18T09:55:09Z</time>
      </trkpt>
      <trkpt lat="48.8510160" lon="8.2445050">
        <ele>120.7800000</ele>
        <time>2010-06-18T09:55:23Z</time>
      </trkpt>
      <trkpt lat="48.8502830" lon="8.2440350">
        <ele>120.3000000</ele>
        <time>2010-06-18T09:55:37Z</time>
      </trkpt>
      <trkpt lat="48.8494220" lon="8.2435380">
        <ele>121.2600000</ele>
        <time>2010-06-18T09:55:55Z</time>
      </trkpt>
      <trkpt lat="48.8492470" lon="8.2434250">
        <ele>120.7800000</ele>
        <time>2010-06-18T09:56:03Z</time>
      </trkpt>
      <trkpt lat="48.8489990" lon="8.2432710">
        <ele>121.7400000</ele>
        <time>2010-06-18T09:56:13Z</time>
      </trkpt>
      <trkpt lat="48.8489780" lon="8.2432560">
        <ele>122.2200000</ele>
        <time>2010-06-18T09:56:26Z</time>
      </trkpt>
      <trkpt lat="48.8489780" lon="8.2432560">
        <ele>121.7400000</ele>
        <time>2010-06-18T09:56:52Z</time>
      </trkpt>
      <trkpt lat="48.8487950" lon="8.2431470">
        <ele>121.7400000</ele>
        <time>2010-06-18T09:57:00Z</time>
      </trkpt>
      <trkpt lat="48.8483370" lon="8.2429460">
        <ele>121.7400000</ele>
        <time>2010-06-18T09:57:13Z</time>
      </trkpt>
      <trkpt lat="48.8482200" lon="8.2429000">
        <ele>122.2200000</ele>
        <time>2010-06-18T09:57:16Z</time>
      </trkpt>
      <trkpt lat="48.8475780" lon="8.2426390">
        <ele>122.2200000</ele>
        <time>2010-06-18T09:57:33Z</time>
      </trkpt>
      <trkpt lat="48.8468620" lon="8.2423760">
        <ele>122.2200000</ele>
        <time>2010-06-18T09:57:51Z</time>
      </trkpt>
      <trkpt lat="48.8466310" lon="8.2423050">
        <ele>122.7100000</ele>
        <time>2010-06-18T09:57:57Z</time>
      </trkpt>
      <trkpt lat="48.8458880" lon="8.2421730">
        <ele>122.7100000</ele>
        <time>2010-06-18T09:58:16Z</time>
      </trkpt>
      <trkpt lat="48.8455040" lon="8.2421250">
        <ele>121.7400000</ele>
        <time>2010-06-18T09:58:25Z</time>
      </trkpt>
      <trkpt lat="48.8447060" lon="8.2421720">
        <ele>121.2600000</ele>
        <time>2010-06-18T09:58:44Z</time>
      </trkpt>
      <trkpt lat="48.8440570" lon="8.2425280">
        <ele>122.2200000</ele>
        <time>2010-06-18T09:59:01Z</time>
      </trkpt>
      <trkpt lat="48.8432240" lon="8.2428370">
        <ele>121.7400000</ele>
        <time>2010-06-18T09:59:21Z</time>
      </trkpt>
      <trkpt lat="48.8424080" lon="8.2430250">
        <ele>123.6700000</ele>
        <time>2010-06-18T09:59:41Z</time>
      </trkpt>
      <trkpt lat="48.8422860" lon="8.2430760">
        <ele>123.6700000</ele>
        <time>2010-06-18T09:59:44Z</time>
      </trkpt>
      <trkpt lat="48.8417870" lon="8.2433240">
        <ele>124.1500000</ele>
        <time>2010-06-18T09:59:57Z</time>
      </trkpt>
      <trkpt lat="48.8411760" lon="8.2439690">
        <ele>124.6300000</ele>
        <time>2010-06-18T10:00:14Z</time>
      </trkpt>
      <trkpt lat="48.8411470" lon="8.2440240">
        <ele>124.1500000</ele>
        <time>2010-06-18T10:00:15Z</time>
      </trkpt>
      <trkpt lat="48.8405690" lon="8.2446780">
        <ele>124.6300000</ele>
        <time>2010-06-18T10:00:31Z</time>
      </trkpt>
      <trkpt lat="48.8404340" lon="8.2448350">
        <ele>124.6300000</ele>
        <time>2010-06-18T10:00:35Z</time>
      </trkpt>
      <trkpt lat="48.8404210" lon="8.2452450">
        <ele>125.1100000</ele>
        <time>2010-06-18T10:00:42Z</time>
      </trkpt>
      <trkpt lat="48.8404480" lon="8.2456710">
        <ele>124.6300000</ele>
        <time>2010-06-18T10:00:49Z</time>
      </trkpt>
      <trkpt lat="48.8400180" lon="8.2466770">
        <ele>125.5900000</ele>
        <time>2010-06-18T10:01:07Z</time>
      </trkpt>
      <trkpt lat="48.8397590" lon="8.2472750">
        <ele>125.1100000</ele>
        <time>2010-06-18T10:01:17Z</time>
      </trkpt>
      <trkpt lat="48.8396390" lon="8.2475310">
        <ele>125.1100000</ele>
        <time>2010-06-18T10:01:21Z</time>
      </trkpt>
      <trkpt lat="48.8393560" lon="8.2482130">
        <ele>125.5900000</ele>
        <time>2010-06-18T10:01:33Z</time>
      </trkpt>
      <trkpt lat="48.8393120" lon="8.2483970">
        <ele>126.0700000</ele>
        <time>2010-06-18T10:01:36Z</time>
      </trkpt>
      <trkpt lat="48.8391170" lon="8.2496070">
        <ele>126.0700000</ele>
        <time>2010-06-18T10:01:54Z</time>
      </trkpt>
      <trkpt lat="48.8388540" lon="8.2506950">
        <ele>126.0700000</ele>
        <time>2010-06-18T10:02:11Z</time>
      </trkpt>
      <trkpt lat="48.8387000" lon="8.2512940">
        <ele>126.0700000</ele>
        <time>2010-06-18T10:02:20Z</time>
      </trkpt>
      <trkpt lat="48.8383420" lon="8.2524400">
        <ele>126.5500000</ele>
        <time>2010-06-18T10:02:37Z</time>
      </trkpt>
      <trkpt lat="48.8381420" lon="8.2529110">
        <ele>127.0300000</ele>
        <time>2010-06-18T10:02:45Z</time>
      </trkpt>
      <trkpt lat="48.8378710" lon="8.2529720">
        <ele>126.5500000</ele>
        <time>2010-06-18T10:02:52Z</time>
      </trkpt>
      <trkpt lat="48.8374900" lon="8.2526280">
        <ele>126.5500000</ele>
        <time>2010-06-18T10:03:01Z</time>
      </trkpt>
      <trkpt lat="48.8372510" lon="8.2527770">
        <ele>126.5500000</ele>
        <time>2010-06-18T10:03:07Z</time>
      </trkpt>
      <trkpt lat="48.8369480" lon="8.2535540">
        <ele>126.5500000</ele>
        <time>2010-06-18T10:03:20Z</time>
      </trkpt>
      <trkpt lat="48.8368920" lon="8.2537990">
        <ele>126.5500000</ele>
        <time>2010-06-18T10:03:24Z</time>
      </trkpt>
      <trkpt lat="48.8368800" lon="8.2540060">
        <ele>126.5500000</ele>
        <time>2010-06-18T10:03:27Z</time>
      </trkpt>
      <trkpt lat="48.8369460" lon="8.2549200">
        <ele>127.0300000</ele>
        <time>2010-06-18T10:03:41Z</time>
      </trkpt>
      <trkpt lat="48.8368110" lon="8.2550850">
        <ele>127.0300000</ele>
        <time>2010-06-18T10:03:46Z</time>
      </trkpt>
      <trkpt lat="48.8364890" lon="8.2551460">
        <ele>127.0300000</ele>
        <time>2010-06-18T10:03:53Z</time>
      </trkpt>
      <trkpt lat="48.8356490" lon="8.2552780">
        <ele>125.5900000</ele>
        <time>2010-06-18T10:04:10Z</time>
      </trkpt>
      <trkpt lat="48.8355080" lon="8.2552930">
        <ele>126.0700000</ele>
        <time>2010-06-18T10:04:13Z</time>
      </trkpt>
      <trkpt lat="48.8354180" lon="8.2553410">
        <ele>126.5500000</ele>
        <time>2010-06-18T10:04:15Z</time>
      </trkpt>
      <trkpt lat="48.8352880" lon="8.2553800">
        <ele>126.5500000</ele>
        <time>2010-06-18T10:04:18Z</time>
      </trkpt>
      <trkpt lat="48.8347550" lon="8.2552350">
        <ele>127.0300000</ele>
        <time>2010-06-18T10:04:32Z</time>
      </trkpt>
      <trkpt lat="48.8343360" lon="8.2549060">
        <ele>128.4700000</ele>
        <time>2010-06-18T10:04:45Z</time>
      </trkpt>
      <trkpt lat="48.8337380" lon="8.2544460">
        <ele>129.9200000</ele>
        <time>2010-06-18T10:05:01Z</time>
      </trkpt>
      <trkpt lat="48.8332140" lon="8.2540080">
        <ele>130.4000000</ele>
        <time>2010-06-18T10:05:16Z</time>
      </trkpt>
      <trkpt lat="48.8328920" lon="8.2537530">
        <ele>129.4300000</ele>
        <time>2010-06-18T10:05:25Z</time>
      </trkpt>
      <trkpt lat="48.8325790" lon="8.2535850">
        <ele>128.4700000</ele>
        <time>2010-06-18T10:05:36Z</time>
      </trkpt>
      <trkpt lat="48.8325650" lon="8.2535810">
        <ele>128.4700000</ele>
        <time>2010-06-18T10:05:44Z</time>
      </trkpt>
      <trkpt lat="48.8324820" lon="8.2535320">
        <ele>127.9900000</ele>
        <time>2010-06-18T10:05:50Z</time>
      </trkpt>
      <trkpt lat="48.8324160" lon="8.2534070">
        <ele>127.5100000</ele>
        <time>2010-06-18T10:05:55Z</time>
      </trkpt>
      <trkpt lat="48.8323680" lon="8.2532780">
        <ele>127.5100000</ele>
        <time>2010-06-18T10:05:58Z</time>
      </trkpt>
      <trkpt lat="48.8318550" lon="8.2525880">
        <ele>126.0700000</ele>
        <time>2010-06-18T10:06:13Z</time>
      </trkpt>
      <trkpt lat="48.8316980" lon="8.2524280">
        <ele>126.5500000</ele>
        <time>2010-06-18T10:06:17Z</time>
      </trkpt>
      <trkpt lat="48.8315180" lon="8.2522010">
        <ele>127.0300000</ele>
        <time>2010-06-18T10:06:22Z</time>
      </trkpt>
      <trkpt lat="48.8313280" lon="8.2519140">
        <ele>127.0300000</ele>
        <time>2010-06-18T10:06:28Z</time>
      </trkpt>
      <trkpt lat="48.8310670" lon="8.2516020">
        <ele>127.5100000</ele>
        <time>2010-06-18T10:06:36Z</time>
      </trkpt>
      <trkpt lat="48.8309150" lon="8.2516880">
        <ele>127.9900000</ele>
        <time>2010-06-18T10:06:40Z</time>
      </trkpt>
      <trkpt lat="48.8308040" lon="8.2518330">
        <ele>127.5100000</ele>
        <time>2010-06-18T10:06:43Z</time>
      </trkpt>
      <trkpt lat="48.8304570" lon="8.2518310">
        <ele>127.5100000</ele>
        <time>2010-06-18T10:06:51Z</time>
      </trkpt>
      <trkpt lat="48.8300750" lon="8.2513330">
        <ele>127.9900000</ele>
        <time>2010-06-18T10:07:02Z</time>
      </trkpt>
      <trkpt lat="48.8299690" lon="8.2511930">
        <ele>127.9900000</ele>
        <time>2010-06-18T10:07:05Z</time>
      </trkpt>
      <trkpt lat="48.8297220" lon="8.2510270">
        <ele>128.4700000</ele>
        <time>2010-06-18T10:07:11Z</time>
      </trkpt>
      <trkpt lat="48.8290240" lon="8.2510950">
        <ele>128.9500000</ele>
        <time>2010-06-18T10:07:27Z</time>
      </trkpt>
      <trkpt lat="48.8282900" lon="8.2511980">
        <ele>129.4300000</ele>
        <time>2010-06-18T10:07:44Z</time>
      </trkpt>
      <trkpt lat="48.8279020" lon="8.2511920">
        <ele>129.9200000</ele>
        <time>2010-06-18T10:07:55Z</time>
      </trkpt>
      <trkpt lat="48.8278260" lon="8.2516500">
        <ele>129.9200000</ele>
        <time>2010-06-18T10:08:04Z</time>
      </trkpt>
      <trkpt lat="48.8278230" lon="8.2517420">
        <ele>128.9500000</ele>
        <time>2010-06-18T10:08:06Z</time>
      </trkpt>
      <trkpt lat="48.8277690" lon="8.2518010">
        <ele>130.8800000</ele>
        <time>2010-06-18T10:08:10Z</time>
      </trkpt>
      <trkpt lat="48.8277240" lon="8.2518040">
        <ele>128.9500000</ele>
        <time>2010-06-18T10:08:25Z</time>
      </trkpt>
      <trkpt lat="48.8275320" lon="8.2518030">
        <ele>130.4000000</ele>
        <time>2010-06-18T10:08:35Z</time>
      </trkpt>
      <trkpt lat="48.8269900" lon="8.2517270">
        <ele>130.8800000</ele>
        <time>2010-06-18T10:08:50Z</time>
      </trkpt>
      <trkpt lat="48.8263800" lon="8.2516440">
        <ele>132.3200000</ele>
        <time>2010-06-18T10:09:06Z</time>
      </trkpt>
      <trkpt lat="48.8260570" lon="8.2516030">
        <ele>132.8000000</ele>
        <time>2010-06-18T10:09:14Z</time>
      </trkpt>
      <trkpt lat="48.8253750" lon="8.2515100">
        <ele>133.2800000</ele>
        <time>2010-06-18T10:09:30Z</time>
      </trkpt>
      <trkpt lat="48.8252160" lon="8.2514870">
        <ele>134.7200000</ele>
        <time>2010-06-18T10:09:34Z</time>
      </trkpt>
      <trkpt lat="48.8250700" lon="8.2515140">
        <ele>134.7200000</ele>
        <time>2010-06-18T10:09:38Z</time>
      </trkpt>
      <trkpt lat="48.8249580" lon="8.2521010">
        <ele>134.2400000</ele>
        <time>2010-06-18T10:09:49Z</time>
      </trkpt>
      <trkpt lat="48.8248770" lon="8.2526670">
        <ele>134.7200000</ele>
        <time>2010-06-18T10:09:59Z</time>
      </trkpt>
      <trkpt lat="48.8247640" lon="8.2527510">
        <ele>135.6800000</ele>
        <time>2010-06-18T10:10:03Z</time>
      </trkpt>
      <trkpt lat="48.8243720" lon="8.2525030">
        <ele>135.6800000</ele>
        <time>2010-06-18T10:10:14Z</time>
      </trkpt>
      <trkpt lat="48.8239970" lon="8.2522140">
        <ele>136.6400000</ele>
        <time>2010-06-18T10:10:25Z</time>
      </trkpt>
      <trkpt lat="48.8236240" lon="8.2519690">
        <ele>137.6100000</ele>
        <time>2010-06-18T10:10:36Z</time>
      </trkpt>
      <trkpt lat="48.8235470" lon="8.2519020">
        <ele>138.5700000</ele>
        <time>2010-06-18T10:10:38Z</time>
      </trkpt>
      <trkpt lat="48.8233670" lon="8.2516470">
        <ele>140.0100000</ele>
        <time>2010-06-18T10:10:44Z</time>
      </trkpt>
      <trkpt lat="48.8232730" lon="8.2513280">
        <ele>140.0100000</ele>
        <time>2010-06-18T10:10:50Z</time>
      </trkpt>
      <trkpt lat="48.8232400" lon="8.2511320">
        <ele>140.4900000</ele>
        <time>2010-06-18T10:10:53Z</time>
      </trkpt>
      <trkpt lat="48.8230850" lon="8.2507960">
        <ele>140.4900000</ele>
        <time>2010-06-18T10:10:59Z</time>
      </trkpt>
      <trkpt lat="48.8227520" lon="8.2501580">
        <ele>140.9700000</ele>
        <time>2010-06-18T10:11:11Z</time>
      </trkpt>
      <trkpt lat="48.8226870" lon="8.2500710">
        <ele>140.9700000</ele>
        <time>2010-06-18T10:11:13Z</time>
      </trkpt>
      <trkpt lat="48.8224300" lon="8.2496230">
        <ele>140.9700000</ele>
        <time>2010-06-18T10:11:21Z</time>
      </trkpt>
      <trkpt lat="48.8217240" lon="8.2487420">
        <ele>140.0100000</ele>
        <time>2010-06-18T10:11:38Z</time>
      </trkpt>
      <trkpt lat="48.8211860" lon="8.2481190">
        <ele>138.0900000</ele>
        <time>2010-06-18T10:11:50Z</time>
      </trkpt>
      <trkpt lat="48.8210270" lon="8.2478540">
        <ele>138.0900000</ele>
        <time>2010-06-18T10:11:54Z</time>
      </trkpt>
      <trkpt lat="48.8207720" lon="8.2471150">
        <ele>137.6100000</ele>
        <time>2010-06-18T10:12:03Z</time>
      </trkpt>
      <trkpt lat="48.8207070" lon="8.2466180">
        <ele>136.1600000</ele>
        <time>2010-06-18T10:12:09Z</time>
      </trkpt>
      <trkpt lat="48.8206050" lon="8.2463600">
        <ele>136.1600000</ele>
        <time>2010-06-18T10:12:13Z</time>
      </trkpt>
      <trkpt lat="48.8201740" lon="8.2457260">
        <ele>138.5700000</ele>
        <time>2010-06-18T10:12:27Z</time>
      </trkpt>
      <trkpt lat="48.8201430" lon="8.2456740">
        <ele>138.5700000</ele>
        <time>2010-06-18T10:12:28Z</time>
      </trkpt>
      <trkpt lat="48.8200570" lon="8.2455140">
        <ele>138.5700000</ele>
        <time>2010-06-18T10:12:31Z</time>
      </trkpt>
      <trkpt lat="48.8198960" lon="8.2452870">
        <ele>139.0500000</ele>
        <time>2010-06-18T10:12:36Z</time>
      </trkpt>
      <trkpt lat="48.8196520" lon="8.2448950">
        <ele>140.4900000</ele>
        <time>2010-06-18T10:12:43Z</time>
      </trkpt>
      <trkpt lat="48.8192290" lon="8.2442610">
        <ele>141.4500000</ele>
        <time>2010-06-18T10:12:55Z</time>
      </trkpt>
      <trkpt lat="48.8190960" lon="8.2440440">
        <ele>140.9700000</ele>
        <time>2010-06-18T10:12:59Z</time>
      </trkpt>
      <trkpt lat="48.8187860" lon="8.2435950">
        <ele>141.4500000</ele>
        <time>2010-06-18T10:13:10Z</time>
      </trkpt>
      <trkpt lat="48.8184770" lon="8.2434390">
        <ele>143.8500000</ele>
        <time>2010-06-18T10:13:19Z</time>
      </trkpt>
      <trkpt lat="48.8182040" lon="8.2429970">
        <ele>143.3700000</ele>
        <time>2010-06-18T10:13:28Z</time>
      </trkpt>
      <trkpt lat="48.8175860" lon="8.2421590">
        <ele>143.3700000</ele>
        <time>2010-06-18T10:13:44Z</time>
      </trkpt>
      <trkpt lat="48.8169330" lon="8.2412850">
        <ele>144.8200000</ele>
        <time>2010-06-18T10:14:01Z</time>
      </trkpt>
      <trkpt lat="48.8166520" lon="8.2409010">
        <ele>145.7800000</ele>
        <time>2010-06-18T10:14:09Z</time>
      </trkpt>
      <trkpt lat="48.8162640" lon="8.2402980">
        <ele>147.7000000</ele>
        <time>2010-06-18T10:14:23Z</time>
      </trkpt>
      <trkpt lat="48.8160760" lon="8.2399550">
        <ele>144.3400000</ele>
        <time>2010-06-18T10:14:27Z</time>
      </trkpt>
      <trkpt lat="48.8155060" lon="8.2389250">
        <ele>142.8900000</ele>
        <time>2010-06-18T10:14:39Z</time>
      </trkpt>
      <trkpt lat="48.8153390" lon="8.2386610">
        <ele>142.8900000</ele>
        <time>2010-06-18T10:14:43Z</time>
      </trkpt>
      <trkpt lat="48.8149120" lon="8.2379670">
        <ele>140.9700000</ele>
        <time>2010-06-18T10:14:55Z</time>
      </trkpt>
      <trkpt lat="48.8148790" lon="8.2379130">
        <ele>140.4900000</ele>
        <time>2010-06-18T10:14:56Z</time>
      </trkpt>
      <trkpt lat="48.8145470" lon="8.2375850">
        <ele>138.0900000</ele>
        <time>2010-06-18T10:15:07Z</time>
      </trkpt>
      <trkpt lat="48.8143560" lon="8.2372940">
        <ele>138.0900000</ele>
        <time>2010-06-18T10:15:15Z</time>
      </trkpt>
      <trkpt lat="48.8142480" lon="8.2370680">
        <ele>137.1300000</ele>
        <time>2010-06-18T10:15:19Z</time>
      </trkpt>
      <trkpt lat="48.8139720" lon="8.2359340">
        <ele>135.6800000</ele>
        <time>2010-06-18T10:15:32Z</time>
      </trkpt>
      <trkpt lat="48.8139860" lon="8.2355950">
        <ele>135.2000000</ele>
        <time>2010-06-18T10:15:36Z</time>
      </trkpt>
      <trkpt lat="48.8139610" lon="8.2352690">
        <ele>135.2000000</ele>
        <time>2010-06-18T10:15:40Z</time>
      </trkpt>
      <trkpt lat="48.8138970" lon="8.2349380">
        <ele>134.7200000</ele>
        <time>2010-06-18T10:15:45Z</time>
      </trkpt>
      <trkpt lat="48.8134880" lon="8.2337870">
        <ele>133.7600000</ele>
        <time>2010-06-18T10:16:02Z</time>
      </trkpt>
      <trkpt lat="48.8134450" lon="8.2336980">
        <ele>134.2400000</ele>
        <time>2010-06-18T10:16:04Z</time>
      </trkpt>
      <trkpt lat="48.8132010" lon="8.2339030">
        <ele>135.2000000</ele>
        <time>2010-06-18T10:16:14Z</time>
      </trkpt>
      <trkpt lat="48.8130040" lon="8.2338170">
        <ele>137.6100000</ele>
        <time>2010-06-18T10:16:22Z</time>
      </trkpt>
      <trkpt lat="48.8126870" lon="8.2333100">
        <ele>140.9700000</ele>
        <time>2010-06-18T10:16:38Z</time>
      </trkpt>
      <trkpt lat="48.8122770" lon="8.2332080">
        <ele>142.8900000</ele>
        <time>2010-06-18T10:16:53Z</time>
      </trkpt>
      <trkpt lat="48.8118670" lon="8.2331920">
        <ele>145.3000000</ele>
        <time>2010-06-18T10:17:07Z</time>
      </trkpt>
      <trkpt lat="48.8115020" lon="8.2326170">
        <ele>144.8200000</ele>
        <time>2010-06-18T10:17:21Z</time>
      </trkpt>
      <trkpt lat="48.8113030" lon="8.2320800">
        <ele>144.8200000</ele>
        <time>2010-06-18T10:17:31Z</time>
      </trkpt>
      <trkpt lat="48.8110040" lon="8.2315080">
        <ele>144.3400000</ele>
        <time>2010-06-18T10:17:42Z</time>
      </trkpt>
      <trkpt lat="48.8108700" lon="8.2312580">
        <ele>144.3400000</ele>
        <time>2010-06-18T10:17:47Z</time>
      </trkpt>
      <trkpt lat="48.8107380" lon="8.2303090">
        <ele>143.8500000</ele>
        <time>2010-06-18T10:18:00Z</time>
      </trkpt>
      <trkpt lat="48.8104150" lon="8.2292140">
        <ele>143.3700000</ele>
        <time>2010-06-18T10:18:15Z</time>
      </trkpt>
      <trkpt lat="48.8100440" lon="8.2283230">
        <ele>141.9300000</ele>
        <time>2010-06-18T10:18:29Z</time>
      </trkpt>
      <trkpt lat="48.8098890" lon="8.2279380">
        <ele>141.4500000</ele>
        <time>2010-06-18T10:18:36Z</time>
      </trkpt>
      <trkpt lat="48.8098300" lon="8.2278190">
        <ele>141.4500000</ele>
        <time>2010-06-18T10:18:38Z</time>
      </trkpt>
      <trkpt lat="48.8092670" lon="8.2270600">
        <ele>139.0500000</ele>
        <time>2010-06-18T10:18:52Z</time>
      </trkpt>
      <trkpt lat="48.8086030" lon="8.2268040">
        <ele>137.1300000</ele>
        <time>2010-06-18T10:19:06Z</time>
      </trkpt>
      <trkpt lat="48.8082310" lon="8.2265180">
        <ele>137.6100000</ele>
        <time>2010-06-18T10:19:17Z</time>
      </trkpt>
      <trkpt lat="48.8082300" lon="8.2262750">
        <ele>136.6400000</ele>
        <time>2010-06-18T10:19:22Z</time>
      </trkpt>
      <trkpt lat="48.8082900" lon="8.2260420">
        <ele>137.6100000</ele>
        <time>2010-06-18T10:19:26Z</time>
      </trkpt>
      <trkpt lat="48.8083550" lon="8.2258730">
        <ele>137.1300000</ele>
        <time>2010-06-18T10:19:29Z</time>
      </trkpt>
      <trkpt lat="48.8084540" lon="8.2255630">
        <ele>136.6400000</ele>
        <time>2010-06-18T10:19:34Z</time>
      </trkpt>
      <trkpt lat="48.8086190" lon="8.2250170">
        <ele>135.6800000</ele>
        <time>2010-06-18T10:19:47Z</time>
      </trkpt>
      <trkpt lat="48.8086210" lon="8.2249520">
        <ele>135.6800000</ele>
        <time>2010-06-18T10:19:49Z</time>
      </trkpt>
      <trkpt lat="48.8083150" lon="8.2245740">
        <ele>135.2000000</ele>
        <time>2010-06-18T10:20:00Z</time>
      </trkpt>
      <trkpt lat="48.8081510" lon="8.2243590">
        <ele>135.6800000</ele>
        <time>2010-06-18T10:20:05Z</time>
      </trkpt>
      <trkpt lat="48.8080290" lon="8.2241830">
        <ele>135.2000000</ele>
        <time>2010-06-18T10:20:09Z</time>
      </trkpt>
      <trkpt lat="48.8079660" lon="8.2241000">
        <ele>135.2000000</ele>
        <time>2010-06-18T10:20:11Z</time>
      </trkpt>
      <trkpt lat="48.8078770" lon="8.2239690">
        <ele>135.2000000</ele>
        <time>2010-06-18T10:20:14Z</time>
      </trkpt>
      <trkpt lat="48.8077490" lon="8.2237950">
        <ele>134.7200000</ele>
        <time>2010-06-18T10:20:18Z</time>
      </trkpt>
      <trkpt lat="48.8075410" lon="8.2235210">
        <ele>134.7200000</ele>
        <time>2010-06-18T10:20:24Z</time>
      </trkpt>
      <trkpt lat="48.8073980" lon="8.2233470">
        <ele>135.2000000</ele>
        <time>2010-06-18T10:20:28Z</time>
      </trkpt>
      <trkpt lat="48.8069960" lon="8.2228500">
        <ele>134.7200000</ele>
        <time>2010-06-18T10:20:41Z</time>
      </trkpt>
      <trkpt lat="48.8068260" lon="8.2226650">
        <ele>134.7200000</ele>
        <time>2010-06-18T10:20:46Z</time>
      </trkpt>
      <trkpt lat="48.8065480" lon="8.2223250">
        <ele>134.7200000</ele>
        <time>2010-06-18T10:20:54Z</time>
      </trkpt>
      <trkpt lat="48.8060530" lon="8.2215550">
        <ele>133.2800000</ele>
        <time>2010-06-18T10:21:11Z</time>
      </trkpt>
      <trkpt lat="48.8057060" lon="8.2209350">
        <ele>132.8000000</ele>
        <time>2010-06-18T10:21:24Z</time>
      </trkpt>
      <trkpt lat="48.8053680" lon="8.2203490">
        <ele>132.8000000</ele>
        <time>2010-06-18T10:21:37Z</time>
      </trkpt>
      <trkpt lat="48.8052300" lon="8.2201720">
        <ele>132.8000000</ele>
        <time>2010-06-18T10:21:43Z</time>
      </trkpt>
      <trkpt lat="48.8051130" lon="8.2202870">
        <ele>133.2800000</ele>
        <time>2010-06-18T10:21:48Z</time>
      </trkpt>
      <trkpt lat="48.8050450" lon="8.2207030">
        <ele>133.7600000</ele>
        <time>2010-06-18T10:21:59Z</time>
      </trkpt>
      <trkpt lat="48.8049730" lon="8.2210040">
        <ele>132.8000000</ele>
        <time>2010-06-18T10:22:11Z</time>
      </trkpt>
      <trkpt lat="48.8049750" lon="8.2210140">
        <ele>133.2800000</ele>
        <time>2010-06-18T10:22:29Z</time>
      </trkpt>
      <trkpt lat="48.8049840" lon="8.2214180">
        <ele>133.7600000</ele>
        <time>2010-06-18T10:22:40Z</time>
      </trkpt>
      <trkpt lat="48.8051500" lon="8.2217270">
        <ele>134.7200000</ele>
        <time>2010-06-18T10:22:49Z</time>
      </trkpt>
      <trkpt lat="48.8051340" lon="8.2218540">
        <ele>134.7200000</ele>
        <time>2010-06-18T10:22:53Z</time>
      </trkpt>
      <trkpt lat="48.8049750" lon="8.2221500">
        <ele>135.6800000</ele>
        <time>2010-06-18T10:23:05Z</time>
      </trkpt>
      <trkpt lat="48.8049700" lon="8.2221420">
        <ele>137.6100000</ele>
        <time>2010-06-18T10:24:45Z</time>
      </trkpt>
      <trkpt lat="48.8049090" lon="8.2221240">
        <ele>137.1300000</ele>
        <time>2010-06-18T10:24:49Z</time>
      </trkpt>
      <trkpt lat="48.8046170" lon="8.2217840">
        <ele>138.5700000</ele>
        <time>2010-06-18T10:25:01Z</time>
      </trkpt>
      <trkpt lat="48.8042430" lon="8.2210960">
        <ele>139.5300000</ele>
        <time>2010-06-18T10:25:16Z</time>
      </trkpt>
      <trkpt lat="48.8039100" lon="8.2206330">
        <ele>139.5300000</ele>
        <time>2010-06-18T10:25:27Z</time>
      </trkpt>
      <trkpt lat="48.8033940" lon="8.2199740">
        <ele>141.4500000</ele>
        <time>2010-06-18T10:25:44Z</time>
      </trkpt>
      <trkpt lat="48.8033090" lon="8.2198580">
        <ele>141.9300000</ele>
        <time>2010-06-18T10:25:48Z</time>
      </trkpt>
      <trkpt lat="48.8033640" lon="8.2196460">
        <ele>140.4900000</ele>
        <time>2010-06-18T10:25:52Z</time>
      </trkpt>
      <trkpt lat="48.8035610" lon="8.2193010">
        <ele>137.6100000</ele>
        <time>2010-06-18T10:25:57Z</time>
      </trkpt>
      <trkpt lat="48.8036120" lon="8.2192310">
        <ele>136.6400000</ele>
        <time>2010-06-18T10:25:58Z</time>
      </trkpt>
      <trkpt lat="48.8037250" lon="8.2191160">
        <ele>134.2400000</ele>
        <time>2010-06-18T10:26:00Z</time>
      </trkpt>
      <trkpt lat="48.8039170" lon="8.2188230">
        <ele>132.8000000</ele>
        <time>2010-06-18T10:26:06Z</time>
      </trkpt>
      <trkpt lat="48.8038930" lon="8.2186230">
        <ele>132.8000000</ele>
        <time>2010-06-18T10:26:10Z</time>
      </trkpt>
      <trkpt lat="48.8034300" lon="8.2176440">
        <ele>131.8400000</ele>
        <time>2010-06-18T10:26:26Z</time>
      </trkpt>
      <trkpt lat="48.8031160" lon="8.2169120">
        <ele>132.3200000</ele>
        <time>2010-06-18T10:26:37Z</time>
      </trkpt>
      <trkpt lat="48.8028890" lon="8.2165510">
        <ele>131.8400000</ele>
        <time>2010-06-18T10:26:45Z</time>
      </trkpt>
      <trkpt lat="48.8028640" lon="8.2164810">
        <ele>131.8400000</ele>
        <time>2010-06-18T10:26:46Z</time>
      </trkpt>
      <trkpt lat="48.8024640" lon="8.2156780">
        <ele>131.3600000</ele>
        <time>2010-06-18T10:26:58Z</time>
      </trkpt>
      <trkpt lat="48.8018740" lon="8.2145940">
        <ele>131.8400000</ele>
        <time>2010-06-18T10:27:18Z</time>
      </trkpt>
      <trkpt lat="48.8017830" lon="8.2144220">
        <ele>131.8400000</ele>
        <time>2010-06-18T10:27:21Z</time>
      </trkpt>
      <trkpt lat="48.8012400" lon="8.2133290">
        <ele>132.3200000</ele>
        <time>2010-06-18T10:27:38Z</time>
      </trkpt>
      <trkpt lat="48.8008750" lon="8.2124860">
        <ele>132.3200000</ele>
        <time>2010-06-18T10:27:50Z</time>
      </trkpt>
      <trkpt lat="48.8007360" lon="8.2121360">
        <ele>131.8400000</ele>
        <time>2010-06-18T10:27:55Z</time>
      </trkpt>
      <trkpt lat="48.8003720" lon="8.2109230">
        <ele>130.8800000</ele>
        <time>2010-06-18T10:28:10Z</time>
      </trkpt>
      <trkpt lat="48.8000740" lon="8.2097040">
        <ele>130.4000000</ele>
        <time>2010-06-18T10:28:25Z</time>
      </trkpt>
      <trkpt lat="48.8000570" lon="8.2096280">
        <ele>130.4000000</ele>
        <time>2010-06-18T10:28:26Z</time>
      </trkpt>
      <trkpt lat="48.7997390" lon="8.2083990">
        <ele>129.9200000</ele>
        <time>2010-06-18T10:28:41Z</time>
      </trkpt>
      <trkpt lat="48.7993810" lon="8.2073040">
        <ele>129.4300000</ele>
        <time>2010-06-18T10:28:56Z</time>
      </trkpt>
      <trkpt lat="48.7987800" lon="8.2061460">
        <ele>129.4300000</ele>
        <time>2010-06-18T10:29:14Z</time>
      </trkpt>
      <trkpt lat="48.7980370" lon="8.2051710">
        <ele>130.4000000</ele>
        <time>2010-06-18T10:29:32Z</time>
      </trkpt>
      <trkpt lat="48.7975560" lon="8.2046500">
        <ele>130.4000000</ele>
        <time>2010-06-18T10:29:43Z</time>
      </trkpt>
      <trkpt lat="48.7973680" lon="8.2045700">
        <ele>130.8800000</ele>
        <time>2010-06-18T10:29:47Z</time>
      </trkpt>
      <trkpt lat="48.7971390" lon="8.2043810">
        <ele>131.3600000</ele>
        <time>2010-06-18T10:29:53Z</time>
      </trkpt>
      <trkpt lat="48.7969590" lon="8.2039660">
        <ele>130.8800000</ele>
        <time>2010-06-18T10:29:59Z</time>
      </trkpt>
      <trkpt lat="48.7962120" lon="8.2031140">
        <ele>130.4000000</ele>
        <time>2010-06-18T10:30:15Z</time>
      </trkpt>
      <trkpt lat="48.7955610" lon="8.2021810">
        <ele>131.3600000</ele>
        <time>2010-06-18T10:30:32Z</time>
      </trkpt>
      <trkpt lat="48.7954650" lon="8.2020100">
        <ele>130.8800000</ele>
        <time>2010-06-18T10:30:35Z</time>
      </trkpt>
      <trkpt lat="48.7952380" lon="8.2016680">
        <ele>130.4000000</ele>
        <time>2010-06-18T10:30:41Z</time>
      </trkpt>
      <trkpt lat="48.7950940" lon="8.2010530">
        <ele>129.9200000</ele>
        <time>2010-06-18T10:30:48Z</time>
      </trkpt>
      <trkpt lat="48.7950740" lon="8.2002360">
        <ele>129.9200000</ele>
        <time>2010-06-18T10:30:58Z</time>
      </trkpt>
      <trkpt lat="48.7949640" lon="8.1997820">
        <ele>129.9200000</ele>
        <time>2010-06-18T10:31:04Z</time>
      </trkpt>
      <trkpt lat="48.7945190" lon="8.1992560">
        <ele>129.4300000</ele>
        <time>2010-06-18T10:31:18Z</time>
      </trkpt>
      <trkpt lat="48.7941610" lon="8.1988240">
        <ele>130.4000000</ele>
        <time>2010-06-18T10:31:29Z</time>
      </trkpt>
      <trkpt lat="48.7938360" lon="8.1983910">
        <ele>130.8800000</ele>
        <time>2010-06-18T10:31:41Z</time>
      </trkpt>
      <trkpt lat="48.7935250" lon="8.1979950">
        <ele>130.8800000</ele>
        <time>2010-06-18T10:31:54Z</time>
      </trkpt>
      <trkpt lat="48.7935000" lon="8.1979750">
        <ele>130.8800000</ele>
        <time>2010-06-18T10:31:55Z</time>
      </trkpt>
      <trkpt lat="48.7933800" lon="8.1976420">
        <ele>130.4000000</ele>
        <time>2010-06-18T10:32:06Z</time>
      </trkpt>
      <trkpt lat="48.7933930" lon="8.1976400">
        <ele>130.8800000</ele>
        <time>2010-06-18T10:32:19Z</time>
      </trkpt>
      <trkpt lat="48.7933930" lon="8.1976400">
        <ele>130.8800000</ele>
        <time>2010-06-18T10:32:39Z</time>
      </trkpt>
      <trkpt lat="48.7934900" lon="8.1975100">
        <ele>129.9200000</ele>
        <time>2010-06-18T10:32:47Z</time>
      </trkpt>
      <trkpt lat="48.7935580" lon="8.1975700">
        <ele>129.4300000</ele>
        <time>2010-06-18T10:32:49Z</time>
      </trkpt>
      <trkpt lat="48.7940350" lon="8.1981970">
        <ele>128.9500000</ele>
        <time>2010-06-18T10:33:02Z</time>
      </trkpt>
      <trkpt lat="48.7947300" lon="8.1989920">
        <ele>127.9900000</ele>
        <time>2010-06-18T10:33:19Z</time>
      </trkpt>
      <trkpt lat="48.7949870" lon="8.1992340">
        <ele>127.5100000</ele>
        <time>2010-06-18T10:33:25Z</time>
      </trkpt>
      <trkpt lat="48.7953700" lon="8.1993980">
        <ele>127.5100000</ele>
        <time>2010-06-18T10:33:35Z</time>
      </trkpt>
      <trkpt lat="48.7955830" lon="8.1990040">
        <ele>128.4700000</ele>
        <time>2010-06-18T10:33:45Z</time>
      </trkpt>
      <trkpt lat="48.7958240" lon="8.1984490">
        <ele>128.4700000</ele>
        <time>2010-06-18T10:33:59Z</time>
      </trkpt>
      <trkpt lat="48.7957000" lon="8.1981400">
        <ele>127.9900000</ele>
        <time>2010-06-18T10:34:08Z</time>
      </trkpt>
      <trkpt lat="48.7955950" lon="8.1980680">
        <ele>127.9900000</ele>
        <time>2010-06-18T10:34:16Z</time>
      </trkpt>
      <trkpt lat="48.7956680" lon="8.1982010">
        <ele>129.4300000</ele>
        <time>2010-06-18T10:34:23Z</time>
      </trkpt>
      <trkpt lat="48.7957970" lon="8.1984480">
        <ele>129.4300000</ele>
        <time>2010-06-18T10:34:33Z</time>
      </trkpt>
      <trkpt lat="48.7958330" lon="8.1983130">
        <ele>129.4300000</ele>
        <time>2010-06-18T10:34:41Z</time>
      </trkpt>
      <trkpt lat="48.7956410" lon="8.1981210">
        <ele>129.4300000</ele>
        <time>2010-06-18T10:34:48Z</time>
      </trkpt>
      <trkpt lat="48.7955380" lon="8.1977990">
        <ele>129.9200000</ele>
        <time>2010-06-18T10:34:55Z</time>
      </trkpt>
      <trkpt lat="48.7957240" lon="8.1973510">
        <ele>129.4300000</ele>
        <time>2010-06-18T10:35:04Z</time>
      </trkpt>
      <trkpt lat="48.7956880" lon="8.1972760">
        <ele>129.4300000</ele>
        <time>2010-06-18T10:35:13Z</time>
      </trkpt>
      <trkpt lat="48.7956890" lon="8.1972840">
        <ele>129.4300000</ele>
        <time>2010-06-18T10:35:38Z</time>
      </trkpt>
      <trkpt lat="48.7957210" lon="8.1972910">
        <ele>130.4000000</ele>
        <time>2010-06-18T10:55:17Z</time>
      </trkpt>
      <trkpt lat="48.7957190" lon="8.1973230">
        <ele>130.4000000</ele>
        <time>2010-06-18T10:56:02Z</time>
      </trkpt>
      <trkpt lat="48.7957200" lon="8.1973360">
        <ele>130.4000000</ele>
        <time>2010-06-18T10:56:03Z</time>
      </trkpt>
      <trkpt lat="48.7956650" lon="8.1974870">
        <ele>130.4000000</ele>
        <time>2010-06-18T10:56:09Z</time>
      </trkpt>
      <trkpt lat="48.7955280" lon="8.1977480">
        <ele>131.8400000</ele>
        <time>2010-06-18T10:56:16Z</time>
      </trkpt>
      <trkpt lat="48.7952930" lon="8.1977170">
        <ele>129.9200000</ele>
        <time>2010-06-18T10:56:25Z</time>
      </trkpt>
      <trkpt lat="48.7951760" lon="8.1976250">
        <ele>131.3600000</ele>
        <time>2010-06-18T10:56:29Z</time>
      </trkpt>
      <trkpt lat="48.7947500" lon="8.1972010">
        <ele>130.8800000</ele>
        <time>2010-06-18T10:56:43Z</time>
      </trkpt>
      <trkpt lat="48.7946880" lon="8.1971260">
        <ele>130.8800000</ele>
        <time>2010-06-18T10:56:45Z</time>
      </trkpt>
      <trkpt lat="48.7943680" lon="8.1967760">
        <ele>131.8400000</ele>
        <time>2010-06-18T10:56:55Z</time>
      </trkpt>
      <trkpt lat="48.7942690" lon="8.1966570">
        <ele>131.8400000</ele>
        <time>2010-06-18T10:56:58Z</time>
      </trkpt>
      <trkpt lat="48.7941800" lon="8.1965280">
        <ele>130.8800000</ele>
        <time>2010-06-18T10:57:01Z</time>
      </trkpt>
      <trkpt lat="48.7941010" lon="8.1963780">
        <ele>130.8800000</ele>
        <time>2010-06-18T10:57:04Z</time>
      </trkpt>
      <trkpt lat="48.7935760" lon="8.1955790">
        <ele>131.3600000</ele>
        <time>2010-06-18T10:57:20Z</time>
      </trkpt>
      <trkpt lat="48.7929310" lon="8.1948390">
        <ele>132.3200000</ele>
        <time>2010-06-18T10:57:37Z</time>
      </trkpt>
      <trkpt lat="48.7926520" lon="8.1946390">
        <ele>133.7600000</ele>
        <time>2010-06-18T10:57:45Z</time>
      </trkpt>
      <trkpt lat="48.7921980" lon="8.1947160">
        <ele>133.7600000</ele>
        <time>2010-06-18T10:57:57Z</time>
      </trkpt>
      <trkpt lat="48.7920900" lon="8.1945800">
        <ele>133.7600000</ele>
        <time>2010-06-18T10:58:01Z</time>
      </trkpt>
      <trkpt lat="48.7916720" lon="8.1941710">
        <ele>132.8000000</ele>
        <time>2010-06-18T10:58:15Z</time>
      </trkpt>
      <trkpt lat="48.7913950" lon="8.1937670">
        <ele>131.8400000</ele>
        <time>2010-06-18T10:58:26Z</time>
      </trkpt>
      <trkpt lat="48.7909590" lon="8.1928550">
        <ele>131.3600000</ele>
        <time>2010-06-18T10:58:41Z</time>
      </trkpt>
      <trkpt lat="48.7908460" lon="8.1926460">
        <ele>131.3600000</ele>
        <time>2010-06-18T10:58:45Z</time>
      </trkpt>
      <trkpt lat="48.7901990" lon="8.1919190">
        <ele>131.8400000</ele>
        <time>2010-06-18T10:59:03Z</time>
      </trkpt>
      <trkpt lat="48.7897210" lon="8.1914160">
        <ele>131.3600000</ele>
        <time>2010-06-18T10:59:17Z</time>
      </trkpt>
      <trkpt lat="48.7893950" lon="8.1910710">
        <ele>131.8400000</ele>
        <time>2010-06-18T10:59:26Z</time>
      </trkpt>
      <trkpt lat="48.7892430" lon="8.1909040">
        <ele>131.3600000</ele>
        <time>2010-06-18T10:59:30Z</time>
      </trkpt>
      <trkpt lat="48.7889990" lon="8.1907970">
        <ele>131.8400000</ele>
        <time>2010-06-18T10:59:36Z</time>
      </trkpt>
      <trkpt lat="48.7888840" lon="8.1908230">
        <ele>131.8400000</ele>
        <time>2010-06-18T10:59:40Z</time>
      </trkpt>
      <trkpt lat="48.7886300" lon="8.1905560">
        <ele>132.8000000</ele>
        <time>2010-06-18T10:59:51Z</time>
      </trkpt>
      <trkpt lat="48.7884100" lon="8.1903040">
        <ele>132.8000000</ele>
        <time>2010-06-18T10:59:58Z</time>
      </trkpt>
      <trkpt lat="48.7881730" lon="8.1900720">
        <ele>132.8000000</ele>
        <time>2010-06-18T11:00:05Z</time>
      </trkpt>
      <trkpt lat="48.7878890" lon="8.1899850">
        <ele>132.8000000</ele>
        <time>2010-06-18T11:00:12Z</time>
      </trkpt>
      <trkpt lat="48.7877350" lon="8.1898190">
        <ele>133.2800000</ele>
        <time>2010-06-18T11:00:17Z</time>
      </trkpt>
      <trkpt lat="48.7876270" lon="8.1893330">
        <ele>132.8000000</ele>
        <time>2010-06-18T11:00:25Z</time>
      </trkpt>
      <trkpt lat="48.7876400" lon="8.1890250">
        <ele>132.8000000</ele>
        <time>2010-06-18T11:00:30Z</time>
      </trkpt>
      <trkpt lat="48.7877610" lon="8.1887010">
        <ele>132.3200000</ele>
        <time>2010-06-18T11:00:37Z</time>
      </trkpt>
      <trkpt lat="48.7877180" lon="8.1884600">
        <ele>133.2800000</ele>
        <time>2010-06-18T11:00:42Z</time>
      </trkpt>
      <trkpt lat="48.7876250" lon="8.1883620">
        <ele>132.8000000</ele>
        <time>2010-06-18T11:00:45Z</time>
      </trkpt>
      <trkpt lat="48.7869760" lon="8.1876390">
        <ele>134.2400000</ele>
        <time>2010-06-18T11:01:03Z</time>
      </trkpt>
      <trkpt lat="48.7867430" lon="8.1873970">
        <ele>133.7600000</ele>
        <time>2010-06-18T11:01:09Z</time>
      </trkpt>
      <trkpt lat="48.7862440" lon="8.1868930">
        <ele>133.7600000</ele>
        <time>2010-06-18T11:01:23Z</time>
      </trkpt>
      <trkpt lat="48.7860720" lon="8.1867170">
        <ele>133.2800000</ele>
        <time>2010-06-18T11:01:29Z</time>
      </trkpt>
      <trkpt lat="48.7861260" lon="8.1868060">
        <ele>133.2800000</ele>
        <time>2010-06-18T11:01:38Z</time>
      </trkpt>
      <trkpt lat="48.7861440" lon="8.1868240">
        <ele>133.7600000</ele>
        <time>2010-06-18T11:01:39Z</time>
      </trkpt>
      <trkpt lat="48.7864810" lon="8.1871940">
        <ele>132.8000000</ele>
        <time>2010-06-18T11:01:51Z</time>
      </trkpt>
      <trkpt lat="48.7867510" lon="8.1875130">
        <ele>132.8000000</ele>
        <time>2010-06-18T11:01:59Z</time>
      </trkpt>
      <trkpt lat="48.7867510" lon="8.1877380">
        <ele>133.2800000</ele>
        <time>2010-06-18T11:02:03Z</time>
      </trkpt>
      <trkpt lat="48.7862950" lon="8.1887350">
        <ele>133.2800000</ele>
        <time>2010-06-18T11:02:21Z</time>
      </trkpt>
      <trkpt lat="48.7859030" lon="8.1895420">
        <ele>133.2800000</ele>
        <time>2010-06-18T11:02:35Z</time>
      </trkpt>
      <trkpt lat="48.7857730" lon="8.1898030">
        <ele>133.2800000</ele>
        <time>2010-06-18T11:02:40Z</time>
      </trkpt>
      <trkpt lat="48.7855860" lon="8.1898630">
        <ele>133.2800000</ele>
        <time>2010-06-18T11:02:45Z</time>
      </trkpt>
      <trkpt lat="48.7849750" lon="8.1892060">
        <ele>133.7600000</ele>
        <time>2010-06-18T11:03:00Z</time>
      </trkpt>
      <trkpt lat="48.7843810" lon="8.1885770">
        <ele>133.2800000</ele>
        <time>2010-06-18T11:03:14Z</time>
      </trkpt>
      <trkpt lat="48.7836530" lon="8.1877680">
        <ele>131.8400000</ele>
        <time>2010-06-18T11:03:31Z</time>
      </trkpt>
      <trkpt lat="48.7831730" lon="8.1872790">
        <ele>131.3600000</ele>
        <time>2010-06-18T11:03:44Z</time>
      </trkpt>
      <trkpt lat="48.7824320" lon="8.1864850">
        <ele>130.4000000</ele>
        <time>2010-06-18T11:04:03Z</time>
      </trkpt>
      <trkpt lat="48.7818840" lon="8.1858950">
        <ele>129.9200000</ele>
        <time>2010-06-18T11:04:17Z</time>
      </trkpt>
      <trkpt lat="48.7813460" lon="8.1853400">
        <ele>131.8400000</ele>
        <time>2010-06-18T11:04:34Z</time>
      </trkpt>
      <trkpt lat="48.7812760" lon="8.1852280">
        <ele>131.8400000</ele>
        <time>2010-06-18T11:04:40Z</time>
      </trkpt>
      <trkpt lat="48.7811700" lon="8.1854050">
        <ele>132.3200000</ele>
        <time>2010-06-18T11:04:48Z</time>
      </trkpt>
      <trkpt lat="48.7811040" lon="8.1855200">
        <ele>132.3200000</ele>
        <time>2010-06-18T11:05:00Z</time>
      </trkpt>
      <trkpt lat="48.7810170" lon="8.1854830">
        <ele>132.3200000</ele>
        <time>2010-06-18T11:05:04Z</time>
      </trkpt>
      <trkpt lat="48.7809550" lon="8.1852380">
        <ele>132.3200000</ele>
        <time>2010-06-18T11:05:09Z</time>
      </trkpt>
      <trkpt lat="48.7810100" lon="8.1850110">
        <ele>132.3200000</ele>
        <time>2010-06-18T11:05:13Z</time>
      </trkpt>
      <trkpt lat="48.7808340" lon="8.1847720">
        <ele>132.3200000</ele>
        <time>2010-06-18T11:05:19Z</time>
      </trkpt>
      <trkpt lat="48.7801970" lon="8.1840790">
        <ele>132.3200000</ele>
        <time>2010-06-18T11:05:37Z</time>
      </trkpt>
      <trkpt lat="48.7802080" lon="8.1838350">
        <ele>132.8000000</ele>
        <time>2010-06-18T11:05:41Z</time>
      </trkpt>
      <trkpt lat="48.7806380" lon="8.1829720">
        <ele>130.4000000</ele>
        <time>2010-06-18T11:05:54Z</time>
      </trkpt>
      <trkpt lat="48.7811840" lon="8.1818710">
        <ele>129.9200000</ele>
        <time>2010-06-18T11:06:10Z</time>
      </trkpt>
      <trkpt lat="48.7812810" lon="8.1816650">
        <ele>129.4300000</ele>
        <time>2010-06-18T11:06:13Z</time>
      </trkpt>
      <trkpt lat="48.7812120" lon="8.1812710">
        <ele>129.9200000</ele>
        <time>2010-06-18T11:06:19Z</time>
      </trkpt>
      <trkpt lat="48.7803150" lon="8.1802840">
        <ele>130.8800000</ele>
        <time>2010-06-18T11:06:39Z</time>
      </trkpt>
      <trkpt lat="48.7796130" lon="8.1795270">
        <ele>130.8800000</ele>
        <time>2010-06-18T11:06:56Z</time>
      </trkpt>
      <trkpt lat="48.7787540" lon="8.1785460">
        <ele>131.8400000</ele>
        <time>2010-06-18T11:07:16Z</time>
      </trkpt>
      <trkpt lat="48.7786360" lon="8.1783940">
        <ele>131.8400000</ele>
        <time>2010-06-18T11:07:19Z</time>
      </trkpt>
      <trkpt lat="48.7781860" lon="8.1779080">
        <ele>132.8000000</ele>
        <time>2010-06-18T11:07:31Z</time>
      </trkpt>
      <trkpt lat="48.7774100" lon="8.1770710">
        <ele>132.8000000</ele>
        <time>2010-06-18T11:07:49Z</time>
      </trkpt>
      <trkpt lat="48.7764030" lon="8.1760090">
        <ele>132.8000000</ele>
        <time>2010-06-18T11:08:11Z</time>
      </trkpt>
      <trkpt lat="48.7753460" lon="8.1748760">
        <ele>132.3200000</ele>
        <time>2010-06-18T11:08:35Z</time>
      </trkpt>
      <trkpt lat="48.7746180" lon="8.1740830">
        <ele>132.8000000</ele>
        <time>2010-06-18T11:08:53Z</time>
      </trkpt>
      <trkpt lat="48.7739840" lon="8.1734260">
        <ele>132.8000000</ele>
        <time>2010-06-18T11:09:08Z</time>
      </trkpt>
      <trkpt lat="48.7731210" lon="8.1724770">
        <ele>133.7600000</ele>
        <time>2010-06-18T11:09:28Z</time>
      </trkpt>
      <trkpt lat="48.7724230" lon="8.1717650">
        <ele>133.2800000</ele>
        <time>2010-06-18T11:09:44Z</time>
      </trkpt>
      <trkpt lat="48.7723550" lon="8.1716840">
        <ele>133.2800000</ele>
        <time>2010-06-18T11:09:46Z</time>
      </trkpt>
      <trkpt lat="48.7718270" lon="8.1711890">
        <ele>131.8400000</ele>
        <time>2010-06-18T11:09:58Z</time>
      </trkpt>
      <trkpt lat="48.7714520" lon="8.1708060">
        <ele>131.3600000</ele>
        <time>2010-06-18T11:10:09Z</time>
      </trkpt>
      <trkpt lat="48.7712130" lon="8.1705070">
        <ele>129.9200000</ele>
        <time>2010-06-18T11:10:18Z</time>
      </trkpt>
      <trkpt lat="48.7710030" lon="8.1703170">
        <ele>129.4300000</ele>
        <time>2010-06-18T11:10:24Z</time>
      </trkpt>
      <trkpt lat="48.7709070" lon="8.1702270">
        <ele>129.4300000</ele>
        <time>2010-06-18T11:10:28Z</time>
      </trkpt>
      <trkpt lat="48.7704830" lon="8.1697600">
        <ele>129.4300000</ele>
        <time>2010-06-18T11:10:42Z</time>
      </trkpt>
      <trkpt lat="48.7697950" lon="8.1690090">
        <ele>128.9500000</ele>
        <time>2010-06-18T11:10:59Z</time>
      </trkpt>
      <trkpt lat="48.7690380" lon="8.1681840">
        <ele>128.9500000</ele>
        <time>2010-06-18T11:11:17Z</time>
      </trkpt>
      <trkpt lat="48.7687940" lon="8.1679420">
        <ele>128.9500000</ele>
        <time>2010-06-18T11:11:23Z</time>
      </trkpt>
      <trkpt lat="48.7686670" lon="8.1677400">
        <ele>128.9500000</ele>
        <time>2010-06-18T11:11:27Z</time>
      </trkpt>
      <trkpt lat="48.7685960" lon="8.1676610">
        <ele>129.4300000</ele>
        <time>2010-06-18T11:11:29Z</time>
      </trkpt>
      <trkpt lat="48.7679960" lon="8.1670320">
        <ele>130.8800000</ele>
        <time>2010-06-18T11:11:46Z</time>
      </trkpt>
      <trkpt lat="48.7676000" lon="8.1666060">
        <ele>129.4300000</ele>
        <time>2010-06-18T11:11:56Z</time>
      </trkpt>
      <trkpt lat="48.7674730" lon="8.1664710">
        <ele>129.4300000</ele>
        <time>2010-06-18T11:11:59Z</time>
      </trkpt>
      <trkpt lat="48.7673400" lon="8.1663610">
        <ele>128.9500000</ele>
        <time>2010-06-18T11:12:02Z</time>
      </trkpt>
      <trkpt lat="48.7666660" lon="8.1656000">
        <ele>129.9200000</ele>
        <time>2010-06-18T11:12:18Z</time>
      </trkpt>
      <trkpt lat="48.7660150" lon="8.1648930">
        <ele>129.4300000</ele>
        <time>2010-06-18T11:12:34Z</time>
      </trkpt>
      <trkpt lat="48.7655390" lon="8.1643940">
        <ele>129.9200000</ele>
        <time>2010-06-18T11:12:47Z</time>
      </trkpt>
      <trkpt lat="48.7653120" lon="8.1643750">
        <ele>129.4300000</ele>
        <time>2010-06-18T11:12:54Z</time>
      </trkpt>
      <trkpt lat="48.7652260" lon="8.1643220">
        <ele>129.4300000</ele>
        <time>2010-06-18T11:12:56Z</time>
      </trkpt>
      <trkpt lat="48.7650230" lon="8.1641460">
        <ele>130.4000000</ele>
        <time>2010-06-18T11:13:01Z</time>
      </trkpt>
      <trkpt lat="48.7649270" lon="8.1640480">
        <ele>130.4000000</ele>
        <time>2010-06-18T11:13:04Z</time>
      </trkpt>
      <trkpt lat="48.7648080" lon="8.1636850">
        <ele>130.4000000</ele>
        <time>2010-06-18T11:13:11Z</time>
      </trkpt>
      <trkpt lat="48.7641680" lon="8.1629710">
        <ele>130.4000000</ele>
        <time>2010-06-18T11:13:30Z</time>
      </trkpt>
      <trkpt lat="48.7636580" lon="8.1624740">
        <ele>131.3600000</ele>
        <time>2010-06-18T11:13:44Z</time>
      </trkpt>
      <trkpt lat="48.7635420" lon="8.1623000">
        <ele>131.3600000</ele>
        <time>2010-06-18T11:13:48Z</time>
      </trkpt>
      <trkpt lat="48.7632570" lon="8.1620120">
        <ele>130.8800000</ele>
        <time>2010-06-18T11:13:56Z</time>
      </trkpt>
      <trkpt lat="48.7630360" lon="8.1618080">
        <ele>130.8800000</ele>
        <time>2010-06-18T11:14:02Z</time>
      </trkpt>
      <trkpt lat="48.7622350" lon="8.1609370">
        <ele>129.4300000</ele>
        <time>2010-06-18T11:14:20Z</time>
      </trkpt>
      <trkpt lat="48.7619140" lon="8.1606380">
        <ele>129.4300000</ele>
        <time>2010-06-18T11:14:27Z</time>
      </trkpt>
      <trkpt lat="48.7609750" lon="8.1597030">
        <ele>129.4300000</ele>
        <time>2010-06-18T11:14:48Z</time>
      </trkpt>
      <trkpt lat="48.7606670" lon="8.1594100">
        <ele>130.4000000</ele>
        <time>2010-06-18T11:14:55Z</time>
      </trkpt>
      <trkpt lat="48.7605930" lon="8.1593350">
        <ele>131.3600000</ele>
        <time>2010-06-18T11:14:57Z</time>
      </trkpt>
      <trkpt lat="48.7605240" lon="8.1592730">
        <ele>130.8800000</ele>
        <time>2010-06-18T11:14:59Z</time>
      </trkpt>
      <trkpt lat="48.7601290" lon="8.1593050">
        <ele>130.8800000</ele>
        <time>2010-06-18T11:15:10Z</time>
      </trkpt>
      <trkpt lat="48.7599920" lon="8.1594220">
        <ele>130.8800000</ele>
        <time>2010-06-18T11:15:14Z</time>
      </trkpt>
      <trkpt lat="48.7598710" lon="8.1593050">
        <ele>131.3600000</ele>
        <time>2010-06-18T11:15:18Z</time>
      </trkpt>
      <trkpt lat="48.7597900" lon="8.1591400">
        <ele>131.3600000</ele>
        <time>2010-06-18T11:15:21Z</time>
      </trkpt>
      <trkpt lat="48.7596490" lon="8.1589350">
        <ele>131.3600000</ele>
        <time>2010-06-18T11:15:25Z</time>
      </trkpt>
      <trkpt lat="48.7593250" lon="8.1586300">
        <ele>129.9200000</ele>
        <time>2010-06-18T11:15:34Z</time>
      </trkpt>
      <trkpt lat="48.7592580" lon="8.1585650">
        <ele>130.4000000</ele>
        <time>2010-06-18T11:15:36Z</time>
      </trkpt>
      <trkpt lat="48.7591670" lon="8.1584160">
        <ele>130.8800000</ele>
        <time>2010-06-18T11:15:39Z</time>
      </trkpt>
      <trkpt lat="48.7585450" lon="8.1578260">
        <ele>130.4000000</ele>
        <time>2010-06-18T11:15:55Z</time>
      </trkpt>
      <trkpt lat="48.7584740" lon="8.1577770">
        <ele>130.4000000</ele>
        <time>2010-06-18T11:15:58Z</time>
      </trkpt>
      <trkpt lat="48.7584740" lon="8.1578110">
        <ele>130.4000000</ele>
        <time>2010-06-18T11:16:06Z</time>
      </trkpt>
      <trkpt lat="48.7587410" lon="8.1580150">
        <ele>130.4000000</ele>
        <time>2010-06-18T11:16:18Z</time>
      </trkpt>
      <trkpt lat="48.7591940" lon="8.1584420">
        <ele>131.3600000</ele>
        <time>2010-06-18T11:16:32Z</time>
      </trkpt>
      <trkpt lat="48.7592830" lon="8.1586280">
        <ele>131.3600000</ele>
        <time>2010-06-18T11:16:36Z</time>
      </trkpt>
      <trkpt lat="48.7598650" lon="8.1593660">
        <ele>131.3600000</ele>
        <time>2010-06-18T11:16:53Z</time>
      </trkpt>
      <trkpt lat="48.7600660" lon="8.1594260">
        <ele>131.3600000</ele>
        <time>2010-06-18T11:16:59Z</time>
      </trkpt>
      <trkpt lat="48.7602690" lon="8.1592050">
        <ele>131.3600000</ele>
        <time>2010-06-18T11:17:07Z</time>
      </trkpt>
      <trkpt lat="48.7605820" lon="8.1593540">
        <ele>130.8800000</ele>
        <time>2010-06-18T11:17:22Z</time>
      </trkpt>
      <trkpt lat="48.7605930" lon="8.1599490">
        <ele>129.9200000</ele>
        <time>2010-06-18T11:17:30Z</time>
      </trkpt>
      <trkpt lat="48.7606060" lon="8.1600280">
        <ele>129.9200000</ele>
        <time>2010-06-18T11:17:31Z</time>
      </trkpt>
      <trkpt lat="48.7607550" lon="8.1610310">
        <ele>129.9200000</ele>
        <time>2010-06-18T11:17:45Z</time>
      </trkpt>
      <trkpt lat="48.7607690" lon="8.1611700">
        <ele>129.9200000</ele>
        <time>2010-06-18T11:17:47Z</time>
      </trkpt>
      <trkpt lat="48.7607920" lon="8.1612980">
        <ele>130.4000000</ele>
        <time>2010-06-18T11:17:49Z</time>
      </trkpt>
      <trkpt lat="48.7607020" lon="8.1613670">
        <ele>130.8800000</ele>
        <time>2010-06-18T11:17:55Z</time>
      </trkpt>
      <trkpt lat="48.7606980" lon="8.1613100">
        <ele>130.4000000</ele>
        <time>2010-06-18T11:17:56Z</time>
      </trkpt>
      <trkpt lat="48.7606960" lon="8.1611800">
        <ele>130.8800000</ele>
        <time>2010-06-18T11:17:58Z</time>
      </trkpt>
      <trkpt lat="48.7604340" lon="8.1598190">
        <ele>129.4300000</ele>
        <time>2010-06-18T11:18:15Z</time>
      </trkpt>
      <trkpt lat="48.7603790" lon="8.1593450">
        <ele>127.5100000</ele>
        <time>2010-06-18T11:18:20Z</time>
      </trkpt>
      <trkpt lat="48.7604160" lon="8.1587450">
        <ele>126.5500000</ele>
        <time>2010-06-18T11:18:26Z</time>
      </trkpt>
      <trkpt lat="48.7605350" lon="8.1579090">
        <ele>128.9500000</ele>
        <time>2010-06-18T11:18:36Z</time>
      </trkpt>
      <trkpt lat="48.7605320" lon="8.1576190">
        <ele>128.9500000</ele>
        <time>2010-06-18T11:18:40Z</time>
      </trkpt>
      <trkpt lat="48.7604780" lon="8.1572930">
        <ele>129.4300000</ele>
        <time>2010-06-18T11:18:45Z</time>
      </trkpt>
      <trkpt lat="48.7603920" lon="8.1570530">
        <ele>130.4000000</ele>
        <time>2010-06-18T11:18:49Z</time>
      </trkpt>
      <trkpt lat="48.7598160" lon="8.1563990">
        <ele>130.4000000</ele>
        <time>2010-06-18T11:19:06Z</time>
      </trkpt>
      <trkpt lat="48.7595450" lon="8.1561670">
        <ele>130.8800000</ele>
        <time>2010-06-18T11:19:14Z</time>
      </trkpt>
      <trkpt lat="48.7595450" lon="8.1560670">
        <ele>130.4000000</ele>
        <time>2010-06-18T11:19:18Z</time>
      </trkpt>
      <trkpt lat="48.7596020" lon="8.1560420">
        <ele>130.4000000</ele>
        <time>2010-06-18T11:19:21Z</time>
      </trkpt>
      <trkpt lat="48.7597110" lon="8.1561080">
        <ele>130.4000000</ele>
        <time>2010-06-18T11:19:29Z</time>
      </trkpt>
      <trkpt lat="48.7596830" lon="8.1560900">
        <ele>130.4000000</ele>
        <time>2010-06-18T11:19:39Z</time>
      </trkpt>
      <trkpt lat="48.7596830" lon="8.1560900">
        <ele>130.4000000</ele>
        <time>2010-06-18T11:19:40Z</time>
      </trkpt>
      <trkpt lat="48.7597360" lon="8.1560580">
        <ele>131.3600000</ele>
        <time>2010-06-18T11:19:46Z</time>
      </trkpt>
      <trkpt lat="48.7598230" lon="8.1553280">
        <ele>130.8800000</ele>
        <time>2010-06-18T11:19:59Z</time>
      </trkpt>
      <trkpt lat="48.7599670" lon="8.1541490">
        <ele>130.8800000</ele>
        <time>2010-06-18T11:20:16Z</time>
      </trkpt>
      <trkpt lat="48.7600980" lon="8.1530600">
        <ele>131.3600000</ele>
        <time>2010-06-18T11:20:31Z</time>
      </trkpt>
      <trkpt lat="48.7602840" lon="8.1514520">
        <ele>133.2800000</ele>
        <time>2010-06-18T11:20:53Z</time>
      </trkpt>
      <trkpt lat="48.7604380" lon="8.1501140">
        <ele>132.3200000</ele>
        <time>2010-06-18T11:21:10Z</time>
      </trkpt>
      <trkpt lat="48.7606770" lon="8.1479050">
        <ele>130.4000000</ele>
        <time>2010-06-18T11:21:34Z</time>
      </trkpt>
      <trkpt lat="48.7608660" lon="8.1462610">
        <ele>129.9200000</ele>
        <time>2010-06-18T11:21:52Z</time>
      </trkpt>
      <trkpt lat="48.7607440" lon="8.1459620">
        <ele>128.9500000</ele>
        <time>2010-06-18T11:21:57Z</time>
      </trkpt>
      <trkpt lat="48.7606010" lon="8.1458610">
        <ele>128.9500000</ele>
        <time>2010-06-18T11:22:00Z</time>
      </trkpt>
      <trkpt lat="48.7598770" lon="8.1453190">
        <ele>129.9200000</ele>
        <time>2010-06-18T11:22:16Z</time>
      </trkpt>
      <trkpt lat="48.7592980" lon="8.1447950">
        <ele>130.8800000</ele>
        <time>2010-06-18T11:22:31Z</time>
      </trkpt>
      <trkpt lat="48.7590740" lon="8.1445680">
        <ele>130.4000000</ele>
        <time>2010-06-18T11:22:38Z</time>
      </trkpt>
      <trkpt lat="48.7589870" lon="8.1443440">
        <ele>130.4000000</ele>
        <time>2010-06-18T11:22:43Z</time>
      </trkpt>
      <trkpt lat="48.7589280" lon="8.1443490">
        <ele>130.4000000</ele>
        <time>2010-06-18T11:22:51Z</time>
      </trkpt>
      <trkpt lat="48.7589280" lon="8.1443490">
        <ele>130.4000000</ele>
        <time>2010-06-18T11:22:52Z</time>
      </trkpt>
      <trkpt lat="48.7590030" lon="8.1440200">
        <ele>129.9200000</ele>
        <time>2010-06-18T11:23:02Z</time>
      </trkpt>
      <trkpt lat="48.7592710" lon="8.1429730">
        <ele>128.4700000</ele>
        <time>2010-06-18T11:23:17Z</time>
      </trkpt>
      <trkpt lat="48.7596450" lon="8.1420540">
        <ele>128.4700000</ele>
        <time>2010-06-18T11:23:32Z</time>
      </trkpt>
      <trkpt lat="48.7598330" lon="8.1415530">
        <ele>128.9500000</ele>
        <time>2010-06-18T11:23:40Z</time>
      </trkpt>
      <trkpt lat="48.7598690" lon="8.1414150">
        <ele>128.9500000</ele>
        <time>2010-06-18T11:23:42Z</time>
      </trkpt>
      <trkpt lat="48.7599540" lon="8.1410730">
        <ele>128.9500000</ele>
        <time>2010-06-18T11:23:47Z</time>
      </trkpt>
      <trkpt lat="48.7599740" lon="8.1409190">
        <ele>128.9500000</ele>
        <time>2010-06-18T11:23:49Z</time>
      </trkpt>
      <trkpt lat="48.7599680" lon="8.1406010">
        <ele>128.9500000</ele>
        <time>2010-06-18T11:23:53Z</time>
      </trkpt>
      <trkpt lat="48.7599780" lon="8.1402050">
        <ele>128.4700000</ele>
        <time>2010-06-18T11:23:59Z</time>
      </trkpt>
      <trkpt lat="48.7598470" lon="8.1400580">
        <ele>127.5100000</ele>
        <time>2010-06-18T11:24:03Z</time>
      </trkpt>
      <trkpt lat="48.7593300" lon="8.1399420">
        <ele>129.9200000</ele>
        <time>2010-06-18T11:24:14Z</time>
      </trkpt>
      <trkpt lat="48.7590840" lon="8.1397810">
        <ele>129.9200000</ele>
        <time>2010-06-18T11:24:20Z</time>
      </trkpt>
      <trkpt lat="48.7589640" lon="8.1396360">
        <ele>129.4300000</ele>
        <time>2010-06-18T11:24:23Z</time>
      </trkpt>
      <trkpt lat="48.7586660" lon="8.1391990">
        <ele>129.9200000</ele>
        <time>2010-06-18T11:24:31Z</time>
      </trkpt>
      <trkpt lat="48.7580170" lon="8.1386890">
        <ele>129.9200000</ele>
        <time>2010-06-18T11:24:45Z</time>
      </trkpt>
      <trkpt lat="48.7575090" lon="8.1378970">
        <ele>129.4300000</ele>
        <time>2010-06-18T11:25:00Z</time>
      </trkpt>
      <trkpt lat="48.7573810" lon="8.1379800">
        <ele>128.4700000</ele>
        <time>2010-06-18T11:25:07Z</time>
      </trkpt>
      <trkpt lat="48.7572670" lon="8.1381390">
        <ele>128.4700000</ele>
        <time>2010-06-18T11:25:12Z</time>
      </trkpt>
      <trkpt lat="48.7570380" lon="8.1384590">
        <ele>128.4700000</ele>
        <time>2010-06-18T11:25:19Z</time>
      </trkpt>
      <trkpt lat="48.7565220" lon="8.1393020">
        <ele>128.4700000</ele>
        <time>2010-06-18T11:25:33Z</time>
      </trkpt>
      <trkpt lat="48.7562180" lon="8.1394860">
        <ele>127.9900000</ele>
        <time>2010-06-18T11:25:40Z</time>
      </trkpt>
      <trkpt lat="48.7557760" lon="8.1392030">
        <ele>128.4700000</ele>
        <time>2010-06-18T11:25:49Z</time>
      </trkpt>
      <trkpt lat="48.7550820" lon="8.1387900">
        <ele>127.9900000</ele>
        <time>2010-06-18T11:26:07Z</time>
      </trkpt>
      <trkpt lat="48.7543750" lon="8.1383680">
        <ele>128.4700000</ele>
        <time>2010-06-18T11:26:27Z</time>
      </trkpt>
      <trkpt lat="48.7539730" lon="8.1381390">
        <ele>127.5100000</ele>
        <time>2010-06-18T11:26:39Z</time>
      </trkpt>
      <trkpt lat="48.7536240" lon="8.1379540">
        <ele>128.4700000</ele>
        <time>2010-06-18T11:26:48Z</time>
      </trkpt>
      <trkpt lat="48.7528500" lon="8.1376670">
        <ele>129.4300000</ele>
        <time>2010-06-18T11:27:06Z</time>
      </trkpt>
      <trkpt lat="48.7523900" lon="8.1375140">
        <ele>128.9500000</ele>
        <time>2010-06-18T11:27:18Z</time>
      </trkpt>
      <trkpt lat="48.7517720" lon="8.1373090">
        <ele>128.4700000</ele>
        <time>2010-06-18T11:27:32Z</time>
      </trkpt>
      <trkpt lat="48.7516720" lon="8.1372550">
        <ele>128.4700000</ele>
        <time>2010-06-18T11:27:35Z</time>
      </trkpt>
      <trkpt lat="48.7516490" lon="8.1371320">
        <ele>128.9500000</ele>
        <time>2010-06-18T11:27:43Z</time>
      </trkpt>
      <trkpt lat="48.7516490" lon="8.1371320">
        <ele>128.4700000</ele>
        <time>2010-06-18T11:28:13Z</time>
      </trkpt>
      <trkpt lat="48.7517040" lon="8.1370630">
        <ele>128.4700000</ele>
        <time>2010-06-18T11:28:19Z</time>
      </trkpt>
      <trkpt lat="48.7520620" lon="8.1365480">
        <ele>128.4700000</ele>
        <time>2010-06-18T11:28:34Z</time>
      </trkpt>
      <trkpt lat="48.7524430" lon="8.1359810">
        <ele>129.4300000</ele>
        <time>2010-06-18T11:28:47Z</time>
      </trkpt>
      <trkpt lat="48.7525370" lon="8.1358570">
        <ele>129.4300000</ele>
        <time>2010-06-18T11:28:50Z</time>
      </trkpt>
      <trkpt lat="48.7526460" lon="8.1357390">
        <ele>129.9200000</ele>
        <time>2010-06-18T11:28:53Z</time>
      </trkpt>
      <trkpt lat="48.7527360" lon="8.1353480">
        <ele>128.9500000</ele>
        <time>2010-06-18T11:28:59Z</time>
      </trkpt>
      <trkpt lat="48.7525670" lon="8.1340180">
        <ele>129.9200000</ele>
        <time>2010-06-18T11:29:16Z</time>
      </trkpt>
      <trkpt lat="48.7525080" lon="8.1336760">
        <ele>129.4300000</ele>
        <time>2010-06-18T11:29:21Z</time>
      </trkpt>
      <trkpt lat="48.7526060" lon="8.1332660">
        <ele>129.9200000</ele>
        <time>2010-06-18T11:29:28Z</time>
      </trkpt>
      <trkpt lat="48.7527430" lon="8.1331070">
        <ele>129.9200000</ele>
        <time>2010-06-18T11:29:32Z</time>
      </trkpt>
      <trkpt lat="48.7529120" lon="8.1329870">
        <ele>128.9500000</ele>
        <time>2010-06-18T11:29:35Z</time>
      </trkpt>
      <trkpt lat="48.7532180" lon="8.1329220">
        <ele>129.4300000</ele>
        <time>2010-06-18T11:29:40Z</time>
      </trkpt>
      <trkpt lat="48.7540010" lon="8.1328400">
        <ele>128.9500000</ele>
        <time>2010-06-18T11:29:56Z</time>
      </trkpt>
      <trkpt lat="48.7544870" lon="8.1328020">
        <ele>128.9500000</ele>
        <time>2010-06-18T11:30:08Z</time>
      </trkpt>
      <trkpt lat="48.7545450" lon="8.1328680">
        <ele>128.4700000</ele>
        <time>2010-06-18T11:30:10Z</time>
      </trkpt>
      <trkpt lat="48.7546720" lon="8.1334920">
        <ele>130.4000000</ele>
        <time>2010-06-18T11:30:21Z</time>
      </trkpt>
      <trkpt lat="48.7547100" lon="8.1335410">
        <ele>130.4000000</ele>
        <time>2010-06-18T11:30:22Z</time>
      </trkpt>
      <trkpt lat="48.7554440" lon="8.1346250">
        <ele>130.4000000</ele>
        <time>2010-06-18T11:30:41Z</time>
      </trkpt>
      <trkpt lat="48.7560700" lon="8.1356220">
        <ele>130.4000000</ele>
        <time>2010-06-18T11:30:58Z</time>
      </trkpt>
      <trkpt lat="48.7563900" lon="8.1361520">
        <ele>129.9200000</ele>
        <time>2010-06-18T11:31:07Z</time>
      </trkpt>
      <trkpt lat="48.7569360" lon="8.1370160">
        <ele>129.4300000</ele>
        <time>2010-06-18T11:31:24Z</time>
      </trkpt>
      <trkpt lat="48.7569600" lon="8.1370440">
        <ele>128.9500000</ele>
        <time>2010-06-18T11:31:25Z</time>
      </trkpt>
      <trkpt lat="48.7569970" lon="8.1369160">
        <ele>129.4300000</ele>
        <time>2010-06-18T11:31:31Z</time>
      </trkpt>
      <trkpt lat="48.7566640" lon="8.1363490">
        <ele>129.9200000</ele>
        <time>2010-06-18T11:31:44Z</time>
      </trkpt>
      <trkpt lat="48.7565740" lon="8.1357280">
        <ele>130.4000000</ele>
        <time>2010-06-18T11:31:55Z</time>
      </trkpt>
      <trkpt lat="48.7568740" lon="8.1346660">
        <ele>132.3200000</ele>
        <time>2010-06-18T11:32:14Z</time>
      </trkpt>
      <trkpt lat="48.7569750" lon="8.1343430">
        <ele>134.7200000</ele>
        <time>2010-06-18T11:32:20Z</time>
      </trkpt>
      <trkpt lat="48.7571810" lon="8.1336520">
        <ele>135.6800000</ele>
        <time>2010-06-18T11:32:34Z</time>
      </trkpt>
      <trkpt lat="48.7574640" lon="8.1327330">
        <ele>135.2000000</ele>
        <time>2010-06-18T11:32:51Z</time>
      </trkpt>
      <trkpt lat="48.7577310" lon="8.1318980">
        <ele>133.7600000</ele>
        <time>2010-06-18T11:33:04Z</time>
      </trkpt>
      <trkpt lat="48.7578220" lon="8.1316100">
        <ele>132.8000000</ele>
        <time>2010-06-18T11:33:08Z</time>
      </trkpt>
      <trkpt lat="48.7580260" lon="8.1309060">
        <ele>131.3600000</ele>
        <time>2010-06-18T11:33:17Z</time>
      </trkpt>
      <trkpt lat="48.7579080" lon="8.1303850">
        <ele>130.4000000</ele>
        <time>2010-06-18T11:33:24Z</time>
      </trkpt>
      <trkpt lat="48.7573310" lon="8.1297410">
        <ele>129.9200000</ele>
        <time>2010-06-18T11:33:39Z</time>
      </trkpt>
      <trkpt lat="48.7570490" lon="8.1293600">
        <ele>130.8800000</ele>
        <time>2010-06-18T11:33:47Z</time>
      </trkpt>
      <trkpt lat="48.7569780" lon="8.1290160">
        <ele>131.3600000</ele>
        <time>2010-06-18T11:33:53Z</time>
      </trkpt>
      <trkpt lat="48.7570340" lon="8.1287960">
        <ele>130.4000000</ele>
        <time>2010-06-18T11:33:56Z</time>
      </trkpt>
      <trkpt lat="48.7569300" lon="8.1283540">
        <ele>127.9900000</ele>
        <time>2010-06-18T11:34:01Z</time>
      </trkpt>
      <trkpt lat="48.7567380" lon="8.1281150">
        <ele>128.4700000</ele>
        <time>2010-06-18T11:34:05Z</time>
      </trkpt>
      <trkpt lat="48.7561620" lon="8.1273750">
        <ele>128.4700000</ele>
        <time>2010-06-18T11:34:19Z</time>
      </trkpt>
      <trkpt lat="48.7562280" lon="8.1270620">
        <ele>128.4700000</ele>
        <time>2010-06-18T11:34:26Z</time>
      </trkpt>
      <trkpt lat="48.7567540" lon="8.1269060">
        <ele>127.0300000</ele>
        <time>2010-06-18T11:34:38Z</time>
      </trkpt>
      <trkpt lat="48.7571310" lon="8.1268830">
        <ele>127.5100000</ele>
        <time>2010-06-18T11:34:46Z</time>
      </trkpt>
      <trkpt lat="48.7574940" lon="8.1268140">
        <ele>127.5100000</ele>
        <time>2010-06-18T11:34:53Z</time>
      </trkpt>
      <trkpt lat="48.7576570" lon="8.1267670">
        <ele>127.5100000</ele>
        <time>2010-06-18T11:34:56Z</time>
      </trkpt>
      <trkpt lat="48.7582390" lon="8.1264970">
        <ele>127.5100000</ele>
        <time>2010-06-18T11:35:07Z</time>
      </trkpt>
      <trkpt lat="48.7585420" lon="8.1263950">
        <ele>127.0300000</ele>
        <time>2010-06-18T11:35:13Z</time>
      </trkpt>
      <trkpt lat="48.7587520" lon="8.1263620">
        <ele>126.5500000</ele>
        <time>2010-06-18T11:35:17Z</time>
      </trkpt>
      <trkpt lat="48.7595280" lon="8.1261960">
        <ele>127.9900000</ele>
        <time>2010-06-18T11:35:31Z</time>
      </trkpt>
      <trkpt lat="48.7596290" lon="8.1261730">
        <ele>128.4700000</ele>
        <time>2010-06-18T11:35:33Z</time>
      </trkpt>
      <trkpt lat="48.7597910" lon="8.1261330">
        <ele>128.4700000</ele>
        <time>2010-06-18T11:35:36Z</time>
      </trkpt>
      <trkpt lat="48.7599710" lon="8.1260940">
        <ele>128.4700000</ele>
        <time>2010-06-18T11:35:39Z</time>
      </trkpt>
      <trkpt lat="48.7601080" lon="8.1260660">
        <ele>128.4700000</ele>
        <time>2010-06-18T11:35:41Z</time>
      </trkpt>
      <trkpt lat="48.7606960" lon="8.1258880">
        <ele>127.5100000</ele>
        <time>2010-06-18T11:35:52Z</time>
      </trkpt>
      <trkpt lat="48.7608620" lon="8.1258420">
        <ele>127.0300000</ele>
        <time>2010-06-18T11:35:55Z</time>
      </trkpt>
      <trkpt lat="48.7611200" lon="8.1257490">
        <ele>127.0300000</ele>
        <time>2010-06-18T11:36:00Z</time>
      </trkpt>
      <trkpt lat="48.7612770" lon="8.1254420">
        <ele>127.9900000</ele>
        <time>2010-06-18T11:36:06Z</time>
      </trkpt>
      <trkpt lat="48.7611820" lon="8.1247650">
        <ele>127.9900000</ele>
        <time>2010-06-18T11:36:16Z</time>
      </trkpt>
      <trkpt lat="48.7611490" lon="8.1241730">
        <ele>127.0300000</ele>
        <time>2010-06-18T11:36:23Z</time>
      </trkpt>
      <trkpt lat="48.7608760" lon="8.1227530">
        <ele>127.0300000</ele>
        <time>2010-06-18T11:36:39Z</time>
      </trkpt>
      <trkpt lat="48.7606790" lon="8.1215750">
        <ele>128.9500000</ele>
        <time>2010-06-18T11:36:53Z</time>
      </trkpt>
      <trkpt lat="48.7604090" lon="8.1200650">
        <ele>129.4300000</ele>
        <time>2010-06-18T11:37:11Z</time>
      </trkpt>
      <trkpt lat="48.7601300" lon="8.1186320">
        <ele>129.9200000</ele>
        <time>2010-06-18T11:37:28Z</time>
      </trkpt>
      <trkpt lat="48.7598360" lon="8.1172490">
        <ele>129.4300000</ele>
        <time>2010-06-18T11:37:44Z</time>
      </trkpt>
      <trkpt lat="48.7596360" lon="8.1164510">
        <ele>128.9500000</ele>
        <time>2010-06-18T11:37:53Z</time>
      </trkpt>
      <trkpt lat="48.7592310" lon="8.1150460">
        <ele>128.9500000</ele>
        <time>2010-06-18T11:38:09Z</time>
      </trkpt>
      <trkpt lat="48.7587970" lon="8.1138330">
        <ele>129.9200000</ele>
        <time>2010-06-18T11:38:24Z</time>
      </trkpt>
      <trkpt lat="48.7582080" lon="8.1125760">
        <ele>129.9200000</ele>
        <time>2010-06-18T11:38:42Z</time>
      </trkpt>
      <trkpt lat="48.7577140" lon="8.1113530">
        <ele>129.9200000</ele>
        <time>2010-06-18T11:38:59Z</time>
      </trkpt>
      <trkpt lat="48.7574300" lon="8.1099560">
        <ele>129.4300000</ele>
        <time>2010-06-18T11:39:16Z</time>
      </trkpt>
      <trkpt lat="48.7574150" lon="8.1098670">
        <ele>129.4300000</ele>
        <time>2010-06-18T11:39:17Z</time>
      </trkpt>
      <trkpt lat="48.7572610" lon="8.1084170">
        <ele>129.4300000</ele>
        <time>2010-06-18T11:39:34Z</time>
      </trkpt>
      <trkpt lat="48.7570920" lon="8.1067730">
        <ele>130.4000000</ele>
        <time>2010-06-18T11:39:53Z</time>
      </trkpt>
      <trkpt lat="48.7569260" lon="8.1057200">
        <ele>130.4000000</ele>
        <time>2010-06-18T11:40:06Z</time>
      </trkpt>
      <trkpt lat="48.7564110" lon="8.1041590">
        <ele>130.8800000</ele>
        <time>2010-06-18T11:40:27Z</time>
      </trkpt>
      <trkpt lat="48.7558930" lon="8.1031210">
        <ele>130.8800000</ele>
        <time>2010-06-18T11:40:42Z</time>
      </trkpt>
      <trkpt lat="48.7553160" lon="8.1021100">
        <ele>129.9200000</ele>
        <time>2010-06-18T11:40:58Z</time>
      </trkpt>
      <trkpt lat="48.7547950" lon="8.1013150">
        <ele>129.9200000</ele>
        <time>2010-06-18T11:41:11Z</time>
      </trkpt>
      <trkpt lat="48.7541470" lon="8.1004210">
        <ele>129.9200000</ele>
        <time>2010-06-18T11:41:27Z</time>
      </trkpt>
      <trkpt lat="48.7535520" lon="8.0996420">
        <ele>129.9200000</ele>
        <time>2010-06-18T11:41:41Z</time>
      </trkpt>
      <trkpt lat="48.7533880" lon="8.0994110">
        <ele>130.8800000</ele>
        <time>2010-06-18T11:41:45Z</time>
      </trkpt>
      <trkpt lat="48.7529120" lon="8.0981140">
        <ele>130.8800000</ele>
        <time>2010-06-18T11:42:02Z</time>
      </trkpt>
      <trkpt lat="48.7523910" lon="8.0970220">
        <ele>131.3600000</ele>
        <time>2010-06-18T11:42:18Z</time>
      </trkpt>
      <trkpt lat="48.7522830" lon="8.0968400">
        <ele>131.3600000</ele>
        <time>2010-06-18T11:42:21Z</time>
      </trkpt>
      <trkpt lat="48.7522050" lon="8.0967270">
        <ele>131.3600000</ele>
        <time>2010-06-18T11:42:23Z</time>
      </trkpt>
      <trkpt lat="48.7517220" lon="8.0960480">
        <ele>131.3600000</ele>
        <time>2010-06-18T11:42:35Z</time>
      </trkpt>
      <trkpt lat="48.7514670" lon="8.0959160">
        <ele>131.3600000</ele>
        <time>2010-06-18T11:42:40Z</time>
      </trkpt>
      <trkpt lat="48.7511980" lon="8.0957750">
        <ele>130.8800000</ele>
        <time>2010-06-18T11:42:45Z</time>
      </trkpt>
      <trkpt lat="48.7510970" lon="8.0957190">
        <ele>130.8800000</ele>
        <time>2010-06-18T11:42:47Z</time>
      </trkpt>
      <trkpt lat="48.7509150" lon="8.0956140">
        <ele>130.8800000</ele>
        <time>2010-06-18T11:42:51Z</time>
      </trkpt>
      <trkpt lat="48.7507580" lon="8.0955530">
        <ele>130.8800000</ele>
        <time>2010-06-18T11:43:01Z</time>
      </trkpt>
      <trkpt lat="48.7507760" lon="8.0955550">
        <ele>129.4300000</ele>
        <time>2010-06-18T11:43:53Z</time>
      </trkpt>
      <trkpt lat="48.7507860" lon="8.0954370">
        <ele>129.4300000</ele>
        <time>2010-06-18T11:44:06Z</time>
      </trkpt>
      <trkpt lat="48.7507900" lon="8.0954150">
        <ele>129.4300000</ele>
        <time>2010-06-18T11:44:14Z</time>
      </trkpt>
      <trkpt lat="48.7508560" lon="8.0953790">
        <ele>130.4000000</ele>
        <time>2010-06-18T11:44:28Z</time>
      </trkpt>
      <trkpt lat="48.7508780" lon="8.0953730">
        <ele>130.8800000</ele>
        <time>2010-06-18T11:44:35Z</time>
      </trkpt>
      <trkpt lat="48.7508870" lon="8.0953540">
        <ele>130.8800000</ele>
        <time>2010-06-18T11:44:59Z</time>
      </trkpt>
      <trkpt lat="48.7508360" lon="8.0955010">
        <ele>131.3600000</ele>
        <time>2010-06-18T11:45:49Z</time>
      </trkpt>
      <trkpt lat="48.7507840" lon="8.0954330">
        <ele>131.8400000</ele>
        <time>2010-06-18T11:46:35Z</time>
      </trkpt>
      <trkpt lat="48.7507840" lon="8.0954330">
        <ele>130.4000000</ele>
        <time>2010-06-18T11:47:12Z</time>
      </trkpt>
      <trkpt lat="48.7507840" lon="8.0954330">
        <ele>131.3600000</ele>
        <time>2010-06-18T11:47:19Z</time>
      </trkpt>
      <trkpt lat="48.7507840" lon="8.0954330">
        <ele>130.4000000</ele>
        <time>2010-06-18T11:47:29Z</time>
      </trkpt>
      <trkpt lat="48.7507840" lon="8.0954330">
        <ele>133.2800000</ele>
        <time>2010-06-18T11:49:02Z</time>
      </trkpt>
      <trkpt lat="48.7507840" lon="8.0954330">
        <ele>133.2800000</ele>
        <time>2010-06-18T11:49:03Z</time>
      </trkpt>
      <trkpt lat="48.7508110" lon="8.0954570">
        <ele>133.2800000</ele>
        <time>2010-06-18T11:52:00Z</time>
      </trkpt>
      <trkpt lat="48.7508880" lon="8.0953810">
        <ele>133.7600000</ele>
        <time>2010-06-18T11:58:57Z</time>
      </trkpt>
      <trkpt lat="48.7512530" lon="8.0951260">
        <ele>133.7600000</ele>
        <time>2010-06-18T11:59:13Z</time>
      </trkpt>
      <trkpt lat="48.7512230" lon="8.0952230">
        <ele>134.2400000</ele>
        <time>2010-06-18T11:59:19Z</time>
      </trkpt>
      <trkpt lat="48.7511700" lon="8.0952390">
        <ele>133.7600000</ele>
        <time>2010-06-18T11:59:21Z</time>
      </trkpt>
      <trkpt lat="48.7509290" lon="8.0952870">
        <ele>133.2800000</ele>
        <time>2010-06-18T11:59:38Z</time>
      </trkpt>
      <trkpt lat="48.7509090" lon="8.0953430">
        <ele>136.1600000</ele>
        <time>2010-06-18T12:06:01Z</time>
      </trkpt>
      <trkpt lat="48.7509700" lon="8.0954280">
        <ele>135.6800000</ele>
        <time>2010-06-18T12:29:11Z</time>
      </trkpt>
      <trkpt lat="48.7509100" lon="8.0955610">
        <ele>135.2000000</ele>
        <time>2010-06-18T12:29:36Z</time>
      </trkpt>
      <trkpt lat="48.7510280" lon="8.0951780">
        <ele>134.7200000</ele>
        <time>2010-06-18T12:49:25Z</time>
      </trkpt>
      <trkpt lat="48.7509590" lon="8.0951970">
        <ele>134.2400000</ele>
        <time>2010-06-18T12:49:51Z</time>
      </trkpt>
      <trkpt lat="48.7507680" lon="8.0949130">
        <ele>133.7600000</ele>
        <time>2010-06-18T12:50:14Z</time>
      </trkpt>
      <trkpt lat="48.7510090" lon="8.0951620">
        <ele>134.2400000</ele>
        <time>2010-06-18T12:51:44Z</time>
      </trkpt>
      <trkpt lat="48.7512720" lon="8.0953150">
        <ele>133.7600000</ele>
        <time>2010-06-18T12:52:08Z</time>
      </trkpt>
      <trkpt lat="48.7513000" lon="8.0953710">
        <ele>134.2400000</ele>
        <time>2010-06-18T12:52:34Z</time>
      </trkpt>
      <trkpt lat="48.7510420" lon="8.0954480">
        <ele>134.2400000</ele>
        <time>2010-06-18T12:54:00Z</time>
      </trkpt>
      <trkpt lat="48.7509040" lon="8.0953250">
        <ele>175.5800000</ele>
        <time>2010-06-18T13:23:29Z</time>
      </trkpt>
      <trkpt lat="48.7509040" lon="8.0953250">
        <ele>142.4100000</ele>
        <time>2010-06-18T13:23:30Z</time>
      </trkpt>
      <trkpt lat="48.7509040" lon="8.0953250">
        <ele>142.4100000</ele>
        <time>2010-06-18T13:23:31Z</time>
      </trkpt>
      <trkpt lat="48.7509040" lon="8.0953250">
        <ele>142.4100000</ele>
        <time>2010-06-18T13:23:35Z</time>
      </trkpt>
      <trkpt lat="48.7493770" lon="8.0950180">
        <ele>141.9300000</ele>
        <time>2010-06-18T13:23:41Z</time>
      </trkpt>
      <trkpt lat="48.7492310" lon="8.0949840">
        <ele>138.5700000</ele>
        <time>2010-06-18T13:23:44Z</time>
      </trkpt>
      <trkpt lat="48.7490400" lon="8.0948930">
        <ele>135.6800000</ele>
        <time>2010-06-18T13:23:53Z</time>
      </trkpt>
      <trkpt lat="48.7490430" lon="8.0948930">
        <ele>130.4000000</ele>
        <time>2010-06-18T13:23:58Z</time>
      </trkpt>
      <trkpt lat="48.7490460" lon="8.0948960">
        <ele>134.7200000</ele>
        <time>2010-06-18T13:23:59Z</time>
      </trkpt>
      <trkpt lat="48.7490490" lon="8.0948820">
        <ele>131.3600000</ele>
        <time>2010-06-18T13:24:09Z</time>
      </trkpt>
      <trkpt lat="48.7490490" lon="8.0948820">
        <ele>131.3600000</ele>
        <time>2010-06-18T13:24:37Z</time>
      </trkpt>
      <trkpt lat="48.7490490" lon="8.0948820">
        <ele>137.1300000</ele>
        <time>2010-06-18T13:24:38Z</time>
      </trkpt>
      <trkpt lat="48.7490490" lon="8.0948820">
        <ele>137.1300000</ele>
        <time>2010-06-18T13:24:39Z</time>
      </trkpt>
      <trkpt lat="48.7490490" lon="8.0948820">
        <ele>135.2000000</ele>
        <time>2010-06-18T13:24:40Z</time>
      </trkpt>
      <trkpt lat="48.7491310" lon="8.0949420">
        <ele>135.2000000</ele>
        <time>2010-06-18T13:24:41Z</time>
      </trkpt>
      <trkpt lat="48.7490210" lon="8.0948740">
        <ele>134.7200000</ele>
        <time>2010-06-18T13:24:55Z</time>
      </trkpt>
      <trkpt lat="48.7489560" lon="8.0948780">
        <ele>135.6800000</ele>
        <time>2010-06-18T13:24:59Z</time>
      </trkpt>
      <trkpt lat="48.7488370" lon="8.0948780">
        <ele>134.2400000</ele>
        <time>2010-06-18T13:25:04Z</time>
      </trkpt>
      <trkpt lat="48.7485770" lon="8.0948460">
        <ele>134.2400000</ele>
        <time>2010-06-18T13:25:10Z</time>
      </trkpt>
      <trkpt lat="48.7481920" lon="8.0948120">
        <ele>134.2400000</ele>
        <time>2010-06-18T13:25:19Z</time>
      </trkpt>
      <trkpt lat="48.7479300" lon="8.0944780">
        <ele>133.7600000</ele>
        <time>2010-06-18T13:25:27Z</time>
      </trkpt>
      <trkpt lat="48.7478210" lon="8.0939780">
        <ele>134.2400000</ele>
        <time>2010-06-18T13:25:34Z</time>
      </trkpt>
      <trkpt lat="48.7478020" lon="8.0939100">
        <ele>133.2800000</ele>
        <time>2010-06-18T13:25:35Z</time>
      </trkpt>
      <trkpt lat="48.7477100" lon="8.0926540">
        <ele>133.2800000</ele>
        <time>2010-06-18T13:25:50Z</time>
      </trkpt>
      <trkpt lat="48.7474590" lon="8.0914490">
        <ele>133.7600000</ele>
        <time>2010-06-18T13:26:04Z</time>
      </trkpt>
      <trkpt lat="48.7473030" lon="8.0908820">
        <ele>133.7600000</ele>
        <time>2010-06-18T13:26:11Z</time>
      </trkpt>
      <trkpt lat="48.7472000" lon="8.0906800">
        <ele>134.2400000</ele>
        <time>2010-06-18T13:26:14Z</time>
      </trkpt>
      <trkpt lat="48.7470190" lon="8.0904730">
        <ele>134.2400000</ele>
        <time>2010-06-18T13:26:18Z</time>
      </trkpt>
      <trkpt lat="48.7463340" lon="8.0899720">
        <ele>134.7200000</ele>
        <time>2010-06-18T13:26:32Z</time>
      </trkpt>
      <trkpt lat="48.7461970" lon="8.0898340">
        <ele>134.2400000</ele>
        <time>2010-06-18T13:26:35Z</time>
      </trkpt>
      <trkpt lat="48.7460360" lon="8.0895290">
        <ele>134.2400000</ele>
        <time>2010-06-18T13:26:39Z</time>
      </trkpt>
      <trkpt lat="48.7459320" lon="8.0884860">
        <ele>133.7600000</ele>
        <time>2010-06-18T13:26:50Z</time>
      </trkpt>
      <trkpt lat="48.7456880" lon="8.0871970">
        <ele>134.2400000</ele>
        <time>2010-06-18T13:27:05Z</time>
      </trkpt>
      <trkpt lat="48.7454240" lon="8.0860580">
        <ele>134.2400000</ele>
        <time>2010-06-18T13:27:19Z</time>
      </trkpt>
      <trkpt lat="48.7453480" lon="8.0856980">
        <ele>134.2400000</ele>
        <time>2010-06-18T13:27:23Z</time>
      </trkpt>
      <trkpt lat="48.7453610" lon="8.0852350">
        <ele>133.7600000</ele>
        <time>2010-06-18T13:27:28Z</time>
      </trkpt>
      <trkpt lat="48.7454600" lon="8.0841730">
        <ele>134.2400000</ele>
        <time>2010-06-18T13:27:39Z</time>
      </trkpt>
      <trkpt lat="48.7453210" lon="8.0835750">
        <ele>134.2400000</ele>
        <time>2010-06-18T13:27:46Z</time>
      </trkpt>
      <trkpt lat="48.7452460" lon="8.0823860">
        <ele>134.7200000</ele>
        <time>2010-06-18T13:27:59Z</time>
      </trkpt>
      <trkpt lat="48.7452950" lon="8.0820190">
        <ele>134.7200000</ele>
        <time>2010-06-18T13:28:03Z</time>
      </trkpt>
      <trkpt lat="48.7454030" lon="8.0815880">
        <ele>134.2400000</ele>
        <time>2010-06-18T13:28:08Z</time>
      </trkpt>
      <trkpt lat="48.7454420" lon="8.0813150">
        <ele>134.2400000</ele>
        <time>2010-06-18T13:28:11Z</time>
      </trkpt>
      <trkpt lat="48.7453070" lon="8.0801200">
        <ele>134.2400000</ele>
        <time>2010-06-18T13:28:24Z</time>
      </trkpt>
      <trkpt lat="48.7452780" lon="8.0797410">
        <ele>134.2400000</ele>
        <time>2010-06-18T13:28:28Z</time>
      </trkpt>
      <trkpt lat="48.7451840" lon="8.0793740">
        <ele>133.7600000</ele>
        <time>2010-06-18T13:28:32Z</time>
      </trkpt>
      <trkpt lat="48.7448500" lon="8.0786780">
        <ele>134.2400000</ele>
        <time>2010-06-18T13:28:41Z</time>
      </trkpt>
      <trkpt lat="48.7447940" lon="8.0785060">
        <ele>134.2400000</ele>
        <time>2010-06-18T13:28:43Z</time>
      </trkpt>
      <trkpt lat="48.7446410" lon="8.0776730">
        <ele>134.2400000</ele>
        <time>2010-06-18T13:28:52Z</time>
      </trkpt>
      <trkpt lat="48.7440580" lon="8.0764790">
        <ele>134.7200000</ele>
        <time>2010-06-18T13:29:08Z</time>
      </trkpt>
      <trkpt lat="48.7432700" lon="8.0747620">
        <ele>133.7600000</ele>
        <time>2010-06-18T13:29:30Z</time>
      </trkpt>
      <trkpt lat="48.7432430" lon="8.0746770">
        <ele>134.2400000</ele>
        <time>2010-06-18T13:29:31Z</time>
      </trkpt>
      <trkpt lat="48.7431730" lon="8.0742190">
        <ele>133.7600000</ele>
        <time>2010-06-18T13:29:36Z</time>
      </trkpt>
      <trkpt lat="48.7434190" lon="8.0731110">
        <ele>134.7200000</ele>
        <time>2010-06-18T13:29:49Z</time>
      </trkpt>
      <trkpt lat="48.7439720" lon="8.0719220">
        <ele>135.6800000</ele>
        <time>2010-06-18T13:30:06Z</time>
      </trkpt>
      <trkpt lat="48.7444650" lon="8.0707020">
        <ele>136.1600000</ele>
        <time>2010-06-18T13:30:22Z</time>
      </trkpt>
      <trkpt lat="48.7444770" lon="8.0695850">
        <ele>134.7200000</ele>
        <time>2010-06-18T13:30:34Z</time>
      </trkpt>
      <trkpt lat="48.7443820" lon="8.0683250">
        <ele>134.2400000</ele>
        <time>2010-06-18T13:30:47Z</time>
      </trkpt>
      <trkpt lat="48.7445810" lon="8.0669380">
        <ele>134.7200000</ele>
        <time>2010-06-18T13:31:03Z</time>
      </trkpt>
      <trkpt lat="48.7448820" lon="8.0652320">
        <ele>134.7200000</ele>
        <time>2010-06-18T13:31:22Z</time>
      </trkpt>
      <trkpt lat="48.7450890" lon="8.0641180">
        <ele>134.7200000</ele>
        <time>2010-06-18T13:31:34Z</time>
      </trkpt>
      <trkpt lat="48.7454310" lon="8.0623500">
        <ele>135.2000000</ele>
        <time>2010-06-18T13:31:53Z</time>
      </trkpt>
      <trkpt lat="48.7457050" lon="8.0604790">
        <ele>135.6800000</ele>
        <time>2010-06-18T13:32:13Z</time>
      </trkpt>
      <trkpt lat="48.7458730" lon="8.0587500">
        <ele>134.7200000</ele>
        <time>2010-06-18T13:32:31Z</time>
      </trkpt>
      <trkpt lat="48.7461010" lon="8.0568640">
        <ele>135.2000000</ele>
        <time>2010-06-18T13:32:52Z</time>
      </trkpt>
      <trkpt lat="48.7462650" lon="8.0553990">
        <ele>135.2000000</ele>
        <time>2010-06-18T13:33:09Z</time>
      </trkpt>
      <trkpt lat="48.7464950" lon="8.0538980">
        <ele>135.2000000</ele>
        <time>2010-06-18T13:33:27Z</time>
      </trkpt>
      <trkpt lat="48.7466570" lon="8.0528190">
        <ele>134.2400000</ele>
        <time>2010-06-18T13:33:40Z</time>
      </trkpt>
      <trkpt lat="48.7466950" lon="8.0522140">
        <ele>134.7200000</ele>
        <time>2010-06-18T13:33:47Z</time>
      </trkpt>
      <trkpt lat="48.7467330" lon="8.0509930">
        <ele>135.2000000</ele>
        <time>2010-06-18T13:34:00Z</time>
      </trkpt>
      <trkpt lat="48.7468070" lon="8.0499070">
        <ele>135.2000000</ele>
        <time>2010-06-18T13:34:12Z</time>
      </trkpt>
      <trkpt lat="48.7469520" lon="8.0485140">
        <ele>135.6800000</ele>
        <time>2010-06-18T13:34:28Z</time>
      </trkpt>
      <trkpt lat="48.7468840" lon="8.0475530">
        <ele>135.6800000</ele>
        <time>2010-06-18T13:34:39Z</time>
      </trkpt>
      <trkpt lat="48.7469140" lon="8.0468900">
        <ele>135.2000000</ele>
        <time>2010-06-18T13:34:47Z</time>
      </trkpt>
      <trkpt lat="48.7468340" lon="8.0466000">
        <ele>135.6800000</ele>
        <time>2010-06-18T13:34:51Z</time>
      </trkpt>
      <trkpt lat="48.7467230" lon="8.0464080">
        <ele>135.2000000</ele>
        <time>2010-06-18T13:34:54Z</time>
      </trkpt>
      <trkpt lat="48.7466580" lon="8.0462760">
        <ele>134.7200000</ele>
        <time>2010-06-18T13:34:56Z</time>
      </trkpt>
      <trkpt lat="48.7467200" lon="8.0458310">
        <ele>134.2400000</ele>
        <time>2010-06-18T13:35:02Z</time>
      </trkpt>
      <trkpt lat="48.7467590" lon="8.0457620">
        <ele>134.2400000</ele>
        <time>2010-06-18T13:35:03Z</time>
      </trkpt>
      <trkpt lat="48.7471060" lon="8.0450820">
        <ele>133.2800000</ele>
        <time>2010-06-18T13:35:12Z</time>
      </trkpt>
      <trkpt lat="48.7471830" lon="8.0444340">
        <ele>133.2800000</ele>
        <time>2010-06-18T13:35:19Z</time>
      </trkpt>
      <trkpt lat="48.7471390" lon="8.0433950">
        <ele>132.8000000</ele>
        <time>2010-06-18T13:35:31Z</time>
      </trkpt>
      <trkpt lat="48.7473690" lon="8.0422940">
        <ele>133.2800000</ele>
        <time>2010-06-18T13:35:45Z</time>
      </trkpt>
      <trkpt lat="48.7477960" lon="8.0409500">
        <ele>132.3200000</ele>
        <time>2010-06-18T13:36:03Z</time>
      </trkpt>
      <trkpt lat="48.7478970" lon="8.0403290">
        <ele>132.3200000</ele>
        <time>2010-06-18T13:36:11Z</time>
      </trkpt>
      <trkpt lat="48.7478070" lon="8.0399840">
        <ele>132.8000000</ele>
        <time>2010-06-18T13:36:16Z</time>
      </trkpt>
      <trkpt lat="48.7476030" lon="8.0397370">
        <ele>132.8000000</ele>
        <time>2010-06-18T13:36:21Z</time>
      </trkpt>
      <trkpt lat="48.7470500" lon="8.0395100">
        <ele>132.8000000</ele>
        <time>2010-06-18T13:36:32Z</time>
      </trkpt>
      <trkpt lat="48.7465870" lon="8.0392530">
        <ele>133.7600000</ele>
        <time>2010-06-18T13:36:42Z</time>
      </trkpt>
      <trkpt lat="48.7464460" lon="8.0392330">
        <ele>133.7600000</ele>
        <time>2010-06-18T13:36:46Z</time>
      </trkpt>
      <trkpt lat="48.7461090" lon="8.0396820">
        <ele>133.7600000</ele>
        <time>2010-06-18T13:36:55Z</time>
      </trkpt>
      <trkpt lat="48.7454400" lon="8.0407850">
        <ele>133.7600000</ele>
        <time>2010-06-18T13:37:14Z</time>
      </trkpt>
      <trkpt lat="48.7450880" lon="8.0416870">
        <ele>132.8000000</ele>
        <time>2010-06-18T13:37:27Z</time>
      </trkpt>
      <trkpt lat="48.7448730" lon="8.0416950">
        <ele>132.8000000</ele>
        <time>2010-06-18T13:37:33Z</time>
      </trkpt>
      <trkpt lat="48.7448660" lon="8.0416150">
        <ele>132.8000000</ele>
        <time>2010-06-18T13:37:34Z</time>
      </trkpt>
      <trkpt lat="48.7447360" lon="8.0399830">
        <ele>132.8000000</ele>
        <time>2010-06-18T13:37:53Z</time>
      </trkpt>
      <trkpt lat="48.7447410" lon="8.0395670">
        <ele>132.8000000</ele>
        <time>2010-06-18T13:37:58Z</time>
      </trkpt>
      <trkpt lat="48.7447150" lon="8.0390800">
        <ele>132.8000000</ele>
        <time>2010-06-18T13:38:04Z</time>
      </trkpt>
      <trkpt lat="48.7446340" lon="8.0384100">
        <ele>133.2800000</ele>
        <time>2010-06-18T13:38:12Z</time>
      </trkpt>
      <trkpt lat="48.7444790" lon="8.0379750">
        <ele>134.7200000</ele>
        <time>2010-06-18T13:38:18Z</time>
      </trkpt>
      <trkpt lat="48.7439360" lon="8.0371650">
        <ele>134.7200000</ele>
        <time>2010-06-18T13:38:32Z</time>
      </trkpt>
      <trkpt lat="48.7432500" lon="8.0363360">
        <ele>133.7600000</ele>
        <time>2010-06-18T13:38:47Z</time>
      </trkpt>
      <trkpt lat="48.7428300" lon="8.0357140">
        <ele>133.2800000</ele>
        <time>2010-06-18T13:38:57Z</time>
      </trkpt>
      <trkpt lat="48.7425390" lon="8.0352750">
        <ele>133.7600000</ele>
        <time>2010-06-18T13:39:04Z</time>
      </trkpt>
      <trkpt lat="48.7424520" lon="8.0351670">
        <ele>133.7600000</ele>
        <time>2010-06-18T13:39:06Z</time>
      </trkpt>
      <trkpt lat="48.7423540" lon="8.0348970">
        <ele>133.7600000</ele>
        <time>2010-06-18T13:39:10Z</time>
      </trkpt>
      <trkpt lat="48.7419640" lon="8.0341600">
        <ele>133.7600000</ele>
        <time>2010-06-18T13:39:21Z</time>
      </trkpt>
      <trkpt lat="48.7415660" lon="8.0331820">
        <ele>135.2000000</ele>
        <time>2010-06-18T13:39:36Z</time>
      </trkpt>
      <trkpt lat="48.7411860" lon="8.0323250">
        <ele>134.7200000</ele>
        <time>2010-06-18T13:39:49Z</time>
      </trkpt>
      <trkpt lat="48.7411000" lon="8.0320310">
        <ele>134.7200000</ele>
        <time>2010-06-18T13:39:53Z</time>
      </trkpt>
      <trkpt lat="48.7407160" lon="8.0307670">
        <ele>136.1600000</ele>
        <time>2010-06-18T13:40:11Z</time>
      </trkpt>
      <trkpt lat="48.7403650" lon="8.0296150">
        <ele>135.6800000</ele>
        <time>2010-06-18T13:40:28Z</time>
      </trkpt>
      <trkpt lat="48.7402440" lon="8.0293280">
        <ele>135.6800000</ele>
        <time>2010-06-18T13:40:32Z</time>
      </trkpt>
      <trkpt lat="48.7400300" lon="8.0290600">
        <ele>135.2000000</ele>
        <time>2010-06-18T13:40:37Z</time>
      </trkpt>
      <trkpt lat="48.7398210" lon="8.0285930">
        <ele>135.2000000</ele>
        <time>2010-06-18T13:40:44Z</time>
      </trkpt>
      <trkpt lat="48.7390270" lon="8.0275930">
        <ele>134.7200000</ele>
        <time>2010-06-18T13:41:03Z</time>
      </trkpt>
      <trkpt lat="48.7380100" lon="8.0267810">
        <ele>133.7600000</ele>
        <time>2010-06-18T13:41:23Z</time>
      </trkpt>
      <trkpt lat="48.7371840" lon="8.0263290">
        <ele>133.7600000</ele>
        <time>2010-06-18T13:41:38Z</time>
      </trkpt>
      <trkpt lat="48.7364460" lon="8.0256420">
        <ele>134.7200000</ele>
        <time>2010-06-18T13:41:53Z</time>
      </trkpt>
      <trkpt lat="48.7359730" lon="8.0248140">
        <ele>131.3600000</ele>
        <time>2010-06-18T13:42:06Z</time>
      </trkpt>
      <trkpt lat="48.7358350" lon="8.0245480">
        <ele>135.6800000</ele>
        <time>2010-06-18T13:42:10Z</time>
      </trkpt>
      <trkpt lat="48.7352360" lon="8.0235130">
        <ele>133.2800000</ele>
        <time>2010-06-18T13:42:25Z</time>
      </trkpt>
      <trkpt lat="48.7346460" lon="8.0226800">
        <ele>134.2400000</ele>
        <time>2010-06-18T13:42:39Z</time>
      </trkpt>
      <trkpt lat="48.7340200" lon="8.0215290">
        <ele>136.1600000</ele>
        <time>2010-06-18T13:42:57Z</time>
      </trkpt>
      <trkpt lat="48.7332030" lon="8.0203580">
        <ele>136.1600000</ele>
        <time>2010-06-18T13:43:17Z</time>
      </trkpt>
      <trkpt lat="48.7325560" lon="8.0193570">
        <ele>135.6800000</ele>
        <time>2010-06-18T13:43:33Z</time>
      </trkpt>
      <trkpt lat="48.7320250" lon="8.0186560">
        <ele>135.6800000</ele>
        <time>2010-06-18T13:43:45Z</time>
      </trkpt>
      <trkpt lat="48.7312700" lon="8.0177030">
        <ele>135.2000000</ele>
        <time>2010-06-18T13:44:03Z</time>
      </trkpt>
      <trkpt lat="48.7309090" lon="8.0176860">
        <ele>135.2000000</ele>
        <time>2010-06-18T13:44:10Z</time>
      </trkpt>
      <trkpt lat="48.7308100" lon="8.0174990">
        <ele>135.2000000</ele>
        <time>2010-06-18T13:44:13Z</time>
      </trkpt>
      <trkpt lat="48.7304780" lon="8.0159530">
        <ele>135.2000000</ele>
        <time>2010-06-18T13:44:31Z</time>
      </trkpt>
      <trkpt lat="48.7301610" lon="8.0142670">
        <ele>134.2400000</ele>
        <time>2010-06-18T13:44:51Z</time>
      </trkpt>
      <trkpt lat="48.7300740" lon="8.0138640">
        <ele>130.4000000</ele>
        <time>2010-06-18T13:44:56Z</time>
      </trkpt>
      <trkpt lat="48.7300600" lon="8.0137840">
        <ele>134.7200000</ele>
        <time>2010-06-18T13:44:57Z</time>
      </trkpt>
      <trkpt lat="48.7298540" lon="8.0127870">
        <ele>134.7200000</ele>
        <time>2010-06-18T13:45:10Z</time>
      </trkpt>
      <trkpt lat="48.7298340" lon="8.0123900">
        <ele>134.2400000</ele>
        <time>2010-06-18T13:45:16Z</time>
      </trkpt>
      <trkpt lat="48.7294510" lon="8.0110570">
        <ele>134.2400000</ele>
        <time>2010-06-18T13:45:33Z</time>
      </trkpt>
      <trkpt lat="48.7289630" lon="8.0097790">
        <ele>133.2800000</ele>
        <time>2010-06-18T13:45:49Z</time>
      </trkpt>
      <trkpt lat="48.7287070" lon="8.0091970">
        <ele>133.2800000</ele>
        <time>2010-06-18T13:45:57Z</time>
      </trkpt>
      <trkpt lat="48.7285520" lon="8.0089440">
        <ele>132.8000000</ele>
        <time>2010-06-18T13:46:04Z</time>
      </trkpt>
      <trkpt lat="48.7284310" lon="8.0090620">
        <ele>133.2800000</ele>
        <time>2010-06-18T13:46:09Z</time>
      </trkpt>
      <trkpt lat="48.7283160" lon="8.0092630">
        <ele>133.2800000</ele>
        <time>2010-06-18T13:46:13Z</time>
      </trkpt>
      <trkpt lat="48.7279980" lon="8.0093660">
        <ele>133.2800000</ele>
        <time>2010-06-18T13:46:21Z</time>
      </trkpt>
      <trkpt lat="48.7270840" lon="8.0087770">
        <ele>132.8000000</ele>
        <time>2010-06-18T13:46:41Z</time>
      </trkpt>
      <trkpt lat="48.7264370" lon="8.0083490">
        <ele>133.2800000</ele>
        <time>2010-06-18T13:46:55Z</time>
      </trkpt>
      <trkpt lat="48.7261020" lon="8.0081120">
        <ele>133.7600000</ele>
        <time>2010-06-18T13:47:03Z</time>
      </trkpt>
      <trkpt lat="48.7257180" lon="8.0079550">
        <ele>134.2400000</ele>
        <time>2010-06-18T13:47:13Z</time>
      </trkpt>
      <trkpt lat="48.7255880" lon="8.0078540">
        <ele>133.7600000</ele>
        <time>2010-06-18T13:47:17Z</time>
      </trkpt>
      <trkpt lat="48.7256210" lon="8.0076220">
        <ele>133.2800000</ele>
        <time>2010-06-18T13:47:21Z</time>
      </trkpt>
      <trkpt lat="48.7260540" lon="8.0064580">
        <ele>132.8000000</ele>
        <time>2010-06-18T13:47:39Z</time>
      </trkpt>
      <trkpt lat="48.7263700" lon="8.0059460">
        <ele>133.7600000</ele>
        <time>2010-06-18T13:47:52Z</time>
      </trkpt>
      <trkpt lat="48.7263860" lon="8.0059330">
        <ele>133.2800000</ele>
        <time>2010-06-18T13:48:09Z</time>
      </trkpt>
      <trkpt lat="48.7264050" lon="8.0058700">
        <ele>133.2800000</ele>
        <time>2010-06-18T13:48:17Z</time>
      </trkpt>
      <trkpt lat="48.7262660" lon="8.0051250">
        <ele>134.2400000</ele>
        <time>2010-06-18T13:48:29Z</time>
      </trkpt>
      <trkpt lat="48.7259590" lon="8.0040730">
        <ele>134.7200000</ele>
        <time>2010-06-18T13:48:44Z</time>
      </trkpt>
      <trkpt lat="48.7257530" lon="8.0036350">
        <ele>135.2000000</ele>
        <time>2010-06-18T13:48:51Z</time>
      </trkpt>
      <trkpt lat="48.7255390" lon="8.0034070">
        <ele>134.2400000</ele>
        <time>2010-06-18T13:48:56Z</time>
      </trkpt>
      <trkpt lat="48.7245890" lon="8.0030180">
        <ele>133.2800000</ele>
        <time>2010-06-18T13:49:14Z</time>
      </trkpt>
      <trkpt lat="48.7237840" lon="8.0027200">
        <ele>133.2800000</ele>
        <time>2010-06-18T13:49:28Z</time>
      </trkpt>
      <trkpt lat="48.7228120" lon="8.0020120">
        <ele>132.8000000</ele>
        <time>2010-06-18T13:49:46Z</time>
      </trkpt>
      <trkpt lat="48.7223890" lon="8.0017140">
        <ele>133.2800000</ele>
        <time>2010-06-18T13:49:54Z</time>
      </trkpt>
      <trkpt lat="48.7220350" lon="8.0011570">
        <ele>132.8000000</ele>
        <time>2010-06-18T13:50:03Z</time>
      </trkpt>
      <trkpt lat="48.7219440" lon="8.0010550">
        <ele>133.2800000</ele>
        <time>2010-06-18T13:50:05Z</time>
      </trkpt>
      <trkpt lat="48.7216280" lon="8.0007260">
        <ele>133.2800000</ele>
        <time>2010-06-18T13:50:13Z</time>
      </trkpt>
      <trkpt lat="48.7214260" lon="8.0006870">
        <ele>133.2800000</ele>
        <time>2010-06-18T13:50:17Z</time>
      </trkpt>
      <trkpt lat="48.7207650" lon="8.0003490">
        <ele>135.2000000</ele>
        <time>2010-06-18T13:50:29Z</time>
      </trkpt>
      <trkpt lat="48.7205250" lon="8.0001260">
        <ele>134.7200000</ele>
        <time>2010-06-18T13:50:34Z</time>
      </trkpt>
      <trkpt lat="48.7204120" lon="7.9999590">
        <ele>134.7200000</ele>
        <time>2010-06-18T13:50:37Z</time>
      </trkpt>
      <trkpt lat="48.7197420" lon="7.9993020">
        <ele>134.2400000</ele>
        <time>2010-06-18T13:50:52Z</time>
      </trkpt>
      <trkpt lat="48.7194020" lon="7.9989410">
        <ele>135.2000000</ele>
        <time>2010-06-18T13:51:00Z</time>
      </trkpt>
      <trkpt lat="48.7192710" lon="7.9988120">
        <ele>134.7200000</ele>
        <time>2010-06-18T13:51:03Z</time>
      </trkpt>
      <trkpt lat="48.7184160" lon="7.9981250">
        <ele>134.7200000</ele>
        <time>2010-06-18T13:51:20Z</time>
      </trkpt>
      <trkpt lat="48.7175590" lon="7.9976480">
        <ele>134.7200000</ele>
        <time>2010-06-18T13:51:36Z</time>
      </trkpt>
      <trkpt lat="48.7166810" lon="7.9972540">
        <ele>135.2000000</ele>
        <time>2010-06-18T13:51:53Z</time>
      </trkpt>
      <trkpt lat="48.7156830" lon="7.9969070">
        <ele>134.7200000</ele>
        <time>2010-06-18T13:52:11Z</time>
      </trkpt>
      <trkpt lat="48.7147630" lon="7.9966990">
        <ele>134.2400000</ele>
        <time>2010-06-18T13:52:28Z</time>
      </trkpt>
      <trkpt lat="48.7137620" lon="7.9964590">
        <ele>135.2000000</ele>
        <time>2010-06-18T13:52:46Z</time>
      </trkpt>
      <trkpt lat="48.7136640" lon="7.9963890">
        <ele>134.7200000</ele>
        <time>2010-06-18T13:52:48Z</time>
      </trkpt>
      <trkpt lat="48.7133970" lon="7.9962790">
        <ele>135.2000000</ele>
        <time>2010-06-18T13:52:53Z</time>
      </trkpt>
      <trkpt lat="48.7132420" lon="7.9961920">
        <ele>134.7200000</ele>
        <time>2010-06-18T13:52:56Z</time>
      </trkpt>
      <trkpt lat="48.7123630" lon="7.9955370">
        <ele>135.6800000</ele>
        <time>2010-06-18T13:53:14Z</time>
      </trkpt>
      <trkpt lat="48.7115220" lon="7.9949530">
        <ele>136.1600000</ele>
        <time>2010-06-18T13:53:32Z</time>
      </trkpt>
      <trkpt lat="48.7105760" lon="7.9941960">
        <ele>135.2000000</ele>
        <time>2010-06-18T13:53:52Z</time>
      </trkpt>
      <trkpt lat="48.7098310" lon="7.9935310">
        <ele>135.6800000</ele>
        <time>2010-06-18T13:54:08Z</time>
      </trkpt>
      <trkpt lat="48.7089120" lon="7.9925210">
        <ele>135.6800000</ele>
        <time>2010-06-18T13:54:28Z</time>
      </trkpt>
      <trkpt lat="48.7081530" lon="7.9917050">
        <ele>135.2000000</ele>
        <time>2010-06-18T13:54:45Z</time>
      </trkpt>
      <trkpt lat="48.7081080" lon="7.9916650">
        <ele>135.2000000</ele>
        <time>2010-06-18T13:54:46Z</time>
      </trkpt>
      <trkpt lat="48.7079700" lon="7.9912850">
        <ele>135.6800000</ele>
        <time>2010-06-18T13:54:52Z</time>
      </trkpt>
      <trkpt lat="48.7077620" lon="7.9911990">
        <ele>134.7200000</ele>
        <time>2010-06-18T13:54:56Z</time>
      </trkpt>
      <trkpt lat="48.7069050" lon="7.9903640">
        <ele>135.2000000</ele>
        <time>2010-06-18T13:55:15Z</time>
      </trkpt>
      <trkpt lat="48.7061760" lon="7.9893550">
        <ele>134.7200000</ele>
        <time>2010-06-18T13:55:33Z</time>
      </trkpt>
      <trkpt lat="48.7056240" lon="7.9881950">
        <ele>134.7200000</ele>
        <time>2010-06-18T13:55:50Z</time>
      </trkpt>
      <trkpt lat="48.7051030" lon="7.9869160">
        <ele>135.2000000</ele>
        <time>2010-06-18T13:56:08Z</time>
      </trkpt>
      <trkpt lat="48.7045550" lon="7.9860100">
        <ele>136.1600000</ele>
        <time>2010-06-18T13:56:23Z</time>
      </trkpt>
      <trkpt lat="48.7037820" lon="7.9850580">
        <ele>135.6800000</ele>
        <time>2010-06-18T13:56:41Z</time>
      </trkpt>
      <trkpt lat="48.7028900" lon="7.9840220">
        <ele>135.2000000</ele>
        <time>2010-06-18T13:57:01Z</time>
      </trkpt>
      <trkpt lat="48.7020820" lon="7.9830660">
        <ele>135.2000000</ele>
        <time>2010-06-18T13:57:20Z</time>
      </trkpt>
      <trkpt lat="48.7012700" lon="7.9821760">
        <ele>135.2000000</ele>
        <time>2010-06-18T13:57:39Z</time>
      </trkpt>
      <trkpt lat="48.7004050" lon="7.9814640">
        <ele>135.6800000</ele>
        <time>2010-06-18T13:57:58Z</time>
      </trkpt>
      <trkpt lat="48.6996780" lon="7.9809040">
        <ele>135.6800000</ele>
        <time>2010-06-18T13:58:14Z</time>
      </trkpt>
      <trkpt lat="48.6995360" lon="7.9805880">
        <ele>134.2400000</ele>
        <time>2010-06-18T13:58:19Z</time>
      </trkpt>
      <trkpt lat="48.6993550" lon="7.9791220">
        <ele>132.8000000</ele>
        <time>2010-06-18T13:58:37Z</time>
      </trkpt>
      <trkpt lat="48.6992210" lon="7.9783260">
        <ele>132.8000000</ele>
        <time>2010-06-18T13:58:48Z</time>
      </trkpt>
      <trkpt lat="48.6990920" lon="7.9780180">
        <ele>133.7600000</ele>
        <time>2010-06-18T13:58:54Z</time>
      </trkpt>
      <trkpt lat="48.6988650" lon="7.9773970">
        <ele>133.2800000</ele>
        <time>2010-06-18T13:59:04Z</time>
      </trkpt>
      <trkpt lat="48.6986610" lon="7.9772250">
        <ele>133.2800000</ele>
        <time>2010-06-18T13:59:09Z</time>
      </trkpt>
      <trkpt lat="48.6981990" lon="7.9771000">
        <ele>134.2400000</ele>
        <time>2010-06-18T13:59:19Z</time>
      </trkpt>
      <trkpt lat="48.6980390" lon="7.9768800">
        <ele>134.2400000</ele>
        <time>2010-06-18T13:59:24Z</time>
      </trkpt>
      <trkpt lat="48.6976830" lon="7.9756520">
        <ele>135.6800000</ele>
        <time>2010-06-18T13:59:43Z</time>
      </trkpt>
      <trkpt lat="48.6976080" lon="7.9749570">
        <ele>135.6800000</ele>
        <time>2010-06-18T13:59:53Z</time>
      </trkpt>
      <trkpt lat="48.6975910" lon="7.9736840">
        <ele>135.2000000</ele>
        <time>2010-06-18T14:00:11Z</time>
      </trkpt>
      <trkpt lat="48.6976020" lon="7.9734050">
        <ele>134.7200000</ele>
        <time>2010-06-18T14:00:15Z</time>
      </trkpt>
      <trkpt lat="48.6975830" lon="7.9720910">
        <ele>132.3200000</ele>
        <time>2010-06-18T14:00:32Z</time>
      </trkpt>
      <trkpt lat="48.6975860" lon="7.9720180">
        <ele>132.3200000</ele>
        <time>2010-06-18T14:00:33Z</time>
      </trkpt>
      <trkpt lat="48.6976750" lon="7.9716600">
        <ele>131.8400000</ele>
        <time>2010-06-18T14:00:43Z</time>
      </trkpt>
      <trkpt lat="48.6976890" lon="7.9716480">
        <ele>131.8400000</ele>
        <time>2010-06-18T14:01:46Z</time>
      </trkpt>
      <trkpt lat="48.6976920" lon="7.9716390">
        <ele>131.8400000</ele>
        <time>2010-06-18T14:02:55Z</time>
      </trkpt>
      <trkpt lat="48.6977190" lon="7.9716110">
        <ele>131.8400000</ele>
        <time>2010-06-18T14:03:12Z</time>
      </trkpt>
      <trkpt lat="48.6978650" lon="7.9714550">
        <ele>131.8400000</ele>
        <time>2010-06-18T14:04:22Z</time>
      </trkpt>
      <trkpt lat="48.6980730" lon="7.9714260">
        <ele>132.3200000</ele>
        <time>2010-06-18T14:04:32Z</time>
      </trkpt>
      <trkpt lat="48.6980730" lon="7.9714260">
        <ele>132.3200000</ele>
        <time>2010-06-18T14:04:40Z</time>
      </trkpt>
      <trkpt lat="48.6979990" lon="7.9712250">
        <ele>131.8400000</ele>
        <time>2010-06-18T14:04:48Z</time>
      </trkpt>
      <trkpt lat="48.6980220" lon="7.9711760">
        <ele>130.8800000</ele>
        <time>2010-06-18T14:04:49Z</time>
      </trkpt>
      <trkpt lat="48.6981290" lon="7.9704290">
        <ele>132.3200000</ele>
        <time>2010-06-18T14:05:02Z</time>
      </trkpt>
      <trkpt lat="48.6980920" lon="7.9692870">
        <ele>131.8400000</ele>
        <time>2010-06-18T14:05:19Z</time>
      </trkpt>
      <trkpt lat="48.6977890" lon="7.9681620">
        <ele>132.3200000</ele>
        <time>2010-06-18T14:05:34Z</time>
      </trkpt>
      <trkpt lat="48.6976390" lon="7.9668970">
        <ele>132.3200000</ele>
        <time>2010-06-18T14:05:50Z</time>
      </trkpt>
      <trkpt lat="48.6976320" lon="7.9665020">
        <ele>132.3200000</ele>
        <time>2010-06-18T14:05:55Z</time>
      </trkpt>
      <trkpt lat="48.6976180" lon="7.9663560">
        <ele>133.7600000</ele>
        <time>2010-06-18T14:05:57Z</time>
      </trkpt>
      <trkpt lat="48.6975150" lon="7.9660710">
        <ele>134.7200000</ele>
        <time>2010-06-18T14:06:02Z</time>
      </trkpt>
      <trkpt lat="48.6970740" lon="7.9654540">
        <ele>136.1600000</ele>
        <time>2010-06-18T14:06:18Z</time>
      </trkpt>
      <trkpt lat="48.6969400" lon="7.9652560">
        <ele>135.2000000</ele>
        <time>2010-06-18T14:06:22Z</time>
      </trkpt>
      <trkpt lat="48.6965000" lon="7.9639620">
        <ele>133.2800000</ele>
        <time>2010-06-18T14:06:38Z</time>
      </trkpt>
      <trkpt lat="48.6960760" lon="7.9627650">
        <ele>133.7600000</ele>
        <time>2010-06-18T14:06:54Z</time>
      </trkpt>
      <trkpt lat="48.6956140" lon="7.9614280">
        <ele>133.7600000</ele>
        <time>2010-06-18T14:07:13Z</time>
      </trkpt>
      <trkpt lat="48.6952360" lon="7.9599230">
        <ele>133.7600000</ele>
        <time>2010-06-18T14:07:34Z</time>
      </trkpt>
      <trkpt lat="48.6949340" lon="7.9583990">
        <ele>133.7600000</ele>
        <time>2010-06-18T14:07:55Z</time>
      </trkpt>
      <trkpt lat="48.6947450" lon="7.9571770">
        <ele>132.8000000</ele>
        <time>2010-06-18T14:08:12Z</time>
      </trkpt>
      <trkpt lat="48.6945490" lon="7.9560100">
        <ele>133.2800000</ele>
        <time>2010-06-18T14:08:28Z</time>
      </trkpt>
      <trkpt lat="48.6943210" lon="7.9548710">
        <ele>132.8000000</ele>
        <time>2010-06-18T14:08:45Z</time>
      </trkpt>
      <trkpt lat="48.6943000" lon="7.9548300">
        <ele>132.3200000</ele>
        <time>2010-06-18T14:08:49Z</time>
      </trkpt>
      <trkpt lat="48.6939990" lon="7.9547530">
        <ele>133.7600000</ele>
        <time>2010-06-18T14:09:02Z</time>
      </trkpt>
      <trkpt lat="48.6937720" lon="7.9546110">
        <ele>133.2800000</ele>
        <time>2010-06-18T14:09:08Z</time>
      </trkpt>
      <trkpt lat="48.6936560" lon="7.9545510">
        <ele>132.8000000</ele>
        <time>2010-06-18T14:09:11Z</time>
      </trkpt>
      <trkpt lat="48.6931570" lon="7.9545080">
        <ele>132.8000000</ele>
        <time>2010-06-18T14:09:23Z</time>
      </trkpt>
      <trkpt lat="48.6928160" lon="7.9545990">
        <ele>133.2800000</ele>
        <time>2010-06-18T14:09:30Z</time>
      </trkpt>
      <trkpt lat="48.6924380" lon="7.9546880">
        <ele>132.8000000</ele>
        <time>2010-06-18T14:09:38Z</time>
      </trkpt>
      <trkpt lat="48.6920540" lon="7.9546540">
        <ele>132.8000000</ele>
        <time>2010-06-18T14:09:45Z</time>
      </trkpt>
      <trkpt lat="48.6918350" lon="7.9546120">
        <ele>132.8000000</ele>
        <time>2010-06-18T14:09:49Z</time>
      </trkpt>
      <trkpt lat="48.6915680" lon="7.9544820">
        <ele>132.8000000</ele>
        <time>2010-06-18T14:09:54Z</time>
      </trkpt>
      <trkpt lat="48.6913540" lon="7.9542930">
        <ele>133.2800000</ele>
        <time>2010-06-18T14:09:59Z</time>
      </trkpt>
      <trkpt lat="48.6910970" lon="7.9542490">
        <ele>133.2800000</ele>
        <time>2010-06-18T14:10:04Z</time>
      </trkpt>
      <trkpt lat="48.6909450" lon="7.9543060">
        <ele>132.3200000</ele>
        <time>2010-06-18T14:10:07Z</time>
      </trkpt>
      <trkpt lat="48.6907810" lon="7.9544520">
        <ele>132.3200000</ele>
        <time>2010-06-18T14:10:11Z</time>
      </trkpt>
      <trkpt lat="48.6901940" lon="7.9555240">
        <ele>131.8400000</ele>
        <time>2010-06-18T14:10:28Z</time>
      </trkpt>
      <trkpt lat="48.6899830" lon="7.9558150">
        <ele>131.8400000</ele>
        <time>2010-06-18T14:10:33Z</time>
      </trkpt>
      <trkpt lat="48.6897420" lon="7.9560520">
        <ele>132.3200000</ele>
        <time>2010-06-18T14:10:38Z</time>
      </trkpt>
      <trkpt lat="48.6890450" lon="7.9570040">
        <ele>131.3600000</ele>
        <time>2010-06-18T14:10:55Z</time>
      </trkpt>
      <trkpt lat="48.6884130" lon="7.9578890">
        <ele>131.8400000</ele>
        <time>2010-06-18T14:11:11Z</time>
      </trkpt>
      <trkpt lat="48.6876540" lon="7.9589520">
        <ele>132.3200000</ele>
        <time>2010-06-18T14:11:30Z</time>
      </trkpt>
      <trkpt lat="48.6870720" lon="7.9597730">
        <ele>131.8400000</ele>
        <time>2010-06-18T14:11:45Z</time>
      </trkpt>
      <trkpt lat="48.6865040" lon="7.9605560">
        <ele>132.3200000</ele>
        <time>2010-06-18T14:12:00Z</time>
      </trkpt>
      <trkpt lat="48.6864390" lon="7.9606520">
        <ele>132.3200000</ele>
        <time>2010-06-18T14:12:02Z</time>
      </trkpt>
      <trkpt lat="48.6863290" lon="7.9607030">
        <ele>132.3200000</ele>
        <time>2010-06-18T14:12:06Z</time>
      </trkpt>
      <trkpt lat="48.6859330" lon="7.9600310">
        <ele>131.3600000</ele>
        <time>2010-06-18T14:12:20Z</time>
      </trkpt>
      <trkpt lat="48.6854630" lon="7.9592480">
        <ele>131.8400000</ele>
        <time>2010-06-18T14:12:34Z</time>
      </trkpt>
      <trkpt lat="48.6848420" lon="7.9584790">
        <ele>131.8400000</ele>
        <time>2010-06-18T14:12:49Z</time>
      </trkpt>
      <trkpt lat="48.6838200" lon="7.9579650">
        <ele>131.3600000</ele>
        <time>2010-06-18T14:13:08Z</time>
      </trkpt>
      <trkpt lat="48.6828650" lon="7.9574880">
        <ele>132.8000000</ele>
        <time>2010-06-18T14:13:24Z</time>
      </trkpt>
      <trkpt lat="48.6818580" lon="7.9569940">
        <ele>132.3200000</ele>
        <time>2010-06-18T14:13:43Z</time>
      </trkpt>
      <trkpt lat="48.6808270" lon="7.9564690">
        <ele>132.8000000</ele>
        <time>2010-06-18T14:14:03Z</time>
      </trkpt>
      <trkpt lat="48.6797510" lon="7.9559310">
        <ele>133.2800000</ele>
        <time>2010-06-18T14:14:24Z</time>
      </trkpt>
      <trkpt lat="48.6796100" lon="7.9558580">
        <ele>133.7600000</ele>
        <time>2010-06-18T14:14:27Z</time>
      </trkpt>
      <trkpt lat="48.6794550" lon="7.9556440">
        <ele>134.7200000</ele>
        <time>2010-06-18T14:14:32Z</time>
      </trkpt>
      <trkpt lat="48.6792480" lon="7.9544760">
        <ele>135.6800000</ele>
        <time>2010-06-18T14:14:50Z</time>
      </trkpt>
      <trkpt lat="48.6790740" lon="7.9532790">
        <ele>136.1600000</ele>
        <time>2010-06-18T14:15:07Z</time>
      </trkpt>
      <trkpt lat="48.6786930" lon="7.9519900">
        <ele>137.6100000</ele>
        <time>2010-06-18T14:15:24Z</time>
      </trkpt>
      <trkpt lat="48.6782100" lon="7.9508590">
        <ele>136.6400000</ele>
        <time>2010-06-18T14:15:40Z</time>
      </trkpt>
      <trkpt lat="48.6777490" lon="7.9501470">
        <ele>136.6400000</ele>
        <time>2010-06-18T14:15:55Z</time>
      </trkpt>
      <trkpt lat="48.6770780" lon="7.9493380">
        <ele>136.1600000</ele>
        <time>2010-06-18T14:16:12Z</time>
      </trkpt>
      <trkpt lat="48.6764640" lon="7.9486250">
        <ele>136.6400000</ele>
        <time>2010-06-18T14:16:28Z</time>
      </trkpt>
      <trkpt lat="48.6757710" lon="7.9475370">
        <ele>136.6400000</ele>
        <time>2010-06-18T14:16:46Z</time>
      </trkpt>
      <trkpt lat="48.6750180" lon="7.9463300">
        <ele>136.6400000</ele>
        <time>2010-06-18T14:17:06Z</time>
      </trkpt>
      <trkpt lat="48.6744320" lon="7.9454970">
        <ele>136.6400000</ele>
        <time>2010-06-18T14:17:21Z</time>
      </trkpt>
      <trkpt lat="48.6737980" lon="7.9452360">
        <ele>134.7200000</ele>
        <time>2010-06-18T14:17:33Z</time>
      </trkpt>
      <trkpt lat="48.6735670" lon="7.9448370">
        <ele>135.6800000</ele>
        <time>2010-06-18T14:17:40Z</time>
      </trkpt>
      <trkpt lat="48.6732520" lon="7.9434350">
        <ele>135.6800000</ele>
        <time>2010-06-18T14:17:58Z</time>
      </trkpt>
      <trkpt lat="48.6727050" lon="7.9420610">
        <ele>135.2000000</ele>
        <time>2010-06-18T14:18:17Z</time>
      </trkpt>
      <trkpt lat="48.6722740" lon="7.9410260">
        <ele>135.2000000</ele>
        <time>2010-06-18T14:18:32Z</time>
      </trkpt>
      <trkpt lat="48.6721900" lon="7.9404870">
        <ele>135.2000000</ele>
        <time>2010-06-18T14:18:41Z</time>
      </trkpt>
      <trkpt lat="48.6718250" lon="7.9400240">
        <ele>135.2000000</ele>
        <time>2010-06-18T14:18:51Z</time>
      </trkpt>
      <trkpt lat="48.6714790" lon="7.9394290">
        <ele>135.6800000</ele>
        <time>2010-06-18T14:19:02Z</time>
      </trkpt>
      <trkpt lat="48.6714220" lon="7.9393130">
        <ele>135.6800000</ele>
        <time>2010-06-18T14:19:04Z</time>
      </trkpt>
      <trkpt lat="48.6710560" lon="7.9383570">
        <ele>137.1300000</ele>
        <time>2010-06-18T14:19:18Z</time>
      </trkpt>
      <trkpt lat="48.6708240" lon="7.9370810">
        <ele>136.1600000</ele>
        <time>2010-06-18T14:19:34Z</time>
      </trkpt>
      <trkpt lat="48.6708160" lon="7.9370150">
        <ele>136.1600000</ele>
        <time>2010-06-18T14:19:35Z</time>
      </trkpt>
      <trkpt lat="48.6707000" lon="7.9366830">
        <ele>136.1600000</ele>
        <time>2010-06-18T14:19:45Z</time>
      </trkpt>
      <trkpt lat="48.6705970" lon="7.9366200">
        <ele>136.1600000</ele>
        <time>2010-06-18T14:19:48Z</time>
      </trkpt>
      <trkpt lat="48.6704430" lon="7.9364840">
        <ele>135.2000000</ele>
        <time>2010-06-18T14:19:52Z</time>
      </trkpt>
      <trkpt lat="48.6697070" lon="7.9357830">
        <ele>135.2000000</ele>
        <time>2010-06-18T14:20:09Z</time>
      </trkpt>
      <trkpt lat="48.6691360" lon="7.9352280">
        <ele>135.2000000</ele>
        <time>2010-06-18T14:20:22Z</time>
      </trkpt>
      <trkpt lat="48.6686590" lon="7.9352120">
        <ele>134.7200000</ele>
        <time>2010-06-18T14:20:33Z</time>
      </trkpt>
      <trkpt lat="48.6683670" lon="7.9354500">
        <ele>135.2000000</ele>
        <time>2010-06-18T14:20:40Z</time>
      </trkpt>
      <trkpt lat="48.6681410" lon="7.9355370">
        <ele>135.6800000</ele>
        <time>2010-06-18T14:20:45Z</time>
      </trkpt>
      <trkpt lat="48.6675110" lon="7.9354130">
        <ele>135.2000000</ele>
        <time>2010-06-18T14:20:58Z</time>
      </trkpt>
      <trkpt lat="48.6672850" lon="7.9353610">
        <ele>134.7200000</ele>
        <time>2010-06-18T14:21:03Z</time>
      </trkpt>
      <trkpt lat="48.6669020" lon="7.9354390">
        <ele>134.7200000</ele>
        <time>2010-06-18T14:21:11Z</time>
      </trkpt>
      <trkpt lat="48.6668080" lon="7.9354870">
        <ele>135.2000000</ele>
        <time>2010-06-18T14:21:13Z</time>
      </trkpt>
      <trkpt lat="48.6661030" lon="7.9362330">
        <ele>136.6400000</ele>
        <time>2010-06-18T14:21:30Z</time>
      </trkpt>
      <trkpt lat="48.6655670" lon="7.9369850">
        <ele>136.1600000</ele>
        <time>2010-06-18T14:21:45Z</time>
      </trkpt>
      <trkpt lat="48.6651730" lon="7.9378850">
        <ele>136.6400000</ele>
        <time>2010-06-18T14:21:59Z</time>
      </trkpt>
      <trkpt lat="48.6647040" lon="7.9388980">
        <ele>137.1300000</ele>
        <time>2010-06-18T14:22:15Z</time>
      </trkpt>
      <trkpt lat="48.6643740" lon="7.9396540">
        <ele>137.1300000</ele>
        <time>2010-06-18T14:22:30Z</time>
      </trkpt>
      <trkpt lat="48.6641860" lon="7.9396450">
        <ele>137.6100000</ele>
        <time>2010-06-18T14:22:39Z</time>
      </trkpt>
      <trkpt lat="48.6638540" lon="7.9392720">
        <ele>138.0900000</ele>
        <time>2010-06-18T14:22:49Z</time>
      </trkpt>
      <trkpt lat="48.6630910" lon="7.9384710">
        <ele>138.5700000</ele>
        <time>2010-06-18T14:23:09Z</time>
      </trkpt>
      <trkpt lat="48.6626060" lon="7.9379890">
        <ele>139.0500000</ele>
        <time>2010-06-18T14:23:21Z</time>
      </trkpt>
      <trkpt lat="48.6625380" lon="7.9378860">
        <ele>138.5700000</ele>
        <time>2010-06-18T14:23:23Z</time>
      </trkpt>
      <trkpt lat="48.6620430" lon="7.9373710">
        <ele>138.0900000</ele>
        <time>2010-06-18T14:23:36Z</time>
      </trkpt>
      <trkpt lat="48.6619730" lon="7.9371130">
        <ele>137.1300000</ele>
        <time>2010-06-18T14:23:42Z</time>
      </trkpt>
      <trkpt lat="48.6618820" lon="7.9370850">
        <ele>137.1300000</ele>
        <time>2010-06-18T14:23:44Z</time>
      </trkpt>
      <trkpt lat="48.6616140" lon="7.9368940">
        <ele>137.1300000</ele>
        <time>2010-06-18T14:23:50Z</time>
      </trkpt>
      <trkpt lat="48.6614560" lon="7.9363880">
        <ele>136.6400000</ele>
        <time>2010-06-18T14:23:58Z</time>
      </trkpt>
      <trkpt lat="48.6615420" lon="7.9360830">
        <ele>135.6800000</ele>
        <time>2010-06-18T14:24:02Z</time>
      </trkpt>
      <trkpt lat="48.6616470" lon="7.9357400">
        <ele>134.2400000</ele>
        <time>2010-06-18T14:24:08Z</time>
      </trkpt>
      <trkpt lat="48.6615320" lon="7.9356250">
        <ele>133.7600000</ele>
        <time>2010-06-18T14:24:13Z</time>
      </trkpt>
      <trkpt lat="48.6613550" lon="7.9355230">
        <ele>134.7200000</ele>
        <time>2010-06-18T14:24:17Z</time>
      </trkpt>
      <trkpt lat="48.6605870" lon="7.9352080">
        <ele>134.7200000</ele>
        <time>2010-06-18T14:24:33Z</time>
      </trkpt>
      <trkpt lat="48.6598800" lon="7.9347170">
        <ele>134.7200000</ele>
        <time>2010-06-18T14:24:47Z</time>
      </trkpt>
      <trkpt lat="48.6596010" lon="7.9345880">
        <ele>134.7200000</ele>
        <time>2010-06-18T14:24:52Z</time>
      </trkpt>
      <trkpt lat="48.6593990" lon="7.9344130">
        <ele>135.2000000</ele>
        <time>2010-06-18T14:24:56Z</time>
      </trkpt>
      <trkpt lat="48.6593110" lon="7.9343010">
        <ele>134.7200000</ele>
        <time>2010-06-18T14:24:58Z</time>
      </trkpt>
      <trkpt lat="48.6592990" lon="7.9339340">
        <ele>136.1600000</ele>
        <time>2010-06-18T14:25:03Z</time>
      </trkpt>
      <trkpt lat="48.6594120" lon="7.9336730">
        <ele>136.6400000</ele>
        <time>2010-06-18T14:25:07Z</time>
      </trkpt>
      <trkpt lat="48.6599710" lon="7.9327670">
        <ele>137.1300000</ele>
        <time>2010-06-18T14:25:23Z</time>
      </trkpt>
      <trkpt lat="48.6602870" lon="7.9322680">
        <ele>137.1300000</ele>
        <time>2010-06-18T14:25:35Z</time>
      </trkpt>
      <trkpt lat="48.6604960" lon="7.9319320">
        <ele>138.0900000</ele>
        <time>2010-06-18T14:25:46Z</time>
      </trkpt>
      <trkpt lat="48.6605800" lon="7.9318000">
        <ele>138.0900000</ele>
        <time>2010-06-18T14:25:49Z</time>
      </trkpt>
      <trkpt lat="48.6609320" lon="7.9312450">
        <ele>137.6100000</ele>
        <time>2010-06-18T14:26:05Z</time>
      </trkpt>
      <trkpt lat="48.6609450" lon="7.9312220">
        <ele>137.6100000</ele>
        <time>2010-06-18T14:26:06Z</time>
      </trkpt>
      <trkpt lat="48.6612700" lon="7.9308280">
        <ele>138.0900000</ele>
        <time>2010-06-18T14:26:18Z</time>
      </trkpt>
      <trkpt lat="48.6618780" lon="7.9301140">
        <ele>137.1300000</ele>
        <time>2010-06-18T14:26:36Z</time>
      </trkpt>
      <trkpt lat="48.6623050" lon="7.9296230">
        <ele>136.6400000</ele>
        <time>2010-06-18T14:26:47Z</time>
      </trkpt>
      <trkpt lat="48.6626300" lon="7.9287430">
        <ele>137.1300000</ele>
        <time>2010-06-18T14:27:01Z</time>
      </trkpt>
      <trkpt lat="48.6629710" lon="7.9276950">
        <ele>137.1300000</ele>
        <time>2010-06-18T14:27:18Z</time>
      </trkpt>
      <trkpt lat="48.6628440" lon="7.9275340">
        <ele>137.6100000</ele>
        <time>2010-06-18T14:27:23Z</time>
      </trkpt>
      <trkpt lat="48.6619730" lon="7.9272600">
        <ele>136.1600000</ele>
        <time>2010-06-18T14:27:42Z</time>
      </trkpt>
      <trkpt lat="48.6616420" lon="7.9271270">
        <ele>136.6400000</ele>
        <time>2010-06-18T14:27:49Z</time>
      </trkpt>
      <trkpt lat="48.6607250" lon="7.9269390">
        <ele>136.6400000</ele>
        <time>2010-06-18T14:28:08Z</time>
      </trkpt>
      <trkpt lat="48.6598110" lon="7.9265770">
        <ele>137.1300000</ele>
        <time>2010-06-18T14:28:27Z</time>
      </trkpt>
      <trkpt lat="48.6588240" lon="7.9262030">
        <ele>137.1300000</ele>
        <time>2010-06-18T14:28:47Z</time>
      </trkpt>
      <trkpt lat="48.6578890" lon="7.9260720">
        <ele>137.1300000</ele>
        <time>2010-06-18T14:29:05Z</time>
      </trkpt>
      <trkpt lat="48.6570410" lon="7.9255690">
        <ele>137.1300000</ele>
        <time>2010-06-18T14:29:23Z</time>
      </trkpt>
      <trkpt lat="48.6563200" lon="7.9247560">
        <ele>136.6400000</ele>
        <time>2010-06-18T14:29:41Z</time>
      </trkpt>
      <trkpt lat="48.6562430" lon="7.9246590">
        <ele>136.1600000</ele>
        <time>2010-06-18T14:29:43Z</time>
      </trkpt>
      <trkpt lat="48.6560730" lon="7.9246010">
        <ele>136.1600000</ele>
        <time>2010-06-18T14:29:47Z</time>
      </trkpt>
      <trkpt lat="48.6553220" lon="7.9250200">
        <ele>136.1600000</ele>
        <time>2010-06-18T14:30:03Z</time>
      </trkpt>
      <trkpt lat="48.6551830" lon="7.9250850">
        <ele>135.6800000</ele>
        <time>2010-06-18T14:30:06Z</time>
      </trkpt>
      <trkpt lat="48.6549970" lon="7.9250660">
        <ele>135.6800000</ele>
        <time>2010-06-18T14:30:10Z</time>
      </trkpt>
      <trkpt lat="48.6547320" lon="7.9249240">
        <ele>136.1600000</ele>
        <time>2010-06-18T14:30:16Z</time>
      </trkpt>
      <trkpt lat="48.6545240" lon="7.9249790">
        <ele>137.1300000</ele>
        <time>2010-06-18T14:30:21Z</time>
      </trkpt>
      <trkpt lat="48.6542450" lon="7.9253260">
        <ele>138.0900000</ele>
        <time>2010-06-18T14:30:33Z</time>
      </trkpt>
      <trkpt lat="48.6541850" lon="7.9258230">
        <ele>136.6400000</ele>
        <time>2010-06-18T14:30:45Z</time>
      </trkpt>
      <trkpt lat="48.6541580" lon="7.9258660">
        <ele>136.6400000</ele>
        <time>2010-06-18T14:30:46Z</time>
      </trkpt>
      <trkpt lat="48.6538900" lon="7.9260190">
        <ele>137.1300000</ele>
        <time>2010-06-18T14:30:52Z</time>
      </trkpt>
      <trkpt lat="48.6533940" lon="7.9264970">
        <ele>137.1300000</ele>
        <time>2010-06-18T14:31:07Z</time>
      </trkpt>
      <trkpt lat="48.6533580" lon="7.9265390">
        <ele>136.6400000</ele>
        <time>2010-06-18T14:31:18Z</time>
      </trkpt>
      <trkpt lat="48.6533580" lon="7.9265390">
        <ele>138.0900000</ele>
        <time>2010-06-18T14:31:22Z</time>
      </trkpt>
      <trkpt lat="48.6532170" lon="7.9264430">
        <ele>136.6400000</ele>
        <time>2010-06-18T14:31:28Z</time>
      </trkpt>
      <trkpt lat="48.6525970" lon="7.9255640">
        <ele>137.6100000</ele>
        <time>2010-06-18T14:31:46Z</time>
      </trkpt>
      <trkpt lat="48.6524890" lon="7.9253110">
        <ele>137.6100000</ele>
        <time>2010-06-18T14:31:50Z</time>
      </trkpt>
      <trkpt lat="48.6522070" lon="7.9244610">
        <ele>138.0900000</ele>
        <time>2010-06-18T14:32:02Z</time>
      </trkpt>
      <trkpt lat="48.6515190" lon="7.9234060">
        <ele>137.6100000</ele>
        <time>2010-06-18T14:32:21Z</time>
      </trkpt>
      <trkpt lat="48.6510880" lon="7.9222330">
        <ele>137.6100000</ele>
        <time>2010-06-18T14:32:37Z</time>
      </trkpt>
      <trkpt lat="48.6509270" lon="7.9217120">
        <ele>138.0900000</ele>
        <time>2010-06-18T14:32:44Z</time>
      </trkpt>
      <trkpt lat="48.6508750" lon="7.9213280">
        <ele>138.0900000</ele>
        <time>2010-06-18T14:32:49Z</time>
      </trkpt>
      <trkpt lat="48.6504190" lon="7.9197960">
        <ele>138.0900000</ele>
        <time>2010-06-18T14:33:10Z</time>
      </trkpt>
      <trkpt lat="48.6499360" lon="7.9182830">
        <ele>137.6100000</ele>
        <time>2010-06-18T14:33:30Z</time>
      </trkpt>
      <trkpt lat="48.6494050" lon="7.9171580">
        <ele>137.1300000</ele>
        <time>2010-06-18T14:33:47Z</time>
      </trkpt>
      <trkpt lat="48.6487250" lon="7.9160340">
        <ele>138.0900000</ele>
        <time>2010-06-18T14:34:05Z</time>
      </trkpt>
      <trkpt lat="48.6479720" lon="7.9147860">
        <ele>137.6100000</ele>
        <time>2010-06-18T14:34:25Z</time>
      </trkpt>
      <trkpt lat="48.6472940" lon="7.9135600">
        <ele>137.6100000</ele>
        <time>2010-06-18T14:34:44Z</time>
      </trkpt>
      <trkpt lat="48.6465260" lon="7.9121540">
        <ele>137.6100000</ele>
        <time>2010-06-18T14:35:06Z</time>
      </trkpt>
      <trkpt lat="48.6458000" lon="7.9110560">
        <ele>138.0900000</ele>
        <time>2010-06-18T14:35:26Z</time>
      </trkpt>
      <trkpt lat="48.6453460" lon="7.9106130">
        <ele>138.5700000</ele>
        <time>2010-06-18T14:35:37Z</time>
      </trkpt>
      <trkpt lat="48.6445500" lon="7.9100250">
        <ele>137.6100000</ele>
        <time>2010-06-18T14:35:55Z</time>
      </trkpt>
      <trkpt lat="48.6439800" lon="7.9096180">
        <ele>138.0900000</ele>
        <time>2010-06-18T14:36:08Z</time>
      </trkpt>
      <trkpt lat="48.6432310" lon="7.9090970">
        <ele>138.0900000</ele>
        <time>2010-06-18T14:36:26Z</time>
      </trkpt>
      <trkpt lat="48.6424630" lon="7.9084720">
        <ele>137.6100000</ele>
        <time>2010-06-18T14:36:45Z</time>
      </trkpt>
      <trkpt lat="48.6424230" lon="7.9084430">
        <ele>137.1300000</ele>
        <time>2010-06-18T14:36:46Z</time>
      </trkpt>
      <trkpt lat="48.6422380" lon="7.9079460">
        <ele>137.6100000</ele>
        <time>2010-06-18T14:36:55Z</time>
      </trkpt>
      <trkpt lat="48.6422530" lon="7.9078040">
        <ele>137.6100000</ele>
        <time>2010-06-18T14:36:57Z</time>
      </trkpt>
      <trkpt lat="48.6421340" lon="7.9076300">
        <ele>138.0900000</ele>
        <time>2010-06-18T14:37:03Z</time>
      </trkpt>
      <trkpt lat="48.6421080" lon="7.9076840">
        <ele>137.6100000</ele>
        <time>2010-06-18T14:37:04Z</time>
      </trkpt>
      <trkpt lat="48.6420540" lon="7.9078810">
        <ele>137.6100000</ele>
        <time>2010-06-18T14:37:07Z</time>
      </trkpt>
      <trkpt lat="48.6418170" lon="7.9080320">
        <ele>138.0900000</ele>
        <time>2010-06-18T14:37:13Z</time>
      </trkpt>
      <trkpt lat="48.6409270" lon="7.9077860">
        <ele>138.5700000</ele>
        <time>2010-06-18T14:37:32Z</time>
      </trkpt>
      <trkpt lat="48.6402200" lon="7.9078530">
        <ele>138.0900000</ele>
        <time>2010-06-18T14:37:47Z</time>
      </trkpt>
      <trkpt lat="48.6400870" lon="7.9079220">
        <ele>138.5700000</ele>
        <time>2010-06-18T14:37:51Z</time>
      </trkpt>
      <trkpt lat="48.6399150" lon="7.9079510">
        <ele>138.5700000</ele>
        <time>2010-06-18T14:37:55Z</time>
      </trkpt>
      <trkpt lat="48.6392250" lon="7.9079000">
        <ele>138.5700000</ele>
        <time>2010-06-18T14:38:09Z</time>
      </trkpt>
      <trkpt lat="48.6387250" lon="7.9078120">
        <ele>138.0900000</ele>
        <time>2010-06-18T14:38:19Z</time>
      </trkpt>
      <trkpt lat="48.6381550" lon="7.9074490">
        <ele>138.5700000</ele>
        <time>2010-06-18T14:38:31Z</time>
      </trkpt>
      <trkpt lat="48.6374380" lon="7.9062320">
        <ele>138.0900000</ele>
        <time>2010-06-18T14:38:51Z</time>
      </trkpt>
      <trkpt lat="48.6372490" lon="7.9060640">
        <ele>137.6100000</ele>
        <time>2010-06-18T14:38:57Z</time>
      </trkpt>
      <trkpt lat="48.6369910" lon="7.9058690">
        <ele>137.6100000</ele>
        <time>2010-06-18T14:39:06Z</time>
      </trkpt>
      <trkpt lat="48.6367810" lon="7.9061000">
        <ele>138.0900000</ele>
        <time>2010-06-18T14:39:14Z</time>
      </trkpt>
      <trkpt lat="48.6366890" lon="7.9058640">
        <ele>138.0900000</ele>
        <time>2010-06-18T14:39:22Z</time>
      </trkpt>
      <trkpt lat="48.6369190" lon="7.9052990">
        <ele>138.0900000</ele>
        <time>2010-06-18T14:39:34Z</time>
      </trkpt>
      <trkpt lat="48.6366260" lon="7.9046370">
        <ele>138.5700000</ele>
        <time>2010-06-18T14:39:46Z</time>
      </trkpt>
      <trkpt lat="48.6364480" lon="7.9043970">
        <ele>138.5700000</ele>
        <time>2010-06-18T14:39:51Z</time>
      </trkpt>
      <trkpt lat="48.6357390" lon="7.9037760">
        <ele>138.0900000</ele>
        <time>2010-06-18T14:40:07Z</time>
      </trkpt>
      <trkpt lat="48.6349170" lon="7.9031580">
        <ele>138.5700000</ele>
        <time>2010-06-18T14:40:25Z</time>
      </trkpt>
      <trkpt lat="48.6341600" lon="7.9025760">
        <ele>139.5300000</ele>
        <time>2010-06-18T14:40:42Z</time>
      </trkpt>
      <trkpt lat="48.6332100" lon="7.9018730">
        <ele>139.5300000</ele>
        <time>2010-06-18T14:41:03Z</time>
      </trkpt>
      <trkpt lat="48.6323500" lon="7.9013350">
        <ele>139.5300000</ele>
        <time>2010-06-18T14:41:21Z</time>
      </trkpt>
      <trkpt lat="48.6314760" lon="7.9008890">
        <ele>139.0500000</ele>
        <time>2010-06-18T14:41:39Z</time>
      </trkpt>
      <trkpt lat="48.6306270" lon="7.9002570">
        <ele>139.5300000</ele>
        <time>2010-06-18T14:41:58Z</time>
      </trkpt>
      <trkpt lat="48.6298800" lon="7.8996760">
        <ele>140.0100000</ele>
        <time>2010-06-18T14:42:15Z</time>
      </trkpt>
      <trkpt lat="48.6291710" lon="7.8992800">
        <ele>139.5300000</ele>
        <time>2010-06-18T14:42:30Z</time>
      </trkpt>
      <trkpt lat="48.6281370" lon="7.8987290">
        <ele>139.5300000</ele>
        <time>2010-06-18T14:42:52Z</time>
      </trkpt>
      <trkpt lat="48.6275280" lon="7.8982240">
        <ele>140.0100000</ele>
        <time>2010-06-18T14:43:07Z</time>
      </trkpt>
      <trkpt lat="48.6272860" lon="7.8977550">
        <ele>140.0100000</ele>
        <time>2010-06-18T14:43:16Z</time>
      </trkpt>
      <trkpt lat="48.6272520" lon="7.8977020">
        <ele>140.0100000</ele>
        <time>2010-06-18T14:43:17Z</time>
      </trkpt>
      <trkpt lat="48.6266470" lon="7.8964920">
        <ele>138.0900000</ele>
        <time>2010-06-18T14:43:35Z</time>
      </trkpt>
      <trkpt lat="48.6262230" lon="7.8953430">
        <ele>138.0900000</ele>
        <time>2010-06-18T14:43:51Z</time>
      </trkpt>
      <trkpt lat="48.6261510" lon="7.8952490">
        <ele>138.0900000</ele>
        <time>2010-06-18T14:43:53Z</time>
      </trkpt>
      <trkpt lat="48.6259250" lon="7.8950730">
        <ele>138.5700000</ele>
        <time>2010-06-18T14:44:04Z</time>
      </trkpt>
      <trkpt lat="48.6259260" lon="7.8950870">
        <ele>139.0500000</ele>
        <time>2010-06-18T14:45:34Z</time>
      </trkpt>
      <trkpt lat="48.6259180" lon="7.8950910">
        <ele>139.0500000</ele>
        <time>2010-06-18T14:45:43Z</time>
      </trkpt>
      <trkpt lat="48.6258250" lon="7.8950590">
        <ele>138.5700000</ele>
        <time>2010-06-18T14:45:48Z</time>
      </trkpt>
      <trkpt lat="48.6255100" lon="7.8947970">
        <ele>138.0900000</ele>
        <time>2010-06-18T14:45:58Z</time>
      </trkpt>
      <trkpt lat="48.6250910" lon="7.8944140">
        <ele>138.0900000</ele>
        <time>2010-06-18T14:46:09Z</time>
      </trkpt>
      <trkpt lat="48.6243300" lon="7.8937990">
        <ele>138.0900000</ele>
        <time>2010-06-18T14:46:27Z</time>
      </trkpt>
      <trkpt lat="48.6240020" lon="7.8935730">
        <ele>138.0900000</ele>
        <time>2010-06-18T14:46:34Z</time>
      </trkpt>
      <trkpt lat="48.6236130" lon="7.8930620">
        <ele>138.0900000</ele>
        <time>2010-06-18T14:46:44Z</time>
      </trkpt>
      <trkpt lat="48.6234860" lon="7.8927090">
        <ele>138.5700000</ele>
        <time>2010-06-18T14:46:49Z</time>
      </trkpt>
      <trkpt lat="48.6228600" lon="7.8920820">
        <ele>139.0500000</ele>
        <time>2010-06-18T14:47:04Z</time>
      </trkpt>
      <trkpt lat="48.6221470" lon="7.8919330">
        <ele>138.5700000</ele>
        <time>2010-06-18T14:47:17Z</time>
      </trkpt>
      <trkpt lat="48.6219280" lon="7.8919780">
        <ele>138.5700000</ele>
        <time>2010-06-18T14:47:21Z</time>
      </trkpt>
      <trkpt lat="48.6213960" lon="7.8922050">
        <ele>138.5700000</ele>
        <time>2010-06-18T14:47:31Z</time>
      </trkpt>
      <trkpt lat="48.6208010" lon="7.8924440">
        <ele>139.5300000</ele>
        <time>2010-06-18T14:47:43Z</time>
      </trkpt>
      <trkpt lat="48.6205070" lon="7.8926020">
        <ele>139.5300000</ele>
        <time>2010-06-18T14:47:49Z</time>
      </trkpt>
      <trkpt lat="48.6201990" lon="7.8926790">
        <ele>139.0500000</ele>
        <time>2010-06-18T14:47:55Z</time>
      </trkpt>
      <trkpt lat="48.6197820" lon="7.8927030">
        <ele>139.5300000</ele>
        <time>2010-06-18T14:48:03Z</time>
      </trkpt>
      <trkpt lat="48.6193730" lon="7.8924840">
        <ele>140.4900000</ele>
        <time>2010-06-18T14:48:12Z</time>
      </trkpt>
      <trkpt lat="48.6191660" lon="7.8922850">
        <ele>140.4900000</ele>
        <time>2010-06-18T14:48:17Z</time>
      </trkpt>
      <trkpt lat="48.6190740" lon="7.8921240">
        <ele>140.4900000</ele>
        <time>2010-06-18T14:48:20Z</time>
      </trkpt>
      <trkpt lat="48.6190100" lon="7.8920070">
        <ele>140.4900000</ele>
        <time>2010-06-18T14:48:22Z</time>
      </trkpt>
      <trkpt lat="48.6185880" lon="7.8911910">
        <ele>140.4900000</ele>
        <time>2010-06-18T14:48:38Z</time>
      </trkpt>
      <trkpt lat="48.6182010" lon="7.8908710">
        <ele>141.4500000</ele>
        <time>2010-06-18T14:48:49Z</time>
      </trkpt>
      <trkpt lat="48.6175670" lon="7.8905520">
        <ele>141.4500000</ele>
        <time>2010-06-18T14:49:02Z</time>
      </trkpt>
      <trkpt lat="48.6166940" lon="7.8902050">
        <ele>141.4500000</ele>
        <time>2010-06-18T14:49:19Z</time>
      </trkpt>
      <trkpt lat="48.6166430" lon="7.8901850">
        <ele>141.4500000</ele>
        <time>2010-06-18T14:49:20Z</time>
      </trkpt>
      <trkpt lat="48.6164990" lon="7.8900930">
        <ele>141.4500000</ele>
        <time>2010-06-18T14:49:23Z</time>
      </trkpt>
      <trkpt lat="48.6156720" lon="7.8896830">
        <ele>140.9700000</ele>
        <time>2010-06-18T14:49:39Z</time>
      </trkpt>
      <trkpt lat="48.6147660" lon="7.8890640">
        <ele>140.4900000</ele>
        <time>2010-06-18T14:49:57Z</time>
      </trkpt>
      <trkpt lat="48.6137990" lon="7.8883420">
        <ele>140.0100000</ele>
        <time>2010-06-18T14:50:17Z</time>
      </trkpt>
      <trkpt lat="48.6136520" lon="7.8881930">
        <ele>140.4900000</ele>
        <time>2010-06-18T14:50:21Z</time>
      </trkpt>
      <trkpt lat="48.6130240" lon="7.8877840">
        <ele>140.4900000</ele>
        <time>2010-06-18T14:50:35Z</time>
      </trkpt>
      <trkpt lat="48.6121800" lon="7.8871800">
        <ele>140.4900000</ele>
        <time>2010-06-18T14:50:54Z</time>
      </trkpt>
      <trkpt lat="48.6118360" lon="7.8869240">
        <ele>140.9700000</ele>
        <time>2010-06-18T14:51:02Z</time>
      </trkpt>
      <trkpt lat="48.6116850" lon="7.8867780">
        <ele>140.9700000</ele>
        <time>2010-06-18T14:51:06Z</time>
      </trkpt>
      <trkpt lat="48.6108790" lon="7.8862860">
        <ele>140.9700000</ele>
        <time>2010-06-18T14:51:23Z</time>
      </trkpt>
      <trkpt lat="48.6101070" lon="7.8858020">
        <ele>140.4900000</ele>
        <time>2010-06-18T14:51:39Z</time>
      </trkpt>
      <trkpt lat="48.6092470" lon="7.8853740">
        <ele>140.9700000</ele>
        <time>2010-06-18T14:51:57Z</time>
      </trkpt>
      <trkpt lat="48.6083850" lon="7.8849890">
        <ele>140.4900000</ele>
        <time>2010-06-18T14:52:14Z</time>
      </trkpt>
      <trkpt lat="48.6082880" lon="7.8849040">
        <ele>140.9700000</ele>
        <time>2010-06-18T14:52:16Z</time>
      </trkpt>
      <trkpt lat="48.6080160" lon="7.8847640">
        <ele>140.4900000</ele>
        <time>2010-06-18T14:52:21Z</time>
      </trkpt>
      <trkpt lat="48.6076080" lon="7.8844670">
        <ele>140.4900000</ele>
        <time>2010-06-18T14:52:29Z</time>
      </trkpt>
      <trkpt lat="48.6067970" lon="7.8836280">
        <ele>140.4900000</ele>
        <time>2010-06-18T14:52:48Z</time>
      </trkpt>
      <trkpt lat="48.6066630" lon="7.8834280">
        <ele>140.9700000</ele>
        <time>2010-06-18T14:52:52Z</time>
      </trkpt>
      <trkpt lat="48.6060710" lon="7.8828640">
        <ele>140.9700000</ele>
        <time>2010-06-18T14:53:05Z</time>
      </trkpt>
      <trkpt lat="48.6051800" lon="7.8819570">
        <ele>140.9700000</ele>
        <time>2010-06-18T14:53:27Z</time>
      </trkpt>
      <trkpt lat="48.6043130" lon="7.8812960">
        <ele>141.9300000</ele>
        <time>2010-06-18T14:53:46Z</time>
      </trkpt>
      <trkpt lat="48.6035750" lon="7.8805400">
        <ele>140.0100000</ele>
        <time>2010-06-18T14:54:03Z</time>
      </trkpt>
      <trkpt lat="48.6034310" lon="7.8802880">
        <ele>140.0100000</ele>
        <time>2010-06-18T14:54:07Z</time>
      </trkpt>
      <trkpt lat="48.6027810" lon="7.8792720">
        <ele>139.0500000</ele>
        <time>2010-06-18T14:54:24Z</time>
      </trkpt>
      <trkpt lat="48.6023360" lon="7.8784720">
        <ele>140.0100000</ele>
        <time>2010-06-18T14:54:39Z</time>
      </trkpt>
      <trkpt lat="48.6020550" lon="7.8780850">
        <ele>140.0100000</ele>
        <time>2010-06-18T14:54:48Z</time>
      </trkpt>
      <trkpt lat="48.6014960" lon="7.8770280">
        <ele>140.0100000</ele>
        <time>2010-06-18T14:55:06Z</time>
      </trkpt>
      <trkpt lat="48.6009160" lon="7.8760140">
        <ele>140.9700000</ele>
        <time>2010-06-18T14:55:24Z</time>
      </trkpt>
      <trkpt lat="48.6005460" lon="7.8749580">
        <ele>140.9700000</ele>
        <time>2010-06-18T14:55:41Z</time>
      </trkpt>
      <trkpt lat="48.6004160" lon="7.8739460">
        <ele>140.9700000</ele>
        <time>2010-06-18T14:55:55Z</time>
      </trkpt>
      <trkpt lat="48.6003170" lon="7.8734890">
        <ele>139.5300000</ele>
        <time>2010-06-18T14:56:01Z</time>
      </trkpt>
      <trkpt lat="48.6002120" lon="7.8730640">
        <ele>139.5300000</ele>
        <time>2010-06-18T14:56:09Z</time>
      </trkpt>
      <trkpt lat="48.6001830" lon="7.8730430">
        <ele>139.5300000</ele>
        <time>2010-06-18T14:56:19Z</time>
      </trkpt>
      <trkpt lat="48.6001740" lon="7.8730410">
        <ele>140.4900000</ele>
        <time>2010-06-18T14:58:17Z</time>
      </trkpt>
      <trkpt lat="48.6001670" lon="7.8730270">
        <ele>137.6100000</ele>
        <time>2010-06-18T15:21:04Z</time>
      </trkpt>
      <trkpt lat="48.6001730" lon="7.8730360">
        <ele>138.5700000</ele>
        <time>2010-06-18T15:29:20Z</time>
      </trkpt>
      <trkpt lat="48.6001750" lon="7.8730400">
        <ele>138.5700000</ele>
        <time>2010-06-18T15:29:47Z</time>
      </trkpt>
      <trkpt lat="48.6001810" lon="7.8730410">
        <ele>138.0900000</ele>
        <time>2010-06-18T15:30:02Z</time>
      </trkpt>
      <trkpt lat="48.6001810" lon="7.8730410">
        <ele>138.5700000</ele>
        <time>2010-06-18T15:30:03Z</time>
      </trkpt>
      <trkpt lat="48.6002440" lon="7.8728780">
        <ele>138.0900000</ele>
        <time>2010-06-18T15:30:09Z</time>
      </trkpt>
      <trkpt lat="48.6001240" lon="7.8718570">
        <ele>136.6400000</ele>
        <time>2010-06-18T15:30:26Z</time>
      </trkpt>
      <trkpt lat="48.5999670" lon="7.8710990">
        <ele>137.1300000</ele>
        <time>2010-06-18T15:30:40Z</time>
      </trkpt>
      <trkpt lat="48.5995900" lon="7.8706460">
        <ele>137.1300000</ele>
        <time>2010-06-18T15:30:51Z</time>
      </trkpt>
      <trkpt lat="48.5995090" lon="7.8705720">
        <ele>137.1300000</ele>
        <time>2010-06-18T15:30:53Z</time>
      </trkpt>
      <trkpt lat="48.5993880" lon="7.8704370">
        <ele>137.1300000</ele>
        <time>2010-06-18T15:30:56Z</time>
      </trkpt>
      <trkpt lat="48.5992020" lon="7.8698970">
        <ele>137.6100000</ele>
        <time>2010-06-18T15:31:04Z</time>
      </trkpt>
      <trkpt lat="48.5992480" lon="7.8690700">
        <ele>137.6100000</ele>
        <time>2010-06-18T15:31:18Z</time>
      </trkpt>
      <trkpt lat="48.5993900" lon="7.8682530">
        <ele>136.6400000</ele>
        <time>2010-06-18T15:31:32Z</time>
      </trkpt>
      <trkpt lat="48.5994310" lon="7.8679960">
        <ele>136.6400000</ele>
        <time>2010-06-18T15:31:37Z</time>
      </trkpt>
      <trkpt lat="48.5994750" lon="7.8673560">
        <ele>138.0900000</ele>
        <time>2010-06-18T15:31:51Z</time>
      </trkpt>
      <trkpt lat="48.5994710" lon="7.8667730">
        <ele>137.1300000</ele>
        <time>2010-06-18T15:32:07Z</time>
      </trkpt>
      <trkpt lat="48.5994120" lon="7.8667020">
        <ele>137.6100000</ele>
        <time>2010-06-18T15:32:12Z</time>
      </trkpt>
      <trkpt lat="48.5992750" lon="7.8667130">
        <ele>137.6100000</ele>
        <time>2010-06-18T15:32:19Z</time>
      </trkpt>
      <trkpt lat="48.5992370" lon="7.8665780">
        <ele>137.6100000</ele>
        <time>2010-06-18T15:32:23Z</time>
      </trkpt>
      <trkpt lat="48.5991970" lon="7.8660510">
        <ele>137.6100000</ele>
        <time>2010-06-18T15:32:33Z</time>
      </trkpt>
      <trkpt lat="48.5992000" lon="7.8659840">
        <ele>137.6100000</ele>
        <time>2010-06-18T15:32:34Z</time>
      </trkpt>
      <trkpt lat="48.5992480" lon="7.8657420">
        <ele>137.6100000</ele>
        <time>2010-06-18T15:32:38Z</time>
      </trkpt>
      <trkpt lat="48.5992450" lon="7.8653370">
        <ele>137.6100000</ele>
        <time>2010-06-18T15:32:45Z</time>
      </trkpt>
      <trkpt lat="48.5991090" lon="7.8649280">
        <ele>136.6400000</ele>
        <time>2010-06-18T15:32:51Z</time>
      </trkpt>
      <trkpt lat="48.5988810" lon="7.8643540">
        <ele>137.1300000</ele>
        <time>2010-06-18T15:32:59Z</time>
      </trkpt>
      <trkpt lat="48.5987700" lon="7.8641770">
        <ele>136.6400000</ele>
        <time>2010-06-18T15:33:02Z</time>
      </trkpt>
      <trkpt lat="48.5982830" lon="7.8631550">
        <ele>135.6800000</ele>
        <time>2010-06-18T15:33:18Z</time>
      </trkpt>
      <trkpt lat="48.5977240" lon="7.8619520">
        <ele>137.1300000</ele>
        <time>2010-06-18T15:33:36Z</time>
      </trkpt>
      <trkpt lat="48.5972670" lon="7.8608720">
        <ele>138.5700000</ele>
        <time>2010-06-18T15:33:53Z</time>
      </trkpt>
      <trkpt lat="48.5968110" lon="7.8598220">
        <ele>138.5700000</ele>
        <time>2010-06-18T15:34:08Z</time>
      </trkpt>
      <trkpt lat="48.5963260" lon="7.8586020">
        <ele>139.0500000</ele>
        <time>2010-06-18T15:34:27Z</time>
      </trkpt>
      <trkpt lat="48.5962110" lon="7.8583770">
        <ele>139.0500000</ele>
        <time>2010-06-18T15:34:31Z</time>
      </trkpt>
      <trkpt lat="48.5960300" lon="7.8581980">
        <ele>139.0500000</ele>
        <time>2010-06-18T15:34:36Z</time>
      </trkpt>
      <trkpt lat="48.5957810" lon="7.8577370">
        <ele>138.5700000</ele>
        <time>2010-06-18T15:34:46Z</time>
      </trkpt>
      <trkpt lat="48.5957610" lon="7.8576790">
        <ele>138.5700000</ele>
        <time>2010-06-18T15:34:47Z</time>
      </trkpt>
      <trkpt lat="48.5952290" lon="7.8568840">
        <ele>138.5700000</ele>
        <time>2010-06-18T15:35:03Z</time>
      </trkpt>
      <trkpt lat="48.5945700" lon="7.8559640">
        <ele>137.1300000</ele>
        <time>2010-06-18T15:35:20Z</time>
      </trkpt>
      <trkpt lat="48.5940500" lon="7.8548870">
        <ele>137.6100000</ele>
        <time>2010-06-18T15:35:36Z</time>
      </trkpt>
      <trkpt lat="48.5938240" lon="7.8544590">
        <ele>138.5700000</ele>
        <time>2010-06-18T15:35:43Z</time>
      </trkpt>
      <trkpt lat="48.5934110" lon="7.8535570">
        <ele>137.6100000</ele>
        <time>2010-06-18T15:35:56Z</time>
      </trkpt>
      <trkpt lat="48.5930230" lon="7.8527140">
        <ele>138.0900000</ele>
        <time>2010-06-18T15:36:09Z</time>
      </trkpt>
      <trkpt lat="48.5928300" lon="7.8525170">
        <ele>138.5700000</ele>
        <time>2010-06-18T15:36:14Z</time>
      </trkpt>
      <trkpt lat="48.5926470" lon="7.8519950">
        <ele>138.0900000</ele>
        <time>2010-06-18T15:36:23Z</time>
      </trkpt>
      <trkpt lat="48.5926260" lon="7.8519220">
        <ele>138.0900000</ele>
        <time>2010-06-18T15:36:24Z</time>
      </trkpt>
      <trkpt lat="48.5922380" lon="7.8504880">
        <ele>138.5700000</ele>
        <time>2010-06-18T15:36:43Z</time>
      </trkpt>
      <trkpt lat="48.5921780" lon="7.8501930">
        <ele>139.0500000</ele>
        <time>2010-06-18T15:36:47Z</time>
      </trkpt>
      <trkpt lat="48.5917840" lon="7.8488610">
        <ele>138.5700000</ele>
        <time>2010-06-18T15:37:05Z</time>
      </trkpt>
      <trkpt lat="48.5915080" lon="7.8478100">
        <ele>137.1300000</ele>
        <time>2010-06-18T15:37:20Z</time>
      </trkpt>
      <trkpt lat="48.5913370" lon="7.8473770">
        <ele>137.6100000</ele>
        <time>2010-06-18T15:37:27Z</time>
      </trkpt>
      <trkpt lat="48.5909400" lon="7.8464420">
        <ele>137.6100000</ele>
        <time>2010-06-18T15:37:43Z</time>
      </trkpt>
      <trkpt lat="48.5905100" lon="7.8455940">
        <ele>138.0900000</ele>
        <time>2010-06-18T15:37:58Z</time>
      </trkpt>
      <trkpt lat="48.5899530" lon="7.8446550">
        <ele>138.0900000</ele>
        <time>2010-06-18T15:38:15Z</time>
      </trkpt>
      <trkpt lat="48.5891730" lon="7.8434400">
        <ele>138.5700000</ele>
        <time>2010-06-18T15:38:38Z</time>
      </trkpt>
      <trkpt lat="48.5884860" lon="7.8423020">
        <ele>138.5700000</ele>
        <time>2010-06-18T15:38:59Z</time>
      </trkpt>
      <trkpt lat="48.5879000" lon="7.8411530">
        <ele>138.5700000</ele>
        <time>2010-06-18T15:39:18Z</time>
      </trkpt>
      <trkpt lat="48.5877000" lon="7.8407730">
        <ele>138.5700000</ele>
        <time>2010-06-18T15:39:25Z</time>
      </trkpt>
      <trkpt lat="48.5876840" lon="7.8405470">
        <ele>138.5700000</ele>
        <time>2010-06-18T15:39:28Z</time>
      </trkpt>
      <trkpt lat="48.5872950" lon="7.8388370">
        <ele>139.0500000</ele>
        <time>2010-06-18T15:39:50Z</time>
      </trkpt>
      <trkpt lat="48.5870690" lon="7.8378920">
        <ele>138.5700000</ele>
        <time>2010-06-18T15:40:03Z</time>
      </trkpt>
      <trkpt lat="48.5866750" lon="7.8364000">
        <ele>139.0500000</ele>
        <time>2010-06-18T15:40:22Z</time>
      </trkpt>
      <trkpt lat="48.5866270" lon="7.8362590">
        <ele>139.0500000</ele>
        <time>2010-06-18T15:40:24Z</time>
      </trkpt>
      <trkpt lat="48.5863250" lon="7.8350370">
        <ele>139.0500000</ele>
        <time>2010-06-18T15:40:40Z</time>
      </trkpt>
      <trkpt lat="48.5860210" lon="7.8339140">
        <ele>138.5700000</ele>
        <time>2010-06-18T15:40:55Z</time>
      </trkpt>
      <trkpt lat="48.5856130" lon="7.8323620">
        <ele>138.5700000</ele>
        <time>2010-06-18T15:41:17Z</time>
      </trkpt>
      <trkpt lat="48.5852910" lon="7.8311520">
        <ele>139.0500000</ele>
        <time>2010-06-18T15:41:34Z</time>
      </trkpt>
      <trkpt lat="48.5849140" lon="7.8298530">
        <ele>139.5300000</ele>
        <time>2010-06-18T15:41:53Z</time>
      </trkpt>
      <trkpt lat="48.5843640" lon="7.8287070">
        <ele>138.5700000</ele>
        <time>2010-06-18T15:42:11Z</time>
      </trkpt>
      <trkpt lat="48.5836530" lon="7.8278640">
        <ele>138.5700000</ele>
        <time>2010-06-18T15:42:29Z</time>
      </trkpt>
      <trkpt lat="48.5828190" lon="7.8273540">
        <ele>138.5700000</ele>
        <time>2010-06-18T15:42:47Z</time>
      </trkpt>
      <trkpt lat="48.5818660" lon="7.8272140">
        <ele>139.0500000</ele>
        <time>2010-06-18T15:43:06Z</time>
      </trkpt>
      <trkpt lat="48.5815630" lon="7.8272120">
        <ele>140.0100000</ele>
        <time>2010-06-18T15:43:12Z</time>
      </trkpt>
      <trkpt lat="48.5811880" lon="7.8274460">
        <ele>140.0100000</ele>
        <time>2010-06-18T15:43:20Z</time>
      </trkpt>
      <trkpt lat="48.5805900" lon="7.8281520">
        <ele>140.0100000</ele>
        <time>2010-06-18T15:43:34Z</time>
      </trkpt>
      <trkpt lat="48.5799010" lon="7.8281160">
        <ele>139.5300000</ele>
        <time>2010-06-18T15:43:46Z</time>
      </trkpt>
      <trkpt lat="48.5798530" lon="7.8280840">
        <ele>139.5300000</ele>
        <time>2010-06-18T15:43:47Z</time>
      </trkpt>
      <trkpt lat="48.5796240" lon="7.8278560">
        <ele>139.5300000</ele>
        <time>2010-06-18T15:43:52Z</time>
      </trkpt>
      <trkpt lat="48.5793690" lon="7.8274250">
        <ele>139.5300000</ele>
        <time>2010-06-18T15:43:59Z</time>
      </trkpt>
      <trkpt lat="48.5791870" lon="7.8272770">
        <ele>140.0100000</ele>
        <time>2010-06-18T15:44:03Z</time>
      </trkpt>
      <trkpt lat="48.5790330" lon="7.8272150">
        <ele>139.5300000</ele>
        <time>2010-06-18T15:44:06Z</time>
      </trkpt>
      <trkpt lat="48.5787300" lon="7.8271880">
        <ele>139.5300000</ele>
        <time>2010-06-18T15:44:12Z</time>
      </trkpt>
      <trkpt lat="48.5778230" lon="7.8274130">
        <ele>139.0500000</ele>
        <time>2010-06-18T15:44:30Z</time>
      </trkpt>
      <trkpt lat="48.5777770" lon="7.8274360">
        <ele>138.5700000</ele>
        <time>2010-06-18T15:44:31Z</time>
      </trkpt>
      <trkpt lat="48.5776050" lon="7.8272820">
        <ele>138.5700000</ele>
        <time>2010-06-18T15:44:36Z</time>
      </trkpt>
      <trkpt lat="48.5775770" lon="7.8269180">
        <ele>138.5700000</ele>
        <time>2010-06-18T15:44:41Z</time>
      </trkpt>
      <trkpt lat="48.5774470" lon="7.8267180">
        <ele>139.0500000</ele>
        <time>2010-06-18T15:44:46Z</time>
      </trkpt>
      <trkpt lat="48.5770330" lon="7.8266150">
        <ele>139.5300000</ele>
        <time>2010-06-18T15:44:55Z</time>
      </trkpt>
      <trkpt lat="48.5766860" lon="7.8263430">
        <ele>140.4900000</ele>
        <time>2010-06-18T15:45:03Z</time>
      </trkpt>
      <trkpt lat="48.5763330" lon="7.8260220">
        <ele>143.3700000</ele>
        <time>2010-06-18T15:45:14Z</time>
      </trkpt>
      <trkpt lat="48.5761680" lon="7.8254890">
        <ele>145.7800000</ele>
        <time>2010-06-18T15:45:26Z</time>
      </trkpt>
      <trkpt lat="48.5760170" lon="7.8246870">
        <ele>146.2600000</ele>
        <time>2010-06-18T15:45:42Z</time>
      </trkpt>
      <trkpt lat="48.5757910" lon="7.8235380">
        <ele>146.2600000</ele>
        <time>2010-06-18T15:46:00Z</time>
      </trkpt>
      <trkpt lat="48.5756700" lon="7.8228660">
        <ele>145.3000000</ele>
        <time>2010-06-18T15:46:09Z</time>
      </trkpt>
      <trkpt lat="48.5756300" lon="7.8215910">
        <ele>144.3400000</ele>
        <time>2010-06-18T15:46:23Z</time>
      </trkpt>
      <trkpt lat="48.5757830" lon="7.8198480">
        <ele>142.4100000</ele>
        <time>2010-06-18T15:46:40Z</time>
      </trkpt>
      <trkpt lat="48.5758530" lon="7.8189630">
        <ele>141.4500000</ele>
        <time>2010-06-18T15:46:49Z</time>
      </trkpt>
      <trkpt lat="48.5760200" lon="7.8173440">
        <ele>140.9700000</ele>
        <time>2010-06-18T15:47:07Z</time>
      </trkpt>
      <trkpt lat="48.5760700" lon="7.8167590">
        <ele>140.9700000</ele>
        <time>2010-06-18T15:47:14Z</time>
      </trkpt>
      <trkpt lat="48.5761380" lon="7.8165470">
        <ele>140.4900000</ele>
        <time>2010-06-18T15:47:19Z</time>
      </trkpt>
      <trkpt lat="48.5761410" lon="7.8164130">
        <ele>140.9700000</ele>
        <time>2010-06-18T15:47:29Z</time>
      </trkpt>
      <trkpt lat="48.5761410" lon="7.8164130">
        <ele>140.0100000</ele>
        <time>2010-06-18T15:47:49Z</time>
      </trkpt>
      <trkpt lat="48.5761520" lon="7.8163780">
        <ele>140.0100000</ele>
        <time>2010-06-18T15:47:52Z</time>
      </trkpt>
      <trkpt lat="48.5761750" lon="7.8159960">
        <ele>140.0100000</ele>
        <time>2010-06-18T15:48:00Z</time>
      </trkpt>
      <trkpt lat="48.5763000" lon="7.8151270">
        <ele>140.4900000</ele>
        <time>2010-06-18T15:48:12Z</time>
      </trkpt>
      <trkpt lat="48.5764660" lon="7.8140640">
        <ele>140.4900000</ele>
        <time>2010-06-18T15:48:27Z</time>
      </trkpt>
      <trkpt lat="48.5765030" lon="7.8138480">
        <ele>140.4900000</ele>
        <time>2010-06-18T15:48:30Z</time>
      </trkpt>
      <trkpt lat="48.5765610" lon="7.8136410">
        <ele>141.4500000</ele>
        <time>2010-06-18T15:48:33Z</time>
      </trkpt>
      <trkpt lat="48.5766050" lon="7.8134290">
        <ele>141.4500000</ele>
        <time>2010-06-18T15:48:36Z</time>
      </trkpt>
      <trkpt lat="48.5766560" lon="7.8132530">
        <ele>141.9300000</ele>
        <time>2010-06-18T15:48:39Z</time>
      </trkpt>
      <trkpt lat="48.5766930" lon="7.8126810">
        <ele>141.9300000</ele>
        <time>2010-06-18T15:48:49Z</time>
      </trkpt>
      <trkpt lat="48.5767200" lon="7.8125570">
        <ele>141.9300000</ele>
        <time>2010-06-18T15:48:51Z</time>
      </trkpt>
      <trkpt lat="48.5768240" lon="7.8117320">
        <ele>142.4100000</ele>
        <time>2010-06-18T15:49:06Z</time>
      </trkpt>
      <trkpt lat="48.5768330" lon="7.8116920">
        <ele>142.4100000</ele>
        <time>2010-06-18T15:49:19Z</time>
      </trkpt>
      <trkpt lat="48.5768330" lon="7.8116920">
        <ele>142.4100000</ele>
        <time>2010-06-18T15:49:42Z</time>
      </trkpt>
      <trkpt lat="48.5767870" lon="7.8114670">
        <ele>142.4100000</ele>
        <time>2010-06-18T15:49:49Z</time>
      </trkpt>
      <trkpt lat="48.5767660" lon="7.8110660">
        <ele>142.4100000</ele>
        <time>2010-06-18T15:49:55Z</time>
      </trkpt>
      <trkpt lat="48.5767560" lon="7.8098670">
        <ele>143.3700000</ele>
        <time>2010-06-18T15:50:11Z</time>
      </trkpt>
      <trkpt lat="48.5764980" lon="7.8085050">
        <ele>143.3700000</ele>
        <time>2010-06-18T15:50:29Z</time>
      </trkpt>
      <trkpt lat="48.5761760" lon="7.8074560">
        <ele>143.8500000</ele>
        <time>2010-06-18T15:50:44Z</time>
      </trkpt>
      <trkpt lat="48.5760420" lon="7.8070110">
        <ele>143.8500000</ele>
        <time>2010-06-18T15:50:51Z</time>
      </trkpt>
      <trkpt lat="48.5757320" lon="7.8059740">
        <ele>145.3000000</ele>
        <time>2010-06-18T15:51:08Z</time>
      </trkpt>
      <trkpt lat="48.5756880" lon="7.8058050">
        <ele>145.3000000</ele>
        <time>2010-06-18T15:51:11Z</time>
      </trkpt>
      <trkpt lat="48.5755110" lon="7.8055300">
        <ele>145.7800000</ele>
        <time>2010-06-18T15:51:17Z</time>
      </trkpt>
      <trkpt lat="48.5750640" lon="7.8047530">
        <ele>147.2200000</ele>
        <time>2010-06-18T15:51:34Z</time>
      </trkpt>
      <trkpt lat="48.5746670" lon="7.8041600">
        <ele>149.1400000</ele>
        <time>2010-06-18T15:51:49Z</time>
      </trkpt>
      <trkpt lat="48.5742730" lon="7.8036590">
        <ele>150.5800000</ele>
        <time>2010-06-18T15:52:03Z</time>
      </trkpt>
      <trkpt lat="48.5740860" lon="7.8029710">
        <ele>151.5400000</ele>
        <time>2010-06-18T15:52:18Z</time>
      </trkpt>
      <trkpt lat="48.5738960" lon="7.8022770">
        <ele>152.5100000</ele>
        <time>2010-06-18T15:52:32Z</time>
      </trkpt>
      <trkpt lat="48.5736670" lon="7.8014020">
        <ele>152.5100000</ele>
        <time>2010-06-18T15:52:48Z</time>
      </trkpt>
      <trkpt lat="48.5734730" lon="7.8006730">
        <ele>152.0300000</ele>
        <time>2010-06-18T15:53:00Z</time>
      </trkpt>
      <trkpt lat="48.5733900" lon="7.8003740">
        <ele>151.5400000</ele>
        <time>2010-06-18T15:53:05Z</time>
      </trkpt>
      <trkpt lat="48.5734230" lon="7.7997710">
        <ele>150.1000000</ele>
        <time>2010-06-18T15:53:17Z</time>
      </trkpt>
      <trkpt lat="48.5733610" lon="7.7995670">
        <ele>148.6600000</ele>
        <time>2010-06-18T15:53:22Z</time>
      </trkpt>
      <trkpt lat="48.5731710" lon="7.7990710">
        <ele>149.1400000</ele>
        <time>2010-06-18T15:53:32Z</time>
      </trkpt>
      <trkpt lat="48.5731210" lon="7.7988850">
        <ele>149.1400000</ele>
        <time>2010-06-18T15:53:35Z</time>
      </trkpt>
      <trkpt lat="48.5731270" lon="7.7984620">
        <ele>148.6600000</ele>
        <time>2010-06-18T15:53:43Z</time>
      </trkpt>
      <trkpt lat="48.5731250" lon="7.7984130">
        <ele>148.6600000</ele>
        <time>2010-06-18T15:53:59Z</time>
      </trkpt>
      <trkpt lat="48.5731250" lon="7.7984130">
        <ele>149.1400000</ele>
        <time>2010-06-18T15:54:15Z</time>
      </trkpt>
      <trkpt lat="48.5731250" lon="7.7984130">
        <ele>148.6600000</ele>
        <time>2010-06-18T15:54:21Z</time>
      </trkpt>
      <trkpt lat="48.5731050" lon="7.7988260">
        <ele>149.1400000</ele>
        <time>2010-06-18T15:54:34Z</time>
      </trkpt>
      <trkpt lat="48.5732900" lon="7.7996460">
        <ele>150.1000000</ele>
        <time>2010-06-18T15:54:50Z</time>
      </trkpt>
      <trkpt lat="48.5732870" lon="7.7997450">
        <ele>150.1000000</ele>
        <time>2010-06-18T15:54:52Z</time>
      </trkpt>
      <trkpt lat="48.5731820" lon="7.7998680">
        <ele>150.5800000</ele>
        <time>2010-06-18T15:55:00Z</time>
      </trkpt>
      <trkpt lat="48.5731930" lon="7.7999350">
        <ele>150.5800000</ele>
        <time>2010-06-18T15:55:04Z</time>
      </trkpt>
      <trkpt lat="48.5732150" lon="7.8000030">
        <ele>150.5800000</ele>
        <time>2010-06-18T15:55:22Z</time>
      </trkpt>
      <trkpt lat="48.5732160" lon="7.8000020">
        <ele>151.0600000</ele>
        <time>2010-06-18T15:55:48Z</time>
      </trkpt>
      <trkpt lat="48.5731340" lon="7.8000360">
        <ele>150.5800000</ele>
        <time>2010-06-18T15:55:54Z</time>
      </trkpt>
      <trkpt lat="48.5727000" lon="7.7993170">
        <ele>150.1000000</ele>
        <time>2010-06-18T15:56:10Z</time>
      </trkpt>
      <trkpt lat="48.5722700" lon="7.7984070">
        <ele>150.1000000</ele>
        <time>2010-06-18T15:56:28Z</time>
      </trkpt>
      <trkpt lat="48.5721810" lon="7.7981990">
        <ele>148.6600000</ele>
        <time>2010-06-18T15:56:32Z</time>
      </trkpt>
      <trkpt lat="48.5721290" lon="7.7980800">
        <ele>148.1800000</ele>
        <time>2010-06-18T15:56:34Z</time>
      </trkpt>
      <trkpt lat="48.5719660" lon="7.7972980">
        <ele>147.2200000</ele>
        <time>2010-06-18T15:56:45Z</time>
      </trkpt>
      <trkpt lat="48.5719300" lon="7.7971500">
        <ele>147.2200000</ele>
        <time>2010-06-18T15:56:47Z</time>
      </trkpt>
      <trkpt lat="48.5718800" lon="7.7967670">
        <ele>146.7400000</ele>
        <time>2010-06-18T15:56:52Z</time>
      </trkpt>
      <trkpt lat="48.5718800" lon="7.7966140">
        <ele>146.2600000</ele>
        <time>2010-06-18T15:56:54Z</time>
      </trkpt>
      <trkpt lat="48.5718790" lon="7.7956810">
        <ele>145.3000000</ele>
        <time>2010-06-18T15:57:07Z</time>
      </trkpt>
      <trkpt lat="48.5718570" lon="7.7952180">
        <ele>144.3400000</ele>
        <time>2010-06-18T15:57:17Z</time>
      </trkpt>
      <trkpt lat="48.5718330" lon="7.7951700">
        <ele>143.8500000</ele>
        <time>2010-06-18T15:57:29Z</time>
      </trkpt>
      <trkpt lat="48.5718300" lon="7.7951690">
        <ele>143.8500000</ele>
        <time>2010-06-18T15:58:06Z</time>
      </trkpt>
      <trkpt lat="48.5718090" lon="7.7951750">
        <ele>143.8500000</ele>
        <time>2010-06-18T15:58:18Z</time>
      </trkpt>
      <trkpt lat="48.5715670" lon="7.7953040">
        <ele>145.3000000</ele>
        <time>2010-06-18T15:58:28Z</time>
      </trkpt>
      <trkpt lat="48.5715380" lon="7.7953160">
        <ele>144.8200000</ele>
        <time>2010-06-18T15:58:29Z</time>
      </trkpt>
      <trkpt lat="48.5714020" lon="7.7953820">
        <ele>144.8200000</ele>
        <time>2010-06-18T15:58:34Z</time>
      </trkpt>
      <trkpt lat="48.5713620" lon="7.7951530">
        <ele>145.3000000</ele>
        <time>2010-06-18T15:58:42Z</time>
      </trkpt>
      <trkpt lat="48.5713080" lon="7.7950830">
        <ele>144.8200000</ele>
        <time>2010-06-18T15:58:46Z</time>
      </trkpt>
      <trkpt lat="48.5710670" lon="7.7950550">
        <ele>144.8200000</ele>
        <time>2010-06-18T15:58:58Z</time>
      </trkpt>
      <trkpt lat="48.5710180" lon="7.7950990">
        <ele>144.8200000</ele>
        <time>2010-06-18T15:59:01Z</time>
      </trkpt>
      <trkpt lat="48.5710370" lon="7.7950950">
        <ele>144.8200000</ele>
        <time>2010-06-18T15:59:18Z</time>
      </trkpt>
      <trkpt lat="48.5710380" lon="7.7950840">
        <ele>144.8200000</ele>
        <time>2010-06-18T15:59:21Z</time>
      </trkpt>
      <trkpt lat="48.5709710" lon="7.7951300">
        <ele>143.8500000</ele>
        <time>2010-06-18T15:59:28Z</time>
      </trkpt>
      <trkpt lat="48.5709230" lon="7.7951610">
        <ele>144.3400000</ele>
        <time>2010-06-18T15:59:42Z</time>
      </trkpt>
      <trkpt lat="48.5709140" lon="7.7951710">
        <ele>144.3400000</ele>
        <time>2010-06-18T16:00:05Z</time>
      </trkpt>
      <trkpt lat="48.5709060" lon="7.7954110">
        <ele>144.3400000</ele>
        <time>2010-06-18T16:00:12Z</time>
      </trkpt>
      <trkpt lat="48.5709250" lon="7.7955710">
        <ele>144.3400000</ele>
        <time>2010-06-18T16:00:16Z</time>
      </trkpt>
      <trkpt lat="48.5711970" lon="7.7955790">
        <ele>145.3000000</ele>
        <time>2010-06-18T16:00:25Z</time>
      </trkpt>
      <trkpt lat="48.5713670" lon="7.7954860">
        <ele>145.7800000</ele>
        <time>2010-06-18T16:00:29Z</time>
      </trkpt>
      <trkpt lat="48.5716370" lon="7.7953560">
        <ele>145.7800000</ele>
        <time>2010-06-18T16:00:36Z</time>
      </trkpt>
      <trkpt lat="48.5719750" lon="7.7948470">
        <ele>145.3000000</ele>
        <time>2010-06-18T16:00:48Z</time>
      </trkpt>
      <trkpt lat="48.5722230" lon="7.7942130">
        <ele>145.3000000</ele>
        <time>2010-06-18T16:01:01Z</time>
      </trkpt>
      <trkpt lat="48.5724570" lon="7.7937110">
        <ele>144.8200000</ele>
        <time>2010-06-18T16:01:12Z</time>
      </trkpt>
      <trkpt lat="48.5725160" lon="7.7935480">
        <ele>144.8200000</ele>
        <time>2010-06-18T16:01:15Z</time>
      </trkpt>
      <trkpt lat="48.5726240" lon="7.7931950">
        <ele>144.3400000</ele>
        <time>2010-06-18T16:01:21Z</time>
      </trkpt>
      <trkpt lat="48.5726780" lon="7.7929380">
        <ele>144.3400000</ele>
        <time>2010-06-18T16:01:25Z</time>
      </trkpt>
      <trkpt lat="48.5727570" lon="7.7922320">
        <ele>144.3400000</ele>
        <time>2010-06-18T16:01:38Z</time>
      </trkpt>
      <trkpt lat="48.5727600" lon="7.7921780">
        <ele>144.3400000</ele>
        <time>2010-06-18T16:01:39Z</time>
      </trkpt>
      <trkpt lat="48.5728250" lon="7.7918540">
        <ele>143.3700000</ele>
        <time>2010-06-18T16:01:44Z</time>
      </trkpt>
      <trkpt lat="48.5728990" lon="7.7914280">
        <ele>143.3700000</ele>
        <time>2010-06-18T16:01:50Z</time>
      </trkpt>
      <trkpt lat="48.5730760" lon="7.7903610">
        <ele>144.3400000</ele>
        <time>2010-06-18T16:02:06Z</time>
      </trkpt>
      <trkpt lat="48.5731180" lon="7.7901130">
        <ele>144.3400000</ele>
        <time>2010-06-18T16:02:10Z</time>
      </trkpt>
      <trkpt lat="48.5731440" lon="7.7895570">
        <ele>145.3000000</ele>
        <time>2010-06-18T16:02:19Z</time>
      </trkpt>
      <trkpt lat="48.5730940" lon="7.7891230">
        <ele>146.2600000</ele>
        <time>2010-06-18T16:02:26Z</time>
      </trkpt>
      <trkpt lat="48.5727630" lon="7.7882100">
        <ele>147.2200000</ele>
        <time>2010-06-18T16:02:43Z</time>
      </trkpt>
      <trkpt lat="48.5722900" lon="7.7876730">
        <ele>147.2200000</ele>
        <time>2010-06-18T16:02:58Z</time>
      </trkpt>
      <trkpt lat="48.5717440" lon="7.7871090">
        <ele>147.7000000</ele>
        <time>2010-06-18T16:03:16Z</time>
      </trkpt>
      <trkpt lat="48.5714360" lon="7.7868080">
        <ele>148.6600000</ele>
        <time>2010-06-18T16:03:26Z</time>
      </trkpt>
      <trkpt lat="48.5711110" lon="7.7864150">
        <ele>148.6600000</ele>
        <time>2010-06-18T16:03:38Z</time>
      </trkpt>
      <trkpt lat="48.5710560" lon="7.7863560">
        <ele>149.1400000</ele>
        <time>2010-06-18T16:03:40Z</time>
      </trkpt>
      <trkpt lat="48.5706500" lon="7.7857900">
        <ele>149.6200000</ele>
        <time>2010-06-18T16:03:54Z</time>
      </trkpt>
      <trkpt lat="48.5705870" lon="7.7857100">
        <ele>149.6200000</ele>
        <time>2010-06-18T16:03:56Z</time>
      </trkpt>
      <trkpt lat="48.5704720" lon="7.7855270">
        <ele>150.5800000</ele>
        <time>2010-06-18T16:04:00Z</time>
      </trkpt>
      <trkpt lat="48.5702790" lon="7.7852640">
        <ele>151.0600000</ele>
        <time>2010-06-18T16:04:06Z</time>
      </trkpt>
      <trkpt lat="48.5701170" lon="7.7849490">
        <ele>151.0600000</ele>
        <time>2010-06-18T16:04:12Z</time>
      </trkpt>
      <trkpt lat="48.5700240" lon="7.7846510">
        <ele>151.0600000</ele>
        <time>2010-06-18T16:04:17Z</time>
      </trkpt>
      <trkpt lat="48.5699940" lon="7.7843380">
        <ele>151.5400000</ele>
        <time>2010-06-18T16:04:22Z</time>
      </trkpt>
      <trkpt lat="48.5698510" lon="7.7832480">
        <ele>152.0300000</ele>
        <time>2010-06-18T16:04:39Z</time>
      </trkpt>
      <trkpt lat="48.5697200" lon="7.7821740">
        <ele>150.5800000</ele>
        <time>2010-06-18T16:04:56Z</time>
      </trkpt>
      <trkpt lat="48.5696210" lon="7.7814240">
        <ele>150.1000000</ele>
        <time>2010-06-18T16:05:06Z</time>
      </trkpt>
      <trkpt lat="48.5695270" lon="7.7810930">
        <ele>149.1400000</ele>
        <time>2010-06-18T16:05:16Z</time>
      </trkpt>
      <trkpt lat="48.5695260" lon="7.7810800">
        <ele>148.6600000</ele>
        <time>2010-06-18T16:06:19Z</time>
      </trkpt>
      <trkpt lat="48.5695080" lon="7.7805230">
        <ele>148.1800000</ele>
        <time>2010-06-18T16:06:30Z</time>
      </trkpt>
      <trkpt lat="48.5695010" lon="7.7803930">
        <ele>147.7000000</ele>
        <time>2010-06-18T16:06:32Z</time>
      </trkpt>
      <trkpt lat="48.5694050" lon="7.7797510">
        <ele>146.7400000</ele>
        <time>2010-06-18T16:06:41Z</time>
      </trkpt>
      <trkpt lat="48.5692620" lon="7.7787300">
        <ele>144.3400000</ele>
        <time>2010-06-18T16:06:54Z</time>
      </trkpt>
      <trkpt lat="48.5692200" lon="7.7785740">
        <ele>144.8200000</ele>
        <time>2010-06-18T16:07:02Z</time>
      </trkpt>
      <trkpt lat="48.5692360" lon="7.7786710">
        <ele>145.3000000</ele>
        <time>2010-06-18T16:07:07Z</time>
      </trkpt>
      <trkpt lat="48.5692580" lon="7.7787640">
        <ele>145.7800000</ele>
        <time>2010-06-18T16:07:10Z</time>
      </trkpt>
      <trkpt lat="48.5691880" lon="7.7788090">
        <ele>145.3000000</ele>
        <time>2010-06-18T16:07:15Z</time>
      </trkpt>
      <trkpt lat="48.5688420" lon="7.7786790">
        <ele>144.3400000</ele>
        <time>2010-06-18T16:07:23Z</time>
      </trkpt>
      <trkpt lat="48.5686540" lon="7.7785610">
        <ele>143.3700000</ele>
        <time>2010-06-18T16:07:27Z</time>
      </trkpt>
      <trkpt lat="48.5685120" lon="7.7784720">
        <ele>143.3700000</ele>
        <time>2010-06-18T16:07:30Z</time>
      </trkpt>
      <trkpt lat="48.5683890" lon="7.7782910">
        <ele>143.3700000</ele>
        <time>2010-06-18T16:07:34Z</time>
      </trkpt>
      <trkpt lat="48.5681950" lon="7.7778200">
        <ele>143.8500000</ele>
        <time>2010-06-18T16:07:46Z</time>
      </trkpt>
      <trkpt lat="48.5680590" lon="7.7778700">
        <ele>143.3700000</ele>
        <time>2010-06-18T16:07:51Z</time>
      </trkpt>
      <trkpt lat="48.5673660" lon="7.7783480">
        <ele>143.8500000</ele>
        <time>2010-06-18T16:08:07Z</time>
      </trkpt>
      <trkpt lat="48.5669840" lon="7.7784700">
        <ele>142.8900000</ele>
        <time>2010-06-18T16:08:15Z</time>
      </trkpt>
      <trkpt lat="48.5663000" lon="7.7785170">
        <ele>144.8200000</ele>
        <time>2010-06-18T16:08:29Z</time>
      </trkpt>
      <trkpt lat="48.5660080" lon="7.7785250">
        <ele>144.8200000</ele>
        <time>2010-06-18T16:08:35Z</time>
      </trkpt>
      <trkpt lat="48.5658310" lon="7.7785140">
        <ele>144.8200000</ele>
        <time>2010-06-18T16:08:39Z</time>
      </trkpt>
      <trkpt lat="48.5656760" lon="7.7785130">
        <ele>144.8200000</ele>
        <time>2010-06-18T16:08:42Z</time>
      </trkpt>
      <trkpt lat="48.5648470" lon="7.7784090">
        <ele>144.8200000</ele>
        <time>2010-06-18T16:08:58Z</time>
      </trkpt>
      <trkpt lat="48.5641090" lon="7.7782400">
        <ele>144.3400000</ele>
        <time>2010-06-18T16:09:13Z</time>
      </trkpt>
      <trkpt lat="48.5637900" lon="7.7782590">
        <ele>144.3400000</ele>
        <time>2010-06-18T16:09:19Z</time>
      </trkpt>
      <trkpt lat="48.5636590" lon="7.7783580">
        <ele>144.3400000</ele>
        <time>2010-06-18T16:09:22Z</time>
      </trkpt>
      <trkpt lat="48.5635610" lon="7.7784830">
        <ele>144.3400000</ele>
        <time>2010-06-18T16:09:25Z</time>
      </trkpt>
      <trkpt lat="48.5634490" lon="7.7784330">
        <ele>143.8500000</ele>
        <time>2010-06-18T16:09:29Z</time>
      </trkpt>
      <trkpt lat="48.5628850" lon="7.7777550">
        <ele>143.8500000</ele>
        <time>2010-06-18T16:09:44Z</time>
      </trkpt>
      <trkpt lat="48.5624880" lon="7.7772360">
        <ele>144.3400000</ele>
        <time>2010-06-18T16:09:56Z</time>
      </trkpt>
      <trkpt lat="48.5623980" lon="7.7770940">
        <ele>144.3400000</ele>
        <time>2010-06-18T16:09:59Z</time>
      </trkpt>
      <trkpt lat="48.5618910" lon="7.7763130">
        <ele>143.8500000</ele>
        <time>2010-06-18T16:10:14Z</time>
      </trkpt>
      <trkpt lat="48.5616940" lon="7.7758940">
        <ele>143.8500000</ele>
        <time>2010-06-18T16:10:21Z</time>
      </trkpt>
      <trkpt lat="48.5613060" lon="7.7750100">
        <ele>143.8500000</ele>
        <time>2010-06-18T16:10:35Z</time>
      </trkpt>
      <trkpt lat="48.5610930" lon="7.7744260">
        <ele>144.3400000</ele>
        <time>2010-06-18T16:10:44Z</time>
      </trkpt>
      <trkpt lat="48.5611260" lon="7.7742080">
        <ele>144.3400000</ele>
        <time>2010-06-18T16:10:48Z</time>
      </trkpt>
      <trkpt lat="48.5612600" lon="7.7741050">
        <ele>144.3400000</ele>
        <time>2010-06-18T16:10:52Z</time>
      </trkpt>
      <trkpt lat="48.5612890" lon="7.7738960">
        <ele>144.3400000</ele>
        <time>2010-06-18T16:11:00Z</time>
      </trkpt>
      <trkpt lat="48.5612890" lon="7.7738960">
        <ele>143.3700000</ele>
        <time>2010-06-18T16:11:21Z</time>
      </trkpt>
      <trkpt lat="48.5611130" lon="7.7739660">
        <ele>142.4100000</ele>
        <time>2010-06-18T16:11:28Z</time>
      </trkpt>
      <trkpt lat="48.5605730" lon="7.7742830">
        <ele>142.8900000</ele>
        <time>2010-06-18T16:11:43Z</time>
      </trkpt>
      <trkpt lat="48.5605510" lon="7.7742960">
        <ele>142.8900000</ele>
        <time>2010-06-18T16:11:55Z</time>
      </trkpt>
      <trkpt lat="48.5605510" lon="7.7742960">
        <ele>143.3700000</ele>
        <time>2010-06-18T16:11:57Z</time>
      </trkpt>
      <trkpt lat="48.5604580" lon="7.7740150">
        <ele>143.8500000</ele>
        <time>2010-06-18T16:12:05Z</time>
      </trkpt>
      <trkpt lat="48.5603580" lon="7.7736620">
        <ele>143.8500000</ele>
        <time>2010-06-18T16:12:12Z</time>
      </trkpt>
      <trkpt lat="48.5600010" lon="7.7726730">
        <ele>143.3700000</ele>
        <time>2010-06-18T16:12:29Z</time>
      </trkpt>
      <trkpt lat="48.5596570" lon="7.7716720">
        <ele>143.8500000</ele>
        <time>2010-06-18T16:12:45Z</time>
      </trkpt>
      <trkpt lat="48.5595130" lon="7.7712290">
        <ele>143.8500000</ele>
        <time>2010-06-18T16:12:52Z</time>
      </trkpt>
      <trkpt lat="48.5591880" lon="7.7702690">
        <ele>144.3400000</ele>
        <time>2010-06-18T16:13:07Z</time>
      </trkpt>
      <trkpt lat="48.5591050" lon="7.7700230">
        <ele>144.3400000</ele>
        <time>2010-06-18T16:13:11Z</time>
      </trkpt>
      <trkpt lat="48.5588070" lon="7.7690360">
        <ele>144.3400000</ele>
        <time>2010-06-18T16:13:26Z</time>
      </trkpt>
      <trkpt lat="48.5584830" lon="7.7685010">
        <ele>143.8500000</ele>
        <time>2010-06-18T16:13:36Z</time>
      </trkpt>
      <trkpt lat="48.5583550" lon="7.7681160">
        <ele>143.8500000</ele>
        <time>2010-06-18T16:13:42Z</time>
      </trkpt>
      <trkpt lat="48.5581060" lon="7.7676690">
        <ele>143.8500000</ele>
        <time>2010-06-18T16:13:50Z</time>
      </trkpt>
      <trkpt lat="48.5577630" lon="7.7669340">
        <ele>143.8500000</ele>
        <time>2010-06-18T16:14:04Z</time>
      </trkpt>
      <trkpt lat="48.5577250" lon="7.7665090">
        <ele>144.3400000</ele>
        <time>2010-06-18T16:14:13Z</time>
      </trkpt>
      <trkpt lat="48.5578970" lon="7.7662890">
        <ele>144.8200000</ele>
        <time>2010-06-18T16:14:22Z</time>
      </trkpt>
      <trkpt lat="48.5579360" lon="7.7662150">
        <ele>144.3400000</ele>
        <time>2010-06-18T16:14:32Z</time>
      </trkpt>
      <trkpt lat="48.5579350" lon="7.7662180">
        <ele>144.8200000</ele>
        <time>2010-06-18T16:14:57Z</time>
      </trkpt>
      <trkpt lat="48.5579350" lon="7.7662180">
        <ele>144.8200000</ele>
        <time>2010-06-18T16:15:14Z</time>
      </trkpt>
      <trkpt lat="48.5579130" lon="7.7661260">
        <ele>144.8200000</ele>
        <time>2010-06-18T16:15:18Z</time>
      </trkpt>
      <trkpt lat="48.5578850" lon="7.7655590">
        <ele>144.8200000</ele>
        <time>2010-06-18T16:15:29Z</time>
      </trkpt>
      <trkpt lat="48.5580180" lon="7.7650010">
        <ele>144.3400000</ele>
        <time>2010-06-18T16:15:37Z</time>
      </trkpt>
      <trkpt lat="48.5580680" lon="7.7648760">
        <ele>144.8200000</ele>
        <time>2010-06-18T16:15:39Z</time>
      </trkpt>
      <trkpt lat="48.5584070" lon="7.7643390">
        <ele>144.3400000</ele>
        <time>2010-06-18T16:15:49Z</time>
      </trkpt>
      <trkpt lat="48.5584880" lon="7.7641510">
        <ele>144.3400000</ele>
        <time>2010-06-18T16:15:52Z</time>
      </trkpt>
      <trkpt lat="48.5585610" lon="7.7637870">
        <ele>143.8500000</ele>
        <time>2010-06-18T16:15:57Z</time>
      </trkpt>
      <trkpt lat="48.5586030" lon="7.7632170">
        <ele>144.3400000</ele>
        <time>2010-06-18T16:16:05Z</time>
      </trkpt>
      <trkpt lat="48.5588390" lon="7.7620500">
        <ele>143.3700000</ele>
        <time>2010-06-18T16:16:21Z</time>
      </trkpt>
      <trkpt lat="48.5589010" lon="7.7617490">
        <ele>143.3700000</ele>
        <time>2010-06-18T16:16:25Z</time>
      </trkpt>
      <trkpt lat="48.5589390" lon="7.7615160">
        <ele>143.3700000</ele>
        <time>2010-06-18T16:16:28Z</time>
      </trkpt>
      <trkpt lat="48.5589120" lon="7.7611270">
        <ele>143.8500000</ele>
        <time>2010-06-18T16:16:33Z</time>
      </trkpt>
      <trkpt lat="48.5586280" lon="7.7601090">
        <ele>143.8500000</ele>
        <time>2010-06-18T16:16:47Z</time>
      </trkpt>
      <trkpt lat="48.5584430" lon="7.7594940">
        <ele>143.8500000</ele>
        <time>2010-06-18T16:16:59Z</time>
      </trkpt>
      <trkpt lat="48.5586990" lon="7.7592090">
        <ele>143.8500000</ele>
        <time>2010-06-18T16:17:08Z</time>
      </trkpt>
      <trkpt lat="48.5588480" lon="7.7590430">
        <ele>144.3400000</ele>
        <time>2010-06-18T16:17:13Z</time>
      </trkpt>
      <trkpt lat="48.5588460" lon="7.7586590">
        <ele>144.3400000</ele>
        <time>2010-06-18T16:17:20Z</time>
      </trkpt>
      <trkpt lat="48.5589020" lon="7.7582640">
        <ele>144.3400000</ele>
        <time>2010-06-18T16:17:26Z</time>
      </trkpt>
      <trkpt lat="48.5589270" lon="7.7580020">
        <ele>144.3400000</ele>
        <time>2010-06-18T16:17:30Z</time>
      </trkpt>
      <trkpt lat="48.5589030" lon="7.7577430">
        <ele>143.8500000</ele>
        <time>2010-06-18T16:17:34Z</time>
      </trkpt>
      <trkpt lat="48.5588140" lon="7.7572660">
        <ele>143.8500000</ele>
        <time>2010-06-18T16:17:41Z</time>
      </trkpt>
      <trkpt lat="48.5588360" lon="7.7569010">
        <ele>143.8500000</ele>
        <time>2010-06-18T16:17:46Z</time>
      </trkpt>
      <trkpt lat="48.5590850" lon="7.7560680">
        <ele>145.7800000</ele>
        <time>2010-06-18T16:18:01Z</time>
      </trkpt>
      <trkpt lat="48.5590830" lon="7.7560130">
        <ele>145.3000000</ele>
        <time>2010-06-18T16:18:02Z</time>
      </trkpt>
      <trkpt lat="48.5590510" lon="7.7556050">
        <ele>144.3400000</ele>
        <time>2010-06-18T16:18:08Z</time>
      </trkpt>
      <trkpt lat="48.5590640" lon="7.7547170">
        <ele>144.8200000</ele>
        <time>2010-06-18T16:18:20Z</time>
      </trkpt>
      <trkpt lat="48.5591270" lon="7.7544530">
        <ele>144.3400000</ele>
        <time>2010-06-18T16:18:24Z</time>
      </trkpt>
      <trkpt lat="48.5592160" lon="7.7541170">
        <ele>144.8200000</ele>
        <time>2010-06-18T16:18:29Z</time>
      </trkpt>
      <trkpt lat="48.5594070" lon="7.7535740">
        <ele>144.8200000</ele>
        <time>2010-06-18T16:18:41Z</time>
      </trkpt>
      <trkpt lat="48.5594890" lon="7.7535290">
        <ele>144.8200000</ele>
        <time>2010-06-18T16:18:43Z</time>
      </trkpt>
      <trkpt lat="48.5599660" lon="7.7533780">
        <ele>144.3400000</ele>
        <time>2010-06-18T16:18:53Z</time>
      </trkpt>
      <trkpt lat="48.5604000" lon="7.7532040">
        <ele>144.3400000</ele>
        <time>2010-06-18T16:19:04Z</time>
      </trkpt>
      <trkpt lat="48.5604160" lon="7.7531810">
        <ele>143.8500000</ele>
        <time>2010-06-18T16:19:11Z</time>
      </trkpt>
      <trkpt lat="48.5604040" lon="7.7530800">
        <ele>144.3400000</ele>
        <time>2010-06-18T16:19:15Z</time>
      </trkpt>
      <trkpt lat="48.5604720" lon="7.7529690">
        <ele>144.3400000</ele>
        <time>2010-06-18T16:19:19Z</time>
      </trkpt>
      <trkpt lat="48.5607770" lon="7.7526860">
        <ele>144.3400000</ele>
        <time>2010-06-18T16:19:31Z</time>
      </trkpt>
      <trkpt lat="48.5610650" lon="7.7519700">
        <ele>144.3400000</ele>
        <time>2010-06-18T16:19:44Z</time>
      </trkpt>
      <trkpt lat="48.5611510" lon="7.7517080">
        <ele>144.3400000</ele>
        <time>2010-06-18T16:19:54Z</time>
      </trkpt>
      <trkpt lat="48.5612470" lon="7.7514470">
        <ele>144.3400000</ele>
        <time>2010-06-18T16:21:22Z</time>
      </trkpt>
      <trkpt lat="48.5614940" lon="7.7507570">
        <ele>144.3400000</ele>
        <time>2010-06-18T16:21:35Z</time>
      </trkpt>
      <trkpt lat="48.5618690" lon="7.7496830">
        <ele>144.3400000</ele>
        <time>2010-06-18T16:21:51Z</time>
      </trkpt>
      <trkpt lat="48.5620620" lon="7.7490500">
        <ele>144.3400000</ele>
        <time>2010-06-18T16:22:00Z</time>
      </trkpt>
      <trkpt lat="48.5620880" lon="7.7480400">
        <ele>143.8500000</ele>
        <time>2010-06-18T16:22:13Z</time>
      </trkpt>
      <trkpt lat="48.5620730" lon="7.7475750">
        <ele>144.3400000</ele>
        <time>2010-06-18T16:22:19Z</time>
      </trkpt>
      <trkpt lat="48.5622690" lon="7.7462170">
        <ele>143.8500000</ele>
        <time>2010-06-18T16:22:38Z</time>
      </trkpt>
      <trkpt lat="48.5623180" lon="7.7458000">
        <ele>143.8500000</ele>
        <time>2010-06-18T16:22:44Z</time>
      </trkpt>
      <trkpt lat="48.5625670" lon="7.7449890">
        <ele>143.3700000</ele>
        <time>2010-06-18T16:22:56Z</time>
      </trkpt>
      <trkpt lat="48.5629600" lon="7.7437120">
        <ele>143.3700000</ele>
        <time>2010-06-18T16:23:15Z</time>
      </trkpt>
      <trkpt lat="48.5629810" lon="7.7436470">
        <ele>143.3700000</ele>
        <time>2010-06-18T16:23:16Z</time>
      </trkpt>
      <trkpt lat="48.5632790" lon="7.7427440">
        <ele>143.8500000</ele>
        <time>2010-06-18T16:23:30Z</time>
      </trkpt>
      <trkpt lat="48.5636370" lon="7.7419300">
        <ele>143.3700000</ele>
        <time>2010-06-18T16:23:43Z</time>
      </trkpt>
      <trkpt lat="48.5638070" lon="7.7416410">
        <ele>143.3700000</ele>
        <time>2010-06-18T16:23:48Z</time>
      </trkpt>
      <trkpt lat="48.5643370" lon="7.7408150">
        <ele>143.3700000</ele>
        <time>2010-06-18T16:24:03Z</time>
      </trkpt>
      <trkpt lat="48.5645970" lon="7.7403870">
        <ele>143.3700000</ele>
        <time>2010-06-18T16:24:11Z</time>
      </trkpt>
      <trkpt lat="48.5647980" lon="7.7400790">
        <ele>144.3400000</ele>
        <time>2010-06-18T16:24:17Z</time>
      </trkpt>
      <trkpt lat="48.5653370" lon="7.7392780">
        <ele>143.8500000</ele>
        <time>2010-06-18T16:24:33Z</time>
      </trkpt>
      <trkpt lat="48.5654600" lon="7.7388900">
        <ele>143.8500000</ele>
        <time>2010-06-18T16:24:43Z</time>
      </trkpt>
      <trkpt lat="48.5654520" lon="7.7387930">
        <ele>143.8500000</ele>
        <time>2010-06-18T16:24:57Z</time>
      </trkpt>
      <trkpt lat="48.5654530" lon="7.7387880">
        <ele>143.8500000</ele>
        <time>2010-06-18T16:25:00Z</time>
      </trkpt>
      <trkpt lat="48.5655020" lon="7.7387790">
        <ele>143.8500000</ele>
        <time>2010-06-18T16:25:04Z</time>
      </trkpt>
      <trkpt lat="48.5657410" lon="7.7387270">
        <ele>143.8500000</ele>
        <time>2010-06-18T16:25:13Z</time>
      </trkpt>
      <trkpt lat="48.5662970" lon="7.7388070">
        <ele>143.3700000</ele>
        <time>2010-06-18T16:25:26Z</time>
      </trkpt>
      <trkpt lat="48.5671180" lon="7.7389410">
        <ele>143.3700000</ele>
        <time>2010-06-18T16:25:43Z</time>
      </trkpt>
      <trkpt lat="48.5677600" lon="7.7390500">
        <ele>142.8900000</ele>
        <time>2010-06-18T16:25:56Z</time>
      </trkpt>
      <trkpt lat="48.5685430" lon="7.7391340">
        <ele>142.8900000</ele>
        <time>2010-06-18T16:26:12Z</time>
      </trkpt>
      <trkpt lat="48.5685910" lon="7.7391360">
        <ele>143.3700000</ele>
        <time>2010-06-18T16:26:13Z</time>
      </trkpt>
      <trkpt lat="48.5689810" lon="7.7388430">
        <ele>144.3400000</ele>
        <time>2010-06-18T16:26:23Z</time>
      </trkpt>
      <trkpt lat="48.5690810" lon="7.7384770">
        <ele>144.8200000</ele>
        <time>2010-06-18T16:26:29Z</time>
      </trkpt>
      <trkpt lat="48.5691090" lon="7.7378490">
        <ele>144.3400000</ele>
        <time>2010-06-18T16:26:38Z</time>
      </trkpt>
      <trkpt lat="48.5691390" lon="7.7376350">
        <ele>144.3400000</ele>
        <time>2010-06-18T16:26:41Z</time>
      </trkpt>
      <trkpt lat="48.5692280" lon="7.7361730">
        <ele>144.3400000</ele>
        <time>2010-06-18T16:27:01Z</time>
      </trkpt>
      <trkpt lat="48.5692440" lon="7.7355590">
        <ele>144.3400000</ele>
        <time>2010-06-18T16:27:14Z</time>
      </trkpt>
      <trkpt lat="48.5692430" lon="7.7355590">
        <ele>143.8500000</ele>
        <time>2010-06-18T16:28:13Z</time>
      </trkpt>
      <trkpt lat="48.5692620" lon="7.7353250">
        <ele>144.3400000</ele>
        <time>2010-06-18T16:28:40Z</time>
      </trkpt>
      <trkpt lat="48.5693740" lon="7.7351840">
        <ele>144.3400000</ele>
        <time>2010-06-18T16:28:47Z</time>
      </trkpt>
      <trkpt lat="48.5692310" lon="7.7350440">
        <ele>146.2600000</ele>
        <time>2010-06-18T16:28:56Z</time>
      </trkpt>
      <trkpt lat="48.5692340" lon="7.7350080">
        <ele>146.2600000</ele>
        <time>2010-06-18T16:28:57Z</time>
      </trkpt>
      <trkpt lat="48.5692470" lon="7.7348360">
        <ele>146.2600000</ele>
        <time>2010-06-18T16:29:01Z</time>
      </trkpt>
      <trkpt lat="48.5693140" lon="7.7345970">
        <ele>145.3000000</ele>
        <time>2010-06-18T16:29:07Z</time>
      </trkpt>
      <trkpt lat="48.5693200" lon="7.7345140">
        <ele>144.8200000</ele>
        <time>2010-06-18T16:29:20Z</time>
      </trkpt>
      <trkpt lat="48.5693190" lon="7.7345150">
        <ele>144.8200000</ele>
        <time>2010-06-18T16:29:27Z</time>
      </trkpt>
      <trkpt lat="48.5694810" lon="7.7346440">
        <ele>144.3400000</ele>
        <time>2010-06-18T16:29:38Z</time>
      </trkpt>
      <trkpt lat="48.5698400" lon="7.7346760">
        <ele>143.8500000</ele>
        <time>2010-06-18T16:29:47Z</time>
      </trkpt>
      <trkpt lat="48.5699880" lon="7.7345760">
        <ele>143.8500000</ele>
        <time>2010-06-18T16:29:51Z</time>
      </trkpt>
      <trkpt lat="48.5700870" lon="7.7343780">
        <ele>143.8500000</ele>
        <time>2010-06-18T16:29:55Z</time>
      </trkpt>
      <trkpt lat="48.5703510" lon="7.7341200">
        <ele>143.8500000</ele>
        <time>2010-06-18T16:30:03Z</time>
      </trkpt>
      <trkpt lat="48.5705440" lon="7.7341970">
        <ele>144.3400000</ele>
        <time>2010-06-18T16:30:07Z</time>
      </trkpt>
      <trkpt lat="48.5707590" lon="7.7343920">
        <ele>144.3400000</ele>
        <time>2010-06-18T16:30:12Z</time>
      </trkpt>
      <trkpt lat="48.5710970" lon="7.7344430">
        <ele>144.3400000</ele>
        <time>2010-06-18T16:30:22Z</time>
      </trkpt>
      <trkpt lat="48.5713820" lon="7.7341440">
        <ele>143.3700000</ele>
        <time>2010-06-18T16:30:33Z</time>
      </trkpt>
      <trkpt lat="48.5713670" lon="7.7334330">
        <ele>142.4100000</ele>
        <time>2010-06-18T16:30:45Z</time>
      </trkpt>
      <trkpt lat="48.5713420" lon="7.7330420">
        <ele>142.8900000</ele>
        <time>2010-06-18T16:30:51Z</time>
      </trkpt>
      <trkpt lat="48.5713230" lon="7.7328300">
        <ele>142.8900000</ele>
        <time>2010-06-18T16:30:54Z</time>
      </trkpt>
      <trkpt lat="48.5713990" lon="7.7322960">
        <ele>142.4100000</ele>
        <time>2010-06-18T16:31:02Z</time>
      </trkpt>
      <trkpt lat="48.5716190" lon="7.7320760">
        <ele>142.8900000</ele>
        <time>2010-06-18T16:31:08Z</time>
      </trkpt>
      <trkpt lat="48.5717470" lon="7.7317290">
        <ele>142.8900000</ele>
        <time>2010-06-18T16:31:14Z</time>
      </trkpt>
      <trkpt lat="48.5717570" lon="7.7315950">
        <ele>142.8900000</ele>
        <time>2010-06-18T16:31:16Z</time>
      </trkpt>
      <trkpt lat="48.5718090" lon="7.7314190">
        <ele>142.4100000</ele>
        <time>2010-06-18T16:31:19Z</time>
      </trkpt>
      <trkpt lat="48.5720410" lon="7.7313570">
        <ele>142.4100000</ele>
        <time>2010-06-18T16:31:24Z</time>
      </trkpt>
      <trkpt lat="48.5722730" lon="7.7309260">
        <ele>142.4100000</ele>
        <time>2010-06-18T16:31:32Z</time>
      </trkpt>
      <trkpt lat="48.5722770" lon="7.7304670">
        <ele>143.3700000</ele>
        <time>2010-06-18T16:31:39Z</time>
      </trkpt>
      <trkpt lat="48.5722530" lon="7.7302640">
        <ele>143.3700000</ele>
        <time>2010-06-18T16:31:42Z</time>
      </trkpt>
      <trkpt lat="48.5721350" lon="7.7294330">
        <ele>143.8500000</ele>
        <time>2010-06-18T16:31:53Z</time>
      </trkpt>
      <trkpt lat="48.5717760" lon="7.7286390">
        <ele>143.3700000</ele>
        <time>2010-06-18T16:32:04Z</time>
      </trkpt>
      <trkpt lat="48.5716330" lon="7.7282180">
        <ele>143.8500000</ele>
        <time>2010-06-18T16:32:10Z</time>
      </trkpt>
      <trkpt lat="48.5716260" lon="7.7279260">
        <ele>144.3400000</ele>
        <time>2010-06-18T16:32:14Z</time>
      </trkpt>
      <trkpt lat="48.5715510" lon="7.7276250">
        <ele>144.8200000</ele>
        <time>2010-06-18T16:32:19Z</time>
      </trkpt>
      <trkpt lat="48.5710100" lon="7.7266430">
        <ele>144.8200000</ele>
        <time>2010-06-18T16:32:37Z</time>
      </trkpt>
      <trkpt lat="48.5709480" lon="7.7265340">
        <ele>144.3400000</ele>
        <time>2010-06-18T16:32:39Z</time>
      </trkpt>
      <trkpt lat="48.5708430" lon="7.7264010">
        <ele>144.3400000</ele>
        <time>2010-06-18T16:32:42Z</time>
      </trkpt>
      <trkpt lat="48.5706980" lon="7.7260270">
        <ele>143.8500000</ele>
        <time>2010-06-18T16:32:51Z</time>
      </trkpt>
      <trkpt lat="48.5707320" lon="7.7257520">
        <ele>144.3400000</ele>
        <time>2010-06-18T16:33:02Z</time>
      </trkpt>
      <trkpt lat="48.5707320" lon="7.7257520">
        <ele>143.8500000</ele>
        <time>2010-06-18T16:33:06Z</time>
      </trkpt>
      <trkpt lat="48.5706500" lon="7.7257200">
        <ele>143.8500000</ele>
        <time>2010-06-18T16:33:10Z</time>
      </trkpt>
      <trkpt lat="48.5705920" lon="7.7257230">
        <ele>143.3700000</ele>
        <time>2010-06-18T16:33:12Z</time>
      </trkpt>
      <trkpt lat="48.5704560" lon="7.7257380">
        <ele>143.8500000</ele>
        <time>2010-06-18T16:33:17Z</time>
      </trkpt>
      <trkpt lat="48.5703510" lon="7.7256570">
        <ele>143.3700000</ele>
        <time>2010-06-18T16:33:23Z</time>
      </trkpt>
      <trkpt lat="48.5703610" lon="7.7257740">
        <ele>143.3700000</ele>
        <time>2010-06-18T16:33:31Z</time>
      </trkpt>
      <trkpt lat="48.5703640" lon="7.7257560">
        <ele>143.8500000</ele>
        <time>2010-06-18T16:33:48Z</time>
      </trkpt>
      <trkpt lat="48.5703730" lon="7.7257040">
        <ele>143.8500000</ele>
        <time>2010-06-18T16:33:51Z</time>
      </trkpt>
      <trkpt lat="48.5705030" lon="7.7257660">
        <ele>143.8500000</ele>
        <time>2010-06-18T16:34:00Z</time>
      </trkpt>
      <trkpt lat="48.5705830" lon="7.7257530">
        <ele>143.8500000</ele>
        <time>2010-06-18T16:34:12Z</time>
      </trkpt>
      <trkpt lat="48.5705880" lon="7.7257440">
        <ele>143.8500000</ele>
        <time>2010-06-18T16:34:23Z</time>
      </trkpt>
      <trkpt lat="48.5707020" lon="7.7253460">
        <ele>143.8500000</ele>
        <time>2010-06-18T16:34:34Z</time>
      </trkpt>
      <trkpt lat="48.5709470" lon="7.7249550">
        <ele>145.7800000</ele>
        <time>2010-06-18T16:34:43Z</time>
      </trkpt>
      <trkpt lat="48.5715130" lon="7.7246610">
        <ele>146.7400000</ele>
        <time>2010-06-18T16:34:58Z</time>
      </trkpt>
      <trkpt lat="48.5719180" lon="7.7244740">
        <ele>145.7800000</ele>
        <time>2010-06-18T16:35:09Z</time>
      </trkpt>
      <trkpt lat="48.5720790" lon="7.7242960">
        <ele>145.3000000</ele>
        <time>2010-06-18T16:35:16Z</time>
      </trkpt>
      <trkpt lat="48.5722350" lon="7.7242250">
        <ele>144.8200000</ele>
        <time>2010-06-18T16:35:27Z</time>
      </trkpt>
      <trkpt lat="48.5722350" lon="7.7242250">
        <ele>143.8500000</ele>
        <time>2010-06-18T16:36:05Z</time>
      </trkpt>
      <trkpt lat="48.5720800" lon="7.7237410">
        <ele>143.3700000</ele>
        <time>2010-06-18T16:36:17Z</time>
      </trkpt>
      <trkpt lat="48.5718660" lon="7.7231220">
        <ele>143.3700000</ele>
        <time>2010-06-18T16:36:29Z</time>
      </trkpt>
      <trkpt lat="48.5718350" lon="7.7228700">
        <ele>143.3700000</ele>
        <time>2010-06-18T16:36:33Z</time>
      </trkpt>
      <trkpt lat="48.5715980" lon="7.7220200">
        <ele>144.3400000</ele>
        <time>2010-06-18T16:36:48Z</time>
      </trkpt>
      <trkpt lat="48.5712180" lon="7.7207570">
        <ele>142.8900000</ele>
        <time>2010-06-18T16:37:07Z</time>
      </trkpt>
      <trkpt lat="48.5709510" lon="7.7195360">
        <ele>142.8900000</ele>
        <time>2010-06-18T16:37:24Z</time>
      </trkpt>
      <trkpt lat="48.5708700" lon="7.7182240">
        <ele>143.8500000</ele>
        <time>2010-06-18T16:37:42Z</time>
      </trkpt>
      <trkpt lat="48.5709260" lon="7.7179400">
        <ele>143.8500000</ele>
        <time>2010-06-18T16:37:46Z</time>
      </trkpt>
      <trkpt lat="48.5711270" lon="7.7173360">
        <ele>143.8500000</ele>
        <time>2010-06-18T16:37:55Z</time>
      </trkpt>
      <trkpt lat="48.5714720" lon="7.7159910">
        <ele>144.3400000</ele>
        <time>2010-06-18T16:38:13Z</time>
      </trkpt>
      <trkpt lat="48.5714910" lon="7.7159210">
        <ele>144.3400000</ele>
        <time>2010-06-18T16:38:14Z</time>
      </trkpt>
      <trkpt lat="48.5714260" lon="7.7154300">
        <ele>144.8200000</ele>
        <time>2010-06-18T16:38:22Z</time>
      </trkpt>
      <trkpt lat="48.5713400" lon="7.7151850">
        <ele>145.3000000</ele>
        <time>2010-06-18T16:38:26Z</time>
      </trkpt>
      <trkpt lat="48.5712930" lon="7.7150640">
        <ele>145.3000000</ele>
        <time>2010-06-18T16:38:28Z</time>
      </trkpt>
      <trkpt lat="48.5707040" lon="7.7143400">
        <ele>144.8200000</ele>
        <time>2010-06-18T16:38:43Z</time>
      </trkpt>
      <trkpt lat="48.5701540" lon="7.7137330">
        <ele>145.7800000</ele>
        <time>2010-06-18T16:38:57Z</time>
      </trkpt>
      <trkpt lat="48.5700960" lon="7.7136610">
        <ele>145.7800000</ele>
        <time>2010-06-18T16:38:59Z</time>
      </trkpt>
      <trkpt lat="48.5698190" lon="7.7133290">
        <ele>144.8200000</ele>
        <time>2010-06-18T16:39:06Z</time>
      </trkpt>
      <trkpt lat="48.5697410" lon="7.7129980">
        <ele>144.3400000</ele>
        <time>2010-06-18T16:39:10Z</time>
      </trkpt>
      <trkpt lat="48.5697540" lon="7.7125620">
        <ele>144.3400000</ele>
        <time>2010-06-18T16:39:15Z</time>
      </trkpt>
      <trkpt lat="48.5699880" lon="7.7118340">
        <ele>144.3400000</ele>
        <time>2010-06-18T16:39:25Z</time>
      </trkpt>
      <trkpt lat="48.5700880" lon="7.7113630">
        <ele>142.8900000</ele>
        <time>2010-06-18T16:39:32Z</time>
      </trkpt>
      <trkpt lat="48.5701590" lon="7.7111250">
        <ele>142.8900000</ele>
        <time>2010-06-18T16:39:35Z</time>
      </trkpt>
      <trkpt lat="48.5702650" lon="7.7108930">
        <ele>142.8900000</ele>
        <time>2010-06-18T16:39:38Z</time>
      </trkpt>
      <trkpt lat="48.5703230" lon="7.7107570">
        <ele>143.8500000</ele>
        <time>2010-06-18T16:39:40Z</time>
      </trkpt>
      <trkpt lat="48.5704080" lon="7.7105940">
        <ele>143.8500000</ele>
        <time>2010-06-18T16:39:43Z</time>
      </trkpt>
      <trkpt lat="48.5704640" lon="7.7100300">
        <ele>143.3700000</ele>
        <time>2010-06-18T16:39:51Z</time>
      </trkpt>
      <trkpt lat="48.5705000" lon="7.7097770">
        <ele>143.3700000</ele>
        <time>2010-06-18T16:39:55Z</time>
      </trkpt>
      <trkpt lat="48.5705780" lon="7.7095720">
        <ele>143.8500000</ele>
        <time>2010-06-18T16:39:58Z</time>
      </trkpt>
      <trkpt lat="48.5707200" lon="7.7092480">
        <ele>144.3400000</ele>
        <time>2010-06-18T16:40:04Z</time>
      </trkpt>
      <trkpt lat="48.5706020" lon="7.7089270">
        <ele>144.8200000</ele>
        <time>2010-06-18T16:40:13Z</time>
      </trkpt>
      <trkpt lat="48.5706450" lon="7.7087860">
        <ele>144.8200000</ele>
        <time>2010-06-18T16:40:16Z</time>
      </trkpt>
      <trkpt lat="48.5706830" lon="7.7086320">
        <ele>144.8200000</ele>
        <time>2010-06-18T16:40:19Z</time>
      </trkpt>
      <trkpt lat="48.5707570" lon="7.7083750">
        <ele>145.3000000</ele>
        <time>2010-06-18T16:40:23Z</time>
      </trkpt>
      <trkpt lat="48.5708130" lon="7.7081970">
        <ele>146.2600000</ele>
        <time>2010-06-18T16:40:26Z</time>
      </trkpt>
      <trkpt lat="48.5708830" lon="7.7079640">
        <ele>145.7800000</ele>
        <time>2010-06-18T16:40:30Z</time>
      </trkpt>
      <trkpt lat="48.5709930" lon="7.7076040">
        <ele>146.2600000</ele>
        <time>2010-06-18T16:40:36Z</time>
      </trkpt>
      <trkpt lat="48.5711250" lon="7.7071780">
        <ele>146.7400000</ele>
        <time>2010-06-18T16:40:43Z</time>
      </trkpt>
      <trkpt lat="48.5714150" lon="7.7063730">
        <ele>145.7800000</ele>
        <time>2010-06-18T16:40:56Z</time>
      </trkpt>
      <trkpt lat="48.5714590" lon="7.7062320">
        <ele>145.7800000</ele>
        <time>2010-06-18T16:40:58Z</time>
      </trkpt>
      <trkpt lat="48.5717600" lon="7.7049940">
        <ele>146.2600000</ele>
        <time>2010-06-18T16:41:15Z</time>
      </trkpt>
      <trkpt lat="48.5718150" lon="7.7047890">
        <ele>146.7400000</ele>
        <time>2010-06-18T16:41:18Z</time>
      </trkpt>
      <trkpt lat="48.5721260" lon="7.7037660">
        <ele>146.2600000</ele>
        <time>2010-06-18T16:41:31Z</time>
      </trkpt>
      <trkpt lat="48.5722480" lon="7.7034280">
        <ele>146.2600000</ele>
        <time>2010-06-18T16:41:35Z</time>
      </trkpt>
      <trkpt lat="48.5724370" lon="7.7028940">
        <ele>146.2600000</ele>
        <time>2010-06-18T16:41:42Z</time>
      </trkpt>
      <trkpt lat="48.5725450" lon="7.7024690">
        <ele>146.7400000</ele>
        <time>2010-06-18T16:41:47Z</time>
      </trkpt>
      <trkpt lat="48.5728230" lon="7.7015520">
        <ele>145.7800000</ele>
        <time>2010-06-18T16:41:58Z</time>
      </trkpt>
      <trkpt lat="48.5728850" lon="7.7012940">
        <ele>145.7800000</ele>
        <time>2010-06-18T16:42:01Z</time>
      </trkpt>
      <trkpt lat="48.5728530" lon="7.7006610">
        <ele>145.7800000</ele>
        <time>2010-06-18T16:42:08Z</time>
      </trkpt>
      <trkpt lat="48.5728380" lon="7.7004570">
        <ele>145.3000000</ele>
        <time>2010-06-18T16:42:10Z</time>
      </trkpt>
      <trkpt lat="48.5728990" lon="7.6999560">
        <ele>145.7800000</ele>
        <time>2010-06-18T16:42:16Z</time>
      </trkpt>
      <trkpt lat="48.5734510" lon="7.6992400">
        <ele>145.7800000</ele>
        <time>2010-06-18T16:42:30Z</time>
      </trkpt>
      <trkpt lat="48.5734900" lon="7.6992000">
        <ele>145.3000000</ele>
        <time>2010-06-18T16:42:31Z</time>
      </trkpt>
      <trkpt lat="48.5738460" lon="7.6988300">
        <ele>145.7800000</ele>
        <time>2010-06-18T16:42:39Z</time>
      </trkpt>
      <trkpt lat="48.5747140" lon="7.6983800">
        <ele>145.7800000</ele>
        <time>2010-06-18T16:42:56Z</time>
      </trkpt>
      <trkpt lat="48.5752660" lon="7.6977690">
        <ele>145.7800000</ele>
        <time>2010-06-18T16:43:09Z</time>
      </trkpt>
      <trkpt lat="48.5756240" lon="7.6971970">
        <ele>145.7800000</ele>
        <time>2010-06-18T16:43:19Z</time>
      </trkpt>
      <trkpt lat="48.5756920" lon="7.6969710">
        <ele>145.7800000</ele>
        <time>2010-06-18T16:43:22Z</time>
      </trkpt>
      <trkpt lat="48.5757350" lon="7.6963550">
        <ele>145.7800000</ele>
        <time>2010-06-18T16:43:30Z</time>
      </trkpt>
      <trkpt lat="48.5754970" lon="7.6958240">
        <ele>143.8500000</ele>
        <time>2010-06-18T16:43:39Z</time>
      </trkpt>
      <trkpt lat="48.5752140" lon="7.6956360">
        <ele>144.3400000</ele>
        <time>2010-06-18T16:43:45Z</time>
      </trkpt>
      <trkpt lat="48.5743840" lon="7.6948470">
        <ele>144.8200000</ele>
        <time>2010-06-18T16:44:02Z</time>
      </trkpt>
      <trkpt lat="48.5743000" lon="7.6947210">
        <ele>144.3400000</ele>
        <time>2010-06-18T16:44:04Z</time>
      </trkpt>
      <trkpt lat="48.5741940" lon="7.6944290">
        <ele>144.3400000</ele>
        <time>2010-06-18T16:44:08Z</time>
      </trkpt>
      <trkpt lat="48.5741710" lon="7.6942900">
        <ele>144.3400000</ele>
        <time>2010-06-18T16:44:10Z</time>
      </trkpt>
      <trkpt lat="48.5742530" lon="7.6933170">
        <ele>144.3400000</ele>
        <time>2010-06-18T16:44:24Z</time>
      </trkpt>
      <trkpt lat="48.5743110" lon="7.6931380">
        <ele>144.3400000</ele>
        <time>2010-06-18T16:44:27Z</time>
      </trkpt>
      <trkpt lat="48.5744200" lon="7.6928860">
        <ele>144.3400000</ele>
        <time>2010-06-18T16:44:31Z</time>
      </trkpt>
      <trkpt lat="48.5744860" lon="7.6927560">
        <ele>143.8500000</ele>
        <time>2010-06-18T16:44:33Z</time>
      </trkpt>
      <trkpt lat="48.5746130" lon="7.6925660">
        <ele>144.3400000</ele>
        <time>2010-06-18T16:44:36Z</time>
      </trkpt>
      <trkpt lat="48.5747420" lon="7.6921100">
        <ele>145.3000000</ele>
        <time>2010-06-18T16:44:42Z</time>
      </trkpt>
      <trkpt lat="48.5746600" lon="7.6917700">
        <ele>145.7800000</ele>
        <time>2010-06-18T16:44:47Z</time>
      </trkpt>
      <trkpt lat="48.5745660" lon="7.6916120">
        <ele>145.3000000</ele>
        <time>2010-06-18T16:44:50Z</time>
      </trkpt>
      <trkpt lat="48.5744950" lon="7.6915130">
        <ele>145.3000000</ele>
        <time>2010-06-18T16:44:52Z</time>
      </trkpt>
      <trkpt lat="48.5743930" lon="7.6913400">
        <ele>145.3000000</ele>
        <time>2010-06-18T16:44:55Z</time>
      </trkpt>
      <trkpt lat="48.5743390" lon="7.6910520">
        <ele>145.7800000</ele>
        <time>2010-06-18T16:44:59Z</time>
      </trkpt>
      <trkpt lat="48.5743710" lon="7.6905660">
        <ele>145.7800000</ele>
        <time>2010-06-18T16:45:06Z</time>
      </trkpt>
      <trkpt lat="48.5745140" lon="7.6891310">
        <ele>145.7800000</ele>
        <time>2010-06-18T16:45:25Z</time>
      </trkpt>
      <trkpt lat="48.5745220" lon="7.6890570">
        <ele>145.7800000</ele>
        <time>2010-06-18T16:45:26Z</time>
      </trkpt>
      <trkpt lat="48.5746420" lon="7.6880070">
        <ele>145.7800000</ele>
        <time>2010-06-18T16:45:40Z</time>
      </trkpt>
      <trkpt lat="48.5746560" lon="7.6877890">
        <ele>145.7800000</ele>
        <time>2010-06-18T16:45:43Z</time>
      </trkpt>
      <trkpt lat="48.5746980" lon="7.6875060">
        <ele>145.7800000</ele>
        <time>2010-06-18T16:45:47Z</time>
      </trkpt>
      <trkpt lat="48.5747280" lon="7.6870200">
        <ele>146.2600000</ele>
        <time>2010-06-18T16:45:58Z</time>
      </trkpt>
      <trkpt lat="48.5747460" lon="7.6867380">
        <ele>146.2600000</ele>
        <time>2010-06-18T16:46:27Z</time>
      </trkpt>
      <trkpt lat="48.5748530" lon="7.6858590">
        <ele>146.7400000</ele>
        <time>2010-06-18T16:46:41Z</time>
      </trkpt>
      <trkpt lat="48.5749620" lon="7.6847610">
        <ele>145.7800000</ele>
        <time>2010-06-18T16:46:55Z</time>
      </trkpt>
      <trkpt lat="48.5750470" lon="7.6843540">
        <ele>146.2600000</ele>
        <time>2010-06-18T16:47:00Z</time>
      </trkpt>
      <trkpt lat="48.5755520" lon="7.6831410">
        <ele>146.7400000</ele>
        <time>2010-06-18T16:47:17Z</time>
      </trkpt>
      <trkpt lat="48.5759180" lon="7.6822650">
        <ele>146.7400000</ele>
        <time>2010-06-18T16:47:30Z</time>
      </trkpt>
      <trkpt lat="48.5763980" lon="7.6811670">
        <ele>146.2600000</ele>
        <time>2010-06-18T16:47:45Z</time>
      </trkpt>
      <trkpt lat="48.5768070" lon="7.6802100">
        <ele>146.7400000</ele>
        <time>2010-06-18T16:47:58Z</time>
      </trkpt>
      <trkpt lat="48.5769230" lon="7.6798950">
        <ele>146.7400000</ele>
        <time>2010-06-18T16:48:02Z</time>
      </trkpt>
      <trkpt lat="48.5772050" lon="7.6786570">
        <ele>146.7400000</ele>
        <time>2010-06-18T16:48:17Z</time>
      </trkpt>
      <trkpt lat="48.5774660" lon="7.6774330">
        <ele>148.1800000</ele>
        <time>2010-06-18T16:48:33Z</time>
      </trkpt>
      <trkpt lat="48.5777360" lon="7.6762030">
        <ele>148.1800000</ele>
        <time>2010-06-18T16:48:49Z</time>
      </trkpt>
      <trkpt lat="48.5781070" lon="7.6745490">
        <ele>148.1800000</ele>
        <time>2010-06-18T16:49:09Z</time>
      </trkpt>
      <trkpt lat="48.5784820" lon="7.6728160">
        <ele>148.1800000</ele>
        <time>2010-06-18T16:49:29Z</time>
      </trkpt>
      <trkpt lat="48.5787750" lon="7.6712960">
        <ele>148.1800000</ele>
        <time>2010-06-18T16:49:46Z</time>
      </trkpt>
      <trkpt lat="48.5790740" lon="7.6699940">
        <ele>148.1800000</ele>
        <time>2010-06-18T16:50:02Z</time>
      </trkpt>
      <trkpt lat="48.5793570" lon="7.6686940">
        <ele>148.1800000</ele>
        <time>2010-06-18T16:50:19Z</time>
      </trkpt>
      <trkpt lat="48.5795920" lon="7.6675980">
        <ele>148.6600000</ele>
        <time>2010-06-18T16:50:33Z</time>
      </trkpt>
      <trkpt lat="48.5796280" lon="7.6674360">
        <ele>148.6600000</ele>
        <time>2010-06-18T16:50:35Z</time>
      </trkpt>
      <trkpt lat="48.5797720" lon="7.6666920">
        <ele>149.1400000</ele>
        <time>2010-06-18T16:50:46Z</time>
      </trkpt>
      <trkpt lat="48.5798610" lon="7.6663610">
        <ele>149.6200000</ele>
        <time>2010-06-18T16:50:53Z</time>
      </trkpt>
      <trkpt lat="48.5801260" lon="7.6653180">
        <ele>148.6600000</ele>
        <time>2010-06-18T16:51:08Z</time>
      </trkpt>
      <trkpt lat="48.5804590" lon="7.6639170">
        <ele>148.6600000</ele>
        <time>2010-06-18T16:51:27Z</time>
      </trkpt>
      <trkpt lat="48.5804820" lon="7.6634910">
        <ele>148.1800000</ele>
        <time>2010-06-18T16:51:34Z</time>
      </trkpt>
      <trkpt lat="48.5803310" lon="7.6622180">
        <ele>148.6600000</ele>
        <time>2010-06-18T16:51:50Z</time>
      </trkpt>
      <trkpt lat="48.5802440" lon="7.6614650">
        <ele>148.6600000</ele>
        <time>2010-06-18T16:51:59Z</time>
      </trkpt>
      <trkpt lat="48.5802000" lon="7.6612310">
        <ele>149.1400000</ele>
        <time>2010-06-18T16:52:02Z</time>
      </trkpt>
      <trkpt lat="48.5797140" lon="7.6602850">
        <ele>148.1800000</ele>
        <time>2010-06-18T16:52:15Z</time>
      </trkpt>
      <trkpt lat="48.5796200" lon="7.6600610">
        <ele>148.1800000</ele>
        <time>2010-06-18T16:52:18Z</time>
      </trkpt>
      <trkpt lat="48.5794420" lon="7.6594770">
        <ele>148.6600000</ele>
        <time>2010-06-18T16:52:25Z</time>
      </trkpt>
      <trkpt lat="48.5794700" lon="7.6584600">
        <ele>148.6600000</ele>
        <time>2010-06-18T16:52:37Z</time>
      </trkpt>
      <trkpt lat="48.5793380" lon="7.6578370">
        <ele>148.1800000</ele>
        <time>2010-06-18T16:52:45Z</time>
      </trkpt>
      <trkpt lat="48.5793340" lon="7.6575230">
        <ele>148.1800000</ele>
        <time>2010-06-18T16:52:49Z</time>
      </trkpt>
      <trkpt lat="48.5796150" lon="7.6566050">
        <ele>148.6600000</ele>
        <time>2010-06-18T16:53:01Z</time>
      </trkpt>
      <trkpt lat="48.5796180" lon="7.6553780">
        <ele>148.1800000</ele>
        <time>2010-06-18T16:53:15Z</time>
      </trkpt>
      <trkpt lat="48.5793330" lon="7.6545040">
        <ele>148.6600000</ele>
        <time>2010-06-18T16:53:26Z</time>
      </trkpt>
      <trkpt lat="48.5792900" lon="7.6541600">
        <ele>148.6600000</ele>
        <time>2010-06-18T16:53:30Z</time>
      </trkpt>
      <trkpt lat="48.5793750" lon="7.6533690">
        <ele>148.6600000</ele>
        <time>2010-06-18T16:53:39Z</time>
      </trkpt>
      <trkpt lat="48.5795320" lon="7.6518120">
        <ele>149.6200000</ele>
        <time>2010-06-18T16:53:57Z</time>
      </trkpt>
      <trkpt lat="48.5795840" lon="7.6513260">
        <ele>151.0600000</ele>
        <time>2010-06-18T16:54:03Z</time>
      </trkpt>
      <trkpt lat="48.5797180" lon="7.6498680">
        <ele>150.5800000</ele>
        <time>2010-06-18T16:54:20Z</time>
      </trkpt>
      <trkpt lat="48.5798450" lon="7.6485820">
        <ele>150.1000000</ele>
        <time>2010-06-18T16:54:36Z</time>
      </trkpt>
      <trkpt lat="48.5798680" lon="7.6483630">
        <ele>150.1000000</ele>
        <time>2010-06-18T16:54:39Z</time>
      </trkpt>
      <trkpt lat="48.5799950" lon="7.6472080">
        <ele>150.5800000</ele>
        <time>2010-06-18T16:54:54Z</time>
      </trkpt>
      <trkpt lat="48.5800730" lon="7.6463230">
        <ele>152.5100000</ele>
        <time>2010-06-18T16:55:08Z</time>
      </trkpt>
      <trkpt lat="48.5801190" lon="7.6458270">
        <ele>151.0600000</ele>
        <time>2010-06-18T16:55:16Z</time>
      </trkpt>
      <trkpt lat="48.5801280" lon="7.6456560">
        <ele>150.5800000</ele>
        <time>2010-06-18T16:55:18Z</time>
      </trkpt>
      <trkpt lat="48.5802520" lon="7.6445130">
        <ele>151.0600000</ele>
        <time>2010-06-18T16:55:31Z</time>
      </trkpt>
      <trkpt lat="48.5803830" lon="7.6433170">
        <ele>151.0600000</ele>
        <time>2010-06-18T16:55:45Z</time>
      </trkpt>
      <trkpt lat="48.5804180" lon="7.6430600">
        <ele>150.5800000</ele>
        <time>2010-06-18T16:55:48Z</time>
      </trkpt>
      <trkpt lat="48.5804190" lon="7.6418140">
        <ele>150.5800000</ele>
        <time>2010-06-18T16:56:01Z</time>
      </trkpt>
      <trkpt lat="48.5803930" lon="7.6405620">
        <ele>151.0600000</ele>
        <time>2010-06-18T16:56:14Z</time>
      </trkpt>
      <trkpt lat="48.5803670" lon="7.6389160">
        <ele>150.5800000</ele>
        <time>2010-06-18T16:56:30Z</time>
      </trkpt>
      <trkpt lat="48.5803620" lon="7.6387180">
        <ele>150.1000000</ele>
        <time>2010-06-18T16:56:32Z</time>
      </trkpt>
      <trkpt lat="48.5802340" lon="7.6377000">
        <ele>150.1000000</ele>
        <time>2010-06-18T16:56:43Z</time>
      </trkpt>
      <trkpt lat="48.5802920" lon="7.6371130">
        <ele>149.6200000</ele>
        <time>2010-06-18T16:56:49Z</time>
      </trkpt>
      <trkpt lat="48.5802820" lon="7.6354270">
        <ele>149.1400000</ele>
        <time>2010-06-18T16:57:05Z</time>
      </trkpt>
      <trkpt lat="48.5803250" lon="7.6348550">
        <ele>149.6200000</ele>
        <time>2010-06-18T16:57:11Z</time>
      </trkpt>
      <trkpt lat="48.5805260" lon="7.6343200">
        <ele>150.1000000</ele>
        <time>2010-06-18T16:57:17Z</time>
      </trkpt>
      <trkpt lat="48.5807660" lon="7.6339040">
        <ele>150.1000000</ele>
        <time>2010-06-18T16:57:23Z</time>
      </trkpt>
      <trkpt lat="48.5807410" lon="7.6332730">
        <ele>150.5800000</ele>
        <time>2010-06-18T16:57:31Z</time>
      </trkpt>
      <trkpt lat="48.5806960" lon="7.6332080">
        <ele>150.5800000</ele>
        <time>2010-06-18T16:57:32Z</time>
      </trkpt>
      <trkpt lat="48.5797880" lon="7.6321970">
        <ele>150.5800000</ele>
        <time>2010-06-18T16:57:49Z</time>
      </trkpt>
      <trkpt lat="48.5789440" lon="7.6313280">
        <ele>150.5800000</ele>
        <time>2010-06-18T16:58:05Z</time>
      </trkpt>
      <trkpt lat="48.5779970" lon="7.6303110">
        <ele>151.0600000</ele>
        <time>2010-06-18T16:58:24Z</time>
      </trkpt>
      <trkpt lat="48.5774680" lon="7.6297430">
        <ele>151.0600000</ele>
        <time>2010-06-18T16:58:36Z</time>
      </trkpt>
      <trkpt lat="48.5770890" lon="7.6293330">
        <ele>151.0600000</ele>
        <time>2010-06-18T16:58:45Z</time>
      </trkpt>
      <trkpt lat="48.5764050" lon="7.6287240">
        <ele>152.0300000</ele>
        <time>2010-06-18T16:59:01Z</time>
      </trkpt>
      <trkpt lat="48.5762220" lon="7.6285950">
        <ele>152.9900000</ele>
        <time>2010-06-18T16:59:11Z</time>
      </trkpt>
      <trkpt lat="48.5758380" lon="7.6283100">
        <ele>151.0600000</ele>
        <time>2010-06-18T16:59:23Z</time>
      </trkpt>
      <trkpt lat="48.5754740" lon="7.6280970">
        <ele>151.5400000</ele>
        <time>2010-06-18T16:59:35Z</time>
      </trkpt>
      <trkpt lat="48.5754690" lon="7.6280960">
        <ele>151.0600000</ele>
        <time>2010-06-18T16:59:47Z</time>
      </trkpt>
      <trkpt lat="48.5754580" lon="7.6281080">
        <ele>149.6200000</ele>
        <time>2010-06-18T17:09:29Z</time>
      </trkpt>
      <trkpt lat="48.5754510" lon="7.6280590">
        <ele>150.1000000</ele>
        <time>2010-06-18T17:09:36Z</time>
      </trkpt>
      <trkpt lat="48.5754480" lon="7.6280180">
        <ele>150.1000000</ele>
        <time>2010-06-18T17:09:38Z</time>
      </trkpt>
      <trkpt lat="48.5753040" lon="7.6276780">
        <ele>150.1000000</ele>
        <time>2010-06-18T17:09:51Z</time>
      </trkpt>
      <trkpt lat="48.5749320" lon="7.6269860">
        <ele>150.1000000</ele>
        <time>2010-06-18T17:10:07Z</time>
      </trkpt>
      <trkpt lat="48.5743370" lon="7.6266600">
        <ele>149.6200000</ele>
        <time>2010-06-18T17:10:20Z</time>
      </trkpt>
      <trkpt lat="48.5734440" lon="7.6262740">
        <ele>149.6200000</ele>
        <time>2010-06-18T17:10:37Z</time>
      </trkpt>
      <trkpt lat="48.5726960" lon="7.6259350">
        <ele>149.6200000</ele>
        <time>2010-06-18T17:10:51Z</time>
      </trkpt>
      <trkpt lat="48.5719640" lon="7.6255880">
        <ele>150.5800000</ele>
        <time>2010-06-18T17:11:05Z</time>
      </trkpt>
      <trkpt lat="48.5709050" lon="7.6250940">
        <ele>151.5400000</ele>
        <time>2010-06-18T17:11:26Z</time>
      </trkpt>
      <trkpt lat="48.5708560" lon="7.6250580">
        <ele>151.5400000</ele>
        <time>2010-06-18T17:11:27Z</time>
      </trkpt>
      <trkpt lat="48.5706810" lon="7.6248520">
        <ele>152.0300000</ele>
        <time>2010-06-18T17:11:31Z</time>
      </trkpt>
      <trkpt lat="48.5705320" lon="7.6246120">
        <ele>152.0300000</ele>
        <time>2010-06-18T17:11:35Z</time>
      </trkpt>
      <trkpt lat="48.5701070" lon="7.6238710">
        <ele>152.0300000</ele>
        <time>2010-06-18T17:11:47Z</time>
      </trkpt>
      <trkpt lat="48.5695920" lon="7.6231260">
        <ele>150.1000000</ele>
        <time>2010-06-18T17:12:00Z</time>
      </trkpt>
      <trkpt lat="48.5694310" lon="7.6229200">
        <ele>150.1000000</ele>
        <time>2010-06-18T17:12:04Z</time>
      </trkpt>
      <trkpt lat="48.5692010" lon="7.6227500">
        <ele>150.5800000</ele>
        <time>2010-06-18T17:12:08Z</time>
      </trkpt>
      <trkpt lat="48.5689350" lon="7.6225890">
        <ele>151.0600000</ele>
        <time>2010-06-18T17:12:13Z</time>
      </trkpt>
      <trkpt lat="48.5685860" lon="7.6223460">
        <ele>151.0600000</ele>
        <time>2010-06-18T17:12:20Z</time>
      </trkpt>
      <trkpt lat="48.5683670" lon="7.6222320">
        <ele>150.5800000</ele>
        <time>2010-06-18T17:12:24Z</time>
      </trkpt>
      <trkpt lat="48.5677510" lon="7.6218650">
        <ele>150.5800000</ele>
        <time>2010-06-18T17:12:36Z</time>
      </trkpt>
      <trkpt lat="48.5672460" lon="7.6212170">
        <ele>151.0600000</ele>
        <time>2010-06-18T17:12:49Z</time>
      </trkpt>
      <trkpt lat="48.5665670" lon="7.6206120">
        <ele>151.5400000</ele>
        <time>2010-06-18T17:13:03Z</time>
      </trkpt>
      <trkpt lat="48.5658460" lon="7.6200520">
        <ele>151.0600000</ele>
        <time>2010-06-18T17:13:18Z</time>
      </trkpt>
      <trkpt lat="48.5651870" lon="7.6195420">
        <ele>150.5800000</ele>
        <time>2010-06-18T17:13:32Z</time>
      </trkpt>
      <trkpt lat="48.5644020" lon="7.6189430">
        <ele>151.5400000</ele>
        <time>2010-06-18T17:13:49Z</time>
      </trkpt>
      <trkpt lat="48.5638630" lon="7.6183830">
        <ele>152.0300000</ele>
        <time>2010-06-18T17:14:02Z</time>
      </trkpt>
      <trkpt lat="48.5637720" lon="7.6183190">
        <ele>152.5100000</ele>
        <time>2010-06-18T17:14:04Z</time>
      </trkpt>
      <trkpt lat="48.5635130" lon="7.6181920">
        <ele>150.5800000</ele>
        <time>2010-06-18T17:14:09Z</time>
      </trkpt>
      <trkpt lat="48.5631860" lon="7.6181480">
        <ele>150.5800000</ele>
        <time>2010-06-18T17:14:15Z</time>
      </trkpt>
      <trkpt lat="48.5630370" lon="7.6182070">
        <ele>151.0600000</ele>
        <time>2010-06-18T17:14:18Z</time>
      </trkpt>
      <trkpt lat="48.5628130" lon="7.6184310">
        <ele>151.0600000</ele>
        <time>2010-06-18T17:14:23Z</time>
      </trkpt>
      <trkpt lat="48.5619950" lon="7.6189850">
        <ele>151.5400000</ele>
        <time>2010-06-18T17:14:39Z</time>
      </trkpt>
      <trkpt lat="48.5616510" lon="7.6190920">
        <ele>152.0300000</ele>
        <time>2010-06-18T17:14:45Z</time>
      </trkpt>
      <trkpt lat="48.5614180" lon="7.6190820">
        <ele>152.5100000</ele>
        <time>2010-06-18T17:14:49Z</time>
      </trkpt>
      <trkpt lat="48.5608420" lon="7.6189080">
        <ele>152.5100000</ele>
        <time>2010-06-18T17:14:59Z</time>
      </trkpt>
      <trkpt lat="48.5600130" lon="7.6190140">
        <ele>152.9900000</ele>
        <time>2010-06-18T17:15:13Z</time>
      </trkpt>
      <trkpt lat="48.5591250" lon="7.6187770">
        <ele>153.4700000</ele>
        <time>2010-06-18T17:15:29Z</time>
      </trkpt>
      <trkpt lat="48.5582740" lon="7.6182890">
        <ele>153.9500000</ele>
        <time>2010-06-18T17:15:46Z</time>
      </trkpt>
      <trkpt lat="48.5572590" lon="7.6176730">
        <ele>153.4700000</ele>
        <time>2010-06-18T17:16:05Z</time>
      </trkpt>
      <trkpt lat="48.5567290" lon="7.6173880">
        <ele>154.9100000</ele>
        <time>2010-06-18T17:16:16Z</time>
      </trkpt>
      <trkpt lat="48.5565240" lon="7.6173650">
        <ele>154.9100000</ele>
        <time>2010-06-18T17:16:23Z</time>
      </trkpt>
      <trkpt lat="48.5561500" lon="7.6169260">
        <ele>153.9500000</ele>
        <time>2010-06-18T17:16:32Z</time>
      </trkpt>
      <trkpt lat="48.5560150" lon="7.6166490">
        <ele>153.9500000</ele>
        <time>2010-06-18T17:16:36Z</time>
      </trkpt>
      <trkpt lat="48.5558000" lon="7.6159640">
        <ele>153.9500000</ele>
        <time>2010-06-18T17:16:45Z</time>
      </trkpt>
      <trkpt lat="48.5552990" lon="7.6149400">
        <ele>153.4700000</ele>
        <time>2010-06-18T17:17:00Z</time>
      </trkpt>
      <trkpt lat="48.5549610" lon="7.6138230">
        <ele>153.9500000</ele>
        <time>2010-06-18T17:17:15Z</time>
      </trkpt>
      <trkpt lat="48.5545750" lon="7.6123430">
        <ele>153.9500000</ele>
        <time>2010-06-18T17:17:34Z</time>
      </trkpt>
      <trkpt lat="48.5542090" lon="7.6110360">
        <ele>154.4300000</ele>
        <time>2010-06-18T17:17:51Z</time>
      </trkpt>
      <trkpt lat="48.5539180" lon="7.6098160">
        <ele>155.3900000</ele>
        <time>2010-06-18T17:18:07Z</time>
      </trkpt>
      <trkpt lat="48.5538000" lon="7.6084150">
        <ele>155.8700000</ele>
        <time>2010-06-18T17:18:25Z</time>
      </trkpt>
      <trkpt lat="48.5537660" lon="7.6070760">
        <ele>155.3900000</ele>
        <time>2010-06-18T17:18:41Z</time>
      </trkpt>
      <trkpt lat="48.5537610" lon="7.6069920">
        <ele>155.3900000</ele>
        <time>2010-06-18T17:18:42Z</time>
      </trkpt>
      <trkpt lat="48.5537280" lon="7.6065900">
        <ele>156.3500000</ele>
        <time>2010-06-18T17:18:47Z</time>
      </trkpt>
      <trkpt lat="48.5537730" lon="7.6060270">
        <ele>156.3500000</ele>
        <time>2010-06-18T17:18:54Z</time>
      </trkpt>
      <trkpt lat="48.5537590" lon="7.6045910">
        <ele>154.9100000</ele>
        <time>2010-06-18T17:19:10Z</time>
      </trkpt>
      <trkpt lat="48.5537940" lon="7.6038000">
        <ele>154.9100000</ele>
        <time>2010-06-18T17:19:19Z</time>
      </trkpt>
      <trkpt lat="48.5538790" lon="7.6025030">
        <ele>154.9100000</ele>
        <time>2010-06-18T17:19:34Z</time>
      </trkpt>
      <trkpt lat="48.5539670" lon="7.6013340">
        <ele>154.9100000</ele>
        <time>2010-06-18T17:19:48Z</time>
      </trkpt>
      <trkpt lat="48.5539970" lon="7.6007250">
        <ele>155.3900000</ele>
        <time>2010-06-18T17:19:55Z</time>
      </trkpt>
      <trkpt lat="48.5539710" lon="7.6003660">
        <ele>155.3900000</ele>
        <time>2010-06-18T17:19:59Z</time>
      </trkpt>
      <trkpt lat="48.5538240" lon="7.5995770">
        <ele>155.3900000</ele>
        <time>2010-06-18T17:20:08Z</time>
      </trkpt>
      <trkpt lat="48.5537650" lon="7.5986330">
        <ele>156.3500000</ele>
        <time>2010-06-18T17:20:19Z</time>
      </trkpt>
      <trkpt lat="48.5536220" lon="7.5981470">
        <ele>156.3500000</ele>
        <time>2010-06-18T17:20:25Z</time>
      </trkpt>
      <trkpt lat="48.5529500" lon="7.5971160">
        <ele>156.3500000</ele>
        <time>2010-06-18T17:20:41Z</time>
      </trkpt>
      <trkpt lat="48.5527680" lon="7.5967900">
        <ele>156.3500000</ele>
        <time>2010-06-18T17:20:46Z</time>
      </trkpt>
      <trkpt lat="48.5526800" lon="7.5964130">
        <ele>156.8300000</ele>
        <time>2010-06-18T17:20:51Z</time>
      </trkpt>
      <trkpt lat="48.5527070" lon="7.5949300">
        <ele>157.3100000</ele>
        <time>2010-06-18T17:21:09Z</time>
      </trkpt>
      <trkpt lat="48.5528560" lon="7.5937840">
        <ele>157.7900000</ele>
        <time>2010-06-18T17:21:24Z</time>
      </trkpt>
      <trkpt lat="48.5529980" lon="7.5929050">
        <ele>157.7900000</ele>
        <time>2010-06-18T17:21:35Z</time>
      </trkpt>
      <trkpt lat="48.5535750" lon="7.5919950">
        <ele>157.7900000</ele>
        <time>2010-06-18T17:21:50Z</time>
      </trkpt>
      <trkpt lat="48.5545040" lon="7.5907120">
        <ele>157.7900000</ele>
        <time>2010-06-18T17:22:12Z</time>
      </trkpt>
      <trkpt lat="48.5547850" lon="7.5903080">
        <ele>158.2700000</ele>
        <time>2010-06-18T17:22:19Z</time>
      </trkpt>
      <trkpt lat="48.5549710" lon="7.5898880">
        <ele>159.7200000</ele>
        <time>2010-06-18T17:22:29Z</time>
      </trkpt>
      <trkpt lat="48.5550660" lon="7.5897130">
        <ele>158.2700000</ele>
        <time>2010-06-18T17:22:32Z</time>
      </trkpt>
      <trkpt lat="48.5556520" lon="7.5888060">
        <ele>158.2700000</ele>
        <time>2010-06-18T17:22:47Z</time>
      </trkpt>
      <trkpt lat="48.5561070" lon="7.5877530">
        <ele>158.2700000</ele>
        <time>2010-06-18T17:23:02Z</time>
      </trkpt>
      <trkpt lat="48.5564890" lon="7.5866260">
        <ele>158.2700000</ele>
        <time>2010-06-18T17:23:17Z</time>
      </trkpt>
      <trkpt lat="48.5567730" lon="7.5854100">
        <ele>158.7500000</ele>
        <time>2010-06-18T17:23:32Z</time>
      </trkpt>
      <trkpt lat="48.5571100" lon="7.5841390">
        <ele>157.7900000</ele>
        <time>2010-06-18T17:23:48Z</time>
      </trkpt>
      <trkpt lat="48.5573820" lon="7.5835720">
        <ele>157.7900000</ele>
        <time>2010-06-18T17:23:56Z</time>
      </trkpt>
      <trkpt lat="48.5580470" lon="7.5827590">
        <ele>157.3100000</ele>
        <time>2010-06-18T17:24:10Z</time>
      </trkpt>
      <trkpt lat="48.5581410" lon="7.5819990">
        <ele>156.8300000</ele>
        <time>2010-06-18T17:24:19Z</time>
      </trkpt>
      <trkpt lat="48.5577790" lon="7.5805130">
        <ele>157.7900000</ele>
        <time>2010-06-18T17:24:37Z</time>
      </trkpt>
      <trkpt lat="48.5574350" lon="7.5791410">
        <ele>159.2400000</ele>
        <time>2010-06-18T17:24:54Z</time>
      </trkpt>
      <trkpt lat="48.5569870" lon="7.5776130">
        <ele>159.2400000</ele>
        <time>2010-06-18T17:25:13Z</time>
      </trkpt>
      <trkpt lat="48.5567620" lon="7.5771830">
        <ele>159.7200000</ele>
        <time>2010-06-18T17:25:19Z</time>
      </trkpt>
      <trkpt lat="48.5566670" lon="7.5766180">
        <ele>160.2000000</ele>
        <time>2010-06-18T17:25:26Z</time>
      </trkpt>
      <trkpt lat="48.5569220" lon="7.5755960">
        <ele>160.2000000</ele>
        <time>2010-06-18T17:25:39Z</time>
      </trkpt>
      <trkpt lat="48.5573530" lon="7.5742730">
        <ele>159.7200000</ele>
        <time>2010-06-18T17:25:56Z</time>
      </trkpt>
      <trkpt lat="48.5576300" lon="7.5734530">
        <ele>160.2000000</ele>
        <time>2010-06-18T17:26:07Z</time>
      </trkpt>
      <trkpt lat="48.5577310" lon="7.5730790">
        <ele>159.7200000</ele>
        <time>2010-06-18T17:26:12Z</time>
      </trkpt>
      <trkpt lat="48.5577330" lon="7.5725320">
        <ele>159.7200000</ele>
        <time>2010-06-18T17:26:19Z</time>
      </trkpt>
      <trkpt lat="48.5577250" lon="7.5723070">
        <ele>159.7200000</ele>
        <time>2010-06-18T17:26:22Z</time>
      </trkpt>
      <trkpt lat="48.5578170" lon="7.5712700">
        <ele>159.2400000</ele>
        <time>2010-06-18T17:26:34Z</time>
      </trkpt>
      <trkpt lat="48.5581440" lon="7.5700000">
        <ele>160.2000000</ele>
        <time>2010-06-18T17:26:50Z</time>
      </trkpt>
      <trkpt lat="48.5584230" lon="7.5687440">
        <ele>160.2000000</ele>
        <time>2010-06-18T17:27:05Z</time>
      </trkpt>
      <trkpt lat="48.5585390" lon="7.5682520">
        <ele>160.2000000</ele>
        <time>2010-06-18T17:27:11Z</time>
      </trkpt>
      <trkpt lat="48.5588570" lon="7.5669350">
        <ele>160.6800000</ele>
        <time>2010-06-18T17:27:28Z</time>
      </trkpt>
      <trkpt lat="48.5589450" lon="7.5665210">
        <ele>162.1200000</ele>
        <time>2010-06-18T17:27:37Z</time>
      </trkpt>
      <trkpt lat="48.5590210" lon="7.5663470">
        <ele>162.1200000</ele>
        <time>2010-06-18T17:27:42Z</time>
      </trkpt>
      <trkpt lat="48.5596330" lon="7.5656120">
        <ele>160.6800000</ele>
        <time>2010-06-18T17:27:57Z</time>
      </trkpt>
      <trkpt lat="48.5603700" lon="7.5648310">
        <ele>160.6800000</ele>
        <time>2010-06-18T17:28:13Z</time>
      </trkpt>
      <trkpt lat="48.5611170" lon="7.5638470">
        <ele>161.1600000</ele>
        <time>2010-06-18T17:28:30Z</time>
      </trkpt>
      <trkpt lat="48.5616360" lon="7.5631630">
        <ele>161.1600000</ele>
        <time>2010-06-18T17:28:44Z</time>
      </trkpt>
      <trkpt lat="48.5616380" lon="7.5631630">
        <ele>161.1600000</ele>
        <time>2010-06-18T17:28:50Z</time>
      </trkpt>
      <trkpt lat="48.5615200" lon="7.5633280">
        <ele>161.1600000</ele>
        <time>2010-06-18T17:29:03Z</time>
      </trkpt>
      <trkpt lat="48.5615170" lon="7.5633300">
        <ele>161.1600000</ele>
        <time>2010-06-18T17:29:42Z</time>
      </trkpt>
      <trkpt lat="48.5615220" lon="7.5633310">
        <ele>161.6400000</ele>
        <time>2010-06-18T17:30:20Z</time>
      </trkpt>
      <trkpt lat="48.5615930" lon="7.5632570">
        <ele>161.6400000</ele>
        <time>2010-06-18T17:30:25Z</time>
      </trkpt>
      <trkpt lat="48.5620040" lon="7.5628490">
        <ele>161.6400000</ele>
        <time>2010-06-18T17:30:36Z</time>
      </trkpt>
      <trkpt lat="48.5623920" lon="7.5624720">
        <ele>161.6400000</ele>
        <time>2010-06-18T17:30:45Z</time>
      </trkpt>
      <trkpt lat="48.5625420" lon="7.5622530">
        <ele>161.6400000</ele>
        <time>2010-06-18T17:30:51Z</time>
      </trkpt>
      <trkpt lat="48.5625750" lon="7.5621930">
        <ele>161.1600000</ele>
        <time>2010-06-18T17:31:04Z</time>
      </trkpt>
      <trkpt lat="48.5626970" lon="7.5620070">
        <ele>161.6400000</ele>
        <time>2010-06-18T17:31:22Z</time>
      </trkpt>
      <trkpt lat="48.5630170" lon="7.5615390">
        <ele>161.1600000</ele>
        <time>2010-06-18T17:31:34Z</time>
      </trkpt>
      <trkpt lat="48.5635850" lon="7.5608170">
        <ele>161.6400000</ele>
        <time>2010-06-18T17:31:49Z</time>
      </trkpt>
      <trkpt lat="48.5637130" lon="7.5600190">
        <ele>161.6400000</ele>
        <time>2010-06-18T17:32:00Z</time>
      </trkpt>
      <trkpt lat="48.5637520" lon="7.5596080">
        <ele>161.6400000</ele>
        <time>2010-06-18T17:32:06Z</time>
      </trkpt>
      <trkpt lat="48.5637590" lon="7.5594790">
        <ele>161.6400000</ele>
        <time>2010-06-18T17:32:08Z</time>
      </trkpt>
      <trkpt lat="48.5637790" lon="7.5592200">
        <ele>162.1200000</ele>
        <time>2010-06-18T17:32:12Z</time>
      </trkpt>
      <trkpt lat="48.5638150" lon="7.5585470">
        <ele>161.6400000</ele>
        <time>2010-06-18T17:32:21Z</time>
      </trkpt>
      <trkpt lat="48.5637120" lon="7.5571230">
        <ele>162.6000000</ele>
        <time>2010-06-18T17:32:38Z</time>
      </trkpt>
      <trkpt lat="48.5637440" lon="7.5567900">
        <ele>162.1200000</ele>
        <time>2010-06-18T17:32:42Z</time>
      </trkpt>
      <trkpt lat="48.5638310" lon="7.5564690">
        <ele>162.6000000</ele>
        <time>2010-06-18T17:32:46Z</time>
      </trkpt>
      <trkpt lat="48.5642250" lon="7.5554480">
        <ele>162.6000000</ele>
        <time>2010-06-18T17:33:00Z</time>
      </trkpt>
      <trkpt lat="48.5647360" lon="7.5542440">
        <ele>163.0800000</ele>
        <time>2010-06-18T17:33:17Z</time>
      </trkpt>
      <trkpt lat="48.5651640" lon="7.5531710">
        <ele>163.5600000</ele>
        <time>2010-06-18T17:33:31Z</time>
      </trkpt>
      <trkpt lat="48.5652250" lon="7.5528510">
        <ele>163.0800000</ele>
        <time>2010-06-18T17:33:35Z</time>
      </trkpt>
      <trkpt lat="48.5653120" lon="7.5516710">
        <ele>163.0800000</ele>
        <time>2010-06-18T17:33:48Z</time>
      </trkpt>
      <trkpt lat="48.5655450" lon="7.5507750">
        <ele>162.6000000</ele>
        <time>2010-06-18T17:33:59Z</time>
      </trkpt>
      <trkpt lat="48.5657240" lon="7.5504480">
        <ele>163.0800000</ele>
        <time>2010-06-18T17:34:04Z</time>
      </trkpt>
      <trkpt lat="48.5663660" lon="7.5498010">
        <ele>162.6000000</ele>
        <time>2010-06-18T17:34:17Z</time>
      </trkpt>
      <trkpt lat="48.5670600" lon="7.5488120">
        <ele>163.0800000</ele>
        <time>2010-06-18T17:34:33Z</time>
      </trkpt>
      <trkpt lat="48.5674870" lon="7.5478470">
        <ele>164.0400000</ele>
        <time>2010-06-18T17:34:47Z</time>
      </trkpt>
      <trkpt lat="48.5676200" lon="7.5467500">
        <ele>164.0400000</ele>
        <time>2010-06-18T17:35:01Z</time>
      </trkpt>
      <trkpt lat="48.5676290" lon="7.5465740">
        <ele>164.0400000</ele>
        <time>2010-06-18T17:35:03Z</time>
      </trkpt>
      <trkpt lat="48.5676340" lon="7.5452280">
        <ele>164.0400000</ele>
        <time>2010-06-18T17:35:18Z</time>
      </trkpt>
      <trkpt lat="48.5676280" lon="7.5441210">
        <ele>163.5600000</ele>
        <time>2010-06-18T17:35:30Z</time>
      </trkpt>
      <trkpt lat="48.5676030" lon="7.5428510">
        <ele>164.0400000</ele>
        <time>2010-06-18T17:35:44Z</time>
      </trkpt>
      <trkpt lat="48.5675460" lon="7.5422230">
        <ele>164.0400000</ele>
        <time>2010-06-18T17:35:51Z</time>
      </trkpt>
      <trkpt lat="48.5674990" lon="7.5418690">
        <ele>164.0400000</ele>
        <time>2010-06-18T17:35:55Z</time>
      </trkpt>
      <trkpt lat="48.5674040" lon="7.5404770">
        <ele>164.0400000</ele>
        <time>2010-06-18T17:36:10Z</time>
      </trkpt>
      <trkpt lat="48.5673790" lon="7.5402190">
        <ele>164.0400000</ele>
        <time>2010-06-18T17:36:13Z</time>
      </trkpt>
      <trkpt lat="48.5674010" lon="7.5387900">
        <ele>163.5600000</ele>
        <time>2010-06-18T17:36:28Z</time>
      </trkpt>
      <trkpt lat="48.5672110" lon="7.5375500">
        <ele>163.5600000</ele>
        <time>2010-06-18T17:36:42Z</time>
      </trkpt>
      <trkpt lat="48.5668890" lon="7.5364050">
        <ele>164.0400000</ele>
        <time>2010-06-18T17:36:56Z</time>
      </trkpt>
      <trkpt lat="48.5666780" lon="7.5349510">
        <ele>163.5600000</ele>
        <time>2010-06-18T17:37:12Z</time>
      </trkpt>
      <trkpt lat="48.5665690" lon="7.5339800">
        <ele>165.4800000</ele>
        <time>2010-06-18T17:37:25Z</time>
      </trkpt>
      <trkpt lat="48.5665600" lon="7.5331520">
        <ele>165.9600000</ele>
        <time>2010-06-18T17:37:39Z</time>
      </trkpt>
      <trkpt lat="48.5666090" lon="7.5323410">
        <ele>165.0000000</ele>
        <time>2010-06-18T17:37:50Z</time>
      </trkpt>
      <trkpt lat="48.5666620" lon="7.5319090">
        <ele>164.5200000</ele>
        <time>2010-06-18T17:37:55Z</time>
      </trkpt>
      <trkpt lat="48.5667770" lon="7.5306590">
        <ele>164.5200000</ele>
        <time>2010-06-18T17:38:09Z</time>
      </trkpt>
      <trkpt lat="48.5668450" lon="7.5299530">
        <ele>165.0000000</ele>
        <time>2010-06-18T17:38:17Z</time>
      </trkpt>
      <trkpt lat="48.5669140" lon="7.5293290">
        <ele>165.4800000</ele>
        <time>2010-06-18T17:38:25Z</time>
      </trkpt>
      <trkpt lat="48.5669650" lon="7.5286710">
        <ele>165.9600000</ele>
        <time>2010-06-18T17:38:38Z</time>
      </trkpt>
      <trkpt lat="48.5668830" lon="7.5286500">
        <ele>165.4800000</ele>
        <time>2010-06-18T17:38:42Z</time>
      </trkpt>
      <trkpt lat="48.5665890" lon="7.5287440">
        <ele>165.0000000</ele>
        <time>2010-06-18T17:38:50Z</time>
      </trkpt>
      <trkpt lat="48.5663760" lon="7.5289730">
        <ele>165.0000000</ele>
        <time>2010-06-18T17:38:59Z</time>
      </trkpt>
      <trkpt lat="48.5661240" lon="7.5291270">
        <ele>165.0000000</ele>
        <time>2010-06-18T17:39:08Z</time>
      </trkpt>
      <trkpt lat="48.5656020" lon="7.5292230">
        <ele>165.0000000</ele>
        <time>2010-06-18T17:39:21Z</time>
      </trkpt>
      <trkpt lat="48.5652180" lon="7.5293700">
        <ele>165.9600000</ele>
        <time>2010-06-18T17:39:30Z</time>
      </trkpt>
      <trkpt lat="48.5647250" lon="7.5294130">
        <ele>165.9600000</ele>
        <time>2010-06-18T17:39:43Z</time>
      </trkpt>
      <trkpt lat="48.5643670" lon="7.5295660">
        <ele>166.4500000</ele>
        <time>2010-06-18T17:39:53Z</time>
      </trkpt>
      <trkpt lat="48.5643140" lon="7.5295730">
        <ele>165.9600000</ele>
        <time>2010-06-18T17:39:55Z</time>
      </trkpt>
      <trkpt lat="48.5642880" lon="7.5295860">
        <ele>164.5200000</ele>
        <time>2010-06-18T17:40:18Z</time>
      </trkpt>
      <trkpt lat="48.5640930" lon="7.5296440">
        <ele>164.5200000</ele>
        <time>2010-06-18T17:41:26Z</time>
      </trkpt>
      <trkpt lat="48.5639110" lon="7.5297230">
        <ele>164.0400000</ele>
        <time>2010-06-18T17:41:31Z</time>
      </trkpt>
      <trkpt lat="48.5634550" lon="7.5299370">
        <ele>164.5200000</ele>
        <time>2010-06-18T17:41:41Z</time>
      </trkpt>
      <trkpt lat="48.5632630" lon="7.5299830">
        <ele>164.0400000</ele>
        <time>2010-06-18T17:41:45Z</time>
      </trkpt>
      <trkpt lat="48.5623470" lon="7.5301740">
        <ele>164.5200000</ele>
        <time>2010-06-18T17:42:04Z</time>
      </trkpt>
      <trkpt lat="48.5622190" lon="7.5301930">
        <ele>165.0000000</ele>
        <time>2010-06-18T17:42:07Z</time>
      </trkpt>
      <trkpt lat="48.5617880" lon="7.5301830">
        <ele>166.9300000</ele>
        <time>2010-06-18T17:42:18Z</time>
      </trkpt>
      <trkpt lat="48.5617070" lon="7.5301430">
        <ele>166.4500000</ele>
        <time>2010-06-18T17:42:20Z</time>
      </trkpt>
      <trkpt lat="48.5610490" lon="7.5298820">
        <ele>166.9300000</ele>
        <time>2010-06-18T17:42:34Z</time>
      </trkpt>
      <trkpt lat="48.5601860" lon="7.5295550">
        <ele>166.4500000</ele>
        <time>2010-06-18T17:42:50Z</time>
      </trkpt>
      <trkpt lat="48.5593740" lon="7.5292970">
        <ele>166.4500000</ele>
        <time>2010-06-18T17:43:05Z</time>
      </trkpt>
      <trkpt lat="48.5583980" lon="7.5289840">
        <ele>166.9300000</ele>
        <time>2010-06-18T17:43:23Z</time>
      </trkpt>
      <trkpt lat="48.5574660" lon="7.5286540">
        <ele>166.9300000</ele>
        <time>2010-06-18T17:43:41Z</time>
      </trkpt>
      <trkpt lat="48.5567870" lon="7.5282570">
        <ele>167.4100000</ele>
        <time>2010-06-18T17:43:55Z</time>
      </trkpt>
      <trkpt lat="48.5565170" lon="7.5280570">
        <ele>167.8900000</ele>
        <time>2010-06-18T17:44:01Z</time>
      </trkpt>
      <trkpt lat="48.5562680" lon="7.5278050">
        <ele>168.3700000</ele>
        <time>2010-06-18T17:44:07Z</time>
      </trkpt>
      <trkpt lat="48.5561100" lon="7.5277050">
        <ele>168.3700000</ele>
        <time>2010-06-18T17:44:11Z</time>
      </trkpt>
      <trkpt lat="48.5560340" lon="7.5277030">
        <ele>168.8500000</ele>
        <time>2010-06-18T17:44:13Z</time>
      </trkpt>
      <trkpt lat="48.5559090" lon="7.5275820">
        <ele>168.8500000</ele>
        <time>2010-06-18T17:44:17Z</time>
      </trkpt>
      <trkpt lat="48.5557410" lon="7.5274350">
        <ele>168.8500000</ele>
        <time>2010-06-18T17:44:22Z</time>
      </trkpt>
      <trkpt lat="48.5556110" lon="7.5272460">
        <ele>169.3300000</ele>
        <time>2010-06-18T17:44:26Z</time>
      </trkpt>
      <trkpt lat="48.5554800" lon="7.5269480">
        <ele>169.3300000</ele>
        <time>2010-06-18T17:44:31Z</time>
      </trkpt>
      <trkpt lat="48.5548500" lon="7.5261130">
        <ele>168.8500000</ele>
        <time>2010-06-18T17:44:48Z</time>
      </trkpt>
      <trkpt lat="48.5540010" lon="7.5250840">
        <ele>169.3300000</ele>
        <time>2010-06-18T17:45:08Z</time>
      </trkpt>
      <trkpt lat="48.5531970" lon="7.5240820">
        <ele>169.3300000</ele>
        <time>2010-06-18T17:45:27Z</time>
      </trkpt>
      <trkpt lat="48.5523180" lon="7.5228440">
        <ele>169.3300000</ele>
        <time>2010-06-18T17:45:49Z</time>
      </trkpt>
      <trkpt lat="48.5518040" lon="7.5213860">
        <ele>169.3300000</ele>
        <time>2010-06-18T17:46:09Z</time>
      </trkpt>
      <trkpt lat="48.5514040" lon="7.5200660">
        <ele>170.7700000</ele>
        <time>2010-06-18T17:46:28Z</time>
      </trkpt>
      <trkpt lat="48.5510530" lon="7.5189140">
        <ele>171.2500000</ele>
        <time>2010-06-18T17:46:44Z</time>
      </trkpt>
      <trkpt lat="48.5505490" lon="7.5174500">
        <ele>171.7300000</ele>
        <time>2010-06-18T17:47:04Z</time>
      </trkpt>
      <trkpt lat="48.5499740" lon="7.5161940">
        <ele>170.2900000</ele>
        <time>2010-06-18T17:47:22Z</time>
      </trkpt>
      <trkpt lat="48.5494210" lon="7.5152320">
        <ele>171.2500000</ele>
        <time>2010-06-18T17:47:39Z</time>
      </trkpt>
      <trkpt lat="48.5493080" lon="7.5150580">
        <ele>170.7700000</ele>
        <time>2010-06-18T17:47:42Z</time>
      </trkpt>
      <trkpt lat="48.5491320" lon="7.5148820">
        <ele>170.7700000</ele>
        <time>2010-06-18T17:47:46Z</time>
      </trkpt>
      <trkpt lat="48.5490490" lon="7.5148180">
        <ele>171.2500000</ele>
        <time>2010-06-18T17:47:48Z</time>
      </trkpt>
      <trkpt lat="48.5486780" lon="7.5145790">
        <ele>172.2100000</ele>
        <time>2010-06-18T17:48:01Z</time>
      </trkpt>
      <trkpt lat="48.5485040" lon="7.5142370">
        <ele>172.2100000</ele>
        <time>2010-06-18T17:48:10Z</time>
      </trkpt>
      <trkpt lat="48.5484700" lon="7.5140240">
        <ele>171.2500000</ele>
        <time>2010-06-18T17:48:13Z</time>
      </trkpt>
      <trkpt lat="48.5483310" lon="7.5136890">
        <ele>171.2500000</ele>
        <time>2010-06-18T17:48:18Z</time>
      </trkpt>
      <trkpt lat="48.5482530" lon="7.5135860">
        <ele>172.2100000</ele>
        <time>2010-06-18T17:48:20Z</time>
      </trkpt>
      <trkpt lat="48.5475350" lon="7.5126750">
        <ele>173.1700000</ele>
        <time>2010-06-18T17:48:39Z</time>
      </trkpt>
      <trkpt lat="48.5473870" lon="7.5124860">
        <ele>173.1700000</ele>
        <time>2010-06-18T17:48:43Z</time>
      </trkpt>
      <trkpt lat="48.5467090" lon="7.5115500">
        <ele>172.6900000</ele>
        <time>2010-06-18T17:49:01Z</time>
      </trkpt>
      <trkpt lat="48.5459610" lon="7.5105800">
        <ele>173.6600000</ele>
        <time>2010-06-18T17:49:21Z</time>
      </trkpt>
      <trkpt lat="48.5458530" lon="7.5104480">
        <ele>173.6600000</ele>
        <time>2010-06-18T17:49:24Z</time>
      </trkpt>
      <trkpt lat="48.5454750" lon="7.5100120">
        <ele>174.6200000</ele>
        <time>2010-06-18T17:49:36Z</time>
      </trkpt>
      <trkpt lat="48.5453280" lon="7.5096530">
        <ele>175.1000000</ele>
        <time>2010-06-18T17:49:43Z</time>
      </trkpt>
      <trkpt lat="48.5447360" lon="7.5086820">
        <ele>175.5800000</ele>
        <time>2010-06-18T17:50:03Z</time>
      </trkpt>
      <trkpt lat="48.5447060" lon="7.5086330">
        <ele>175.1000000</ele>
        <time>2010-06-18T17:50:04Z</time>
      </trkpt>
      <trkpt lat="48.5444180" lon="7.5081940">
        <ele>175.5800000</ele>
        <time>2010-06-18T17:50:13Z</time>
      </trkpt>
      <trkpt lat="48.5438550" lon="7.5073530">
        <ele>175.1000000</ele>
        <time>2010-06-18T17:50:30Z</time>
      </trkpt>
      <trkpt lat="48.5432430" lon="7.5066200">
        <ele>175.5800000</ele>
        <time>2010-06-18T17:50:47Z</time>
      </trkpt>
      <trkpt lat="48.5429890" lon="7.5063410">
        <ele>175.5800000</ele>
        <time>2010-06-18T17:50:54Z</time>
      </trkpt>
      <trkpt lat="48.5429120" lon="7.5062710">
        <ele>175.1000000</ele>
        <time>2010-06-18T17:50:56Z</time>
      </trkpt>
      <trkpt lat="48.5428140" lon="7.5061350">
        <ele>175.1000000</ele>
        <time>2010-06-18T17:50:59Z</time>
      </trkpt>
      <trkpt lat="48.5425260" lon="7.5055440">
        <ele>175.1000000</ele>
        <time>2010-06-18T17:51:12Z</time>
      </trkpt>
      <trkpt lat="48.5425090" lon="7.5055010">
        <ele>175.5800000</ele>
        <time>2010-06-18T17:51:13Z</time>
      </trkpt>
      <trkpt lat="48.5425400" lon="7.5052740">
        <ele>175.1000000</ele>
        <time>2010-06-18T17:51:19Z</time>
      </trkpt>
      <trkpt lat="48.5425500" lon="7.5051580">
        <ele>176.5400000</ele>
        <time>2010-06-18T17:51:21Z</time>
      </trkpt>
      <trkpt lat="48.5424320" lon="7.5049350">
        <ele>176.5400000</ele>
        <time>2010-06-18T17:51:26Z</time>
      </trkpt>
      <trkpt lat="48.5421700" lon="7.5044460">
        <ele>177.0200000</ele>
        <time>2010-06-18T17:51:37Z</time>
      </trkpt>
      <trkpt lat="48.5417140" lon="7.5036210">
        <ele>175.5800000</ele>
        <time>2010-06-18T17:51:52Z</time>
      </trkpt>
      <trkpt lat="48.5416150" lon="7.5034500">
        <ele>175.5800000</ele>
        <time>2010-06-18T17:51:55Z</time>
      </trkpt>
      <trkpt lat="48.5413290" lon="7.5029330">
        <ele>175.5800000</ele>
        <time>2010-06-18T17:52:04Z</time>
      </trkpt>
      <trkpt lat="48.5410170" lon="7.5023620">
        <ele>175.1000000</ele>
        <time>2010-06-18T17:52:14Z</time>
      </trkpt>
      <trkpt lat="48.5409470" lon="7.5022600">
        <ele>175.1000000</ele>
        <time>2010-06-18T17:52:16Z</time>
      </trkpt>
      <trkpt lat="48.5407210" lon="7.5018760">
        <ele>175.5800000</ele>
        <time>2010-06-18T17:52:23Z</time>
      </trkpt>
      <trkpt lat="48.5400450" lon="7.5012850">
        <ele>175.5800000</ele>
        <time>2010-06-18T17:52:39Z</time>
      </trkpt>
      <trkpt lat="48.5393000" lon="7.5005170">
        <ele>176.5400000</ele>
        <time>2010-06-18T17:52:57Z</time>
      </trkpt>
      <trkpt lat="48.5385850" lon="7.4997220">
        <ele>177.0200000</ele>
        <time>2010-06-18T17:53:15Z</time>
      </trkpt>
      <trkpt lat="48.5383840" lon="7.4994920">
        <ele>177.0200000</ele>
        <time>2010-06-18T17:53:20Z</time>
      </trkpt>
      <trkpt lat="48.5378730" lon="7.4992450">
        <ele>177.5000000</ele>
        <time>2010-06-18T17:53:31Z</time>
      </trkpt>
      <trkpt lat="48.5374260" lon="7.4991520">
        <ele>178.4600000</ele>
        <time>2010-06-18T17:53:41Z</time>
      </trkpt>
      <trkpt lat="48.5374330" lon="7.4989750">
        <ele>177.9800000</ele>
        <time>2010-06-18T17:53:46Z</time>
      </trkpt>
      <trkpt lat="48.5379820" lon="7.4982800">
        <ele>179.9000000</ele>
        <time>2010-06-18T17:54:03Z</time>
      </trkpt>
      <trkpt lat="48.5383540" lon="7.4977750">
        <ele>179.4200000</ele>
        <time>2010-06-18T17:54:20Z</time>
      </trkpt>
      <trkpt lat="48.5385160" lon="7.4975620">
        <ele>179.4200000</ele>
        <time>2010-06-18T17:54:41Z</time>
      </trkpt>
      <trkpt lat="48.5386060" lon="7.4974130">
        <ele>178.9400000</ele>
        <time>2010-06-18T17:54:44Z</time>
      </trkpt>
      <trkpt lat="48.5388980" lon="7.4964060">
        <ele>177.9800000</ele>
        <time>2010-06-18T17:54:58Z</time>
      </trkpt>
      <trkpt lat="48.5392530" lon="7.4950660">
        <ele>177.5000000</ele>
        <time>2010-06-18T17:55:16Z</time>
      </trkpt>
      <trkpt lat="48.5392750" lon="7.4949900">
        <ele>177.5000000</ele>
        <time>2010-06-18T17:55:17Z</time>
      </trkpt>
      <trkpt lat="48.5395810" lon="7.4939280">
        <ele>178.9400000</ele>
        <time>2010-06-18T17:55:32Z</time>
      </trkpt>
      <trkpt lat="48.5398990" lon="7.4928890">
        <ele>178.9400000</ele>
        <time>2010-06-18T17:55:48Z</time>
      </trkpt>
      <trkpt lat="48.5400780" lon="7.4922660">
        <ele>178.9400000</ele>
        <time>2010-06-18T17:56:02Z</time>
      </trkpt>
      <trkpt lat="48.5400890" lon="7.4922290">
        <ele>178.9400000</ele>
        <time>2010-06-18T17:56:21Z</time>
      </trkpt>
      <trkpt lat="48.5402480" lon="7.4916730">
        <ele>178.4600000</ele>
        <time>2010-06-18T17:56:32Z</time>
      </trkpt>
      <trkpt lat="48.5403490" lon="7.4910980">
        <ele>178.4600000</ele>
        <time>2010-06-18T17:56:41Z</time>
      </trkpt>
      <trkpt lat="48.5404180" lon="7.4900360">
        <ele>178.9400000</ele>
        <time>2010-06-18T17:56:56Z</time>
      </trkpt>
      <trkpt lat="48.5404190" lon="7.4898170">
        <ele>179.4200000</ele>
        <time>2010-06-18T17:56:59Z</time>
      </trkpt>
      <trkpt lat="48.5405060" lon="7.4891820">
        <ele>178.9400000</ele>
        <time>2010-06-18T17:57:08Z</time>
      </trkpt>
      <trkpt lat="48.5407200" lon="7.4887870">
        <ele>179.4200000</ele>
        <time>2010-06-18T17:57:15Z</time>
      </trkpt>
      <trkpt lat="48.5410450" lon="7.4883630">
        <ele>179.4200000</ele>
        <time>2010-06-18T17:57:25Z</time>
      </trkpt>
      <trkpt lat="48.5412250" lon="7.4881730">
        <ele>180.3800000</ele>
        <time>2010-06-18T17:57:30Z</time>
      </trkpt>
      <trkpt lat="48.5412840" lon="7.4880850">
        <ele>180.8700000</ele>
        <time>2010-06-18T17:57:32Z</time>
      </trkpt>
      <trkpt lat="48.5413730" lon="7.4878700">
        <ele>180.8700000</ele>
        <time>2010-06-18T17:57:36Z</time>
      </trkpt>
      <trkpt lat="48.5413900" lon="7.4876340">
        <ele>182.3100000</ele>
        <time>2010-06-18T17:57:40Z</time>
      </trkpt>
      <trkpt lat="48.5412530" lon="7.4867740">
        <ele>185.6700000</ele>
        <time>2010-06-18T17:57:57Z</time>
      </trkpt>
      <trkpt lat="48.5412680" lon="7.4862130">
        <ele>189.0400000</ele>
        <time>2010-06-18T17:58:12Z</time>
      </trkpt>
      <trkpt lat="48.5413190" lon="7.4857860">
        <ele>191.4400000</ele>
        <time>2010-06-18T17:58:27Z</time>
      </trkpt>
      <trkpt lat="48.5413950" lon="7.4853510">
        <ele>193.3600000</ele>
        <time>2010-06-18T17:58:42Z</time>
      </trkpt>
      <trkpt lat="48.5414110" lon="7.4851600">
        <ele>194.8000000</ele>
        <time>2010-06-18T17:58:49Z</time>
      </trkpt>
      <trkpt lat="48.5414530" lon="7.4848980">
        <ele>195.7700000</ele>
        <time>2010-06-18T17:58:59Z</time>
      </trkpt>
      <trkpt lat="48.5413790" lon="7.4843740">
        <ele>197.2100000</ele>
        <time>2010-06-18T17:59:14Z</time>
      </trkpt>
      <trkpt lat="48.5410730" lon="7.4838430">
        <ele>198.6500000</ele>
        <time>2010-06-18T17:59:31Z</time>
      </trkpt>
      <trkpt lat="48.5406880" lon="7.4831730">
        <ele>200.0900000</ele>
        <time>2010-06-18T17:59:50Z</time>
      </trkpt>
      <trkpt lat="48.5403830" lon="7.4826600">
        <ele>201.0500000</ele>
        <time>2010-06-18T18:00:05Z</time>
      </trkpt>
      <trkpt lat="48.5400400" lon="7.4820850">
        <ele>203.4600000</ele>
        <time>2010-06-18T18:00:22Z</time>
      </trkpt>
      <trkpt lat="48.5397200" lon="7.4815220">
        <ele>205.3800000</ele>
        <time>2010-06-18T18:00:40Z</time>
      </trkpt>
      <trkpt lat="48.5394970" lon="7.4810900">
        <ele>207.7800000</ele>
        <time>2010-06-18T18:00:54Z</time>
      </trkpt>
      <trkpt lat="48.5392710" lon="7.4806870">
        <ele>209.7000000</ele>
        <time>2010-06-18T18:01:08Z</time>
      </trkpt>
      <trkpt lat="48.5390090" lon="7.4801830">
        <ele>213.0700000</ele>
        <time>2010-06-18T18:01:25Z</time>
      </trkpt>
      <trkpt lat="48.5387130" lon="7.4796240">
        <ele>214.5100000</ele>
        <time>2010-06-18T18:01:44Z</time>
      </trkpt>
      <trkpt lat="48.5384820" lon="7.4789460">
        <ele>214.9900000</ele>
        <time>2010-06-18T18:02:00Z</time>
      </trkpt>
      <trkpt lat="48.5383410" lon="7.4784850">
        <ele>213.5500000</ele>
        <time>2010-06-18T18:02:08Z</time>
      </trkpt>
      <trkpt lat="48.5382820" lon="7.4781590">
        <ele>211.6300000</ele>
        <time>2010-06-18T18:02:12Z</time>
      </trkpt>
      <trkpt lat="48.5382670" lon="7.4778650">
        <ele>210.6700000</ele>
        <time>2010-06-18T18:02:15Z</time>
      </trkpt>
      <trkpt lat="48.5382880" lon="7.4775630">
        <ele>209.7000000</ele>
        <time>2010-06-18T18:02:18Z</time>
      </trkpt>
      <trkpt lat="48.5383960" lon="7.4771940">
        <ele>208.7400000</ele>
        <time>2010-06-18T18:02:21Z</time>
      </trkpt>
      <trkpt lat="48.5387970" lon="7.4759690">
        <ele>203.9400000</ele>
        <time>2010-06-18T18:02:31Z</time>
      </trkpt>
      <trkpt lat="48.5388380" lon="7.4758470">
        <ele>203.9400000</ele>
        <time>2010-06-18T18:02:32Z</time>
      </trkpt>
      <trkpt lat="48.5390980" lon="7.4749770">
        <ele>200.5700000</ele>
        <time>2010-06-18T18:02:39Z</time>
      </trkpt>
      <trkpt lat="48.5392810" lon="7.4736090">
        <ele>199.1300000</ele>
        <time>2010-06-18T18:02:50Z</time>
      </trkpt>
      <trkpt lat="48.5393200" lon="7.4717340">
        <ele>199.1300000</ele>
        <time>2010-06-18T18:03:08Z</time>
      </trkpt>
      <trkpt lat="48.5393200" lon="7.4696810">
        <ele>197.2100000</ele>
        <time>2010-06-18T18:03:29Z</time>
      </trkpt>
      <trkpt lat="48.5392670" lon="7.4690940">
        <ele>193.8400000</ele>
        <time>2010-06-18T18:03:34Z</time>
      </trkpt>
      <trkpt lat="48.5391470" lon="7.4686070">
        <ele>192.8800000</ele>
        <time>2010-06-18T18:03:38Z</time>
      </trkpt>
      <trkpt lat="48.5388910" lon="7.4675860">
        <ele>189.5200000</ele>
        <time>2010-06-18T18:03:46Z</time>
      </trkpt>
      <trkpt lat="48.5388780" lon="7.4674580">
        <ele>190.0000000</ele>
        <time>2010-06-18T18:03:47Z</time>
      </trkpt>
      <trkpt lat="48.5389570" lon="7.4660840">
        <ele>190.9600000</ele>
        <time>2010-06-18T18:04:00Z</time>
      </trkpt>
      <trkpt lat="48.5389970" lon="7.4647440">
        <ele>190.9600000</ele>
        <time>2010-06-18T18:04:15Z</time>
      </trkpt>
      <trkpt lat="48.5390450" lon="7.4635720">
        <ele>191.4400000</ele>
        <time>2010-06-18T18:04:29Z</time>
      </trkpt>
      <trkpt lat="48.5390810" lon="7.4631520">
        <ele>192.8800000</ele>
        <time>2010-06-18T18:04:34Z</time>
      </trkpt>
      <trkpt lat="48.5392450" lon="7.4619890">
        <ele>192.4000000</ele>
        <time>2010-06-18T18:04:50Z</time>
      </trkpt>
      <trkpt lat="48.5394260" lon="7.4609940">
        <ele>192.8800000</ele>
        <time>2010-06-18T18:05:05Z</time>
      </trkpt>
      <trkpt lat="48.5394500" lon="7.4606180">
        <ele>192.4000000</ele>
        <time>2010-06-18T18:05:11Z</time>
      </trkpt>
      <trkpt lat="48.5393020" lon="7.4603130">
        <ele>191.4400000</ele>
        <time>2010-06-18T18:05:17Z</time>
      </trkpt>
      <trkpt lat="48.5386860" lon="7.4599990">
        <ele>189.0400000</ele>
        <time>2010-06-18T18:05:27Z</time>
      </trkpt>
      <trkpt lat="48.5384160" lon="7.4595340">
        <ele>188.5600000</ele>
        <time>2010-06-18T18:05:34Z</time>
      </trkpt>
      <trkpt lat="48.5383120" lon="7.4586660">
        <ele>188.5600000</ele>
        <time>2010-06-18T18:05:45Z</time>
      </trkpt>
      <trkpt lat="48.5381580" lon="7.4581840">
        <ele>189.5200000</ele>
        <time>2010-06-18T18:05:55Z</time>
      </trkpt>
      <trkpt lat="48.5381230" lon="7.4580060">
        <ele>190.0000000</ele>
        <time>2010-06-18T18:06:01Z</time>
      </trkpt>
      <trkpt lat="48.5381330" lon="7.4578450">
        <ele>189.5200000</ele>
        <time>2010-06-18T18:06:04Z</time>
      </trkpt>
      <trkpt lat="48.5384470" lon="7.4569070">
        <ele>190.0000000</ele>
        <time>2010-06-18T18:06:17Z</time>
      </trkpt>
      <trkpt lat="48.5386120" lon="7.4562080">
        <ele>190.0000000</ele>
        <time>2010-06-18T18:06:30Z</time>
      </trkpt>
      <trkpt lat="48.5387240" lon="7.4561950">
        <ele>190.0000000</ele>
        <time>2010-06-18T18:06:38Z</time>
      </trkpt>
      <trkpt lat="48.5387000" lon="7.4561860">
        <ele>190.0000000</ele>
        <time>2010-06-18T18:06:52Z</time>
      </trkpt>
      <trkpt lat="48.5386960" lon="7.4562120">
        <ele>189.5200000</ele>
        <time>2010-06-18T18:10:57Z</time>
      </trkpt>
    </trkseg>
  </trk>

</gpx>
